<?xml version='1.0' encoding='UTF-8'?><gpx version="1.1" creator="JPX - https://github.com/jenetics/jpx" xmlns="http://www.topografix.com/GPX/1/1"><trk><trkseg><trkpt lat="37.5743817" lon="15.0575283"><ele>421.99999999999994</ele><time>2026-04-24T15:47:01.509Z</time></trkpt><trkpt lat="37.5743183" lon="15.057475"><ele>422.0</ele><time>2026-04-24T15:47:22.548Z</time></trkpt><trkpt lat="37.5742467" lon="15.0574883"><ele>422.0</ele><time>2026-04-24T15:47:24.549Z</time></trkpt><trkpt lat="37.5741633" lon="15.0575067"><ele>422.0</ele><time>2026-04-24T15:47:26.548Z</time></trkpt><trkpt lat="37.5740517" lon="15.05753"><ele>421.99999999999994</ele><time>2026-04-24T15:47:28.548Z</time></trkpt><trkpt lat="37.5739533" lon="15.0575517"><ele>422.0</ele><time>2026-04-24T15:47:31.549Z</time></trkpt><trkpt lat="37.573935" lon="15.0576333"><ele>422.0</ele><time>2026-04-24T15:47:33.548Z</time></trkpt><trkpt lat="37.5738783" lon="15.0577233"><ele>422.0</ele><time>2026-04-24T15:47:36.548Z</time></trkpt><trkpt lat="37.5737933" lon="15.0577717"><ele>422.0</ele><time>2026-04-24T15:47:38.548Z</time></trkpt><trkpt lat="37.5736817" lon="15.0578"><ele>422.0</ele><time>2026-04-24T15:47:40.549Z</time></trkpt><trkpt lat="37.5735667" lon="15.0578067"><ele>422.0</ele><time>2026-04-24T15:47:42.548Z</time></trkpt><trkpt lat="37.5735" lon="15.0578"><ele>421.0</ele><time>2026-04-24T15:47:43.548Z</time></trkpt><trkpt lat="37.573395" lon="15.05781"><ele>420.0</ele><time>2026-04-24T15:47:45.549Z</time></trkpt><trkpt lat="37.5733267" lon="15.0578133"><ele>419.0</ele><time>2026-04-24T15:47:46.549Z</time></trkpt><trkpt lat="37.5732217" lon="15.0578267"><ele>418.0</ele><time>2026-04-24T15:47:48.548Z</time></trkpt><trkpt lat="37.5731117" lon="15.0578467"><ele>417.0</ele><time>2026-04-24T15:47:50.549Z</time></trkpt><trkpt lat="37.573015" lon="15.057865"><ele>417.0</ele><time>2026-04-24T15:47:52.548Z</time></trkpt><trkpt lat="37.57293" lon="15.05789"><ele>417.0</ele><time>2026-04-24T15:47:54.549Z</time></trkpt><trkpt lat="37.572835" lon="15.0578733"><ele>417.0</ele><time>2026-04-24T15:47:56.548Z</time></trkpt><trkpt lat="37.5727467" lon="15.0578283"><ele>417.0</ele><time>2026-04-24T15:47:58.549Z</time></trkpt><trkpt lat="37.5726717" lon="15.0577983"><ele>417.0</ele><time>2026-04-24T15:48:00.549Z</time></trkpt><trkpt lat="37.5725983" lon="15.0578667"><ele>417.0</ele><time>2026-04-24T15:48:03.548Z</time></trkpt><trkpt lat="37.572515" lon="15.0579333"><ele>416.0</ele><time>2026-04-24T15:48:05.548Z</time></trkpt><trkpt lat="37.5724233" lon="15.057965"><ele>415.0</ele><time>2026-04-24T15:48:06.549Z</time></trkpt><trkpt lat="37.57232" lon="15.0579917"><ele>414.0</ele><time>2026-04-24T15:48:07.549Z</time></trkpt><trkpt lat="37.5722217" lon="15.05801"><ele>413.0</ele><time>2026-04-24T15:48:08.549Z</time></trkpt><trkpt lat="37.5721117" lon="15.058035"><ele>412.0</ele><time>2026-04-24T15:48:09.549Z</time></trkpt><trkpt lat="37.5719983" lon="15.05806"><ele>410.75</ele><time>2026-04-24T15:48:10.548Z</time></trkpt><trkpt lat="37.5718767" lon="15.0580883"><ele>409.5</ele><time>2026-04-24T15:48:11.548Z</time></trkpt><trkpt lat="37.5717417" lon="15.058125"><ele>408.25</ele><time>2026-04-24T15:48:12.548Z</time></trkpt><trkpt lat="37.5716133" lon="15.0581567"><ele>407.0</ele><time>2026-04-24T15:48:13.549Z</time></trkpt><trkpt lat="37.5714767" lon="15.05818"><ele>407.0</ele><time>2026-04-24T15:48:14.548Z</time></trkpt><trkpt lat="37.5713383" lon="15.058205"><ele>407.0</ele><time>2026-04-24T15:48:15.548Z</time></trkpt><trkpt lat="37.5711917" lon="15.05822"><ele>407.0</ele><time>2026-04-24T15:48:16.548Z</time></trkpt><trkpt lat="37.5710483" lon="15.0582367"><ele>407.0</ele><time>2026-04-24T15:48:17.548Z</time></trkpt><trkpt lat="37.570895" lon="15.0582533"><ele>407.0</ele><time>2026-04-24T15:48:18.549Z</time></trkpt><trkpt lat="37.57075" lon="15.058275"><ele>407.0</ele><time>2026-04-24T15:48:19.548Z</time></trkpt><trkpt lat="37.5706067" lon="15.0582917"><ele>407.0</ele><time>2026-04-24T15:48:20.548Z</time></trkpt><trkpt lat="37.5704733" lon="15.0583033"><ele>407.0</ele><time>2026-04-24T15:48:21.548Z</time></trkpt><trkpt lat="37.5703467" lon="15.0583167"><ele>406.20000000000005</ele><time>2026-04-24T15:48:22.549Z</time></trkpt><trkpt lat="37.5702267" lon="15.05833"><ele>405.4</ele><time>2026-04-24T15:48:23.549Z</time></trkpt><trkpt lat="37.5701183" lon="15.0583433"><ele>404.6</ele><time>2026-04-24T15:48:24.548Z</time></trkpt><trkpt lat="37.5700183" lon="15.0583583"><ele>403.79999999999995</ele><time>2026-04-24T15:48:25.549Z</time></trkpt><trkpt lat="37.5699283" lon="15.05837"><ele>403.0</ele><time>2026-04-24T15:48:26.548Z</time></trkpt><trkpt lat="37.5698467" lon="15.05838"><ele>403.0</ele><time>2026-04-24T15:48:27.548Z</time></trkpt><trkpt lat="37.569745" lon="15.0583933"><ele>403.0</ele><time>2026-04-24T15:48:29.549Z</time></trkpt><trkpt lat="37.569665" lon="15.0584117"><ele>403.0</ele><time>2026-04-24T15:48:31.549Z</time></trkpt><trkpt lat="37.5695617" lon="15.058435"><ele>403.0</ele><time>2026-04-24T15:48:33.549Z</time></trkpt><trkpt lat="37.569455" lon="15.05845"><ele>403.0</ele><time>2026-04-24T15:48:35.548Z</time></trkpt><trkpt lat="37.5693467" lon="15.058465"><ele>402.2</ele><time>2026-04-24T15:48:37.548Z</time></trkpt><trkpt lat="37.5692183" lon="15.058475"><ele>401.4</ele><time>2026-04-24T15:48:39.549Z</time></trkpt><trkpt lat="37.5691367" lon="15.058485"><ele>400.59999999999997</ele><time>2026-04-24T15:48:40.548Z</time></trkpt><trkpt lat="37.5690433" lon="15.0584983"><ele>399.79999999999995</ele><time>2026-04-24T15:48:41.549Z</time></trkpt><trkpt lat="37.56895" lon="15.0585167"><ele>399.0</ele><time>2026-04-24T15:48:42.548Z</time></trkpt><trkpt lat="37.5688633" lon="15.058535"><ele>399.0</ele><time>2026-04-24T15:48:43.549Z</time></trkpt><trkpt lat="37.5687833" lon="15.0585633"><ele>399.0</ele><time>2026-04-24T15:48:44.548Z</time></trkpt><trkpt lat="37.5687017" lon="15.0585933"><ele>399.0</ele><time>2026-04-24T15:48:45.548Z</time></trkpt><trkpt lat="37.5686183" lon="15.0586267"><ele>399.0</ele><time>2026-04-24T15:48:46.548Z</time></trkpt><trkpt lat="37.56853" lon="15.0586733"><ele>399.0</ele><time>2026-04-24T15:48:47.549Z</time></trkpt><trkpt lat="37.5684167" lon="15.0587233"><ele>397.5</ele><time>2026-04-24T15:48:48.549Z</time></trkpt><trkpt lat="37.5682967" lon="15.0587817"><ele>396.0</ele><time>2026-04-24T15:48:49.549Z</time></trkpt><trkpt lat="37.56817" lon="15.0588467"><ele>394.5</ele><time>2026-04-24T15:48:50.548Z</time></trkpt><trkpt lat="37.568045" lon="15.0589333"><ele>393.0</ele><time>2026-04-24T15:48:51.548Z</time></trkpt><trkpt lat="37.5679167" lon="15.0590317"><ele>391.66666666666663</ele><time>2026-04-24T15:48:52.548Z</time></trkpt><trkpt lat="37.5677833" lon="15.0591483"><ele>390.3333333333333</ele><time>2026-04-24T15:48:53.548Z</time></trkpt><trkpt lat="37.5676533" lon="15.0592583"><ele>389.0</ele><time>2026-04-24T15:48:54.549Z</time></trkpt><trkpt lat="37.5675233" lon="15.0593967"><ele>389.0</ele><time>2026-04-24T15:48:55.549Z</time></trkpt><trkpt lat="37.567395" lon="15.0595433"><ele>389.0</ele><time>2026-04-24T15:48:56.548Z</time></trkpt><trkpt lat="37.5672717" lon="15.0597033"><ele>389.0</ele><time>2026-04-24T15:48:57.549Z</time></trkpt><trkpt lat="37.5671533" lon="15.059865"><ele>388.75</ele><time>2026-04-24T15:48:58.548Z</time></trkpt><trkpt lat="37.56704" lon="15.060015"><ele>388.5</ele><time>2026-04-24T15:48:59.549Z</time></trkpt><trkpt lat="37.5669467" lon="15.060145"><ele>388.25</ele><time>2026-04-24T15:49:00.548Z</time></trkpt><trkpt lat="37.56686" lon="15.06027"><ele>388.0</ele><time>2026-04-24T15:49:01.548Z</time></trkpt><trkpt lat="37.566785" lon="15.060375"><ele>387.0</ele><time>2026-04-24T15:49:02.549Z</time></trkpt><trkpt lat="37.566725" lon="15.0604783"><ele>386.0</ele><time>2026-04-24T15:49:03.548Z</time></trkpt><trkpt lat="37.5666617" lon="15.06057"><ele>385.0</ele><time>2026-04-24T15:49:04.549Z</time></trkpt><trkpt lat="37.5666" lon="15.0606667"><ele>384.0</ele><time>2026-04-24T15:49:05.549Z</time></trkpt><trkpt lat="37.56654" lon="15.0607517"><ele>383.0</ele><time>2026-04-24T15:49:06.549Z</time></trkpt><trkpt lat="37.5664917" lon="15.060815"><ele>382.83333333333337</ele><time>2026-04-24T15:49:07.548Z</time></trkpt><trkpt lat="37.566425" lon="15.0608767"><ele>382.6666666666667</ele><time>2026-04-24T15:49:09.549Z</time></trkpt><trkpt lat="37.5663617" lon="15.0609417"><ele>382.5</ele><time>2026-04-24T15:49:12.548Z</time></trkpt><trkpt lat="37.5662983" lon="15.06099"><ele>382.3333333333333</ele><time>2026-04-24T15:49:14.549Z</time></trkpt><trkpt lat="37.56619" lon="15.0610583"><ele>382.16666666666663</ele><time>2026-04-24T15:49:16.548Z</time></trkpt><trkpt lat="37.56614" lon="15.0611233"><ele>382.0</ele><time>2026-04-24T15:49:17.549Z</time></trkpt><trkpt lat="37.5661133" lon="15.061215"><ele>381.5</ele><time>2026-04-24T15:49:18.549Z</time></trkpt><trkpt lat="37.5661067" lon="15.061315"><ele>381.0</ele><time>2026-04-24T15:49:19.549Z</time></trkpt><trkpt lat="37.5660967" lon="15.0614117"><ele>380.5</ele><time>2026-04-24T15:49:20.548Z</time></trkpt><trkpt lat="37.5660733" lon="15.0615117"><ele>380.0</ele><time>2026-04-24T15:49:21.548Z</time></trkpt><trkpt lat="37.56604" lon="15.061615"><ele>379.5</ele><time>2026-04-24T15:49:22.549Z</time></trkpt><trkpt lat="37.5659883" lon="15.06171"><ele>379.0</ele><time>2026-04-24T15:49:23.549Z</time></trkpt><trkpt lat="37.5659417" lon="15.0618067"><ele>378.8333333333333</ele><time>2026-04-24T15:49:24.549Z</time></trkpt><trkpt lat="37.565895" lon="15.0619"><ele>378.66666666666663</ele><time>2026-04-24T15:49:25.549Z</time></trkpt><trkpt lat="37.565855" lon="15.0619933"><ele>378.5</ele><time>2026-04-24T15:49:26.548Z</time></trkpt><trkpt lat="37.5658033" lon="15.06208"><ele>378.3333333333333</ele><time>2026-04-24T15:49:27.549Z</time></trkpt><trkpt lat="37.5657617" lon="15.0621533"><ele>378.1666666666667</ele><time>2026-04-24T15:49:28.548Z</time></trkpt><trkpt lat="37.56571" lon="15.0622583"><ele>378.0</ele><time>2026-04-24T15:49:29.548Z</time></trkpt><trkpt lat="37.5656633" lon="15.0623683"><ele>377.79999999999995</ele><time>2026-04-24T15:49:30.549Z</time></trkpt><trkpt lat="37.5656817" lon="15.06251"><ele>377.6</ele><time>2026-04-24T15:49:31.549Z</time></trkpt><trkpt lat="37.5656283" lon="15.06261"><ele>377.4</ele><time>2026-04-24T15:49:32.549Z</time></trkpt><trkpt lat="37.565585" lon="15.06271"><ele>377.20000000000005</ele><time>2026-04-24T15:49:33.548Z</time></trkpt><trkpt lat="37.5655433" lon="15.0628217"><ele>377.0</ele><time>2026-04-24T15:49:34.549Z</time></trkpt><trkpt lat="37.56551" lon="15.0629417"><ele>377.0</ele><time>2026-04-24T15:49:35.549Z</time></trkpt><trkpt lat="37.5654883" lon="15.063075"><ele>377.0</ele><time>2026-04-24T15:49:36.548Z</time></trkpt><trkpt lat="37.5654767" lon="15.0632167"><ele>377.0</ele><time>2026-04-24T15:49:37.549Z</time></trkpt><trkpt lat="37.56547" lon="15.0633567"><ele>377.0</ele><time>2026-04-24T15:49:38.549Z</time></trkpt><trkpt lat="37.5654583" lon="15.0634817"><ele>377.0</ele><time>2026-04-24T15:49:39.548Z</time></trkpt><trkpt lat="37.5654467" lon="15.0635933"><ele>377.20000000000005</ele><time>2026-04-24T15:49:40.549Z</time></trkpt><trkpt lat="37.5654333" lon="15.063695"><ele>377.4</ele><time>2026-04-24T15:49:41.549Z</time></trkpt><trkpt lat="37.5654167" lon="15.0637967"><ele>377.6</ele><time>2026-04-24T15:49:42.548Z</time></trkpt><trkpt lat="37.5654" lon="15.0639"><ele>377.79999999999995</ele><time>2026-04-24T15:49:43.548Z</time></trkpt><trkpt lat="37.56538" lon="15.0640033"><ele>378.0</ele><time>2026-04-24T15:49:44.549Z</time></trkpt><trkpt lat="37.5653483" lon="15.0641517"><ele>376.8333333333333</ele><time>2026-04-24T15:49:46.549Z</time></trkpt><trkpt lat="37.5653333" lon="15.06423"><ele>375.6666666666667</ele><time>2026-04-24T15:49:47.549Z</time></trkpt><trkpt lat="37.565315" lon="15.0643083"><ele>374.5</ele><time>2026-04-24T15:49:48.549Z</time></trkpt><trkpt lat="37.5652833" lon="15.064445"><ele>373.33333333333337</ele><time>2026-04-24T15:49:50.549Z</time></trkpt><trkpt lat="37.5652517" lon="15.0645733"><ele>372.1666666666667</ele><time>2026-04-24T15:49:52.548Z</time></trkpt><trkpt lat="37.5652167" lon="15.0646767"><ele>371.0</ele><time>2026-04-24T15:49:54.549Z</time></trkpt><trkpt lat="37.5651783" lon="15.0647883"><ele>371.0</ele><time>2026-04-24T15:49:56.549Z</time></trkpt><trkpt lat="37.56514" lon="15.0649017"><ele>371.0</ele><time>2026-04-24T15:49:58.549Z</time></trkpt><trkpt lat="37.5650867" lon="15.065"><ele>371.0</ele><time>2026-04-24T15:50:00.548Z</time></trkpt><trkpt lat="37.5650167" lon="15.0651133"><ele>371.0</ele><time>2026-04-24T15:50:02.548Z</time></trkpt><trkpt lat="37.5649417" lon="15.0652283"><ele>371.0</ele><time>2026-04-24T15:50:04.549Z</time></trkpt><trkpt lat="37.5648967" lon="15.065285"><ele>371.5</ele><time>2026-04-24T15:50:05.549Z</time></trkpt><trkpt lat="37.5648483" lon="15.0653367"><ele>372.0</ele><time>2026-04-24T15:50:06.549Z</time></trkpt><trkpt lat="37.5647633" lon="15.0654117"><ele>372.5</ele><time>2026-04-24T15:50:08.549Z</time></trkpt><trkpt lat="37.564675" lon="15.0654633"><ele>373.0</ele><time>2026-04-24T15:50:10.548Z</time></trkpt><trkpt lat="37.5645983" lon="15.0655083"><ele>373.5</ele><time>2026-04-24T15:50:12.549Z</time></trkpt><trkpt lat="37.564545" lon="15.0655967"><ele>374.0</ele><time>2026-04-24T15:50:14.549Z</time></trkpt><trkpt lat="37.5645117" lon="15.0656783"><ele>374.2</ele><time>2026-04-24T15:50:16.549Z</time></trkpt><trkpt lat="37.5644317" lon="15.0657633"><ele>374.4</ele><time>2026-04-24T15:50:18.549Z</time></trkpt><trkpt lat="37.5643183" lon="15.0658417"><ele>374.6</ele><time>2026-04-24T15:50:20.549Z</time></trkpt><trkpt lat="37.5642617" lon="15.0658967"><ele>374.8</ele><time>2026-04-24T15:50:21.549Z</time></trkpt><trkpt lat="37.5642" lon="15.0659517"><ele>375.0</ele><time>2026-04-24T15:50:22.549Z</time></trkpt><trkpt lat="37.564135" lon="15.0660033"><ele>374.4</ele><time>2026-04-24T15:50:23.549Z</time></trkpt><trkpt lat="37.5640783" lon="15.0660567"><ele>373.8</ele><time>2026-04-24T15:50:24.548Z</time></trkpt><trkpt lat="37.564" lon="15.0661233"><ele>373.20000000000005</ele><time>2026-04-24T15:50:26.548Z</time></trkpt><trkpt lat="37.5639067" lon="15.0661867"><ele>372.6</ele><time>2026-04-24T15:50:28.549Z</time></trkpt><trkpt lat="37.5638217" lon="15.0662667"><ele>372.0</ele><time>2026-04-24T15:50:30.549Z</time></trkpt><trkpt lat="37.5637567" lon="15.06632"><ele>371.6</ele><time>2026-04-24T15:50:32.548Z</time></trkpt><trkpt lat="37.5636867" lon="15.06637"><ele>371.20000000000005</ele><time>2026-04-24T15:50:35.549Z</time></trkpt><trkpt lat="37.563605" lon="15.066435"><ele>370.8</ele><time>2026-04-24T15:50:54.549Z</time></trkpt><trkpt lat="37.563535" lon="15.0665033"><ele>370.4</ele><time>2026-04-24T15:50:56.549Z</time></trkpt><trkpt lat="37.5634433" lon="15.0665767"><ele>370.0</ele><time>2026-04-24T15:50:58.548Z</time></trkpt><trkpt lat="37.5633733" lon="15.066615"><ele>369.8333333333333</ele><time>2026-04-24T15:51:00.549Z</time></trkpt><trkpt lat="37.5633133" lon="15.06668"><ele>369.66666666666663</ele><time>2026-04-24T15:51:10.549Z</time></trkpt><trkpt lat="37.5632567" lon="15.0667233"><ele>369.5</ele><time>2026-04-24T15:51:12.548Z</time></trkpt><trkpt lat="37.5631883" lon="15.0667617"><ele>369.3333333333333</ele><time>2026-04-24T15:51:14.549Z</time></trkpt><trkpt lat="37.5631183" lon="15.0668033"><ele>369.1666666666667</ele><time>2026-04-24T15:51:17.548Z</time></trkpt><trkpt lat="37.5630583" lon="15.06685"><ele>369.0</ele><time>2026-04-24T15:51:19.548Z</time></trkpt><trkpt lat="37.5629783" lon="15.066915"><ele>369.0</ele><time>2026-04-24T15:51:21.549Z</time></trkpt><trkpt lat="37.5629033" lon="15.0669817"><ele>369.0</ele><time>2026-04-24T15:51:23.548Z</time></trkpt><trkpt lat="37.5628133" lon="15.06705"><ele>369.0</ele><time>2026-04-24T15:51:25.548Z</time></trkpt><trkpt lat="37.5627133" lon="15.0671267"><ele>369.0</ele><time>2026-04-24T15:51:27.549Z</time></trkpt><trkpt lat="37.56262" lon="15.067195"><ele>369.0</ele><time>2026-04-24T15:51:29.549Z</time></trkpt><trkpt lat="37.5625283" lon="15.0672517"><ele>368.2</ele><time>2026-04-24T15:51:31.548Z</time></trkpt><trkpt lat="37.5624283" lon="15.0673217"><ele>367.4</ele><time>2026-04-24T15:51:33.548Z</time></trkpt><trkpt lat="37.5623433" lon="15.0673917"><ele>366.6</ele><time>2026-04-24T15:51:35.549Z</time></trkpt><trkpt lat="37.5622583" lon="15.0674567"><ele>365.8</ele><time>2026-04-24T15:51:37.548Z</time></trkpt><trkpt lat="37.5621867" lon="15.0675167"><ele>365.0</ele><time>2026-04-24T15:51:39.548Z</time></trkpt><trkpt lat="37.562105" lon="15.06756"><ele>364.33333333333337</ele><time>2026-04-24T15:51:41.548Z</time></trkpt><trkpt lat="37.5620433" lon="15.067595"><ele>363.6666666666667</ele><time>2026-04-24T15:51:43.549Z</time></trkpt><trkpt lat="37.5619833" lon="15.067635"><ele>363.0</ele><time>2026-04-24T15:51:46.549Z</time></trkpt><trkpt lat="37.561955" lon="15.0677283"><ele>362.3333333333333</ele><time>2026-04-24T15:51:48.548Z</time></trkpt><trkpt lat="37.56197" lon="15.0678533"><ele>361.66666666666663</ele><time>2026-04-24T15:51:50.548Z</time></trkpt><trkpt lat="37.5620067" lon="15.0679917"><ele>361.0</ele><time>2026-04-24T15:51:52.549Z</time></trkpt><trkpt lat="37.5620467" lon="15.068105"><ele>361.0</ele><time>2026-04-24T15:51:54.549Z</time></trkpt><trkpt lat="37.56209" lon="15.0682033"><ele>361.0</ele><time>2026-04-24T15:51:56.548Z</time></trkpt><trkpt lat="37.5621233" lon="15.0682983"><ele>361.0</ele><time>2026-04-24T15:51:58.549Z</time></trkpt><trkpt lat="37.562145" lon="15.0683917"><ele>361.0</ele><time>2026-04-24T15:52:00.548Z</time></trkpt><trkpt lat="37.5621633" lon="15.0684983"><ele>361.0</ele><time>2026-04-24T15:52:02.548Z</time></trkpt><trkpt lat="37.5622117" lon="15.06863"><ele>360.5714285714286</ele><time>2026-04-24T15:52:04.548Z</time></trkpt><trkpt lat="37.5622367" lon="15.0687183"><ele>360.1428571428571</ele><time>2026-04-24T15:52:05.549Z</time></trkpt><trkpt lat="37.5622583" lon="15.0688"><ele>359.7142857142857</ele><time>2026-04-24T15:52:06.548Z</time></trkpt><trkpt lat="37.5622783" lon="15.0688783"><ele>359.28571428571433</ele><time>2026-04-24T15:52:07.548Z</time></trkpt><trkpt lat="37.5623033" lon="15.068955"><ele>358.8571428571429</ele><time>2026-04-24T15:52:08.548Z</time></trkpt><trkpt lat="37.562325" lon="15.06903"><ele>358.42857142857144</ele><time>2026-04-24T15:52:09.549Z</time></trkpt><trkpt lat="37.5623583" lon="15.0691167"><ele>358.0</ele><time>2026-04-24T15:52:10.548Z</time></trkpt><trkpt lat="37.5623867" lon="15.0692"><ele>357.66666666666663</ele><time>2026-04-24T15:52:11.548Z</time></trkpt><trkpt lat="37.5624083" lon="15.0692867"><ele>357.3333333333333</ele><time>2026-04-24T15:52:12.549Z</time></trkpt><trkpt lat="37.562435" lon="15.069375"><ele>357.0</ele><time>2026-04-24T15:52:13.548Z</time></trkpt><trkpt lat="37.562465" lon="15.069465"><ele>356.6666666666667</ele><time>2026-04-24T15:52:14.549Z</time></trkpt><trkpt lat="37.5625" lon="15.0695567"><ele>356.33333333333337</ele><time>2026-04-24T15:52:15.549Z</time></trkpt><trkpt lat="37.5625433" lon="15.0696617"><ele>356.0</ele><time>2026-04-24T15:52:16.548Z</time></trkpt><trkpt lat="37.5625683" lon="15.0697533"><ele>356.0</ele><time>2026-04-24T15:52:17.548Z</time></trkpt><trkpt lat="37.5625917" lon="15.06984"><ele>356.0</ele><time>2026-04-24T15:52:18.549Z</time></trkpt><trkpt lat="37.5626167" lon="15.0699133"><ele>356.0</ele><time>2026-04-24T15:52:19.549Z</time></trkpt><trkpt lat="37.562645" lon="15.0699883"><ele>356.0</ele><time>2026-04-24T15:52:20.549Z</time></trkpt><trkpt lat="37.56268" lon="15.0701033"><ele>356.0</ele><time>2026-04-24T15:52:22.548Z</time></trkpt><trkpt lat="37.56273" lon="15.0702417"><ele>356.0</ele><time>2026-04-24T15:52:24.549Z</time></trkpt><trkpt lat="37.562775" lon="15.070335"><ele>355.83333333333337</ele><time>2026-04-24T15:52:25.548Z</time></trkpt><trkpt lat="37.5628267" lon="15.0704267"><ele>355.6666666666667</ele><time>2026-04-24T15:52:26.548Z</time></trkpt><trkpt lat="37.5628833" lon="15.0705183"><ele>355.5</ele><time>2026-04-24T15:52:27.548Z</time></trkpt><trkpt lat="37.562945" lon="15.0706067"><ele>355.3333333333333</ele><time>2026-04-24T15:52:28.548Z</time></trkpt><trkpt lat="37.5630017" lon="15.0706833"><ele>355.16666666666663</ele><time>2026-04-24T15:52:29.549Z</time></trkpt><trkpt lat="37.5630533" lon="15.0707533"><ele>355.0</ele><time>2026-04-24T15:52:30.549Z</time></trkpt><trkpt lat="37.5631067" lon="15.0708317"><ele>355.3333333333333</ele><time>2026-04-24T15:52:31.548Z</time></trkpt><trkpt lat="37.56316" lon="15.0709133"><ele>355.66666666666663</ele><time>2026-04-24T15:52:32.549Z</time></trkpt><trkpt lat="37.5632217" lon="15.0709867"><ele>356.0</ele><time>2026-04-24T15:52:33.549Z</time></trkpt><trkpt lat="37.5632733" lon="15.0710567"><ele>356.3333333333333</ele><time>2026-04-24T15:52:34.548Z</time></trkpt><trkpt lat="37.5633317" lon="15.071135"><ele>356.6666666666667</ele><time>2026-04-24T15:52:35.549Z</time></trkpt><trkpt lat="37.5633767" lon="15.0712117"><ele>357.0</ele><time>2026-04-24T15:52:36.548Z</time></trkpt><trkpt lat="37.5634467" lon="15.0713083"><ele>357.0</ele><time>2026-04-24T15:52:37.549Z</time></trkpt><trkpt lat="37.5635133" lon="15.0714033"><ele>357.0</ele><time>2026-04-24T15:52:38.548Z</time></trkpt><trkpt lat="37.5635733" lon="15.0714917"><ele>357.0</ele><time>2026-04-24T15:52:39.549Z</time></trkpt><trkpt lat="37.56362" lon="15.0715667"><ele>357.0</ele><time>2026-04-24T15:52:40.548Z</time></trkpt><trkpt lat="37.56367" lon="15.07163"><ele>357.0</ele><time>2026-04-24T15:52:41.548Z</time></trkpt><trkpt lat="37.5637133" lon="15.071695"><ele>357.0</ele><time>2026-04-24T15:52:42.549Z</time></trkpt><trkpt lat="37.5637583" lon="15.0717633"><ele>356.85714285714283</ele><time>2026-04-24T15:52:43.549Z</time></trkpt><trkpt lat="37.5638117" lon="15.0718333"><ele>356.7142857142857</ele><time>2026-04-24T15:52:44.548Z</time></trkpt><trkpt lat="37.5638633" lon="15.0719067"><ele>356.57142857142856</ele><time>2026-04-24T15:52:45.549Z</time></trkpt><trkpt lat="37.5639117" lon="15.07197"><ele>356.42857142857144</ele><time>2026-04-24T15:52:46.548Z</time></trkpt><trkpt lat="37.5639617" lon="15.0720333"><ele>356.2857142857143</ele><time>2026-04-24T15:52:47.548Z</time></trkpt><trkpt lat="37.564005" lon="15.0720967"><ele>356.1428571428571</ele><time>2026-04-24T15:52:48.548Z</time></trkpt><trkpt lat="37.5640617" lon="15.07216"><ele>356.0</ele><time>2026-04-24T15:52:50.548Z</time></trkpt><trkpt lat="37.56412" lon="15.07223"><ele>356.0</ele><time>2026-04-24T15:52:52.548Z</time></trkpt><trkpt lat="37.56419" lon="15.07232"><ele>356.0</ele><time>2026-04-24T15:52:54.549Z</time></trkpt><trkpt lat="37.5642533" lon="15.0723983"><ele>356.0</ele><time>2026-04-24T15:52:56.549Z</time></trkpt><trkpt lat="37.5643067" lon="15.0724817"><ele>356.0</ele><time>2026-04-24T15:52:58.548Z</time></trkpt><trkpt lat="37.5643683" lon="15.072645"><ele>356.0</ele><time>2026-04-24T15:53:16.549Z</time></trkpt><trkpt lat="37.5643017" lon="15.072685"><ele>355.6666666666667</ele><time>2026-04-24T15:53:18.549Z</time></trkpt><trkpt lat="37.5642367" lon="15.0726933"><ele>355.33333333333337</ele><time>2026-04-24T15:53:19.548Z</time></trkpt><trkpt lat="37.56415" lon="15.0726983"><ele>355.0</ele><time>2026-04-24T15:53:20.548Z</time></trkpt><trkpt lat="37.5640533" lon="15.072705"><ele>354.6666666666667</ele><time>2026-04-24T15:53:21.549Z</time></trkpt><trkpt lat="37.5639667" lon="15.0727117"><ele>354.3333333333333</ele><time>2026-04-24T15:53:22.549Z</time></trkpt><trkpt lat="37.5638983" lon="15.07272"><ele>354.0</ele><time>2026-04-24T15:53:23.549Z</time></trkpt><trkpt lat="37.563835" lon="15.0727167"><ele>354.0</ele><time>2026-04-24T15:53:24.549Z</time></trkpt><trkpt lat="37.5637583" lon="15.0727217"><ele>354.0</ele><time>2026-04-24T15:53:25.548Z</time></trkpt><trkpt lat="37.5636767" lon="15.07273"><ele>354.0</ele><time>2026-04-24T15:53:26.548Z</time></trkpt><trkpt lat="37.5635767" lon="15.0727267"><ele>354.0</ele><time>2026-04-24T15:53:27.549Z</time></trkpt><trkpt lat="37.5634717" lon="15.0727317"><ele>354.0</ele><time>2026-04-24T15:53:28.548Z</time></trkpt><trkpt lat="37.563365" lon="15.07275"><ele>354.0</ele><time>2026-04-24T15:53:29.548Z</time></trkpt><trkpt lat="37.563255" lon="15.07275"><ele>354.0</ele><time>2026-04-24T15:53:30.549Z</time></trkpt><trkpt lat="37.5631367" lon="15.0727467"><ele>354.0</ele><time>2026-04-24T15:53:31.548Z</time></trkpt><trkpt lat="37.5630233" lon="15.0727467"><ele>354.0</ele><time>2026-04-24T15:53:32.549Z</time></trkpt><trkpt lat="37.5629067" lon="15.072755"><ele>354.0</ele><time>2026-04-24T15:53:33.549Z</time></trkpt><trkpt lat="37.56279" lon="15.0727517"><ele>354.0</ele><time>2026-04-24T15:53:34.549Z</time></trkpt><trkpt lat="37.5626667" lon="15.0727633"><ele>354.0</ele><time>2026-04-24T15:53:35.549Z</time></trkpt><trkpt lat="37.5625483" lon="15.0727633"><ele>354.0</ele><time>2026-04-24T15:53:36.549Z</time></trkpt><trkpt lat="37.5624433" lon="15.07277"><ele>354.0</ele><time>2026-04-24T15:53:37.549Z</time></trkpt><trkpt lat="37.5623467" lon="15.07278"><ele>354.0</ele><time>2026-04-24T15:53:38.548Z</time></trkpt><trkpt lat="37.56226" lon="15.0727833"><ele>354.0</ele><time>2026-04-24T15:53:39.549Z</time></trkpt><trkpt lat="37.562185" lon="15.072785"><ele>354.0</ele><time>2026-04-24T15:53:40.549Z</time></trkpt><trkpt lat="37.562115" lon="15.072785"><ele>354.0</ele><time>2026-04-24T15:53:41.548Z</time></trkpt><trkpt lat="37.56205" lon="15.0727867"><ele>354.0</ele><time>2026-04-24T15:53:42.549Z</time></trkpt><trkpt lat="37.561985" lon="15.0727867"><ele>353.2</ele><time>2026-04-24T15:53:43.549Z</time></trkpt><trkpt lat="37.56187" lon="15.0727883"><ele>352.4</ele><time>2026-04-24T15:53:45.549Z</time></trkpt><trkpt lat="37.5617483" lon="15.0728033"><ele>351.6</ele><time>2026-04-24T15:53:47.548Z</time></trkpt><trkpt lat="37.56163" lon="15.0728033"><ele>350.8</ele><time>2026-04-24T15:53:49.548Z</time></trkpt><trkpt lat="37.561565" lon="15.0728083"><ele>350.0</ele><time>2026-04-24T15:53:50.549Z</time></trkpt><trkpt lat="37.5614917" lon="15.0728117"><ele>350.0</ele><time>2026-04-24T15:53:51.549Z</time></trkpt><trkpt lat="37.561415" lon="15.0728217"><ele>350.0</ele><time>2026-04-24T15:53:52.548Z</time></trkpt><trkpt lat="37.56134" lon="15.0728233"><ele>350.0</ele><time>2026-04-24T15:53:53.549Z</time></trkpt><trkpt lat="37.56126" lon="15.0728183"><ele>350.0</ele><time>2026-04-24T15:53:54.548Z</time></trkpt><trkpt lat="37.5611783" lon="15.072815"><ele>350.0</ele><time>2026-04-24T15:53:55.549Z</time></trkpt><trkpt lat="37.5610917" lon="15.0728133"><ele>350.0</ele><time>2026-04-24T15:53:56.549Z</time></trkpt><trkpt lat="37.561" lon="15.0728133"><ele>349.2</ele><time>2026-04-24T15:53:57.549Z</time></trkpt><trkpt lat="37.56091" lon="15.0728133"><ele>348.4</ele><time>2026-04-24T15:53:58.549Z</time></trkpt><trkpt lat="37.5608167" lon="15.0728083"><ele>347.6</ele><time>2026-04-24T15:53:59.548Z</time></trkpt><trkpt lat="37.56072" lon="15.0728017"><ele>346.8</ele><time>2026-04-24T15:54:00.548Z</time></trkpt><trkpt lat="37.5606333" lon="15.07279"><ele>346.0</ele><time>2026-04-24T15:54:01.549Z</time></trkpt><trkpt lat="37.5605483" lon="15.0727833"><ele>346.0</ele><time>2026-04-24T15:54:02.549Z</time></trkpt><trkpt lat="37.56046" lon="15.0727733"><ele>346.0</ele><time>2026-04-24T15:54:03.549Z</time></trkpt><trkpt lat="37.5603717" lon="15.0727683"><ele>346.0</ele><time>2026-04-24T15:54:04.548Z</time></trkpt><trkpt lat="37.560305" lon="15.072765"><ele>346.0</ele><time>2026-04-24T15:54:05.549Z</time></trkpt><trkpt lat="37.560205" lon="15.0727733"><ele>346.0</ele><time>2026-04-24T15:54:07.549Z</time></trkpt><trkpt lat="37.5601267" lon="15.07277"><ele>346.0</ele><time>2026-04-24T15:54:09.549Z</time></trkpt><trkpt lat="37.560045" lon="15.0727633"><ele>345.20000000000005</ele><time>2026-04-24T15:54:12.548Z</time></trkpt><trkpt lat="37.5599317" lon="15.07275"><ele>344.40000000000003</ele><time>2026-04-24T15:54:31.548Z</time></trkpt><trkpt lat="37.5598567" lon="15.072775"><ele>343.6</ele><time>2026-04-24T15:54:44.549Z</time></trkpt><trkpt lat="37.5598217" lon="15.0728817"><ele>342.8</ele><time>2026-04-24T15:54:46.549Z</time></trkpt><trkpt lat="37.5597817" lon="15.07303"><ele>342.0</ele><time>2026-04-24T15:54:48.549Z</time></trkpt><trkpt lat="37.5597483" lon="15.0731333"><ele>342.0</ele><time>2026-04-24T15:54:50.548Z</time></trkpt><trkpt lat="37.5597233" lon="15.0732183"><ele>342.0</ele><time>2026-04-24T15:54:53.548Z</time></trkpt><trkpt lat="37.5596967" lon="15.0733"><ele>342.0</ele><time>2026-04-24T15:54:57.549Z</time></trkpt><trkpt lat="37.5596317" lon="15.0733283"><ele>342.0</ele><time>2026-04-24T15:55:01.549Z</time></trkpt><trkpt lat="37.559545" lon="15.0733233"><ele>342.0</ele><time>2026-04-24T15:55:03.549Z</time></trkpt><trkpt lat="37.5594217" lon="15.073315"><ele>342.0</ele><time>2026-04-24T15:55:05.549Z</time></trkpt><trkpt lat="37.5593583" lon="15.073305"><ele>341.0</ele><time>2026-04-24T15:55:06.549Z</time></trkpt><trkpt lat="37.5592867" lon="15.0732917"><ele>340.0</ele><time>2026-04-24T15:55:07.548Z</time></trkpt><trkpt lat="37.559205" lon="15.073275"><ele>339.0</ele><time>2026-04-24T15:55:08.548Z</time></trkpt><trkpt lat="37.55913" lon="15.0732567"><ele>338.0</ele><time>2026-04-24T15:55:09.548Z</time></trkpt><trkpt lat="37.5590383" lon="15.07325"><ele>337.0</ele><time>2026-04-24T15:55:10.548Z</time></trkpt><trkpt lat="37.5589517" lon="15.0732467"><ele>336.0</ele><time>2026-04-24T15:55:11.548Z</time></trkpt><trkpt lat="37.5588617" lon="15.0732367"><ele>335.4</ele><time>2026-04-24T15:55:12.548Z</time></trkpt><trkpt lat="37.5587683" lon="15.0732283"><ele>334.8</ele><time>2026-04-24T15:55:13.548Z</time></trkpt><trkpt lat="37.5586733" lon="15.0732217"><ele>334.2</ele><time>2026-04-24T15:55:14.549Z</time></trkpt><trkpt lat="37.558575" lon="15.073215"><ele>333.59999999999997</ele><time>2026-04-24T15:55:15.548Z</time></trkpt><trkpt lat="37.5584717" lon="15.0732033"><ele>333.0</ele><time>2026-04-24T15:55:16.549Z</time></trkpt><trkpt lat="37.5583583" lon="15.0731983"><ele>331.0</ele><time>2026-04-24T15:55:17.549Z</time></trkpt><trkpt lat="37.5582417" lon="15.0732"><ele>329.0</ele><time>2026-04-24T15:55:18.548Z</time></trkpt><trkpt lat="37.5581167" lon="15.073195"><ele>327.0</ele><time>2026-04-24T15:55:19.549Z</time></trkpt><trkpt lat="37.557995" lon="15.0731833"><ele>325.0</ele><time>2026-04-24T15:55:20.549Z</time></trkpt><trkpt lat="37.5578733" lon="15.073185"><ele>324.25</ele><time>2026-04-24T15:55:21.548Z</time></trkpt><trkpt lat="37.557755" lon="15.0731983"><ele>323.5</ele><time>2026-04-24T15:55:22.548Z</time></trkpt><trkpt lat="37.5576417" lon="15.0732417"><ele>322.75</ele><time>2026-04-24T15:55:23.549Z</time></trkpt><trkpt lat="37.5575433" lon="15.0733033"><ele>322.0</ele><time>2026-04-24T15:55:24.549Z</time></trkpt><trkpt lat="37.5574567" lon="15.0733783"><ele>322.0</ele><time>2026-04-24T15:55:25.548Z</time></trkpt><trkpt lat="37.557375" lon="15.0734483"><ele>322.0</ele><time>2026-04-24T15:55:26.548Z</time></trkpt><trkpt lat="37.5573033" lon="15.0735167"><ele>322.0</ele><time>2026-04-24T15:55:27.549Z</time></trkpt><trkpt lat="37.557235" lon="15.0735783"><ele>322.0</ele><time>2026-04-24T15:55:28.549Z</time></trkpt><trkpt lat="37.5571683" lon="15.0736233"><ele>322.0</ele><time>2026-04-24T15:55:29.548Z</time></trkpt><trkpt lat="37.5571083" lon="15.0736617"><ele>322.0</ele><time>2026-04-24T15:55:30.549Z</time></trkpt><trkpt lat="37.5570383" lon="15.0737033"><ele>321.0</ele><time>2026-04-24T15:55:31.549Z</time></trkpt><trkpt lat="37.5569733" lon="15.073755"><ele>320.0</ele><time>2026-04-24T15:55:32.549Z</time></trkpt><trkpt lat="37.5569133" lon="15.0738083"><ele>319.0</ele><time>2026-04-24T15:55:33.549Z</time></trkpt><trkpt lat="37.55685" lon="15.073855"><ele>318.0</ele><time>2026-04-24T15:55:34.548Z</time></trkpt><trkpt lat="37.5567867" lon="15.0739067"><ele>317.0</ele><time>2026-04-24T15:55:35.548Z</time></trkpt><trkpt lat="37.5567133" lon="15.0739533"><ele>316.0</ele><time>2026-04-24T15:55:36.548Z</time></trkpt><trkpt lat="37.5566417" lon="15.0740017"><ele>316.00000000000006</ele><time>2026-04-24T15:55:37.548Z</time></trkpt><trkpt lat="37.5565733" lon="15.0740533"><ele>316.0</ele><time>2026-04-24T15:55:38.549Z</time></trkpt><trkpt lat="37.5564983" lon="15.0741"><ele>316.0</ele><time>2026-04-24T15:55:39.548Z</time></trkpt><trkpt lat="37.55644" lon="15.0741483"><ele>316.0</ele><time>2026-04-24T15:55:40.548Z</time></trkpt><trkpt lat="37.5563833" lon="15.0741917"><ele>316.0</ele><time>2026-04-24T15:55:41.549Z</time></trkpt><trkpt lat="37.5563217" lon="15.0742283"><ele>316.00000000000006</ele><time>2026-04-24T15:55:42.549Z</time></trkpt><trkpt lat="37.5562567" lon="15.0742483"><ele>316.0</ele><time>2026-04-24T15:55:43.548Z</time></trkpt><trkpt lat="37.5561933" lon="15.07426"><ele>315.7142857142857</ele><time>2026-04-24T15:55:44.549Z</time></trkpt><trkpt lat="37.5561217" lon="15.0742767"><ele>315.42857142857144</ele><time>2026-04-24T15:55:45.549Z</time></trkpt><trkpt lat="37.5560533" lon="15.0742817"><ele>315.1428571428571</ele><time>2026-04-24T15:55:46.548Z</time></trkpt><trkpt lat="37.555975" lon="15.0742883"><ele>314.8571428571429</ele><time>2026-04-24T15:55:47.548Z</time></trkpt><trkpt lat="37.5558983" lon="15.0742983"><ele>314.57142857142856</ele><time>2026-04-24T15:55:48.549Z</time></trkpt><trkpt lat="37.555825" lon="15.0743083"><ele>314.2857142857143</ele><time>2026-04-24T15:55:49.549Z</time></trkpt><trkpt lat="37.5557517" lon="15.0743133"><ele>314.0</ele><time>2026-04-24T15:55:50.549Z</time></trkpt><trkpt lat="37.55568" lon="15.0743183"><ele>314.0</ele><time>2026-04-24T15:55:51.548Z</time></trkpt><trkpt lat="37.5556167" lon="15.07432"><ele>314.0</ele><time>2026-04-24T15:55:52.549Z</time></trkpt><trkpt lat="37.555495" lon="15.074325"><ele>314.0</ele><time>2026-04-24T15:55:54.548Z</time></trkpt><trkpt lat="37.5553683" lon="15.0743383"><ele>314.0</ele><time>2026-04-24T15:55:56.548Z</time></trkpt><trkpt lat="37.5553017" lon="15.0743417"><ele>314.0</ele><time>2026-04-24T15:55:57.548Z</time></trkpt><trkpt lat="37.55518" lon="15.07434"><ele>313.83333333333337</ele><time>2026-04-24T15:55:59.549Z</time></trkpt><trkpt lat="37.5551167" lon="15.0743417"><ele>313.6666666666667</ele><time>2026-04-24T15:56:00.548Z</time></trkpt><trkpt lat="37.5550083" lon="15.0743383"><ele>313.5</ele><time>2026-04-24T15:56:02.549Z</time></trkpt><trkpt lat="37.5549283" lon="15.0743417"><ele>313.3333333333333</ele><time>2026-04-24T15:56:04.549Z</time></trkpt><trkpt lat="37.554845" lon="15.07433"><ele>313.16666666666663</ele><time>2026-04-24T15:56:12.548Z</time></trkpt><trkpt lat="37.554745" lon="15.0743317"><ele>313.0</ele><time>2026-04-24T15:56:14.548Z</time></trkpt><trkpt lat="37.5546783" lon="15.0743333"><ele>313.0</ele><time>2026-04-24T15:56:15.549Z</time></trkpt><trkpt lat="37.5546" lon="15.0743283"><ele>313.0</ele><time>2026-04-24T15:56:16.549Z</time></trkpt><trkpt lat="37.55453" lon="15.07432"><ele>313.0</ele><time>2026-04-24T15:56:17.548Z</time></trkpt><trkpt lat="37.5544383" lon="15.074305"><ele>313.0</ele><time>2026-04-24T15:56:19.549Z</time></trkpt><trkpt lat="37.5543483" lon="15.074305"><ele>313.0</ele><time>2026-04-24T15:56:21.549Z</time></trkpt><trkpt lat="37.5542533" lon="15.0743067"><ele>313.0</ele><time>2026-04-24T15:56:23.548Z</time></trkpt><trkpt lat="37.55414" lon="15.0743067"><ele>313.0</ele><time>2026-04-24T15:56:25.549Z</time></trkpt><trkpt lat="37.5540133" lon="15.0743017"><ele>313.0</ele><time>2026-04-24T15:56:27.548Z</time></trkpt><trkpt lat="37.5539417" lon="15.074295"><ele>313.0</ele><time>2026-04-24T15:56:28.549Z</time></trkpt><trkpt lat="37.553875" lon="15.07429"><ele>313.0</ele><time>2026-04-24T15:56:29.548Z</time></trkpt><trkpt lat="37.553805" lon="15.0742817"><ele>313.0</ele><time>2026-04-24T15:56:30.548Z</time></trkpt><trkpt lat="37.5536783" lon="15.07427"><ele>312.57142857142856</ele><time>2026-04-24T15:56:32.549Z</time></trkpt><trkpt lat="37.5536083" lon="15.074265"><ele>312.14285714285717</ele><time>2026-04-24T15:56:33.549Z</time></trkpt><trkpt lat="37.5535417" lon="15.07427"><ele>311.7142857142857</ele><time>2026-04-24T15:56:34.548Z</time></trkpt><trkpt lat="37.5534633" lon="15.0742633"><ele>311.2857142857143</ele><time>2026-04-24T15:56:35.548Z</time></trkpt><trkpt lat="37.5533883" lon="15.0742733"><ele>310.85714285714283</ele><time>2026-04-24T15:56:36.549Z</time></trkpt><trkpt lat="37.5533133" lon="15.0742767"><ele>310.42857142857144</ele><time>2026-04-24T15:56:37.549Z</time></trkpt><trkpt lat="37.5532383" lon="15.0742683"><ele>310.0</ele><time>2026-04-24T15:56:38.549Z</time></trkpt><trkpt lat="37.5531567" lon="15.0742583"><ele>310.0</ele><time>2026-04-24T15:56:39.549Z</time></trkpt><trkpt lat="37.553075" lon="15.07425"><ele>310.0</ele><time>2026-04-24T15:56:40.548Z</time></trkpt><trkpt lat="37.5530067" lon="15.074245"><ele>310.0</ele><time>2026-04-24T15:56:41.549Z</time></trkpt><trkpt lat="37.5529433" lon="15.0742367"><ele>310.0</ele><time>2026-04-24T15:56:42.548Z</time></trkpt><trkpt lat="37.5528783" lon="15.0742333"><ele>310.0</ele><time>2026-04-24T15:56:43.548Z</time></trkpt><trkpt lat="37.5528" lon="15.074225"><ele>310.0</ele><time>2026-04-24T15:56:44.549Z</time></trkpt><trkpt lat="37.5527217" lon="15.0742217"><ele>310.0</ele><time>2026-04-24T15:56:45.548Z</time></trkpt><trkpt lat="37.55265" lon="15.074225"><ele>309.57142857142856</ele><time>2026-04-24T15:56:46.549Z</time></trkpt><trkpt lat="37.552575" lon="15.0742217"><ele>309.1428571428571</ele><time>2026-04-24T15:56:47.548Z</time></trkpt><trkpt lat="37.5525017" lon="15.0742267"><ele>308.71428571428567</ele><time>2026-04-24T15:56:48.549Z</time></trkpt><trkpt lat="37.5524317" lon="15.07422"><ele>308.2857142857143</ele><time>2026-04-24T15:56:49.549Z</time></trkpt><trkpt lat="37.552355" lon="15.0742217"><ele>307.85714285714283</ele><time>2026-04-24T15:56:50.549Z</time></trkpt><trkpt lat="37.5522833" lon="15.074235"><ele>307.4285714285714</ele><time>2026-04-24T15:56:51.548Z</time></trkpt><trkpt lat="37.5522133" lon="15.0742517"><ele>307.0</ele><time>2026-04-24T15:56:52.548Z</time></trkpt><trkpt lat="37.5521433" lon="15.074275"><ele>307.0</ele><time>2026-04-24T15:56:53.549Z</time></trkpt><trkpt lat="37.5520767" lon="15.0743133"><ele>307.0</ele><time>2026-04-24T15:56:54.548Z</time></trkpt><trkpt lat="37.55201" lon="15.0743583"><ele>307.0</ele><time>2026-04-24T15:56:55.548Z</time></trkpt><trkpt lat="37.5519567" lon="15.0744067"><ele>307.0</ele><time>2026-04-24T15:56:56.548Z</time></trkpt><trkpt lat="37.5518583" lon="15.0744967"><ele>307.0</ele><time>2026-04-24T15:56:58.549Z</time></trkpt><trkpt lat="37.5517983" lon="15.0745483"><ele>307.0</ele><time>2026-04-24T15:56:59.549Z</time></trkpt><trkpt lat="37.5517383" lon="15.0745917"><ele>304.5</ele><time>2026-04-24T15:57:00.548Z</time></trkpt><trkpt lat="37.55164" lon="15.0746567"><ele>302.0</ele><time>2026-04-24T15:57:02.548Z</time></trkpt><trkpt lat="37.5515417" lon="15.0747067"><ele>299.5</ele><time>2026-04-24T15:57:04.548Z</time></trkpt><trkpt lat="37.55142" lon="15.0747367"><ele>297.0</ele><time>2026-04-24T15:57:06.549Z</time></trkpt><trkpt lat="37.5512967" lon="15.0747233"><ele>295.4</ele><time>2026-04-24T15:57:08.548Z</time></trkpt><trkpt lat="37.5511667" lon="15.0746983"><ele>293.79999999999995</ele><time>2026-04-24T15:57:10.549Z</time></trkpt><trkpt lat="37.5510833" lon="15.07469"><ele>292.2</ele><time>2026-04-24T15:57:11.549Z</time></trkpt><trkpt lat="37.550985" lon="15.0746783"><ele>290.59999999999997</ele><time>2026-04-24T15:57:12.549Z</time></trkpt><trkpt lat="37.5508767" lon="15.0746667"><ele>289.0</ele><time>2026-04-24T15:57:13.548Z</time></trkpt><trkpt lat="37.5507367" lon="15.07465"><ele>289.0</ele><time>2026-04-24T15:57:14.549Z</time></trkpt><trkpt lat="37.5505967" lon="15.07462"><ele>289.0</ele><time>2026-04-24T15:57:15.548Z</time></trkpt><trkpt lat="37.5504633" lon="15.0745933"><ele>289.0</ele><time>2026-04-24T15:57:16.549Z</time></trkpt><trkpt lat="37.550335" lon="15.0745567"><ele>289.0</ele><time>2026-04-24T15:57:17.548Z</time></trkpt><trkpt lat="37.5502083" lon="15.074515"><ele>287.25</ele><time>2026-04-24T15:57:18.549Z</time></trkpt><trkpt lat="37.5500917" lon="15.0744483"><ele>285.5</ele><time>2026-04-24T15:57:19.548Z</time></trkpt><trkpt lat="37.5499717" lon="15.0743883"><ele>283.75</ele><time>2026-04-24T15:57:20.549Z</time></trkpt><trkpt lat="37.5498617" lon="15.0743283"><ele>282.0</ele><time>2026-04-24T15:57:21.549Z</time></trkpt><trkpt lat="37.5497583" lon="15.0742867"><ele>282.0</ele><time>2026-04-24T15:57:22.549Z</time></trkpt><trkpt lat="37.549645" lon="15.074245"><ele>282.0</ele><time>2026-04-24T15:57:23.548Z</time></trkpt><trkpt lat="37.54953" lon="15.0742217"><ele>282.0</ele><time>2026-04-24T15:57:24.549Z</time></trkpt><trkpt lat="37.54941" lon="15.0742083"><ele>282.0</ele><time>2026-04-24T15:57:25.549Z</time></trkpt><trkpt lat="37.5492833" lon="15.0741983"><ele>280.2</ele><time>2026-04-24T15:57:26.549Z</time></trkpt><trkpt lat="37.5491667" lon="15.07418"><ele>278.4</ele><time>2026-04-24T15:57:27.548Z</time></trkpt><trkpt lat="37.5490633" lon="15.07416"><ele>276.6</ele><time>2026-04-24T15:57:28.549Z</time></trkpt><trkpt lat="37.54895" lon="15.0741367"><ele>274.8</ele><time>2026-04-24T15:57:29.548Z</time></trkpt><trkpt lat="37.5488633" lon="15.0740833"><ele>273.0</ele><time>2026-04-24T15:57:30.548Z</time></trkpt><trkpt lat="37.5487967" lon="15.074015"><ele>272.3333333333333</ele><time>2026-04-24T15:57:31.548Z</time></trkpt><trkpt lat="37.5487567" lon="15.0739417"><ele>271.6666666666667</ele><time>2026-04-24T15:57:32.549Z</time></trkpt><trkpt lat="37.5487617" lon="15.073835"><ele>271.0</ele><time>2026-04-24T15:57:33.549Z</time></trkpt><trkpt lat="37.54878" lon="15.07372"><ele>270.33333333333337</ele><time>2026-04-24T15:57:34.548Z</time></trkpt><trkpt lat="37.54881" lon="15.0736267"><ele>269.6666666666667</ele><time>2026-04-24T15:57:35.548Z</time></trkpt><trkpt lat="37.5488617" lon="15.0735383"><ele>269.0</ele><time>2026-04-24T15:57:36.549Z</time></trkpt><trkpt lat="37.5489267" lon="15.0734667"><ele>269.0</ele><time>2026-04-24T15:57:37.549Z</time></trkpt><trkpt lat="37.548995" lon="15.0733883"><ele>269.0</ele><time>2026-04-24T15:57:38.549Z</time></trkpt><trkpt lat="37.5490783" lon="15.0733183"><ele>269.0</ele><time>2026-04-24T15:57:39.549Z</time></trkpt><trkpt lat="37.549175" lon="15.07325"><ele>269.0</ele><time>2026-04-24T15:57:40.549Z</time></trkpt><trkpt lat="37.54927" lon="15.073185"><ele>269.0</ele><time>2026-04-24T15:57:41.548Z</time></trkpt><trkpt lat="37.5493467" lon="15.07309"><ele>268.59999999999997</ele><time>2026-04-24T15:57:42.549Z</time></trkpt><trkpt lat="37.549405" lon="15.07299"><ele>268.2</ele><time>2026-04-24T15:57:43.548Z</time></trkpt><trkpt lat="37.5494433" lon="15.0728983"><ele>267.79999999999995</ele><time>2026-04-24T15:57:44.549Z</time></trkpt><trkpt lat="37.5494617" lon="15.0727883"><ele>267.4</ele><time>2026-04-24T15:57:45.549Z</time></trkpt><trkpt lat="37.5494483" lon="15.072665"><ele>267.0</ele><time>2026-04-24T15:57:46.548Z</time></trkpt><trkpt lat="37.54943" lon="15.072545"><ele>266.3333333333333</ele><time>2026-04-24T15:57:47.548Z</time></trkpt><trkpt lat="37.5494383" lon="15.072435"><ele>265.6666666666667</ele><time>2026-04-24T15:57:48.548Z</time></trkpt><trkpt lat="37.5494367" lon="15.0723433"><ele>265.0</ele><time>2026-04-24T15:57:49.549Z</time></trkpt><trkpt lat="37.5494383" lon="15.0722367"><ele>264.33333333333337</ele><time>2026-04-24T15:57:51.548Z</time></trkpt><trkpt lat="37.5494383" lon="15.072145"><ele>263.6666666666667</ele><time>2026-04-24T15:57:54.548Z</time></trkpt><trkpt lat="37.54947" lon="15.072045"><ele>263.0</ele><time>2026-04-24T15:57:56.549Z</time></trkpt><trkpt lat="37.5494533" lon="15.0719517"><ele>263.0</ele><time>2026-04-24T15:57:58.548Z</time></trkpt><trkpt lat="37.5493467" lon="15.0718417"><ele>263.0</ele><time>2026-04-24T15:58:00.548Z</time></trkpt><trkpt lat="37.5492533" lon="15.07176"><ele>263.0</ele><time>2026-04-24T15:58:01.549Z</time></trkpt><trkpt lat="37.5491333" lon="15.0716433"><ele>263.0</ele><time>2026-04-24T15:58:02.548Z</time></trkpt><trkpt lat="37.5490133" lon="15.0715233"><ele>263.25</ele><time>2026-04-24T15:58:03.548Z</time></trkpt><trkpt lat="37.5489067" lon="15.0714117"><ele>263.5</ele><time>2026-04-24T15:58:04.548Z</time></trkpt><trkpt lat="37.5488233" lon="15.0713"><ele>263.75</ele><time>2026-04-24T15:58:05.549Z</time></trkpt><trkpt lat="37.5487367" lon="15.0712217"><ele>264.0</ele><time>2026-04-24T15:58:06.549Z</time></trkpt><trkpt lat="37.5486567" lon="15.0711583"><ele>264.0</ele><time>2026-04-24T15:58:07.549Z</time></trkpt><trkpt lat="37.5485717" lon="15.0711083"><ele>264.0</ele><time>2026-04-24T15:58:08.548Z</time></trkpt><trkpt lat="37.5484767" lon="15.0710783"><ele>264.0</ele><time>2026-04-24T15:58:09.548Z</time></trkpt><trkpt lat="37.54839" lon="15.0710483"><ele>264.0</ele><time>2026-04-24T15:58:10.549Z</time></trkpt><trkpt lat="37.5483167" lon="15.071025"><ele>264.0</ele><time>2026-04-24T15:58:11.549Z</time></trkpt><trkpt lat="37.5482417" lon="15.0709917"><ele>264.0</ele><time>2026-04-24T15:58:12.549Z</time></trkpt><trkpt lat="37.548165" lon="15.070965"><ele>264.0</ele><time>2026-04-24T15:58:13.548Z</time></trkpt><trkpt lat="37.54809" lon="15.070945"><ele>264.0</ele><time>2026-04-24T15:58:14.548Z</time></trkpt><trkpt lat="37.54802" lon="15.07092"><ele>264.0</ele><time>2026-04-24T15:58:15.549Z</time></trkpt><trkpt lat="37.5479483" lon="15.0709033"><ele>264.0</ele><time>2026-04-24T15:58:16.548Z</time></trkpt><trkpt lat="37.5478817" lon="15.0708767"><ele>264.0</ele><time>2026-04-24T15:58:17.548Z</time></trkpt><trkpt lat="37.547815" lon="15.0708517"><ele>264.0</ele><time>2026-04-24T15:58:18.549Z</time></trkpt><trkpt lat="37.54775" lon="15.0708167"><ele>264.0</ele><time>2026-04-24T15:58:19.549Z</time></trkpt><trkpt lat="37.547685" lon="15.0707783"><ele>264.2857142857143</ele><time>2026-04-24T15:58:20.549Z</time></trkpt><trkpt lat="37.5476283" lon="15.0707333"><ele>264.57142857142856</ele><time>2026-04-24T15:58:21.548Z</time></trkpt><trkpt lat="37.5475817" lon="15.070675"><ele>264.8571428571429</ele><time>2026-04-24T15:58:22.549Z</time></trkpt><trkpt lat="37.54754" lon="15.070615"><ele>265.1428571428571</ele><time>2026-04-24T15:58:23.548Z</time></trkpt><trkpt lat="37.5475017" lon="15.0705467"><ele>265.42857142857144</ele><time>2026-04-24T15:58:24.548Z</time></trkpt><trkpt lat="37.5474567" lon="15.0704817"><ele>265.7142857142857</ele><time>2026-04-24T15:58:25.549Z</time></trkpt><trkpt lat="37.547405" lon="15.0704067"><ele>266.0</ele><time>2026-04-24T15:58:26.549Z</time></trkpt><trkpt lat="37.5473567" lon="15.0703283"><ele>266.0</ele><time>2026-04-24T15:58:27.548Z</time></trkpt><trkpt lat="37.5473067" lon="15.070255"><ele>266.0</ele><time>2026-04-24T15:58:28.549Z</time></trkpt><trkpt lat="37.547255" lon="15.0701783"><ele>266.0</ele><time>2026-04-24T15:58:29.549Z</time></trkpt><trkpt lat="37.5471967" lon="15.07009"><ele>266.0</ele><time>2026-04-24T15:58:30.548Z</time></trkpt><trkpt lat="37.5471267" lon="15.0700017"><ele>266.0</ele><time>2026-04-24T15:58:31.549Z</time></trkpt><trkpt lat="37.547055" lon="15.0699167"><ele>266.0</ele><time>2026-04-24T15:58:32.549Z</time></trkpt><trkpt lat="37.5469983" lon="15.06982"><ele>264.8</ele><time>2026-04-24T15:58:33.549Z</time></trkpt><trkpt lat="37.546935" lon="15.0697283"><ele>263.6</ele><time>2026-04-24T15:58:34.548Z</time></trkpt><trkpt lat="37.5468617" lon="15.0696483"><ele>262.4</ele><time>2026-04-24T15:58:35.548Z</time></trkpt><trkpt lat="37.5467783" lon="15.0695633"><ele>261.2</ele><time>2026-04-24T15:58:36.548Z</time></trkpt><trkpt lat="37.5466983" lon="15.0694867"><ele>260.0</ele><time>2026-04-24T15:58:37.549Z</time></trkpt><trkpt lat="37.546625" lon="15.0694133"><ele>260.0</ele><time>2026-04-24T15:58:38.548Z</time></trkpt><trkpt lat="37.5465667" lon="15.0693517"><ele>260.0</ele><time>2026-04-24T15:58:39.549Z</time></trkpt><trkpt lat="37.546505" lon="15.0692767"><ele>260.0</ele><time>2026-04-24T15:58:40.548Z</time></trkpt><trkpt lat="37.546435" lon="15.0691933"><ele>260.0</ele><time>2026-04-24T15:58:41.548Z</time></trkpt><trkpt lat="37.5463683" lon="15.0690983"><ele>260.0</ele><time>2026-04-24T15:58:42.548Z</time></trkpt><trkpt lat="37.546305" lon="15.069015"><ele>259.4</ele><time>2026-04-24T15:58:43.549Z</time></trkpt><trkpt lat="37.5462433" lon="15.0689383"><ele>258.8</ele><time>2026-04-24T15:58:44.549Z</time></trkpt><trkpt lat="37.5461733" lon="15.0688683"><ele>258.2</ele><time>2026-04-24T15:58:45.549Z</time></trkpt><trkpt lat="37.54609" lon="15.068805"><ele>257.6</ele><time>2026-04-24T15:58:46.549Z</time></trkpt><trkpt lat="37.5459967" lon="15.0687583"><ele>257.0</ele><time>2026-04-24T15:58:47.548Z</time></trkpt><trkpt lat="37.5459083" lon="15.06872"><ele>255.33333333333334</ele><time>2026-04-24T15:58:48.548Z</time></trkpt><trkpt lat="37.5458217" lon="15.0686767"><ele>253.66666666666669</ele><time>2026-04-24T15:58:49.549Z</time></trkpt><trkpt lat="37.5457417" lon="15.0686367"><ele>252.0</ele><time>2026-04-24T15:58:50.549Z</time></trkpt><trkpt lat="37.5456617" lon="15.068595"><ele>250.33333333333331</ele><time>2026-04-24T15:58:51.549Z</time></trkpt><trkpt lat="37.54558" lon="15.0685567"><ele>248.66666666666666</ele><time>2026-04-24T15:58:52.549Z</time></trkpt><trkpt lat="37.5455017" lon="15.06852"><ele>247.0</ele><time>2026-04-24T15:58:53.549Z</time></trkpt><trkpt lat="37.5454383" lon="15.0684767"><ele>245.83333333333331</ele><time>2026-04-24T15:58:54.549Z</time></trkpt><trkpt lat="37.5453733" lon="15.0684317"><ele>244.66666666666666</ele><time>2026-04-24T15:58:55.549Z</time></trkpt><trkpt lat="37.5453117" lon="15.0683867"><ele>243.5</ele><time>2026-04-24T15:58:56.549Z</time></trkpt><trkpt lat="37.5452233" lon="15.0683217"><ele>242.33333333333331</ele><time>2026-04-24T15:58:58.549Z</time></trkpt><trkpt lat="37.5451483" lon="15.0682683"><ele>241.16666666666666</ele><time>2026-04-24T15:59:00.549Z</time></trkpt><trkpt lat="37.54509" lon="15.0682267"><ele>240.0</ele><time>2026-04-24T15:59:02.548Z</time></trkpt><trkpt lat="37.5450267" lon="15.06819"><ele>240.0</ele><time>2026-04-24T15:59:04.548Z</time></trkpt><trkpt lat="37.5449717" lon="15.068135"><ele>240.0</ele><time>2026-04-24T15:59:07.548Z</time></trkpt><trkpt lat="37.5449183" lon="15.0680483"><ele>240.0</ele><time>2026-04-24T15:59:11.549Z</time></trkpt><trkpt lat="37.54484" lon="15.0679983"><ele>240.0</ele><time>2026-04-24T15:59:14.548Z</time></trkpt><trkpt lat="37.54477" lon="15.0680233"><ele>240.0</ele><time>2026-04-24T15:59:16.549Z</time></trkpt><trkpt lat="37.544685" lon="15.0681467"><ele>240.0</ele><time>2026-04-24T15:59:18.549Z</time></trkpt><trkpt lat="37.5446417" lon="15.0682383"><ele>239.8</ele><time>2026-04-24T15:59:19.548Z</time></trkpt><trkpt lat="37.5445983" lon="15.0683367"><ele>239.6</ele><time>2026-04-24T15:59:20.549Z</time></trkpt><trkpt lat="37.5445483" lon="15.0684367"><ele>239.39999999999998</ele><time>2026-04-24T15:59:21.548Z</time></trkpt><trkpt lat="37.544495" lon="15.06854"><ele>239.2</ele><time>2026-04-24T15:59:22.549Z</time></trkpt><trkpt lat="37.5444433" lon="15.068645"><ele>239.0</ele><time>2026-04-24T15:59:23.548Z</time></trkpt><trkpt lat="37.54439" lon="15.0687533"><ele>237.2</ele><time>2026-04-24T15:59:24.549Z</time></trkpt><trkpt lat="37.5443367" lon="15.068875"><ele>235.39999999999998</ele><time>2026-04-24T15:59:25.548Z</time></trkpt><trkpt lat="37.5442733" lon="15.0689933"><ele>233.6</ele><time>2026-04-24T15:59:26.549Z</time></trkpt><trkpt lat="37.5442217" lon="15.069105"><ele>231.8</ele><time>2026-04-24T15:59:27.549Z</time></trkpt><trkpt lat="37.5441667" lon="15.0692117"><ele>230.0</ele><time>2026-04-24T15:59:28.549Z</time></trkpt><trkpt lat="37.5441083" lon="15.0693217"><ele>229.0</ele><time>2026-04-24T15:59:29.548Z</time></trkpt><trkpt lat="37.5440417" lon="15.069445"><ele>228.0</ele><time>2026-04-24T15:59:30.549Z</time></trkpt><trkpt lat="37.5439717" lon="15.0695717"><ele>227.0</ele><time>2026-04-24T15:59:31.548Z</time></trkpt><trkpt lat="37.543905" lon="15.06969"><ele>226.0</ele><time>2026-04-24T15:59:32.549Z</time></trkpt><trkpt lat="37.5438333" lon="15.0698067"><ele>226.0</ele><time>2026-04-24T15:59:33.549Z</time></trkpt><trkpt lat="37.5437633" lon="15.069915"><ele>226.00000000000003</ele><time>2026-04-24T15:59:34.548Z</time></trkpt><trkpt lat="37.54371" lon="15.0700233"><ele>226.00000000000003</ele><time>2026-04-24T15:59:35.549Z</time></trkpt><trkpt lat="37.54365" lon="15.0701283"><ele>226.0</ele><time>2026-04-24T15:59:36.549Z</time></trkpt><trkpt lat="37.5435883" lon="15.07023"><ele>226.0</ele><time>2026-04-24T15:59:37.548Z</time></trkpt><trkpt lat="37.543535" lon="15.0703167"><ele>223.16666666666666</ele><time>2026-04-24T15:59:38.549Z</time></trkpt><trkpt lat="37.5434833" lon="15.0703983"><ele>220.33333333333331</ele><time>2026-04-24T15:59:39.549Z</time></trkpt><trkpt lat="37.543435" lon="15.07047"><ele>217.5</ele><time>2026-04-24T15:59:40.549Z</time></trkpt><trkpt lat="37.5433833" lon="15.070535"><ele>214.66666666666669</ele><time>2026-04-24T15:59:41.548Z</time></trkpt><trkpt lat="37.5432633" lon="15.07058"><ele>211.83333333333334</ele><time>2026-04-24T15:59:43.549Z</time></trkpt><trkpt lat="37.543195" lon="15.0705517"><ele>209.0</ele><time>2026-04-24T15:59:44.549Z</time></trkpt><trkpt lat="37.5431317" lon="15.0705017"><ele>209.0</ele><time>2026-04-24T15:59:45.549Z</time></trkpt><trkpt lat="37.5430883" lon="15.070405"><ele>209.0</ele><time>2026-04-24T15:59:46.548Z</time></trkpt><trkpt lat="37.5430683" lon="15.0702967"><ele>209.0</ele><time>2026-04-24T15:59:47.549Z</time></trkpt><trkpt lat="37.5430717" lon="15.0701617"><ele>209.0</ele><time>2026-04-24T15:59:48.548Z</time></trkpt><trkpt lat="37.543095" lon="15.07003"><ele>209.0</ele><time>2026-04-24T15:59:49.548Z</time></trkpt><trkpt lat="37.5431183" lon="15.0699"><ele>208.83333333333334</ele><time>2026-04-24T15:59:50.548Z</time></trkpt><trkpt lat="37.543125" lon="15.0697867"><ele>208.66666666666669</ele><time>2026-04-24T15:59:51.548Z</time></trkpt><trkpt lat="37.5431083" lon="15.0696833"><ele>208.5</ele><time>2026-04-24T15:59:52.548Z</time></trkpt><trkpt lat="37.54307" lon="15.069595"><ele>208.33333333333331</ele><time>2026-04-24T15:59:53.549Z</time></trkpt><trkpt lat="37.54301" lon="15.0695167"><ele>208.16666666666666</ele><time>2026-04-24T15:59:54.548Z</time></trkpt><trkpt lat="37.542935" lon="15.0694633"><ele>208.0</ele><time>2026-04-24T15:59:55.548Z</time></trkpt><trkpt lat="37.542855" lon="15.0694333"><ele>208.0</ele><time>2026-04-24T15:59:56.549Z</time></trkpt><trkpt lat="37.5427683" lon="15.0694117"><ele>208.0</ele><time>2026-04-24T15:59:57.548Z</time></trkpt><trkpt lat="37.5426733" lon="15.0693883"><ele>208.0</ele><time>2026-04-24T15:59:58.549Z</time></trkpt><trkpt lat="37.5425783" lon="15.0693683"><ele>208.0</ele><time>2026-04-24T15:59:59.548Z</time></trkpt><trkpt lat="37.5424783" lon="15.0693533"><ele>208.0</ele><time>2026-04-24T16:00:00.549Z</time></trkpt><trkpt lat="37.542385" lon="15.0693383"><ele>207.99999999999997</ele><time>2026-04-24T16:00:01.548Z</time></trkpt><trkpt lat="37.5422967" lon="15.0693267"><ele>208.0</ele><time>2026-04-24T16:00:02.549Z</time></trkpt><trkpt lat="37.5422117" lon="15.0693217"><ele>208.0</ele><time>2026-04-24T16:00:03.549Z</time></trkpt><trkpt lat="37.5421283" lon="15.0693117"><ele>208.0</ele><time>2026-04-24T16:00:04.549Z</time></trkpt><trkpt lat="37.54206" lon="15.069315"><ele>207.99999999999997</ele><time>2026-04-24T16:00:05.548Z</time></trkpt><trkpt lat="37.5419967" lon="15.06932"><ele>208.0</ele><time>2026-04-24T16:00:06.548Z</time></trkpt><trkpt lat="37.5419333" lon="15.0693383"><ele>206.8</ele><time>2026-04-24T16:00:07.548Z</time></trkpt><trkpt lat="37.5418717" lon="15.0693733"><ele>205.60000000000002</ele><time>2026-04-24T16:00:08.549Z</time></trkpt><trkpt lat="37.5418067" lon="15.0694233"><ele>204.39999999999998</ele><time>2026-04-24T16:00:09.549Z</time></trkpt><trkpt lat="37.5417117" lon="15.0695117"><ele>203.2</ele><time>2026-04-24T16:00:11.549Z</time></trkpt><trkpt lat="37.5416217" lon="15.0695817"><ele>202.0</ele><time>2026-04-24T16:00:13.548Z</time></trkpt><trkpt lat="37.541535" lon="15.0696417"><ele>201.99999999999997</ele><time>2026-04-24T16:00:15.549Z</time></trkpt><trkpt lat="37.5414683" lon="15.06969"><ele>202.0</ele><time>2026-04-24T16:00:17.549Z</time></trkpt><trkpt lat="37.5414017" lon="15.0697367"><ele>202.0</ele><time>2026-04-24T16:00:19.548Z</time></trkpt><trkpt lat="37.5413433" lon="15.0697783"><ele>202.0</ele><time>2026-04-24T16:00:21.549Z</time></trkpt><trkpt lat="37.541285" lon="15.0698317"><ele>201.99999999999997</ele><time>2026-04-24T16:00:24.548Z</time></trkpt><trkpt lat="37.54121" lon="15.0698983"><ele>202.0</ele><time>2026-04-24T16:00:27.549Z</time></trkpt><trkpt lat="37.54112" lon="15.0699917"><ele>200.66666666666666</ele><time>2026-04-24T16:00:29.548Z</time></trkpt><trkpt lat="37.54104" lon="15.070075"><ele>199.33333333333331</ele><time>2026-04-24T16:00:31.548Z</time></trkpt><trkpt lat="37.540955" lon="15.070155"><ele>198.0</ele><time>2026-04-24T16:00:34.548Z</time></trkpt><trkpt lat="37.540885" lon="15.0702183"><ele>196.66666666666669</ele><time>2026-04-24T16:00:36.548Z</time></trkpt><trkpt lat="37.5408383" lon="15.0702717"><ele>195.33333333333334</ele><time>2026-04-24T16:00:40.549Z</time></trkpt><trkpt lat="37.5407933" lon="15.07036"><ele>194.0</ele><time>2026-04-24T16:00:43.549Z</time></trkpt><trkpt lat="37.5407383" lon="15.07043"><ele>194.00000000000003</ele><time>2026-04-24T16:00:45.548Z</time></trkpt><trkpt lat="37.540645" lon="15.070515"><ele>194.0</ele><time>2026-04-24T16:00:47.549Z</time></trkpt><trkpt lat="37.54059" lon="15.0705633"><ele>194.0</ele><time>2026-04-24T16:00:48.549Z</time></trkpt><trkpt lat="37.5405267" lon="15.07061"><ele>194.0</ele><time>2026-04-24T16:00:49.549Z</time></trkpt><trkpt lat="37.54046" lon="15.0706667"><ele>194.00000000000003</ele><time>2026-04-24T16:00:50.549Z</time></trkpt><trkpt lat="37.5403967" lon="15.0707267"><ele>194.0</ele><time>2026-04-24T16:00:51.549Z</time></trkpt><trkpt lat="37.54033" lon="15.0707817"><ele>194.0</ele><time>2026-04-24T16:00:52.548Z</time></trkpt><trkpt lat="37.5402683" lon="15.0708283"><ele>194.0</ele><time>2026-04-24T16:00:53.549Z</time></trkpt><trkpt lat="37.54021" lon="15.0708717"><ele>194.0</ele><time>2026-04-24T16:00:54.548Z</time></trkpt><trkpt lat="37.54015" lon="15.0709217"><ele>194.0</ele><time>2026-04-24T16:00:55.548Z</time></trkpt><trkpt lat="37.540095" lon="15.0709733"><ele>194.0</ele><time>2026-04-24T16:00:56.549Z</time></trkpt><trkpt lat="37.5400367" lon="15.07103"><ele>194.0</ele><time>2026-04-24T16:00:57.549Z</time></trkpt><trkpt lat="37.5399733" lon="15.0710883"><ele>194.0</ele><time>2026-04-24T16:00:58.548Z</time></trkpt><trkpt lat="37.539895" lon="15.0711517"><ele>194.0</ele><time>2026-04-24T16:00:59.549Z</time></trkpt><trkpt lat="37.5398133" lon="15.0712017"><ele>194.0</ele><time>2026-04-24T16:01:00.548Z</time></trkpt><trkpt lat="37.539725" lon="15.0712383"><ele>194.0</ele><time>2026-04-24T16:01:01.548Z</time></trkpt><trkpt lat="37.5396367" lon="15.07126"><ele>194.0</ele><time>2026-04-24T16:01:02.548Z</time></trkpt><trkpt lat="37.5395467" lon="15.07126"><ele>194.0</ele><time>2026-04-24T16:01:03.549Z</time></trkpt><trkpt lat="37.5394533" lon="15.07124"><ele>193.83333333333334</ele><time>2026-04-24T16:01:04.548Z</time></trkpt><trkpt lat="37.5393667" lon="15.071205"><ele>193.66666666666669</ele><time>2026-04-24T16:01:05.549Z</time></trkpt><trkpt lat="37.5392883" lon="15.0711767"><ele>193.5</ele><time>2026-04-24T16:01:06.549Z</time></trkpt><trkpt lat="37.53922" lon="15.071155"><ele>193.33333333333331</ele><time>2026-04-24T16:01:07.549Z</time></trkpt><trkpt lat="37.53915" lon="15.0711217"><ele>193.16666666666666</ele><time>2026-04-24T16:01:08.548Z</time></trkpt><trkpt lat="37.53908" lon="15.0710933"><ele>193.0</ele><time>2026-04-24T16:01:09.549Z</time></trkpt><trkpt lat="37.5390117" lon="15.0710683"><ele>192.99999999999997</ele><time>2026-04-24T16:01:10.548Z</time></trkpt><trkpt lat="37.538945" lon="15.0710567"><ele>193.0</ele><time>2026-04-24T16:01:11.548Z</time></trkpt><trkpt lat="37.53888" lon="15.07105"><ele>193.0</ele><time>2026-04-24T16:01:12.549Z</time></trkpt><trkpt lat="37.5388167" lon="15.0710483"><ele>193.0</ele><time>2026-04-24T16:01:13.549Z</time></trkpt><trkpt lat="37.5387017" lon="15.071065"><ele>192.99999999999997</ele><time>2026-04-24T16:01:15.548Z</time></trkpt><trkpt lat="37.53861" lon="15.0711"><ele>193.0</ele><time>2026-04-24T16:01:17.549Z</time></trkpt><trkpt lat="37.5385233" lon="15.0711433"><ele>192.66666666666666</ele><time>2026-04-24T16:01:19.548Z</time></trkpt><trkpt lat="37.5384567" lon="15.0711867"><ele>192.33333333333331</ele><time>2026-04-24T16:01:21.549Z</time></trkpt><trkpt lat="37.5383933" lon="15.07122"><ele>192.0</ele><time>2026-04-24T16:01:24.549Z</time></trkpt><trkpt lat="37.5383233" lon="15.0712533"><ele>191.66666666666666</ele><time>2026-04-24T16:01:33.548Z</time></trkpt><trkpt lat="37.5382533" lon="15.0712817"><ele>191.33333333333331</ele><time>2026-04-24T16:01:37.548Z</time></trkpt><trkpt lat="37.538165" lon="15.0712933"><ele>191.0</ele><time>2026-04-24T16:01:42.549Z</time></trkpt><trkpt lat="37.538075" lon="15.0713383"><ele>191.0</ele><time>2026-04-24T16:01:44.548Z</time></trkpt><trkpt lat="37.5379617" lon="15.0714567"><ele>191.0</ele><time>2026-04-24T16:01:46.548Z</time></trkpt><trkpt lat="37.53789" lon="15.0715383"><ele>191.0</ele><time>2026-04-24T16:01:47.548Z</time></trkpt><trkpt lat="37.5378167" lon="15.0716217"><ele>191.0</ele><time>2026-04-24T16:01:48.549Z</time></trkpt><trkpt lat="37.53774" lon="15.0717"><ele>191.0</ele><time>2026-04-24T16:01:49.549Z</time></trkpt><trkpt lat="37.53765" lon="15.0717817"><ele>190.0</ele><time>2026-04-24T16:01:50.548Z</time></trkpt><trkpt lat="37.5375533" lon="15.0718617"><ele>189.0</ele><time>2026-04-24T16:01:51.549Z</time></trkpt><trkpt lat="37.5374483" lon="15.071945"><ele>188.0</ele><time>2026-04-24T16:01:52.549Z</time></trkpt><trkpt lat="37.537345" lon="15.07203"><ele>187.0</ele><time>2026-04-24T16:01:53.548Z</time></trkpt><trkpt lat="37.537255" lon="15.0721167"><ele>187.0</ele><time>2026-04-24T16:01:54.549Z</time></trkpt><trkpt lat="37.5371667" lon="15.0721917"><ele>187.0</ele><time>2026-04-24T16:01:55.549Z</time></trkpt><trkpt lat="37.53709" lon="15.07226"><ele>187.0</ele><time>2026-04-24T16:01:56.549Z</time></trkpt><trkpt lat="37.5370283" lon="15.0723267"><ele>187.0</ele><time>2026-04-24T16:01:57.549Z</time></trkpt><trkpt lat="37.5369667" lon="15.0723933"><ele>187.0</ele><time>2026-04-24T16:01:58.548Z</time></trkpt><trkpt lat="37.5369017" lon="15.0724567"><ele>187.0</ele><time>2026-04-24T16:01:59.549Z</time></trkpt><trkpt lat="37.5368467" lon="15.0725183"><ele>185.8</ele><time>2026-04-24T16:02:00.549Z</time></trkpt><trkpt lat="37.53678" lon="15.072585"><ele>184.6</ele><time>2026-04-24T16:02:01.548Z</time></trkpt><trkpt lat="37.53671" lon="15.0726567"><ele>183.4</ele><time>2026-04-24T16:02:02.549Z</time></trkpt><trkpt lat="37.5366333" lon="15.0727417"><ele>182.20000000000002</ele><time>2026-04-24T16:02:03.548Z</time></trkpt><trkpt lat="37.5365583" lon="15.072825"><ele>181.0</ele><time>2026-04-24T16:02:04.549Z</time></trkpt><trkpt lat="37.5364817" lon="15.072895"><ele>181.0</ele><time>2026-04-24T16:02:05.549Z</time></trkpt><trkpt lat="37.536415" lon="15.0729683"><ele>181.0</ele><time>2026-04-24T16:02:06.549Z</time></trkpt><trkpt lat="37.5363383" lon="15.0730383"><ele>181.0</ele><time>2026-04-24T16:02:07.549Z</time></trkpt><trkpt lat="37.5362583" lon="15.073115"><ele>181.0</ele><time>2026-04-24T16:02:08.549Z</time></trkpt><trkpt lat="37.5361883" lon="15.07318"><ele>181.0</ele><time>2026-04-24T16:02:09.548Z</time></trkpt><trkpt lat="37.5361333" lon="15.073225"><ele>181.0</ele><time>2026-04-24T16:02:10.549Z</time></trkpt><trkpt lat="37.5360317" lon="15.073305"><ele>180.33333333333334</ele><time>2026-04-24T16:02:12.548Z</time></trkpt><trkpt lat="37.5359383" lon="15.07338"><ele>179.66666666666669</ele><time>2026-04-24T16:02:14.548Z</time></trkpt><trkpt lat="37.5358767" lon="15.0734367"><ele>179.0</ele><time>2026-04-24T16:02:16.549Z</time></trkpt><trkpt lat="37.5358067" lon="15.07348"><ele>178.33333333333334</ele><time>2026-04-24T16:02:19.549Z</time></trkpt><trkpt lat="37.5357367" lon="15.073545"><ele>177.66666666666666</ele><time>2026-04-24T16:02:22.549Z</time></trkpt><trkpt lat="37.5356717" lon="15.073615"><ele>177.0</ele><time>2026-04-24T16:02:24.549Z</time></trkpt><trkpt lat="37.5355817" lon="15.0737317"><ele>177.0</ele><time>2026-04-24T16:02:26.549Z</time></trkpt><trkpt lat="37.5355367" lon="15.073825"><ele>177.0</ele><time>2026-04-24T16:02:27.549Z</time></trkpt><trkpt lat="37.5354733" lon="15.0739367"><ele>177.0</ele><time>2026-04-24T16:02:28.549Z</time></trkpt><trkpt lat="37.5353967" lon="15.0740517"><ele>177.0</ele><time>2026-04-24T16:02:29.548Z</time></trkpt><trkpt lat="37.5353133" lon="15.07418"><ele>177.0</ele><time>2026-04-24T16:02:30.549Z</time></trkpt><trkpt lat="37.535225" lon="15.0743083"><ele>176.75</ele><time>2026-04-24T16:02:31.549Z</time></trkpt><trkpt lat="37.5351283" lon="15.074445"><ele>176.5</ele><time>2026-04-24T16:02:32.548Z</time></trkpt><trkpt lat="37.5350367" lon="15.0745983"><ele>176.25</ele><time>2026-04-24T16:02:33.549Z</time></trkpt><trkpt lat="37.5349383" lon="15.07474"><ele>176.0</ele><time>2026-04-24T16:02:34.549Z</time></trkpt><trkpt lat="37.534845" lon="15.0748917"><ele>175.75</ele><time>2026-04-24T16:02:35.549Z</time></trkpt><trkpt lat="37.53475" lon="15.0750383"><ele>175.5</ele><time>2026-04-24T16:02:36.548Z</time></trkpt><trkpt lat="37.5346567" lon="15.0751783"><ele>175.25</ele><time>2026-04-24T16:02:37.549Z</time></trkpt><trkpt lat="37.5345567" lon="15.0753133"><ele>175.0</ele><time>2026-04-24T16:02:38.548Z</time></trkpt><trkpt lat="37.5344567" lon="15.0754483"><ele>175.0</ele><time>2026-04-24T16:02:39.548Z</time></trkpt><trkpt lat="37.5343533" lon="15.07558"><ele>175.0</ele><time>2026-04-24T16:02:40.548Z</time></trkpt><trkpt lat="37.5342483" lon="15.075715"><ele>175.0</ele><time>2026-04-24T16:02:41.549Z</time></trkpt><trkpt lat="37.534155" lon="15.0758467"><ele>175.0</ele><time>2026-04-24T16:02:42.548Z</time></trkpt><trkpt lat="37.5340633" lon="15.0759767"><ele>175.2</ele><time>2026-04-24T16:02:43.549Z</time></trkpt><trkpt lat="37.5339767" lon="15.0760983"><ele>175.4</ele><time>2026-04-24T16:02:44.549Z</time></trkpt><trkpt lat="37.533895" lon="15.0762033"><ele>175.60000000000002</ele><time>2026-04-24T16:02:45.549Z</time></trkpt><trkpt lat="37.53382" lon="15.0762933"><ele>175.8</ele><time>2026-04-24T16:02:46.549Z</time></trkpt><trkpt lat="37.5337583" lon="15.07638"><ele>176.0</ele><time>2026-04-24T16:02:47.549Z</time></trkpt><trkpt lat="37.533705" lon="15.0764417"><ele>176.0</ele><time>2026-04-24T16:02:48.548Z</time></trkpt><trkpt lat="37.5336367" lon="15.0765417"><ele>176.0</ele><time>2026-04-24T16:02:50.549Z</time></trkpt><trkpt lat="37.53358" lon="15.0766217"><ele>176.0</ele><time>2026-04-24T16:02:52.549Z</time></trkpt><trkpt lat="37.5335167" lon="15.076715"><ele>176.0</ele><time>2026-04-24T16:02:54.548Z</time></trkpt><trkpt lat="37.5334617" lon="15.0768233"><ele>176.0</ele><time>2026-04-24T16:02:56.549Z</time></trkpt><trkpt lat="37.5333867" lon="15.0769433"><ele>175.20000000000002</ele><time>2026-04-24T16:02:58.549Z</time></trkpt><trkpt lat="37.53334" lon="15.07701"><ele>174.4</ele><time>2026-04-24T16:02:59.549Z</time></trkpt><trkpt lat="37.5332933" lon="15.0770717"><ele>173.6</ele><time>2026-04-24T16:03:00.548Z</time></trkpt><trkpt lat="37.5331983" lon="15.0772067"><ele>172.8</ele><time>2026-04-24T16:03:02.549Z</time></trkpt><trkpt lat="37.533135" lon="15.0772767"><ele>172.0</ele><time>2026-04-24T16:03:03.548Z</time></trkpt><trkpt lat="37.5330617" lon="15.0773333"><ele>172.0</ele><time>2026-04-24T16:03:04.548Z</time></trkpt><trkpt lat="37.5329833" lon="15.0773767"><ele>172.0</ele><time>2026-04-24T16:03:05.548Z</time></trkpt><trkpt lat="37.5328983" lon="15.077405"><ele>172.0</ele><time>2026-04-24T16:03:06.549Z</time></trkpt><trkpt lat="37.532805" lon="15.07742"><ele>172.0</ele><time>2026-04-24T16:03:07.548Z</time></trkpt><trkpt lat="37.5327033" lon="15.0774267"><ele>172.0</ele><time>2026-04-24T16:03:08.548Z</time></trkpt><trkpt lat="37.53259" lon="15.0774317"><ele>172.2</ele><time>2026-04-24T16:03:09.549Z</time></trkpt><trkpt lat="37.5324817" lon="15.07742"><ele>172.39999999999998</ele><time>2026-04-24T16:03:10.548Z</time></trkpt><trkpt lat="37.5323717" lon="15.0774017"><ele>172.60000000000002</ele><time>2026-04-24T16:03:11.549Z</time></trkpt><trkpt lat="37.53226" lon="15.077385"><ele>172.8</ele><time>2026-04-24T16:03:12.548Z</time></trkpt><trkpt lat="37.5321533" lon="15.0773567"><ele>173.0</ele><time>2026-04-24T16:03:13.548Z</time></trkpt><trkpt lat="37.5320533" lon="15.077305"><ele>171.8</ele><time>2026-04-24T16:03:14.549Z</time></trkpt><trkpt lat="37.531965" lon="15.0772567"><ele>170.60000000000002</ele><time>2026-04-24T16:03:15.548Z</time></trkpt><trkpt lat="37.5318667" lon="15.077195"><ele>169.39999999999998</ele><time>2026-04-24T16:03:16.548Z</time></trkpt><trkpt lat="37.53177" lon="15.0771383"><ele>168.2</ele><time>2026-04-24T16:03:17.549Z</time></trkpt><trkpt lat="37.531665" lon="15.0771"><ele>167.0</ele><time>2026-04-24T16:03:18.549Z</time></trkpt><trkpt lat="37.5315567" lon="15.0770617"><ele>167.0</ele><time>2026-04-24T16:03:19.549Z</time></trkpt><trkpt lat="37.5314467" lon="15.0770283"><ele>167.0</ele><time>2026-04-24T16:03:20.548Z</time></trkpt><trkpt lat="37.5313333" lon="15.0769983"><ele>167.0</ele><time>2026-04-24T16:03:21.548Z</time></trkpt><trkpt lat="37.5311967" lon="15.0769783"><ele>167.0</ele><time>2026-04-24T16:03:22.548Z</time></trkpt><trkpt lat="37.5310583" lon="15.07696"><ele>164.66666666666666</ele><time>2026-04-24T16:03:23.548Z</time></trkpt><trkpt lat="37.5309" lon="15.07694"><ele>162.33333333333334</ele><time>2026-04-24T16:03:24.548Z</time></trkpt><trkpt lat="37.53074" lon="15.0769267"><ele>160.0</ele><time>2026-04-24T16:03:25.549Z</time></trkpt><trkpt lat="37.530565" lon="15.0769083"><ele>160.0</ele><time>2026-04-24T16:03:26.548Z</time></trkpt><trkpt lat="37.5303983" lon="15.0768967"><ele>160.0</ele><time>2026-04-24T16:03:27.548Z</time></trkpt><trkpt lat="37.53024" lon="15.0768833"><ele>160.0</ele><time>2026-04-24T16:03:28.549Z</time></trkpt><trkpt lat="37.5300767" lon="15.0768617"><ele>157.33333333333334</ele><time>2026-04-24T16:03:29.548Z</time></trkpt><trkpt lat="37.529915" lon="15.076845"><ele>154.66666666666666</ele><time>2026-04-24T16:03:30.548Z</time></trkpt><trkpt lat="37.5297617" lon="15.0768433"><ele>152.0</ele><time>2026-04-24T16:03:31.549Z</time></trkpt><trkpt lat="37.529615" lon="15.0768483"><ele>150.5</ele><time>2026-04-24T16:03:32.549Z</time></trkpt><trkpt lat="37.5294683" lon="15.0768417"><ele>149.0</ele><time>2026-04-24T16:03:33.549Z</time></trkpt><trkpt lat="37.5293233" lon="15.076855"><ele>147.5</ele><time>2026-04-24T16:03:34.549Z</time></trkpt><trkpt lat="37.529185" lon="15.0768683"><ele>146.0</ele><time>2026-04-24T16:03:35.549Z</time></trkpt><trkpt lat="37.529055" lon="15.0769017"><ele>146.0</ele><time>2026-04-24T16:03:36.549Z</time></trkpt><trkpt lat="37.5289217" lon="15.076935"><ele>146.0</ele><time>2026-04-24T16:03:37.549Z</time></trkpt><trkpt lat="37.5287983" lon="15.0769733"><ele>146.0</ele><time>2026-04-24T16:03:38.549Z</time></trkpt><trkpt lat="37.5286783" lon="15.0770183"><ele>146.0</ele><time>2026-04-24T16:03:39.549Z</time></trkpt><trkpt lat="37.5285683" lon="15.077065"><ele>145.0</ele><time>2026-04-24T16:03:40.549Z</time></trkpt><trkpt lat="37.52846" lon="15.07712"><ele>144.0</ele><time>2026-04-24T16:03:41.548Z</time></trkpt><trkpt lat="37.52835" lon="15.0771667"><ele>143.0</ele><time>2026-04-24T16:03:42.548Z</time></trkpt><trkpt lat="37.5282533" lon="15.0772217"><ele>142.0</ele><time>2026-04-24T16:03:43.549Z</time></trkpt><trkpt lat="37.5281567" lon="15.07727"><ele>141.0</ele><time>2026-04-24T16:03:44.549Z</time></trkpt><trkpt lat="37.5280633" lon="15.0773283"><ele>141.0</ele><time>2026-04-24T16:03:45.549Z</time></trkpt><trkpt lat="37.52797" lon="15.0773967"><ele>141.0</ele><time>2026-04-24T16:03:46.549Z</time></trkpt><trkpt lat="37.5278767" lon="15.0774667"><ele>141.0</ele><time>2026-04-24T16:03:47.549Z</time></trkpt><trkpt lat="37.5277967" lon="15.0775383"><ele>141.0</ele><time>2026-04-24T16:03:48.549Z</time></trkpt><trkpt lat="37.5277233" lon="15.077605"><ele>141.0</ele><time>2026-04-24T16:03:49.549Z</time></trkpt><trkpt lat="37.5276517" lon="15.077675"><ele>137.8</ele><time>2026-04-24T16:03:50.549Z</time></trkpt><trkpt lat="37.527575" lon="15.0777417"><ele>134.6</ele><time>2026-04-24T16:03:51.549Z</time></trkpt><trkpt lat="37.527505" lon="15.0778133"><ele>131.4</ele><time>2026-04-24T16:03:52.549Z</time></trkpt><trkpt lat="37.5274367" lon="15.077895"><ele>128.2</ele><time>2026-04-24T16:03:53.549Z</time></trkpt><trkpt lat="37.5273717" lon="15.0779767"><ele>125.0</ele><time>2026-04-24T16:03:54.549Z</time></trkpt><trkpt lat="37.527295" lon="15.0780517"><ele>125.0</ele><time>2026-04-24T16:03:55.548Z</time></trkpt><trkpt lat="37.5272217" lon="15.0781367"><ele>125.0</ele><time>2026-04-24T16:03:56.549Z</time></trkpt><trkpt lat="37.5271417" lon="15.0782183"><ele>125.0</ele><time>2026-04-24T16:03:57.548Z</time></trkpt><trkpt lat="37.5270617" lon="15.0782967"><ele>125.0</ele><time>2026-04-24T16:03:58.549Z</time></trkpt><trkpt lat="37.52698" lon="15.0783733"><ele>125.0</ele><time>2026-04-24T16:03:59.549Z</time></trkpt><trkpt lat="37.5269017" lon="15.0784383"><ele>123.2</ele><time>2026-04-24T16:04:00.548Z</time></trkpt><trkpt lat="37.5268117" lon="15.0784867"><ele>121.4</ele><time>2026-04-24T16:04:01.549Z</time></trkpt><trkpt lat="37.5267233" lon="15.0785267"><ele>119.6</ele><time>2026-04-24T16:04:02.549Z</time></trkpt><trkpt lat="37.52663" lon="15.0785633"><ele>117.8</ele><time>2026-04-24T16:04:03.549Z</time></trkpt><trkpt lat="37.5265483" lon="15.0785983"><ele>116.0</ele><time>2026-04-24T16:04:04.548Z</time></trkpt><trkpt lat="37.5264733" lon="15.0786217"><ele>116.00000000000001</ele><time>2026-04-24T16:04:05.549Z</time></trkpt><trkpt lat="37.5263983" lon="15.078645"><ele>116.0</ele><time>2026-04-24T16:04:06.549Z</time></trkpt><trkpt lat="37.526335" lon="15.0786633"><ele>116.00000000000001</ele><time>2026-04-24T16:04:07.548Z</time></trkpt><trkpt lat="37.5262667" lon="15.078685"><ele>116.00000000000001</ele><time>2026-04-24T16:04:08.548Z</time></trkpt><trkpt lat="37.5261983" lon="15.0787083"><ele>116.0</ele><time>2026-04-24T16:04:09.549Z</time></trkpt><trkpt lat="37.5261333" lon="15.0787333"><ele>116.00000000000001</ele><time>2026-04-24T16:04:10.548Z</time></trkpt><trkpt lat="37.5260717" lon="15.07876"><ele>116.00000000000001</ele><time>2026-04-24T16:04:11.548Z</time></trkpt><trkpt lat="37.52601" lon="15.0788317"><ele>115.42857142857144</ele><time>2026-04-24T16:04:15.549Z</time></trkpt><trkpt lat="37.5259433" lon="15.078865"><ele>114.85714285714286</ele><time>2026-04-24T16:04:16.548Z</time></trkpt><trkpt lat="37.5258817" lon="15.0789083"><ele>114.28571428571429</ele><time>2026-04-24T16:04:17.549Z</time></trkpt><trkpt lat="37.5258283" lon="15.0789617"><ele>113.71428571428572</ele><time>2026-04-24T16:04:18.548Z</time></trkpt><trkpt lat="37.5257833" lon="15.0790183"><ele>113.14285714285714</ele><time>2026-04-24T16:04:19.549Z</time></trkpt><trkpt lat="37.5257317" lon="15.0790833"><ele>112.57142857142857</ele><time>2026-04-24T16:04:20.548Z</time></trkpt><trkpt lat="37.525685" lon="15.079145"><ele>112.0</ele><time>2026-04-24T16:04:21.549Z</time></trkpt><trkpt lat="37.5256317" lon="15.0792233"><ele>111.66666666666667</ele><time>2026-04-24T16:04:22.548Z</time></trkpt><trkpt lat="37.5255767" lon="15.0793017"><ele>111.33333333333334</ele><time>2026-04-24T16:04:23.548Z</time></trkpt><trkpt lat="37.525525" lon="15.07937"><ele>111.0</ele><time>2026-04-24T16:04:24.549Z</time></trkpt><trkpt lat="37.5254767" lon="15.07943"><ele>110.66666666666666</ele><time>2026-04-24T16:04:25.549Z</time></trkpt><trkpt lat="37.5253967" lon="15.0795433"><ele>110.33333333333333</ele><time>2026-04-24T16:04:27.549Z</time></trkpt><trkpt lat="37.5253467" lon="15.0795967"><ele>110.0</ele><time>2026-04-24T16:04:28.548Z</time></trkpt><trkpt lat="37.5252983" lon="15.0796567"><ele>109.57142857142857</ele><time>2026-04-24T16:04:29.548Z</time></trkpt><trkpt lat="37.5252417" lon="15.0797067"><ele>109.14285714285714</ele><time>2026-04-24T16:04:30.549Z</time></trkpt><trkpt lat="37.5251817" lon="15.0797533"><ele>108.71428571428572</ele><time>2026-04-24T16:04:31.549Z</time></trkpt><trkpt lat="37.5251233" lon="15.0797917"><ele>108.28571428571428</ele><time>2026-04-24T16:04:32.548Z</time></trkpt><trkpt lat="37.52506" lon="15.0798417"><ele>107.85714285714286</ele><time>2026-04-24T16:04:33.548Z</time></trkpt><trkpt lat="37.52499" lon="15.0798633"><ele>107.42857142857143</ele><time>2026-04-24T16:04:34.549Z</time></trkpt><trkpt lat="37.524915" lon="15.079885"><ele>107.0</ele><time>2026-04-24T16:04:35.548Z</time></trkpt><trkpt lat="37.524845" lon="15.0799217"><ele>107.39999999999999</ele><time>2026-04-24T16:04:36.548Z</time></trkpt><trkpt lat="37.5247583" lon="15.0799367"><ele>107.79999999999998</ele><time>2026-04-24T16:04:37.548Z</time></trkpt><trkpt lat="37.52467" lon="15.07995"><ele>108.2</ele><time>2026-04-24T16:04:39.548Z</time></trkpt><trkpt lat="37.5245883" lon="15.0800117"><ele>108.6</ele><time>2026-04-24T16:04:43.548Z</time></trkpt><trkpt lat="37.5244817" lon="15.0800917"><ele>109.0</ele><time>2026-04-24T16:04:45.549Z</time></trkpt><trkpt lat="37.5244083" lon="15.0801533"><ele>106.6</ele><time>2026-04-24T16:04:46.548Z</time></trkpt><trkpt lat="37.5243133" lon="15.0802217"><ele>104.2</ele><time>2026-04-24T16:04:47.549Z</time></trkpt><trkpt lat="37.5242133" lon="15.0802917"><ele>101.8</ele><time>2026-04-24T16:04:48.548Z</time></trkpt><trkpt lat="37.5241283" lon="15.0803633"><ele>99.39999999999999</ele><time>2026-04-24T16:04:49.549Z</time></trkpt><trkpt lat="37.524045" lon="15.0804417"><ele>97.0</ele><time>2026-04-24T16:04:50.549Z</time></trkpt><trkpt lat="37.5239667" lon="15.0805233"><ele>97.00000000000001</ele><time>2026-04-24T16:04:51.548Z</time></trkpt><trkpt lat="37.52391" lon="15.080595"><ele>97.0</ele><time>2026-04-24T16:04:52.549Z</time></trkpt><trkpt lat="37.5238483" lon="15.080645"><ele>97.0</ele><time>2026-04-24T16:04:53.549Z</time></trkpt><trkpt lat="37.5237717" lon="15.0806933"><ele>97.0</ele><time>2026-04-24T16:04:54.549Z</time></trkpt><trkpt lat="37.5237" lon="15.0807367"><ele>97.00000000000001</ele><time>2026-04-24T16:04:55.548Z</time></trkpt><trkpt lat="37.5235967" lon="15.0808067"><ele>97.0</ele><time>2026-04-24T16:04:57.549Z</time></trkpt><trkpt lat="37.523505" lon="15.0808583"><ele>95.0</ele><time>2026-04-24T16:04:59.549Z</time></trkpt><trkpt lat="37.5234333" lon="15.0808717"><ele>93.0</ele><time>2026-04-24T16:05:01.549Z</time></trkpt><trkpt lat="37.523335" lon="15.080865"><ele>91.0</ele><time>2026-04-24T16:05:11.549Z</time></trkpt><trkpt lat="37.523185" lon="15.0809067"><ele>89.0</ele><time>2026-04-24T16:05:13.549Z</time></trkpt><trkpt lat="37.52309" lon="15.08094"><ele>87.0</ele><time>2026-04-24T16:05:14.548Z</time></trkpt><trkpt lat="37.5230083" lon="15.080965"><ele>87.0</ele><time>2026-04-24T16:05:15.548Z</time></trkpt><trkpt lat="37.522945" lon="15.0809817"><ele>87.0</ele><time>2026-04-24T16:05:16.549Z</time></trkpt><trkpt lat="37.5228767" lon="15.0809967"><ele>87.0</ele><time>2026-04-24T16:05:17.549Z</time></trkpt><trkpt lat="37.5227533" lon="15.0810117"><ele>87.0</ele><time>2026-04-24T16:05:19.548Z</time></trkpt><trkpt lat="37.5226867" lon="15.0810267"><ele>87.0</ele><time>2026-04-24T16:05:20.549Z</time></trkpt><trkpt lat="37.5225667" lon="15.081055"><ele>87.0</ele><time>2026-04-24T16:05:22.548Z</time></trkpt><trkpt lat="37.5225033" lon="15.0810667"><ele>86.85714285714286</ele><time>2026-04-24T16:05:23.548Z</time></trkpt><trkpt lat="37.522435" lon="15.0810817"><ele>86.71428571428572</ele><time>2026-04-24T16:05:24.549Z</time></trkpt><trkpt lat="37.5223717" lon="15.0810933"><ele>86.57142857142858</ele><time>2026-04-24T16:05:25.548Z</time></trkpt><trkpt lat="37.5223083" lon="15.0811017"><ele>86.42857142857143</ele><time>2026-04-24T16:05:26.549Z</time></trkpt><trkpt lat="37.5222433" lon="15.081105"><ele>86.28571428571429</ele><time>2026-04-24T16:05:27.549Z</time></trkpt><trkpt lat="37.5221767" lon="15.0811183"><ele>86.14285714285715</ele><time>2026-04-24T16:05:28.549Z</time></trkpt><trkpt lat="37.5221067" lon="15.0811317"><ele>86.0</ele><time>2026-04-24T16:05:29.549Z</time></trkpt><trkpt lat="37.5220383" lon="15.0811517"><ele>84.39999999999999</ele><time>2026-04-24T16:05:30.548Z</time></trkpt><trkpt lat="37.5219683" lon="15.0811733"><ele>82.8</ele><time>2026-04-24T16:05:31.549Z</time></trkpt><trkpt lat="37.52189" lon="15.0811933"><ele>81.19999999999999</ele><time>2026-04-24T16:05:32.549Z</time></trkpt><trkpt lat="37.5218033" lon="15.0812033"><ele>79.6</ele><time>2026-04-24T16:05:33.549Z</time></trkpt><trkpt lat="37.5217" lon="15.0812217"><ele>78.0</ele><time>2026-04-24T16:05:34.549Z</time></trkpt><trkpt lat="37.5215883" lon="15.081235"><ele>78.0</ele><time>2026-04-24T16:05:35.548Z</time></trkpt><trkpt lat="37.5214867" lon="15.0812517"><ele>78.0</ele><time>2026-04-24T16:05:36.548Z</time></trkpt><trkpt lat="37.5213817" lon="15.0812617"><ele>78.0</ele><time>2026-04-24T16:05:37.548Z</time></trkpt><trkpt lat="37.5212767" lon="15.0812533"><ele>78.0</ele><time>2026-04-24T16:05:38.549Z</time></trkpt><trkpt lat="37.5211733" lon="15.081285"><ele>78.0</ele><time>2026-04-24T16:05:39.548Z</time></trkpt><trkpt lat="37.5210867" lon="15.081295"><ele>76.6</ele><time>2026-04-24T16:05:40.549Z</time></trkpt><trkpt lat="37.5210183" lon="15.081315"><ele>75.19999999999999</ele><time>2026-04-24T16:05:41.549Z</time></trkpt><trkpt lat="37.5209183" lon="15.081335"><ele>73.8</ele><time>2026-04-24T16:05:43.548Z</time></trkpt><trkpt lat="37.5208233" lon="15.0813367"><ele>72.39999999999999</ele><time>2026-04-24T16:05:45.548Z</time></trkpt><trkpt lat="37.52071" lon="15.0813483"><ele>71.0</ele><time>2026-04-24T16:05:47.549Z</time></trkpt><trkpt lat="37.5205933" lon="15.0813683"><ele>71.0</ele><time>2026-04-24T16:05:49.548Z</time></trkpt><trkpt lat="37.5204767" lon="15.0813833"><ele>71.0</ele><time>2026-04-24T16:05:51.549Z</time></trkpt><trkpt lat="37.520355" lon="15.0814017"><ele>71.0</ele><time>2026-04-24T16:05:53.549Z</time></trkpt><trkpt lat="37.5202533" lon="15.0814267"><ele>71.0</ele><time>2026-04-24T16:05:55.549Z</time></trkpt><trkpt lat="37.520175" lon="15.0814983"><ele>71.0</ele><time>2026-04-24T16:05:57.549Z</time></trkpt><trkpt lat="37.52013" lon="15.0815567"><ele>70.33333333333334</ele><time>2026-04-24T16:05:58.548Z</time></trkpt><trkpt lat="37.5200717" lon="15.0816517"><ele>69.66666666666667</ele><time>2026-04-24T16:06:00.548Z</time></trkpt><trkpt lat="37.5200033" lon="15.0817267"><ele>69.0</ele><time>2026-04-24T16:06:02.549Z</time></trkpt><trkpt lat="37.5198983" lon="15.0817783"><ele>68.33333333333333</ele><time>2026-04-24T16:06:04.548Z</time></trkpt><trkpt lat="37.51983" lon="15.0817917"><ele>67.66666666666666</ele><time>2026-04-24T16:06:05.548Z</time></trkpt><trkpt lat="37.5197567" lon="15.0818"><ele>67.0</ele><time>2026-04-24T16:06:06.548Z</time></trkpt><trkpt lat="37.5196867" lon="15.08181"><ele>66.16666666666666</ele><time>2026-04-24T16:06:07.549Z</time></trkpt><trkpt lat="37.5195633" lon="15.0818233"><ele>65.33333333333333</ele><time>2026-04-24T16:06:09.549Z</time></trkpt><trkpt lat="37.5194883" lon="15.0818383"><ele>64.5</ele><time>2026-04-24T16:06:10.549Z</time></trkpt><trkpt lat="37.51941" lon="15.0818517"><ele>63.66666666666667</ele><time>2026-04-24T16:06:11.549Z</time></trkpt><trkpt lat="37.5193383" lon="15.08187"><ele>62.833333333333336</ele><time>2026-04-24T16:06:12.549Z</time></trkpt><trkpt lat="37.5192683" lon="15.0819083"><ele>62.0</ele><time>2026-04-24T16:06:13.549Z</time></trkpt><trkpt lat="37.5192033" lon="15.08197"><ele>62.00000000000001</ele><time>2026-04-24T16:06:14.549Z</time></trkpt><trkpt lat="37.5191483" lon="15.0820483"><ele>62.0</ele><time>2026-04-24T16:06:15.548Z</time></trkpt><trkpt lat="37.5191017" lon="15.0821267"><ele>62.0</ele><time>2026-04-24T16:06:16.549Z</time></trkpt><trkpt lat="37.5190617" lon="15.0822167"><ele>62.0</ele><time>2026-04-24T16:06:17.548Z</time></trkpt><trkpt lat="37.5190183" lon="15.0823017"><ele>62.00000000000001</ele><time>2026-04-24T16:06:18.549Z</time></trkpt><trkpt lat="37.5189767" lon="15.082375"><ele>62.0</ele><time>2026-04-24T16:06:19.549Z</time></trkpt><trkpt lat="37.51893" lon="15.0824617"><ele>61.333333333333336</ele><time>2026-04-24T16:06:20.549Z</time></trkpt><trkpt lat="37.5188717" lon="15.082545"><ele>60.66666666666667</ele><time>2026-04-24T16:06:21.548Z</time></trkpt><trkpt lat="37.5188017" lon="15.082625"><ele>60.0</ele><time>2026-04-24T16:06:22.549Z</time></trkpt><trkpt lat="37.5187367" lon="15.0827"><ele>59.33333333333333</ele><time>2026-04-24T16:06:23.548Z</time></trkpt><trkpt lat="37.5186733" lon="15.0827733"><ele>58.666666666666664</ele><time>2026-04-24T16:06:24.549Z</time></trkpt><trkpt lat="37.5186117" lon="15.0828517"><ele>58.0</ele><time>2026-04-24T16:06:25.549Z</time></trkpt><trkpt lat="37.5185417" lon="15.0829083"><ele>57.83333333333333</ele><time>2026-04-24T16:06:26.548Z</time></trkpt><trkpt lat="37.518475" lon="15.082945"><ele>57.666666666666664</ele><time>2026-04-24T16:06:27.548Z</time></trkpt><trkpt lat="37.51837" lon="15.0829867"><ele>57.5</ele><time>2026-04-24T16:06:29.549Z</time></trkpt><trkpt lat="37.5182967" lon="15.0830067"><ele>57.33333333333333</ele><time>2026-04-24T16:06:31.548Z</time></trkpt><trkpt lat="37.518225" lon="15.08301"><ele>57.166666666666664</ele><time>2026-04-24T16:06:33.548Z</time></trkpt><trkpt lat="37.5181217" lon="15.0830183"><ele>57.0</ele><time>2026-04-24T16:06:35.549Z</time></trkpt><trkpt lat="37.5180533" lon="15.083015"><ele>57.0</ele><time>2026-04-24T16:06:36.549Z</time></trkpt><trkpt lat="37.5179833" lon="15.0829967"><ele>57.0</ele><time>2026-04-24T16:06:37.549Z</time></trkpt><trkpt lat="37.5179183" lon="15.0829867"><ele>57.0</ele><time>2026-04-24T16:06:38.549Z</time></trkpt><trkpt lat="37.5177917" lon="15.0829733"><ele>57.0</ele><time>2026-04-24T16:06:40.549Z</time></trkpt><trkpt lat="37.5177267" lon="15.082965"><ele>57.0</ele><time>2026-04-24T16:06:41.548Z</time></trkpt><trkpt lat="37.517625" lon="15.0829417"><ele>57.0</ele><time>2026-04-24T16:06:43.548Z</time></trkpt><trkpt lat="37.51753" lon="15.0829317"><ele>56.400000000000006</ele><time>2026-04-24T16:06:45.548Z</time></trkpt><trkpt lat="37.51744" lon="15.0829367"><ele>55.800000000000004</ele><time>2026-04-24T16:06:47.549Z</time></trkpt><trkpt lat="37.5173467" lon="15.0829433"><ele>55.2</ele><time>2026-04-24T16:06:49.549Z</time></trkpt><trkpt lat="37.5172433" lon="15.08294"><ele>54.6</ele><time>2026-04-24T16:06:51.549Z</time></trkpt><trkpt lat="37.5171433" lon="15.082945"><ele>54.0</ele><time>2026-04-24T16:06:53.549Z</time></trkpt><trkpt lat="37.5170617" lon="15.082965"><ele>53.6</ele><time>2026-04-24T16:06:55.548Z</time></trkpt><trkpt lat="37.5170167" lon="15.08305"><ele>53.2</ele><time>2026-04-24T16:06:57.549Z</time></trkpt><trkpt lat="37.5170117" lon="15.0831783"><ele>52.800000000000004</ele><time>2026-04-24T16:06:59.548Z</time></trkpt><trkpt lat="37.5170233" lon="15.0833267"><ele>52.400000000000006</ele><time>2026-04-24T16:07:01.549Z</time></trkpt><trkpt lat="37.5170433" lon="15.0834683"><ele>52.0</ele><time>2026-04-24T16:07:03.548Z</time></trkpt><trkpt lat="37.517075" lon="15.0836033"><ele>51.83333333333333</ele><time>2026-04-24T16:07:05.548Z</time></trkpt><trkpt lat="37.5170817" lon="15.0836917"><ele>51.666666666666664</ele><time>2026-04-24T16:07:08.548Z</time></trkpt><trkpt lat="37.5170983" lon="15.0837767"><ele>51.5</ele><time>2026-04-24T16:07:11.548Z</time></trkpt><trkpt lat="37.5171367" lon="15.0838833"><ele>51.33333333333333</ele><time>2026-04-24T16:07:17.549Z</time></trkpt><trkpt lat="37.5171633" lon="15.084015"><ele>51.166666666666664</ele><time>2026-04-24T16:07:19.548Z</time></trkpt><trkpt lat="37.51718" lon="15.0841283"><ele>51.0</ele><time>2026-04-24T16:07:21.549Z</time></trkpt><trkpt lat="37.5171817" lon="15.084215"><ele>51.0</ele><time>2026-04-24T16:07:23.549Z</time></trkpt><trkpt lat="37.5171283" lon="15.0842817"><ele>51.0</ele><time>2026-04-24T16:07:25.548Z</time></trkpt><trkpt lat="37.51705" lon="15.0843183"><ele>51.0</ele><time>2026-04-24T16:07:28.548Z</time></trkpt><trkpt lat="37.51697" lon="15.0843783"><ele>51.0</ele><time>2026-04-24T16:07:33.548Z</time></trkpt><trkpt lat="37.5169183" lon="15.08444"><ele>51.0</ele><time>2026-04-24T16:07:36.549Z</time></trkpt><trkpt lat="37.5168883" lon="15.08451"><ele>51.0</ele><time>2026-04-24T16:07:40.549Z</time></trkpt><trkpt lat="37.5168433" lon="15.084585"><ele>51.199999999999996</ele><time>2026-04-24T16:07:43.549Z</time></trkpt><trkpt lat="37.5167917" lon="15.084635"><ele>51.4</ele><time>2026-04-24T16:07:45.549Z</time></trkpt><trkpt lat="37.5166983" lon="15.0846767"><ele>51.6</ele><time>2026-04-24T16:07:47.549Z</time></trkpt><trkpt lat="37.5165667" lon="15.0846933"><ele>51.8</ele><time>2026-04-24T16:07:49.548Z</time></trkpt><trkpt lat="37.5164833" lon="15.0847"><ele>52.0</ele><time>2026-04-24T16:07:50.549Z</time></trkpt><trkpt lat="37.5163817" lon="15.08472"><ele>52.0</ele><time>2026-04-24T16:07:51.549Z</time></trkpt><trkpt lat="37.5162783" lon="15.0847317"><ele>52.0</ele><time>2026-04-24T16:07:52.548Z</time></trkpt><trkpt lat="37.516175" lon="15.0847433"><ele>52.0</ele><time>2026-04-24T16:07:53.549Z</time></trkpt><trkpt lat="37.5160833" lon="15.0847567"><ele>52.0</ele><time>2026-04-24T16:07:54.549Z</time></trkpt><trkpt lat="37.516" lon="15.08477"><ele>52.0</ele><time>2026-04-24T16:07:55.549Z</time></trkpt><trkpt lat="37.5159167" lon="15.084785"><ele>50.83333333333333</ele><time>2026-04-24T16:07:56.549Z</time></trkpt><trkpt lat="37.51583" lon="15.084815"><ele>49.666666666666664</ele><time>2026-04-24T16:07:57.548Z</time></trkpt><trkpt lat="37.515755" lon="15.0848517"><ele>48.5</ele><time>2026-04-24T16:07:58.548Z</time></trkpt><trkpt lat="37.5156667" lon="15.0848633"><ele>47.33333333333333</ele><time>2026-04-24T16:07:59.549Z</time></trkpt><trkpt lat="37.5155683" lon="15.0848817"><ele>46.166666666666664</ele><time>2026-04-24T16:08:00.549Z</time></trkpt><trkpt lat="37.51548" lon="15.084885"><ele>45.0</ele><time>2026-04-24T16:08:01.549Z</time></trkpt><trkpt lat="37.5153967" lon="15.084895"><ele>44.833333333333336</ele><time>2026-04-24T16:08:02.549Z</time></trkpt><trkpt lat="37.5153217" lon="15.0849017"><ele>44.666666666666664</ele><time>2026-04-24T16:08:03.548Z</time></trkpt><trkpt lat="37.5152467" lon="15.08491"><ele>44.5</ele><time>2026-04-24T16:08:04.549Z</time></trkpt><trkpt lat="37.5151683" lon="15.0849167"><ele>44.33333333333333</ele><time>2026-04-24T16:08:05.548Z</time></trkpt><trkpt lat="37.5150867" lon="15.0849233"><ele>44.166666666666664</ele><time>2026-04-24T16:08:06.549Z</time></trkpt><trkpt lat="37.515005" lon="15.0849317"><ele>44.0</ele><time>2026-04-24T16:08:07.549Z</time></trkpt><trkpt lat="37.5149267" lon="15.08494"><ele>44.0</ele><time>2026-04-24T16:08:08.549Z</time></trkpt><trkpt lat="37.51485" lon="15.08495"><ele>44.0</ele><time>2026-04-24T16:08:09.549Z</time></trkpt><trkpt lat="37.5147817" lon="15.08496"><ele>44.0</ele><time>2026-04-24T16:08:10.548Z</time></trkpt><trkpt lat="37.5147183" lon="15.08497"><ele>44.0</ele><time>2026-04-24T16:08:11.549Z</time></trkpt><trkpt lat="37.5146033" lon="15.0849683"><ele>44.0</ele><time>2026-04-24T16:08:13.548Z</time></trkpt><trkpt lat="37.51448" lon="15.0849783"><ele>44.0</ele><time>2026-04-24T16:08:15.548Z</time></trkpt><trkpt lat="37.51437" lon="15.0850017"><ele>43.166666666666664</ele><time>2026-04-24T16:08:17.548Z</time></trkpt><trkpt lat="37.51429" lon="15.085015"><ele>42.33333333333333</ele><time>2026-04-24T16:08:19.549Z</time></trkpt><trkpt lat="37.5142067" lon="15.08502"><ele>41.5</ele><time>2026-04-24T16:08:21.549Z</time></trkpt><trkpt lat="37.514125" lon="15.0850383"><ele>40.666666666666664</ele><time>2026-04-24T16:08:24.549Z</time></trkpt><trkpt lat="37.5140583" lon="15.0850633"><ele>39.833333333333336</ele><time>2026-04-24T16:08:28.549Z</time></trkpt><trkpt lat="37.5139933" lon="15.0850667"><ele>39.0</ele><time>2026-04-24T16:08:30.549Z</time></trkpt><trkpt lat="37.5139217" lon="15.0850683"><ele>39.0</ele><time>2026-04-24T16:08:32.548Z</time></trkpt><trkpt lat="37.5138533" lon="15.085085"><ele>39.0</ele><time>2026-04-24T16:08:34.548Z</time></trkpt><trkpt lat="37.51378" lon="15.0850983"><ele>39.0</ele><time>2026-04-24T16:08:36.548Z</time></trkpt><trkpt lat="37.5136833" lon="15.08512"><ele>39.0</ele><time>2026-04-24T16:08:48.549Z</time></trkpt><trkpt lat="37.5136133" lon="15.085145"><ele>39.0</ele><time>2026-04-24T16:08:52.548Z</time></trkpt><trkpt lat="37.5134633" lon="15.0851983"><ele>39.4</ele><time>2026-04-24T16:09:56.548Z</time></trkpt><trkpt lat="37.513365" lon="15.0853033"><ele>39.8</ele><time>2026-04-24T16:10:07.549Z</time></trkpt><trkpt lat="37.5133683" lon="15.0853833"><ele>40.199999999999996</ele><time>2026-04-24T16:10:08.549Z</time></trkpt><trkpt lat="37.5133867" lon="15.085525"><ele>40.599999999999994</ele><time>2026-04-24T16:10:10.549Z</time></trkpt><trkpt lat="37.5133983" lon="15.08561"><ele>41.0</ele><time>2026-04-24T16:10:11.549Z</time></trkpt><trkpt lat="37.5134183" lon="15.0857117"><ele>41.0</ele><time>2026-04-24T16:10:12.549Z</time></trkpt><trkpt lat="37.5134467" lon="15.0858167"><ele>41.0</ele><time>2026-04-24T16:10:13.548Z</time></trkpt><trkpt lat="37.5134617" lon="15.08594"><ele>41.0</ele><time>2026-04-24T16:10:14.549Z</time></trkpt><trkpt lat="37.5134933" lon="15.0860617"><ele>41.0</ele><time>2026-04-24T16:10:15.548Z</time></trkpt><trkpt lat="37.5135217" lon="15.0861833"><ele>41.0</ele><time>2026-04-24T16:10:16.549Z</time></trkpt><trkpt lat="37.5135483" lon="15.08631"><ele>41.0</ele><time>2026-04-24T16:10:17.548Z</time></trkpt><trkpt lat="37.5135683" lon="15.0864267"><ele>41.0</ele><time>2026-04-24T16:10:18.548Z</time></trkpt><trkpt lat="37.5135867" lon="15.0865383"><ele>41.0</ele><time>2026-04-24T16:10:19.549Z</time></trkpt><trkpt lat="37.5136" lon="15.0866517"><ele>41.0</ele><time>2026-04-24T16:10:20.549Z</time></trkpt><trkpt lat="37.5136183" lon="15.0867617"><ele>41.0</ele><time>2026-04-24T16:10:21.548Z</time></trkpt><trkpt lat="37.5136417" lon="15.0868633"><ele>41.0</ele><time>2026-04-24T16:10:22.549Z</time></trkpt><trkpt lat="37.5136617" lon="15.0869567"><ele>41.0</ele><time>2026-04-24T16:10:23.549Z</time></trkpt><trkpt lat="37.5136733" lon="15.08704"><ele>41.0</ele><time>2026-04-24T16:10:24.548Z</time></trkpt><trkpt lat="37.5136933" lon="15.0871917"><ele>41.0</ele><time>2026-04-24T16:10:26.549Z</time></trkpt><trkpt lat="37.5137067" lon="15.08727"><ele>41.0</ele><time>2026-04-24T16:10:27.548Z</time></trkpt><trkpt lat="37.51372" lon="15.0873533"><ele>41.0</ele><time>2026-04-24T16:10:28.549Z</time></trkpt><trkpt lat="37.513735" lon="15.08744"><ele>41.0</ele><time>2026-04-24T16:10:29.549Z</time></trkpt><trkpt lat="37.51375" lon="15.087525"><ele>41.0</ele><time>2026-04-24T16:10:30.548Z</time></trkpt><trkpt lat="37.513765" lon="15.0876167"><ele>41.0</ele><time>2026-04-24T16:10:31.549Z</time></trkpt><trkpt lat="37.513785" lon="15.08772"><ele>41.0</ele><time>2026-04-24T16:10:32.548Z</time></trkpt><trkpt lat="37.5137967" lon="15.087815"><ele>41.0</ele><time>2026-04-24T16:10:33.548Z</time></trkpt><trkpt lat="37.513815" lon="15.0879233"><ele>41.0</ele><time>2026-04-24T16:10:34.549Z</time></trkpt><trkpt lat="37.5138267" lon="15.08803"><ele>41.0</ele><time>2026-04-24T16:10:35.549Z</time></trkpt><trkpt lat="37.5138383" lon="15.08813"><ele>41.0</ele><time>2026-04-24T16:10:36.548Z</time></trkpt><trkpt lat="37.51385" lon="15.08822"><ele>41.0</ele><time>2026-04-24T16:10:37.548Z</time></trkpt><trkpt lat="37.5138583" lon="15.0883017"><ele>41.0</ele><time>2026-04-24T16:10:38.549Z</time></trkpt><trkpt lat="37.5138717" lon="15.0883933"><ele>41.0</ele><time>2026-04-24T16:10:39.549Z</time></trkpt><trkpt lat="37.513885" lon="15.088485"><ele>41.0</ele><time>2026-04-24T16:10:40.548Z</time></trkpt><trkpt lat="37.5139" lon="15.0885633"><ele>41.0</ele><time>2026-04-24T16:10:41.548Z</time></trkpt><trkpt lat="37.51392" lon="15.0887083"><ele>40.8</ele><time>2026-04-24T16:10:43.549Z</time></trkpt><trkpt lat="37.513915" lon="15.088825"><ele>40.599999999999994</ele><time>2026-04-24T16:10:45.548Z</time></trkpt><trkpt lat="37.5139283" lon="15.0889067"><ele>40.4</ele><time>2026-04-24T16:10:47.549Z</time></trkpt><trkpt lat="37.5139767" lon="15.0890583"><ele>40.2</ele><time>2026-04-24T16:11:18.549Z</time></trkpt><trkpt lat="37.5139383" lon="15.089165"><ele>40.0</ele><time>2026-04-24T16:11:21.548Z</time></trkpt><trkpt lat="37.5138533" lon="15.0891967"><ele>39.4</ele><time>2026-04-24T16:11:23.548Z</time></trkpt><trkpt lat="37.5137233" lon="15.0891983"><ele>38.8</ele><time>2026-04-24T16:11:25.549Z</time></trkpt><trkpt lat="37.5136417" lon="15.0892133"><ele>38.2</ele><time>2026-04-24T16:11:26.548Z</time></trkpt><trkpt lat="37.5135717" lon="15.08922"><ele>37.6</ele><time>2026-04-24T16:11:27.548Z</time></trkpt><trkpt lat="37.5134667" lon="15.0892217"><ele>37.0</ele><time>2026-04-24T16:11:29.549Z</time></trkpt><trkpt lat="37.5133767" lon="15.089245"><ele>37.0</ele><time>2026-04-24T16:11:31.549Z</time></trkpt><trkpt lat="37.5133133" lon="15.0892517"><ele>37.0</ele><time>2026-04-24T16:11:32.549Z</time></trkpt><trkpt lat="37.51325" lon="15.08925"><ele>37.0</ele><time>2026-04-24T16:11:33.549Z</time></trkpt><trkpt lat="37.51318" lon="15.0892583"><ele>37.0</ele><time>2026-04-24T16:11:34.549Z</time></trkpt><trkpt lat="37.5131" lon="15.0892817"><ele>37.0</ele><time>2026-04-24T16:11:35.548Z</time></trkpt><trkpt lat="37.51303" lon="15.0893033"><ele>37.0</ele><time>2026-04-24T16:11:36.548Z</time></trkpt><trkpt lat="37.5129217" lon="15.0893167"><ele>37.0</ele><time>2026-04-24T16:11:38.548Z</time></trkpt><trkpt lat="37.51284" lon="15.08932"><ele>37.0</ele><time>2026-04-24T16:11:40.548Z</time></trkpt><trkpt lat="37.5128067" lon="15.0894167"><ele>37.0</ele><time>2026-04-24T16:11:43.549Z</time></trkpt><trkpt lat="37.5128233" lon="15.0894967"><ele>37.0</ele><time>2026-04-24T16:11:44.548Z</time></trkpt><trkpt lat="37.512845" lon="15.0895783"><ele>37.0</ele><time>2026-04-24T16:11:45.549Z</time></trkpt><trkpt lat="37.5128567" lon="15.08966"><ele>37.0</ele><time>2026-04-24T16:11:46.549Z</time></trkpt><trkpt lat="37.5128817" lon="15.0897467"><ele>37.0</ele><time>2026-04-24T16:11:47.548Z</time></trkpt><trkpt lat="37.5128983" lon="15.0898433"><ele>36.833333333333336</ele><time>2026-04-24T16:11:48.549Z</time></trkpt><trkpt lat="37.5129233" lon="15.08994"><ele>36.66666666666667</ele><time>2026-04-24T16:11:49.549Z</time></trkpt><trkpt lat="37.5129383" lon="15.0900217"><ele>36.5</ele><time>2026-04-24T16:11:50.548Z</time></trkpt><trkpt lat="37.512955" lon="15.0901417"><ele>36.333333333333336</ele><time>2026-04-24T16:11:52.548Z</time></trkpt><trkpt lat="37.5129667" lon="15.0902283"><ele>36.166666666666664</ele><time>2026-04-24T16:11:54.549Z</time></trkpt><trkpt lat="37.5130417" lon="15.0902633"><ele>36.0</ele><time>2026-04-24T16:11:59.549Z</time></trkpt><trkpt lat="37.5131183" lon="15.090245"><ele>36.0</ele><time>2026-04-24T16:12:01.549Z</time></trkpt><trkpt lat="37.513205" lon="15.090225"><ele>36.0</ele><time>2026-04-24T16:12:03.549Z</time></trkpt><trkpt lat="37.5133" lon="15.09021"><ele>36.0</ele><time>2026-04-24T16:12:05.549Z</time></trkpt><trkpt lat="37.5133733" lon="15.090185"><ele>36.0</ele><time>2026-04-24T16:12:07.549Z</time></trkpt><trkpt lat="37.5134367" lon="15.0901517"><ele>36.0</ele><time>2026-04-24T16:12:10.548Z</time></trkpt><trkpt lat="37.51353" lon="15.0901333"><ele>36.0</ele><time>2026-04-24T16:13:22.548Z</time></trkpt><trkpt lat="37.5133783" lon="15.090085"><ele>36.0</ele><time>2026-04-24T16:22:14.549Z</time></trkpt><trkpt lat="37.5134667" lon="15.09012"><ele>36.0</ele><time>2026-04-24T16:22:16.548Z</time></trkpt><trkpt lat="37.513465" lon="15.09026"><ele>36.0</ele><time>2026-04-24T16:24:27.548Z</time></trkpt><trkpt lat="37.5133883" lon="15.0901633"><ele>36.0</ele><time>2026-04-24T16:24:34.549Z</time></trkpt><trkpt lat="37.513505" lon="15.0901783"><ele>36.0</ele><time>2026-04-24T16:25:17.549Z</time></trkpt><trkpt lat="37.5134967" lon="15.0900517"><ele>36.2</ele><time>2026-04-24T16:25:33.548Z</time></trkpt><trkpt lat="37.5134883" lon="15.0899183"><ele>36.400000000000006</ele><time>2026-04-24T16:25:35.549Z</time></trkpt><trkpt lat="37.51346" lon="15.0897833"><ele>36.6</ele><time>2026-04-24T16:25:37.549Z</time></trkpt><trkpt lat="37.51344" lon="15.0896517"><ele>36.800000000000004</ele><time>2026-04-24T16:25:39.549Z</time></trkpt><trkpt lat="37.5134083" lon="15.0895333"><ele>37.0</ele><time>2026-04-24T16:25:41.548Z</time></trkpt><trkpt lat="37.513365" lon="15.0894117"><ele>37.0</ele><time>2026-04-24T16:25:43.549Z</time></trkpt><trkpt lat="37.5133517" lon="15.0893267"><ele>37.0</ele><time>2026-04-24T16:25:45.549Z</time></trkpt><trkpt lat="37.5133" lon="15.08925"><ele>37.0</ele><time>2026-04-24T16:25:53.549Z</time></trkpt><trkpt lat="37.513215" lon="15.0892583"><ele>37.0</ele><time>2026-04-24T16:25:55.549Z</time></trkpt><trkpt lat="37.513095" lon="15.0892883"><ele>37.0</ele><time>2026-04-24T16:25:57.549Z</time></trkpt><trkpt lat="37.5129817" lon="15.0892817"><ele>37.0</ele><time>2026-04-24T16:25:59.549Z</time></trkpt><trkpt lat="37.5128883" lon="15.0892917"><ele>37.0</ele><time>2026-04-24T16:26:01.549Z</time></trkpt><trkpt lat="37.512835" lon="15.0893517"><ele>37.0</ele><time>2026-04-24T16:26:05.549Z</time></trkpt><trkpt lat="37.51285" lon="15.089455"><ele>37.0</ele><time>2026-04-24T16:26:08.549Z</time></trkpt><trkpt lat="37.5128683" lon="15.0895517"><ele>37.0</ele><time>2026-04-24T16:26:10.549Z</time></trkpt><trkpt lat="37.5128933" lon="15.0896583"><ele>37.0</ele><time>2026-04-24T16:26:13.548Z</time></trkpt><trkpt lat="37.5129133" lon="15.0897833"><ele>36.800000000000004</ele><time>2026-04-24T16:26:15.548Z</time></trkpt><trkpt lat="37.5129517" lon="15.0899383"><ele>36.6</ele><time>2026-04-24T16:26:17.549Z</time></trkpt><trkpt lat="37.5129667" lon="15.090025"><ele>36.400000000000006</ele><time>2026-04-24T16:26:18.548Z</time></trkpt><trkpt lat="37.5129667" lon="15.0901467"><ele>36.2</ele><time>2026-04-24T16:26:20.548Z</time></trkpt><trkpt lat="37.5129833" lon="15.090225"><ele>36.0</ele><time>2026-04-24T16:26:26.549Z</time></trkpt><trkpt lat="37.513075" lon="15.09027"><ele>36.0</ele><time>2026-04-24T16:26:29.549Z</time></trkpt><trkpt lat="37.5131633" lon="15.0902717"><ele>36.0</ele><time>2026-04-24T16:26:31.548Z</time></trkpt><trkpt lat="37.5132433" lon="15.0902667"><ele>36.0</ele><time>2026-04-24T16:26:33.549Z</time></trkpt><trkpt lat="37.5133317" lon="15.09025"><ele>36.0</ele><time>2026-04-24T16:26:35.548Z</time></trkpt><trkpt lat="37.5134083" lon="15.0902333"><ele>36.0</ele><time>2026-04-24T16:26:37.549Z</time></trkpt><trkpt lat="37.5135033" lon="15.0901967"><ele>36.0</ele><time>2026-04-24T16:26:40.548Z</time></trkpt><trkpt lat="37.5136083" lon="15.09018"><ele>36.0</ele><time>2026-04-24T16:26:43.548Z</time></trkpt><trkpt lat="37.5136883" lon="15.0901717"><ele>36.0</ele><time>2026-04-24T16:26:45.549Z</time></trkpt><trkpt lat="37.5137633" lon="15.0901683"><ele>36.0</ele><time>2026-04-24T16:26:47.548Z</time></trkpt><trkpt lat="37.513845" lon="15.090155"><ele>36.0</ele><time>2026-04-24T16:26:49.548Z</time></trkpt><trkpt lat="37.513925" lon="15.09013"><ele>36.0</ele><time>2026-04-24T16:26:51.548Z</time></trkpt><trkpt lat="37.5140117" lon="15.0901117"><ele>36.0</ele><time>2026-04-24T16:27:28.548Z</time></trkpt><trkpt lat="37.514115" lon="15.09012"><ele>36.333333333333336</ele><time>2026-04-24T16:27:33.548Z</time></trkpt><trkpt lat="37.51416" lon="15.0901967"><ele>36.666666666666664</ele><time>2026-04-24T16:27:35.549Z</time></trkpt><trkpt lat="37.5142133" lon="15.0903283"><ele>37.0</ele><time>2026-04-24T16:27:37.549Z</time></trkpt><trkpt lat="37.5142367" lon="15.0904217"><ele>37.33333333333333</ele><time>2026-04-24T16:27:38.549Z</time></trkpt><trkpt lat="37.5142533" lon="15.0905283"><ele>37.666666666666664</ele><time>2026-04-24T16:27:39.549Z</time></trkpt><trkpt lat="37.51427" lon="15.0906383"><ele>38.0</ele><time>2026-04-24T16:27:40.549Z</time></trkpt><trkpt lat="37.5142867" lon="15.0907467"><ele>38.599999999999994</ele><time>2026-04-24T16:27:41.548Z</time></trkpt><trkpt lat="37.5143017" lon="15.09085"><ele>39.199999999999996</ele><time>2026-04-24T16:27:42.548Z</time></trkpt><trkpt lat="37.5143233" lon="15.09097"><ele>39.8</ele><time>2026-04-24T16:27:43.548Z</time></trkpt><trkpt lat="37.5143467" lon="15.0911033"><ele>40.4</ele><time>2026-04-24T16:27:44.549Z</time></trkpt><trkpt lat="37.51437" lon="15.0912483"><ele>41.0</ele><time>2026-04-24T16:27:45.549Z</time></trkpt><trkpt lat="37.5143933" lon="15.0914"><ele>41.0</ele><time>2026-04-24T16:27:46.549Z</time></trkpt><trkpt lat="37.5144117" lon="15.091545"><ele>41.0</ele><time>2026-04-24T16:27:47.549Z</time></trkpt><trkpt lat="37.514435" lon="15.091685"><ele>41.0</ele><time>2026-04-24T16:27:48.548Z</time></trkpt><trkpt lat="37.5144433" lon="15.091815"><ele>41.0</ele><time>2026-04-24T16:27:49.548Z</time></trkpt><trkpt lat="37.5144583" lon="15.0919433"><ele>41.0</ele><time>2026-04-24T16:27:50.549Z</time></trkpt><trkpt lat="37.5144767" lon="15.092075"><ele>40.0</ele><time>2026-04-24T16:27:51.549Z</time></trkpt><trkpt lat="37.5145017" lon="15.0922133"><ele>39.0</ele><time>2026-04-24T16:27:52.548Z</time></trkpt><trkpt lat="37.5145217" lon="15.09235"><ele>38.0</ele><time>2026-04-24T16:27:53.549Z</time></trkpt><trkpt lat="37.5145417" lon="15.09248"><ele>37.0</ele><time>2026-04-24T16:27:54.548Z</time></trkpt><trkpt lat="37.51456" lon="15.0926"><ele>36.0</ele><time>2026-04-24T16:27:55.549Z</time></trkpt><trkpt lat="37.5145817" lon="15.0927167"><ele>35.5</ele><time>2026-04-24T16:27:56.549Z</time></trkpt><trkpt lat="37.5146083" lon="15.0928267"><ele>35.0</ele><time>2026-04-24T16:27:57.548Z</time></trkpt><trkpt lat="37.51463" lon="15.0929367"><ele>34.5</ele><time>2026-04-24T16:27:58.548Z</time></trkpt><trkpt lat="37.514655" lon="15.0930417"><ele>34.0</ele><time>2026-04-24T16:27:59.549Z</time></trkpt><trkpt lat="37.51467" lon="15.0931517"><ele>33.5</ele><time>2026-04-24T16:28:00.548Z</time></trkpt><trkpt lat="37.5146867" lon="15.093255"><ele>33.0</ele><time>2026-04-24T16:28:01.549Z</time></trkpt><trkpt lat="37.5147067" lon="15.0933617"><ele>33.0</ele><time>2026-04-24T16:28:02.549Z</time></trkpt><trkpt lat="37.5147217" lon="15.0934617"><ele>33.0</ele><time>2026-04-24T16:28:03.548Z</time></trkpt><trkpt lat="37.514735" lon="15.0935417"><ele>33.0</ele><time>2026-04-24T16:28:04.548Z</time></trkpt><trkpt lat="37.5147717" lon="15.093675"><ele>33.0</ele><time>2026-04-24T16:28:06.548Z</time></trkpt><trkpt lat="37.5148117" lon="15.0938417"><ele>33.0</ele><time>2026-04-24T16:28:08.548Z</time></trkpt><trkpt lat="37.5148233" lon="15.0939467"><ele>33.0</ele><time>2026-04-24T16:28:09.549Z</time></trkpt><trkpt lat="37.5148333" lon="15.0940517"><ele>33.0</ele><time>2026-04-24T16:28:10.549Z</time></trkpt><trkpt lat="37.5148433" lon="15.0941517"><ele>33.0</ele><time>2026-04-24T16:28:11.549Z</time></trkpt><trkpt lat="37.5148567" lon="15.0942417"><ele>33.0</ele><time>2026-04-24T16:28:12.548Z</time></trkpt><trkpt lat="37.5148733" lon="15.0943267"><ele>33.0</ele><time>2026-04-24T16:28:13.549Z</time></trkpt><trkpt lat="37.5148867" lon="15.0944233"><ele>33.0</ele><time>2026-04-24T16:28:14.549Z</time></trkpt><trkpt lat="37.5149017" lon="15.0945267"><ele>33.4</ele><time>2026-04-24T16:28:15.549Z</time></trkpt><trkpt lat="37.5149217" lon="15.0946367"><ele>33.8</ele><time>2026-04-24T16:28:16.549Z</time></trkpt><trkpt lat="37.514945" lon="15.09477"><ele>34.2</ele><time>2026-04-24T16:28:17.548Z</time></trkpt><trkpt lat="37.5149767" lon="15.0949033"><ele>34.6</ele><time>2026-04-24T16:28:18.548Z</time></trkpt><trkpt lat="37.5150083" lon="15.095045"><ele>35.0</ele><time>2026-04-24T16:28:19.548Z</time></trkpt><trkpt lat="37.5150383" lon="15.095195"><ele>35.5</ele><time>2026-04-24T16:28:20.549Z</time></trkpt><trkpt lat="37.5150617" lon="15.0953483"><ele>36.0</ele><time>2026-04-24T16:28:21.548Z</time></trkpt><trkpt lat="37.5150783" lon="15.0955017"><ele>36.5</ele><time>2026-04-24T16:28:22.548Z</time></trkpt><trkpt lat="37.515095" lon="15.0956433"><ele>37.0</ele><time>2026-04-24T16:28:23.549Z</time></trkpt><trkpt lat="37.5151133" lon="15.0957717"><ele>37.66666666666667</ele><time>2026-04-24T16:28:24.549Z</time></trkpt><trkpt lat="37.51513" lon="15.0958883"><ele>38.333333333333336</ele><time>2026-04-24T16:28:25.549Z</time></trkpt><trkpt lat="37.5151417" lon="15.0959983"><ele>39.0</ele><time>2026-04-24T16:28:26.548Z</time></trkpt><trkpt lat="37.515155" lon="15.0960917"><ele>39.666666666666664</ele><time>2026-04-24T16:28:27.549Z</time></trkpt><trkpt lat="37.5151667" lon="15.0961733"><ele>40.33333333333333</ele><time>2026-04-24T16:28:28.548Z</time></trkpt><trkpt lat="37.5151983" lon="15.0963183"><ele>41.0</ele><time>2026-04-24T16:28:30.549Z</time></trkpt><trkpt lat="37.515235" lon="15.096475"><ele>41.0</ele><time>2026-04-24T16:28:32.549Z</time></trkpt><trkpt lat="37.5152483" lon="15.0965667"><ele>41.0</ele><time>2026-04-24T16:28:33.548Z</time></trkpt><trkpt lat="37.5152583" lon="15.0966583"><ele>41.0</ele><time>2026-04-24T16:28:34.548Z</time></trkpt><trkpt lat="37.51527" lon="15.0967467"><ele>41.0</ele><time>2026-04-24T16:28:35.548Z</time></trkpt><trkpt lat="37.51528" lon="15.0968367"><ele>41.0</ele><time>2026-04-24T16:28:36.548Z</time></trkpt><trkpt lat="37.5152933" lon="15.0969217"><ele>41.0</ele><time>2026-04-24T16:28:37.548Z</time></trkpt><trkpt lat="37.51532" lon="15.097045"><ele>41.4</ele><time>2026-04-24T16:28:39.548Z</time></trkpt><trkpt lat="37.5153367" lon="15.0971483"><ele>41.8</ele><time>2026-04-24T16:28:42.549Z</time></trkpt><trkpt lat="37.5153217" lon="15.0972683"><ele>42.199999999999996</ele><time>2026-04-24T16:28:57.549Z</time></trkpt><trkpt lat="37.5153283" lon="15.097395"><ele>42.599999999999994</ele><time>2026-04-24T16:29:05.548Z</time></trkpt><trkpt lat="37.5153633" lon="15.0975083"><ele>43.0</ele><time>2026-04-24T16:29:07.548Z</time></trkpt><trkpt lat="37.5153917" lon="15.0975983"><ele>42.199999999999996</ele><time>2026-04-24T16:29:08.548Z</time></trkpt><trkpt lat="37.5154083" lon="15.0977133"><ele>41.4</ele><time>2026-04-24T16:29:09.548Z</time></trkpt><trkpt lat="37.5154267" lon="15.0978233"><ele>40.599999999999994</ele><time>2026-04-24T16:29:10.548Z</time></trkpt><trkpt lat="37.515445" lon="15.09794"><ele>39.8</ele><time>2026-04-24T16:29:11.549Z</time></trkpt><trkpt lat="37.5154617" lon="15.0980567"><ele>39.0</ele><time>2026-04-24T16:29:12.549Z</time></trkpt><trkpt lat="37.5154767" lon="15.098175"><ele>38.666666666666664</ele><time>2026-04-24T16:29:13.549Z</time></trkpt><trkpt lat="37.5154983" lon="15.0982717"><ele>38.333333333333336</ele><time>2026-04-24T16:29:14.548Z</time></trkpt><trkpt lat="37.5155133" lon="15.0983617"><ele>38.0</ele><time>2026-04-24T16:29:15.548Z</time></trkpt><trkpt lat="37.51553" lon="15.098445"><ele>37.66666666666667</ele><time>2026-04-24T16:29:16.549Z</time></trkpt><trkpt lat="37.5155567" lon="15.0985783"><ele>37.333333333333336</ele><time>2026-04-24T16:29:18.549Z</time></trkpt><trkpt lat="37.51557" lon="15.0986833"><ele>37.0</ele><time>2026-04-24T16:29:20.549Z</time></trkpt><trkpt lat="37.51558" lon="15.098835"><ele>37.0</ele><time>2026-04-24T16:29:22.548Z</time></trkpt><trkpt lat="37.5155933" lon="15.09892"><ele>37.0</ele><time>2026-04-24T16:29:23.549Z</time></trkpt><trkpt lat="37.5156133" lon="15.0990117"><ele>37.0</ele><time>2026-04-24T16:29:24.549Z</time></trkpt><trkpt lat="37.515635" lon="15.0991167"><ele>37.0</ele><time>2026-04-24T16:29:25.548Z</time></trkpt><trkpt lat="37.5156583" lon="15.0992233"><ele>37.0</ele><time>2026-04-24T16:29:26.548Z</time></trkpt><trkpt lat="37.5156817" lon="15.09933"><ele>37.0</ele><time>2026-04-24T16:29:27.549Z</time></trkpt><trkpt lat="37.515705" lon="15.0994467"><ele>36.66666666666667</ele><time>2026-04-24T16:29:28.548Z</time></trkpt><trkpt lat="37.5157267" lon="15.099565"><ele>36.333333333333336</ele><time>2026-04-24T16:29:29.549Z</time></trkpt><trkpt lat="37.515745" lon="15.0996817"><ele>36.0</ele><time>2026-04-24T16:29:30.549Z</time></trkpt><trkpt lat="37.5157617" lon="15.099785"><ele>35.666666666666664</ele><time>2026-04-24T16:29:31.549Z</time></trkpt><trkpt lat="37.5157817" lon="15.09988"><ele>35.33333333333333</ele><time>2026-04-24T16:29:32.548Z</time></trkpt><trkpt lat="37.5157933" lon="15.0999583"><ele>35.0</ele><time>2026-04-24T16:29:33.549Z</time></trkpt><trkpt lat="37.515805" lon="15.10004"><ele>34.33333333333333</ele><time>2026-04-24T16:29:34.548Z</time></trkpt><trkpt lat="37.51582" lon="15.1001217"><ele>33.666666666666664</ele><time>2026-04-24T16:29:35.548Z</time></trkpt><trkpt lat="37.5158317" lon="15.1002067"><ele>33.0</ele><time>2026-04-24T16:29:36.548Z</time></trkpt><trkpt lat="37.51585" lon="15.100335"><ele>32.333333333333336</ele><time>2026-04-24T16:29:38.548Z</time></trkpt><trkpt lat="37.5158733" lon="15.1004333"><ele>31.666666666666668</ele><time>2026-04-24T16:29:41.549Z</time></trkpt><trkpt lat="37.5159133" lon="15.100565"><ele>31.0</ele><time>2026-04-24T16:29:43.549Z</time></trkpt><trkpt lat="37.51594" lon="15.1006467"><ele>31.200000000000003</ele><time>2026-04-24T16:29:44.549Z</time></trkpt><trkpt lat="37.51596" lon="15.100765"><ele>31.400000000000002</ele><time>2026-04-24T16:29:45.548Z</time></trkpt><trkpt lat="37.5159767" lon="15.1008917"><ele>31.6</ele><time>2026-04-24T16:29:46.548Z</time></trkpt><trkpt lat="37.51599" lon="15.1010083"><ele>31.8</ele><time>2026-04-24T16:29:47.549Z</time></trkpt><trkpt lat="37.5160033" lon="15.1011167"><ele>32.0</ele><time>2026-04-24T16:29:48.549Z</time></trkpt><trkpt lat="37.5160183" lon="15.1012167"><ele>31.999999999999996</ele><time>2026-04-24T16:29:49.549Z</time></trkpt><trkpt lat="37.51603" lon="15.1013017"><ele>32.0</ele><time>2026-04-24T16:29:50.549Z</time></trkpt><trkpt lat="37.5160567" lon="15.101445"><ele>32.0</ele><time>2026-04-24T16:29:52.548Z</time></trkpt><trkpt lat="37.516075" lon="15.1015317"><ele>32.0</ele><time>2026-04-24T16:29:53.549Z</time></trkpt><trkpt lat="37.5160917" lon="15.1016217"><ele>31.999999999999996</ele><time>2026-04-24T16:29:54.549Z</time></trkpt><trkpt lat="37.5161083" lon="15.1017083"><ele>32.0</ele><time>2026-04-24T16:29:55.548Z</time></trkpt><trkpt lat="37.5161317" lon="15.1018433"><ele>32.4</ele><time>2026-04-24T16:29:57.549Z</time></trkpt><trkpt lat="37.5161467" lon="15.1019517"><ele>32.800000000000004</ele><time>2026-04-24T16:29:59.548Z</time></trkpt><trkpt lat="37.5161467" lon="15.1020467"><ele>33.2</ele><time>2026-04-24T16:30:01.549Z</time></trkpt><trkpt lat="37.5161567" lon="15.1021517"><ele>33.6</ele><time>2026-04-24T16:30:03.549Z</time></trkpt><trkpt lat="37.5161583" lon="15.1023133"><ele>34.0</ele><time>2026-04-24T16:30:05.548Z</time></trkpt><trkpt lat="37.5161717" lon="15.1024083"><ele>33.16666666666667</ele><time>2026-04-24T16:30:06.549Z</time></trkpt><trkpt lat="37.5161833" lon="15.1025067"><ele>32.333333333333336</ele><time>2026-04-24T16:30:07.549Z</time></trkpt><trkpt lat="37.5162017" lon="15.102605"><ele>31.5</ele><time>2026-04-24T16:30:08.548Z</time></trkpt><trkpt lat="37.516215" lon="15.10271"><ele>30.666666666666664</ele><time>2026-04-24T16:30:09.549Z</time></trkpt><trkpt lat="37.5162333" lon="15.1028183"><ele>29.833333333333332</ele><time>2026-04-24T16:30:10.549Z</time></trkpt><trkpt lat="37.516255" lon="15.1029283"><ele>29.0</ele><time>2026-04-24T16:30:11.549Z</time></trkpt><trkpt lat="37.5162767" lon="15.1030417"><ele>28.799999999999997</ele><time>2026-04-24T16:30:12.548Z</time></trkpt><trkpt lat="37.5162967" lon="15.1031567"><ele>28.599999999999998</ele><time>2026-04-24T16:30:13.548Z</time></trkpt><trkpt lat="37.5163167" lon="15.1032667"><ele>28.4</ele><time>2026-04-24T16:30:14.549Z</time></trkpt><trkpt lat="37.5163333" lon="15.1033867"><ele>28.2</ele><time>2026-04-24T16:30:15.549Z</time></trkpt><trkpt lat="37.5163533" lon="15.1035067"><ele>28.0</ele><time>2026-04-24T16:30:16.549Z</time></trkpt><trkpt lat="37.516375" lon="15.1036233"><ele>28.0</ele><time>2026-04-24T16:30:17.549Z</time></trkpt><trkpt lat="37.5163883" lon="15.10373"><ele>27.999999999999996</ele><time>2026-04-24T16:30:18.548Z</time></trkpt><trkpt lat="37.516405" lon="15.1038317"><ele>27.999999999999996</ele><time>2026-04-24T16:30:19.549Z</time></trkpt><trkpt lat="37.5164183" lon="15.1039183"><ele>28.0</ele><time>2026-04-24T16:30:20.549Z</time></trkpt><trkpt lat="37.51645" lon="15.10406"><ele>28.0</ele><time>2026-04-24T16:30:22.548Z</time></trkpt><trkpt lat="37.51649" lon="15.104175"><ele>28.666666666666668</ele><time>2026-04-24T16:30:24.548Z</time></trkpt><trkpt lat="37.5165117" lon="15.1042633"><ele>29.333333333333336</ele><time>2026-04-24T16:30:27.549Z</time></trkpt><trkpt lat="37.5165283" lon="15.1043867"><ele>30.0</ele><time>2026-04-24T16:30:36.548Z</time></trkpt><trkpt lat="37.5165283" lon="15.10449"><ele>30.666666666666664</ele><time>2026-04-24T16:30:38.549Z</time></trkpt><trkpt lat="37.5165383" lon="15.1046283"><ele>31.333333333333332</ele><time>2026-04-24T16:30:40.549Z</time></trkpt><trkpt lat="37.5165483" lon="15.1047117"><ele>32.0</ele><time>2026-04-24T16:30:41.548Z</time></trkpt><trkpt lat="37.5165533" lon="15.1047983"><ele>31.200000000000003</ele><time>2026-04-24T16:30:42.549Z</time></trkpt><trkpt lat="37.5165683" lon="15.10493"><ele>30.400000000000002</ele><time>2026-04-24T16:30:44.549Z</time></trkpt><trkpt lat="37.5165933" lon="15.1050167"><ele>29.599999999999998</ele><time>2026-04-24T16:30:46.548Z</time></trkpt><trkpt lat="37.51656" lon="15.1051867"><ele>28.799999999999997</ele><time>2026-04-24T16:31:00.548Z</time></trkpt><trkpt lat="37.5165167" lon="15.1052483"><ele>28.0</ele><time>2026-04-24T16:31:02.548Z</time></trkpt><trkpt lat="37.5164367" lon="15.1053067"><ele>28.0</ele><time>2026-04-24T16:31:04.548Z</time></trkpt><trkpt lat="37.516355" lon="15.1054033"><ele>27.999999999999996</ele><time>2026-04-24T16:31:06.549Z</time></trkpt><trkpt lat="37.5163417" lon="15.1055033"><ele>27.999999999999996</ele><time>2026-04-24T16:31:08.548Z</time></trkpt><trkpt lat="37.5164233" lon="15.1056017"><ele>28.0</ele><time>2026-04-24T16:31:10.549Z</time></trkpt><trkpt lat="37.51648" lon="15.1056467"><ele>28.0</ele><time>2026-04-24T16:31:11.548Z</time></trkpt><trkpt lat="37.5165717" lon="15.105725"><ele>26.2</ele><time>2026-04-24T16:31:13.549Z</time></trkpt><trkpt lat="37.5166283" lon="15.1058033"><ele>24.4</ele><time>2026-04-24T16:31:15.548Z</time></trkpt><trkpt lat="37.5166733" lon="15.1059167"><ele>22.599999999999998</ele><time>2026-04-24T16:31:17.549Z</time></trkpt><trkpt lat="37.5166933" lon="15.1060567"><ele>20.799999999999997</ele><time>2026-04-24T16:31:19.549Z</time></trkpt><trkpt lat="37.5167183" lon="15.1062067"><ele>19.0</ele><time>2026-04-24T16:31:21.549Z</time></trkpt><trkpt lat="37.5167333" lon="15.10629"><ele>19.0</ele><time>2026-04-24T16:31:22.548Z</time></trkpt><trkpt lat="37.51675" lon="15.1063833"><ele>19.0</ele><time>2026-04-24T16:31:23.549Z</time></trkpt><trkpt lat="37.5167683" lon="15.1064667"><ele>19.0</ele><time>2026-04-24T16:31:24.548Z</time></trkpt><trkpt lat="37.5167867" lon="15.1066117"><ele>19.0</ele><time>2026-04-24T16:31:26.549Z</time></trkpt><trkpt lat="37.5168017" lon="15.10672"><ele>19.0</ele><time>2026-04-24T16:31:28.549Z</time></trkpt><trkpt lat="37.5168267" lon="15.1068267"><ele>19.0</ele><time>2026-04-24T16:31:30.548Z</time></trkpt><trkpt lat="37.5168483" lon="15.1069267"><ele>18.833333333333332</ele><time>2026-04-24T16:31:32.548Z</time></trkpt><trkpt lat="37.516875" lon="15.1070083"><ele>18.666666666666664</ele><time>2026-04-24T16:31:34.548Z</time></trkpt><trkpt lat="37.516915" lon="15.1070783"><ele>18.5</ele><time>2026-04-24T16:31:36.549Z</time></trkpt><trkpt lat="37.5169667" lon="15.107125"><ele>18.333333333333332</ele><time>2026-04-24T16:31:38.548Z</time></trkpt><trkpt lat="37.5170467" lon="15.10714"><ele>18.166666666666668</ele><time>2026-04-24T16:31:40.549Z</time></trkpt><trkpt lat="37.5171683" lon="15.1071517"><ele>18.0</ele><time>2026-04-24T16:31:42.548Z</time></trkpt><trkpt lat="37.5172333" lon="15.1071517"><ele>18.0</ele><time>2026-04-24T16:31:43.548Z</time></trkpt><trkpt lat="37.51733" lon="15.1071283"><ele>18.0</ele><time>2026-04-24T16:31:45.549Z</time></trkpt><trkpt lat="37.517405" lon="15.1071117"><ele>18.0</ele><time>2026-04-24T16:31:47.549Z</time></trkpt><trkpt lat="37.5174867" lon="15.1070983"><ele>18.0</ele><time>2026-04-24T16:31:49.549Z</time></trkpt><trkpt lat="37.5175667" lon="15.1070817"><ele>18.0</ele><time>2026-04-24T16:31:51.548Z</time></trkpt><trkpt lat="37.5176633" lon="15.107055"><ele>18.0</ele><time>2026-04-24T16:31:53.548Z</time></trkpt><trkpt lat="37.51778" lon="15.1070167"><ele>18.0</ele><time>2026-04-24T16:31:55.549Z</time></trkpt><trkpt lat="37.517845" lon="15.1069967"><ele>18.0</ele><time>2026-04-24T16:31:56.548Z</time></trkpt><trkpt lat="37.5179133" lon="15.1069783"><ele>18.0</ele><time>2026-04-24T16:31:57.549Z</time></trkpt><trkpt lat="37.5179833" lon="15.106955"><ele>18.0</ele><time>2026-04-24T16:31:58.548Z</time></trkpt><trkpt lat="37.5180633" lon="15.10693"><ele>18.0</ele><time>2026-04-24T16:31:59.549Z</time></trkpt><trkpt lat="37.5181483" lon="15.1069117"><ele>18.0</ele><time>2026-04-24T16:32:00.548Z</time></trkpt><trkpt lat="37.5182333" lon="15.1068933"><ele>18.333333333333332</ele><time>2026-04-24T16:32:01.548Z</time></trkpt><trkpt lat="37.5183233" lon="15.1068867"><ele>18.666666666666668</ele><time>2026-04-24T16:32:02.548Z</time></trkpt><trkpt lat="37.5184117" lon="15.1068867"><ele>19.0</ele><time>2026-04-24T16:32:03.549Z</time></trkpt><trkpt lat="37.5185" lon="15.1068833"><ele>19.333333333333336</ele><time>2026-04-24T16:32:04.549Z</time></trkpt><trkpt lat="37.5185817" lon="15.1068917"><ele>19.666666666666668</ele><time>2026-04-24T16:32:05.549Z</time></trkpt><trkpt lat="37.5186633" lon="15.106915"><ele>20.0</ele><time>2026-04-24T16:32:06.549Z</time></trkpt><trkpt lat="37.51873" lon="15.1069367"><ele>21.8</ele><time>2026-04-24T16:32:07.549Z</time></trkpt><trkpt lat="37.518795" lon="15.1069667"><ele>23.6</ele><time>2026-04-24T16:32:08.548Z</time></trkpt><trkpt lat="37.518905" lon="15.107015"><ele>25.4</ele><time>2026-04-24T16:32:10.548Z</time></trkpt><trkpt lat="37.519015" lon="15.1070733"><ele>27.2</ele><time>2026-04-24T16:32:12.548Z</time></trkpt><trkpt lat="37.5191217" lon="15.107155"><ele>29.0</ele><time>2026-04-24T16:32:14.548Z</time></trkpt><trkpt lat="37.519235" lon="15.1072433"><ele>28.999999999999996</ele><time>2026-04-24T16:32:16.548Z</time></trkpt><trkpt lat="37.519295" lon="15.107295"><ele>29.0</ele><time>2026-04-24T16:32:17.548Z</time></trkpt><trkpt lat="37.5193583" lon="15.1073567"><ele>29.0</ele><time>2026-04-24T16:32:18.548Z</time></trkpt><trkpt lat="37.5194233" lon="15.1074317"><ele>29.0</ele><time>2026-04-24T16:32:19.549Z</time></trkpt><trkpt lat="37.519485" lon="15.1075117"><ele>28.999999999999996</ele><time>2026-04-24T16:32:20.549Z</time></trkpt><trkpt lat="37.51955" lon="15.1075867"><ele>29.0</ele><time>2026-04-24T16:32:21.549Z</time></trkpt><trkpt lat="37.5196133" lon="15.1076617"><ele>27.833333333333332</ele><time>2026-04-24T16:32:22.549Z</time></trkpt><trkpt lat="37.51967" lon="15.1077317"><ele>26.666666666666664</ele><time>2026-04-24T16:32:23.548Z</time></trkpt><trkpt lat="37.5197283" lon="15.1078133"><ele>25.5</ele><time>2026-04-24T16:32:24.548Z</time></trkpt><trkpt lat="37.5197833" lon="15.1078933"><ele>24.333333333333332</ele><time>2026-04-24T16:32:25.549Z</time></trkpt><trkpt lat="37.51984" lon="15.1079783"><ele>23.166666666666664</ele><time>2026-04-24T16:32:26.549Z</time></trkpt><trkpt lat="37.5198983" lon="15.1080683"><ele>22.0</ele><time>2026-04-24T16:32:27.548Z</time></trkpt><trkpt lat="37.519955" lon="15.1081667"><ele>20.8</ele><time>2026-04-24T16:32:28.548Z</time></trkpt><trkpt lat="37.5200133" lon="15.1082767"><ele>19.6</ele><time>2026-04-24T16:32:29.549Z</time></trkpt><trkpt lat="37.520075" lon="15.1084"><ele>18.400000000000002</ele><time>2026-04-24T16:32:30.548Z</time></trkpt><trkpt lat="37.5201267" lon="15.1085183"><ele>17.200000000000003</ele><time>2026-04-24T16:32:31.548Z</time></trkpt><trkpt lat="37.5201733" lon="15.1086417"><ele>16.0</ele><time>2026-04-24T16:32:32.549Z</time></trkpt><trkpt lat="37.5202167" lon="15.1087683"><ele>15.999999999999998</ele><time>2026-04-24T16:32:33.548Z</time></trkpt><trkpt lat="37.520255" lon="15.1088867"><ele>16.0</ele><time>2026-04-24T16:32:34.549Z</time></trkpt><trkpt lat="37.52029" lon="15.108995"><ele>16.0</ele><time>2026-04-24T16:32:35.549Z</time></trkpt><trkpt lat="37.5203167" lon="15.1091"><ele>16.0</ele><time>2026-04-24T16:32:36.548Z</time></trkpt><trkpt lat="37.5203417" lon="15.1091867"><ele>15.999999999999998</ele><time>2026-04-24T16:32:37.549Z</time></trkpt><trkpt lat="37.5203633" lon="15.10927"><ele>16.0</ele><time>2026-04-24T16:32:38.548Z</time></trkpt><trkpt lat="37.52038" lon="15.1093633"><ele>17.75</ele><time>2026-04-24T16:32:39.548Z</time></trkpt><trkpt lat="37.5204" lon="15.1095133"><ele>19.5</ele><time>2026-04-24T16:32:41.549Z</time></trkpt><trkpt lat="37.5204267" lon="15.1096517"><ele>21.25</ele><time>2026-04-24T16:32:43.549Z</time></trkpt><trkpt lat="37.5204733" lon="15.1098067"><ele>23.0</ele><time>2026-04-24T16:32:45.548Z</time></trkpt><trkpt lat="37.5205067" lon="15.109915"><ele>23.0</ele><time>2026-04-24T16:32:46.549Z</time></trkpt><trkpt lat="37.5205417" lon="15.1100333"><ele>23.0</ele><time>2026-04-24T16:32:47.549Z</time></trkpt><trkpt lat="37.5205767" lon="15.1101733"><ele>23.0</ele><time>2026-04-24T16:32:48.548Z</time></trkpt><trkpt lat="37.52061" lon="15.1103167"><ele>23.0</ele><time>2026-04-24T16:32:49.549Z</time></trkpt><trkpt lat="37.52064" lon="15.1104533"><ele>23.0</ele><time>2026-04-24T16:32:50.549Z</time></trkpt><trkpt lat="37.5206633" lon="15.1105717"><ele>23.0</ele><time>2026-04-24T16:32:51.549Z</time></trkpt><trkpt lat="37.5206867" lon="15.110695"><ele>23.0</ele><time>2026-04-24T16:32:52.549Z</time></trkpt><trkpt lat="37.5207017" lon="15.1107933"><ele>23.0</ele><time>2026-04-24T16:32:53.549Z</time></trkpt><trkpt lat="37.5207183" lon="15.1108783"><ele>23.0</ele><time>2026-04-24T16:32:54.549Z</time></trkpt><trkpt lat="37.5207433" lon="15.1109867"><ele>23.0</ele><time>2026-04-24T16:32:56.549Z</time></trkpt><trkpt lat="37.520775" lon="15.1111017"><ele>23.0</ele><time>2026-04-24T16:32:59.549Z</time></trkpt><trkpt lat="37.52079" lon="15.11121"><ele>22.5</ele><time>2026-04-24T16:33:01.549Z</time></trkpt><trkpt lat="37.5208117" lon="15.1113183"><ele>22.0</ele><time>2026-04-24T16:33:03.549Z</time></trkpt><trkpt lat="37.52085" lon="15.11147"><ele>21.5</ele><time>2026-04-24T16:33:05.548Z</time></trkpt><trkpt lat="37.5208667" lon="15.1115617"><ele>21.0</ele><time>2026-04-24T16:33:06.549Z</time></trkpt><trkpt lat="37.5208833" lon="15.111655"><ele>20.5</ele><time>2026-04-24T16:33:07.548Z</time></trkpt><trkpt lat="37.520905" lon="15.1117433"><ele>20.0</ele><time>2026-04-24T16:33:08.548Z</time></trkpt><trkpt lat="37.5209267" lon="15.1118383"><ele>19.833333333333336</ele><time>2026-04-24T16:33:09.549Z</time></trkpt><trkpt lat="37.5209517" lon="15.11194"><ele>19.666666666666668</ele><time>2026-04-24T16:33:10.548Z</time></trkpt><trkpt lat="37.520975" lon="15.1120467"><ele>19.5</ele><time>2026-04-24T16:33:11.548Z</time></trkpt><trkpt lat="37.5209933" lon="15.1121533"><ele>19.333333333333332</ele><time>2026-04-24T16:33:12.549Z</time></trkpt><trkpt lat="37.5210117" lon="15.1122467"><ele>19.166666666666664</ele><time>2026-04-24T16:33:13.549Z</time></trkpt><trkpt lat="37.52104" lon="15.1123733"><ele>19.0</ele><time>2026-04-24T16:33:15.549Z</time></trkpt><trkpt lat="37.521085" lon="15.1124717"><ele>18.166666666666664</ele><time>2026-04-24T16:33:21.548Z</time></trkpt><trkpt lat="37.5210667" lon="15.1125583"><ele>17.333333333333332</ele><time>2026-04-24T16:33:45.548Z</time></trkpt><trkpt lat="37.521095" lon="15.1126933"><ele>16.5</ele><time>2026-04-24T16:33:47.549Z</time></trkpt><trkpt lat="37.521115" lon="15.1127817"><ele>15.666666666666668</ele><time>2026-04-24T16:33:48.549Z</time></trkpt><trkpt lat="37.521135" lon="15.1128933"><ele>14.833333333333334</ele><time>2026-04-24T16:33:49.549Z</time></trkpt><trkpt lat="37.52116" lon="15.1130117"><ele>14.0</ele><time>2026-04-24T16:33:50.549Z</time></trkpt><trkpt lat="37.5211917" lon="15.1131317"><ele>13.5</ele><time>2026-04-24T16:33:51.549Z</time></trkpt><trkpt lat="37.52123" lon="15.1132667"><ele>13.0</ele><time>2026-04-24T16:33:52.548Z</time></trkpt><trkpt lat="37.5212733" lon="15.1133983"><ele>12.5</ele><time>2026-04-24T16:33:53.548Z</time></trkpt><trkpt lat="37.521325" lon="15.113535"><ele>12.0</ele><time>2026-04-24T16:33:54.548Z</time></trkpt><trkpt lat="37.5213833" lon="15.1136717"><ele>12.75</ele><time>2026-04-24T16:33:55.549Z</time></trkpt><trkpt lat="37.5214417" lon="15.1138117"><ele>13.5</ele><time>2026-04-24T16:33:56.548Z</time></trkpt><trkpt lat="37.5215017" lon="15.113945"><ele>14.25</ele><time>2026-04-24T16:33:57.548Z</time></trkpt><trkpt lat="37.521565" lon="15.1140633"><ele>15.0</ele><time>2026-04-24T16:33:58.549Z</time></trkpt><trkpt lat="37.5216283" lon="15.1141917"><ele>15.0</ele><time>2026-04-24T16:33:59.549Z</time></trkpt><trkpt lat="37.5216967" lon="15.11432"><ele>15.0</ele><time>2026-04-24T16:34:00.548Z</time></trkpt><trkpt lat="37.521775" lon="15.1144467"><ele>15.0</ele><time>2026-04-24T16:34:01.548Z</time></trkpt><trkpt lat="37.5218517" lon="15.11457"><ele>15.0</ele><time>2026-04-24T16:34:02.548Z</time></trkpt><trkpt lat="37.5219233" lon="15.1146767"><ele>15.0</ele><time>2026-04-24T16:34:03.549Z</time></trkpt><trkpt lat="37.5219933" lon="15.1147817"><ele>15.0</ele><time>2026-04-24T16:34:04.548Z</time></trkpt><trkpt lat="37.5220583" lon="15.114885"><ele>15.0</ele><time>2026-04-24T16:34:05.549Z</time></trkpt><trkpt lat="37.522125" lon="15.1149867"><ele>15.0</ele><time>2026-04-24T16:34:06.548Z</time></trkpt><trkpt lat="37.522185" lon="15.115085"><ele>15.0</ele><time>2026-04-24T16:34:07.548Z</time></trkpt><trkpt lat="37.5222417" lon="15.1151967"><ele>15.2</ele><time>2026-04-24T16:34:08.549Z</time></trkpt><trkpt lat="37.5222983" lon="15.115295"><ele>15.4</ele><time>2026-04-24T16:34:09.548Z</time></trkpt><trkpt lat="37.5223517" lon="15.11539"><ele>15.600000000000001</ele><time>2026-04-24T16:34:10.549Z</time></trkpt><trkpt lat="37.5223983" lon="15.11548"><ele>15.8</ele><time>2026-04-24T16:34:11.549Z</time></trkpt><trkpt lat="37.52245" lon="15.1155833"><ele>16.0</ele><time>2026-04-24T16:34:12.549Z</time></trkpt><trkpt lat="37.52251" lon="15.1156867"><ele>15.0</ele><time>2026-04-24T16:34:13.548Z</time></trkpt><trkpt lat="37.52258" lon="15.1157917"><ele>14.000000000000002</ele><time>2026-04-24T16:34:14.548Z</time></trkpt><trkpt lat="37.5226533" lon="15.1158933"><ele>13.0</ele><time>2026-04-24T16:34:15.548Z</time></trkpt><trkpt lat="37.5227267" lon="15.11598"><ele>12.0</ele><time>2026-04-24T16:34:16.548Z</time></trkpt><trkpt lat="37.5228017" lon="15.1160567"><ele>11.0</ele><time>2026-04-24T16:34:17.549Z</time></trkpt><trkpt lat="37.522885" lon="15.11613"><ele>12.4</ele><time>2026-04-24T16:34:18.549Z</time></trkpt><trkpt lat="37.52297" lon="15.116195"><ele>13.8</ele><time>2026-04-24T16:34:19.549Z</time></trkpt><trkpt lat="37.5230633" lon="15.1162467"><ele>15.200000000000001</ele><time>2026-04-24T16:34:20.549Z</time></trkpt><trkpt lat="37.5231617" lon="15.1162867"><ele>16.6</ele><time>2026-04-24T16:34:21.549Z</time></trkpt><trkpt lat="37.5232583" lon="15.1163233"><ele>18.0</ele><time>2026-04-24T16:34:22.549Z</time></trkpt><trkpt lat="37.5233567" lon="15.1163483"><ele>18.0</ele><time>2026-04-24T16:34:23.549Z</time></trkpt><trkpt lat="37.523445" lon="15.1163683"><ele>18.0</ele><time>2026-04-24T16:34:24.548Z</time></trkpt><trkpt lat="37.5235233" lon="15.1163817"><ele>18.0</ele><time>2026-04-24T16:34:25.548Z</time></trkpt><trkpt lat="37.52359" lon="15.1163917"><ele>18.0</ele><time>2026-04-24T16:34:26.549Z</time></trkpt><trkpt lat="37.5236683" lon="15.1163967"><ele>18.0</ele><time>2026-04-24T16:34:28.548Z</time></trkpt><trkpt lat="37.5237933" lon="15.1164183"><ele>18.0</ele><time>2026-04-24T16:34:44.548Z</time></trkpt><trkpt lat="37.5238717" lon="15.1164267"><ele>18.2</ele><time>2026-04-24T16:34:45.549Z</time></trkpt><trkpt lat="37.523965" lon="15.1164283"><ele>18.4</ele><time>2026-04-24T16:34:46.548Z</time></trkpt><trkpt lat="37.524055" lon="15.1164317"><ele>18.599999999999998</ele><time>2026-04-24T16:34:47.549Z</time></trkpt><trkpt lat="37.5241533" lon="15.1164367"><ele>18.8</ele><time>2026-04-24T16:34:48.548Z</time></trkpt><trkpt lat="37.5242633" lon="15.116445"><ele>19.0</ele><time>2026-04-24T16:34:49.549Z</time></trkpt><trkpt lat="37.5243767" lon="15.1164533"><ele>19.0</ele><time>2026-04-24T16:34:50.548Z</time></trkpt><trkpt lat="37.5244917" lon="15.1164633"><ele>19.0</ele><time>2026-04-24T16:34:51.548Z</time></trkpt><trkpt lat="37.5246067" lon="15.1164717"><ele>19.0</ele><time>2026-04-24T16:34:52.548Z</time></trkpt><trkpt lat="37.5247267" lon="15.1164783"><ele>19.0</ele><time>2026-04-24T16:34:53.549Z</time></trkpt><trkpt lat="37.52485" lon="15.1164817"><ele>19.799999999999997</ele><time>2026-04-24T16:34:54.549Z</time></trkpt><trkpt lat="37.5249617" lon="15.1164767"><ele>20.599999999999998</ele><time>2026-04-24T16:34:55.549Z</time></trkpt><trkpt lat="37.5250683" lon="15.1164633"><ele>21.4</ele><time>2026-04-24T16:34:56.549Z</time></trkpt><trkpt lat="37.5251733" lon="15.1164383"><ele>22.2</ele><time>2026-04-24T16:34:57.548Z</time></trkpt><trkpt lat="37.525275" lon="15.116415"><ele>23.0</ele><time>2026-04-24T16:34:58.549Z</time></trkpt><trkpt lat="37.5253717" lon="15.116385"><ele>22.333333333333336</ele><time>2026-04-24T16:34:59.548Z</time></trkpt><trkpt lat="37.52546" lon="15.1163633"><ele>21.666666666666668</ele><time>2026-04-24T16:35:00.548Z</time></trkpt><trkpt lat="37.5255383" lon="15.1163433"><ele>21.0</ele><time>2026-04-24T16:35:01.549Z</time></trkpt><trkpt lat="37.5256033" lon="15.11632"><ele>20.333333333333332</ele><time>2026-04-24T16:35:02.548Z</time></trkpt><trkpt lat="37.5256683" lon="15.116305"><ele>19.666666666666664</ele><time>2026-04-24T16:35:03.548Z</time></trkpt><trkpt lat="37.5257317" lon="15.1162883"><ele>19.0</ele><time>2026-04-24T16:35:04.549Z</time></trkpt><trkpt lat="37.5258367" lon="15.11626"><ele>19.0</ele><time>2026-04-24T16:35:06.548Z</time></trkpt><trkpt lat="37.5259467" lon="15.116235"><ele>19.0</ele><time>2026-04-24T16:35:08.548Z</time></trkpt><trkpt lat="37.52606" lon="15.1162017"><ele>19.0</ele><time>2026-04-24T16:35:10.548Z</time></trkpt><trkpt lat="37.526125" lon="15.1161833"><ele>19.0</ele><time>2026-04-24T16:35:11.549Z</time></trkpt><trkpt lat="37.5261917" lon="15.1161667"><ele>19.0</ele><time>2026-04-24T16:35:12.549Z</time></trkpt><trkpt lat="37.5262633" lon="15.1161517"><ele>19.0</ele><time>2026-04-24T16:35:13.549Z</time></trkpt><trkpt lat="37.52634" lon="15.1161317"><ele>19.166666666666664</ele><time>2026-04-24T16:35:14.548Z</time></trkpt><trkpt lat="37.5264167" lon="15.11611"><ele>19.333333333333332</ele><time>2026-04-24T16:35:15.548Z</time></trkpt><trkpt lat="37.5264967" lon="15.1160917"><ele>19.5</ele><time>2026-04-24T16:35:16.549Z</time></trkpt><trkpt lat="37.5265733" lon="15.1160683"><ele>19.666666666666668</ele><time>2026-04-24T16:35:17.549Z</time></trkpt><trkpt lat="37.5266433" lon="15.1160417"><ele>19.833333333333336</ele><time>2026-04-24T16:35:18.548Z</time></trkpt><trkpt lat="37.5267117" lon="15.116025"><ele>20.0</ele><time>2026-04-24T16:35:19.548Z</time></trkpt><trkpt lat="37.52678" lon="15.1160117"><ele>20.0</ele><time>2026-04-24T16:35:20.549Z</time></trkpt><trkpt lat="37.5268467" lon="15.116"><ele>20.0</ele><time>2026-04-24T16:35:21.549Z</time></trkpt><trkpt lat="37.5269117" lon="15.115985"><ele>20.0</ele><time>2026-04-24T16:35:22.548Z</time></trkpt><trkpt lat="37.5269767" lon="15.115975"><ele>20.0</ele><time>2026-04-24T16:35:23.549Z</time></trkpt><trkpt lat="37.5270533" lon="15.1159583"><ele>20.0</ele><time>2026-04-24T16:35:24.548Z</time></trkpt><trkpt lat="37.5271333" lon="15.1159367"><ele>20.0</ele><time>2026-04-24T16:35:25.549Z</time></trkpt><trkpt lat="37.527225" lon="15.115915"><ele>19.0</ele><time>2026-04-24T16:35:26.549Z</time></trkpt><trkpt lat="37.5273283" lon="15.115895"><ele>18.0</ele><time>2026-04-24T16:35:27.549Z</time></trkpt><trkpt lat="37.5274433" lon="15.1158767"><ele>17.0</ele><time>2026-04-24T16:35:28.549Z</time></trkpt><trkpt lat="37.5275617" lon="15.115855"><ele>16.0</ele><time>2026-04-24T16:35:29.549Z</time></trkpt><trkpt lat="37.5276667" lon="15.1158317"><ele>15.0</ele><time>2026-04-24T16:35:30.548Z</time></trkpt><trkpt lat="37.5277683" lon="15.1158083"><ele>15.0</ele><time>2026-04-24T16:35:31.549Z</time></trkpt><trkpt lat="37.5278683" lon="15.115785"><ele>15.0</ele><time>2026-04-24T16:35:32.548Z</time></trkpt><trkpt lat="37.52797" lon="15.1157517"><ele>15.0</ele><time>2026-04-24T16:35:33.549Z</time></trkpt><trkpt lat="37.5280733" lon="15.115705"><ele>15.0</ele><time>2026-04-24T16:35:34.548Z</time></trkpt><trkpt lat="37.5281733" lon="15.1156433"><ele>15.0</ele><time>2026-04-24T16:35:35.548Z</time></trkpt><trkpt lat="37.5282633" lon="15.11556"><ele>14.8</ele><time>2026-04-24T16:35:36.549Z</time></trkpt><trkpt lat="37.5283367" lon="15.1154683"><ele>14.6</ele><time>2026-04-24T16:35:37.549Z</time></trkpt><trkpt lat="37.5283983" lon="15.11538"><ele>14.399999999999999</ele><time>2026-04-24T16:35:38.548Z</time></trkpt><trkpt lat="37.528455" lon="15.115275"><ele>14.2</ele><time>2026-04-24T16:35:39.549Z</time></trkpt><trkpt lat="37.528505" lon="15.115155"><ele>14.0</ele><time>2026-04-24T16:35:40.549Z</time></trkpt><trkpt lat="37.52856" lon="15.11502"><ele>13.75</ele><time>2026-04-24T16:35:41.549Z</time></trkpt><trkpt lat="37.528615" lon="15.1148817"><ele>13.5</ele><time>2026-04-24T16:35:42.548Z</time></trkpt><trkpt lat="37.5286767" lon="15.1147217"><ele>13.25</ele><time>2026-04-24T16:35:43.548Z</time></trkpt><trkpt lat="37.5287333" lon="15.1145633"><ele>13.0</ele><time>2026-04-24T16:35:44.549Z</time></trkpt><trkpt lat="37.528795" lon="15.1143967"><ele>13.0</ele><time>2026-04-24T16:35:45.548Z</time></trkpt><trkpt lat="37.5288617" lon="15.1142317"><ele>13.0</ele><time>2026-04-24T16:35:46.549Z</time></trkpt><trkpt lat="37.5289283" lon="15.1140617"><ele>13.0</ele><time>2026-04-24T16:35:47.548Z</time></trkpt><trkpt lat="37.5290067" lon="15.11389"><ele>13.0</ele><time>2026-04-24T16:35:48.548Z</time></trkpt><trkpt lat="37.52908" lon="15.113715"><ele>13.0</ele><time>2026-04-24T16:35:49.549Z</time></trkpt><trkpt lat="37.529155" lon="15.1135417"><ele>13.0</ele><time>2026-04-24T16:35:50.548Z</time></trkpt><trkpt lat="37.529225" lon="15.1133783"><ele>13.0</ele><time>2026-04-24T16:35:51.548Z</time></trkpt><trkpt lat="37.5292883" lon="15.1132267"><ele>13.0</ele><time>2026-04-24T16:35:52.548Z</time></trkpt><trkpt lat="37.5293483" lon="15.1130917"><ele>13.0</ele><time>2026-04-24T16:35:53.549Z</time></trkpt><trkpt lat="37.5294033" lon="15.1129733"><ele>13.0</ele><time>2026-04-24T16:35:54.548Z</time></trkpt><trkpt lat="37.529465" lon="15.1128767"><ele>13.0</ele><time>2026-04-24T16:35:55.549Z</time></trkpt><trkpt lat="37.529535" lon="15.112785"><ele>13.0</ele><time>2026-04-24T16:35:56.548Z</time></trkpt><trkpt lat="37.5296067" lon="15.1127083"><ele>13.0</ele><time>2026-04-24T16:35:57.549Z</time></trkpt><trkpt lat="37.5296683" lon="15.112645"><ele>13.0</ele><time>2026-04-24T16:35:58.549Z</time></trkpt><trkpt lat="37.5297167" lon="15.1125917"><ele>13.0</ele><time>2026-04-24T16:35:59.549Z</time></trkpt><trkpt lat="37.5298167" lon="15.112485"><ele>13.4</ele><time>2026-04-24T16:36:01.549Z</time></trkpt><trkpt lat="37.5298933" lon="15.1123833"><ele>13.8</ele><time>2026-04-24T16:36:03.548Z</time></trkpt><trkpt lat="37.52998" lon="15.11228"><ele>14.2</ele><time>2026-04-24T16:36:05.548Z</time></trkpt><trkpt lat="37.5301017" lon="15.1122117"><ele>14.6</ele><time>2026-04-24T16:36:07.549Z</time></trkpt><trkpt lat="37.530165" lon="15.11219"><ele>15.0</ele><time>2026-04-24T16:36:08.548Z</time></trkpt><trkpt lat="37.53023" lon="15.1121717"><ele>15.0</ele><time>2026-04-24T16:36:09.548Z</time></trkpt><trkpt lat="37.5302967" lon="15.112155"><ele>15.0</ele><time>2026-04-24T16:36:10.548Z</time></trkpt><trkpt lat="37.5303683" lon="15.11214"><ele>15.0</ele><time>2026-04-24T16:36:11.548Z</time></trkpt><trkpt lat="37.5304717" lon="15.1121167"><ele>15.0</ele><time>2026-04-24T16:36:13.549Z</time></trkpt><trkpt lat="37.53055" lon="15.1120767"><ele>15.0</ele><time>2026-04-24T16:36:16.549Z</time></trkpt><trkpt lat="37.5306117" lon="15.1120533"><ele>15.0</ele><time>2026-04-24T16:36:19.549Z</time></trkpt><trkpt lat="37.5306983" lon="15.1120317"><ele>14.6</ele><time>2026-04-24T16:36:22.548Z</time></trkpt><trkpt lat="37.5307867" lon="15.1120017"><ele>14.2</ele><time>2026-04-24T16:36:24.549Z</time></trkpt><trkpt lat="37.530885" lon="15.1119717"><ele>13.8</ele><time>2026-04-24T16:36:26.548Z</time></trkpt><trkpt lat="37.530975" lon="15.11196"><ele>13.4</ele><time>2026-04-24T16:36:28.548Z</time></trkpt><trkpt lat="37.5310817" lon="15.1119283"><ele>13.0</ele><time>2026-04-24T16:36:30.548Z</time></trkpt><trkpt lat="37.5311967" lon="15.1118933"><ele>13.2</ele><time>2026-04-24T16:36:32.549Z</time></trkpt><trkpt lat="37.53131" lon="15.1118633"><ele>13.4</ele><time>2026-04-24T16:36:34.548Z</time></trkpt><trkpt lat="37.5314333" lon="15.1118467"><ele>13.599999999999998</ele><time>2026-04-24T16:36:36.548Z</time></trkpt><trkpt lat="37.5314983" lon="15.1118417"><ele>13.799999999999999</ele><time>2026-04-24T16:36:37.548Z</time></trkpt><trkpt lat="37.531565" lon="15.1118383"><ele>14.0</ele><time>2026-04-24T16:36:38.549Z</time></trkpt><trkpt lat="37.5316783" lon="15.1118583"><ele>14.0</ele><time>2026-04-24T16:36:40.548Z</time></trkpt><trkpt lat="37.5317983" lon="15.111905"><ele>13.999999999999998</ele><time>2026-04-24T16:36:42.548Z</time></trkpt><trkpt lat="37.53186" lon="15.1119483"><ele>13.999999999999998</ele><time>2026-04-24T16:36:43.549Z</time></trkpt><trkpt lat="37.5319267" lon="15.1120117"><ele>14.0</ele><time>2026-04-24T16:36:44.548Z</time></trkpt><trkpt lat="37.532" lon="15.11208"><ele>14.0</ele><time>2026-04-24T16:36:45.549Z</time></trkpt><trkpt lat="37.5320583" lon="15.112155"><ele>14.333333333333334</ele><time>2026-04-24T16:36:46.548Z</time></trkpt><trkpt lat="37.5321067" lon="15.11224"><ele>14.666666666666668</ele><time>2026-04-24T16:36:47.548Z</time></trkpt><trkpt lat="37.5321517" lon="15.1123317"><ele>15.0</ele><time>2026-04-24T16:36:48.549Z</time></trkpt><trkpt lat="37.532195" lon="15.112425"><ele>15.333333333333332</ele><time>2026-04-24T16:36:49.548Z</time></trkpt><trkpt lat="37.53224" lon="15.1125133"><ele>15.666666666666666</ele><time>2026-04-24T16:36:50.549Z</time></trkpt><trkpt lat="37.53228" lon="15.1126017"><ele>16.0</ele><time>2026-04-24T16:36:51.549Z</time></trkpt><trkpt lat="37.5323167" lon="15.1126817"><ele>15.999999999999998</ele><time>2026-04-24T16:36:52.549Z</time></trkpt><trkpt lat="37.53235" lon="15.112765"><ele>16.0</ele><time>2026-04-24T16:36:53.549Z</time></trkpt><trkpt lat="37.53239" lon="15.112845"><ele>16.0</ele><time>2026-04-24T16:36:54.548Z</time></trkpt><trkpt lat="37.5324233" lon="15.11292"><ele>16.0</ele><time>2026-04-24T16:36:55.548Z</time></trkpt><trkpt lat="37.53246" lon="15.1129883"><ele>15.999999999999998</ele><time>2026-04-24T16:36:56.548Z</time></trkpt><trkpt lat="37.5325233" lon="15.1131233"><ele>16.0</ele><time>2026-04-24T16:36:58.549Z</time></trkpt><trkpt lat="37.5325567" lon="15.1131917"><ele>15.857142857142856</ele><time>2026-04-24T16:36:59.549Z</time></trkpt><trkpt lat="37.53259" lon="15.113265"><ele>15.714285714285712</ele><time>2026-04-24T16:37:00.548Z</time></trkpt><trkpt lat="37.5326267" lon="15.1133383"><ele>15.571428571428571</ele><time>2026-04-24T16:37:01.549Z</time></trkpt><trkpt lat="37.53266" lon="15.113415"><ele>15.428571428571427</ele><time>2026-04-24T16:37:02.548Z</time></trkpt><trkpt lat="37.532695" lon="15.1134933"><ele>15.285714285714285</ele><time>2026-04-24T16:37:03.548Z</time></trkpt><trkpt lat="37.53273" lon="15.1135817"><ele>15.142857142857142</ele><time>2026-04-24T16:37:04.549Z</time></trkpt><trkpt lat="37.5327667" lon="15.1136717"><ele>15.0</ele><time>2026-04-24T16:37:05.549Z</time></trkpt><trkpt lat="37.532805" lon="15.1137767"><ele>15.0</ele><time>2026-04-24T16:37:06.549Z</time></trkpt><trkpt lat="37.53283" lon="15.1138617"><ele>15.0</ele><time>2026-04-24T16:37:07.548Z</time></trkpt><trkpt lat="37.532865" lon="15.1139867"><ele>15.0</ele><time>2026-04-24T16:37:09.549Z</time></trkpt><trkpt lat="37.532905" lon="15.1141467"><ele>15.0</ele><time>2026-04-24T16:37:11.548Z</time></trkpt><trkpt lat="37.53293" lon="15.1142533"><ele>15.0</ele><time>2026-04-24T16:37:12.548Z</time></trkpt><trkpt lat="37.5329617" lon="15.1143683"><ele>15.0</ele><time>2026-04-24T16:37:13.549Z</time></trkpt><trkpt lat="37.533" lon="15.1144967"><ele>15.0</ele><time>2026-04-24T16:37:14.549Z</time></trkpt><trkpt lat="37.5330367" lon="15.11462"><ele>15.0</ele><time>2026-04-24T16:37:15.549Z</time></trkpt><trkpt lat="37.5330733" lon="15.1147433"><ele>15.0</ele><time>2026-04-24T16:37:16.548Z</time></trkpt><trkpt lat="37.5331183" lon="15.1148633"><ele>15.0</ele><time>2026-04-24T16:37:17.548Z</time></trkpt><trkpt lat="37.5331617" lon="15.114975"><ele>15.2</ele><time>2026-04-24T16:37:18.549Z</time></trkpt><trkpt lat="37.5331983" lon="15.1150867"><ele>15.4</ele><time>2026-04-24T16:37:19.548Z</time></trkpt><trkpt lat="37.53323" lon="15.1152133"><ele>15.600000000000001</ele><time>2026-04-24T16:37:20.548Z</time></trkpt><trkpt lat="37.5332633" lon="15.1153433"><ele>15.8</ele><time>2026-04-24T16:37:21.548Z</time></trkpt><trkpt lat="37.5332967" lon="15.1154783"><ele>16.0</ele><time>2026-04-24T16:37:22.548Z</time></trkpt><trkpt lat="37.5333283" lon="15.115605"><ele>15.999999999999998</ele><time>2026-04-24T16:37:23.549Z</time></trkpt><trkpt lat="37.5333583" lon="15.1157167"><ele>16.0</ele><time>2026-04-24T16:37:24.549Z</time></trkpt><trkpt lat="37.53339" lon="15.1158267"><ele>16.0</ele><time>2026-04-24T16:37:25.548Z</time></trkpt><trkpt lat="37.533415" lon="15.11592"><ele>16.0</ele><time>2026-04-24T16:37:26.549Z</time></trkpt><trkpt lat="37.5334333" lon="15.1160117"><ele>15.999999999999998</ele><time>2026-04-24T16:37:27.548Z</time></trkpt><trkpt lat="37.5334567" lon="15.1160917"><ele>16.0</ele><time>2026-04-24T16:37:28.549Z</time></trkpt><trkpt lat="37.533495" lon="15.1162333"><ele>16.0</ele><time>2026-04-24T16:37:30.549Z</time></trkpt><trkpt lat="37.5335467" lon="15.1163967"><ele>16.0</ele><time>2026-04-24T16:37:32.548Z</time></trkpt><trkpt lat="37.5335717" lon="15.1165033"><ele>16.0</ele><time>2026-04-24T16:37:33.549Z</time></trkpt><trkpt lat="37.5335967" lon="15.116625"><ele>16.0</ele><time>2026-04-24T16:37:34.548Z</time></trkpt><trkpt lat="37.5336283" lon="15.1167583"><ele>16.0</ele><time>2026-04-24T16:37:35.549Z</time></trkpt><trkpt lat="37.5336617" lon="15.1168917"><ele>15.75</ele><time>2026-04-24T16:37:36.548Z</time></trkpt><trkpt lat="37.5336967" lon="15.1170367"><ele>15.5</ele><time>2026-04-24T16:37:37.548Z</time></trkpt><trkpt lat="37.5337317" lon="15.1171817"><ele>15.25</ele><time>2026-04-24T16:37:38.549Z</time></trkpt><trkpt lat="37.5337717" lon="15.1173267"><ele>15.0</ele><time>2026-04-24T16:37:39.549Z</time></trkpt><trkpt lat="37.5338017" lon="15.117455"><ele>15.666666666666666</ele><time>2026-04-24T16:37:40.549Z</time></trkpt><trkpt lat="37.5338283" lon="15.1175783"><ele>16.333333333333332</ele><time>2026-04-24T16:37:41.548Z</time></trkpt><trkpt lat="37.5338567" lon="15.1176933"><ele>17.0</ele><time>2026-04-24T16:37:42.549Z</time></trkpt><trkpt lat="37.533875" lon="15.1178017"><ele>17.666666666666664</ele><time>2026-04-24T16:37:43.548Z</time></trkpt><trkpt lat="37.533885" lon="15.1179017"><ele>18.333333333333332</ele><time>2026-04-24T16:37:44.549Z</time></trkpt><trkpt lat="37.5339017" lon="15.1179917"><ele>19.0</ele><time>2026-04-24T16:37:45.549Z</time></trkpt><trkpt lat="37.5339167" lon="15.1180767"><ele>19.0</ele><time>2026-04-24T16:37:46.549Z</time></trkpt><trkpt lat="37.5339417" lon="15.11816"><ele>19.0</ele><time>2026-04-24T16:37:47.549Z</time></trkpt><trkpt lat="37.533975" lon="15.1182483"><ele>19.0</ele><time>2026-04-24T16:37:48.549Z</time></trkpt><trkpt lat="37.5340033" lon="15.1183283"><ele>19.0</ele><time>2026-04-24T16:37:49.549Z</time></trkpt><trkpt lat="37.53404" lon="15.1184"><ele>19.0</ele><time>2026-04-24T16:37:50.549Z</time></trkpt><trkpt lat="37.5341" lon="15.1185183"><ele>19.0</ele><time>2026-04-24T16:37:52.549Z</time></trkpt><trkpt lat="37.5341567" lon="15.11863"><ele>19.0</ele><time>2026-04-24T16:37:54.549Z</time></trkpt><trkpt lat="37.5342117" lon="15.11873"><ele>19.0</ele><time>2026-04-24T16:37:56.549Z</time></trkpt><trkpt lat="37.5343067" lon="15.118845"><ele>19.0</ele><time>2026-04-24T16:37:58.549Z</time></trkpt><trkpt lat="37.5343717" lon="15.118915"><ele>19.0</ele><time>2026-04-24T16:37:59.549Z</time></trkpt><trkpt lat="37.5344367" lon="15.1189783"><ele>19.0</ele><time>2026-04-24T16:38:00.549Z</time></trkpt><trkpt lat="37.5345" lon="15.1190417"><ele>19.333333333333332</ele><time>2026-04-24T16:38:01.548Z</time></trkpt><trkpt lat="37.5345583" lon="15.1191"><ele>19.666666666666664</ele><time>2026-04-24T16:38:02.548Z</time></trkpt><trkpt lat="37.5346267" lon="15.1191583"><ele>20.0</ele><time>2026-04-24T16:38:03.549Z</time></trkpt><trkpt lat="37.5347" lon="15.1192233"><ele>20.333333333333332</ele><time>2026-04-24T16:38:04.548Z</time></trkpt><trkpt lat="37.5347733" lon="15.1192833"><ele>20.666666666666668</ele><time>2026-04-24T16:38:05.549Z</time></trkpt><trkpt lat="37.534845" lon="15.119345"><ele>21.0</ele><time>2026-04-24T16:38:06.549Z</time></trkpt><trkpt lat="37.5349183" lon="15.1193967"><ele>21.0</ele><time>2026-04-24T16:38:07.548Z</time></trkpt><trkpt lat="37.5349883" lon="15.1194567"><ele>21.0</ele><time>2026-04-24T16:38:08.549Z</time></trkpt><trkpt lat="37.535065" lon="15.1195283"><ele>21.0</ele><time>2026-04-24T16:38:09.549Z</time></trkpt><trkpt lat="37.5351483" lon="15.1196"><ele>21.0</ele><time>2026-04-24T16:38:10.548Z</time></trkpt><trkpt lat="37.53523" lon="15.1196617"><ele>21.0</ele><time>2026-04-24T16:38:11.548Z</time></trkpt><trkpt lat="37.5353133" lon="15.1197233"><ele>21.6</ele><time>2026-04-24T16:38:12.548Z</time></trkpt><trkpt lat="37.5353983" lon="15.1197733"><ele>22.200000000000003</ele><time>2026-04-24T16:38:13.548Z</time></trkpt><trkpt lat="37.5354817" lon="15.11981"><ele>22.799999999999997</ele><time>2026-04-24T16:38:14.549Z</time></trkpt><trkpt lat="37.5355633" lon="15.119825"><ele>23.4</ele><time>2026-04-24T16:38:15.549Z</time></trkpt><trkpt lat="37.5356417" lon="15.119825"><ele>24.0</ele><time>2026-04-24T16:38:16.548Z</time></trkpt><trkpt lat="37.5357683" lon="15.1197983"><ele>24.0</ele><time>2026-04-24T16:38:18.548Z</time></trkpt><trkpt lat="37.535845" lon="15.1197733"><ele>24.0</ele><time>2026-04-24T16:38:19.548Z</time></trkpt><trkpt lat="37.5359133" lon="15.11975"><ele>24.0</ele><time>2026-04-24T16:38:20.548Z</time></trkpt><trkpt lat="37.53598" lon="15.11972"><ele>24.0</ele><time>2026-04-24T16:38:21.548Z</time></trkpt><trkpt lat="37.5361" lon="15.1196617"><ele>24.0</ele><time>2026-04-24T16:38:23.548Z</time></trkpt><trkpt lat="37.5361717" lon="15.119635"><ele>24.0</ele><time>2026-04-24T16:38:24.548Z</time></trkpt><trkpt lat="37.536255" lon="15.1196117"><ele>24.799999999999997</ele><time>2026-04-24T16:38:25.549Z</time></trkpt><trkpt lat="37.5363467" lon="15.1195817"><ele>25.599999999999998</ele><time>2026-04-24T16:38:26.548Z</time></trkpt><trkpt lat="37.5364417" lon="15.11953"><ele>26.4</ele><time>2026-04-24T16:38:27.548Z</time></trkpt><trkpt lat="37.5365467" lon="15.1194817"><ele>27.2</ele><time>2026-04-24T16:38:28.549Z</time></trkpt><trkpt lat="37.53665" lon="15.1194333"><ele>28.0</ele><time>2026-04-24T16:38:29.548Z</time></trkpt><trkpt lat="37.5367567" lon="15.1193833"><ele>28.0</ele><time>2026-04-24T16:38:30.548Z</time></trkpt><trkpt lat="37.5368733" lon="15.119345"><ele>27.999999999999996</ele><time>2026-04-24T16:38:31.549Z</time></trkpt><trkpt lat="37.5369733" lon="15.11931"><ele>27.999999999999996</ele><time>2026-04-24T16:38:32.549Z</time></trkpt><trkpt lat="37.53706" lon="15.1192783"><ele>28.0</ele><time>2026-04-24T16:38:33.549Z</time></trkpt><trkpt lat="37.5371383" lon="15.1192517"><ele>28.0</ele><time>2026-04-24T16:38:34.549Z</time></trkpt><trkpt lat="37.5372117" lon="15.1192267"><ele>29.000000000000004</ele><time>2026-04-24T16:38:35.548Z</time></trkpt><trkpt lat="37.5372817" lon="15.1192017"><ele>30.0</ele><time>2026-04-24T16:38:36.549Z</time></trkpt><trkpt lat="37.5373433" lon="15.11918"><ele>31.0</ele><time>2026-04-24T16:38:37.548Z</time></trkpt><trkpt lat="37.5374083" lon="15.1191667"><ele>32.0</ele><time>2026-04-24T16:38:38.549Z</time></trkpt><trkpt lat="37.5375083" lon="15.1191517"><ele>33.0</ele><time>2026-04-24T16:38:40.549Z</time></trkpt><trkpt lat="37.5376133" lon="15.1191733"><ele>34.0</ele><time>2026-04-24T16:38:42.549Z</time></trkpt><trkpt lat="37.5376733" lon="15.1192183"><ele>34.0</ele><time>2026-04-24T16:38:43.548Z</time></trkpt><trkpt lat="37.5377533" lon="15.1192567"><ele>34.0</ele><time>2026-04-24T16:38:44.549Z</time></trkpt><trkpt lat="37.5378367" lon="15.119295"><ele>34.0</ele><time>2026-04-24T16:38:45.549Z</time></trkpt><trkpt lat="37.5379217" lon="15.1193467"><ele>34.0</ele><time>2026-04-24T16:38:46.549Z</time></trkpt><trkpt lat="37.53801" lon="15.1194"><ele>34.0</ele><time>2026-04-24T16:38:47.548Z</time></trkpt><trkpt lat="37.5380933" lon="15.1194417"><ele>34.4</ele><time>2026-04-24T16:38:48.549Z</time></trkpt><trkpt lat="37.5381833" lon="15.1194883"><ele>34.8</ele><time>2026-04-24T16:38:49.549Z</time></trkpt><trkpt lat="37.5382667" lon="15.119545"><ele>35.2</ele><time>2026-04-24T16:38:50.548Z</time></trkpt><trkpt lat="37.53835" lon="15.1195917"><ele>35.6</ele><time>2026-04-24T16:38:51.549Z</time></trkpt><trkpt lat="37.5384267" lon="15.11963"><ele>36.0</ele><time>2026-04-24T16:38:52.549Z</time></trkpt><trkpt lat="37.538505" lon="15.119675"><ele>36.0</ele><time>2026-04-24T16:38:53.549Z</time></trkpt><trkpt lat="37.5385783" lon="15.1197333"><ele>36.0</ele><time>2026-04-24T16:38:54.548Z</time></trkpt><trkpt lat="37.5386567" lon="15.119795"><ele>36.0</ele><time>2026-04-24T16:38:55.549Z</time></trkpt><trkpt lat="37.53874" lon="15.1198617"><ele>36.0</ele><time>2026-04-24T16:38:56.548Z</time></trkpt><trkpt lat="37.5388133" lon="15.1199433"><ele>36.0</ele><time>2026-04-24T16:38:57.548Z</time></trkpt><trkpt lat="37.53888" lon="15.1200367"><ele>35.8</ele><time>2026-04-24T16:38:58.549Z</time></trkpt><trkpt lat="37.5389433" lon="15.1201533"><ele>35.6</ele><time>2026-04-24T16:38:59.549Z</time></trkpt><trkpt lat="37.539" lon="15.12027"><ele>35.4</ele><time>2026-04-24T16:39:00.548Z</time></trkpt><trkpt lat="37.5390483" lon="15.12039"><ele>35.2</ele><time>2026-04-24T16:39:01.549Z</time></trkpt><trkpt lat="37.5390883" lon="15.120505"><ele>35.0</ele><time>2026-04-24T16:39:02.548Z</time></trkpt><trkpt lat="37.539125" lon="15.1206167"><ele>35.0</ele><time>2026-04-24T16:39:03.548Z</time></trkpt><trkpt lat="37.5391617" lon="15.1207167"><ele>35.0</ele><time>2026-04-24T16:39:04.549Z</time></trkpt><trkpt lat="37.53919" lon="15.1208017"><ele>35.0</ele><time>2026-04-24T16:39:05.548Z</time></trkpt><trkpt lat="37.539235" lon="15.1209433"><ele>35.0</ele><time>2026-04-24T16:39:07.548Z</time></trkpt><trkpt lat="37.5392683" lon="15.1210783"><ele>35.0</ele><time>2026-04-24T16:39:09.548Z</time></trkpt><trkpt lat="37.5393" lon="15.1211967"><ele>35.0</ele><time>2026-04-24T16:39:11.548Z</time></trkpt><trkpt lat="37.53931" lon="15.1213233"><ele>35.0</ele><time>2026-04-24T16:39:13.548Z</time></trkpt><trkpt lat="37.5393283" lon="15.1214767"><ele>35.0</ele><time>2026-04-24T16:39:15.549Z</time></trkpt><trkpt lat="37.5393283" lon="15.1216283"><ele>35.0</ele><time>2026-04-24T16:39:17.549Z</time></trkpt><trkpt lat="37.5392967" lon="15.12178"><ele>34.33333333333333</ele><time>2026-04-24T16:39:19.549Z</time></trkpt><trkpt lat="37.5392833" lon="15.1219117"><ele>33.666666666666664</ele><time>2026-04-24T16:39:21.549Z</time></trkpt><trkpt lat="37.5393033" lon="15.12204"><ele>33.0</ele><time>2026-04-24T16:39:23.549Z</time></trkpt><trkpt lat="37.5393267" lon="15.1221183"><ele>32.333333333333336</ele><time>2026-04-24T16:39:24.548Z</time></trkpt><trkpt lat="37.539365" lon="15.122195"><ele>31.666666666666668</ele><time>2026-04-24T16:39:25.548Z</time></trkpt><trkpt lat="37.5394033" lon="15.1222833"><ele>31.0</ele><time>2026-04-24T16:39:26.549Z</time></trkpt><trkpt lat="37.53944" lon="15.1223833"><ele>30.0</ele><time>2026-04-24T16:39:27.549Z</time></trkpt><trkpt lat="37.5394617" lon="15.122495"><ele>29.0</ele><time>2026-04-24T16:39:28.549Z</time></trkpt><trkpt lat="37.5394817" lon="15.1226117"><ele>28.0</ele><time>2026-04-24T16:39:29.549Z</time></trkpt><trkpt lat="37.53949" lon="15.1227417"><ele>27.0</ele><time>2026-04-24T16:39:30.548Z</time></trkpt><trkpt lat="37.539495" lon="15.1228783"><ele>26.0</ele><time>2026-04-24T16:39:31.549Z</time></trkpt><trkpt lat="37.5395017" lon="15.1230033"><ele>26.0</ele><time>2026-04-24T16:39:32.549Z</time></trkpt><trkpt lat="37.5395" lon="15.1231333"><ele>26.0</ele><time>2026-04-24T16:39:33.548Z</time></trkpt><trkpt lat="37.5395" lon="15.1232733"><ele>26.0</ele><time>2026-04-24T16:39:34.549Z</time></trkpt><trkpt lat="37.5394933" lon="15.1234067"><ele>26.0</ele><time>2026-04-24T16:39:35.548Z</time></trkpt><trkpt lat="37.5394883" lon="15.1235433"><ele>26.0</ele><time>2026-04-24T16:39:36.549Z</time></trkpt><trkpt lat="37.5394783" lon="15.1236667"><ele>26.6</ele><time>2026-04-24T16:39:37.548Z</time></trkpt><trkpt lat="37.5394683" lon="15.12379"><ele>27.200000000000003</ele><time>2026-04-24T16:39:38.549Z</time></trkpt><trkpt lat="37.53946" lon="15.123915"><ele>27.799999999999997</ele><time>2026-04-24T16:39:39.548Z</time></trkpt><trkpt lat="37.53945" lon="15.1240367"><ele>28.4</ele><time>2026-04-24T16:39:40.549Z</time></trkpt><trkpt lat="37.5394417" lon="15.1241583"><ele>29.0</ele><time>2026-04-24T16:39:41.548Z</time></trkpt><trkpt lat="37.5394317" lon="15.124285"><ele>30.0</ele><time>2026-04-24T16:39:42.548Z</time></trkpt><trkpt lat="37.5394217" lon="15.1244067"><ele>31.0</ele><time>2026-04-24T16:39:43.549Z</time></trkpt><trkpt lat="37.5394217" lon="15.1245317"><ele>32.0</ele><time>2026-04-24T16:39:44.549Z</time></trkpt><trkpt lat="37.5394167" lon="15.124655"><ele>33.0</ele><time>2026-04-24T16:39:45.548Z</time></trkpt><trkpt lat="37.5394117" lon="15.1247833"><ele>34.0</ele><time>2026-04-24T16:39:46.548Z</time></trkpt><trkpt lat="37.5394067" lon="15.1249217"><ele>34.6</ele><time>2026-04-24T16:39:47.549Z</time></trkpt><trkpt lat="37.53941" lon="15.1250583"><ele>35.2</ele><time>2026-04-24T16:39:48.549Z</time></trkpt><trkpt lat="37.5394183" lon="15.1251967"><ele>35.800000000000004</ele><time>2026-04-24T16:39:49.549Z</time></trkpt><trkpt lat="37.5394283" lon="15.1253417"><ele>36.4</ele><time>2026-04-24T16:39:50.548Z</time></trkpt><trkpt lat="37.539445" lon="15.1254817"><ele>37.0</ele><time>2026-04-24T16:39:51.548Z</time></trkpt><trkpt lat="37.5394617" lon="15.1256167"><ele>36.75</ele><time>2026-04-24T16:39:52.548Z</time></trkpt><trkpt lat="37.5394833" lon="15.125755"><ele>36.5</ele><time>2026-04-24T16:39:53.548Z</time></trkpt><trkpt lat="37.5395" lon="15.1258917"><ele>36.25</ele><time>2026-04-24T16:39:54.549Z</time></trkpt><trkpt lat="37.5395067" lon="15.1260383"><ele>36.0</ele><time>2026-04-24T16:39:55.549Z</time></trkpt><trkpt lat="37.5395233" lon="15.1261817"><ele>36.0</ele><time>2026-04-24T16:39:56.549Z</time></trkpt><trkpt lat="37.5395467" lon="15.1263233"><ele>36.0</ele><time>2026-04-24T16:39:57.548Z</time></trkpt><trkpt lat="37.5395767" lon="15.12647"><ele>36.0</ele><time>2026-04-24T16:39:58.549Z</time></trkpt><trkpt lat="37.5396167" lon="15.1266217"><ele>36.0</ele><time>2026-04-24T16:39:59.548Z</time></trkpt><trkpt lat="37.5396583" lon="15.1267717"><ele>37.75</ele><time>2026-04-24T16:40:00.549Z</time></trkpt><trkpt lat="37.5397117" lon="15.1269183"><ele>39.5</ele><time>2026-04-24T16:40:01.549Z</time></trkpt><trkpt lat="37.5397633" lon="15.1270533"><ele>41.25</ele><time>2026-04-24T16:40:02.549Z</time></trkpt><trkpt lat="37.5398167" lon="15.127185"><ele>43.0</ele><time>2026-04-24T16:40:03.549Z</time></trkpt><trkpt lat="37.53987" lon="15.1273183"><ele>42.75</ele><time>2026-04-24T16:40:04.548Z</time></trkpt><trkpt lat="37.5399267" lon="15.1274467"><ele>42.5</ele><time>2026-04-24T16:40:05.549Z</time></trkpt><trkpt lat="37.5399833" lon="15.1275783"><ele>42.25</ele><time>2026-04-24T16:40:06.548Z</time></trkpt><trkpt lat="37.5400483" lon="15.12771"><ele>42.0</ele><time>2026-04-24T16:40:07.548Z</time></trkpt><trkpt lat="37.5401133" lon="15.127835"><ele>42.0</ele><time>2026-04-24T16:40:08.548Z</time></trkpt><trkpt lat="37.5401783" lon="15.12796"><ele>42.0</ele><time>2026-04-24T16:40:09.549Z</time></trkpt><trkpt lat="37.5402433" lon="15.12808"><ele>42.0</ele><time>2026-04-24T16:40:10.549Z</time></trkpt><trkpt lat="37.5403067" lon="15.1281967"><ele>42.0</ele><time>2026-04-24T16:40:11.549Z</time></trkpt><trkpt lat="37.5403683" lon="15.12831"><ele>42.8</ele><time>2026-04-24T16:40:12.549Z</time></trkpt><trkpt lat="37.5404267" lon="15.128415"><ele>43.6</ele><time>2026-04-24T16:40:13.548Z</time></trkpt><trkpt lat="37.5404933" lon="15.128515"><ele>44.4</ele><time>2026-04-24T16:40:14.549Z</time></trkpt><trkpt lat="37.5405567" lon="15.1286133"><ele>45.199999999999996</ele><time>2026-04-24T16:40:15.549Z</time></trkpt><trkpt lat="37.5406267" lon="15.12871"><ele>46.0</ele><time>2026-04-24T16:40:16.548Z</time></trkpt><trkpt lat="37.5407017" lon="15.1288083"><ele>46.0</ele><time>2026-04-24T16:40:17.548Z</time></trkpt><trkpt lat="37.54078" lon="15.1289083"><ele>46.0</ele><time>2026-04-24T16:40:18.548Z</time></trkpt><trkpt lat="37.54086" lon="15.1290117"><ele>46.0</ele><time>2026-04-24T16:40:19.549Z</time></trkpt><trkpt lat="37.5409467" lon="15.129115"><ele>46.0</ele><time>2026-04-24T16:40:20.549Z</time></trkpt><trkpt lat="37.5410383" lon="15.1292183"><ele>45.5</ele><time>2026-04-24T16:40:21.548Z</time></trkpt><trkpt lat="37.5411367" lon="15.1293167"><ele>45.0</ele><time>2026-04-24T16:40:22.549Z</time></trkpt><trkpt lat="37.5412367" lon="15.1294117"><ele>44.5</ele><time>2026-04-24T16:40:23.549Z</time></trkpt><trkpt lat="37.541345" lon="15.1295083"><ele>44.0</ele><time>2026-04-24T16:40:24.549Z</time></trkpt><trkpt lat="37.5414583" lon="15.1296"><ele>43.75</ele><time>2026-04-24T16:40:25.549Z</time></trkpt><trkpt lat="37.5415733" lon="15.129695"><ele>43.5</ele><time>2026-04-24T16:40:26.548Z</time></trkpt><trkpt lat="37.5416817" lon="15.12978"><ele>43.25</ele><time>2026-04-24T16:40:27.549Z</time></trkpt><trkpt lat="37.5418" lon="15.1298567"><ele>43.0</ele><time>2026-04-24T16:40:28.548Z</time></trkpt><trkpt lat="37.5419083" lon="15.1299283"><ele>43.0</ele><time>2026-04-24T16:40:29.549Z</time></trkpt><trkpt lat="37.54202" lon="15.1299983"><ele>43.0</ele><time>2026-04-24T16:40:30.549Z</time></trkpt><trkpt lat="37.5421183" lon="15.1300683"><ele>43.0</ele><time>2026-04-24T16:40:31.549Z</time></trkpt><trkpt lat="37.542215" lon="15.1301317"><ele>43.0</ele><time>2026-04-24T16:40:32.548Z</time></trkpt><trkpt lat="37.542315" lon="15.1302"><ele>43.599999999999994</ele><time>2026-04-24T16:40:33.548Z</time></trkpt><trkpt lat="37.542415" lon="15.1302617"><ele>44.199999999999996</ele><time>2026-04-24T16:40:34.549Z</time></trkpt><trkpt lat="37.5425083" lon="15.1303267"><ele>44.8</ele><time>2026-04-24T16:40:35.549Z</time></trkpt><trkpt lat="37.542605" lon="15.1304"><ele>45.4</ele><time>2026-04-24T16:40:36.548Z</time></trkpt><trkpt lat="37.5427067" lon="15.130465"><ele>46.0</ele><time>2026-04-24T16:40:37.549Z</time></trkpt><trkpt lat="37.5428183" lon="15.13052"><ele>46.5</ele><time>2026-04-24T16:40:38.548Z</time></trkpt><trkpt lat="37.54294" lon="15.1305717"><ele>47.0</ele><time>2026-04-24T16:40:39.548Z</time></trkpt><trkpt lat="37.5430617" lon="15.13062"><ele>47.5</ele><time>2026-04-24T16:40:40.549Z</time></trkpt><trkpt lat="37.5431917" lon="15.1306583"><ele>48.0</ele><time>2026-04-24T16:40:41.549Z</time></trkpt><trkpt lat="37.543315" lon="15.1306917"><ele>48.0</ele><time>2026-04-24T16:40:42.548Z</time></trkpt><trkpt lat="37.5434317" lon="15.1307233"><ele>48.0</ele><time>2026-04-24T16:40:43.548Z</time></trkpt><trkpt lat="37.5435433" lon="15.1307583"><ele>48.0</ele><time>2026-04-24T16:40:44.549Z</time></trkpt><trkpt lat="37.5436483" lon="15.130785"><ele>48.0</ele><time>2026-04-24T16:40:45.548Z</time></trkpt><trkpt lat="37.5437433" lon="15.1308117"><ele>48.0</ele><time>2026-04-24T16:40:46.549Z</time></trkpt><trkpt lat="37.5438333" lon="15.130835"><ele>47.666666666666664</ele><time>2026-04-24T16:40:47.549Z</time></trkpt><trkpt lat="37.5439267" lon="15.1308517"><ele>47.333333333333336</ele><time>2026-04-24T16:40:48.549Z</time></trkpt><trkpt lat="37.5440117" lon="15.1308717"><ele>47.0</ele><time>2026-04-24T16:40:49.549Z</time></trkpt><trkpt lat="37.5440867" lon="15.130895"><ele>46.66666666666667</ele><time>2026-04-24T16:40:50.548Z</time></trkpt><trkpt lat="37.54416" lon="15.13091"><ele>46.333333333333336</ele><time>2026-04-24T16:40:51.549Z</time></trkpt><trkpt lat="37.5442333" lon="15.1309267"><ele>46.0</ele><time>2026-04-24T16:40:52.549Z</time></trkpt><trkpt lat="37.5442983" lon="15.130945"><ele>46.0</ele><time>2026-04-24T16:40:53.549Z</time></trkpt><trkpt lat="37.54437" lon="15.1309617"><ele>46.0</ele><time>2026-04-24T16:40:54.548Z</time></trkpt><trkpt lat="37.5444467" lon="15.1309867"><ele>46.0</ele><time>2026-04-24T16:40:55.549Z</time></trkpt><trkpt lat="37.5445233" lon="15.13101"><ele>46.0</ele><time>2026-04-24T16:40:56.548Z</time></trkpt><trkpt lat="37.5446" lon="15.13104"><ele>46.0</ele><time>2026-04-24T16:40:57.549Z</time></trkpt><trkpt lat="37.5446667" lon="15.1310783"><ele>46.0</ele><time>2026-04-24T16:40:58.548Z</time></trkpt><trkpt lat="37.5447283" lon="15.1311167"><ele>46.8</ele><time>2026-04-24T16:40:59.548Z</time></trkpt><trkpt lat="37.5447883" lon="15.1311633"><ele>47.599999999999994</ele><time>2026-04-24T16:41:00.549Z</time></trkpt><trkpt lat="37.5448783" lon="15.13124"><ele>48.4</ele><time>2026-04-24T16:41:02.548Z</time></trkpt><trkpt lat="37.5449417" lon="15.131335"><ele>49.2</ele><time>2026-04-24T16:41:04.548Z</time></trkpt><trkpt lat="37.5450083" lon="15.1314617"><ele>50.0</ele><time>2026-04-24T16:41:06.548Z</time></trkpt><trkpt lat="37.5450333" lon="15.13154"><ele>49.833333333333336</ele><time>2026-04-24T16:41:07.549Z</time></trkpt><trkpt lat="37.5450567" lon="15.1316167"><ele>49.66666666666667</ele><time>2026-04-24T16:41:08.548Z</time></trkpt><trkpt lat="37.545075" lon="15.1317083"><ele>49.5</ele><time>2026-04-24T16:41:09.549Z</time></trkpt><trkpt lat="37.545095" lon="15.1318017"><ele>49.33333333333333</ele><time>2026-04-24T16:41:10.549Z</time></trkpt><trkpt lat="37.5451017" lon="15.1319017"><ele>49.166666666666664</ele><time>2026-04-24T16:41:11.548Z</time></trkpt><trkpt lat="37.5451" lon="15.1320117"><ele>49.0</ele><time>2026-04-24T16:41:12.548Z</time></trkpt><trkpt lat="37.5451033" lon="15.132115"><ele>48.99999999999999</ele><time>2026-04-24T16:41:13.548Z</time></trkpt><trkpt lat="37.54511" lon="15.1322267"><ele>49.0</ele><time>2026-04-24T16:41:14.548Z</time></trkpt><trkpt lat="37.5451217" lon="15.132335"><ele>49.0</ele><time>2026-04-24T16:41:15.548Z</time></trkpt><trkpt lat="37.5451283" lon="15.1324367"><ele>49.0</ele><time>2026-04-24T16:41:16.549Z</time></trkpt><trkpt lat="37.5451383" lon="15.1325367"><ele>48.99999999999999</ele><time>2026-04-24T16:41:17.549Z</time></trkpt><trkpt lat="37.5451417" lon="15.1326367"><ele>49.0</ele><time>2026-04-24T16:41:18.549Z</time></trkpt><trkpt lat="37.545155" lon="15.1327367"><ele>48.49999999999999</ele><time>2026-04-24T16:41:19.548Z</time></trkpt><trkpt lat="37.5451567" lon="15.13284"><ele>48.0</ele><time>2026-04-24T16:41:20.548Z</time></trkpt><trkpt lat="37.5451633" lon="15.132945"><ele>47.5</ele><time>2026-04-24T16:41:21.549Z</time></trkpt><trkpt lat="37.54517" lon="15.1330533"><ele>47.0</ele><time>2026-04-24T16:41:22.549Z</time></trkpt><trkpt lat="37.5451783" lon="15.133155"><ele>46.5</ele><time>2026-04-24T16:41:23.548Z</time></trkpt><trkpt lat="37.545185" lon="15.1332517"><ele>46.0</ele><time>2026-04-24T16:41:24.549Z</time></trkpt><trkpt lat="37.5451917" lon="15.1333417"><ele>45.5</ele><time>2026-04-24T16:41:25.549Z</time></trkpt><trkpt lat="37.5452067" lon="15.1334517"><ele>45.0</ele><time>2026-04-24T16:41:26.548Z</time></trkpt><trkpt lat="37.545215" lon="15.133565"><ele>44.5</ele><time>2026-04-24T16:41:27.548Z</time></trkpt><trkpt lat="37.54523" lon="15.13367"><ele>44.0</ele><time>2026-04-24T16:41:28.548Z</time></trkpt><trkpt lat="37.545245" lon="15.1337783"><ele>43.5</ele><time>2026-04-24T16:41:29.548Z</time></trkpt><trkpt lat="37.5452567" lon="15.1338883"><ele>43.0</ele><time>2026-04-24T16:41:30.548Z</time></trkpt><trkpt lat="37.5452683" lon="15.1339983"><ele>42.833333333333336</ele><time>2026-04-24T16:41:31.549Z</time></trkpt><trkpt lat="37.5452783" lon="15.1341133"><ele>42.66666666666667</ele><time>2026-04-24T16:41:32.549Z</time></trkpt><trkpt lat="37.5452817" lon="15.134215"><ele>42.5</ele><time>2026-04-24T16:41:33.549Z</time></trkpt><trkpt lat="37.5452867" lon="15.1343217"><ele>42.333333333333336</ele><time>2026-04-24T16:41:34.548Z</time></trkpt><trkpt lat="37.5453083" lon="15.1344317"><ele>42.166666666666664</ele><time>2026-04-24T16:41:35.549Z</time></trkpt><trkpt lat="37.5453317" lon="15.1345433"><ele>42.0</ele><time>2026-04-24T16:41:36.548Z</time></trkpt><trkpt lat="37.545345" lon="15.1346583"><ele>42.0</ele><time>2026-04-24T16:41:37.548Z</time></trkpt><trkpt lat="37.5453633" lon="15.1347983"><ele>42.0</ele><time>2026-04-24T16:41:38.549Z</time></trkpt><trkpt lat="37.5453867" lon="15.1349467"><ele>42.0</ele><time>2026-04-24T16:41:39.549Z</time></trkpt><trkpt lat="37.5453983" lon="15.1350917"><ele>42.0</ele><time>2026-04-24T16:41:40.549Z</time></trkpt><trkpt lat="37.54541" lon="15.135225"><ele>42.6</ele><time>2026-04-24T16:41:41.549Z</time></trkpt><trkpt lat="37.5454333" lon="15.1353467"><ele>43.2</ele><time>2026-04-24T16:41:42.548Z</time></trkpt><trkpt lat="37.545445" lon="15.1354683"><ele>43.8</ele><time>2026-04-24T16:41:43.549Z</time></trkpt><trkpt lat="37.5454567" lon="15.1356033"><ele>44.4</ele><time>2026-04-24T16:41:44.548Z</time></trkpt><trkpt lat="37.5454783" lon="15.135745"><ele>45.0</ele><time>2026-04-24T16:41:45.549Z</time></trkpt><trkpt lat="37.5455" lon="15.1358833"><ele>45.0</ele><time>2026-04-24T16:41:46.549Z</time></trkpt><trkpt lat="37.5455167" lon="15.1360317"><ele>45.0</ele><time>2026-04-24T16:41:47.549Z</time></trkpt><trkpt lat="37.5455267" lon="15.1361783"><ele>45.0</ele><time>2026-04-24T16:41:48.548Z</time></trkpt><trkpt lat="37.54554" lon="15.136325"><ele>45.0</ele><time>2026-04-24T16:41:49.549Z</time></trkpt><trkpt lat="37.5455567" lon="15.1364733"><ele>44.75</ele><time>2026-04-24T16:41:50.548Z</time></trkpt><trkpt lat="37.545575" lon="15.136615"><ele>44.5</ele><time>2026-04-24T16:41:51.549Z</time></trkpt><trkpt lat="37.5455983" lon="15.136755"><ele>44.25</ele><time>2026-04-24T16:41:52.548Z</time></trkpt><trkpt lat="37.545615" lon="15.1369017"><ele>44.0</ele><time>2026-04-24T16:41:53.549Z</time></trkpt><trkpt lat="37.5456383" lon="15.1370467"><ele>44.0</ele><time>2026-04-24T16:41:54.548Z</time></trkpt><trkpt lat="37.54566" lon="15.13718"><ele>44.0</ele><time>2026-04-24T16:41:55.548Z</time></trkpt><trkpt lat="37.5456883" lon="15.1373233"><ele>44.0</ele><time>2026-04-24T16:41:56.549Z</time></trkpt><trkpt lat="37.54573" lon="15.13747"><ele>44.0</ele><time>2026-04-24T16:41:57.549Z</time></trkpt><trkpt lat="37.54579" lon="15.1376"><ele>43.6</ele><time>2026-04-24T16:41:58.548Z</time></trkpt><trkpt lat="37.5458467" lon="15.1377217"><ele>43.2</ele><time>2026-04-24T16:41:59.549Z</time></trkpt><trkpt lat="37.545915" lon="15.137835"><ele>42.800000000000004</ele><time>2026-04-24T16:42:00.549Z</time></trkpt><trkpt lat="37.5459833" lon="15.1379467"><ele>42.400000000000006</ele><time>2026-04-24T16:42:01.548Z</time></trkpt><trkpt lat="37.5460517" lon="15.138055"><ele>42.0</ele><time>2026-04-24T16:42:02.549Z</time></trkpt><trkpt lat="37.54612" lon="15.1381633"><ele>41.8</ele><time>2026-04-24T16:42:03.548Z</time></trkpt><trkpt lat="37.5461867" lon="15.1382783"><ele>41.6</ele><time>2026-04-24T16:42:04.548Z</time></trkpt><trkpt lat="37.5462433" lon="15.1383933"><ele>41.4</ele><time>2026-04-24T16:42:05.548Z</time></trkpt><trkpt lat="37.54628" lon="15.1385283"><ele>41.199999999999996</ele><time>2026-04-24T16:42:06.549Z</time></trkpt><trkpt lat="37.5463083" lon="15.1386517"><ele>41.0</ele><time>2026-04-24T16:42:07.548Z</time></trkpt><trkpt lat="37.5463483" lon="15.13879"><ele>41.0</ele><time>2026-04-24T16:42:08.548Z</time></trkpt><trkpt lat="37.54638" lon="15.138925"><ele>41.0</ele><time>2026-04-24T16:42:09.549Z</time></trkpt><trkpt lat="37.5464183" lon="15.1390717"><ele>41.0</ele><time>2026-04-24T16:42:10.549Z</time></trkpt><trkpt lat="37.546455" lon="15.13922"><ele>41.0</ele><time>2026-04-24T16:42:11.549Z</time></trkpt><trkpt lat="37.5464883" lon="15.1393683"><ele>40.25</ele><time>2026-04-24T16:42:12.548Z</time></trkpt><trkpt lat="37.546525" lon="15.13951"><ele>39.5</ele><time>2026-04-24T16:42:13.548Z</time></trkpt><trkpt lat="37.5465633" lon="15.1396567"><ele>38.75</ele><time>2026-04-24T16:42:14.549Z</time></trkpt><trkpt lat="37.546595" lon="15.1398083"><ele>38.0</ele><time>2026-04-24T16:42:15.548Z</time></trkpt><trkpt lat="37.5466283" lon="15.1399617"><ele>37.5</ele><time>2026-04-24T16:42:16.548Z</time></trkpt><trkpt lat="37.5466683" lon="15.1401133"><ele>37.0</ele><time>2026-04-24T16:42:17.548Z</time></trkpt><trkpt lat="37.5467067" lon="15.14027"><ele>36.5</ele><time>2026-04-24T16:42:18.549Z</time></trkpt><trkpt lat="37.5467417" lon="15.1404267"><ele>36.0</ele><time>2026-04-24T16:42:19.548Z</time></trkpt><trkpt lat="37.5467817" lon="15.14059"><ele>34.25</ele><time>2026-04-24T16:42:20.549Z</time></trkpt><trkpt lat="37.54682" lon="15.14075"><ele>32.5</ele><time>2026-04-24T16:42:21.548Z</time></trkpt><trkpt lat="37.5468717" lon="15.1409033"><ele>30.75</ele><time>2026-04-24T16:42:22.548Z</time></trkpt><trkpt lat="37.54693" lon="15.1410533"><ele>29.0</ele><time>2026-04-24T16:42:23.548Z</time></trkpt><trkpt lat="37.5470083" lon="15.1412017"><ele>29.666666666666664</ele><time>2026-04-24T16:42:24.548Z</time></trkpt><trkpt lat="37.5471067" lon="15.1413433"><ele>30.333333333333336</ele><time>2026-04-24T16:42:25.548Z</time></trkpt><trkpt lat="37.5472117" lon="15.14148"><ele>31.0</ele><time>2026-04-24T16:42:26.549Z</time></trkpt><trkpt lat="37.5473283" lon="15.1416217"><ele>29.0</ele><time>2026-04-24T16:42:27.549Z</time></trkpt><trkpt lat="37.5474483" lon="15.141755"><ele>27.0</ele><time>2026-04-24T16:42:28.548Z</time></trkpt><trkpt lat="37.54757" lon="15.1418933"><ele>25.0</ele><time>2026-04-24T16:42:29.548Z</time></trkpt><trkpt lat="37.5476883" lon="15.14203"><ele>25.0</ele><time>2026-04-24T16:42:30.549Z</time></trkpt><trkpt lat="37.5478083" lon="15.1421717"><ele>25.0</ele><time>2026-04-24T16:42:31.549Z</time></trkpt><trkpt lat="37.547925" lon="15.1423017"><ele>25.0</ele><time>2026-04-24T16:42:32.548Z</time></trkpt><trkpt lat="37.54804" lon="15.1424183"><ele>25.5</ele><time>2026-04-24T16:42:33.549Z</time></trkpt><trkpt lat="37.5481533" lon="15.1425417"><ele>26.0</ele><time>2026-04-24T16:42:34.549Z</time></trkpt><trkpt lat="37.5482667" lon="15.1426467"><ele>26.5</ele><time>2026-04-24T16:42:35.549Z</time></trkpt><trkpt lat="37.5483783" lon="15.1427467"><ele>27.0</ele><time>2026-04-24T16:42:36.549Z</time></trkpt><trkpt lat="37.54849" lon="15.1428417"><ele>27.0</ele><time>2026-04-24T16:42:37.549Z</time></trkpt><trkpt lat="37.5485983" lon="15.1429333"><ele>27.0</ele><time>2026-04-24T16:42:38.548Z</time></trkpt><trkpt lat="37.5487033" lon="15.1430317"><ele>27.0</ele><time>2026-04-24T16:42:39.549Z</time></trkpt><trkpt lat="37.54882" lon="15.143125"><ele>27.0</ele><time>2026-04-24T16:42:40.549Z</time></trkpt><trkpt lat="37.5489467" lon="15.1432133"><ele>27.25</ele><time>2026-04-24T16:42:41.549Z</time></trkpt><trkpt lat="37.549075" lon="15.1432917"><ele>27.5</ele><time>2026-04-24T16:42:42.549Z</time></trkpt><trkpt lat="37.5491983" lon="15.1433617"><ele>27.75</ele><time>2026-04-24T16:42:43.549Z</time></trkpt><trkpt lat="37.5493233" lon="15.1434367"><ele>28.0</ele><time>2026-04-24T16:42:44.549Z</time></trkpt><trkpt lat="37.5494567" lon="15.1435067"><ele>29.0</ele><time>2026-04-24T16:42:45.548Z</time></trkpt><trkpt lat="37.549575" lon="15.1435617"><ele>30.0</ele><time>2026-04-24T16:42:46.549Z</time></trkpt><trkpt lat="37.5496883" lon="15.1436267"><ele>31.0</ele><time>2026-04-24T16:42:47.549Z</time></trkpt><trkpt lat="37.5497983" lon="15.1436883"><ele>32.0</ele><time>2026-04-24T16:42:48.549Z</time></trkpt><trkpt lat="37.5499033" lon="15.1437417"><ele>32.0</ele><time>2026-04-24T16:42:49.548Z</time></trkpt><trkpt lat="37.5500033" lon="15.1437933"><ele>32.0</ele><time>2026-04-24T16:42:50.549Z</time></trkpt><trkpt lat="37.550095" lon="15.1438433"><ele>32.0</ele><time>2026-04-24T16:42:51.549Z</time></trkpt><trkpt lat="37.55019" lon="15.1439"><ele>32.0</ele><time>2026-04-24T16:42:52.548Z</time></trkpt><trkpt lat="37.5502867" lon="15.1439517"><ele>32.0</ele><time>2026-04-24T16:42:53.549Z</time></trkpt><trkpt lat="37.5503833" lon="15.1440033"><ele>31.5</ele><time>2026-04-24T16:42:54.549Z</time></trkpt><trkpt lat="37.550485" lon="15.144055"><ele>31.0</ele><time>2026-04-24T16:42:55.548Z</time></trkpt><trkpt lat="37.5505917" lon="15.1441033"><ele>30.5</ele><time>2026-04-24T16:42:56.548Z</time></trkpt><trkpt lat="37.5506967" lon="15.144155"><ele>30.0</ele><time>2026-04-24T16:42:57.548Z</time></trkpt><trkpt lat="37.5508033" lon="15.144215"><ele>30.0</ele><time>2026-04-24T16:42:58.548Z</time></trkpt><trkpt lat="37.5509067" lon="15.1442767"><ele>30.0</ele><time>2026-04-24T16:42:59.548Z</time></trkpt><trkpt lat="37.5510017" lon="15.1443317"><ele>30.0</ele><time>2026-04-24T16:43:00.549Z</time></trkpt><trkpt lat="37.5510917" lon="15.144385"><ele>30.0</ele><time>2026-04-24T16:43:01.549Z</time></trkpt><trkpt lat="37.5511867" lon="15.1444383"><ele>30.0</ele><time>2026-04-24T16:43:02.549Z</time></trkpt><trkpt lat="37.5512767" lon="15.144485"><ele>30.4</ele><time>2026-04-24T16:43:03.548Z</time></trkpt><trkpt lat="37.55137" lon="15.144535"><ele>30.8</ele><time>2026-04-24T16:43:04.548Z</time></trkpt><trkpt lat="37.5514617" lon="15.1445767"><ele>31.200000000000003</ele><time>2026-04-24T16:43:05.549Z</time></trkpt><trkpt lat="37.551565" lon="15.1446283"><ele>31.6</ele><time>2026-04-24T16:43:06.548Z</time></trkpt><trkpt lat="37.5516633" lon="15.144685"><ele>32.0</ele><time>2026-04-24T16:43:07.548Z</time></trkpt><trkpt lat="37.5517667" lon="15.1447417"><ele>32.0</ele><time>2026-04-24T16:43:08.549Z</time></trkpt><trkpt lat="37.55187" lon="15.1447983"><ele>32.0</ele><time>2026-04-24T16:43:09.548Z</time></trkpt><trkpt lat="37.5519683" lon="15.1448483"><ele>32.0</ele><time>2026-04-24T16:43:10.548Z</time></trkpt><trkpt lat="37.5520667" lon="15.1448883"><ele>32.0</ele><time>2026-04-24T16:43:11.549Z</time></trkpt><trkpt lat="37.5521617" lon="15.1449133"><ele>32.0</ele><time>2026-04-24T16:43:12.549Z</time></trkpt><trkpt lat="37.5522483" lon="15.1449167"><ele>31.999999999999996</ele><time>2026-04-24T16:43:13.549Z</time></trkpt><trkpt lat="37.5523267" lon="15.14491"><ele>32.0</ele><time>2026-04-24T16:43:14.548Z</time></trkpt><trkpt lat="37.5524067" lon="15.1449033"><ele>32.0</ele><time>2026-04-24T16:43:15.549Z</time></trkpt><trkpt lat="37.5525017" lon="15.1448967"><ele>32.0</ele><time>2026-04-24T16:43:16.549Z</time></trkpt><trkpt lat="37.5525833" lon="15.1448817"><ele>31.999999999999996</ele><time>2026-04-24T16:43:17.548Z</time></trkpt><trkpt lat="37.552665" lon="15.1448683"><ele>32.0</ele><time>2026-04-24T16:43:18.549Z</time></trkpt><trkpt lat="37.5527283" lon="15.144865"><ele>32.0</ele><time>2026-04-24T16:43:19.549Z</time></trkpt><trkpt lat="37.5528217" lon="15.1448567"><ele>32.0</ele><time>2026-04-24T16:43:21.548Z</time></trkpt><trkpt lat="37.5529117" lon="15.1448667"><ele>32.0</ele><time>2026-04-24T16:43:24.549Z</time></trkpt><trkpt lat="37.5529933" lon="15.1448633"><ele>32.0</ele><time>2026-04-24T16:43:26.549Z</time></trkpt><trkpt lat="37.553125" lon="15.1448483"><ele>32.0</ele><time>2026-04-24T16:43:28.549Z</time></trkpt><trkpt lat="37.553195" lon="15.144835"><ele>31.8</ele><time>2026-04-24T16:43:29.549Z</time></trkpt><trkpt lat="37.5532767" lon="15.14482"><ele>31.6</ele><time>2026-04-24T16:43:30.548Z</time></trkpt><trkpt lat="37.553365" lon="15.1448033"><ele>31.400000000000002</ele><time>2026-04-24T16:43:31.549Z</time></trkpt><trkpt lat="37.55348" lon="15.1447867"><ele>31.200000000000003</ele><time>2026-04-24T16:43:32.549Z</time></trkpt><trkpt lat="37.5535983" lon="15.1447767"><ele>31.0</ele><time>2026-04-24T16:43:33.549Z</time></trkpt><trkpt lat="37.55371" lon="15.144765"><ele>31.0</ele><time>2026-04-24T16:43:34.549Z</time></trkpt><trkpt lat="37.553815" lon="15.14476"><ele>31.0</ele><time>2026-04-24T16:43:35.548Z</time></trkpt><trkpt lat="37.5539117" lon="15.1447517"><ele>31.0</ele><time>2026-04-24T16:43:36.548Z</time></trkpt><trkpt lat="37.5539967" lon="15.1447467"><ele>31.0</ele><time>2026-04-24T16:43:37.548Z</time></trkpt><trkpt lat="37.5540833" lon="15.1447383"><ele>31.0</ele><time>2026-04-24T16:43:38.549Z</time></trkpt><trkpt lat="37.554165" lon="15.14473"><ele>31.0</ele><time>2026-04-24T16:43:39.548Z</time></trkpt><trkpt lat="37.5542533" lon="15.1447233"><ele>31.0</ele><time>2026-04-24T16:43:40.549Z</time></trkpt><trkpt lat="37.5543517" lon="15.144715"><ele>31.0</ele><time>2026-04-24T16:43:41.549Z</time></trkpt><trkpt lat="37.5544517" lon="15.144705"><ele>31.0</ele><time>2026-04-24T16:43:42.548Z</time></trkpt><trkpt lat="37.5545467" lon="15.1446917"><ele>31.0</ele><time>2026-04-24T16:43:43.548Z</time></trkpt><trkpt lat="37.5546317" lon="15.1446867"><ele>31.333333333333336</ele><time>2026-04-24T16:43:44.549Z</time></trkpt><trkpt lat="37.5547133" lon="15.1446767"><ele>31.666666666666668</ele><time>2026-04-24T16:43:45.548Z</time></trkpt><trkpt lat="37.5548" lon="15.1446667"><ele>32.0</ele><time>2026-04-24T16:43:46.548Z</time></trkpt><trkpt lat="37.5548783" lon="15.1446567"><ele>32.333333333333336</ele><time>2026-04-24T16:43:47.548Z</time></trkpt><trkpt lat="37.55495" lon="15.1446483"><ele>32.666666666666664</ele><time>2026-04-24T16:43:48.549Z</time></trkpt><trkpt lat="37.5550217" lon="15.1446383"><ele>33.0</ele><time>2026-04-24T16:43:49.548Z</time></trkpt><trkpt lat="37.5550933" lon="15.14463"><ele>33.0</ele><time>2026-04-24T16:43:50.549Z</time></trkpt><trkpt lat="37.55521" lon="15.1446117"><ele>33.0</ele><time>2026-04-24T16:43:52.548Z</time></trkpt><trkpt lat="37.5553067" lon="15.1446133"><ele>33.0</ele><time>2026-04-24T16:43:54.549Z</time></trkpt><trkpt lat="37.5553967" lon="15.1446117"><ele>33.0</ele><time>2026-04-24T16:43:56.548Z</time></trkpt><trkpt lat="37.55548" lon="15.1446117"><ele>33.0</ele><time>2026-04-24T16:43:59.549Z</time></trkpt><trkpt lat="37.5555633" lon="15.144625"><ele>33.0</ele><time>2026-04-24T16:44:01.549Z</time></trkpt><trkpt lat="37.5556667" lon="15.14466"><ele>33.0</ele><time>2026-04-24T16:44:03.549Z</time></trkpt><trkpt lat="37.5557283" lon="15.144695"><ele>33.0</ele><time>2026-04-24T16:44:04.548Z</time></trkpt><trkpt lat="37.5557933" lon="15.1447367"><ele>33.0</ele><time>2026-04-24T16:44:05.548Z</time></trkpt><trkpt lat="37.555865" lon="15.1447867"><ele>33.0</ele><time>2026-04-24T16:44:06.549Z</time></trkpt><trkpt lat="37.555935" lon="15.1448383"><ele>33.0</ele><time>2026-04-24T16:44:07.549Z</time></trkpt><trkpt lat="37.55602" lon="15.1449117"><ele>33.0</ele><time>2026-04-24T16:44:08.549Z</time></trkpt><trkpt lat="37.5561" lon="15.1449933"><ele>33.0</ele><time>2026-04-24T16:44:09.548Z</time></trkpt><trkpt lat="37.5561817" lon="15.145085"><ele>33.0</ele><time>2026-04-24T16:44:10.549Z</time></trkpt><trkpt lat="37.5562483" lon="15.1451717"><ele>33.0</ele><time>2026-04-24T16:44:11.548Z</time></trkpt><trkpt lat="37.5563067" lon="15.1452533"><ele>33.0</ele><time>2026-04-24T16:44:12.548Z</time></trkpt><trkpt lat="37.55635" lon="15.1453267"><ele>33.57142857142857</ele><time>2026-04-24T16:44:13.549Z</time></trkpt><trkpt lat="37.55639" lon="15.1453933"><ele>34.142857142857146</ele><time>2026-04-24T16:44:14.549Z</time></trkpt><trkpt lat="37.556425" lon="15.145465"><ele>34.714285714285715</ele><time>2026-04-24T16:44:15.549Z</time></trkpt><trkpt lat="37.55646" lon="15.1455467"><ele>35.285714285714285</ele><time>2026-04-24T16:44:16.548Z</time></trkpt><trkpt lat="37.5565017" lon="15.1456317"><ele>35.857142857142854</ele><time>2026-04-24T16:44:17.548Z</time></trkpt><trkpt lat="37.5565433" lon="15.1457167"><ele>36.42857142857143</ele><time>2026-04-24T16:44:18.549Z</time></trkpt><trkpt lat="37.55658" lon="15.145805"><ele>37.0</ele><time>2026-04-24T16:44:19.549Z</time></trkpt><trkpt lat="37.55661" lon="15.1458833"><ele>37.0</ele><time>2026-04-24T16:44:20.548Z</time></trkpt><trkpt lat="37.5566517" lon="15.1459583"><ele>37.0</ele><time>2026-04-24T16:44:21.549Z</time></trkpt><trkpt lat="37.556685" lon="15.1460367"><ele>37.0</ele><time>2026-04-24T16:44:22.549Z</time></trkpt><trkpt lat="37.5567167" lon="15.1461083"><ele>37.0</ele><time>2026-04-24T16:44:23.549Z</time></trkpt><trkpt lat="37.556765" lon="15.1462383"><ele>37.0</ele><time>2026-04-24T16:44:25.549Z</time></trkpt><trkpt lat="37.55681" lon="15.146365"><ele>37.0</ele><time>2026-04-24T16:44:27.548Z</time></trkpt><trkpt lat="37.5568417" lon="15.1464433"><ele>37.0</ele><time>2026-04-24T16:44:28.549Z</time></trkpt><trkpt lat="37.5568833" lon="15.1465433"><ele>37.0</ele><time>2026-04-24T16:44:29.548Z</time></trkpt><trkpt lat="37.5569367" lon="15.1466517"><ele>37.0</ele><time>2026-04-24T16:44:30.549Z</time></trkpt><trkpt lat="37.55698" lon="15.1467583"><ele>37.0</ele><time>2026-04-24T16:44:31.548Z</time></trkpt><trkpt lat="37.557025" lon="15.14686"><ele>37.0</ele><time>2026-04-24T16:44:32.549Z</time></trkpt><trkpt lat="37.5570633" lon="15.1469633"><ele>37.16666666666667</ele><time>2026-04-24T16:44:33.548Z</time></trkpt><trkpt lat="37.5570983" lon="15.1470617"><ele>37.333333333333336</ele><time>2026-04-24T16:44:34.549Z</time></trkpt><trkpt lat="37.557135" lon="15.14716"><ele>37.5</ele><time>2026-04-24T16:44:35.548Z</time></trkpt><trkpt lat="37.5571717" lon="15.14725"><ele>37.666666666666664</ele><time>2026-04-24T16:44:36.548Z</time></trkpt><trkpt lat="37.5572133" lon="15.1473483"><ele>37.83333333333333</ele><time>2026-04-24T16:44:37.548Z</time></trkpt><trkpt lat="37.5572583" lon="15.1474383"><ele>38.0</ele><time>2026-04-24T16:44:38.549Z</time></trkpt><trkpt lat="37.5573" lon="15.1475183"><ele>36.83333333333333</ele><time>2026-04-24T16:44:39.548Z</time></trkpt><trkpt lat="37.557345" lon="15.1475917"><ele>35.666666666666664</ele><time>2026-04-24T16:44:40.548Z</time></trkpt><trkpt lat="37.5573917" lon="15.1476667"><ele>34.5</ele><time>2026-04-24T16:44:41.549Z</time></trkpt><trkpt lat="37.55744" lon="15.1477283"><ele>33.333333333333336</ele><time>2026-04-24T16:44:42.548Z</time></trkpt><trkpt lat="37.557485" lon="15.14779"><ele>32.16666666666667</ele><time>2026-04-24T16:44:43.548Z</time></trkpt><trkpt lat="37.557525" lon="15.1478517"><ele>31.0</ele><time>2026-04-24T16:44:44.548Z</time></trkpt><trkpt lat="37.5576033" lon="15.1479417"><ele>31.0</ele><time>2026-04-24T16:44:46.548Z</time></trkpt><trkpt lat="37.5576767" lon="15.1480217"><ele>31.0</ele><time>2026-04-24T16:44:48.549Z</time></trkpt><trkpt lat="37.5577367" lon="15.148105"><ele>31.0</ele><time>2026-04-24T16:44:50.548Z</time></trkpt><trkpt lat="37.5578033" lon="15.14819"><ele>31.0</ele><time>2026-04-24T16:44:52.548Z</time></trkpt><trkpt lat="37.5578867" lon="15.1482767"><ele>31.0</ele><time>2026-04-24T16:44:54.549Z</time></trkpt><trkpt lat="37.5579333" lon="15.148335"><ele>30.833333333333336</ele><time>2026-04-24T16:44:55.548Z</time></trkpt><trkpt lat="37.5579833" lon="15.1484033"><ele>30.666666666666668</ele><time>2026-04-24T16:44:56.549Z</time></trkpt><trkpt lat="37.55803" lon="15.14848"><ele>30.5</ele><time>2026-04-24T16:44:57.548Z</time></trkpt><trkpt lat="37.5580817" lon="15.1485717"><ele>30.333333333333336</ele><time>2026-04-24T16:44:58.549Z</time></trkpt><trkpt lat="37.558135" lon="15.1486667"><ele>30.166666666666668</ele><time>2026-04-24T16:44:59.548Z</time></trkpt><trkpt lat="37.5581783" lon="15.14876"><ele>30.0</ele><time>2026-04-24T16:45:00.548Z</time></trkpt><trkpt lat="37.558225" lon="15.1488517"><ele>30.0</ele><time>2026-04-24T16:45:01.549Z</time></trkpt><trkpt lat="37.5582733" lon="15.148955"><ele>30.0</ele><time>2026-04-24T16:45:02.549Z</time></trkpt><trkpt lat="37.5583167" lon="15.1490633"><ele>30.0</ele><time>2026-04-24T16:45:03.548Z</time></trkpt><trkpt lat="37.5583583" lon="15.1491767"><ele>30.0</ele><time>2026-04-24T16:45:04.549Z</time></trkpt><trkpt lat="37.5584033" lon="15.14929"><ele>30.0</ele><time>2026-04-24T16:45:05.549Z</time></trkpt><trkpt lat="37.55844" lon="15.1494067"><ele>29.2</ele><time>2026-04-24T16:45:06.549Z</time></trkpt><trkpt lat="37.55848" lon="15.14951"><ele>28.4</ele><time>2026-04-24T16:45:07.548Z</time></trkpt><trkpt lat="37.5585167" lon="15.1496167"><ele>27.6</ele><time>2026-04-24T16:45:08.548Z</time></trkpt><trkpt lat="37.5585567" lon="15.1497217"><ele>26.8</ele><time>2026-04-24T16:45:09.549Z</time></trkpt><trkpt lat="37.558595" lon="15.1498267"><ele>26.0</ele><time>2026-04-24T16:45:10.548Z</time></trkpt><trkpt lat="37.55864" lon="15.14994"><ele>25.0</ele><time>2026-04-24T16:45:11.549Z</time></trkpt><trkpt lat="37.5586833" lon="15.150045"><ele>24.0</ele><time>2026-04-24T16:45:12.549Z</time></trkpt><trkpt lat="37.5587183" lon="15.15016"><ele>23.0</ele><time>2026-04-24T16:45:13.549Z</time></trkpt><trkpt lat="37.5587483" lon="15.1502683"><ele>22.0</ele><time>2026-04-24T16:45:14.549Z</time></trkpt><trkpt lat="37.558775" lon="15.15037"><ele>21.0</ele><time>2026-04-24T16:45:15.548Z</time></trkpt><trkpt lat="37.5587917" lon="15.1504983"><ele>22.6</ele><time>2026-04-24T16:45:16.549Z</time></trkpt><trkpt lat="37.55879" lon="15.1506417"><ele>24.200000000000003</ele><time>2026-04-24T16:45:17.548Z</time></trkpt><trkpt lat="37.55878" lon="15.1507717"><ele>25.799999999999997</ele><time>2026-04-24T16:45:18.549Z</time></trkpt><trkpt lat="37.55876" lon="15.1508983"><ele>27.4</ele><time>2026-04-24T16:45:19.549Z</time></trkpt><trkpt lat="37.5587517" lon="15.151025"><ele>29.0</ele><time>2026-04-24T16:45:20.549Z</time></trkpt><trkpt lat="37.5587467" lon="15.1511533"><ele>29.0</ele><time>2026-04-24T16:45:21.548Z</time></trkpt><trkpt lat="37.55875" lon="15.1512917"><ele>29.0</ele><time>2026-04-24T16:45:22.548Z</time></trkpt><trkpt lat="37.5587667" lon="15.1514267"><ele>29.0</ele><time>2026-04-24T16:45:23.549Z</time></trkpt><trkpt lat="37.5587967" lon="15.1515483"><ele>29.0</ele><time>2026-04-24T16:45:24.549Z</time></trkpt><trkpt lat="37.558835" lon="15.151665"><ele>29.0</ele><time>2026-04-24T16:45:25.549Z</time></trkpt><trkpt lat="37.5588767" lon="15.151775"><ele>28.0</ele><time>2026-04-24T16:45:26.549Z</time></trkpt><trkpt lat="37.5589183" lon="15.15188"><ele>27.0</ele><time>2026-04-24T16:45:27.549Z</time></trkpt><trkpt lat="37.558955" lon="15.151985"><ele>26.0</ele><time>2026-04-24T16:45:28.549Z</time></trkpt><trkpt lat="37.5589967" lon="15.1520917"><ele>25.0</ele><time>2026-04-24T16:45:29.549Z</time></trkpt><trkpt lat="37.5590367" lon="15.1522"><ele>24.0</ele><time>2026-04-24T16:45:30.549Z</time></trkpt><trkpt lat="37.5590717" lon="15.152315"><ele>22.4</ele><time>2026-04-24T16:45:31.549Z</time></trkpt><trkpt lat="37.559115" lon="15.1524233"><ele>20.799999999999997</ele><time>2026-04-24T16:45:32.549Z</time></trkpt><trkpt lat="37.5591583" lon="15.1525317"><ele>19.200000000000003</ele><time>2026-04-24T16:45:33.549Z</time></trkpt><trkpt lat="37.559195" lon="15.15264"><ele>17.6</ele><time>2026-04-24T16:45:34.549Z</time></trkpt><trkpt lat="37.559235" lon="15.152745"><ele>16.0</ele><time>2026-04-24T16:45:35.549Z</time></trkpt><trkpt lat="37.5592717" lon="15.1528583"><ele>16.0</ele><time>2026-04-24T16:45:36.548Z</time></trkpt><trkpt lat="37.5593117" lon="15.1529767"><ele>16.0</ele><time>2026-04-24T16:45:37.549Z</time></trkpt><trkpt lat="37.5593517" lon="15.153085"><ele>16.0</ele><time>2026-04-24T16:45:38.549Z</time></trkpt><trkpt lat="37.559395" lon="15.1532"><ele>16.0</ele><time>2026-04-24T16:45:39.549Z</time></trkpt><trkpt lat="37.5594367" lon="15.153325"><ele>16.0</ele><time>2026-04-24T16:45:40.549Z</time></trkpt><trkpt lat="37.5594733" lon="15.15345"><ele>15.4</ele><time>2026-04-24T16:45:41.548Z</time></trkpt><trkpt lat="37.5595067" lon="15.1535617"><ele>14.8</ele><time>2026-04-24T16:45:42.548Z</time></trkpt><trkpt lat="37.55954" lon="15.1536667"><ele>14.200000000000001</ele><time>2026-04-24T16:45:43.548Z</time></trkpt><trkpt lat="37.5595733" lon="15.153775"><ele>13.600000000000001</ele><time>2026-04-24T16:45:44.549Z</time></trkpt><trkpt lat="37.5596133" lon="15.153885"><ele>13.0</ele><time>2026-04-24T16:45:45.548Z</time></trkpt><trkpt lat="37.5596583" lon="15.1540017"><ele>14.600000000000001</ele><time>2026-04-24T16:45:46.548Z</time></trkpt><trkpt lat="37.5597" lon="15.15412"><ele>16.200000000000003</ele><time>2026-04-24T16:45:47.549Z</time></trkpt><trkpt lat="37.559735" lon="15.1542367"><ele>17.8</ele><time>2026-04-24T16:45:48.548Z</time></trkpt><trkpt lat="37.5597683" lon="15.1543467"><ele>19.400000000000002</ele><time>2026-04-24T16:45:49.548Z</time></trkpt><trkpt lat="37.5598033" lon="15.15446"><ele>21.0</ele><time>2026-04-24T16:45:50.548Z</time></trkpt><trkpt lat="37.5598433" lon="15.1545683"><ele>21.0</ele><time>2026-04-24T16:45:51.548Z</time></trkpt><trkpt lat="37.55988" lon="15.15468"><ele>21.0</ele><time>2026-04-24T16:45:52.548Z</time></trkpt><trkpt lat="37.5599183" lon="15.1547833"><ele>21.0</ele><time>2026-04-24T16:45:53.549Z</time></trkpt><trkpt lat="37.5599533" lon="15.1548817"><ele>21.0</ele><time>2026-04-24T16:45:54.548Z</time></trkpt><trkpt lat="37.5599833" lon="15.1549683"><ele>21.0</ele><time>2026-04-24T16:45:55.549Z</time></trkpt><trkpt lat="37.5600117" lon="15.155055"><ele>21.0</ele><time>2026-04-24T16:45:56.548Z</time></trkpt><trkpt lat="37.56004" lon="15.155145"><ele>19.8</ele><time>2026-04-24T16:45:57.549Z</time></trkpt><trkpt lat="37.5600733" lon="15.1552417"><ele>18.6</ele><time>2026-04-24T16:45:58.549Z</time></trkpt><trkpt lat="37.5601117" lon="15.1553433"><ele>17.4</ele><time>2026-04-24T16:45:59.548Z</time></trkpt><trkpt lat="37.56015" lon="15.15545"><ele>16.2</ele><time>2026-04-24T16:46:00.548Z</time></trkpt><trkpt lat="37.5601833" lon="15.155565"><ele>15.0</ele><time>2026-04-24T16:46:01.548Z</time></trkpt><trkpt lat="37.560225" lon="15.155685"><ele>14.2</ele><time>2026-04-24T16:46:02.549Z</time></trkpt><trkpt lat="37.5602717" lon="15.1558017"><ele>13.4</ele><time>2026-04-24T16:46:03.548Z</time></trkpt><trkpt lat="37.5603183" lon="15.15592"><ele>12.600000000000001</ele><time>2026-04-24T16:46:04.548Z</time></trkpt><trkpt lat="37.560355" lon="15.1560283"><ele>11.8</ele><time>2026-04-24T16:46:05.548Z</time></trkpt><trkpt lat="37.56039" lon="15.15614"><ele>11.0</ele><time>2026-04-24T16:46:06.549Z</time></trkpt><trkpt lat="37.56043" lon="15.1562533"><ele>12.600000000000001</ele><time>2026-04-24T16:46:07.548Z</time></trkpt><trkpt lat="37.5604783" lon="15.1563617"><ele>14.2</ele><time>2026-04-24T16:46:08.549Z</time></trkpt><trkpt lat="37.560535" lon="15.1564767"><ele>15.799999999999999</ele><time>2026-04-24T16:46:09.549Z</time></trkpt><trkpt lat="37.5605983" lon="15.156595"><ele>17.4</ele><time>2026-04-24T16:46:10.549Z</time></trkpt><trkpt lat="37.5606733" lon="15.15672"><ele>19.0</ele><time>2026-04-24T16:46:11.549Z</time></trkpt><trkpt lat="37.5607667" lon="15.15684"><ele>19.0</ele><time>2026-04-24T16:46:12.549Z</time></trkpt><trkpt lat="37.5608683" lon="15.1569517"><ele>19.0</ele><time>2026-04-24T16:46:13.548Z</time></trkpt><trkpt lat="37.5609717" lon="15.1570617"><ele>19.0</ele><time>2026-04-24T16:46:14.548Z</time></trkpt><trkpt lat="37.56108" lon="15.1571633"><ele>19.0</ele><time>2026-04-24T16:46:15.549Z</time></trkpt><trkpt lat="37.5611633" lon="15.1572533"><ele>20.799999999999997</ele><time>2026-04-24T16:46:16.548Z</time></trkpt><trkpt lat="37.5612417" lon="15.1573333"><ele>22.599999999999998</ele><time>2026-04-24T16:46:17.549Z</time></trkpt><trkpt lat="37.561315" lon="15.1574183"><ele>24.4</ele><time>2026-04-24T16:46:18.549Z</time></trkpt><trkpt lat="37.56139" lon="15.1575"><ele>26.2</ele><time>2026-04-24T16:46:19.549Z</time></trkpt><trkpt lat="37.5614583" lon="15.1575817"><ele>28.0</ele><time>2026-04-24T16:46:20.549Z</time></trkpt><trkpt lat="37.561525" lon="15.1576617"><ele>28.0</ele><time>2026-04-24T16:46:21.548Z</time></trkpt><trkpt lat="37.5615917" lon="15.1577517"><ele>27.999999999999996</ele><time>2026-04-24T16:46:22.549Z</time></trkpt><trkpt lat="37.5616483" lon="15.1578367"><ele>27.999999999999996</ele><time>2026-04-24T16:46:23.549Z</time></trkpt><trkpt lat="37.5616983" lon="15.1579367"><ele>28.0</ele><time>2026-04-24T16:46:24.549Z</time></trkpt><trkpt lat="37.5617483" lon="15.158045"><ele>28.0</ele><time>2026-04-24T16:46:25.549Z</time></trkpt><trkpt lat="37.5617917" lon="15.1581583"><ele>26.599999999999998</ele><time>2026-04-24T16:46:26.549Z</time></trkpt><trkpt lat="37.5618267" lon="15.1582783"><ele>25.199999999999996</ele><time>2026-04-24T16:46:27.549Z</time></trkpt><trkpt lat="37.56186" lon="15.1583967"><ele>23.8</ele><time>2026-04-24T16:46:28.548Z</time></trkpt><trkpt lat="37.5618883" lon="15.1585133"><ele>22.4</ele><time>2026-04-24T16:46:29.549Z</time></trkpt><trkpt lat="37.5619133" lon="15.1586317"><ele>21.0</ele><time>2026-04-24T16:46:30.549Z</time></trkpt><trkpt lat="37.5619367" lon="15.1587533"><ele>21.0</ele><time>2026-04-24T16:46:31.548Z</time></trkpt><trkpt lat="37.5619667" lon="15.158875"><ele>21.0</ele><time>2026-04-24T16:46:32.548Z</time></trkpt><trkpt lat="37.5620083" lon="15.1589933"><ele>21.0</ele><time>2026-04-24T16:46:33.548Z</time></trkpt><trkpt lat="37.5620567" lon="15.1590967"><ele>21.0</ele><time>2026-04-24T16:46:34.548Z</time></trkpt><trkpt lat="37.5621067" lon="15.1592"><ele>21.0</ele><time>2026-04-24T16:46:35.548Z</time></trkpt><trkpt lat="37.56217" lon="15.1592983"><ele>23.8</ele><time>2026-04-24T16:46:36.548Z</time></trkpt><trkpt lat="37.56224" lon="15.1593933"><ele>26.6</ele><time>2026-04-24T16:46:37.549Z</time></trkpt><trkpt lat="37.5623183" lon="15.1594783"><ele>29.4</ele><time>2026-04-24T16:46:38.548Z</time></trkpt><trkpt lat="37.5624033" lon="15.1595617"><ele>32.2</ele><time>2026-04-24T16:46:39.549Z</time></trkpt><trkpt lat="37.5625017" lon="15.15964"><ele>35.0</ele><time>2026-04-24T16:46:40.548Z</time></trkpt><trkpt lat="37.5625933" lon="15.1597017"><ele>35.0</ele><time>2026-04-24T16:46:41.548Z</time></trkpt><trkpt lat="37.5626883" lon="15.15976"><ele>35.0</ele><time>2026-04-24T16:46:42.549Z</time></trkpt><trkpt lat="37.56278" lon="15.1598267"><ele>35.0</ele><time>2026-04-24T16:46:43.549Z</time></trkpt><trkpt lat="37.5628767" lon="15.159885"><ele>35.0</ele><time>2026-04-24T16:46:44.549Z</time></trkpt><trkpt lat="37.5629717" lon="15.1599467"><ele>35.0</ele><time>2026-04-24T16:46:45.548Z</time></trkpt><trkpt lat="37.56307" lon="15.160005"><ele>34.2</ele><time>2026-04-24T16:46:46.549Z</time></trkpt><trkpt lat="37.5631683" lon="15.1600567"><ele>33.4</ele><time>2026-04-24T16:46:47.549Z</time></trkpt><trkpt lat="37.5632617" lon="15.1601133"><ele>32.6</ele><time>2026-04-24T16:46:48.549Z</time></trkpt><trkpt lat="37.56336" lon="15.160165"><ele>31.8</ele><time>2026-04-24T16:46:49.548Z</time></trkpt><trkpt lat="37.5634517" lon="15.1602233"><ele>31.0</ele><time>2026-04-24T16:46:50.548Z</time></trkpt><trkpt lat="37.563555" lon="15.1602883"><ele>31.0</ele><time>2026-04-24T16:46:51.548Z</time></trkpt><trkpt lat="37.5636567" lon="15.160345"><ele>31.0</ele><time>2026-04-24T16:46:52.549Z</time></trkpt><trkpt lat="37.563755" lon="15.1603983"><ele>31.0</ele><time>2026-04-24T16:46:53.549Z</time></trkpt><trkpt lat="37.5638567" lon="15.1604433"><ele>31.0</ele><time>2026-04-24T16:46:54.549Z</time></trkpt><trkpt lat="37.5639583" lon="15.16047"><ele>31.0</ele><time>2026-04-24T16:46:55.548Z</time></trkpt><trkpt lat="37.56405" lon="15.1605033"><ele>32.2</ele><time>2026-04-24T16:46:56.549Z</time></trkpt><trkpt lat="37.5641417" lon="15.1605267"><ele>33.400000000000006</ele><time>2026-04-24T16:46:57.549Z</time></trkpt><trkpt lat="37.5642383" lon="15.1605383"><ele>34.6</ele><time>2026-04-24T16:46:58.549Z</time></trkpt><trkpt lat="37.5643483" lon="15.1605333"><ele>35.800000000000004</ele><time>2026-04-24T16:46:59.548Z</time></trkpt><trkpt lat="37.5644633" lon="15.1605233"><ele>37.0</ele><time>2026-04-24T16:47:00.548Z</time></trkpt><trkpt lat="37.5645767" lon="15.160505"><ele>37.0</ele><time>2026-04-24T16:47:01.549Z</time></trkpt><trkpt lat="37.5646817" lon="15.16049"><ele>37.0</ele><time>2026-04-24T16:47:02.549Z</time></trkpt><trkpt lat="37.56478" lon="15.16047"><ele>37.0</ele><time>2026-04-24T16:47:03.548Z</time></trkpt><trkpt lat="37.5648883" lon="15.1604583"><ele>37.0</ele><time>2026-04-24T16:47:04.549Z</time></trkpt><trkpt lat="37.5649967" lon="15.1604467"><ele>37.0</ele><time>2026-04-24T16:47:05.548Z</time></trkpt><trkpt lat="37.5651067" lon="15.1604383"><ele>37.0</ele><time>2026-04-24T16:47:06.549Z</time></trkpt><trkpt lat="37.5652183" lon="15.1604367"><ele>37.0</ele><time>2026-04-24T16:47:07.548Z</time></trkpt><trkpt lat="37.5653233" lon="15.1604433"><ele>37.0</ele><time>2026-04-24T16:47:08.548Z</time></trkpt><trkpt lat="37.5654283" lon="15.1604667"><ele>37.0</ele><time>2026-04-24T16:47:09.549Z</time></trkpt><trkpt lat="37.565535" lon="15.160505"><ele>37.0</ele><time>2026-04-24T16:47:10.548Z</time></trkpt><trkpt lat="37.56564" lon="15.160565"><ele>37.6</ele><time>2026-04-24T16:47:11.549Z</time></trkpt><trkpt lat="37.565735" lon="15.160635"><ele>38.2</ele><time>2026-04-24T16:47:12.548Z</time></trkpt><trkpt lat="37.565825" lon="15.1607033"><ele>38.8</ele><time>2026-04-24T16:47:13.549Z</time></trkpt><trkpt lat="37.5659117" lon="15.1607767"><ele>39.4</ele><time>2026-04-24T16:47:14.548Z</time></trkpt><trkpt lat="37.5659917" lon="15.160855"><ele>40.0</ele><time>2026-04-24T16:47:15.549Z</time></trkpt><trkpt lat="37.5660683" lon="15.160945"><ele>38.4</ele><time>2026-04-24T16:47:16.549Z</time></trkpt><trkpt lat="37.566135" lon="15.16105"><ele>36.8</ele><time>2026-04-24T16:47:17.549Z</time></trkpt><trkpt lat="37.5661917" lon="15.1611683"><ele>35.2</ele><time>2026-04-24T16:47:18.548Z</time></trkpt><trkpt lat="37.5662383" lon="15.1612883"><ele>33.6</ele><time>2026-04-24T16:47:19.549Z</time></trkpt><trkpt lat="37.5662783" lon="15.1613867"><ele>32.0</ele><time>2026-04-24T16:47:20.549Z</time></trkpt><trkpt lat="37.56632" lon="15.16149"><ele>31.400000000000002</ele><time>2026-04-24T16:47:21.549Z</time></trkpt><trkpt lat="37.5663567" lon="15.1615833"><ele>30.800000000000004</ele><time>2026-04-24T16:47:22.548Z</time></trkpt><trkpt lat="37.56639" lon="15.1616767"><ele>30.2</ele><time>2026-04-24T16:47:23.549Z</time></trkpt><trkpt lat="37.566435" lon="15.1617883"><ele>29.6</ele><time>2026-04-24T16:47:24.549Z</time></trkpt><trkpt lat="37.5664883" lon="15.16191"><ele>29.0</ele><time>2026-04-24T16:47:25.549Z</time></trkpt><trkpt lat="37.5665433" lon="15.1620433"><ele>29.0</ele><time>2026-04-24T16:47:26.549Z</time></trkpt><trkpt lat="37.5666033" lon="15.162185"><ele>29.0</ele><time>2026-04-24T16:47:27.549Z</time></trkpt><trkpt lat="37.5666567" lon="15.162325"><ele>29.0</ele><time>2026-04-24T16:47:28.549Z</time></trkpt><trkpt lat="37.5667133" lon="15.162475"><ele>29.0</ele><time>2026-04-24T16:47:29.548Z</time></trkpt><trkpt lat="37.566775" lon="15.1626283"><ele>27.25</ele><time>2026-04-24T16:47:30.549Z</time></trkpt><trkpt lat="37.5668483" lon="15.1627767"><ele>25.5</ele><time>2026-04-24T16:47:31.549Z</time></trkpt><trkpt lat="37.5669333" lon="15.1629133"><ele>23.75</ele><time>2026-04-24T16:47:32.549Z</time></trkpt><trkpt lat="37.567035" lon="15.1630333"><ele>22.0</ele><time>2026-04-24T16:47:33.549Z</time></trkpt><trkpt lat="37.5671433" lon="15.1631383"><ele>23.0</ele><time>2026-04-24T16:47:34.549Z</time></trkpt><trkpt lat="37.567255" lon="15.16323"><ele>24.0</ele><time>2026-04-24T16:47:35.549Z</time></trkpt><trkpt lat="37.5673717" lon="15.1633133"><ele>25.0</ele><time>2026-04-24T16:47:36.548Z</time></trkpt><trkpt lat="37.5674883" lon="15.1633933"><ele>26.0</ele><time>2026-04-24T16:47:37.548Z</time></trkpt><trkpt lat="37.5675983" lon="15.1634733"><ele>26.0</ele><time>2026-04-24T16:47:38.548Z</time></trkpt><trkpt lat="37.5677" lon="15.163545"><ele>26.0</ele><time>2026-04-24T16:47:39.549Z</time></trkpt><trkpt lat="37.5678" lon="15.1636117"><ele>26.0</ele><time>2026-04-24T16:47:40.549Z</time></trkpt><trkpt lat="37.5679033" lon="15.1636817"><ele>26.0</ele><time>2026-04-24T16:47:41.549Z</time></trkpt><trkpt lat="37.568005" lon="15.163745"><ele>26.6</ele><time>2026-04-24T16:47:42.549Z</time></trkpt><trkpt lat="37.5680967" lon="15.1638067"><ele>27.200000000000003</ele><time>2026-04-24T16:47:43.548Z</time></trkpt><trkpt lat="37.568195" lon="15.1638683"><ele>27.799999999999997</ele><time>2026-04-24T16:47:44.549Z</time></trkpt><trkpt lat="37.5682733" lon="15.1639233"><ele>28.4</ele><time>2026-04-24T16:47:45.549Z</time></trkpt><trkpt lat="37.568355" lon="15.1639783"><ele>29.0</ele><time>2026-04-24T16:47:46.548Z</time></trkpt><trkpt lat="37.568435" lon="15.164025"><ele>27.4</ele><time>2026-04-24T16:47:47.548Z</time></trkpt><trkpt lat="37.5685117" lon="15.164065"><ele>25.799999999999997</ele><time>2026-04-24T16:47:48.549Z</time></trkpt><trkpt lat="37.5685983" lon="15.1640883"><ele>24.200000000000003</ele><time>2026-04-24T16:47:49.549Z</time></trkpt><trkpt lat="37.56869" lon="15.1641117"><ele>22.6</ele><time>2026-04-24T16:47:50.548Z</time></trkpt><trkpt lat="37.56879" lon="15.1641183"><ele>21.0</ele><time>2026-04-24T16:47:51.549Z</time></trkpt><trkpt lat="37.5688883" lon="15.1641333"><ele>20.5</ele><time>2026-04-24T16:47:52.549Z</time></trkpt><trkpt lat="37.569" lon="15.16414"><ele>20.0</ele><time>2026-04-24T16:47:53.549Z</time></trkpt><trkpt lat="37.569115" lon="15.1641517"><ele>19.5</ele><time>2026-04-24T16:47:54.549Z</time></trkpt><trkpt lat="37.5692317" lon="15.1641583"><ele>19.0</ele><time>2026-04-24T16:47:55.549Z</time></trkpt><trkpt lat="37.5693383" lon="15.1641667"><ele>19.0</ele><time>2026-04-24T16:47:56.548Z</time></trkpt><trkpt lat="37.5694467" lon="15.164185"><ele>19.0</ele><time>2026-04-24T16:47:57.549Z</time></trkpt><trkpt lat="37.5695383" lon="15.1642167"><ele>19.0</ele><time>2026-04-24T16:47:58.549Z</time></trkpt><trkpt lat="37.569625" lon="15.164255"><ele>19.0</ele><time>2026-04-24T16:47:59.549Z</time></trkpt><trkpt lat="37.5697133" lon="15.164295"><ele>19.0</ele><time>2026-04-24T16:48:00.549Z</time></trkpt><trkpt lat="37.5698" lon="15.1643417"><ele>19.799999999999997</ele><time>2026-04-24T16:48:01.548Z</time></trkpt><trkpt lat="37.5698883" lon="15.1643967"><ele>20.599999999999998</ele><time>2026-04-24T16:48:02.549Z</time></trkpt><trkpt lat="37.5699833" lon="15.1644517"><ele>21.4</ele><time>2026-04-24T16:48:03.549Z</time></trkpt><trkpt lat="37.5700767" lon="15.1645033"><ele>22.2</ele><time>2026-04-24T16:48:04.549Z</time></trkpt><trkpt lat="37.5701833" lon="15.1645483"><ele>23.0</ele><time>2026-04-24T16:48:05.549Z</time></trkpt><trkpt lat="37.5702917" lon="15.1646033"><ele>24.0</ele><time>2026-04-24T16:48:06.549Z</time></trkpt><trkpt lat="37.5703933" lon="15.1646583"><ele>25.0</ele><time>2026-04-24T16:48:07.549Z</time></trkpt><trkpt lat="37.5704933" lon="15.1647117"><ele>26.0</ele><time>2026-04-24T16:48:08.549Z</time></trkpt><trkpt lat="37.570595" lon="15.1647667"><ele>27.0</ele><time>2026-04-24T16:48:09.549Z</time></trkpt><trkpt lat="37.5707117" lon="15.1648183"><ele>24.75</ele><time>2026-04-24T16:48:10.548Z</time></trkpt><trkpt lat="37.57082" lon="15.1648733"><ele>22.5</ele><time>2026-04-24T16:48:11.549Z</time></trkpt><trkpt lat="37.5709283" lon="15.1649317"><ele>20.25</ele><time>2026-04-24T16:48:12.548Z</time></trkpt><trkpt lat="37.5710283" lon="15.1649817"><ele>18.0</ele><time>2026-04-24T16:48:13.549Z</time></trkpt><trkpt lat="37.5711333" lon="15.1650233"><ele>18.2</ele><time>2026-04-24T16:48:14.549Z</time></trkpt><trkpt lat="37.5712333" lon="15.165065"><ele>18.4</ele><time>2026-04-24T16:48:15.549Z</time></trkpt><trkpt lat="37.571335" lon="15.1651133"><ele>18.599999999999998</ele><time>2026-04-24T16:48:16.549Z</time></trkpt><trkpt lat="37.571425" lon="15.1651567"><ele>18.8</ele><time>2026-04-24T16:48:17.549Z</time></trkpt><trkpt lat="37.571515" lon="15.1652083"><ele>19.0</ele><time>2026-04-24T16:48:18.549Z</time></trkpt><trkpt lat="37.57161" lon="15.1652567"><ele>19.0</ele><time>2026-04-24T16:48:19.548Z</time></trkpt><trkpt lat="37.5717117" lon="15.165305"><ele>19.0</ele><time>2026-04-24T16:48:20.548Z</time></trkpt><trkpt lat="37.571815" lon="15.16536"><ele>19.0</ele><time>2026-04-24T16:48:21.548Z</time></trkpt><trkpt lat="37.57192" lon="15.16542"><ele>19.0</ele><time>2026-04-24T16:48:22.549Z</time></trkpt><trkpt lat="37.57201" lon="15.1654867"><ele>19.0</ele><time>2026-04-24T16:48:23.549Z</time></trkpt><trkpt lat="37.5721" lon="15.1655583"><ele>19.0</ele><time>2026-04-24T16:48:24.548Z</time></trkpt><trkpt lat="37.5721917" lon="15.1656383"><ele>19.0</ele><time>2026-04-24T16:48:25.548Z</time></trkpt><trkpt lat="37.5722917" lon="15.1657167"><ele>19.0</ele><time>2026-04-24T16:48:26.548Z</time></trkpt><trkpt lat="37.5723917" lon="15.1658017"><ele>19.0</ele><time>2026-04-24T16:48:27.548Z</time></trkpt><trkpt lat="37.5724867" lon="15.1658917"><ele>19.0</ele><time>2026-04-24T16:48:28.549Z</time></trkpt><trkpt lat="37.5725867" lon="15.1659783"><ele>19.0</ele><time>2026-04-24T16:48:29.549Z</time></trkpt><trkpt lat="37.5726833" lon="15.16606"><ele>19.0</ele><time>2026-04-24T16:48:30.549Z</time></trkpt><trkpt lat="37.5727817" lon="15.166145"><ele>19.0</ele><time>2026-04-24T16:48:31.548Z</time></trkpt><trkpt lat="37.5728767" lon="15.16623"><ele>19.0</ele><time>2026-04-24T16:48:32.549Z</time></trkpt><trkpt lat="37.5729767" lon="15.1663217"><ele>19.0</ele><time>2026-04-24T16:48:33.548Z</time></trkpt><trkpt lat="37.5730767" lon="15.1664117"><ele>19.0</ele><time>2026-04-24T16:48:34.549Z</time></trkpt><trkpt lat="37.5731783" lon="15.1665117"><ele>19.0</ele><time>2026-04-24T16:48:35.548Z</time></trkpt><trkpt lat="37.5732817" lon="15.1666083"><ele>19.0</ele><time>2026-04-24T16:48:36.549Z</time></trkpt><trkpt lat="37.5733817" lon="15.1666983"><ele>19.0</ele><time>2026-04-24T16:48:37.549Z</time></trkpt><trkpt lat="37.5734767" lon="15.16678"><ele>19.0</ele><time>2026-04-24T16:48:38.548Z</time></trkpt><trkpt lat="37.5735633" lon="15.1668567"><ele>19.0</ele><time>2026-04-24T16:48:39.549Z</time></trkpt><trkpt lat="37.5736533" lon="15.1669383"><ele>20.6</ele><time>2026-04-24T16:48:40.549Z</time></trkpt><trkpt lat="37.57374" lon="15.1670183"><ele>22.2</ele><time>2026-04-24T16:48:41.549Z</time></trkpt><trkpt lat="37.573825" lon="15.167095"><ele>23.800000000000004</ele><time>2026-04-24T16:48:42.548Z</time></trkpt><trkpt lat="37.5739117" lon="15.1671683"><ele>25.400000000000002</ele><time>2026-04-24T16:48:43.549Z</time></trkpt><trkpt lat="37.5739983" lon="15.1672483"><ele>27.0</ele><time>2026-04-24T16:48:44.548Z</time></trkpt><trkpt lat="37.574085" lon="15.1673133"><ele>27.0</ele><time>2026-04-24T16:48:45.549Z</time></trkpt><trkpt lat="37.574175" lon="15.1673617"><ele>27.000000000000004</ele><time>2026-04-24T16:48:46.548Z</time></trkpt><trkpt lat="37.5742767" lon="15.1674"><ele>27.000000000000004</ele><time>2026-04-24T16:48:47.548Z</time></trkpt><trkpt lat="37.57439" lon="15.16742"><ele>27.0</ele><time>2026-04-24T16:48:48.549Z</time></trkpt><trkpt lat="37.574505" lon="15.16743"><ele>27.0</ele><time>2026-04-24T16:48:49.549Z</time></trkpt><trkpt lat="37.5746217" lon="15.167435"><ele>27.0</ele><time>2026-04-24T16:48:50.548Z</time></trkpt><trkpt lat="37.5747683" lon="15.1674467"><ele>27.0</ele><time>2026-04-24T16:48:51.549Z</time></trkpt><trkpt lat="37.5749233" lon="15.1674633"><ele>27.0</ele><time>2026-04-24T16:48:52.548Z</time></trkpt><trkpt lat="37.5750833" lon="15.1674783"><ele>27.0</ele><time>2026-04-24T16:48:53.549Z</time></trkpt><trkpt lat="37.575235" lon="15.1675017"><ele>27.0</ele><time>2026-04-24T16:48:54.549Z</time></trkpt><trkpt lat="37.575395" lon="15.1675217"><ele>27.0</ele><time>2026-04-24T16:48:55.548Z</time></trkpt><trkpt lat="37.5755467" lon="15.1675367"><ele>27.666666666666664</ele><time>2026-04-24T16:48:56.549Z</time></trkpt><trkpt lat="37.5757067" lon="15.167555"><ele>28.333333333333332</ele><time>2026-04-24T16:48:57.549Z</time></trkpt><trkpt lat="37.5758667" lon="15.16758"><ele>29.0</ele><time>2026-04-24T16:48:58.549Z</time></trkpt><trkpt lat="37.5760317" lon="15.167595"><ele>30.333333333333332</ele><time>2026-04-24T16:48:59.549Z</time></trkpt><trkpt lat="37.57619" lon="15.16761"><ele>31.666666666666664</ele><time>2026-04-24T16:49:00.549Z</time></trkpt><trkpt lat="37.5763467" lon="15.1676233"><ele>33.0</ele><time>2026-04-24T16:49:01.549Z</time></trkpt><trkpt lat="37.5764967" lon="15.1676317"><ele>33.0</ele><time>2026-04-24T16:49:02.548Z</time></trkpt><trkpt lat="37.5766483" lon="15.16764"><ele>33.0</ele><time>2026-04-24T16:49:03.548Z</time></trkpt><trkpt lat="37.5768033" lon="15.16765"><ele>33.0</ele><time>2026-04-24T16:49:04.548Z</time></trkpt><trkpt lat="37.57695" lon="15.1676633"><ele>34.333333333333336</ele><time>2026-04-24T16:49:05.548Z</time></trkpt><trkpt lat="37.5771" lon="15.1676767"><ele>35.66666666666667</ele><time>2026-04-24T16:49:06.549Z</time></trkpt><trkpt lat="37.57725" lon="15.167695"><ele>37.0</ele><time>2026-04-24T16:49:07.549Z</time></trkpt><trkpt lat="37.5774017" lon="15.167715"><ele>37.0</ele><time>2026-04-24T16:49:08.548Z</time></trkpt><trkpt lat="37.57755" lon="15.1677267"><ele>37.0</ele><time>2026-04-24T16:49:09.548Z</time></trkpt><trkpt lat="37.577695" lon="15.1677383"><ele>37.0</ele><time>2026-04-24T16:49:10.548Z</time></trkpt><trkpt lat="37.577835" lon="15.167755"><ele>37.0</ele><time>2026-04-24T16:49:11.549Z</time></trkpt><trkpt lat="37.5779733" lon="15.1677533"><ele>37.5</ele><time>2026-04-24T16:49:12.548Z</time></trkpt><trkpt lat="37.5781133" lon="15.1677533"><ele>38.0</ele><time>2026-04-24T16:49:13.548Z</time></trkpt><trkpt lat="37.5782483" lon="15.1677483"><ele>38.5</ele><time>2026-04-24T16:49:14.549Z</time></trkpt><trkpt lat="37.5783917" lon="15.16775"><ele>39.0</ele><time>2026-04-24T16:49:15.548Z</time></trkpt><trkpt lat="37.5785317" lon="15.16776"><ele>39.0</ele><time>2026-04-24T16:49:16.548Z</time></trkpt><trkpt lat="37.578665" lon="15.1677833"><ele>39.0</ele><time>2026-04-24T16:49:17.548Z</time></trkpt><trkpt lat="37.5788017" lon="15.1678167"><ele>39.0</ele><time>2026-04-24T16:49:18.549Z</time></trkpt><trkpt lat="37.5789317" lon="15.1678483"><ele>39.0</ele><time>2026-04-24T16:49:19.548Z</time></trkpt><trkpt lat="37.579055" lon="15.16788"><ele>39.4</ele><time>2026-04-24T16:49:20.549Z</time></trkpt><trkpt lat="37.5791617" lon="15.1679133"><ele>39.8</ele><time>2026-04-24T16:49:21.548Z</time></trkpt><trkpt lat="37.5792617" lon="15.1679433"><ele>40.199999999999996</ele><time>2026-04-24T16:49:22.548Z</time></trkpt><trkpt lat="37.5793467" lon="15.167985"><ele>40.599999999999994</ele><time>2026-04-24T16:49:23.548Z</time></trkpt><trkpt lat="37.5794317" lon="15.1680383"><ele>41.0</ele><time>2026-04-24T16:49:24.548Z</time></trkpt><trkpt lat="37.5795067" lon="15.1681017"><ele>41.0</ele><time>2026-04-24T16:49:25.549Z</time></trkpt><trkpt lat="37.5795717" lon="15.1681733"><ele>41.0</ele><time>2026-04-24T16:49:26.548Z</time></trkpt><trkpt lat="37.5796433" lon="15.168235"><ele>41.0</ele><time>2026-04-24T16:49:27.549Z</time></trkpt><trkpt lat="37.579725" lon="15.16827"><ele>41.0</ele><time>2026-04-24T16:49:28.548Z</time></trkpt><trkpt lat="37.5798133" lon="15.1682817"><ele>41.0</ele><time>2026-04-24T16:49:29.549Z</time></trkpt><trkpt lat="37.5799133" lon="15.1682733"><ele>41.0</ele><time>2026-04-24T16:49:30.548Z</time></trkpt><trkpt lat="37.5800117" lon="15.1682583"><ele>41.0</ele><time>2026-04-24T16:49:31.549Z</time></trkpt><trkpt lat="37.58012" lon="15.1682683"><ele>41.0</ele><time>2026-04-24T16:49:32.548Z</time></trkpt><trkpt lat="37.58023" lon="15.1683133"><ele>41.0</ele><time>2026-04-24T16:49:33.549Z</time></trkpt><trkpt lat="37.5803483" lon="15.168365"><ele>41.0</ele><time>2026-04-24T16:49:34.549Z</time></trkpt><trkpt lat="37.5804683" lon="15.1684167"><ele>43.5</ele><time>2026-04-24T16:49:35.548Z</time></trkpt><trkpt lat="37.5805983" lon="15.1684733"><ele>46.0</ele><time>2026-04-24T16:49:36.548Z</time></trkpt><trkpt lat="37.5807333" lon="15.168535"><ele>48.5</ele><time>2026-04-24T16:49:37.548Z</time></trkpt><trkpt lat="37.5808633" lon="15.1686017"><ele>51.0</ele><time>2026-04-24T16:49:38.548Z</time></trkpt><trkpt lat="37.581005" lon="15.1686683"><ele>51.0</ele><time>2026-04-24T16:49:39.549Z</time></trkpt><trkpt lat="37.581145" lon="15.1687333"><ele>51.0</ele><time>2026-04-24T16:49:40.548Z</time></trkpt><trkpt lat="37.5812967" lon="15.1687967"><ele>51.0</ele><time>2026-04-24T16:49:41.548Z</time></trkpt><trkpt lat="37.5814367" lon="15.16886"><ele>52.66666666666667</ele><time>2026-04-24T16:49:42.548Z</time></trkpt><trkpt lat="37.5815783" lon="15.168925"><ele>54.333333333333336</ele><time>2026-04-24T16:49:43.549Z</time></trkpt><trkpt lat="37.5817267" lon="15.1689867"><ele>56.0</ele><time>2026-04-24T16:49:44.549Z</time></trkpt><trkpt lat="37.5818667" lon="15.1690517"><ele>56.0</ele><time>2026-04-24T16:49:45.549Z</time></trkpt><trkpt lat="37.5820067" lon="15.16912"><ele>56.0</ele><time>2026-04-24T16:49:46.548Z</time></trkpt><trkpt lat="37.582155" lon="15.1691867"><ele>56.0</ele><time>2026-04-24T16:49:47.549Z</time></trkpt><trkpt lat="37.5823017" lon="15.1692467"><ele>57.66666666666667</ele><time>2026-04-24T16:49:48.549Z</time></trkpt><trkpt lat="37.5824467" lon="15.169295"><ele>59.33333333333333</ele><time>2026-04-24T16:49:49.548Z</time></trkpt><trkpt lat="37.582595" lon="15.1693633"><ele>61.0</ele><time>2026-04-24T16:49:50.549Z</time></trkpt><trkpt lat="37.5827333" lon="15.16943"><ele>63.0</ele><time>2026-04-24T16:49:51.549Z</time></trkpt><trkpt lat="37.5829033" lon="15.1694683"><ele>65.0</ele><time>2026-04-24T16:49:52.549Z</time></trkpt><trkpt lat="37.58306" lon="15.169515"><ele>67.0</ele><time>2026-04-24T16:49:53.549Z</time></trkpt><trkpt lat="37.5832183" lon="15.1695483"><ele>67.0</ele><time>2026-04-24T16:49:54.549Z</time></trkpt><trkpt lat="37.58338" lon="15.169575"><ele>67.0</ele><time>2026-04-24T16:49:55.549Z</time></trkpt><trkpt lat="37.5835317" lon="15.1695967"><ele>67.0</ele><time>2026-04-24T16:49:56.548Z</time></trkpt><trkpt lat="37.5836817" lon="15.1696167"><ele>68.0</ele><time>2026-04-24T16:49:57.549Z</time></trkpt><trkpt lat="37.5838317" lon="15.169625"><ele>69.0</ele><time>2026-04-24T16:49:58.548Z</time></trkpt><trkpt lat="37.58399" lon="15.1696333"><ele>70.0</ele><time>2026-04-24T16:49:59.549Z</time></trkpt><trkpt lat="37.58415" lon="15.169635"><ele>70.0</ele><time>2026-04-24T16:50:00.548Z</time></trkpt><trkpt lat="37.5843083" lon="15.1696233"><ele>70.0</ele><time>2026-04-24T16:50:01.549Z</time></trkpt><trkpt lat="37.5844633" lon="15.16961"><ele>70.0</ele><time>2026-04-24T16:50:02.549Z</time></trkpt><trkpt lat="37.58462" lon="15.1695983"><ele>70.75</ele><time>2026-04-24T16:50:03.549Z</time></trkpt><trkpt lat="37.5847667" lon="15.169585"><ele>71.5</ele><time>2026-04-24T16:50:04.548Z</time></trkpt><trkpt lat="37.58491" lon="15.1695667"><ele>72.25</ele><time>2026-04-24T16:50:05.549Z</time></trkpt><trkpt lat="37.5850533" lon="15.16955"><ele>73.0</ele><time>2026-04-24T16:50:06.549Z</time></trkpt><trkpt lat="37.5851933" lon="15.169535"><ele>73.0</ele><time>2026-04-24T16:50:07.549Z</time></trkpt><trkpt lat="37.58534" lon="15.1695167"><ele>73.0</ele><time>2026-04-24T16:50:08.548Z</time></trkpt><trkpt lat="37.5854917" lon="15.1695017"><ele>73.0</ele><time>2026-04-24T16:50:09.548Z</time></trkpt><trkpt lat="37.5856333" lon="15.1694867"><ele>73.0</ele><time>2026-04-24T16:50:10.549Z</time></trkpt><trkpt lat="37.5857817" lon="15.1694717"><ele>73.66666666666666</ele><time>2026-04-24T16:50:11.549Z</time></trkpt><trkpt lat="37.5859383" lon="15.1694517"><ele>74.33333333333333</ele><time>2026-04-24T16:50:12.549Z</time></trkpt><trkpt lat="37.5860933" lon="15.1694433"><ele>75.0</ele><time>2026-04-24T16:50:13.549Z</time></trkpt><trkpt lat="37.5862433" lon="15.169425"><ele>77.33333333333333</ele><time>2026-04-24T16:50:14.549Z</time></trkpt><trkpt lat="37.5863967" lon="15.1694133"><ele>79.66666666666666</ele><time>2026-04-24T16:50:15.549Z</time></trkpt><trkpt lat="37.58655" lon="15.1693967"><ele>82.0</ele><time>2026-04-24T16:50:16.549Z</time></trkpt><trkpt lat="37.586705" lon="15.1693833"><ele>82.0</ele><time>2026-04-24T16:50:17.548Z</time></trkpt><trkpt lat="37.586865" lon="15.16937"><ele>82.0</ele><time>2026-04-24T16:50:18.549Z</time></trkpt><trkpt lat="37.5870283" lon="15.1693533"><ele>82.0</ele><time>2026-04-24T16:50:19.549Z</time></trkpt><trkpt lat="37.58719" lon="15.1693383"><ele>84.0</ele><time>2026-04-24T16:50:20.549Z</time></trkpt><trkpt lat="37.58736" lon="15.169325"><ele>86.0</ele><time>2026-04-24T16:50:21.549Z</time></trkpt><trkpt lat="37.5875283" lon="15.16931"><ele>88.0</ele><time>2026-04-24T16:50:22.549Z</time></trkpt><trkpt lat="37.5876917" lon="15.1692933"><ele>88.66666666666666</ele><time>2026-04-24T16:50:23.549Z</time></trkpt><trkpt lat="37.5878517" lon="15.1692717"><ele>89.33333333333333</ele><time>2026-04-24T16:50:24.548Z</time></trkpt><trkpt lat="37.5880183" lon="15.169255"><ele>90.0</ele><time>2026-04-24T16:50:25.549Z</time></trkpt><trkpt lat="37.5881833" lon="15.1692383"><ele>90.0</ele><time>2026-04-24T16:50:26.548Z</time></trkpt><trkpt lat="37.588345" lon="15.1692233"><ele>90.0</ele><time>2026-04-24T16:50:27.549Z</time></trkpt><trkpt lat="37.5885183" lon="15.1692067"><ele>90.0</ele><time>2026-04-24T16:50:28.549Z</time></trkpt><trkpt lat="37.588685" lon="15.16919"><ele>92.66666666666666</ele><time>2026-04-24T16:50:29.549Z</time></trkpt><trkpt lat="37.58885" lon="15.169175"><ele>95.33333333333333</ele><time>2026-04-24T16:50:30.549Z</time></trkpt><trkpt lat="37.5890117" lon="15.1691617"><ele>98.0</ele><time>2026-04-24T16:50:31.548Z</time></trkpt><trkpt lat="37.589165" lon="15.1691467"><ele>98.0</ele><time>2026-04-24T16:50:32.549Z</time></trkpt><trkpt lat="37.5893233" lon="15.16913"><ele>98.0</ele><time>2026-04-24T16:50:33.549Z</time></trkpt><trkpt lat="37.589485" lon="15.1691083"><ele>98.0</ele><time>2026-04-24T16:50:34.548Z</time></trkpt><trkpt lat="37.5896517" lon="15.169095"><ele>98.0</ele><time>2026-04-24T16:50:35.548Z</time></trkpt><trkpt lat="37.58982" lon="15.169085"><ele>98.0</ele><time>2026-04-24T16:50:36.549Z</time></trkpt><trkpt lat="37.589995" lon="15.1690733"><ele>98.0</ele><time>2026-04-24T16:50:37.548Z</time></trkpt><trkpt lat="37.5901583" lon="15.1690533"><ele>98.0</ele><time>2026-04-24T16:50:38.549Z</time></trkpt><trkpt lat="37.590325" lon="15.1690317"><ele>98.0</ele><time>2026-04-24T16:50:39.549Z</time></trkpt><trkpt lat="37.5904917" lon="15.16902"><ele>98.0</ele><time>2026-04-24T16:50:40.549Z</time></trkpt><trkpt lat="37.590655" lon="15.1689967"><ele>98.33333333333333</ele><time>2026-04-24T16:50:41.549Z</time></trkpt><trkpt lat="37.5908117" lon="15.1689783"><ele>98.66666666666666</ele><time>2026-04-24T16:50:42.548Z</time></trkpt><trkpt lat="37.5909683" lon="15.1689667"><ele>99.0</ele><time>2026-04-24T16:50:43.549Z</time></trkpt><trkpt lat="37.5911233" lon="15.1689567"><ele>100.0</ele><time>2026-04-24T16:50:44.548Z</time></trkpt><trkpt lat="37.591285" lon="15.1689433"><ele>101.0</ele><time>2026-04-24T16:50:45.548Z</time></trkpt><trkpt lat="37.5914483" lon="15.168925"><ele>102.0</ele><time>2026-04-24T16:50:46.549Z</time></trkpt><trkpt lat="37.5916067" lon="15.1688983"><ele>102.0</ele><time>2026-04-24T16:50:47.548Z</time></trkpt><trkpt lat="37.5917733" lon="15.168875"><ele>102.0</ele><time>2026-04-24T16:50:48.549Z</time></trkpt><trkpt lat="37.591935" lon="15.1688633"><ele>102.0</ele><time>2026-04-24T16:50:49.549Z</time></trkpt><trkpt lat="37.5921133" lon="15.16884"><ele>100.33333333333334</ele><time>2026-04-24T16:50:50.549Z</time></trkpt><trkpt lat="37.5922883" lon="15.16883"><ele>98.66666666666667</ele><time>2026-04-24T16:50:51.548Z</time></trkpt><trkpt lat="37.5924517" lon="15.16882"><ele>97.0</ele><time>2026-04-24T16:50:52.548Z</time></trkpt><trkpt lat="37.5926067" lon="15.1688067"><ele>97.0</ele><time>2026-04-24T16:50:53.549Z</time></trkpt><trkpt lat="37.5927633" lon="15.1687917"><ele>97.0</ele><time>2026-04-24T16:50:54.548Z</time></trkpt><trkpt lat="37.592925" lon="15.1687783"><ele>97.0</ele><time>2026-04-24T16:50:55.548Z</time></trkpt><trkpt lat="37.5930917" lon="15.1687667"><ele>98.0</ele><time>2026-04-24T16:50:56.549Z</time></trkpt><trkpt lat="37.5932567" lon="15.168755"><ele>99.0</ele><time>2026-04-24T16:50:57.548Z</time></trkpt><trkpt lat="37.5934183" lon="15.1687433"><ele>100.0</ele><time>2026-04-24T16:50:58.548Z</time></trkpt><trkpt lat="37.5935783" lon="15.1687333"><ele>100.33333333333334</ele><time>2026-04-24T16:50:59.549Z</time></trkpt><trkpt lat="37.59374" lon="15.1687233"><ele>100.66666666666666</ele><time>2026-04-24T16:51:00.549Z</time></trkpt><trkpt lat="37.5939033" lon="15.168715"><ele>101.0</ele><time>2026-04-24T16:51:01.549Z</time></trkpt><trkpt lat="37.5940683" lon="15.168705"><ele>101.0</ele><time>2026-04-24T16:51:02.548Z</time></trkpt><trkpt lat="37.59423" lon="15.168695"><ele>101.0</ele><time>2026-04-24T16:51:03.548Z</time></trkpt><trkpt lat="37.5943917" lon="15.16868"><ele>101.0</ele><time>2026-04-24T16:51:04.549Z</time></trkpt><trkpt lat="37.594545" lon="15.1686717"><ele>100.33333333333333</ele><time>2026-04-24T16:51:05.549Z</time></trkpt><trkpt lat="37.5947033" lon="15.1686417"><ele>99.66666666666666</ele><time>2026-04-24T16:51:06.549Z</time></trkpt><trkpt lat="37.59488" lon="15.1686117"><ele>99.0</ele><time>2026-04-24T16:51:07.548Z</time></trkpt><trkpt lat="37.59504" lon="15.1685667"><ele>99.0</ele><time>2026-04-24T16:51:08.549Z</time></trkpt><trkpt lat="37.595205" lon="15.1685183"><ele>99.0</ele><time>2026-04-24T16:51:09.548Z</time></trkpt><trkpt lat="37.5953583" lon="15.16847"><ele>99.0</ele><time>2026-04-24T16:51:10.549Z</time></trkpt><trkpt lat="37.595515" lon="15.168415"><ele>99.33333333333334</ele><time>2026-04-24T16:51:11.549Z</time></trkpt><trkpt lat="37.5956717" lon="15.1683517"><ele>99.66666666666667</ele><time>2026-04-24T16:51:12.548Z</time></trkpt><trkpt lat="37.5958217" lon="15.1682883"><ele>100.0</ele><time>2026-04-24T16:51:13.549Z</time></trkpt><trkpt lat="37.5959683" lon="15.1682133"><ele>101.66666666666667</ele><time>2026-04-24T16:51:14.548Z</time></trkpt><trkpt lat="37.59611" lon="15.1681417"><ele>103.33333333333334</ele><time>2026-04-24T16:51:15.549Z</time></trkpt><trkpt lat="37.5962567" lon="15.1680683"><ele>105.0</ele><time>2026-04-24T16:51:16.549Z</time></trkpt><trkpt lat="37.5964017" lon="15.167995"><ele>105.5</ele><time>2026-04-24T16:51:17.549Z</time></trkpt><trkpt lat="37.59654" lon="15.167925"><ele>106.0</ele><time>2026-04-24T16:51:18.548Z</time></trkpt><trkpt lat="37.5966617" lon="15.16787"><ele>106.5</ele><time>2026-04-24T16:51:19.549Z</time></trkpt><trkpt lat="37.5967833" lon="15.1678233"><ele>107.0</ele><time>2026-04-24T16:51:20.549Z</time></trkpt><trkpt lat="37.5968983" lon="15.1677867"><ele>107.0</ele><time>2026-04-24T16:51:21.549Z</time></trkpt><trkpt lat="37.59699" lon="15.16776"><ele>106.99999999999999</ele><time>2026-04-24T16:51:22.548Z</time></trkpt><trkpt lat="37.5970617" lon="15.1677417"><ele>106.99999999999999</ele><time>2026-04-24T16:51:23.548Z</time></trkpt><trkpt lat="37.5971583" lon="15.1677333"><ele>107.0</ele><time>2026-04-24T16:51:25.549Z</time></trkpt><trkpt lat="37.597235" lon="15.16776"><ele>107.0</ele><time>2026-04-24T16:51:28.548Z</time></trkpt><trkpt lat="37.5973333" lon="15.1678367"><ele>106.99999999999999</ele><time>2026-04-24T16:51:30.549Z</time></trkpt><trkpt lat="37.597455" lon="15.1678817"><ele>107.0</ele><time>2026-04-24T16:51:32.549Z</time></trkpt><trkpt lat="37.5975617" lon="15.1678233"><ele>107.0</ele><time>2026-04-24T16:51:34.549Z</time></trkpt><trkpt lat="37.597605" lon="15.1677583"><ele>107.0</ele><time>2026-04-24T16:51:35.549Z</time></trkpt><trkpt lat="37.5976233" lon="15.167675"><ele>106.99999999999999</ele><time>2026-04-24T16:51:36.548Z</time></trkpt><trkpt lat="37.5976183" lon="15.1675883"><ele>107.0</ele><time>2026-04-24T16:51:37.549Z</time></trkpt><trkpt lat="37.5975933" lon="15.1675033"><ele>106.99999999999999</ele><time>2026-04-24T16:51:38.548Z</time></trkpt><trkpt lat="37.5975517" lon="15.1674233"><ele>107.0</ele><time>2026-04-24T16:51:39.548Z</time></trkpt><trkpt lat="37.597505" lon="15.1673417"><ele>107.0</ele><time>2026-04-24T16:51:40.549Z</time></trkpt><trkpt lat="37.597465" lon="15.1672483"><ele>107.0</ele><time>2026-04-24T16:51:41.548Z</time></trkpt><trkpt lat="37.5974483" lon="15.1671633"><ele>106.99999999999999</ele><time>2026-04-24T16:51:42.549Z</time></trkpt><trkpt lat="37.597445" lon="15.16703"><ele>107.0</ele><time>2026-04-24T16:51:44.548Z</time></trkpt><trkpt lat="37.59745" lon="15.166945"><ele>108.16666666666666</ele><time>2026-04-24T16:51:46.549Z</time></trkpt><trkpt lat="37.5974483" lon="15.16684"><ele>109.33333333333333</ele><time>2026-04-24T16:52:04.549Z</time></trkpt><trkpt lat="37.597425" lon="15.1667533"><ele>110.5</ele><time>2026-04-24T16:52:07.549Z</time></trkpt><trkpt lat="37.59736" lon="15.166705"><ele>111.66666666666666</ele><time>2026-04-24T16:52:09.548Z</time></trkpt><trkpt lat="37.5972583" lon="15.1667"><ele>112.83333333333333</ele><time>2026-04-24T16:52:11.548Z</time></trkpt><trkpt lat="37.5971933" lon="15.1666783"><ele>114.0</ele><time>2026-04-24T16:52:13.549Z</time></trkpt><trkpt lat="37.59715" lon="15.1665967"><ele>114.0</ele><time>2026-04-24T16:52:17.548Z</time></trkpt><trkpt lat="37.5972883" lon="15.1665883"><ele>114.0</ele><time>2026-04-24T16:53:44.548Z</time></trkpt><trkpt lat="37.5973267" lon="15.1665"><ele>114.0</ele><time>2026-04-24T16:54:06.548Z</time></trkpt><trkpt lat="37.597295" lon="15.166575"><ele>114.0</ele><time>2026-04-24T16:54:37.548Z</time></trkpt><trkpt lat="37.5973283" lon="15.1667283"><ele>114.0</ele><time>2026-04-24T16:55:11.547Z</time></trkpt><trkpt lat="37.59728" lon="15.1666483"><ele>114.0</ele><time>2026-04-24T16:55:32.548Z</time></trkpt><trkpt lat="37.5971833" lon="15.1665317"><ele>114.0</ele><time>2026-04-24T16:55:56.548Z</time></trkpt><trkpt lat="37.59712" lon="15.1665867"><ele>114.0</ele><time>2026-04-24T17:06:52.548Z</time></trkpt><trkpt lat="37.5971383" lon="15.1667367"><ele>114.0</ele><time>2026-04-24T17:07:35.548Z</time></trkpt><trkpt lat="37.597225" lon="15.166785"><ele>114.0</ele><time>2026-04-24T17:07:38.548Z</time></trkpt><trkpt lat="37.5973067" lon="15.1668233"><ele>114.0</ele><time>2026-04-24T17:07:41.547Z</time></trkpt><trkpt lat="37.5973467" lon="15.1669017"><ele>114.0</ele><time>2026-04-24T17:07:44.548Z</time></trkpt><trkpt lat="37.5973617" lon="15.1670233"><ele>114.0</ele><time>2026-04-24T17:07:47.548Z</time></trkpt><trkpt lat="37.597385" lon="15.1671317"><ele>114.0</ele><time>2026-04-24T17:07:49.547Z</time></trkpt><trkpt lat="37.5973983" lon="15.1672417"><ele>114.0</ele><time>2026-04-24T17:07:52.547Z</time></trkpt><trkpt lat="37.5973967" lon="15.1673417"><ele>114.0</ele><time>2026-04-24T17:07:55.547Z</time></trkpt><trkpt lat="37.5973433" lon="15.16744"><ele>112.83333333333333</ele><time>2026-04-24T17:07:57.548Z</time></trkpt><trkpt lat="37.59729" lon="15.167575"><ele>111.66666666666666</ele><time>2026-04-24T17:07:59.547Z</time></trkpt><trkpt lat="37.5973067" lon="15.1677267"><ele>110.5</ele><time>2026-04-24T17:08:01.548Z</time></trkpt><trkpt lat="37.59734" lon="15.1677967"><ele>109.33333333333333</ele><time>2026-04-24T17:08:02.548Z</time></trkpt><trkpt lat="37.5974017" lon="15.1678383"><ele>108.16666666666666</ele><time>2026-04-24T17:08:03.548Z</time></trkpt><trkpt lat="37.5974683" lon="15.1678583"><ele>107.0</ele><time>2026-04-24T17:08:04.548Z</time></trkpt><trkpt lat="37.597535" lon="15.1678383"><ele>106.99999999999999</ele><time>2026-04-24T17:08:05.548Z</time></trkpt><trkpt lat="37.5976" lon="15.1677867"><ele>107.0</ele><time>2026-04-24T17:08:06.548Z</time></trkpt><trkpt lat="37.5976483" lon="15.1677"><ele>107.0</ele><time>2026-04-24T17:08:07.547Z</time></trkpt><trkpt lat="37.5976917" lon="15.1676183"><ele>107.0</ele><time>2026-04-24T17:08:08.547Z</time></trkpt><trkpt lat="37.597745" lon="15.1675483"><ele>106.99999999999999</ele><time>2026-04-24T17:08:09.548Z</time></trkpt><trkpt lat="37.5978117" lon="15.167495"><ele>107.0</ele><time>2026-04-24T17:08:10.548Z</time></trkpt><trkpt lat="37.5978917" lon="15.1674417"><ele>107.19999999999999</ele><time>2026-04-24T17:08:11.548Z</time></trkpt><trkpt lat="37.5979783" lon="15.1673917"><ele>107.39999999999999</ele><time>2026-04-24T17:08:12.548Z</time></trkpt><trkpt lat="37.59807" lon="15.1673333"><ele>107.60000000000001</ele><time>2026-04-24T17:08:13.547Z</time></trkpt><trkpt lat="37.5981617" lon="15.1672883"><ele>107.80000000000001</ele><time>2026-04-24T17:08:14.548Z</time></trkpt><trkpt lat="37.598255" lon="15.16724"><ele>108.0</ele><time>2026-04-24T17:08:15.548Z</time></trkpt><trkpt lat="37.5983567" lon="15.1672083"><ele>108.75</ele><time>2026-04-24T17:08:16.548Z</time></trkpt><trkpt lat="37.5984683" lon="15.1671833"><ele>109.5</ele><time>2026-04-24T17:08:17.548Z</time></trkpt><trkpt lat="37.598595" lon="15.167185"><ele>110.25</ele><time>2026-04-24T17:08:18.548Z</time></trkpt><trkpt lat="37.5987117" lon="15.1672083"><ele>111.0</ele><time>2026-04-24T17:08:19.548Z</time></trkpt><trkpt lat="37.59883" lon="15.16725"><ele>111.0</ele><time>2026-04-24T17:08:20.548Z</time></trkpt><trkpt lat="37.59896" lon="15.1672967"><ele>111.0</ele><time>2026-04-24T17:08:21.547Z</time></trkpt><trkpt lat="37.5990933" lon="15.167345"><ele>111.0</ele><time>2026-04-24T17:08:22.547Z</time></trkpt><trkpt lat="37.5992283" lon="15.1673883"><ele>111.0</ele><time>2026-04-24T17:08:23.548Z</time></trkpt><trkpt lat="37.5993633" lon="15.1674433"><ele>111.0</ele><time>2026-04-24T17:08:24.548Z</time></trkpt><trkpt lat="37.599495" lon="15.167495"><ele>111.0</ele><time>2026-04-24T17:08:25.548Z</time></trkpt><trkpt lat="37.5996333" lon="15.1675467"><ele>111.0</ele><time>2026-04-24T17:08:26.547Z</time></trkpt><trkpt lat="37.5997683" lon="15.1676"><ele>111.0</ele><time>2026-04-24T17:08:27.548Z</time></trkpt><trkpt lat="37.5999083" lon="15.16765"><ele>111.0</ele><time>2026-04-24T17:08:28.547Z</time></trkpt><trkpt lat="37.600055" lon="15.167695"><ele>111.0</ele><time>2026-04-24T17:08:29.548Z</time></trkpt><trkpt lat="37.60019" lon="15.1677617"><ele>111.0</ele><time>2026-04-24T17:08:30.548Z</time></trkpt><trkpt lat="37.600335" lon="15.16781"><ele>111.0</ele><time>2026-04-24T17:08:31.547Z</time></trkpt><trkpt lat="37.600485" lon="15.167875"><ele>111.33333333333334</ele><time>2026-04-24T17:08:32.547Z</time></trkpt><trkpt lat="37.6006417" lon="15.167935"><ele>111.66666666666667</ele><time>2026-04-24T17:08:33.548Z</time></trkpt><trkpt lat="37.600795" lon="15.167995"><ele>112.0</ele><time>2026-04-24T17:08:34.548Z</time></trkpt><trkpt lat="37.6009317" lon="15.1680467"><ele>112.0</ele><time>2026-04-24T17:08:35.547Z</time></trkpt><trkpt lat="37.6010733" lon="15.1681"><ele>112.0</ele><time>2026-04-24T17:08:36.548Z</time></trkpt><trkpt lat="37.6012067" lon="15.168145"><ele>112.0</ele><time>2026-04-24T17:08:37.548Z</time></trkpt><trkpt lat="37.60135" lon="15.1682"><ele>112.0</ele><time>2026-04-24T17:08:38.547Z</time></trkpt><trkpt lat="37.6014883" lon="15.1682617"><ele>112.5</ele><time>2026-04-24T17:08:39.547Z</time></trkpt><trkpt lat="37.6016317" lon="15.16832"><ele>113.0</ele><time>2026-04-24T17:08:40.547Z</time></trkpt><trkpt lat="37.6017783" lon="15.16838"><ele>113.5</ele><time>2026-04-24T17:08:41.547Z</time></trkpt><trkpt lat="37.6019117" lon="15.1684367"><ele>114.0</ele><time>2026-04-24T17:08:42.548Z</time></trkpt><trkpt lat="37.6020517" lon="15.1684867"><ele>115.5</ele><time>2026-04-24T17:08:43.547Z</time></trkpt><trkpt lat="37.6021933" lon="15.16855"><ele>117.0</ele><time>2026-04-24T17:08:44.548Z</time></trkpt><trkpt lat="37.6023233" lon="15.16862"><ele>118.5</ele><time>2026-04-24T17:08:45.548Z</time></trkpt><trkpt lat="37.6024567" lon="15.16868"><ele>120.0</ele><time>2026-04-24T17:08:46.548Z</time></trkpt><trkpt lat="37.602595" lon="15.1687333"><ele>120.0</ele><time>2026-04-24T17:08:47.547Z</time></trkpt><trkpt lat="37.6027333" lon="15.1687917"><ele>120.0</ele><time>2026-04-24T17:08:48.548Z</time></trkpt><trkpt lat="37.60287" lon="15.1688317"><ele>120.0</ele><time>2026-04-24T17:08:49.547Z</time></trkpt><trkpt lat="37.603005" lon="15.1688783"><ele>120.0</ele><time>2026-04-24T17:08:50.547Z</time></trkpt><trkpt lat="37.6031383" lon="15.1689233"><ele>120.0</ele><time>2026-04-24T17:08:51.548Z</time></trkpt><trkpt lat="37.60327" lon="15.16897"><ele>120.0</ele><time>2026-04-24T17:08:52.548Z</time></trkpt><trkpt lat="37.6033983" lon="15.1690267"><ele>120.0</ele><time>2026-04-24T17:08:53.548Z</time></trkpt><trkpt lat="37.6035333" lon="15.16908"><ele>120.0</ele><time>2026-04-24T17:08:54.548Z</time></trkpt><trkpt lat="37.6036733" lon="15.1691383"><ele>118.25</ele><time>2026-04-24T17:08:55.548Z</time></trkpt><trkpt lat="37.6038133" lon="15.1691867"><ele>116.5</ele><time>2026-04-24T17:08:56.548Z</time></trkpt><trkpt lat="37.60395" lon="15.1692283"><ele>114.75</ele><time>2026-04-24T17:08:57.547Z</time></trkpt><trkpt lat="37.6040867" lon="15.1692517"><ele>113.0</ele><time>2026-04-24T17:08:58.547Z</time></trkpt><trkpt lat="37.6042317" lon="15.1692683"><ele>113.0</ele><time>2026-04-24T17:08:59.547Z</time></trkpt><trkpt lat="37.6043717" lon="15.1692717"><ele>113.0</ele><time>2026-04-24T17:09:00.548Z</time></trkpt><trkpt lat="37.6045167" lon="15.1692633"><ele>113.0</ele><time>2026-04-24T17:09:01.548Z</time></trkpt><trkpt lat="37.6046567" lon="15.16925"><ele>113.0</ele><time>2026-04-24T17:09:02.547Z</time></trkpt><trkpt lat="37.604795" lon="15.169225"><ele>113.0</ele><time>2026-04-24T17:09:03.548Z</time></trkpt><trkpt lat="37.6049317" lon="15.16919"><ele>113.0</ele><time>2026-04-24T17:09:04.547Z</time></trkpt><trkpt lat="37.6050633" lon="15.1691517"><ele>113.0</ele><time>2026-04-24T17:09:05.547Z</time></trkpt><trkpt lat="37.6051833" lon="15.1691117"><ele>113.0</ele><time>2026-04-24T17:09:06.547Z</time></trkpt><trkpt lat="37.6053" lon="15.1690567"><ele>116.25</ele><time>2026-04-24T17:09:07.547Z</time></trkpt><trkpt lat="37.60542" lon="15.169005"><ele>119.5</ele><time>2026-04-24T17:09:08.547Z</time></trkpt><trkpt lat="37.6055383" lon="15.1689517"><ele>122.75</ele><time>2026-04-24T17:09:09.547Z</time></trkpt><trkpt lat="37.605665" lon="15.1689"><ele>126.0</ele><time>2026-04-24T17:09:10.547Z</time></trkpt><trkpt lat="37.6057933" lon="15.168855"><ele>126.0</ele><time>2026-04-24T17:09:11.547Z</time></trkpt><trkpt lat="37.6059217" lon="15.168825"><ele>126.0</ele><time>2026-04-24T17:09:12.547Z</time></trkpt><trkpt lat="37.60605" lon="15.168795"><ele>126.0</ele><time>2026-04-24T17:09:13.548Z</time></trkpt><trkpt lat="37.6061783" lon="15.1687817"><ele>126.0</ele><time>2026-04-24T17:09:14.548Z</time></trkpt><trkpt lat="37.6062967" lon="15.16878"><ele>126.0</ele><time>2026-04-24T17:09:15.548Z</time></trkpt><trkpt lat="37.60641" lon="15.1687833"><ele>126.0</ele><time>2026-04-24T17:09:16.548Z</time></trkpt><trkpt lat="37.6065167" lon="15.1687867"><ele>126.0</ele><time>2026-04-24T17:09:17.547Z</time></trkpt><trkpt lat="37.6066233" lon="15.168805"><ele>126.0</ele><time>2026-04-24T17:09:18.547Z</time></trkpt><trkpt lat="37.6067417" lon="15.1688333"><ele>126.0</ele><time>2026-04-24T17:09:19.547Z</time></trkpt><trkpt lat="37.6068533" lon="15.1688583"><ele>126.0</ele><time>2026-04-24T17:09:20.548Z</time></trkpt><trkpt lat="37.6069683" lon="15.168895"><ele>126.0</ele><time>2026-04-24T17:09:21.548Z</time></trkpt><trkpt lat="37.607095" lon="15.168935"><ele>126.0</ele><time>2026-04-24T17:09:22.548Z</time></trkpt><trkpt lat="37.607225" lon="15.1689683"><ele>126.0</ele><time>2026-04-24T17:09:23.548Z</time></trkpt><trkpt lat="37.6073567" lon="15.1690033"><ele>125.75</ele><time>2026-04-24T17:09:24.548Z</time></trkpt><trkpt lat="37.6074933" lon="15.1690367"><ele>125.5</ele><time>2026-04-24T17:09:25.548Z</time></trkpt><trkpt lat="37.6076367" lon="15.169075"><ele>125.25</ele><time>2026-04-24T17:09:26.548Z</time></trkpt><trkpt lat="37.6077767" lon="15.169105"><ele>125.0</ele><time>2026-04-24T17:09:27.548Z</time></trkpt><trkpt lat="37.60792" lon="15.1691417"><ele>125.0</ele><time>2026-04-24T17:09:28.547Z</time></trkpt><trkpt lat="37.6080717" lon="15.1691783"><ele>125.0</ele><time>2026-04-24T17:09:29.547Z</time></trkpt><trkpt lat="37.6082333" lon="15.1692183"><ele>125.0</ele><time>2026-04-24T17:09:30.548Z</time></trkpt><trkpt lat="37.60839" lon="15.1692633"><ele>125.0</ele><time>2026-04-24T17:09:31.548Z</time></trkpt><trkpt lat="37.6085483" lon="15.169305"><ele>125.0</ele><time>2026-04-24T17:09:32.547Z</time></trkpt><trkpt lat="37.60871" lon="15.1693433"><ele>125.0</ele><time>2026-04-24T17:09:33.547Z</time></trkpt><trkpt lat="37.6088767" lon="15.169385"><ele>125.66666666666666</ele><time>2026-04-24T17:09:34.547Z</time></trkpt><trkpt lat="37.60904" lon="15.1694233"><ele>126.33333333333334</ele><time>2026-04-24T17:09:35.547Z</time></trkpt><trkpt lat="37.6092" lon="15.16947"><ele>127.0</ele><time>2026-04-24T17:09:36.548Z</time></trkpt><trkpt lat="37.6093567" lon="15.169515"><ele>128.66666666666669</ele><time>2026-04-24T17:09:37.548Z</time></trkpt><trkpt lat="37.609515" lon="15.1695467"><ele>130.33333333333334</ele><time>2026-04-24T17:09:38.548Z</time></trkpt><trkpt lat="37.60967" lon="15.1695867"><ele>132.0</ele><time>2026-04-24T17:09:39.547Z</time></trkpt><trkpt lat="37.6098283" lon="15.1696067"><ele>132.0</ele><time>2026-04-24T17:09:40.547Z</time></trkpt><trkpt lat="37.6099767" lon="15.1696633"><ele>132.0</ele><time>2026-04-24T17:09:41.548Z</time></trkpt><trkpt lat="37.6101183" lon="15.1697133"><ele>132.0</ele><time>2026-04-24T17:09:42.547Z</time></trkpt><trkpt lat="37.6102567" lon="15.1697567"><ele>132.0</ele><time>2026-04-24T17:09:43.548Z</time></trkpt><trkpt lat="37.61039" lon="15.1698067"><ele>133.25</ele><time>2026-04-24T17:09:44.548Z</time></trkpt><trkpt lat="37.6105283" lon="15.1698583"><ele>134.5</ele><time>2026-04-24T17:09:45.548Z</time></trkpt><trkpt lat="37.610665" lon="15.1699267"><ele>135.75</ele><time>2026-04-24T17:09:46.547Z</time></trkpt><trkpt lat="37.6108067" lon="15.1700033"><ele>137.0</ele><time>2026-04-24T17:09:47.548Z</time></trkpt><trkpt lat="37.6109417" lon="15.170075"><ele>135.66666666666666</ele><time>2026-04-24T17:09:48.548Z</time></trkpt><trkpt lat="37.6110833" lon="15.1701617"><ele>134.33333333333334</ele><time>2026-04-24T17:09:49.547Z</time></trkpt><trkpt lat="37.6112283" lon="15.1702517"><ele>133.0</ele><time>2026-04-24T17:09:50.547Z</time></trkpt><trkpt lat="37.6113617" lon="15.1703367"><ele>133.0</ele><time>2026-04-24T17:09:51.548Z</time></trkpt><trkpt lat="37.611505" lon="15.170415"><ele>133.0</ele><time>2026-04-24T17:09:52.547Z</time></trkpt><trkpt lat="37.6116433" lon="15.1705033"><ele>133.0</ele><time>2026-04-24T17:09:53.547Z</time></trkpt><trkpt lat="37.611785" lon="15.1705833"><ele>133.0</ele><time>2026-04-24T17:09:54.548Z</time></trkpt><trkpt lat="37.61193" lon="15.17065"><ele>133.0</ele><time>2026-04-24T17:09:55.548Z</time></trkpt><trkpt lat="37.6120717" lon="15.1707217"><ele>133.0</ele><time>2026-04-24T17:09:56.548Z</time></trkpt><trkpt lat="37.612215" lon="15.1707883"><ele>131.66666666666669</ele><time>2026-04-24T17:09:57.548Z</time></trkpt><trkpt lat="37.6123583" lon="15.17086"><ele>130.33333333333334</ele><time>2026-04-24T17:09:58.548Z</time></trkpt><trkpt lat="37.6124983" lon="15.1709367"><ele>129.0</ele><time>2026-04-24T17:09:59.547Z</time></trkpt><trkpt lat="37.61264" lon="15.17102"><ele>129.0</ele><time>2026-04-24T17:10:00.548Z</time></trkpt><trkpt lat="37.6127883" lon="15.1710917"><ele>129.0</ele><time>2026-04-24T17:10:01.548Z</time></trkpt><trkpt lat="37.6129367" lon="15.171145"><ele>129.0</ele><time>2026-04-24T17:10:02.548Z</time></trkpt><trkpt lat="37.613085" lon="15.17118"><ele>130.33333333333334</ele><time>2026-04-24T17:10:03.548Z</time></trkpt><trkpt lat="37.6132333" lon="15.171205"><ele>131.66666666666669</ele><time>2026-04-24T17:10:04.548Z</time></trkpt><trkpt lat="37.6133883" lon="15.171215"><ele>133.0</ele><time>2026-04-24T17:10:05.547Z</time></trkpt><trkpt lat="37.61354" lon="15.1712183"><ele>133.75</ele><time>2026-04-24T17:10:06.548Z</time></trkpt><trkpt lat="37.6136883" lon="15.1712117"><ele>134.5</ele><time>2026-04-24T17:10:07.547Z</time></trkpt><trkpt lat="37.6138383" lon="15.1711883"><ele>135.25</ele><time>2026-04-24T17:10:08.548Z</time></trkpt><trkpt lat="37.613985" lon="15.1711583"><ele>136.0</ele><time>2026-04-24T17:10:09.547Z</time></trkpt><trkpt lat="37.6141283" lon="15.1711233"><ele>136.0</ele><time>2026-04-24T17:10:10.548Z</time></trkpt><trkpt lat="37.6142617" lon="15.1710833"><ele>136.0</ele><time>2026-04-24T17:10:11.547Z</time></trkpt><trkpt lat="37.6144017" lon="15.1710383"><ele>136.0</ele><time>2026-04-24T17:10:12.547Z</time></trkpt><trkpt lat="37.6145383" lon="15.1709917"><ele>136.0</ele><time>2026-04-24T17:10:13.548Z</time></trkpt><trkpt lat="37.614675" lon="15.17095"><ele>136.0</ele><time>2026-04-24T17:10:14.548Z</time></trkpt><trkpt lat="37.6148067" lon="15.1709083"><ele>136.0</ele><time>2026-04-24T17:10:15.548Z</time></trkpt><trkpt lat="37.6149367" lon="15.1708617"><ele>136.0</ele><time>2026-04-24T17:10:16.547Z</time></trkpt><trkpt lat="37.6150633" lon="15.1708233"><ele>136.0</ele><time>2026-04-24T17:10:17.548Z</time></trkpt><trkpt lat="37.615195" lon="15.17079"><ele>135.0</ele><time>2026-04-24T17:10:18.548Z</time></trkpt><trkpt lat="37.6153233" lon="15.1707533"><ele>134.0</ele><time>2026-04-24T17:10:19.548Z</time></trkpt><trkpt lat="37.6154517" lon="15.17072"><ele>133.0</ele><time>2026-04-24T17:10:20.548Z</time></trkpt><trkpt lat="37.61558" lon="15.1706817"><ele>132.0</ele><time>2026-04-24T17:10:21.548Z</time></trkpt><trkpt lat="37.6157083" lon="15.170645"><ele>135.5</ele><time>2026-04-24T17:10:22.548Z</time></trkpt><trkpt lat="37.6158383" lon="15.170605"><ele>139.0</ele><time>2026-04-24T17:10:23.547Z</time></trkpt><trkpt lat="37.61597" lon="15.1705667"><ele>142.5</ele><time>2026-04-24T17:10:24.548Z</time></trkpt><trkpt lat="37.616105" lon="15.1705267"><ele>146.0</ele><time>2026-04-24T17:10:25.548Z</time></trkpt><trkpt lat="37.6162383" lon="15.1704883"><ele>147.25</ele><time>2026-04-24T17:10:26.547Z</time></trkpt><trkpt lat="37.616365" lon="15.170445"><ele>148.5</ele><time>2026-04-24T17:10:27.548Z</time></trkpt><trkpt lat="37.616495" lon="15.170385"><ele>149.75</ele><time>2026-04-24T17:10:28.548Z</time></trkpt><trkpt lat="37.6166167" lon="15.1703067"><ele>151.0</ele><time>2026-04-24T17:10:29.548Z</time></trkpt><trkpt lat="37.616735" lon="15.170225"><ele>151.0</ele><time>2026-04-24T17:10:30.548Z</time></trkpt><trkpt lat="37.6168533" lon="15.1701283"><ele>151.0</ele><time>2026-04-24T17:10:31.548Z</time></trkpt><trkpt lat="37.61697" lon="15.1700383"><ele>151.0</ele><time>2026-04-24T17:10:32.547Z</time></trkpt><trkpt lat="37.6170917" lon="15.1699467"><ele>151.0</ele><time>2026-04-24T17:10:33.548Z</time></trkpt><trkpt lat="37.617205" lon="15.169875"><ele>156.25</ele><time>2026-04-24T17:10:34.547Z</time></trkpt><trkpt lat="37.61733" lon="15.1698217"><ele>161.5</ele><time>2026-04-24T17:10:35.548Z</time></trkpt><trkpt lat="37.6174533" lon="15.1697867"><ele>166.75</ele><time>2026-04-24T17:10:36.547Z</time></trkpt><trkpt lat="37.6175817" lon="15.1697483"><ele>172.0</ele><time>2026-04-24T17:10:37.548Z</time></trkpt><trkpt lat="37.617715" lon="15.1697367"><ele>170.0</ele><time>2026-04-24T17:10:38.548Z</time></trkpt><trkpt lat="37.6178417" lon="15.1697417"><ele>168.0</ele><time>2026-04-24T17:10:39.548Z</time></trkpt><trkpt lat="37.6179633" lon="15.1697433"><ele>166.0</ele><time>2026-04-24T17:10:40.548Z</time></trkpt><trkpt lat="37.618085" lon="15.169755"><ele>164.0</ele><time>2026-04-24T17:10:41.548Z</time></trkpt><trkpt lat="37.6182033" lon="15.1697583"><ele>164.0</ele><time>2026-04-24T17:10:42.548Z</time></trkpt><trkpt lat="37.6183167" lon="15.1697683"><ele>164.0</ele><time>2026-04-24T17:10:43.548Z</time></trkpt><trkpt lat="37.61842" lon="15.169775"><ele>164.0</ele><time>2026-04-24T17:10:44.547Z</time></trkpt><trkpt lat="37.6185183" lon="15.1697783"><ele>164.0</ele><time>2026-04-24T17:10:45.547Z</time></trkpt><trkpt lat="37.6186033" lon="15.1697733"><ele>164.0</ele><time>2026-04-24T17:10:46.548Z</time></trkpt><trkpt lat="37.61868" lon="15.1697617"><ele>164.79999999999998</ele><time>2026-04-24T17:10:47.548Z</time></trkpt><trkpt lat="37.6187483" lon="15.1697417"><ele>165.6</ele><time>2026-04-24T17:10:48.548Z</time></trkpt><trkpt lat="37.618845" lon="15.1697117"><ele>166.4</ele><time>2026-04-24T17:10:50.548Z</time></trkpt><trkpt lat="37.6189467" lon="15.169675"><ele>167.2</ele><time>2026-04-24T17:12:36.548Z</time></trkpt><trkpt lat="37.61905" lon="15.169645"><ele>168.0</ele><time>2026-04-24T17:12:38.547Z</time></trkpt><trkpt lat="37.6191267" lon="15.1696367"><ele>168.0</ele><time>2026-04-24T17:12:40.548Z</time></trkpt><trkpt lat="37.619185" lon="15.169565"><ele>168.0</ele><time>2026-04-24T17:12:44.547Z</time></trkpt><trkpt lat="37.6191683" lon="15.1694867"><ele>168.0</ele><time>2026-04-24T17:12:46.548Z</time></trkpt><trkpt lat="37.6190867" lon="15.1694417"><ele>168.0</ele><time>2026-04-24T17:12:48.547Z</time></trkpt><trkpt lat="37.618955" lon="15.1694083"><ele>168.0</ele><time>2026-04-24T17:12:50.548Z</time></trkpt><trkpt lat="37.6188683" lon="15.169385"><ele>168.0</ele><time>2026-04-24T17:12:51.548Z</time></trkpt><trkpt lat="37.6187717" lon="15.169355"><ele>168.0</ele><time>2026-04-24T17:12:52.548Z</time></trkpt><trkpt lat="37.6186717" lon="15.16932"><ele>168.0</ele><time>2026-04-24T17:12:53.548Z</time></trkpt><trkpt lat="37.6185683" lon="15.1692833"><ele>168.0</ele><time>2026-04-24T17:12:54.548Z</time></trkpt><trkpt lat="37.61847" lon="15.1692433"><ele>168.0</ele><time>2026-04-24T17:12:55.547Z</time></trkpt><trkpt lat="37.6183767" lon="15.1692083"><ele>167.33333333333334</ele><time>2026-04-24T17:12:56.548Z</time></trkpt><trkpt lat="37.6182883" lon="15.1691833"><ele>166.66666666666666</ele><time>2026-04-24T17:12:57.547Z</time></trkpt><trkpt lat="37.6182117" lon="15.1691733"><ele>166.0</ele><time>2026-04-24T17:12:58.548Z</time></trkpt><trkpt lat="37.6181367" lon="15.169155"><ele>165.33333333333331</ele><time>2026-04-24T17:12:59.548Z</time></trkpt><trkpt lat="37.6180667" lon="15.1691433"><ele>164.66666666666666</ele><time>2026-04-24T17:13:00.548Z</time></trkpt><trkpt lat="37.6180033" lon="15.16912"><ele>164.0</ele><time>2026-04-24T17:13:01.548Z</time></trkpt><trkpt lat="37.6179033" lon="15.169075"><ele>164.0</ele><time>2026-04-24T17:13:03.548Z</time></trkpt><trkpt lat="37.617835" lon="15.1690283"><ele>164.0</ele><time>2026-04-24T17:13:05.547Z</time></trkpt><trkpt lat="37.6177983" lon="15.1689283"><ele>164.0</ele><time>2026-04-24T17:13:07.547Z</time></trkpt><trkpt lat="37.617775" lon="15.1687667"><ele>164.0</ele><time>2026-04-24T17:13:09.547Z</time></trkpt><trkpt lat="37.61775" lon="15.1686133"><ele>164.0</ele><time>2026-04-24T17:13:11.547Z</time></trkpt><trkpt lat="37.6177417" lon="15.1684617"><ele>165.0</ele><time>2026-04-24T17:13:13.548Z</time></trkpt><trkpt lat="37.6177267" lon="15.168305"><ele>166.0</ele><time>2026-04-24T17:13:15.547Z</time></trkpt><trkpt lat="37.61772" lon="15.1682233"><ele>167.0</ele><time>2026-04-24T17:13:16.548Z</time></trkpt><trkpt lat="37.617705" lon="15.16808"><ele>168.0</ele><time>2026-04-24T17:13:18.548Z</time></trkpt><trkpt lat="37.6176867" lon="15.1679433"><ele>169.0</ele><time>2026-04-24T17:13:20.548Z</time></trkpt><trkpt lat="37.6176817" lon="15.1678217"><ele>169.39999999999998</ele><time>2026-04-24T17:13:22.548Z</time></trkpt><trkpt lat="37.61767" lon="15.167695"><ele>169.8</ele><time>2026-04-24T17:13:24.547Z</time></trkpt><trkpt lat="37.6176533" lon="15.1675583"><ele>170.2</ele><time>2026-04-24T17:13:26.547Z</time></trkpt><trkpt lat="37.61764" lon="15.1674567"><ele>170.60000000000002</ele><time>2026-04-24T17:13:28.548Z</time></trkpt><trkpt lat="37.6176233" lon="15.167365"><ele>171.0</ele><time>2026-04-24T17:13:31.547Z</time></trkpt><trkpt lat="37.6176067" lon="15.1671683"><ele>171.5</ele><time>2026-04-24T17:13:43.548Z</time></trkpt><trkpt lat="37.6175883" lon="15.1670883"><ele>172.0</ele><time>2026-04-24T17:13:45.548Z</time></trkpt><trkpt lat="37.6175717" lon="15.16698"><ele>172.5</ele><time>2026-04-24T17:13:47.547Z</time></trkpt><trkpt lat="37.6175583" lon="15.1668817"><ele>173.0</ele><time>2026-04-24T17:13:49.548Z</time></trkpt><trkpt lat="37.617555" lon="15.1667933"><ele>173.5</ele><time>2026-04-24T17:13:51.548Z</time></trkpt><trkpt lat="37.617545" lon="15.1666967"><ele>174.0</ele><time>2026-04-24T17:13:53.547Z</time></trkpt><trkpt lat="37.6175467" lon="15.1666083"><ele>176.2</ele><time>2026-04-24T17:13:55.548Z</time></trkpt><trkpt lat="37.6175283" lon="15.1664267"><ele>178.39999999999998</ele><time>2026-04-24T17:14:03.548Z</time></trkpt><trkpt lat="37.61752" lon="15.166345"><ele>180.6</ele><time>2026-04-24T17:14:05.547Z</time></trkpt><trkpt lat="37.61748" lon="15.166255"><ele>182.8</ele><time>2026-04-24T17:14:08.547Z</time></trkpt><trkpt lat="37.6174667" lon="15.1661567"><ele>185.0</ele><time>2026-04-24T17:14:11.548Z</time></trkpt><trkpt lat="37.61745" lon="15.1660567"><ele>185.0</ele><time>2026-04-24T17:14:14.548Z</time></trkpt><trkpt lat="37.617435" lon="15.16596"><ele>185.0</ele><time>2026-04-24T17:14:20.547Z</time></trkpt><trkpt lat="37.617445" lon="15.1658583"><ele>185.0</ele><time>2026-04-24T17:14:23.548Z</time></trkpt><trkpt lat="37.6174233" lon="15.16571"><ele>185.0</ele><time>2026-04-24T17:14:35.548Z</time></trkpt><trkpt lat="37.6173917" lon="15.16562"><ele>185.0</ele><time>2026-04-24T17:14:38.547Z</time></trkpt><trkpt lat="37.6173533" lon="15.1655417"><ele>185.0</ele><time>2026-04-24T17:14:40.547Z</time></trkpt><trkpt lat="37.617335" lon="15.165455"><ele>185.0</ele><time>2026-04-24T17:14:42.547Z</time></trkpt><trkpt lat="37.6173233" lon="15.165375"><ele>185.0</ele><time>2026-04-24T17:14:44.548Z</time></trkpt><trkpt lat="37.6173067" lon="15.1652783"><ele>185.0</ele><time>2026-04-24T17:14:47.547Z</time></trkpt><trkpt lat="37.6172983" lon="15.16518"><ele>185.0</ele><time>2026-04-24T17:14:49.548Z</time></trkpt><trkpt lat="37.61727" lon="15.1650767"><ele>185.0</ele><time>2026-04-24T17:14:51.547Z</time></trkpt><trkpt lat="37.617265" lon="15.1649617"><ele>185.0</ele><time>2026-04-24T17:14:53.548Z</time></trkpt><trkpt lat="37.6172467" lon="15.1648483"><ele>185.0</ele><time>2026-04-24T17:14:55.548Z</time></trkpt><trkpt lat="37.6172317" lon="15.1647683"><ele>185.0</ele><time>2026-04-24T17:14:57.548Z</time></trkpt><trkpt lat="37.6172717" lon="15.16463"><ele>185.0</ele><time>2026-04-24T17:15:10.548Z</time></trkpt><trkpt lat="37.6172783" lon="15.1645283"><ele>185.0</ele><time>2026-04-24T17:15:12.547Z</time></trkpt><trkpt lat="37.6172617" lon="15.1644217"><ele>185.0</ele><time>2026-04-24T17:15:14.548Z</time></trkpt><trkpt lat="37.6172467" lon="15.1643217"><ele>185.0</ele><time>2026-04-24T17:15:16.548Z</time></trkpt><trkpt lat="37.6171733" lon="15.16417"><ele>185.0</ele><time>2026-04-24T17:15:39.548Z</time></trkpt><trkpt lat="37.6170917" lon="15.1642017"><ele>185.0</ele><time>2026-04-24T17:15:42.547Z</time></trkpt><trkpt lat="37.617035" lon="15.1642367"><ele>185.0</ele><time>2026-04-24T17:15:43.548Z</time></trkpt><trkpt lat="37.6169267" lon="15.1642733"><ele>185.0</ele><time>2026-04-24T17:15:45.547Z</time></trkpt><trkpt lat="37.6168367" lon="15.16429"><ele>185.0</ele><time>2026-04-24T17:15:47.548Z</time></trkpt><trkpt lat="37.616755" lon="15.1643117"><ele>185.0</ele><time>2026-04-24T17:15:49.548Z</time></trkpt><trkpt lat="37.61668" lon="15.1643517"><ele>184.16666666666666</ele><time>2026-04-24T17:15:51.547Z</time></trkpt><trkpt lat="37.616595" lon="15.16439"><ele>183.33333333333331</ele><time>2026-04-24T17:15:53.548Z</time></trkpt><trkpt lat="37.6165233" lon="15.164425"><ele>182.5</ele><time>2026-04-24T17:15:55.548Z</time></trkpt><trkpt lat="37.6164483" lon="15.1644483"><ele>181.66666666666666</ele><time>2026-04-24T17:15:57.547Z</time></trkpt><trkpt lat="37.61638" lon="15.1644633"><ele>180.83333333333334</ele><time>2026-04-24T17:15:59.547Z</time></trkpt><trkpt lat="37.616315" lon="15.1644783"><ele>180.0</ele><time>2026-04-24T17:16:02.548Z</time></trkpt><trkpt lat="37.6162467" lon="15.1645167"><ele>180.0</ele><time>2026-04-24T17:16:04.547Z</time></trkpt><trkpt lat="37.61617" lon="15.164555"><ele>180.0</ele><time>2026-04-24T17:16:07.547Z</time></trkpt><trkpt lat="37.6160867" lon="15.164595"><ele>180.0</ele><time>2026-04-24T17:16:09.548Z</time></trkpt><trkpt lat="37.61596" lon="15.1646483"><ele>180.0</ele><time>2026-04-24T17:16:11.548Z</time></trkpt><trkpt lat="37.6158833" lon="15.1646817"><ele>180.0</ele><time>2026-04-24T17:16:12.548Z</time></trkpt><trkpt lat="37.6158217" lon="15.164715"><ele>179.83333333333334</ele><time>2026-04-24T17:16:13.548Z</time></trkpt><trkpt lat="37.6157117" lon="15.1647467"><ele>179.66666666666666</ele><time>2026-04-24T17:16:15.547Z</time></trkpt><trkpt lat="37.6156333" lon="15.164785"><ele>179.5</ele><time>2026-04-24T17:16:17.548Z</time></trkpt><trkpt lat="37.6155683" lon="15.16481"><ele>179.33333333333331</ele><time>2026-04-24T17:16:21.548Z</time></trkpt><trkpt lat="37.6154867" lon="15.1648517"><ele>179.16666666666666</ele><time>2026-04-24T17:16:24.548Z</time></trkpt><trkpt lat="37.6154" lon="15.1648967"><ele>179.0</ele><time>2026-04-24T17:16:26.548Z</time></trkpt><trkpt lat="37.6152917" lon="15.1649317"><ele>178.6</ele><time>2026-04-24T17:16:28.548Z</time></trkpt><trkpt lat="37.6151733" lon="15.1649717"><ele>178.2</ele><time>2026-04-24T17:16:30.547Z</time></trkpt><trkpt lat="37.6151117" lon="15.1649883"><ele>177.79999999999998</ele><time>2026-04-24T17:16:31.548Z</time></trkpt><trkpt lat="37.6149983" lon="15.1650383"><ele>177.39999999999998</ele><time>2026-04-24T17:16:33.548Z</time></trkpt><trkpt lat="37.6149033" lon="15.165085"><ele>177.0</ele><time>2026-04-24T17:16:35.548Z</time></trkpt><trkpt lat="37.6148033" lon="15.1651233"><ele>177.0</ele><time>2026-04-24T17:16:37.547Z</time></trkpt><trkpt lat="37.6147233" lon="15.1651483"><ele>177.0</ele><time>2026-04-24T17:16:39.548Z</time></trkpt><trkpt lat="37.6146517" lon="15.165145"><ele>177.0</ele><time>2026-04-24T17:16:41.547Z</time></trkpt><trkpt lat="37.6145567" lon="15.1651633"><ele>177.0</ele><time>2026-04-24T17:16:43.548Z</time></trkpt><trkpt lat="37.6144583" lon="15.1652"><ele>177.0</ele><time>2026-04-24T17:16:45.547Z</time></trkpt><trkpt lat="37.614375" lon="15.165235"><ele>177.0</ele><time>2026-04-24T17:16:47.547Z</time></trkpt><trkpt lat="37.61429" lon="15.165275"><ele>176.66666666666666</ele><time>2026-04-24T17:16:49.547Z</time></trkpt><trkpt lat="37.6142167" lon="15.1653117"><ele>176.33333333333334</ele><time>2026-04-24T17:16:51.548Z</time></trkpt><trkpt lat="37.6141233" lon="15.1653283"><ele>176.0</ele><time>2026-04-24T17:16:53.548Z</time></trkpt><trkpt lat="37.614045" lon="15.1653467"><ele>175.66666666666669</ele><time>2026-04-24T17:16:55.547Z</time></trkpt><trkpt lat="37.61398" lon="15.1653483"><ele>175.33333333333334</ele><time>2026-04-24T17:16:57.547Z</time></trkpt><trkpt lat="37.6139" lon="15.1653717"><ele>175.0</ele><time>2026-04-24T17:17:00.548Z</time></trkpt><trkpt lat="37.6137817" lon="15.1654383"><ele>175.0</ele><time>2026-04-24T17:19:01.548Z</time></trkpt><trkpt lat="37.61371" lon="15.1654717"><ele>175.0</ele><time>2026-04-24T17:19:04.548Z</time></trkpt><trkpt lat="37.6135933" lon="15.1655333"><ele>175.0</ele><time>2026-04-24T17:20:33.548Z</time></trkpt><trkpt lat="37.6135149" lon="15.1656374"><ele>175.0</ele><time>2026-04-24T17:21:06.639Z</time></trkpt><trkpt lat="37.6134541" lon="15.165673"><ele>175.0</ele><time>2026-04-24T17:21:32.525Z</time></trkpt><trkpt lat="37.6133694" lon="15.1656701"><ele>174.8</ele><time>2026-04-24T17:21:44.598Z</time></trkpt><trkpt lat="37.613304" lon="15.1656879"><ele>174.6</ele><time>2026-04-24T17:21:53.548Z</time></trkpt><trkpt lat="37.6132398" lon="15.1657269"><ele>174.39999999999998</ele><time>2026-04-24T17:22:02.435Z</time></trkpt><trkpt lat="37.6131827" lon="15.1657619"><ele>174.2</ele><time>2026-04-24T17:22:22.557Z</time></trkpt><trkpt lat="37.6130914" lon="15.1657551"><ele>174.0</ele><time>2026-04-24T17:22:39.548Z</time></trkpt><trkpt lat="37.6131361" lon="15.1659749"><ele>173.66666666666666</ele><time>2026-04-24T17:23:03.627Z</time></trkpt><trkpt lat="37.6131245" lon="15.1661043"><ele>173.33333333333334</ele><time>2026-04-24T17:23:31.615Z</time></trkpt><trkpt lat="37.6131272" lon="15.1660197"><ele>173.0</ele><time>2026-04-24T17:23:55.638Z</time></trkpt><trkpt lat="37.6130448" lon="15.1660145"><ele>172.66666666666669</ele><time>2026-04-24T17:24:10.614Z</time></trkpt><trkpt lat="37.6129821" lon="15.166096"><ele>172.33333333333334</ele><time>2026-04-24T17:24:34.547Z</time></trkpt><trkpt lat="37.6130493" lon="15.1660787"><ele>172.0</ele><time>2026-04-24T17:25:00.547Z</time></trkpt><trkpt lat="37.6131242" lon="15.1660273"><ele>172.00000000000003</ele><time>2026-04-24T17:25:10.623Z</time></trkpt><trkpt lat="37.613156" lon="15.1659431"><ele>172.0</ele><time>2026-04-24T17:25:16.551Z</time></trkpt><trkpt lat="37.6131856" lon="15.1658624"><ele>172.0</ele><time>2026-04-24T17:25:21.547Z</time></trkpt><trkpt lat="37.6131837" lon="15.1657669"><ele>172.0</ele><time>2026-04-24T17:25:27.636Z</time></trkpt><trkpt lat="37.6131193" lon="15.1657259"><ele>172.0</ele><time>2026-04-24T17:25:35.552Z</time></trkpt><trkpt lat="37.6130619" lon="15.1656853"><ele>172.00000000000003</ele><time>2026-04-24T17:25:41.637Z</time></trkpt><trkpt lat="37.612993" lon="15.1656838"><ele>172.0</ele><time>2026-04-24T17:25:47.547Z</time></trkpt><trkpt lat="37.6129385" lon="15.1657263"><ele>172.00000000000003</ele><time>2026-04-24T17:25:56.591Z</time></trkpt><trkpt lat="37.6129075" lon="15.1657979"><ele>172.0</ele><time>2026-04-24T17:26:02.547Z</time></trkpt><trkpt lat="37.6128714" lon="15.165872"><ele>172.0</ele><time>2026-04-24T17:26:16.559Z</time></trkpt><trkpt lat="37.6128175" lon="15.1659161"><ele>172.0</ele><time>2026-04-24T17:26:28.621Z</time></trkpt><trkpt lat="37.6127545" lon="15.1659085"><ele>172.0</ele><time>2026-04-24T17:26:38.605Z</time></trkpt><trkpt lat="37.6127075" lon="15.1659689"><ele>172.00000000000003</ele><time>2026-04-24T17:26:54.547Z</time></trkpt><trkpt lat="37.6126828" lon="15.1660494"><ele>172.0</ele><time>2026-04-24T17:28:11.649Z</time></trkpt><trkpt lat="37.6126512" lon="15.16612"><ele>171.85714285714286</ele><time>2026-04-24T17:28:21.688Z</time></trkpt><trkpt lat="37.6126289" lon="15.1661986"><ele>171.71428571428572</ele><time>2026-04-24T17:28:59.631Z</time></trkpt><trkpt lat="37.6126382" lon="15.1662881"><ele>171.57142857142856</ele><time>2026-04-24T17:31:20.654Z</time></trkpt><trkpt lat="37.612606" lon="15.1663597"><ele>171.42857142857144</ele><time>2026-04-24T17:31:35.63Z</time></trkpt><trkpt lat="37.6125341" lon="15.1663648"><ele>171.28571428571428</ele><time>2026-04-24T17:31:54.663Z</time></trkpt><trkpt lat="37.6125966" lon="15.1663485"><ele>171.14285714285714</ele><time>2026-04-24T17:32:06.722Z</time></trkpt><trkpt lat="37.6126547" lon="15.1662721"><ele>171.0</ele><time>2026-04-24T17:32:15.563Z</time></trkpt><trkpt lat="37.6126806" lon="15.1661979"><ele>171.0</ele><time>2026-04-24T17:32:21.594Z</time></trkpt><trkpt lat="37.6127238" lon="15.166113"><ele>171.0</ele><time>2026-04-24T17:32:33.649Z</time></trkpt><trkpt lat="37.6127606" lon="15.1660453"><ele>171.0</ele><time>2026-04-24T17:32:56.643Z</time></trkpt><trkpt lat="37.6128612" lon="15.1659314"><ele>171.0</ele><time>2026-04-24T17:33:13.594Z</time></trkpt><trkpt lat="37.6130245" lon="15.1657199"><ele>171.16666666666666</ele><time>2026-04-24T17:33:14.633Z</time></trkpt><trkpt lat="37.6130896" lon="15.1657223"><ele>171.33333333333334</ele><time>2026-04-24T17:33:23.578Z</time></trkpt><trkpt lat="37.6131527" lon="15.1657547"><ele>171.5</ele><time>2026-04-24T17:33:32.626Z</time></trkpt><trkpt lat="37.6132462" lon="15.1657464"><ele>171.66666666666669</ele><time>2026-04-24T17:33:46.563Z</time></trkpt><trkpt lat="37.6133107" lon="15.1657321"><ele>171.83333333333334</ele><time>2026-04-24T17:33:49.689Z</time></trkpt><trkpt lat="37.6133861" lon="15.1657438"><ele>172.0</ele><time>2026-04-24T17:33:59.666Z</time></trkpt><trkpt lat="37.6134857" lon="15.1657029"><ele>172.33333333333334</ele><time>2026-04-24T17:34:34.589Z</time></trkpt><trkpt lat="37.6136313" lon="15.1655823"><ele>172.66666666666669</ele><time>2026-04-24T17:34:35.629Z</time></trkpt><trkpt lat="37.6136713" lon="15.165512"><ele>173.0</ele><time>2026-04-24T17:35:39.591Z</time></trkpt><trkpt lat="37.6137204" lon="15.1654614"><ele>173.33333333333334</ele><time>2026-04-24T17:38:10.595Z</time></trkpt><trkpt lat="37.6136562" lon="15.1654687"><ele>173.66666666666666</ele><time>2026-04-24T17:39:13.547Z</time></trkpt><trkpt lat="37.6136128" lon="15.1655444"><ele>174.0</ele><time>2026-04-24T17:39:24.546Z</time></trkpt><trkpt lat="37.6136767" lon="15.165575"><ele>174.0</ele><time>2026-04-24T17:41:06.546Z</time></trkpt><trkpt lat="37.6136133" lon="15.1654867"><ele>174.0</ele><time>2026-04-24T17:42:43.546Z</time></trkpt><trkpt lat="37.613595" lon="15.1655767"><ele>174.0</ele><time>2026-04-24T17:43:05.546Z</time></trkpt><trkpt lat="37.613525" lon="15.1655883"><ele>174.0</ele><time>2026-04-24T17:43:07.546Z</time></trkpt><trkpt lat="37.61349" lon="15.1656583"><ele>174.0</ele><time>2026-04-24T17:43:10.547Z</time></trkpt><trkpt lat="37.6134967" lon="15.16574"><ele>174.0</ele><time>2026-04-24T17:43:13.547Z</time></trkpt><trkpt lat="37.613545" lon="15.165795"><ele>174.0</ele><time>2026-04-24T17:43:16.546Z</time></trkpt><trkpt lat="37.6136083" lon="15.1658333"><ele>174.0</ele><time>2026-04-24T17:43:19.547Z</time></trkpt><trkpt lat="37.6136783" lon="15.165855"><ele>174.0</ele><time>2026-04-24T17:43:22.547Z</time></trkpt><trkpt lat="37.61374" lon="15.16588"><ele>174.0</ele><time>2026-04-24T17:43:24.547Z</time></trkpt><trkpt lat="37.6138233" lon="15.1659217"><ele>174.0</ele><time>2026-04-24T17:43:27.546Z</time></trkpt><trkpt lat="37.6138883" lon="15.1659433"><ele>174.0</ele><time>2026-04-24T17:43:29.546Z</time></trkpt><trkpt lat="37.61395" lon="15.1659633"><ele>174.0</ele><time>2026-04-24T17:43:31.547Z</time></trkpt><trkpt lat="37.6140267" lon="15.1659667"><ele>174.0</ele><time>2026-04-24T17:43:34.546Z</time></trkpt><trkpt lat="37.6140983" lon="15.165965"><ele>174.0</ele><time>2026-04-24T17:43:37.546Z</time></trkpt><trkpt lat="37.6141633" lon="15.16598"><ele>174.0</ele><time>2026-04-24T17:43:40.547Z</time></trkpt><trkpt lat="37.614245" lon="15.1660117"><ele>174.0</ele><time>2026-04-24T17:43:43.546Z</time></trkpt><trkpt lat="37.6143167" lon="15.1660633"><ele>174.0</ele><time>2026-04-24T17:43:47.546Z</time></trkpt><trkpt lat="37.6143967" lon="15.1661167"><ele>174.0</ele><time>2026-04-24T17:43:50.546Z</time></trkpt><trkpt lat="37.6144717" lon="15.16614"><ele>174.0</ele><time>2026-04-24T17:43:52.546Z</time></trkpt><trkpt lat="37.6145367" lon="15.16616"><ele>174.39999999999998</ele><time>2026-04-24T17:43:54.547Z</time></trkpt><trkpt lat="37.6146233" lon="15.16619"><ele>174.8</ele><time>2026-04-24T17:43:57.547Z</time></trkpt><trkpt lat="37.6146883" lon="15.1662017"><ele>175.2</ele><time>2026-04-24T17:43:59.547Z</time></trkpt><trkpt lat="37.6147733" lon="15.1662233"><ele>175.60000000000002</ele><time>2026-04-24T17:44:02.546Z</time></trkpt><trkpt lat="37.6148733" lon="15.1662633"><ele>176.0</ele><time>2026-04-24T17:44:16.547Z</time></trkpt><trkpt lat="37.6149933" lon="15.1663233"><ele>176.0</ele><time>2026-04-24T17:44:44.547Z</time></trkpt><trkpt lat="37.615075" lon="15.1663367"><ele>176.0</ele><time>2026-04-24T17:44:49.547Z</time></trkpt><trkpt lat="37.6151517" lon="15.1663717"><ele>176.0</ele><time>2026-04-24T17:44:53.547Z</time></trkpt><trkpt lat="37.61522" lon="15.166395"><ele>176.0</ele><time>2026-04-24T17:44:56.547Z</time></trkpt><trkpt lat="37.6152933" lon="15.16643"><ele>176.0</ele><time>2026-04-24T17:45:00.546Z</time></trkpt><trkpt lat="37.615375" lon="15.1664667"><ele>176.0</ele><time>2026-04-24T17:45:03.546Z</time></trkpt><trkpt lat="37.6154433" lon="15.1664967"><ele>176.16666666666666</ele><time>2026-04-24T17:45:06.547Z</time></trkpt><trkpt lat="37.6155117" lon="15.1665167"><ele>176.33333333333331</ele><time>2026-04-24T17:45:09.546Z</time></trkpt><trkpt lat="37.61559" lon="15.1665217"><ele>176.5</ele><time>2026-04-24T17:45:12.546Z</time></trkpt><trkpt lat="37.615675" lon="15.1665567"><ele>176.66666666666666</ele><time>2026-04-24T17:45:15.547Z</time></trkpt><trkpt lat="37.615765" lon="15.1665683"><ele>176.83333333333334</ele><time>2026-04-24T17:45:18.547Z</time></trkpt><trkpt lat="37.61583" lon="15.1665917"><ele>177.0</ele><time>2026-04-24T17:45:20.547Z</time></trkpt><trkpt lat="37.6158917" lon="15.1666233"><ele>176.66666666666666</ele><time>2026-04-24T17:45:22.547Z</time></trkpt><trkpt lat="37.61597" lon="15.166655"><ele>176.33333333333334</ele><time>2026-04-24T17:45:25.546Z</time></trkpt><trkpt lat="37.6160367" lon="15.1666767"><ele>176.0</ele><time>2026-04-24T17:45:29.547Z</time></trkpt><trkpt lat="37.6161183" lon="15.1666933"><ele>175.66666666666669</ele><time>2026-04-24T17:45:35.546Z</time></trkpt><trkpt lat="37.6161883" lon="15.1667133"><ele>175.33333333333334</ele><time>2026-04-24T17:45:38.547Z</time></trkpt><trkpt lat="37.61625" lon="15.166745"><ele>175.0</ele><time>2026-04-24T17:45:42.547Z</time></trkpt><trkpt lat="37.616335" lon="15.1667667"><ele>175.0</ele><time>2026-04-24T17:45:46.547Z</time></trkpt><trkpt lat="37.6164" lon="15.16676"><ele>175.0</ele><time>2026-04-24T17:45:49.546Z</time></trkpt><trkpt lat="37.616465" lon="15.1667567"><ele>175.0</ele><time>2026-04-24T17:45:53.546Z</time></trkpt><trkpt lat="37.6165483" lon="15.16679"><ele>175.0</ele><time>2026-04-24T17:45:56.546Z</time></trkpt><trkpt lat="37.61661" lon="15.16682"><ele>175.0</ele><time>2026-04-24T17:46:00.547Z</time></trkpt><trkpt lat="37.6166717" lon="15.16687"><ele>175.0</ele><time>2026-04-24T17:46:05.546Z</time></trkpt><trkpt lat="37.6167383" lon="15.1669083"><ele>175.0</ele><time>2026-04-24T17:46:09.547Z</time></trkpt><trkpt lat="37.6168033" lon="15.1669567"><ele>175.0</ele><time>2026-04-24T17:46:13.546Z</time></trkpt><trkpt lat="37.6168717" lon="15.1670167"><ele>175.0</ele><time>2026-04-24T17:46:17.546Z</time></trkpt><trkpt lat="37.61694" lon="15.1670433"><ele>175.0</ele><time>2026-04-24T17:46:20.547Z</time></trkpt><trkpt lat="37.6170033" lon="15.1670567"><ele>175.0</ele><time>2026-04-24T17:46:23.547Z</time></trkpt><trkpt lat="37.6170767" lon="15.1670867"><ele>175.0</ele><time>2026-04-24T17:46:27.546Z</time></trkpt><trkpt lat="37.6171417" lon="15.1670917"><ele>175.0</ele><time>2026-04-24T17:46:30.547Z</time></trkpt><trkpt lat="37.6172267" lon="15.1671167"><ele>175.0</ele><time>2026-04-24T17:46:33.546Z</time></trkpt><trkpt lat="37.617325" lon="15.1671583"><ele>174.83333333333334</ele><time>2026-04-24T17:46:36.547Z</time></trkpt><trkpt lat="37.6174067" lon="15.1671717"><ele>174.66666666666669</ele><time>2026-04-24T17:46:38.547Z</time></trkpt><trkpt lat="37.6174933" lon="15.1671867"><ele>174.5</ele><time>2026-04-24T17:46:40.547Z</time></trkpt><trkpt lat="37.6175683" lon="15.1672017"><ele>174.33333333333334</ele><time>2026-04-24T17:46:42.547Z</time></trkpt><trkpt lat="37.6176417" lon="15.1672117"><ele>174.16666666666666</ele><time>2026-04-24T17:46:44.546Z</time></trkpt><trkpt lat="37.61772" lon="15.1672217"><ele>174.0</ele><time>2026-04-24T17:46:47.547Z</time></trkpt><trkpt lat="37.6178033" lon="15.167265"><ele>173.83333333333334</ele><time>2026-04-24T17:46:50.546Z</time></trkpt><trkpt lat="37.6178883" lon="15.167305"><ele>173.66666666666666</ele><time>2026-04-24T17:46:53.546Z</time></trkpt><trkpt lat="37.6179667" lon="15.167345"><ele>173.5</ele><time>2026-04-24T17:46:57.546Z</time></trkpt><trkpt lat="37.6180283" lon="15.167385"><ele>173.33333333333331</ele><time>2026-04-24T17:47:00.547Z</time></trkpt><trkpt lat="37.6180933" lon="15.1674117"><ele>173.16666666666666</ele><time>2026-04-24T17:47:03.546Z</time></trkpt><trkpt lat="37.618155" lon="15.1674383"><ele>173.0</ele><time>2026-04-24T17:47:06.547Z</time></trkpt><trkpt lat="37.61824" lon="15.1674733"><ele>173.0</ele><time>2026-04-24T17:47:10.546Z</time></trkpt><trkpt lat="37.61831" lon="15.16748"><ele>173.0</ele><time>2026-04-24T17:47:12.547Z</time></trkpt><trkpt lat="37.6183717" lon="15.1675"><ele>173.0</ele><time>2026-04-24T17:47:14.546Z</time></trkpt><trkpt lat="37.6184367" lon="15.1675183"><ele>173.0</ele><time>2026-04-24T17:47:16.546Z</time></trkpt><trkpt lat="37.6185117" lon="15.1675333"><ele>173.0</ele><time>2026-04-24T17:47:19.547Z</time></trkpt><trkpt lat="37.6186017" lon="15.1675633"><ele>173.0</ele><time>2026-04-24T17:47:22.546Z</time></trkpt><trkpt lat="37.618675" lon="15.1675933"><ele>173.0</ele><time>2026-04-24T17:47:25.547Z</time></trkpt><trkpt lat="37.618735" lon="15.1676367"><ele>174.0</ele><time>2026-04-24T17:47:28.547Z</time></trkpt><trkpt lat="37.6187933" lon="15.16767"><ele>175.0</ele><time>2026-04-24T17:47:30.546Z</time></trkpt><trkpt lat="37.618875" lon="15.1677167"><ele>176.0</ele><time>2026-04-24T17:47:33.546Z</time></trkpt><trkpt lat="37.6189533" lon="15.1677483"><ele>177.0</ele><time>2026-04-24T17:47:36.546Z</time></trkpt><trkpt lat="37.6190417" lon="15.1677683"><ele>178.0</ele><time>2026-04-24T17:47:39.546Z</time></trkpt><trkpt lat="37.619105" lon="15.1677883"><ele>179.0</ele><time>2026-04-24T17:47:41.546Z</time></trkpt><trkpt lat="37.61917" lon="15.1678117"><ele>179.0</ele><time>2026-04-24T17:47:43.547Z</time></trkpt><trkpt lat="37.61925" lon="15.16784"><ele>179.0</ele><time>2026-04-24T17:47:46.547Z</time></trkpt><trkpt lat="37.619315" lon="15.1678717"><ele>179.0</ele><time>2026-04-24T17:47:48.547Z</time></trkpt><trkpt lat="37.619395" lon="15.1679183"><ele>179.0</ele><time>2026-04-24T17:47:50.547Z</time></trkpt><trkpt lat="37.6194883" lon="15.1679667"><ele>179.0</ele><time>2026-04-24T17:47:52.546Z</time></trkpt><trkpt lat="37.6195817" lon="15.1680017"><ele>179.0</ele><time>2026-04-24T17:47:54.547Z</time></trkpt><trkpt lat="37.6196633" lon="15.1680283"><ele>179.79999999999998</ele><time>2026-04-24T17:47:56.546Z</time></trkpt><trkpt lat="37.6197383" lon="15.168055"><ele>180.6</ele><time>2026-04-24T17:47:58.547Z</time></trkpt><trkpt lat="37.6198283" lon="15.1681"><ele>181.4</ele><time>2026-04-24T17:48:00.547Z</time></trkpt><trkpt lat="37.619925" lon="15.1681583"><ele>182.2</ele><time>2026-04-24T17:48:02.547Z</time></trkpt><trkpt lat="37.6200333" lon="15.1681983"><ele>183.0</ele><time>2026-04-24T17:48:04.546Z</time></trkpt><trkpt lat="37.6201333" lon="15.16824"><ele>182.0</ele><time>2026-04-24T17:48:06.546Z</time></trkpt><trkpt lat="37.6202567" lon="15.1682767"><ele>181.0</ele><time>2026-04-24T17:48:08.547Z</time></trkpt><trkpt lat="37.6203333" lon="15.1682967"><ele>180.0</ele><time>2026-04-24T17:48:09.547Z</time></trkpt><trkpt lat="37.6204083" lon="15.1683133"><ele>179.0</ele><time>2026-04-24T17:48:10.547Z</time></trkpt><trkpt lat="37.6204717" lon="15.1683317"><ele>178.0</ele><time>2026-04-24T17:48:11.547Z</time></trkpt><trkpt lat="37.6205783" lon="15.1683767"><ele>178.0</ele><time>2026-04-24T17:48:13.547Z</time></trkpt><trkpt lat="37.6206667" lon="15.1684317"><ele>178.0</ele><time>2026-04-24T17:48:15.546Z</time></trkpt><trkpt lat="37.620715" lon="15.16855"><ele>178.0</ele><time>2026-04-24T17:48:17.546Z</time></trkpt><trkpt lat="37.6207233" lon="15.1687033"><ele>178.0</ele><time>2026-04-24T17:48:19.547Z</time></trkpt><trkpt lat="37.6207183" lon="15.1688517"><ele>178.0</ele><time>2026-04-24T17:48:21.547Z</time></trkpt><trkpt lat="37.6207233" lon="15.1689833"><ele>176.33333333333334</ele><time>2026-04-24T17:48:23.546Z</time></trkpt><trkpt lat="37.6207183" lon="15.1690883"><ele>174.66666666666669</ele><time>2026-04-24T17:48:25.546Z</time></trkpt><trkpt lat="37.620695" lon="15.16917"><ele>173.0</ele><time>2026-04-24T17:48:27.546Z</time></trkpt><trkpt lat="37.6206817" lon="15.16926"><ele>171.33333333333334</ele><time>2026-04-24T17:48:30.547Z</time></trkpt><trkpt lat="37.6207183" lon="15.1693633"><ele>169.66666666666666</ele><time>2026-04-24T17:48:41.546Z</time></trkpt><trkpt lat="37.6208067" lon="15.169435"><ele>168.0</ele><time>2026-04-24T17:48:43.547Z</time></trkpt><trkpt lat="37.6208733" lon="15.1694567"><ele>168.0</ele><time>2026-04-24T17:48:44.547Z</time></trkpt><trkpt lat="37.6209483" lon="15.1694783"><ele>168.0</ele><time>2026-04-24T17:48:45.547Z</time></trkpt><trkpt lat="37.6210317" lon="15.1694983"><ele>168.0</ele><time>2026-04-24T17:48:46.547Z</time></trkpt><trkpt lat="37.6211117" lon="15.1695217"><ele>168.0</ele><time>2026-04-24T17:48:47.546Z</time></trkpt><trkpt lat="37.6212017" lon="15.1695533"><ele>168.0</ele><time>2026-04-24T17:48:48.547Z</time></trkpt><trkpt lat="37.6212883" lon="15.16959"><ele>168.0</ele><time>2026-04-24T17:48:49.546Z</time></trkpt><trkpt lat="37.6213817" lon="15.1696367"><ele>170.2</ele><time>2026-04-24T17:48:50.546Z</time></trkpt><trkpt lat="37.621485" lon="15.1696783"><ele>172.4</ele><time>2026-04-24T17:48:51.546Z</time></trkpt><trkpt lat="37.6215883" lon="15.1697233"><ele>174.6</ele><time>2026-04-24T17:48:52.546Z</time></trkpt><trkpt lat="37.621695" lon="15.1697533"><ele>176.79999999999998</ele><time>2026-04-24T17:48:53.546Z</time></trkpt><trkpt lat="37.6218033" lon="15.1697767"><ele>179.0</ele><time>2026-04-24T17:48:54.547Z</time></trkpt><trkpt lat="37.6219183" lon="15.1697967"><ele>180.25</ele><time>2026-04-24T17:48:55.546Z</time></trkpt><trkpt lat="37.6220383" lon="15.16981"><ele>181.5</ele><time>2026-04-24T17:48:56.547Z</time></trkpt><trkpt lat="37.6221633" lon="15.16982"><ele>182.75</ele><time>2026-04-24T17:48:57.547Z</time></trkpt><trkpt lat="37.62229" lon="15.1698283"><ele>184.0</ele><time>2026-04-24T17:48:58.547Z</time></trkpt><trkpt lat="37.6224183" lon="15.1698333"><ele>184.0</ele><time>2026-04-24T17:48:59.546Z</time></trkpt><trkpt lat="37.62255" lon="15.16983"><ele>184.0</ele><time>2026-04-24T17:49:00.546Z</time></trkpt><trkpt lat="37.6226867" lon="15.1698167"><ele>184.0</ele><time>2026-04-24T17:49:01.546Z</time></trkpt><trkpt lat="37.62282" lon="15.169795"><ele>184.0</ele><time>2026-04-24T17:49:02.547Z</time></trkpt><trkpt lat="37.6229533" lon="15.1697717"><ele>185.0</ele><time>2026-04-24T17:49:03.547Z</time></trkpt><trkpt lat="37.6230833" lon="15.1697417"><ele>186.0</ele><time>2026-04-24T17:49:04.546Z</time></trkpt><trkpt lat="37.6232117" lon="15.169715"><ele>187.0</ele><time>2026-04-24T17:49:05.546Z</time></trkpt><trkpt lat="37.6233483" lon="15.1696883"><ele>188.0</ele><time>2026-04-24T17:49:06.547Z</time></trkpt><trkpt lat="37.62348" lon="15.169665"><ele>188.0</ele><time>2026-04-24T17:49:07.547Z</time></trkpt><trkpt lat="37.623615" lon="15.1696433"><ele>188.0</ele><time>2026-04-24T17:49:08.546Z</time></trkpt><trkpt lat="37.6237483" lon="15.1696233"><ele>188.0</ele><time>2026-04-24T17:49:09.547Z</time></trkpt><trkpt lat="37.6238833" lon="15.169605"><ele>188.0</ele><time>2026-04-24T17:49:10.546Z</time></trkpt><trkpt lat="37.62402" lon="15.1695783"><ele>187.75</ele><time>2026-04-24T17:49:11.547Z</time></trkpt><trkpt lat="37.6241583" lon="15.1695533"><ele>187.5</ele><time>2026-04-24T17:49:12.547Z</time></trkpt><trkpt lat="37.6242967" lon="15.1695333"><ele>187.25</ele><time>2026-04-24T17:49:13.547Z</time></trkpt><trkpt lat="37.6244333" lon="15.1695117"><ele>187.0</ele><time>2026-04-24T17:49:14.547Z</time></trkpt><trkpt lat="37.624575" lon="15.1694867"><ele>186.75</ele><time>2026-04-24T17:49:15.547Z</time></trkpt><trkpt lat="37.624715" lon="15.1694567"><ele>186.5</ele><time>2026-04-24T17:49:16.546Z</time></trkpt><trkpt lat="37.6248583" lon="15.16943"><ele>186.25</ele><time>2026-04-24T17:49:17.547Z</time></trkpt><trkpt lat="37.625005" lon="15.1694033"><ele>186.0</ele><time>2026-04-24T17:49:18.547Z</time></trkpt><trkpt lat="37.6251517" lon="15.1693783"><ele>186.0</ele><time>2026-04-24T17:49:19.547Z</time></trkpt><trkpt lat="37.6253067" lon="15.1693617"><ele>186.0</ele><time>2026-04-24T17:49:20.547Z</time></trkpt><trkpt lat="37.6254633" lon="15.1693333"><ele>186.0</ele><time>2026-04-24T17:49:21.547Z</time></trkpt><trkpt lat="37.6256217" lon="15.169305"><ele>185.33333333333334</ele><time>2026-04-24T17:49:22.546Z</time></trkpt><trkpt lat="37.625775" lon="15.1692817"><ele>184.66666666666669</ele><time>2026-04-24T17:49:23.547Z</time></trkpt><trkpt lat="37.6259267" lon="15.1692567"><ele>184.0</ele><time>2026-04-24T17:49:24.546Z</time></trkpt><trkpt lat="37.6260767" lon="15.1692317"><ele>184.5</ele><time>2026-04-24T17:49:25.546Z</time></trkpt><trkpt lat="37.626225" lon="15.1692033"><ele>185.0</ele><time>2026-04-24T17:49:26.547Z</time></trkpt><trkpt lat="37.6263733" lon="15.16917"><ele>185.5</ele><time>2026-04-24T17:49:27.547Z</time></trkpt><trkpt lat="37.62652" lon="15.169145"><ele>186.0</ele><time>2026-04-24T17:49:28.546Z</time></trkpt><trkpt lat="37.6266733" lon="15.1691167"><ele>186.0</ele><time>2026-04-24T17:49:29.546Z</time></trkpt><trkpt lat="37.626825" lon="15.1690883"><ele>186.0</ele><time>2026-04-24T17:49:30.547Z</time></trkpt><trkpt lat="37.626975" lon="15.169065"><ele>186.0</ele><time>2026-04-24T17:49:31.547Z</time></trkpt><trkpt lat="37.627125" lon="15.1690383"><ele>188.33333333333331</ele><time>2026-04-24T17:49:32.546Z</time></trkpt><trkpt lat="37.6272783" lon="15.16901"><ele>190.66666666666666</ele><time>2026-04-24T17:49:33.546Z</time></trkpt><trkpt lat="37.6274267" lon="15.1689833"><ele>193.0</ele><time>2026-04-24T17:49:34.547Z</time></trkpt><trkpt lat="37.6275767" lon="15.1689483"><ele>193.0</ele><time>2026-04-24T17:49:35.546Z</time></trkpt><trkpt lat="37.6277267" lon="15.1689033"><ele>193.0</ele><time>2026-04-24T17:49:36.546Z</time></trkpt><trkpt lat="37.6278733" lon="15.1688483"><ele>193.0</ele><time>2026-04-24T17:49:37.547Z</time></trkpt><trkpt lat="37.6280183" lon="15.168785"><ele>192.0</ele><time>2026-04-24T17:49:38.546Z</time></trkpt><trkpt lat="37.6281517" lon="15.1687167"><ele>191.0</ele><time>2026-04-24T17:49:39.547Z</time></trkpt><trkpt lat="37.6282783" lon="15.1686533"><ele>190.0</ele><time>2026-04-24T17:49:40.547Z</time></trkpt><trkpt lat="37.628405" lon="15.1685917"><ele>189.0</ele><time>2026-04-24T17:49:41.547Z</time></trkpt><trkpt lat="37.6285333" lon="15.1685283"><ele>188.0</ele><time>2026-04-24T17:49:42.546Z</time></trkpt><trkpt lat="37.628665" lon="15.1684633"><ele>187.0</ele><time>2026-04-24T17:49:43.546Z</time></trkpt><trkpt lat="37.6287967" lon="15.1683983"><ele>186.0</ele><time>2026-04-24T17:49:44.546Z</time></trkpt><trkpt lat="37.6289217" lon="15.168325"><ele>185.0</ele><time>2026-04-24T17:49:45.547Z</time></trkpt><trkpt lat="37.629045" lon="15.16824"><ele>186.25</ele><time>2026-04-24T17:49:46.547Z</time></trkpt><trkpt lat="37.6291583" lon="15.168145"><ele>187.5</ele><time>2026-04-24T17:49:47.546Z</time></trkpt><trkpt lat="37.6292683" lon="15.1680467"><ele>188.75</ele><time>2026-04-24T17:49:48.546Z</time></trkpt><trkpt lat="37.629365" lon="15.1679533"><ele>190.0</ele><time>2026-04-24T17:49:49.547Z</time></trkpt><trkpt lat="37.6294533" lon="15.1678617"><ele>190.0</ele><time>2026-04-24T17:49:50.546Z</time></trkpt><trkpt lat="37.6295383" lon="15.1677633"><ele>190.0</ele><time>2026-04-24T17:49:51.546Z</time></trkpt><trkpt lat="37.62962" lon="15.1676567"><ele>190.0</ele><time>2026-04-24T17:49:52.547Z</time></trkpt><trkpt lat="37.6297083" lon="15.1675483"><ele>190.0</ele><time>2026-04-24T17:49:53.547Z</time></trkpt><trkpt lat="37.6298067" lon="15.1674467"><ele>191.75</ele><time>2026-04-24T17:49:54.547Z</time></trkpt><trkpt lat="37.6299117" lon="15.1673567"><ele>193.5</ele><time>2026-04-24T17:49:55.547Z</time></trkpt><trkpt lat="37.6300233" lon="15.167275"><ele>195.25</ele><time>2026-04-24T17:49:56.547Z</time></trkpt><trkpt lat="37.6301367" lon="15.1672167"><ele>197.0</ele><time>2026-04-24T17:49:57.546Z</time></trkpt><trkpt lat="37.6302533" lon="15.16719"><ele>198.25</ele><time>2026-04-24T17:49:58.547Z</time></trkpt><trkpt lat="37.630375" lon="15.167185"><ele>199.5</ele><time>2026-04-24T17:49:59.546Z</time></trkpt><trkpt lat="37.6305" lon="15.1672017"><ele>200.75</ele><time>2026-04-24T17:50:00.546Z</time></trkpt><trkpt lat="37.63063" lon="15.16724"><ele>202.0</ele><time>2026-04-24T17:50:01.547Z</time></trkpt><trkpt lat="37.6307517" lon="15.1673033"><ele>201.75</ele><time>2026-04-24T17:50:02.547Z</time></trkpt><trkpt lat="37.6308717" lon="15.1673767"><ele>201.5</ele><time>2026-04-24T17:50:03.547Z</time></trkpt><trkpt lat="37.6309933" lon="15.1674333"><ele>201.25</ele><time>2026-04-24T17:50:04.547Z</time></trkpt><trkpt lat="37.6311183" lon="15.1674783"><ele>201.0</ele><time>2026-04-24T17:50:05.546Z</time></trkpt><trkpt lat="37.6312483" lon="15.16751"><ele>201.0</ele><time>2026-04-24T17:50:06.547Z</time></trkpt><trkpt lat="37.6313817" lon="15.167525"><ele>201.0</ele><time>2026-04-24T17:50:07.547Z</time></trkpt><trkpt lat="37.6315167" lon="15.1675133"><ele>201.0</ele><time>2026-04-24T17:50:08.547Z</time></trkpt><trkpt lat="37.63165" lon="15.1674883"><ele>201.0</ele><time>2026-04-24T17:50:09.547Z</time></trkpt><trkpt lat="37.6317783" lon="15.1674417"><ele>201.0</ele><time>2026-04-24T17:50:10.547Z</time></trkpt><trkpt lat="37.6319033" lon="15.1673783"><ele>201.0</ele><time>2026-04-24T17:50:11.547Z</time></trkpt><trkpt lat="37.63203" lon="15.16731"><ele>201.0</ele><time>2026-04-24T17:50:12.546Z</time></trkpt><trkpt lat="37.63215" lon="15.1672383"><ele>201.0</ele><time>2026-04-24T17:50:13.546Z</time></trkpt><trkpt lat="37.6322683" lon="15.1671667"><ele>202.25</ele><time>2026-04-24T17:50:14.546Z</time></trkpt><trkpt lat="37.6323883" lon="15.1671"><ele>203.5</ele><time>2026-04-24T17:50:15.546Z</time></trkpt><trkpt lat="37.6325117" lon="15.1670383"><ele>204.75</ele><time>2026-04-24T17:50:16.546Z</time></trkpt><trkpt lat="37.6326383" lon="15.1669783"><ele>206.0</ele><time>2026-04-24T17:50:17.546Z</time></trkpt><trkpt lat="37.6327667" lon="15.1669267"><ele>208.0</ele><time>2026-04-24T17:50:18.547Z</time></trkpt><trkpt lat="37.6329017" lon="15.16689"><ele>210.0</ele><time>2026-04-24T17:50:19.547Z</time></trkpt><trkpt lat="37.63304" lon="15.1668717"><ele>212.0</ele><time>2026-04-24T17:50:20.547Z</time></trkpt><trkpt lat="37.6331767" lon="15.1668717"><ele>214.0</ele><time>2026-04-24T17:50:21.547Z</time></trkpt><trkpt lat="37.6333133" lon="15.1668867"><ele>214.0</ele><time>2026-04-24T17:50:22.546Z</time></trkpt><trkpt lat="37.6334467" lon="15.16691"><ele>214.0</ele><time>2026-04-24T17:50:23.546Z</time></trkpt><trkpt lat="37.6335817" lon="15.1669383"><ele>214.0</ele><time>2026-04-24T17:50:24.546Z</time></trkpt><trkpt lat="37.633715" lon="15.16697"><ele>214.0</ele><time>2026-04-24T17:50:25.546Z</time></trkpt><trkpt lat="37.6338517" lon="15.1669917"><ele>213.25</ele><time>2026-04-24T17:50:26.547Z</time></trkpt><trkpt lat="37.6339883" lon="15.167"><ele>212.5</ele><time>2026-04-24T17:50:27.546Z</time></trkpt><trkpt lat="37.634125" lon="15.16698"><ele>211.75</ele><time>2026-04-24T17:50:28.547Z</time></trkpt><trkpt lat="37.6342583" lon="15.1669467"><ele>211.0</ele><time>2026-04-24T17:50:29.546Z</time></trkpt><trkpt lat="37.6343933" lon="15.1669167"><ele>211.5</ele><time>2026-04-24T17:50:30.546Z</time></trkpt><trkpt lat="37.6345317" lon="15.1668817"><ele>212.0</ele><time>2026-04-24T17:50:31.547Z</time></trkpt><trkpt lat="37.6346733" lon="15.166845"><ele>212.5</ele><time>2026-04-24T17:50:32.546Z</time></trkpt><trkpt lat="37.634815" lon="15.1668117"><ele>213.0</ele><time>2026-04-24T17:50:33.546Z</time></trkpt><trkpt lat="37.6349567" lon="15.1667717"><ele>213.0</ele><time>2026-04-24T17:50:34.547Z</time></trkpt><trkpt lat="37.6350967" lon="15.1667333"><ele>213.0</ele><time>2026-04-24T17:50:35.547Z</time></trkpt><trkpt lat="37.6352267" lon="15.1666933"><ele>213.0</ele><time>2026-04-24T17:50:36.547Z</time></trkpt><trkpt lat="37.6353533" lon="15.16665"><ele>213.0</ele><time>2026-04-24T17:50:37.547Z</time></trkpt><trkpt lat="37.6354767" lon="15.1665917"><ele>213.5</ele><time>2026-04-24T17:50:38.546Z</time></trkpt><trkpt lat="37.6355917" lon="15.1665017"><ele>214.0</ele><time>2026-04-24T17:50:39.547Z</time></trkpt><trkpt lat="37.635705" lon="15.1663967"><ele>214.5</ele><time>2026-04-24T17:50:40.547Z</time></trkpt><trkpt lat="37.6358017" lon="15.166265"><ele>215.0</ele><time>2026-04-24T17:50:41.547Z</time></trkpt><trkpt lat="37.6358933" lon="15.16612"><ele>215.0</ele><time>2026-04-24T17:50:42.546Z</time></trkpt><trkpt lat="37.6359783" lon="15.1659683"><ele>215.0</ele><time>2026-04-24T17:50:43.547Z</time></trkpt><trkpt lat="37.636075" lon="15.1658267"><ele>215.0</ele><time>2026-04-24T17:50:44.546Z</time></trkpt><trkpt lat="37.6361783" lon="15.1657"><ele>215.0</ele><time>2026-04-24T17:50:45.547Z</time></trkpt><trkpt lat="37.6362867" lon="15.1655783"><ele>214.25</ele><time>2026-04-24T17:50:46.546Z</time></trkpt><trkpt lat="37.6364033" lon="15.1654767"><ele>213.5</ele><time>2026-04-24T17:50:47.547Z</time></trkpt><trkpt lat="37.636525" lon="15.1653817"><ele>212.75</ele><time>2026-04-24T17:50:48.546Z</time></trkpt><trkpt lat="37.636645" lon="15.1652917"><ele>212.0</ele><time>2026-04-24T17:50:49.546Z</time></trkpt><trkpt lat="37.63677" lon="15.1652017"><ele>212.0</ele><time>2026-04-24T17:50:50.547Z</time></trkpt><trkpt lat="37.6368933" lon="15.165105"><ele>212.0</ele><time>2026-04-24T17:50:51.547Z</time></trkpt><trkpt lat="37.6370183" lon="15.1649967"><ele>212.0</ele><time>2026-04-24T17:50:52.547Z</time></trkpt><trkpt lat="37.6371367" lon="15.1648833"><ele>212.0</ele><time>2026-04-24T17:50:53.547Z</time></trkpt><trkpt lat="37.63725" lon="15.16476"><ele>210.33333333333334</ele><time>2026-04-24T17:50:54.547Z</time></trkpt><trkpt lat="37.6373617" lon="15.1646267"><ele>208.66666666666669</ele><time>2026-04-24T17:50:55.547Z</time></trkpt><trkpt lat="37.6374717" lon="15.164495"><ele>207.0</ele><time>2026-04-24T17:50:56.546Z</time></trkpt><trkpt lat="37.6375833" lon="15.1643633"><ele>207.0</ele><time>2026-04-24T17:50:57.547Z</time></trkpt><trkpt lat="37.6376983" lon="15.1642333"><ele>207.0</ele><time>2026-04-24T17:50:58.546Z</time></trkpt><trkpt lat="37.63781" lon="15.1640967"><ele>207.0</ele><time>2026-04-24T17:50:59.547Z</time></trkpt><trkpt lat="37.6379233" lon="15.163965"><ele>206.25</ele><time>2026-04-24T17:51:00.546Z</time></trkpt><trkpt lat="37.6380283" lon="15.1638317"><ele>205.5</ele><time>2026-04-24T17:51:01.546Z</time></trkpt><trkpt lat="37.6381317" lon="15.163705"><ele>204.75</ele><time>2026-04-24T17:51:02.547Z</time></trkpt><trkpt lat="37.638235" lon="15.163575"><ele>204.0</ele><time>2026-04-24T17:51:03.546Z</time></trkpt><trkpt lat="37.6383333" lon="15.1634533"><ele>204.0</ele><time>2026-04-24T17:51:04.547Z</time></trkpt><trkpt lat="37.63843" lon="15.1633333"><ele>204.0</ele><time>2026-04-24T17:51:05.546Z</time></trkpt><trkpt lat="37.638525" lon="15.1632183"><ele>204.0</ele><time>2026-04-24T17:51:06.546Z</time></trkpt><trkpt lat="37.6386167" lon="15.1631133"><ele>204.0</ele><time>2026-04-24T17:51:07.547Z</time></trkpt><trkpt lat="37.6386983" lon="15.1630117"><ele>203.79999999999998</ele><time>2026-04-24T17:51:08.546Z</time></trkpt><trkpt lat="37.6387817" lon="15.162915"><ele>203.6</ele><time>2026-04-24T17:51:09.547Z</time></trkpt><trkpt lat="37.638855" lon="15.162825"><ele>203.4</ele><time>2026-04-24T17:51:10.547Z</time></trkpt><trkpt lat="37.6389267" lon="15.1627467"><ele>203.2</ele><time>2026-04-24T17:51:11.546Z</time></trkpt><trkpt lat="37.6389917" lon="15.162665"><ele>203.0</ele><time>2026-04-24T17:51:12.547Z</time></trkpt><trkpt lat="37.6390583" lon="15.1625867"><ele>203.0</ele><time>2026-04-24T17:51:13.546Z</time></trkpt><trkpt lat="37.6391283" lon="15.1625183"><ele>203.0</ele><time>2026-04-24T17:51:14.546Z</time></trkpt><trkpt lat="37.6392" lon="15.1624467"><ele>203.0</ele><time>2026-04-24T17:51:15.547Z</time></trkpt><trkpt lat="37.6392783" lon="15.1623783"><ele>203.0</ele><time>2026-04-24T17:51:16.547Z</time></trkpt><trkpt lat="37.6393617" lon="15.16231"><ele>203.0</ele><time>2026-04-24T17:51:17.547Z</time></trkpt><trkpt lat="37.6394567" lon="15.1622383"><ele>204.0</ele><time>2026-04-24T17:51:18.546Z</time></trkpt><trkpt lat="37.63955" lon="15.1621717"><ele>205.0</ele><time>2026-04-24T17:51:19.546Z</time></trkpt><trkpt lat="37.6396517" lon="15.1621117"><ele>206.0</ele><time>2026-04-24T17:51:20.547Z</time></trkpt><trkpt lat="37.6397517" lon="15.162055"><ele>207.0</ele><time>2026-04-24T17:51:21.547Z</time></trkpt><trkpt lat="37.6398583" lon="15.162005"><ele>208.0</ele><time>2026-04-24T17:51:22.547Z</time></trkpt><trkpt lat="37.6399683" lon="15.1619583"><ele>208.0</ele><time>2026-04-24T17:51:23.547Z</time></trkpt><trkpt lat="37.6400833" lon="15.161915"><ele>208.0</ele><time>2026-04-24T17:51:24.547Z</time></trkpt><trkpt lat="37.6402067" lon="15.1618817"><ele>208.0</ele><time>2026-04-24T17:51:25.547Z</time></trkpt><trkpt lat="37.6403267" lon="15.1618567"><ele>208.0</ele><time>2026-04-24T17:51:26.547Z</time></trkpt><trkpt lat="37.6404483" lon="15.1618233"><ele>207.0</ele><time>2026-04-24T17:51:27.547Z</time></trkpt><trkpt lat="37.640575" lon="15.1617967"><ele>206.0</ele><time>2026-04-24T17:51:28.546Z</time></trkpt><trkpt lat="37.6407083" lon="15.1617667"><ele>205.0</ele><time>2026-04-24T17:51:29.546Z</time></trkpt><trkpt lat="37.64085" lon="15.161735"><ele>204.0</ele><time>2026-04-24T17:51:30.546Z</time></trkpt><trkpt lat="37.6409867" lon="15.1617017"><ele>204.0</ele><time>2026-04-24T17:51:31.546Z</time></trkpt><trkpt lat="37.64113" lon="15.1616667"><ele>204.0</ele><time>2026-04-24T17:51:32.546Z</time></trkpt><trkpt lat="37.64127" lon="15.16163"><ele>204.0</ele><time>2026-04-24T17:51:33.547Z</time></trkpt><trkpt lat="37.6414083" lon="15.161585"><ele>204.0</ele><time>2026-04-24T17:51:34.547Z</time></trkpt><trkpt lat="37.6415533" lon="15.16153"><ele>204.33333333333331</ele><time>2026-04-24T17:51:35.546Z</time></trkpt><trkpt lat="37.6416983" lon="15.1614617"><ele>204.66666666666666</ele><time>2026-04-24T17:51:36.547Z</time></trkpt><trkpt lat="37.6418383" lon="15.16138"><ele>205.0</ele><time>2026-04-24T17:51:37.546Z</time></trkpt><trkpt lat="37.6419733" lon="15.1612983"><ele>205.0</ele><time>2026-04-24T17:51:38.547Z</time></trkpt><trkpt lat="37.642105" lon="15.161205"><ele>205.0</ele><time>2026-04-24T17:51:39.546Z</time></trkpt><trkpt lat="37.6422317" lon="15.1611083"><ele>205.0</ele><time>2026-04-24T17:51:40.547Z</time></trkpt><trkpt lat="37.642355" lon="15.1610083"><ele>205.0</ele><time>2026-04-24T17:51:41.547Z</time></trkpt><trkpt lat="37.642475" lon="15.1609083"><ele>205.0</ele><time>2026-04-24T17:51:42.547Z</time></trkpt><trkpt lat="37.6425917" lon="15.160805"><ele>205.0</ele><time>2026-04-24T17:51:43.547Z</time></trkpt><trkpt lat="37.6426983" lon="15.1607117"><ele>205.0</ele><time>2026-04-24T17:51:44.546Z</time></trkpt><trkpt lat="37.642805" lon="15.1606233"><ele>205.0</ele><time>2026-04-24T17:51:45.546Z</time></trkpt><trkpt lat="37.6429067" lon="15.1605317"><ele>206.4</ele><time>2026-04-24T17:51:46.547Z</time></trkpt><trkpt lat="37.643" lon="15.1604483"><ele>207.8</ele><time>2026-04-24T17:51:47.547Z</time></trkpt><trkpt lat="37.6430833" lon="15.160375"><ele>209.2</ele><time>2026-04-24T17:51:48.547Z</time></trkpt><trkpt lat="37.6431683" lon="15.1603017"><ele>210.6</ele><time>2026-04-24T17:51:49.546Z</time></trkpt><trkpt lat="37.6432467" lon="15.1602317"><ele>212.0</ele><time>2026-04-24T17:51:50.547Z</time></trkpt><trkpt lat="37.6433167" lon="15.1601683"><ele>212.0</ele><time>2026-04-24T17:51:51.546Z</time></trkpt><trkpt lat="37.643385" lon="15.1601167"><ele>212.0</ele><time>2026-04-24T17:51:52.546Z</time></trkpt><trkpt lat="37.6434517" lon="15.1600883"><ele>212.0</ele><time>2026-04-24T17:51:53.546Z</time></trkpt><trkpt lat="37.6435167" lon="15.160075"><ele>212.0</ele><time>2026-04-24T17:51:54.546Z</time></trkpt><trkpt lat="37.643585" lon="15.1600667"><ele>212.0</ele><time>2026-04-24T17:51:55.547Z</time></trkpt><trkpt lat="37.64367" lon="15.16004"><ele>212.0</ele><time>2026-04-24T17:51:57.547Z</time></trkpt><trkpt lat="37.6437417" lon="15.16004"><ele>212.0</ele><time>2026-04-24T17:55:19.547Z</time></trkpt><trkpt lat="37.6438067" lon="15.1599617"><ele>210.83333333333334</ele><time>2026-04-24T17:55:21.547Z</time></trkpt><trkpt lat="37.6438383" lon="15.1598717"><ele>209.66666666666669</ele><time>2026-04-24T17:55:23.546Z</time></trkpt><trkpt lat="37.643855" lon="15.159785"><ele>208.5</ele><time>2026-04-24T17:55:25.547Z</time></trkpt><trkpt lat="37.64387" lon="15.1597067"><ele>207.33333333333331</ele><time>2026-04-24T17:55:39.547Z</time></trkpt><trkpt lat="37.6439383" lon="15.159625"><ele>206.16666666666666</ele><time>2026-04-24T17:55:41.547Z</time></trkpt><trkpt lat="37.6439933" lon="15.159575"><ele>205.0</ele><time>2026-04-24T17:55:42.546Z</time></trkpt><trkpt lat="37.6440583" lon="15.1595217"><ele>205.0</ele><time>2026-04-24T17:55:43.547Z</time></trkpt><trkpt lat="37.6441283" lon="15.1594583"><ele>205.0</ele><time>2026-04-24T17:55:44.546Z</time></trkpt><trkpt lat="37.6442033" lon="15.1593917"><ele>205.0</ele><time>2026-04-24T17:55:45.546Z</time></trkpt><trkpt lat="37.6442817" lon="15.15932"><ele>205.0</ele><time>2026-04-24T17:55:46.547Z</time></trkpt><trkpt lat="37.64437" lon="15.159245"><ele>205.0</ele><time>2026-04-24T17:55:47.546Z</time></trkpt><trkpt lat="37.6444633" lon="15.1591633"><ele>206.0</ele><time>2026-04-24T17:55:48.546Z</time></trkpt><trkpt lat="37.6445617" lon="15.15908"><ele>207.0</ele><time>2026-04-24T17:55:49.547Z</time></trkpt><trkpt lat="37.6446583" lon="15.1589983"><ele>208.0</ele><time>2026-04-24T17:55:50.546Z</time></trkpt><trkpt lat="37.6447567" lon="15.1589133"><ele>209.0</ele><time>2026-04-24T17:55:51.546Z</time></trkpt><trkpt lat="37.644855" lon="15.1588267"><ele>209.0</ele><time>2026-04-24T17:55:52.547Z</time></trkpt><trkpt lat="37.64496" lon="15.1587367"><ele>209.0</ele><time>2026-04-24T17:55:53.547Z</time></trkpt><trkpt lat="37.6450667" lon="15.1586467"><ele>209.0</ele><time>2026-04-24T17:55:54.547Z</time></trkpt><trkpt lat="37.6451717" lon="15.1585483"><ele>209.0</ele><time>2026-04-24T17:55:55.546Z</time></trkpt><trkpt lat="37.6452817" lon="15.15845"><ele>208.5</ele><time>2026-04-24T17:55:56.546Z</time></trkpt><trkpt lat="37.6453933" lon="15.1583533"><ele>208.0</ele><time>2026-04-24T17:55:57.547Z</time></trkpt><trkpt lat="37.6455067" lon="15.1582533"><ele>207.5</ele><time>2026-04-24T17:55:58.546Z</time></trkpt><trkpt lat="37.64562" lon="15.15816"><ele>207.0</ele><time>2026-04-24T17:55:59.546Z</time></trkpt><trkpt lat="37.64573" lon="15.1580633"><ele>207.0</ele><time>2026-04-24T17:56:00.547Z</time></trkpt><trkpt lat="37.6458433" lon="15.15797"><ele>207.0</ele><time>2026-04-24T17:56:01.546Z</time></trkpt><trkpt lat="37.6459533" lon="15.15788"><ele>207.0</ele><time>2026-04-24T17:56:02.546Z</time></trkpt><trkpt lat="37.64606" lon="15.1577883"><ele>207.0</ele><time>2026-04-24T17:56:03.547Z</time></trkpt><trkpt lat="37.646165" lon="15.1576967"><ele>207.5</ele><time>2026-04-24T17:56:04.546Z</time></trkpt><trkpt lat="37.6462733" lon="15.1576033"><ele>208.0</ele><time>2026-04-24T17:56:05.546Z</time></trkpt><trkpt lat="37.6463833" lon="15.1575083"><ele>208.5</ele><time>2026-04-24T17:56:06.546Z</time></trkpt><trkpt lat="37.6464933" lon="15.1574083"><ele>209.0</ele><time>2026-04-24T17:56:07.547Z</time></trkpt><trkpt lat="37.6466083" lon="15.1573083"><ele>209.0</ele><time>2026-04-24T17:56:08.547Z</time></trkpt><trkpt lat="37.6467117" lon="15.1572117"><ele>209.0</ele><time>2026-04-24T17:56:09.546Z</time></trkpt><trkpt lat="37.646805" lon="15.1571233"><ele>209.0</ele><time>2026-04-24T17:56:10.546Z</time></trkpt><trkpt lat="37.646885" lon="15.1570417"><ele>209.0</ele><time>2026-04-24T17:56:11.546Z</time></trkpt><trkpt lat="37.6469517" lon="15.1569717"><ele>209.0</ele><time>2026-04-24T17:56:12.547Z</time></trkpt><trkpt lat="37.6470117" lon="15.1569233"><ele>207.6</ele><time>2026-04-24T17:56:13.546Z</time></trkpt><trkpt lat="37.64708" lon="15.1568683"><ele>206.2</ele><time>2026-04-24T17:56:15.546Z</time></trkpt><trkpt lat="37.64715" lon="15.156825"><ele>204.79999999999998</ele><time>2026-04-24T17:56:18.546Z</time></trkpt><trkpt lat="37.6472267" lon="15.1568033"><ele>203.39999999999998</ele><time>2026-04-24T17:56:20.547Z</time></trkpt><trkpt lat="37.6473533" lon="15.1567617"><ele>202.0</ele><time>2026-04-24T17:56:22.547Z</time></trkpt><trkpt lat="37.6474333" lon="15.1567417"><ele>202.0</ele><time>2026-04-24T17:56:23.546Z</time></trkpt><trkpt lat="37.647525" lon="15.1567333"><ele>202.0</ele><time>2026-04-24T17:56:24.547Z</time></trkpt><trkpt lat="37.647625" lon="15.15674"><ele>202.0</ele><time>2026-04-24T17:56:25.546Z</time></trkpt><trkpt lat="37.647725" lon="15.15676"><ele>202.0</ele><time>2026-04-24T17:56:26.547Z</time></trkpt><trkpt lat="37.64783" lon="15.1567867"><ele>202.0</ele><time>2026-04-24T17:56:27.546Z</time></trkpt><trkpt lat="37.6479433" lon="15.1568267"><ele>202.5</ele><time>2026-04-24T17:56:28.546Z</time></trkpt><trkpt lat="37.6480567" lon="15.15688"><ele>203.0</ele><time>2026-04-24T17:56:29.547Z</time></trkpt><trkpt lat="37.6481717" lon="15.1569417"><ele>203.5</ele><time>2026-04-24T17:56:30.546Z</time></trkpt><trkpt lat="37.6482817" lon="15.1570083"><ele>204.0</ele><time>2026-04-24T17:56:31.546Z</time></trkpt><trkpt lat="37.648395" lon="15.1570783"><ele>204.0</ele><time>2026-04-24T17:56:32.546Z</time></trkpt><trkpt lat="37.6485083" lon="15.1571433"><ele>204.0</ele><time>2026-04-24T17:56:33.547Z</time></trkpt><trkpt lat="37.6486267" lon="15.15721"><ele>204.0</ele><time>2026-04-24T17:56:34.547Z</time></trkpt><trkpt lat="37.6487467" lon="15.15728"><ele>204.0</ele><time>2026-04-24T17:56:35.547Z</time></trkpt><trkpt lat="37.64887" lon="15.1573517"><ele>202.75</ele><time>2026-04-24T17:56:36.546Z</time></trkpt><trkpt lat="37.6489933" lon="15.1574217"><ele>201.5</ele><time>2026-04-24T17:56:37.547Z</time></trkpt><trkpt lat="37.6491183" lon="15.1574917"><ele>200.25</ele><time>2026-04-24T17:56:38.546Z</time></trkpt><trkpt lat="37.649245" lon="15.157565"><ele>199.0</ele><time>2026-04-24T17:56:39.546Z</time></trkpt><trkpt lat="37.6493717" lon="15.157635"><ele>199.0</ele><time>2026-04-24T17:56:40.547Z</time></trkpt><trkpt lat="37.6495017" lon="15.1577067"><ele>199.0</ele><time>2026-04-24T17:56:41.547Z</time></trkpt><trkpt lat="37.6496267" lon="15.15778"><ele>199.0</ele><time>2026-04-24T17:56:42.546Z</time></trkpt><trkpt lat="37.64975" lon="15.1578483"><ele>199.0</ele><time>2026-04-24T17:56:43.547Z</time></trkpt><trkpt lat="37.64987" lon="15.1579217"><ele>199.0</ele><time>2026-04-24T17:56:44.547Z</time></trkpt><trkpt lat="37.6499933" lon="15.1579917"><ele>199.0</ele><time>2026-04-24T17:56:45.547Z</time></trkpt><trkpt lat="37.6501167" lon="15.15806"><ele>199.0</ele><time>2026-04-24T17:56:46.547Z</time></trkpt><trkpt lat="37.65024" lon="15.1581317"><ele>199.0</ele><time>2026-04-24T17:56:47.547Z</time></trkpt><trkpt lat="37.650365" lon="15.1581983"><ele>199.0</ele><time>2026-04-24T17:56:48.547Z</time></trkpt><trkpt lat="37.6504883" lon="15.1582717"><ele>199.0</ele><time>2026-04-24T17:56:49.547Z</time></trkpt><trkpt lat="37.650615" lon="15.158345"><ele>199.0</ele><time>2026-04-24T17:56:50.546Z</time></trkpt><trkpt lat="37.6507433" lon="15.1584133"><ele>199.0</ele><time>2026-04-24T17:56:51.546Z</time></trkpt><trkpt lat="37.6508683" lon="15.1584867"><ele>199.0</ele><time>2026-04-24T17:56:52.547Z</time></trkpt><trkpt lat="37.650995" lon="15.158555"><ele>199.0</ele><time>2026-04-24T17:56:53.547Z</time></trkpt><trkpt lat="37.6511233" lon="15.1586283"><ele>199.0</ele><time>2026-04-24T17:56:54.547Z</time></trkpt><trkpt lat="37.651245" lon="15.158705"><ele>199.0</ele><time>2026-04-24T17:56:55.546Z</time></trkpt><trkpt lat="37.6513733" lon="15.1587783"><ele>199.25</ele><time>2026-04-24T17:56:56.546Z</time></trkpt><trkpt lat="37.6515" lon="15.15885"><ele>199.5</ele><time>2026-04-24T17:56:57.547Z</time></trkpt><trkpt lat="37.6516233" lon="15.1589217"><ele>199.75</ele><time>2026-04-24T17:56:58.547Z</time></trkpt><trkpt lat="37.65175" lon="15.1589933"><ele>200.0</ele><time>2026-04-24T17:56:59.546Z</time></trkpt><trkpt lat="37.6518733" lon="15.1590633"><ele>199.5</ele><time>2026-04-24T17:57:00.546Z</time></trkpt><trkpt lat="37.6519933" lon="15.1591317"><ele>199.0</ele><time>2026-04-24T17:57:01.546Z</time></trkpt><trkpt lat="37.65212" lon="15.1592033"><ele>198.5</ele><time>2026-04-24T17:57:02.547Z</time></trkpt><trkpt lat="37.6522467" lon="15.15928"><ele>198.0</ele><time>2026-04-24T17:57:03.546Z</time></trkpt><trkpt lat="37.6523783" lon="15.1593567"><ele>198.0</ele><time>2026-04-24T17:57:04.547Z</time></trkpt><trkpt lat="37.6525083" lon="15.15943"><ele>198.0</ele><time>2026-04-24T17:57:05.546Z</time></trkpt><trkpt lat="37.65264" lon="15.1595033"><ele>198.0</ele><time>2026-04-24T17:57:06.546Z</time></trkpt><trkpt lat="37.65277" lon="15.1595733"><ele>198.0</ele><time>2026-04-24T17:57:07.547Z</time></trkpt><trkpt lat="37.6528967" lon="15.159645"><ele>198.25</ele><time>2026-04-24T17:57:08.547Z</time></trkpt><trkpt lat="37.6530217" lon="15.159715"><ele>198.5</ele><time>2026-04-24T17:57:09.546Z</time></trkpt><trkpt lat="37.65315" lon="15.1597867"><ele>198.75</ele><time>2026-04-24T17:57:10.547Z</time></trkpt><trkpt lat="37.6532817" lon="15.1598583"><ele>199.0</ele><time>2026-04-24T17:57:11.547Z</time></trkpt><trkpt lat="37.6534133" lon="15.1599333"><ele>198.0</ele><time>2026-04-24T17:57:12.547Z</time></trkpt><trkpt lat="37.653545" lon="15.1600067"><ele>197.0</ele><time>2026-04-24T17:57:13.546Z</time></trkpt><trkpt lat="37.6536767" lon="15.1600783"><ele>196.0</ele><time>2026-04-24T17:57:14.546Z</time></trkpt><trkpt lat="37.653805" lon="15.160145"><ele>195.0</ele><time>2026-04-24T17:57:15.546Z</time></trkpt><trkpt lat="37.653925" lon="15.1602133"><ele>195.0</ele><time>2026-04-24T17:57:16.547Z</time></trkpt><trkpt lat="37.6540383" lon="15.16028"><ele>195.0</ele><time>2026-04-24T17:57:17.547Z</time></trkpt><trkpt lat="37.6541433" lon="15.1603367"><ele>195.0</ele><time>2026-04-24T17:57:18.547Z</time></trkpt><trkpt lat="37.6542367" lon="15.160385"><ele>195.0</ele><time>2026-04-24T17:57:19.547Z</time></trkpt><trkpt lat="37.6543217" lon="15.1604317"><ele>195.0</ele><time>2026-04-24T17:57:20.546Z</time></trkpt><trkpt lat="37.6544067" lon="15.1604683"><ele>195.2</ele><time>2026-04-24T17:57:21.547Z</time></trkpt><trkpt lat="37.6544867" lon="15.160495"><ele>195.4</ele><time>2026-04-24T17:57:22.546Z</time></trkpt><trkpt lat="37.654575" lon="15.1604967"><ele>195.60000000000002</ele><time>2026-04-24T17:57:23.547Z</time></trkpt><trkpt lat="37.6546733" lon="15.1604617"><ele>195.8</ele><time>2026-04-24T17:57:24.547Z</time></trkpt><trkpt lat="37.6547717" lon="15.1604217"><ele>196.0</ele><time>2026-04-24T17:57:25.546Z</time></trkpt><trkpt lat="37.6548667" lon="15.1604"><ele>196.0</ele><time>2026-04-24T17:57:26.546Z</time></trkpt><trkpt lat="37.6549667" lon="15.16039"><ele>196.0</ele><time>2026-04-24T17:57:27.547Z</time></trkpt><trkpt lat="37.6550733" lon="15.16041"><ele>196.0</ele><time>2026-04-24T17:57:28.547Z</time></trkpt><trkpt lat="37.655175" lon="15.1604533"><ele>196.0</ele><time>2026-04-24T17:57:29.547Z</time></trkpt><trkpt lat="37.65528" lon="15.1605083"><ele>196.0</ele><time>2026-04-24T17:57:30.547Z</time></trkpt><trkpt lat="37.6553917" lon="15.1605633"><ele>195.25</ele><time>2026-04-24T17:57:31.547Z</time></trkpt><trkpt lat="37.655505" lon="15.1605967"><ele>194.5</ele><time>2026-04-24T17:57:32.546Z</time></trkpt><trkpt lat="37.6556267" lon="15.16061"><ele>193.75</ele><time>2026-04-24T17:57:33.547Z</time></trkpt><trkpt lat="37.6557483" lon="15.16062"><ele>193.0</ele><time>2026-04-24T17:57:34.547Z</time></trkpt><trkpt lat="37.6558667" lon="15.1606267"><ele>193.0</ele><time>2026-04-24T17:57:35.547Z</time></trkpt><trkpt lat="37.65598" lon="15.1606383"><ele>193.0</ele><time>2026-04-24T17:57:36.547Z</time></trkpt><trkpt lat="37.6561" lon="15.1606567"><ele>193.0</ele><time>2026-04-24T17:57:37.547Z</time></trkpt><trkpt lat="37.65621" lon="15.1606867"><ele>193.0</ele><time>2026-04-24T17:57:38.547Z</time></trkpt><trkpt lat="37.6563233" lon="15.1607067"><ele>190.2</ele><time>2026-04-24T17:57:39.546Z</time></trkpt><trkpt lat="37.6564283" lon="15.160735"><ele>187.4</ele><time>2026-04-24T17:57:40.547Z</time></trkpt><trkpt lat="37.6565333" lon="15.16077"><ele>184.6</ele><time>2026-04-24T17:57:41.546Z</time></trkpt><trkpt lat="37.656635" lon="15.1608133"><ele>181.79999999999998</ele><time>2026-04-24T17:57:42.547Z</time></trkpt><trkpt lat="37.6567267" lon="15.1608767"><ele>179.0</ele><time>2026-04-24T17:57:43.546Z</time></trkpt><trkpt lat="37.656815" lon="15.1609533"><ele>179.0</ele><time>2026-04-24T17:57:44.547Z</time></trkpt><trkpt lat="37.656895" lon="15.16104"><ele>179.0</ele><time>2026-04-24T17:57:45.546Z</time></trkpt><trkpt lat="37.6569667" lon="15.1611267"><ele>179.0</ele><time>2026-04-24T17:57:46.546Z</time></trkpt><trkpt lat="37.6570233" lon="15.16121"><ele>179.0</ele><time>2026-04-24T17:57:47.546Z</time></trkpt><trkpt lat="37.6570717" lon="15.1613"><ele>179.0</ele><time>2026-04-24T17:57:48.547Z</time></trkpt><trkpt lat="37.6571067" lon="15.1614033"><ele>179.39999999999998</ele><time>2026-04-24T17:57:49.546Z</time></trkpt><trkpt lat="37.6571283" lon="15.1615117"><ele>179.8</ele><time>2026-04-24T17:57:50.547Z</time></trkpt><trkpt lat="37.657135" lon="15.1616317"><ele>180.2</ele><time>2026-04-24T17:57:51.547Z</time></trkpt><trkpt lat="37.65714" lon="15.161755"><ele>180.60000000000002</ele><time>2026-04-24T17:57:52.547Z</time></trkpt><trkpt lat="37.6571417" lon="15.1618683"><ele>181.0</ele><time>2026-04-24T17:57:53.546Z</time></trkpt><trkpt lat="37.6571333" lon="15.1619883"><ele>180.20000000000002</ele><time>2026-04-24T17:57:54.547Z</time></trkpt><trkpt lat="37.657135" lon="15.1621133"><ele>179.4</ele><time>2026-04-24T17:57:55.546Z</time></trkpt><trkpt lat="37.657125" lon="15.162245"><ele>178.6</ele><time>2026-04-24T17:57:56.547Z</time></trkpt><trkpt lat="37.6571067" lon="15.1623783"><ele>177.8</ele><time>2026-04-24T17:57:57.547Z</time></trkpt><trkpt lat="37.6570817" lon="15.16251"><ele>177.0</ele><time>2026-04-24T17:57:58.547Z</time></trkpt><trkpt lat="37.6570633" lon="15.1626467"><ele>175.39999999999998</ele><time>2026-04-24T17:57:59.547Z</time></trkpt><trkpt lat="37.6570417" lon="15.1627817"><ele>173.79999999999998</ele><time>2026-04-24T17:58:00.546Z</time></trkpt><trkpt lat="37.657025" lon="15.1629183"><ele>172.2</ele><time>2026-04-24T17:58:01.547Z</time></trkpt><trkpt lat="37.6570283" lon="15.16306"><ele>170.6</ele><time>2026-04-24T17:58:02.547Z</time></trkpt><trkpt lat="37.6570467" lon="15.163195"><ele>169.0</ele><time>2026-04-24T17:58:03.547Z</time></trkpt><trkpt lat="37.6570833" lon="15.1633167"><ele>167.39999999999998</ele><time>2026-04-24T17:58:04.546Z</time></trkpt><trkpt lat="37.6571483" lon="15.1634117"><ele>165.8</ele><time>2026-04-24T17:58:05.546Z</time></trkpt><trkpt lat="37.6572317" lon="15.1634867"><ele>164.2</ele><time>2026-04-24T17:58:06.547Z</time></trkpt><trkpt lat="37.6573367" lon="15.16354"><ele>162.60000000000002</ele><time>2026-04-24T17:58:07.546Z</time></trkpt><trkpt lat="37.6574483" lon="15.1635683"><ele>161.0</ele><time>2026-04-24T17:58:08.546Z</time></trkpt><trkpt lat="37.657565" lon="15.16358"><ele>161.0</ele><time>2026-04-24T17:58:09.546Z</time></trkpt><trkpt lat="37.6576767" lon="15.1635967"><ele>161.0</ele><time>2026-04-24T17:58:10.547Z</time></trkpt><trkpt lat="37.6577833" lon="15.1636367"><ele>161.0</ele><time>2026-04-24T17:58:11.546Z</time></trkpt><trkpt lat="37.6578833" lon="15.1637"><ele>161.0</ele><time>2026-04-24T17:58:12.546Z</time></trkpt><trkpt lat="37.65797" lon="15.16378"><ele>161.0</ele><time>2026-04-24T17:58:13.546Z</time></trkpt><trkpt lat="37.6580583" lon="15.1638667"><ele>160.60000000000002</ele><time>2026-04-24T17:58:14.547Z</time></trkpt><trkpt lat="37.6581433" lon="15.1639433"><ele>160.20000000000002</ele><time>2026-04-24T17:58:15.546Z</time></trkpt><trkpt lat="37.6582417" lon="15.163995"><ele>159.8</ele><time>2026-04-24T17:58:16.546Z</time></trkpt><trkpt lat="37.658345" lon="15.1640083"><ele>159.4</ele><time>2026-04-24T17:58:17.547Z</time></trkpt><trkpt lat="37.65845" lon="15.164"><ele>159.0</ele><time>2026-04-24T17:58:18.547Z</time></trkpt><trkpt lat="37.65856" lon="15.163965"><ele>157.5</ele><time>2026-04-24T17:58:19.547Z</time></trkpt><trkpt lat="37.6586717" lon="15.1639217"><ele>156.0</ele><time>2026-04-24T17:58:20.546Z</time></trkpt><trkpt lat="37.6587867" lon="15.163875"><ele>154.5</ele><time>2026-04-24T17:58:21.546Z</time></trkpt><trkpt lat="37.6588983" lon="15.16383"><ele>153.0</ele><time>2026-04-24T17:58:22.547Z</time></trkpt><trkpt lat="37.659005" lon="15.1637917"><ele>153.0</ele><time>2026-04-24T17:58:23.547Z</time></trkpt><trkpt lat="37.6591083" lon="15.1637533"><ele>153.0</ele><time>2026-04-24T17:58:24.547Z</time></trkpt><trkpt lat="37.6592117" lon="15.1637117"><ele>153.0</ele><time>2026-04-24T17:58:25.546Z</time></trkpt><trkpt lat="37.65931" lon="15.163675"><ele>153.0</ele><time>2026-04-24T17:58:26.547Z</time></trkpt><trkpt lat="37.65941" lon="15.1636383"><ele>153.0</ele><time>2026-04-24T17:58:27.546Z</time></trkpt><trkpt lat="37.6595067" lon="15.1636067"><ele>151.8</ele><time>2026-04-24T17:58:28.547Z</time></trkpt><trkpt lat="37.6596067" lon="15.16358"><ele>150.60000000000002</ele><time>2026-04-24T17:58:29.547Z</time></trkpt><trkpt lat="37.6597133" lon="15.163565"><ele>149.39999999999998</ele><time>2026-04-24T17:58:30.546Z</time></trkpt><trkpt lat="37.6598217" lon="15.1635583"><ele>148.2</ele><time>2026-04-24T17:58:31.546Z</time></trkpt><trkpt lat="37.6599233" lon="15.1635733"><ele>147.0</ele><time>2026-04-24T17:58:32.547Z</time></trkpt><trkpt lat="37.6600283" lon="15.163605"><ele>147.0</ele><time>2026-04-24T17:58:33.546Z</time></trkpt><trkpt lat="37.6601283" lon="15.163655"><ele>147.0</ele><time>2026-04-24T17:58:34.546Z</time></trkpt><trkpt lat="37.6602283" lon="15.1637117"><ele>147.0</ele><time>2026-04-24T17:58:35.546Z</time></trkpt><trkpt lat="37.6603333" lon="15.1637733"><ele>147.0</ele><time>2026-04-24T17:58:36.547Z</time></trkpt><trkpt lat="37.66044" lon="15.16383"><ele>147.0</ele><time>2026-04-24T17:58:37.547Z</time></trkpt><trkpt lat="37.6605533" lon="15.1638833"><ele>146.25</ele><time>2026-04-24T17:58:38.546Z</time></trkpt><trkpt lat="37.66066" lon="15.1639433"><ele>145.5</ele><time>2026-04-24T17:58:39.546Z</time></trkpt><trkpt lat="37.660765" lon="15.1639983"><ele>144.75</ele><time>2026-04-24T17:58:40.547Z</time></trkpt><trkpt lat="37.6608667" lon="15.1640583"><ele>144.0</ele><time>2026-04-24T17:58:41.547Z</time></trkpt><trkpt lat="37.6609667" lon="15.1641183"><ele>144.0</ele><time>2026-04-24T17:58:42.546Z</time></trkpt><trkpt lat="37.66107" lon="15.1641783"><ele>144.0</ele><time>2026-04-24T17:58:43.547Z</time></trkpt><trkpt lat="37.6611683" lon="15.164235"><ele>144.0</ele><time>2026-04-24T17:58:44.546Z</time></trkpt><trkpt lat="37.66126" lon="15.16429"><ele>144.0</ele><time>2026-04-24T17:58:45.546Z</time></trkpt><trkpt lat="37.6613483" lon="15.1643417"><ele>144.0</ele><time>2026-04-24T17:58:46.547Z</time></trkpt><trkpt lat="37.661435" lon="15.1643883"><ele>144.83333333333334</ele><time>2026-04-24T17:58:47.546Z</time></trkpt><trkpt lat="37.6615217" lon="15.1644367"><ele>145.66666666666666</ele><time>2026-04-24T17:58:48.546Z</time></trkpt><trkpt lat="37.6616133" lon="15.1644817"><ele>146.5</ele><time>2026-04-24T17:58:49.546Z</time></trkpt><trkpt lat="37.6617031" lon="15.1645215"><ele>147.33333333333331</ele><time>2026-04-24T17:58:50.546Z</time></trkpt><trkpt lat="37.6617802" lon="15.1645589"><ele>148.16666666666666</ele><time>2026-04-24T17:58:51.547Z</time></trkpt><trkpt lat="37.6618504" lon="15.1645912"><ele>149.0</ele><time>2026-04-24T17:58:52.547Z</time></trkpt><trkpt lat="37.6619105" lon="15.1646201"><ele>148.66666666666666</ele><time>2026-04-24T17:58:53.546Z</time></trkpt><trkpt lat="37.6619984" lon="15.1646606"><ele>148.33333333333331</ele><time>2026-04-24T17:58:55.547Z</time></trkpt><trkpt lat="37.6620669" lon="15.1646904"><ele>148.0</ele><time>2026-04-24T17:58:58.546Z</time></trkpt><trkpt lat="37.6621343" lon="15.1647304"><ele>147.66666666666666</ele><time>2026-04-24T17:59:01.547Z</time></trkpt><trkpt lat="37.6622115" lon="15.1647714"><ele>147.33333333333334</ele><time>2026-04-24T17:59:03.546Z</time></trkpt><trkpt lat="37.662288" lon="15.1648299"><ele>147.0</ele><time>2026-04-24T17:59:05.546Z</time></trkpt><trkpt lat="37.6623567" lon="15.1648843"><ele>147.0</ele><time>2026-04-24T17:59:07.546Z</time></trkpt><trkpt lat="37.6624166" lon="15.1649208"><ele>147.0</ele><time>2026-04-24T17:59:09.546Z</time></trkpt><trkpt lat="37.6624922" lon="15.1649757"><ele>147.0</ele><time>2026-04-24T17:59:12.546Z</time></trkpt><trkpt lat="37.6625677" lon="15.1650191"><ele>147.0</ele><time>2026-04-24T17:59:15.547Z</time></trkpt><trkpt lat="37.6626609" lon="15.1650556"><ele>147.0</ele><time>2026-04-24T17:59:21.547Z</time></trkpt><trkpt lat="37.6627179" lon="15.1650956"><ele>147.0</ele><time>2026-04-24T17:59:23.547Z</time></trkpt><trkpt lat="37.6627879" lon="15.1651297"><ele>146.5</ele><time>2026-04-24T17:59:26.547Z</time></trkpt><trkpt lat="37.6628566" lon="15.1651652"><ele>146.0</ele><time>2026-04-24T17:59:29.546Z</time></trkpt><trkpt lat="37.6629355" lon="15.1651924"><ele>145.5</ele><time>2026-04-24T17:59:32.546Z</time></trkpt><trkpt lat="37.6629971" lon="15.1652345"><ele>145.0</ele><time>2026-04-24T17:59:34.546Z</time></trkpt><trkpt lat="37.6630762" lon="15.1652903"><ele>144.5</ele><time>2026-04-24T17:59:36.546Z</time></trkpt><trkpt lat="37.663145" lon="15.165345"><ele>144.0</ele><time>2026-04-24T17:59:38.546Z</time></trkpt><trkpt lat="37.6632067" lon="15.1654017"><ele>144.0</ele><time>2026-04-24T17:59:41.546Z</time></trkpt><trkpt lat="37.6632717" lon="15.1654433"><ele>144.0</ele><time>2026-04-24T17:59:44.546Z</time></trkpt><trkpt lat="37.6633417" lon="15.1654417"><ele>144.0</ele><time>2026-04-24T17:59:54.546Z</time></trkpt><trkpt lat="37.663425" lon="15.1654817"><ele>144.0</ele><time>2026-04-24T17:59:56.546Z</time></trkpt><trkpt lat="37.6635317" lon="15.165535"><ele>144.0</ele><time>2026-04-24T17:59:58.547Z</time></trkpt><trkpt lat="37.66359" lon="15.16557"><ele>144.0</ele><time>2026-04-24T17:59:59.546Z</time></trkpt><trkpt lat="37.6636533" lon="15.1656117"><ele>143.66666666666666</ele><time>2026-04-24T18:00:00.546Z</time></trkpt><trkpt lat="37.6637217" lon="15.1656433"><ele>143.33333333333334</ele><time>2026-04-24T18:00:01.547Z</time></trkpt><trkpt lat="37.6638" lon="15.1656883"><ele>143.0</ele><time>2026-04-24T18:00:02.546Z</time></trkpt><trkpt lat="37.6638767" lon="15.1657283"><ele>142.66666666666669</ele><time>2026-04-24T18:00:03.547Z</time></trkpt><trkpt lat="37.66396" lon="15.1657633"><ele>142.33333333333334</ele><time>2026-04-24T18:00:04.547Z</time></trkpt><trkpt lat="37.66404" lon="15.16579"><ele>142.0</ele><time>2026-04-24T18:00:05.546Z</time></trkpt><trkpt lat="37.6641117" lon="15.1658367"><ele>141.5</ele><time>2026-04-24T18:00:06.546Z</time></trkpt><trkpt lat="37.664185" lon="15.1658733"><ele>141.0</ele><time>2026-04-24T18:00:07.547Z</time></trkpt><trkpt lat="37.6642617" lon="15.1659133"><ele>140.5</ele><time>2026-04-24T18:00:08.546Z</time></trkpt><trkpt lat="37.6643333" lon="15.165955"><ele>140.0</ele><time>2026-04-24T18:00:09.546Z</time></trkpt><trkpt lat="37.6643967" lon="15.165995"><ele>139.5</ele><time>2026-04-24T18:00:10.547Z</time></trkpt><trkpt lat="37.6645033" lon="15.166075"><ele>139.0</ele><time>2026-04-24T18:00:12.547Z</time></trkpt><trkpt lat="37.664575" lon="15.1661133"><ele>139.0</ele><time>2026-04-24T18:00:13.547Z</time></trkpt><trkpt lat="37.6646483" lon="15.1661367"><ele>139.0</ele><time>2026-04-24T18:00:14.547Z</time></trkpt><trkpt lat="37.6647117" lon="15.1661817"><ele>139.0</ele><time>2026-04-24T18:00:15.546Z</time></trkpt><trkpt lat="37.6647817" lon="15.1662233"><ele>139.0</ele><time>2026-04-24T18:00:16.547Z</time></trkpt><trkpt lat="37.66486" lon="15.166265"><ele>139.0</ele><time>2026-04-24T18:00:17.547Z</time></trkpt><trkpt lat="37.664945" lon="15.166325"><ele>139.0</ele><time>2026-04-24T18:00:18.546Z</time></trkpt><trkpt lat="37.665035" lon="15.16637"><ele>139.0</ele><time>2026-04-24T18:00:19.547Z</time></trkpt><trkpt lat="37.665125" lon="15.166425"><ele>139.0</ele><time>2026-04-24T18:00:20.547Z</time></trkpt><trkpt lat="37.6652183" lon="15.16647"><ele>139.0</ele><time>2026-04-24T18:00:21.546Z</time></trkpt><trkpt lat="37.6653067" lon="15.1665067"><ele>139.0</ele><time>2026-04-24T18:00:22.547Z</time></trkpt><trkpt lat="37.6653967" lon="15.16655"><ele>139.0</ele><time>2026-04-24T18:00:23.547Z</time></trkpt><trkpt lat="37.6654983" lon="15.1666017"><ele>138.4</ele><time>2026-04-24T18:00:24.547Z</time></trkpt><trkpt lat="37.6655967" lon="15.166645"><ele>137.8</ele><time>2026-04-24T18:00:25.546Z</time></trkpt><trkpt lat="37.6656983" lon="15.1666983"><ele>137.2</ele><time>2026-04-24T18:00:26.547Z</time></trkpt><trkpt lat="37.6657967" lon="15.1667517"><ele>136.6</ele><time>2026-04-24T18:00:27.546Z</time></trkpt><trkpt lat="37.6659017" lon="15.1668"><ele>136.0</ele><time>2026-04-24T18:00:28.546Z</time></trkpt><trkpt lat="37.6660017" lon="15.16685"><ele>136.0</ele><time>2026-04-24T18:00:29.547Z</time></trkpt><trkpt lat="37.6661" lon="15.1669117"><ele>136.0</ele><time>2026-04-24T18:00:30.547Z</time></trkpt><trkpt lat="37.6661917" lon="15.1669683"><ele>136.0</ele><time>2026-04-24T18:00:31.546Z</time></trkpt><trkpt lat="37.6662783" lon="15.1670233"><ele>136.0</ele><time>2026-04-24T18:00:32.547Z</time></trkpt><trkpt lat="37.6663633" lon="15.1670783"><ele>136.0</ele><time>2026-04-24T18:00:33.547Z</time></trkpt><trkpt lat="37.6664583" lon="15.167125"><ele>136.8</ele><time>2026-04-24T18:00:34.546Z</time></trkpt><trkpt lat="37.6665483" lon="15.16718"><ele>137.6</ele><time>2026-04-24T18:00:35.546Z</time></trkpt><trkpt lat="37.666635" lon="15.1672283"><ele>138.4</ele><time>2026-04-24T18:00:36.546Z</time></trkpt><trkpt lat="37.6667233" lon="15.1672733"><ele>139.2</ele><time>2026-04-24T18:00:37.546Z</time></trkpt><trkpt lat="37.6668167" lon="15.1673217"><ele>140.0</ele><time>2026-04-24T18:00:38.547Z</time></trkpt><trkpt lat="37.666915" lon="15.1673833"><ele>140.2</ele><time>2026-04-24T18:00:39.546Z</time></trkpt><trkpt lat="37.667015" lon="15.1674367"><ele>140.4</ele><time>2026-04-24T18:00:40.546Z</time></trkpt><trkpt lat="37.6671067" lon="15.1674883"><ele>140.6</ele><time>2026-04-24T18:00:41.547Z</time></trkpt><trkpt lat="37.6672083" lon="15.1675367"><ele>140.8</ele><time>2026-04-24T18:00:42.547Z</time></trkpt><trkpt lat="37.667305" lon="15.1675883"><ele>141.0</ele><time>2026-04-24T18:00:43.546Z</time></trkpt><trkpt lat="37.6674" lon="15.16764"><ele>141.0</ele><time>2026-04-24T18:00:44.547Z</time></trkpt><trkpt lat="37.6674933" lon="15.167685"><ele>141.0</ele><time>2026-04-24T18:00:45.547Z</time></trkpt><trkpt lat="37.6675917" lon="15.1677317"><ele>141.0</ele><time>2026-04-24T18:00:46.547Z</time></trkpt><trkpt lat="37.6676917" lon="15.16779"><ele>141.0</ele><time>2026-04-24T18:00:47.546Z</time></trkpt><trkpt lat="37.6677933" lon="15.16784"><ele>141.0</ele><time>2026-04-24T18:00:48.546Z</time></trkpt><trkpt lat="37.667895" lon="15.1678933"><ele>140.75</ele><time>2026-04-24T18:00:49.547Z</time></trkpt><trkpt lat="37.6680033" lon="15.1679733"><ele>140.5</ele><time>2026-04-24T18:00:50.546Z</time></trkpt><trkpt lat="37.6681167" lon="15.1680467"><ele>140.25</ele><time>2026-04-24T18:00:51.547Z</time></trkpt><trkpt lat="37.6682383" lon="15.168105"><ele>140.0</ele><time>2026-04-24T18:00:52.546Z</time></trkpt><trkpt lat="37.6683533" lon="15.1681617"><ele>139.0</ele><time>2026-04-24T18:00:53.547Z</time></trkpt><trkpt lat="37.668465" lon="15.1682167"><ele>138.0</ele><time>2026-04-24T18:00:54.546Z</time></trkpt><trkpt lat="37.6685833" lon="15.168265"><ele>137.0</ele><time>2026-04-24T18:00:55.547Z</time></trkpt><trkpt lat="37.668695" lon="15.168325"><ele>136.0</ele><time>2026-04-24T18:00:56.547Z</time></trkpt><trkpt lat="37.668805" lon="15.1683867"><ele>136.0</ele><time>2026-04-24T18:00:57.546Z</time></trkpt><trkpt lat="37.6689233" lon="15.16845"><ele>136.0</ele><time>2026-04-24T18:00:58.546Z</time></trkpt><trkpt lat="37.669045" lon="15.1685183"><ele>136.0</ele><time>2026-04-24T18:00:59.547Z</time></trkpt><trkpt lat="37.6691733" lon="15.1685867"><ele>136.0</ele><time>2026-04-24T18:01:00.547Z</time></trkpt><trkpt lat="37.6693083" lon="15.16866"><ele>136.5</ele><time>2026-04-24T18:01:01.547Z</time></trkpt><trkpt lat="37.6694433" lon="15.1687317"><ele>137.0</ele><time>2026-04-24T18:01:02.547Z</time></trkpt><trkpt lat="37.6695767" lon="15.16881"><ele>137.5</ele><time>2026-04-24T18:01:03.546Z</time></trkpt><trkpt lat="37.6697133" lon="15.16889"><ele>138.0</ele><time>2026-04-24T18:01:04.547Z</time></trkpt><trkpt lat="37.66985" lon="15.16896"><ele>137.75</ele><time>2026-04-24T18:01:05.547Z</time></trkpt><trkpt lat="37.6699767" lon="15.1690367"><ele>137.5</ele><time>2026-04-24T18:01:06.547Z</time></trkpt><trkpt lat="37.67011" lon="15.1691033"><ele>137.25</ele><time>2026-04-24T18:01:07.547Z</time></trkpt><trkpt lat="37.6702517" lon="15.1691717"><ele>137.0</ele><time>2026-04-24T18:01:08.547Z</time></trkpt><trkpt lat="37.6703883" lon="15.1692467"><ele>137.0</ele><time>2026-04-24T18:01:09.546Z</time></trkpt><trkpt lat="37.6705183" lon="15.1693183"><ele>137.0</ele><time>2026-04-24T18:01:10.547Z</time></trkpt><trkpt lat="37.6706483" lon="15.1693883"><ele>137.0</ele><time>2026-04-24T18:01:11.546Z</time></trkpt><trkpt lat="37.6707767" lon="15.16946"><ele>137.0</ele><time>2026-04-24T18:01:12.547Z</time></trkpt><trkpt lat="37.6709083" lon="15.1695333"><ele>137.0</ele><time>2026-04-24T18:01:13.547Z</time></trkpt><trkpt lat="37.6710433" lon="15.1696083"><ele>137.0</ele><time>2026-04-24T18:01:14.546Z</time></trkpt><trkpt lat="37.6711783" lon="15.1696767"><ele>137.0</ele><time>2026-04-24T18:01:15.546Z</time></trkpt><trkpt lat="37.6713017" lon="15.169745"><ele>137.0</ele><time>2026-04-24T18:01:16.547Z</time></trkpt><trkpt lat="37.6714233" lon="15.1698083"><ele>139.5</ele><time>2026-04-24T18:01:17.547Z</time></trkpt><trkpt lat="37.6715467" lon="15.1698683"><ele>142.0</ele><time>2026-04-24T18:01:18.546Z</time></trkpt><trkpt lat="37.6716683" lon="15.1699283"><ele>144.5</ele><time>2026-04-24T18:01:19.547Z</time></trkpt><trkpt lat="37.67179" lon="15.1699917"><ele>147.0</ele><time>2026-04-24T18:01:20.547Z</time></trkpt><trkpt lat="37.6719133" lon="15.170045"><ele>149.0</ele><time>2026-04-24T18:01:21.547Z</time></trkpt><trkpt lat="37.672035" lon="15.170105"><ele>151.0</ele><time>2026-04-24T18:01:22.546Z</time></trkpt><trkpt lat="37.6721667" lon="15.170155"><ele>153.0</ele><time>2026-04-24T18:01:23.547Z</time></trkpt><trkpt lat="37.6722983" lon="15.1702033"><ele>155.0</ele><time>2026-04-24T18:01:24.547Z</time></trkpt><trkpt lat="37.6724283" lon="15.17025"><ele>155.0</ele><time>2026-04-24T18:01:25.546Z</time></trkpt><trkpt lat="37.672555" lon="15.170305"><ele>155.0</ele><time>2026-04-24T18:01:26.547Z</time></trkpt><trkpt lat="37.6726783" lon="15.17036"><ele>155.0</ele><time>2026-04-24T18:01:27.547Z</time></trkpt><trkpt lat="37.6728017" lon="15.1704183"><ele>155.0</ele><time>2026-04-24T18:01:28.546Z</time></trkpt><trkpt lat="37.67292" lon="15.1704783"><ele>155.25</ele><time>2026-04-24T18:01:29.547Z</time></trkpt><trkpt lat="37.6730367" lon="15.1705317"><ele>155.5</ele><time>2026-04-24T18:01:30.547Z</time></trkpt><trkpt lat="37.6731667" lon="15.17059"><ele>155.75</ele><time>2026-04-24T18:01:31.547Z</time></trkpt><trkpt lat="37.673285" lon="15.1706533"><ele>156.0</ele><time>2026-04-24T18:01:32.546Z</time></trkpt><trkpt lat="37.6734017" lon="15.170715"><ele>155.5</ele><time>2026-04-24T18:01:33.547Z</time></trkpt><trkpt lat="37.673535" lon="15.1707683"><ele>155.0</ele><time>2026-04-24T18:01:34.547Z</time></trkpt><trkpt lat="37.67367" lon="15.1708217"><ele>154.5</ele><time>2026-04-24T18:01:35.547Z</time></trkpt><trkpt lat="37.6737983" lon="15.1708733"><ele>154.0</ele><time>2026-04-24T18:01:36.547Z</time></trkpt><trkpt lat="37.6739183" lon="15.1709317"><ele>155.0</ele><time>2026-04-24T18:01:37.546Z</time></trkpt><trkpt lat="37.6740433" lon="15.1709833"><ele>156.0</ele><time>2026-04-24T18:01:38.546Z</time></trkpt><trkpt lat="37.6741683" lon="15.17104"><ele>157.0</ele><time>2026-04-24T18:01:39.547Z</time></trkpt><trkpt lat="37.6742833" lon="15.1710917"><ele>158.0</ele><time>2026-04-24T18:01:40.546Z</time></trkpt><trkpt lat="37.6744" lon="15.171145"><ele>157.8</ele><time>2026-04-24T18:01:41.546Z</time></trkpt><trkpt lat="37.6745133" lon="15.1711933"><ele>157.60000000000002</ele><time>2026-04-24T18:01:42.547Z</time></trkpt><trkpt lat="37.6746183" lon="15.171235"><ele>157.39999999999998</ele><time>2026-04-24T18:01:43.547Z</time></trkpt><trkpt lat="37.6747183" lon="15.1712667"><ele>157.2</ele><time>2026-04-24T18:01:44.546Z</time></trkpt><trkpt lat="37.674805" lon="15.1713033"><ele>157.0</ele><time>2026-04-24T18:01:45.546Z</time></trkpt><trkpt lat="37.6748867" lon="15.17134"><ele>157.0</ele><time>2026-04-24T18:01:46.547Z</time></trkpt><trkpt lat="37.6749583" lon="15.1713783"><ele>157.0</ele><time>2026-04-24T18:01:47.547Z</time></trkpt><trkpt lat="37.6750183" lon="15.1714217"><ele>157.0</ele><time>2026-04-24T18:01:48.547Z</time></trkpt><trkpt lat="37.6751017" lon="15.1715117"><ele>157.0</ele><time>2026-04-24T18:01:50.546Z</time></trkpt><trkpt lat="37.675185" lon="15.1716083"><ele>157.0</ele><time>2026-04-24T18:01:52.546Z</time></trkpt><trkpt lat="37.6752983" lon="15.1716083"><ele>156.83333333333334</ele><time>2026-04-24T18:01:54.546Z</time></trkpt><trkpt lat="37.6753733" lon="15.171595"><ele>156.66666666666669</ele><time>2026-04-24T18:01:55.546Z</time></trkpt><trkpt lat="37.6754567" lon="15.1715967"><ele>156.5</ele><time>2026-04-24T18:01:56.547Z</time></trkpt><trkpt lat="37.6755433" lon="15.171605"><ele>156.33333333333334</ele><time>2026-04-24T18:01:57.546Z</time></trkpt><trkpt lat="37.6756383" lon="15.1716267"><ele>156.16666666666666</ele><time>2026-04-24T18:01:58.547Z</time></trkpt><trkpt lat="37.6757367" lon="15.1716583"><ele>156.0</ele><time>2026-04-24T18:01:59.547Z</time></trkpt><trkpt lat="37.675845" lon="15.1716933"><ele>156.0</ele><time>2026-04-24T18:02:00.547Z</time></trkpt><trkpt lat="37.6759483" lon="15.1717283"><ele>156.0</ele><time>2026-04-24T18:02:01.546Z</time></trkpt><trkpt lat="37.67604" lon="15.1717767"><ele>156.0</ele><time>2026-04-24T18:02:02.546Z</time></trkpt><trkpt lat="37.6761417" lon="15.171825"><ele>156.0</ele><time>2026-04-24T18:02:03.547Z</time></trkpt><trkpt lat="37.6762383" lon="15.1718783"><ele>156.0</ele><time>2026-04-24T18:02:04.547Z</time></trkpt><trkpt lat="37.6763383" lon="15.171925"><ele>156.6</ele><time>2026-04-24T18:02:05.547Z</time></trkpt><trkpt lat="37.6764333" lon="15.1719717"><ele>157.2</ele><time>2026-04-24T18:02:06.546Z</time></trkpt><trkpt lat="37.6765267" lon="15.17202"><ele>157.8</ele><time>2026-04-24T18:02:07.547Z</time></trkpt><trkpt lat="37.67663" lon="15.1720633"><ele>158.4</ele><time>2026-04-24T18:02:08.547Z</time></trkpt><trkpt lat="37.6767433" lon="15.17209"><ele>159.0</ele><time>2026-04-24T18:02:09.547Z</time></trkpt><trkpt lat="37.6768583" lon="15.1721233"><ele>159.5</ele><time>2026-04-24T18:02:10.546Z</time></trkpt><trkpt lat="37.676975" lon="15.1721533"><ele>160.0</ele><time>2026-04-24T18:02:11.546Z</time></trkpt><trkpt lat="37.6770983" lon="15.1721717"><ele>160.5</ele><time>2026-04-24T18:02:12.546Z</time></trkpt><trkpt lat="37.6772233" lon="15.1721717"><ele>161.0</ele><time>2026-04-24T18:02:13.546Z</time></trkpt><trkpt lat="37.67735" lon="15.1721583"><ele>161.0</ele><time>2026-04-24T18:02:14.546Z</time></trkpt><trkpt lat="37.6774667" lon="15.1721383"><ele>161.0</ele><time>2026-04-24T18:02:15.547Z</time></trkpt><trkpt lat="37.6775833" lon="15.172115"><ele>161.0</ele><time>2026-04-24T18:02:16.547Z</time></trkpt><trkpt lat="37.6776917" lon="15.1720933"><ele>161.0</ele><time>2026-04-24T18:02:17.546Z</time></trkpt><trkpt lat="37.6777933" lon="15.172085"><ele>161.0</ele><time>2026-04-24T18:02:18.546Z</time></trkpt><trkpt lat="37.6778933" lon="15.1720983"><ele>160.4</ele><time>2026-04-24T18:02:19.547Z</time></trkpt><trkpt lat="37.6779883" lon="15.1721417"><ele>159.8</ele><time>2026-04-24T18:02:20.547Z</time></trkpt><trkpt lat="37.6780867" lon="15.1722017"><ele>159.20000000000002</ele><time>2026-04-24T18:02:21.547Z</time></trkpt><trkpt lat="37.67819" lon="15.17227"><ele>158.60000000000002</ele><time>2026-04-24T18:02:22.546Z</time></trkpt><trkpt lat="37.6782933" lon="15.17234"><ele>158.0</ele><time>2026-04-24T18:02:23.547Z</time></trkpt><trkpt lat="37.6784" lon="15.172415"><ele>157.5</ele><time>2026-04-24T18:02:24.546Z</time></trkpt><trkpt lat="37.6785083" lon="15.172495"><ele>157.0</ele><time>2026-04-24T18:02:25.546Z</time></trkpt><trkpt lat="37.6786217" lon="15.1725767"><ele>156.5</ele><time>2026-04-24T18:02:26.546Z</time></trkpt><trkpt lat="37.6787367" lon="15.1726567"><ele>156.0</ele><time>2026-04-24T18:02:27.547Z</time></trkpt><trkpt lat="37.6788483" lon="15.1727367"><ele>157.0</ele><time>2026-04-24T18:02:28.547Z</time></trkpt><trkpt lat="37.678965" lon="15.17281"><ele>158.0</ele><time>2026-04-24T18:02:29.546Z</time></trkpt><trkpt lat="37.67907" lon="15.17289"><ele>159.0</ele><time>2026-04-24T18:02:30.547Z</time></trkpt><trkpt lat="37.67918" lon="15.1729683"><ele>160.0</ele><time>2026-04-24T18:02:31.547Z</time></trkpt><trkpt lat="37.679295" lon="15.1730383"><ele>160.0</ele><time>2026-04-24T18:02:32.546Z</time></trkpt><trkpt lat="37.6794167" lon="15.1731033"><ele>160.0</ele><time>2026-04-24T18:02:33.547Z</time></trkpt><trkpt lat="37.6795383" lon="15.173155"><ele>160.0</ele><time>2026-04-24T18:02:34.547Z</time></trkpt><trkpt lat="37.6796583" lon="15.173195"><ele>160.0</ele><time>2026-04-24T18:02:35.547Z</time></trkpt><trkpt lat="37.6797767" lon="15.173225"><ele>159.5</ele><time>2026-04-24T18:02:36.547Z</time></trkpt><trkpt lat="37.6799" lon="15.1732483"><ele>159.0</ele><time>2026-04-24T18:02:37.547Z</time></trkpt><trkpt lat="37.6800217" lon="15.1732617"><ele>158.5</ele><time>2026-04-24T18:02:38.546Z</time></trkpt><trkpt lat="37.6801517" lon="15.1732567"><ele>158.0</ele><time>2026-04-24T18:02:39.546Z</time></trkpt><trkpt lat="37.68028" lon="15.1732417"><ele>158.0</ele><time>2026-04-24T18:02:40.546Z</time></trkpt><trkpt lat="37.6804117" lon="15.1732167"><ele>158.0</ele><time>2026-04-24T18:02:41.546Z</time></trkpt><trkpt lat="37.6805483" lon="15.173185"><ele>158.0</ele><time>2026-04-24T18:02:42.547Z</time></trkpt><trkpt lat="37.680685" lon="15.1731483"><ele>158.0</ele><time>2026-04-24T18:02:43.546Z</time></trkpt><trkpt lat="37.680815" lon="15.1731183"><ele>159.0</ele><time>2026-04-24T18:02:44.547Z</time></trkpt><trkpt lat="37.68094" lon="15.1730867"><ele>160.0</ele><time>2026-04-24T18:02:45.546Z</time></trkpt><trkpt lat="37.681065" lon="15.173055"><ele>161.0</ele><time>2026-04-24T18:02:46.547Z</time></trkpt><trkpt lat="37.6811933" lon="15.173025"><ele>162.0</ele><time>2026-04-24T18:02:47.546Z</time></trkpt><trkpt lat="37.6813167" lon="15.172995"><ele>162.0</ele><time>2026-04-24T18:02:48.546Z</time></trkpt><trkpt lat="37.6814317" lon="15.172965"><ele>162.0</ele><time>2026-04-24T18:02:49.547Z</time></trkpt><trkpt lat="37.6815517" lon="15.1729333"><ele>162.0</ele><time>2026-04-24T18:02:50.547Z</time></trkpt><trkpt lat="37.6816683" lon="15.172905"><ele>162.0</ele><time>2026-04-24T18:02:51.547Z</time></trkpt><trkpt lat="37.6817833" lon="15.1728783"><ele>162.0</ele><time>2026-04-24T18:02:52.546Z</time></trkpt><trkpt lat="37.6818983" lon="15.1728417"><ele>162.0</ele><time>2026-04-24T18:02:53.547Z</time></trkpt><trkpt lat="37.6820083" lon="15.1727917"><ele>162.0</ele><time>2026-04-24T18:02:54.547Z</time></trkpt><trkpt lat="37.6821167" lon="15.1727383"><ele>162.0</ele><time>2026-04-24T18:02:55.547Z</time></trkpt><trkpt lat="37.6822233" lon="15.17268"><ele>163.0</ele><time>2026-04-24T18:02:56.547Z</time></trkpt><trkpt lat="37.6823283" lon="15.1726167"><ele>164.0</ele><time>2026-04-24T18:02:57.547Z</time></trkpt><trkpt lat="37.6824283" lon="15.1725467"><ele>165.0</ele><time>2026-04-24T18:02:58.547Z</time></trkpt><trkpt lat="37.6825167" lon="15.1724867"><ele>166.0</ele><time>2026-04-24T18:02:59.546Z</time></trkpt><trkpt lat="37.6826067" lon="15.1724233"><ele>167.0</ele><time>2026-04-24T18:03:00.547Z</time></trkpt><trkpt lat="37.682695" lon="15.17236"><ele>168.6</ele><time>2026-04-24T18:03:01.546Z</time></trkpt><trkpt lat="37.68278" lon="15.1722983"><ele>170.2</ele><time>2026-04-24T18:03:02.547Z</time></trkpt><trkpt lat="37.682865" lon="15.1722433"><ele>171.8</ele><time>2026-04-24T18:03:03.547Z</time></trkpt><trkpt lat="37.6829483" lon="15.1721883"><ele>173.4</ele><time>2026-04-24T18:03:04.546Z</time></trkpt><trkpt lat="37.6830333" lon="15.17213"><ele>175.0</ele><time>2026-04-24T18:03:05.546Z</time></trkpt><trkpt lat="37.6831217" lon="15.1720717"><ele>175.0</ele><time>2026-04-24T18:03:06.547Z</time></trkpt><trkpt lat="37.6832067" lon="15.1720133"><ele>175.0</ele><time>2026-04-24T18:03:07.547Z</time></trkpt><trkpt lat="37.683295" lon="15.1719533"><ele>175.0</ele><time>2026-04-24T18:03:08.547Z</time></trkpt><trkpt lat="37.683385" lon="15.17189"><ele>175.0</ele><time>2026-04-24T18:03:09.546Z</time></trkpt><trkpt lat="37.6834733" lon="15.1718333"><ele>175.0</ele><time>2026-04-24T18:03:10.546Z</time></trkpt><trkpt lat="37.6835617" lon="15.17177"><ele>175.8</ele><time>2026-04-24T18:03:11.546Z</time></trkpt><trkpt lat="37.6836517" lon="15.1717083"><ele>176.6</ele><time>2026-04-24T18:03:12.547Z</time></trkpt><trkpt lat="37.6837483" lon="15.17164"><ele>177.39999999999998</ele><time>2026-04-24T18:03:13.547Z</time></trkpt><trkpt lat="37.6838467" lon="15.1715733"><ele>178.2</ele><time>2026-04-24T18:03:14.547Z</time></trkpt><trkpt lat="37.6839517" lon="15.17151"><ele>179.0</ele><time>2026-04-24T18:03:15.546Z</time></trkpt><trkpt lat="37.68406" lon="15.1714467"><ele>179.0</ele><time>2026-04-24T18:03:16.546Z</time></trkpt><trkpt lat="37.6841667" lon="15.1714"><ele>179.0</ele><time>2026-04-24T18:03:17.546Z</time></trkpt><trkpt lat="37.6842767" lon="15.171375"><ele>179.0</ele><time>2026-04-24T18:03:18.547Z</time></trkpt><trkpt lat="37.684395" lon="15.171355"><ele>179.0</ele><time>2026-04-24T18:03:19.547Z</time></trkpt><trkpt lat="37.6845167" lon="15.1713467"><ele>179.0</ele><time>2026-04-24T18:03:20.547Z</time></trkpt><trkpt lat="37.6846367" lon="15.1713517"><ele>179.0</ele><time>2026-04-24T18:03:21.547Z</time></trkpt><trkpt lat="37.6847567" lon="15.171365"><ele>179.0</ele><time>2026-04-24T18:03:22.547Z</time></trkpt><trkpt lat="37.684875" lon="15.1713983"><ele>179.0</ele><time>2026-04-24T18:03:23.546Z</time></trkpt><trkpt lat="37.6849917" lon="15.1714383"><ele>179.0</ele><time>2026-04-24T18:03:24.547Z</time></trkpt><trkpt lat="37.685105" lon="15.171475"><ele>179.0</ele><time>2026-04-24T18:03:25.547Z</time></trkpt><trkpt lat="37.68521" lon="15.1715267"><ele>179.0</ele><time>2026-04-24T18:03:26.547Z</time></trkpt><trkpt lat="37.68532" lon="15.171565"><ele>179.0</ele><time>2026-04-24T18:03:27.547Z</time></trkpt><trkpt lat="37.6854317" lon="15.1716017"><ele>177.25</ele><time>2026-04-24T18:03:28.547Z</time></trkpt><trkpt lat="37.685545" lon="15.1716367"><ele>175.5</ele><time>2026-04-24T18:03:29.546Z</time></trkpt><trkpt lat="37.6856583" lon="15.17168"><ele>173.75</ele><time>2026-04-24T18:03:30.546Z</time></trkpt><trkpt lat="37.6857717" lon="15.1717317"><ele>172.0</ele><time>2026-04-24T18:03:31.547Z</time></trkpt><trkpt lat="37.6858867" lon="15.171785"><ele>172.0</ele><time>2026-04-24T18:03:32.548Z</time></trkpt><trkpt lat="37.6860083" lon="15.1718417"><ele>172.0</ele><time>2026-04-24T18:03:33.547Z</time></trkpt><trkpt lat="37.68613" lon="15.1718917"><ele>172.0</ele><time>2026-04-24T18:03:34.548Z</time></trkpt><trkpt lat="37.6862633" lon="15.1719417"><ele>172.0</ele><time>2026-04-24T18:03:35.547Z</time></trkpt><trkpt lat="37.68639" lon="15.17199"><ele>171.75</ele><time>2026-04-24T18:03:36.548Z</time></trkpt><trkpt lat="37.6865267" lon="15.1720283"><ele>171.5</ele><time>2026-04-24T18:03:37.547Z</time></trkpt><trkpt lat="37.6866617" lon="15.17206"><ele>171.25</ele><time>2026-04-24T18:03:38.548Z</time></trkpt><trkpt lat="37.68679" lon="15.1720867"><ele>171.0</ele><time>2026-04-24T18:03:39.547Z</time></trkpt><trkpt lat="37.6869083" lon="15.1721067"><ele>171.0</ele><time>2026-04-24T18:03:40.547Z</time></trkpt><trkpt lat="37.687035" lon="15.1721067"><ele>171.0</ele><time>2026-04-24T18:03:41.548Z</time></trkpt><trkpt lat="37.68717" lon="15.1720867"><ele>171.0</ele><time>2026-04-24T18:03:42.547Z</time></trkpt><trkpt lat="37.6873067" lon="15.172065"><ele>171.0</ele><time>2026-04-24T18:03:43.548Z</time></trkpt><trkpt lat="37.6874417" lon="15.1720383"><ele>171.0</ele><time>2026-04-24T18:03:44.548Z</time></trkpt><trkpt lat="37.687575" lon="15.1720167"><ele>171.0</ele><time>2026-04-24T18:03:45.548Z</time></trkpt><trkpt lat="37.687705" lon="15.17199"><ele>171.0</ele><time>2026-04-24T18:03:46.548Z</time></trkpt><trkpt lat="37.6878317" lon="15.1719617"><ele>171.0</ele><time>2026-04-24T18:03:47.548Z</time></trkpt><trkpt lat="37.68795" lon="15.1719383"><ele>168.25</ele><time>2026-04-24T18:03:48.548Z</time></trkpt><trkpt lat="37.68807" lon="15.1719133"><ele>165.5</ele><time>2026-04-24T18:03:49.548Z</time></trkpt><trkpt lat="37.6881833" lon="15.17189"><ele>162.75</ele><time>2026-04-24T18:03:50.548Z</time></trkpt><trkpt lat="37.6882933" lon="15.171875"><ele>160.0</ele><time>2026-04-24T18:03:51.547Z</time></trkpt><trkpt lat="37.6884067" lon="15.1718667"><ele>160.0</ele><time>2026-04-24T18:03:52.548Z</time></trkpt><trkpt lat="37.6885167" lon="15.171875"><ele>160.0</ele><time>2026-04-24T18:03:53.547Z</time></trkpt><trkpt lat="37.6886333" lon="15.1719017"><ele>160.0</ele><time>2026-04-24T18:03:54.547Z</time></trkpt><trkpt lat="37.6887383" lon="15.1719317"><ele>160.0</ele><time>2026-04-24T18:03:55.547Z</time></trkpt><trkpt lat="37.6888367" lon="15.17197"><ele>160.0</ele><time>2026-04-24T18:03:56.548Z</time></trkpt><trkpt lat="37.6889283" lon="15.172"><ele>159.6</ele><time>2026-04-24T18:03:57.548Z</time></trkpt><trkpt lat="37.6890217" lon="15.1720267"><ele>159.2</ele><time>2026-04-24T18:03:58.547Z</time></trkpt><trkpt lat="37.6891033" lon="15.1720617"><ele>158.8</ele><time>2026-04-24T18:03:59.548Z</time></trkpt><trkpt lat="37.689195" lon="15.1720883"><ele>158.4</ele><time>2026-04-24T18:04:00.548Z</time></trkpt><trkpt lat="37.6892867" lon="15.172115"><ele>158.0</ele><time>2026-04-24T18:04:01.547Z</time></trkpt><trkpt lat="37.68937" lon="15.17215"><ele>157.16666666666666</ele><time>2026-04-24T18:04:02.547Z</time></trkpt><trkpt lat="37.689455" lon="15.1721817"><ele>156.33333333333331</ele><time>2026-04-24T18:04:03.547Z</time></trkpt><trkpt lat="37.68954" lon="15.17221"><ele>155.5</ele><time>2026-04-24T18:04:04.548Z</time></trkpt><trkpt lat="37.6896117" lon="15.1722433"><ele>154.66666666666666</ele><time>2026-04-24T18:04:05.548Z</time></trkpt><trkpt lat="37.6896817" lon="15.1722717"><ele>153.83333333333334</ele><time>2026-04-24T18:04:06.548Z</time></trkpt><trkpt lat="37.6897433" lon="15.1722933"><ele>153.0</ele><time>2026-04-24T18:04:07.547Z</time></trkpt><trkpt lat="37.689815" lon="15.1723333"><ele>152.33333333333334</ele><time>2026-04-24T18:04:10.547Z</time></trkpt><trkpt lat="37.68992" lon="15.172375"><ele>151.66666666666666</ele><time>2026-04-24T18:04:23.548Z</time></trkpt><trkpt lat="37.6900283" lon="15.1724133"><ele>151.0</ele><time>2026-04-24T18:04:25.548Z</time></trkpt><trkpt lat="37.6900883" lon="15.1724383"><ele>150.33333333333331</ele><time>2026-04-24T18:04:26.547Z</time></trkpt><trkpt lat="37.6901567" lon="15.1724683"><ele>149.66666666666666</ele><time>2026-04-24T18:04:27.547Z</time></trkpt><trkpt lat="37.6902333" lon="15.1725"><ele>149.0</ele><time>2026-04-24T18:04:28.547Z</time></trkpt><trkpt lat="37.6903133" lon="15.172535"><ele>149.0</ele><time>2026-04-24T18:04:29.547Z</time></trkpt><trkpt lat="37.690405" lon="15.1725767"><ele>149.0</ele><time>2026-04-24T18:04:30.547Z</time></trkpt><trkpt lat="37.6905017" lon="15.1726267"><ele>149.0</ele><time>2026-04-24T18:04:31.548Z</time></trkpt><trkpt lat="37.6905983" lon="15.172675"><ele>149.0</ele><time>2026-04-24T18:04:32.547Z</time></trkpt><trkpt lat="37.6906933" lon="15.1727133"><ele>149.0</ele><time>2026-04-24T18:04:33.547Z</time></trkpt><trkpt lat="37.6907983" lon="15.17275"><ele>149.0</ele><time>2026-04-24T18:04:34.548Z</time></trkpt><trkpt lat="37.6909067" lon="15.1727817"><ele>149.0</ele><time>2026-04-24T18:04:35.547Z</time></trkpt><trkpt lat="37.69101" lon="15.1728133"><ele>149.0</ele><time>2026-04-24T18:04:36.548Z</time></trkpt><trkpt lat="37.6911183" lon="15.1728417"><ele>149.0</ele><time>2026-04-24T18:04:37.548Z</time></trkpt><trkpt lat="37.6912333" lon="15.17287"><ele>149.0</ele><time>2026-04-24T18:04:38.548Z</time></trkpt><trkpt lat="37.69135" lon="15.1729017"><ele>149.0</ele><time>2026-04-24T18:04:39.547Z</time></trkpt><trkpt lat="37.6914667" lon="15.172935"><ele>149.0</ele><time>2026-04-24T18:04:40.547Z</time></trkpt><trkpt lat="37.6915883" lon="15.1729633"><ele>149.0</ele><time>2026-04-24T18:04:41.547Z</time></trkpt><trkpt lat="37.6917133" lon="15.1729933"><ele>149.0</ele><time>2026-04-24T18:04:42.547Z</time></trkpt><trkpt lat="37.6918333" lon="15.17303"><ele>149.25</ele><time>2026-04-24T18:04:43.547Z</time></trkpt><trkpt lat="37.6919467" lon="15.173075"><ele>149.5</ele><time>2026-04-24T18:04:44.547Z</time></trkpt><trkpt lat="37.6920583" lon="15.1731267"><ele>149.75</ele><time>2026-04-24T18:04:45.547Z</time></trkpt><trkpt lat="37.6921683" lon="15.173185"><ele>150.0</ele><time>2026-04-24T18:04:46.548Z</time></trkpt><trkpt lat="37.69228" lon="15.173245"><ele>150.0</ele><time>2026-04-24T18:04:47.547Z</time></trkpt><trkpt lat="37.6923867" lon="15.1733"><ele>150.0</ele><time>2026-04-24T18:04:48.548Z</time></trkpt><trkpt lat="37.692485" lon="15.1733467"><ele>150.0</ele><time>2026-04-24T18:04:49.547Z</time></trkpt><trkpt lat="37.6925933" lon="15.173385"><ele>150.0</ele><time>2026-04-24T18:04:50.547Z</time></trkpt><trkpt lat="37.692705" lon="15.17342"><ele>150.0</ele><time>2026-04-24T18:04:51.548Z</time></trkpt><trkpt lat="37.69282" lon="15.1734417"><ele>150.0</ele><time>2026-04-24T18:04:52.547Z</time></trkpt><trkpt lat="37.692935" lon="15.1734767"><ele>150.0</ele><time>2026-04-24T18:04:53.548Z</time></trkpt><trkpt lat="37.6930567" lon="15.1735083"><ele>150.0</ele><time>2026-04-24T18:04:54.547Z</time></trkpt><trkpt lat="37.6931833" lon="15.1735367"><ele>150.0</ele><time>2026-04-24T18:04:55.548Z</time></trkpt><trkpt lat="37.6933167" lon="15.1735633"><ele>150.0</ele><time>2026-04-24T18:04:56.548Z</time></trkpt><trkpt lat="37.69345" lon="15.1735917"><ele>150.0</ele><time>2026-04-24T18:04:57.547Z</time></trkpt><trkpt lat="37.693585" lon="15.173625"><ele>150.0</ele><time>2026-04-24T18:04:58.548Z</time></trkpt><trkpt lat="37.6937217" lon="15.173655"><ele>150.0</ele><time>2026-04-24T18:04:59.548Z</time></trkpt><trkpt lat="37.6938633" lon="15.1736833"><ele>150.5</ele><time>2026-04-24T18:05:00.548Z</time></trkpt><trkpt lat="37.6939983" lon="15.1737117"><ele>151.0</ele><time>2026-04-24T18:05:01.547Z</time></trkpt><trkpt lat="37.6941333" lon="15.17374"><ele>151.5</ele><time>2026-04-24T18:05:02.548Z</time></trkpt><trkpt lat="37.6942683" lon="15.1737633"><ele>152.0</ele><time>2026-04-24T18:05:03.548Z</time></trkpt><trkpt lat="37.6944033" lon="15.1737833"><ele>152.5</ele><time>2026-04-24T18:05:04.548Z</time></trkpt><trkpt lat="37.6945367" lon="15.173805"><ele>153.0</ele><time>2026-04-24T18:05:05.548Z</time></trkpt><trkpt lat="37.6946683" lon="15.1738283"><ele>153.5</ele><time>2026-04-24T18:05:06.548Z</time></trkpt><trkpt lat="37.6948033" lon="15.1738483"><ele>154.0</ele><time>2026-04-24T18:05:07.548Z</time></trkpt><trkpt lat="37.6949417" lon="15.1738617"><ele>154.0</ele><time>2026-04-24T18:05:08.547Z</time></trkpt><trkpt lat="37.6950767" lon="15.1738733"><ele>154.0</ele><time>2026-04-24T18:05:09.548Z</time></trkpt><trkpt lat="37.6952167" lon="15.173885"><ele>154.0</ele><time>2026-04-24T18:05:10.548Z</time></trkpt><trkpt lat="37.6953567" lon="15.173895"><ele>154.0</ele><time>2026-04-24T18:05:11.547Z</time></trkpt><trkpt lat="37.69549" lon="15.173905"><ele>154.75</ele><time>2026-04-24T18:05:12.548Z</time></trkpt><trkpt lat="37.6956283" lon="15.1739117"><ele>155.5</ele><time>2026-04-24T18:05:13.547Z</time></trkpt><trkpt lat="37.6957617" lon="15.17392"><ele>156.25</ele><time>2026-04-24T18:05:14.548Z</time></trkpt><trkpt lat="37.6959" lon="15.173925"><ele>157.0</ele><time>2026-04-24T18:05:15.548Z</time></trkpt><trkpt lat="37.6960367" lon="15.1739333"><ele>158.0</ele><time>2026-04-24T18:05:16.548Z</time></trkpt><trkpt lat="37.6961717" lon="15.17394"><ele>159.0</ele><time>2026-04-24T18:05:17.547Z</time></trkpt><trkpt lat="37.6963117" lon="15.173945"><ele>160.0</ele><time>2026-04-24T18:05:18.548Z</time></trkpt><trkpt lat="37.6964517" lon="15.1739517"><ele>161.0</ele><time>2026-04-24T18:05:19.547Z</time></trkpt><trkpt lat="37.6965967" lon="15.1739617"><ele>161.0</ele><time>2026-04-24T18:05:20.548Z</time></trkpt><trkpt lat="37.6967383" lon="15.1739767"><ele>161.0</ele><time>2026-04-24T18:05:21.548Z</time></trkpt><trkpt lat="37.6968817" lon="15.17399"><ele>161.0</ele><time>2026-04-24T18:05:22.548Z</time></trkpt><trkpt lat="37.697025" lon="15.174005"><ele>161.0</ele><time>2026-04-24T18:05:23.548Z</time></trkpt><trkpt lat="37.6971667" lon="15.1740167"><ele>161.5</ele><time>2026-04-24T18:05:24.548Z</time></trkpt><trkpt lat="37.697305" lon="15.1740267"><ele>162.0</ele><time>2026-04-24T18:05:25.547Z</time></trkpt><trkpt lat="37.6974417" lon="15.1740367"><ele>162.5</ele><time>2026-04-24T18:05:26.548Z</time></trkpt><trkpt lat="37.6975767" lon="15.17405"><ele>163.0</ele><time>2026-04-24T18:05:27.548Z</time></trkpt><trkpt lat="37.6977083" lon="15.174065"><ele>164.25</ele><time>2026-04-24T18:05:28.547Z</time></trkpt><trkpt lat="37.697845" lon="15.1740867"><ele>165.5</ele><time>2026-04-24T18:05:29.547Z</time></trkpt><trkpt lat="37.697985" lon="15.1741067"><ele>166.75</ele><time>2026-04-24T18:05:30.547Z</time></trkpt><trkpt lat="37.6981217" lon="15.17413"><ele>168.0</ele><time>2026-04-24T18:05:31.547Z</time></trkpt><trkpt lat="37.6982533" lon="15.1741617"><ele>168.0</ele><time>2026-04-24T18:05:32.548Z</time></trkpt><trkpt lat="37.6983833" lon="15.17419"><ele>168.0</ele><time>2026-04-24T18:05:33.547Z</time></trkpt><trkpt lat="37.6985183" lon="15.1742233"><ele>168.0</ele><time>2026-04-24T18:05:34.548Z</time></trkpt><trkpt lat="37.69865" lon="15.1742567"><ele>168.0</ele><time>2026-04-24T18:05:35.548Z</time></trkpt><trkpt lat="37.6987867" lon="15.1742917"><ele>168.25</ele><time>2026-04-24T18:05:36.548Z</time></trkpt><trkpt lat="37.6989283" lon="15.1743183"><ele>168.5</ele><time>2026-04-24T18:05:37.547Z</time></trkpt><trkpt lat="37.6990717" lon="15.1743383"><ele>168.75</ele><time>2026-04-24T18:05:38.548Z</time></trkpt><trkpt lat="37.6992117" lon="15.1743467"><ele>169.0</ele><time>2026-04-24T18:05:39.548Z</time></trkpt><trkpt lat="37.6993467" lon="15.17435"><ele>169.25</ele><time>2026-04-24T18:05:40.548Z</time></trkpt><trkpt lat="37.6994817" lon="15.1743367"><ele>169.5</ele><time>2026-04-24T18:05:41.548Z</time></trkpt><trkpt lat="37.6996117" lon="15.17432"><ele>169.75</ele><time>2026-04-24T18:05:42.548Z</time></trkpt><trkpt lat="37.69975" lon="15.17429"><ele>170.0</ele><time>2026-04-24T18:05:43.548Z</time></trkpt><trkpt lat="37.6998833" lon="15.1742583"><ele>170.0</ele><time>2026-04-24T18:05:44.548Z</time></trkpt><trkpt lat="37.7000167" lon="15.1742233"><ele>170.0</ele><time>2026-04-24T18:05:45.547Z</time></trkpt><trkpt lat="37.7001433" lon="15.1741933"><ele>170.0</ele><time>2026-04-24T18:05:46.547Z</time></trkpt><trkpt lat="37.7002733" lon="15.1741683"><ele>170.0</ele><time>2026-04-24T18:05:47.547Z</time></trkpt><trkpt lat="37.7003983" lon="15.174145"><ele>170.5</ele><time>2026-04-24T18:05:48.548Z</time></trkpt><trkpt lat="37.7005283" lon="15.17413"><ele>171.0</ele><time>2026-04-24T18:05:49.547Z</time></trkpt><trkpt lat="37.7006583" lon="15.17412"><ele>171.5</ele><time>2026-04-24T18:05:50.548Z</time></trkpt><trkpt lat="37.7007917" lon="15.1741117"><ele>172.0</ele><time>2026-04-24T18:05:51.548Z</time></trkpt><trkpt lat="37.700925" lon="15.174105"><ele>172.0</ele><time>2026-04-24T18:05:52.547Z</time></trkpt><trkpt lat="37.701055" lon="15.1740933"><ele>172.0</ele><time>2026-04-24T18:05:53.547Z</time></trkpt><trkpt lat="37.7011867" lon="15.1740817"><ele>172.0</ele><time>2026-04-24T18:05:54.547Z</time></trkpt><trkpt lat="37.7013067" lon="15.1740783"><ele>172.0</ele><time>2026-04-24T18:05:55.548Z</time></trkpt><trkpt lat="37.7014317" lon="15.1740767"><ele>171.75</ele><time>2026-04-24T18:05:56.547Z</time></trkpt><trkpt lat="37.70155" lon="15.1740767"><ele>171.5</ele><time>2026-04-24T18:05:57.548Z</time></trkpt><trkpt lat="37.70167" lon="15.1740767"><ele>171.25</ele><time>2026-04-24T18:05:58.547Z</time></trkpt><trkpt lat="37.7017967" lon="15.174085"><ele>171.0</ele><time>2026-04-24T18:05:59.548Z</time></trkpt><trkpt lat="37.7019267" lon="15.1741133"><ele>171.0</ele><time>2026-04-24T18:06:00.548Z</time></trkpt><trkpt lat="37.7020433" lon="15.1741417"><ele>171.0</ele><time>2026-04-24T18:06:01.547Z</time></trkpt><trkpt lat="37.7021683" lon="15.174165"><ele>171.0</ele><time>2026-04-24T18:06:02.548Z</time></trkpt><trkpt lat="37.7022933" lon="15.174195"><ele>171.0</ele><time>2026-04-24T18:06:03.547Z</time></trkpt><trkpt lat="37.7024233" lon="15.174215"><ele>171.0</ele><time>2026-04-24T18:06:04.547Z</time></trkpt><trkpt lat="37.70256" lon="15.1742283"><ele>171.0</ele><time>2026-04-24T18:06:05.548Z</time></trkpt><trkpt lat="37.7026983" lon="15.1742417"><ele>171.0</ele><time>2026-04-24T18:06:06.548Z</time></trkpt><trkpt lat="37.7028283" lon="15.1742567"><ele>171.0</ele><time>2026-04-24T18:06:07.547Z</time></trkpt><trkpt lat="37.7029533" lon="15.174275"><ele>171.0</ele><time>2026-04-24T18:06:08.547Z</time></trkpt><trkpt lat="37.7030833" lon="15.174285"><ele>171.0</ele><time>2026-04-24T18:06:09.548Z</time></trkpt><trkpt lat="37.7032167" lon="15.17428"><ele>171.0</ele><time>2026-04-24T18:06:10.548Z</time></trkpt><trkpt lat="37.7033383" lon="15.1742633"><ele>171.0</ele><time>2026-04-24T18:06:11.547Z</time></trkpt><trkpt lat="37.7034467" lon="15.1742417"><ele>171.0</ele><time>2026-04-24T18:06:12.548Z</time></trkpt><trkpt lat="37.70355" lon="15.1742167"><ele>171.0</ele><time>2026-04-24T18:06:13.547Z</time></trkpt><trkpt lat="37.7036467" lon="15.1741883"><ele>171.0</ele><time>2026-04-24T18:06:14.547Z</time></trkpt><trkpt lat="37.7037433" lon="15.174155"><ele>171.0</ele><time>2026-04-24T18:06:15.548Z</time></trkpt><trkpt lat="37.70383" lon="15.1741283"><ele>171.0</ele><time>2026-04-24T18:06:16.547Z</time></trkpt><trkpt lat="37.7039083" lon="15.1741017"><ele>171.4</ele><time>2026-04-24T18:06:17.548Z</time></trkpt><trkpt lat="37.703975" lon="15.1740817"><ele>171.8</ele><time>2026-04-24T18:06:18.548Z</time></trkpt><trkpt lat="37.70408" lon="15.174055"><ele>172.20000000000002</ele><time>2026-04-24T18:06:20.548Z</time></trkpt><trkpt lat="37.704175" lon="15.17403"><ele>172.60000000000002</ele><time>2026-04-24T18:06:22.548Z</time></trkpt><trkpt lat="37.704265" lon="15.17401"><ele>173.0</ele><time>2026-04-24T18:06:24.548Z</time></trkpt><trkpt lat="37.7043567" lon="15.173975"><ele>172.8</ele><time>2026-04-24T18:06:26.548Z</time></trkpt><trkpt lat="37.7044267" lon="15.1739517"><ele>172.60000000000002</ele><time>2026-04-24T18:06:28.548Z</time></trkpt><trkpt lat="37.7045117" lon="15.1739383"><ele>172.39999999999998</ele><time>2026-04-24T18:06:30.548Z</time></trkpt><trkpt lat="37.7046267" lon="15.1739333"><ele>172.2</ele><time>2026-04-24T18:06:32.547Z</time></trkpt><trkpt lat="37.7047533" lon="15.173915"><ele>172.0</ele><time>2026-04-24T18:06:34.547Z</time></trkpt><trkpt lat="37.7048333" lon="15.1739067"><ele>172.0</ele><time>2026-04-24T18:06:35.547Z</time></trkpt><trkpt lat="37.704905" lon="15.1739117"><ele>172.0</ele><time>2026-04-24T18:06:36.548Z</time></trkpt><trkpt lat="37.704975" lon="15.17392"><ele>172.0</ele><time>2026-04-24T18:06:37.548Z</time></trkpt><trkpt lat="37.70504" lon="15.1739267"><ele>172.0</ele><time>2026-04-24T18:06:38.547Z</time></trkpt><trkpt lat="37.705155" lon="15.173935"><ele>172.0</ele><time>2026-04-24T18:06:40.547Z</time></trkpt><trkpt lat="37.7052667" lon="15.1739383"><ele>172.0</ele><time>2026-04-24T18:06:42.547Z</time></trkpt><trkpt lat="37.70536" lon="15.1739217"><ele>172.33333333333334</ele><time>2026-04-24T18:06:44.548Z</time></trkpt><trkpt lat="37.7055417" lon="15.1738983"><ele>172.66666666666666</ele><time>2026-04-24T18:06:55.548Z</time></trkpt><trkpt lat="37.7057683" lon="15.1738917"><ele>173.0</ele><time>2026-04-24T18:07:01.547Z</time></trkpt><trkpt lat="37.70583" lon="15.17387"><ele>173.0</ele><time>2026-04-24T18:07:03.547Z</time></trkpt><trkpt lat="37.705915" lon="15.1738817"><ele>173.0</ele><time>2026-04-24T18:07:06.548Z</time></trkpt><trkpt lat="37.705985" lon="15.1738917"><ele>173.0</ele><time>2026-04-24T18:07:08.548Z</time></trkpt><trkpt lat="37.70608" lon="15.1739017"><ele>173.0</ele><time>2026-04-24T18:07:10.548Z</time></trkpt><trkpt lat="37.7061967" lon="15.17396"><ele>173.0</ele><time>2026-04-24T18:07:12.547Z</time></trkpt><trkpt lat="37.7062617" lon="15.1739817"><ele>173.0</ele><time>2026-04-24T18:07:13.548Z</time></trkpt><trkpt lat="37.7063333" lon="15.1739833"><ele>172.83333333333331</ele><time>2026-04-24T18:07:14.548Z</time></trkpt><trkpt lat="37.706405" lon="15.1739883"><ele>172.66666666666666</ele><time>2026-04-24T18:07:15.548Z</time></trkpt><trkpt lat="37.706485" lon="15.1739933"><ele>172.5</ele><time>2026-04-24T18:07:16.548Z</time></trkpt><trkpt lat="37.7065683" lon="15.1739967"><ele>172.33333333333334</ele><time>2026-04-24T18:07:17.548Z</time></trkpt><trkpt lat="37.706645" lon="15.1739983"><ele>172.16666666666669</ele><time>2026-04-24T18:07:18.548Z</time></trkpt><trkpt lat="37.7067117" lon="15.1740083"><ele>172.0</ele><time>2026-04-24T18:07:19.548Z</time></trkpt><trkpt lat="37.7068267" lon="15.17403"><ele>171.16666666666669</ele><time>2026-04-24T18:07:21.547Z</time></trkpt><trkpt lat="37.7069033" lon="15.17404"><ele>170.33333333333334</ele><time>2026-04-24T18:07:23.547Z</time></trkpt><trkpt lat="37.706975" lon="15.174045"><ele>169.5</ele><time>2026-04-24T18:07:25.548Z</time></trkpt><trkpt lat="37.7070433" lon="15.1740517"><ele>168.66666666666666</ele><time>2026-04-24T18:07:27.548Z</time></trkpt><trkpt lat="37.70714" lon="15.174055"><ele>167.83333333333331</ele><time>2026-04-24T18:07:29.548Z</time></trkpt><trkpt lat="37.7072733" lon="15.1740483"><ele>167.0</ele><time>2026-04-24T18:07:31.548Z</time></trkpt><trkpt lat="37.7073533" lon="15.1740467"><ele>166.83333333333331</ele><time>2026-04-24T18:07:32.548Z</time></trkpt><trkpt lat="37.7074383" lon="15.1740483"><ele>166.66666666666666</ele><time>2026-04-24T18:07:33.548Z</time></trkpt><trkpt lat="37.707535" lon="15.17406"><ele>166.5</ele><time>2026-04-24T18:07:34.548Z</time></trkpt><trkpt lat="37.707625" lon="15.1740733"><ele>166.33333333333334</ele><time>2026-04-24T18:07:35.548Z</time></trkpt><trkpt lat="37.7077067" lon="15.17409"><ele>166.16666666666669</ele><time>2026-04-24T18:07:36.547Z</time></trkpt><trkpt lat="37.707775" lon="15.1741083"><ele>166.0</ele><time>2026-04-24T18:07:37.548Z</time></trkpt><trkpt lat="37.7078467" lon="15.1741217"><ele>165.85714285714286</ele><time>2026-04-24T18:07:38.547Z</time></trkpt><trkpt lat="37.7079217" lon="15.17414"><ele>165.71428571428572</ele><time>2026-04-24T18:07:39.548Z</time></trkpt><trkpt lat="37.7079933" lon="15.1741583"><ele>165.57142857142858</ele><time>2026-04-24T18:07:40.548Z</time></trkpt><trkpt lat="37.7080633" lon="15.17418"><ele>165.42857142857144</ele><time>2026-04-24T18:07:41.547Z</time></trkpt><trkpt lat="37.7081317" lon="15.1741933"><ele>165.28571428571428</ele><time>2026-04-24T18:07:42.548Z</time></trkpt><trkpt lat="37.7081967" lon="15.1742117"><ele>165.14285714285717</ele><time>2026-04-24T18:07:43.548Z</time></trkpt><trkpt lat="37.7082617" lon="15.1742233"><ele>165.0</ele><time>2026-04-24T18:07:44.548Z</time></trkpt><trkpt lat="37.7083833" lon="15.174265"><ele>165.0</ele><time>2026-04-24T18:07:46.548Z</time></trkpt><trkpt lat="37.7084533" lon="15.174295"><ele>165.0</ele><time>2026-04-24T18:07:47.547Z</time></trkpt><trkpt lat="37.7085233" lon="15.174325"><ele>165.0</ele><time>2026-04-24T18:07:48.547Z</time></trkpt><trkpt lat="37.70861" lon="15.1743467"><ele>165.0</ele><time>2026-04-24T18:07:49.547Z</time></trkpt><trkpt lat="37.7086867" lon="15.174375"><ele>165.0</ele><time>2026-04-24T18:07:50.548Z</time></trkpt><trkpt lat="37.7087683" lon="15.1744033"><ele>165.0</ele><time>2026-04-24T18:07:51.548Z</time></trkpt><trkpt lat="37.7088483" lon="15.174425"><ele>164.33333333333334</ele><time>2026-04-24T18:07:52.548Z</time></trkpt><trkpt lat="37.7089317" lon="15.1744433"><ele>163.66666666666666</ele><time>2026-04-24T18:07:53.548Z</time></trkpt><trkpt lat="37.709015" lon="15.1744617"><ele>163.0</ele><time>2026-04-24T18:07:54.547Z</time></trkpt><trkpt lat="37.7091033" lon="15.1744817"><ele>162.33333333333331</ele><time>2026-04-24T18:07:55.548Z</time></trkpt><trkpt lat="37.7091917" lon="15.1744967"><ele>161.66666666666666</ele><time>2026-04-24T18:07:56.547Z</time></trkpt><trkpt lat="37.7092767" lon="15.1745083"><ele>161.0</ele><time>2026-04-24T18:07:57.548Z</time></trkpt><trkpt lat="37.7093633" lon="15.1745167"><ele>161.20000000000002</ele><time>2026-04-24T18:07:58.548Z</time></trkpt><trkpt lat="37.709455" lon="15.1745233"><ele>161.4</ele><time>2026-04-24T18:07:59.548Z</time></trkpt><trkpt lat="37.7095417" lon="15.1745383"><ele>161.6</ele><time>2026-04-24T18:08:00.547Z</time></trkpt><trkpt lat="37.7096383" lon="15.1745617"><ele>161.8</ele><time>2026-04-24T18:08:01.547Z</time></trkpt><trkpt lat="37.709735" lon="15.1745883"><ele>162.0</ele><time>2026-04-24T18:08:02.548Z</time></trkpt><trkpt lat="37.70983" lon="15.17461"><ele>162.0</ele><time>2026-04-24T18:08:03.547Z</time></trkpt><trkpt lat="37.7099233" lon="15.1746283"><ele>162.0</ele><time>2026-04-24T18:08:04.547Z</time></trkpt><trkpt lat="37.7100167" lon="15.174655"><ele>162.0</ele><time>2026-04-24T18:08:05.547Z</time></trkpt><trkpt lat="37.7101133" lon="15.1746883"><ele>162.0</ele><time>2026-04-24T18:08:06.548Z</time></trkpt><trkpt lat="37.7102117" lon="15.1747267"><ele>162.0</ele><time>2026-04-24T18:08:07.548Z</time></trkpt><trkpt lat="37.710315" lon="15.1747683"><ele>161.6</ele><time>2026-04-24T18:08:08.547Z</time></trkpt><trkpt lat="37.7104183" lon="15.17481"><ele>161.2</ele><time>2026-04-24T18:08:09.548Z</time></trkpt><trkpt lat="37.7105217" lon="15.1748517"><ele>160.8</ele><time>2026-04-24T18:08:10.548Z</time></trkpt><trkpt lat="37.7106233" lon="15.1748883"><ele>160.4</ele><time>2026-04-24T18:08:11.547Z</time></trkpt><trkpt lat="37.7107167" lon="15.1749267"><ele>160.0</ele><time>2026-04-24T18:08:12.547Z</time></trkpt><trkpt lat="37.71081" lon="15.1749617"><ele>159.6</ele><time>2026-04-24T18:08:13.548Z</time></trkpt><trkpt lat="37.710905" lon="15.175"><ele>159.2</ele><time>2026-04-24T18:08:14.548Z</time></trkpt><trkpt lat="37.711005" lon="15.1750333"><ele>158.8</ele><time>2026-04-24T18:08:15.548Z</time></trkpt><trkpt lat="37.7111033" lon="15.1750683"><ele>158.4</ele><time>2026-04-24T18:08:16.548Z</time></trkpt><trkpt lat="37.711195" lon="15.1751017"><ele>158.0</ele><time>2026-04-24T18:08:17.547Z</time></trkpt><trkpt lat="37.7112767" lon="15.1751317"><ele>157.66666666666666</ele><time>2026-04-24T18:08:18.548Z</time></trkpt><trkpt lat="37.7113567" lon="15.1751617"><ele>157.33333333333331</ele><time>2026-04-24T18:08:19.547Z</time></trkpt><trkpt lat="37.7114317" lon="15.1751933"><ele>157.0</ele><time>2026-04-24T18:08:20.547Z</time></trkpt><trkpt lat="37.7115133" lon="15.17523"><ele>156.66666666666666</ele><time>2026-04-24T18:08:21.547Z</time></trkpt><trkpt lat="37.7115917" lon="15.1752683"><ele>156.33333333333334</ele><time>2026-04-24T18:08:22.548Z</time></trkpt><trkpt lat="37.711665" lon="15.1753033"><ele>156.0</ele><time>2026-04-24T18:08:23.548Z</time></trkpt><trkpt lat="37.7117383" lon="15.1753317"><ele>156.0</ele><time>2026-04-24T18:08:24.548Z</time></trkpt><trkpt lat="37.7118017" lon="15.1753583"><ele>156.0</ele><time>2026-04-24T18:08:25.548Z</time></trkpt><trkpt lat="37.7118933" lon="15.1753917"><ele>156.0</ele><time>2026-04-24T18:08:27.548Z</time></trkpt><trkpt lat="37.711965" lon="15.1754133"><ele>156.0</ele><time>2026-04-24T18:08:29.548Z</time></trkpt><trkpt lat="37.712055" lon="15.1754533"><ele>156.0</ele><time>2026-04-24T18:08:31.548Z</time></trkpt><trkpt lat="37.7121517" lon="15.1754967"><ele>156.0</ele><time>2026-04-24T18:08:33.548Z</time></trkpt><trkpt lat="37.7122617" lon="15.1755667"><ele>155.42857142857144</ele><time>2026-04-24T18:08:35.547Z</time></trkpt><trkpt lat="37.7123167" lon="15.1756117"><ele>154.85714285714283</ele><time>2026-04-24T18:08:36.547Z</time></trkpt><trkpt lat="37.7123783" lon="15.17565"><ele>154.28571428571428</ele><time>2026-04-24T18:08:37.548Z</time></trkpt><trkpt lat="37.7124483" lon="15.1756933"><ele>153.71428571428572</ele><time>2026-04-24T18:08:38.548Z</time></trkpt><trkpt lat="37.71252" lon="15.175735"><ele>153.14285714285717</ele><time>2026-04-24T18:08:39.548Z</time></trkpt><trkpt lat="37.7125867" lon="15.1757717"><ele>152.57142857142856</ele><time>2026-04-24T18:08:40.548Z</time></trkpt><trkpt lat="37.71265" lon="15.1758083"><ele>152.0</ele><time>2026-04-24T18:08:41.548Z</time></trkpt><trkpt lat="37.7127133" lon="15.1758433"><ele>151.28571428571428</ele><time>2026-04-24T18:08:42.548Z</time></trkpt><trkpt lat="37.712775" lon="15.17588"><ele>150.57142857142858</ele><time>2026-04-24T18:08:43.548Z</time></trkpt><trkpt lat="37.7128383" lon="15.1759117"><ele>149.85714285714286</ele><time>2026-04-24T18:08:44.548Z</time></trkpt><trkpt lat="37.7129033" lon="15.17594"><ele>149.14285714285714</ele><time>2026-04-24T18:08:45.548Z</time></trkpt><trkpt lat="37.712965" lon="15.1759733"><ele>148.42857142857144</ele><time>2026-04-24T18:08:46.548Z</time></trkpt><trkpt lat="37.7130283" lon="15.176015"><ele>147.71428571428572</ele><time>2026-04-24T18:08:47.548Z</time></trkpt><trkpt lat="37.713095" lon="15.1760517"><ele>147.0</ele><time>2026-04-24T18:08:48.547Z</time></trkpt><trkpt lat="37.7131617" lon="15.1760817"><ele>147.0</ele><time>2026-04-24T18:08:49.548Z</time></trkpt><trkpt lat="37.71323" lon="15.176115"><ele>147.0</ele><time>2026-04-24T18:08:50.547Z</time></trkpt><trkpt lat="37.7132983" lon="15.176155"><ele>147.0</ele><time>2026-04-24T18:08:51.548Z</time></trkpt><trkpt lat="37.71337" lon="15.1761917"><ele>147.0</ele><time>2026-04-24T18:08:52.547Z</time></trkpt><trkpt lat="37.713445" lon="15.1762317"><ele>147.0</ele><time>2026-04-24T18:08:53.547Z</time></trkpt><trkpt lat="37.71352" lon="15.1762667"><ele>147.0</ele><time>2026-04-24T18:08:54.547Z</time></trkpt><trkpt lat="37.7135917" lon="15.1762983"><ele>147.0</ele><time>2026-04-24T18:08:55.547Z</time></trkpt><trkpt lat="37.713655" lon="15.1763517"><ele>147.0</ele><time>2026-04-24T18:08:56.548Z</time></trkpt><trkpt lat="37.7137133" lon="15.176395"><ele>147.0</ele><time>2026-04-24T18:08:57.547Z</time></trkpt><trkpt lat="37.71382" lon="15.17645"><ele>147.0</ele><time>2026-04-24T18:08:59.547Z</time></trkpt><trkpt lat="37.713905" lon="15.1764933"><ele>147.0</ele><time>2026-04-24T18:09:01.548Z</time></trkpt><trkpt lat="37.713995" lon="15.1765417"><ele>147.0</ele><time>2026-04-24T18:09:03.548Z</time></trkpt><trkpt lat="37.7140583" lon="15.1765833"><ele>146.5</ele><time>2026-04-24T18:09:05.548Z</time></trkpt><trkpt lat="37.7141317" lon="15.1766167"><ele>146.0</ele><time>2026-04-24T18:09:07.548Z</time></trkpt><trkpt lat="37.7142133" lon="15.176655"><ele>145.5</ele><time>2026-04-24T18:09:09.548Z</time></trkpt><trkpt lat="37.71427" lon="15.1766983"><ele>145.0</ele><time>2026-04-24T18:09:11.548Z</time></trkpt><trkpt lat="37.7143383" lon="15.1767467"><ele>144.5</ele><time>2026-04-24T18:09:13.548Z</time></trkpt><trkpt lat="37.7144217" lon="15.1768233"><ele>144.0</ele><time>2026-04-24T18:09:17.548Z</time></trkpt><trkpt lat="37.7145033" lon="15.17689"><ele>143.5</ele><time>2026-04-24T18:09:19.548Z</time></trkpt><trkpt lat="37.7145733" lon="15.1769617"><ele>143.0</ele><time>2026-04-24T18:09:21.547Z</time></trkpt><trkpt lat="37.714645" lon="15.1770067"><ele>142.5</ele><time>2026-04-24T18:09:23.548Z</time></trkpt><trkpt lat="37.7147067" lon="15.1770333"><ele>142.0</ele><time>2026-04-24T18:09:25.548Z</time></trkpt><trkpt lat="37.7147733" lon="15.1770683"><ele>141.5</ele><time>2026-04-24T18:09:27.547Z</time></trkpt><trkpt lat="37.7148517" lon="15.1771367"><ele>141.0</ele><time>2026-04-24T18:09:30.548Z</time></trkpt><trkpt lat="37.7149117" lon="15.1771783"><ele>141.0</ele><time>2026-04-24T18:09:32.548Z</time></trkpt><trkpt lat="37.7149733" lon="15.1772233"><ele>141.0</ele><time>2026-04-24T18:09:35.548Z</time></trkpt><trkpt lat="37.715035" lon="15.1772583"><ele>141.0</ele><time>2026-04-24T18:09:39.548Z</time></trkpt><trkpt lat="37.7150967" lon="15.1773017"><ele>141.0</ele><time>2026-04-24T18:09:42.548Z</time></trkpt><trkpt lat="37.71515" lon="15.1773517"><ele>141.0</ele><time>2026-04-24T18:10:06.548Z</time></trkpt><trkpt lat="37.7152133" lon="15.1774117"><ele>141.0</ele><time>2026-04-24T18:10:13.548Z</time></trkpt><trkpt lat="37.715295" lon="15.177465"><ele>141.0</ele><time>2026-04-24T18:10:27.548Z</time></trkpt><trkpt lat="37.71539" lon="15.177515"><ele>140.4</ele><time>2026-04-24T18:10:35.548Z</time></trkpt><trkpt lat="37.7154783" lon="15.17757"><ele>139.8</ele><time>2026-04-24T18:10:37.547Z</time></trkpt><trkpt lat="37.7155883" lon="15.1776633"><ele>139.20000000000002</ele><time>2026-04-24T18:10:39.548Z</time></trkpt><trkpt lat="37.71566" lon="15.1777317"><ele>138.6</ele><time>2026-04-24T18:10:40.548Z</time></trkpt><trkpt lat="37.7157333" lon="15.1777883"><ele>138.0</ele><time>2026-04-24T18:10:41.548Z</time></trkpt><trkpt lat="37.7158083" lon="15.177845"><ele>138.0</ele><time>2026-04-24T18:10:42.547Z</time></trkpt><trkpt lat="37.7158883" lon="15.177905"><ele>138.0</ele><time>2026-04-24T18:10:43.548Z</time></trkpt><trkpt lat="37.7159717" lon="15.17797"><ele>138.0</ele><time>2026-04-24T18:10:44.548Z</time></trkpt><trkpt lat="37.71606" lon="15.1780283"><ele>138.0</ele><time>2026-04-24T18:10:45.548Z</time></trkpt><trkpt lat="37.7161333" lon="15.1780933"><ele>138.0</ele><time>2026-04-24T18:10:46.547Z</time></trkpt><trkpt lat="37.7162183" lon="15.1781517"><ele>136.4</ele><time>2026-04-24T18:10:47.548Z</time></trkpt><trkpt lat="37.716305" lon="15.1782083"><ele>134.8</ele><time>2026-04-24T18:10:48.548Z</time></trkpt><trkpt lat="37.7163933" lon="15.1782667"><ele>133.2</ele><time>2026-04-24T18:10:49.548Z</time></trkpt><trkpt lat="37.71648" lon="15.1783333"><ele>131.6</ele><time>2026-04-24T18:10:50.547Z</time></trkpt><trkpt lat="37.7165667" lon="15.1783983"><ele>130.0</ele><time>2026-04-24T18:10:51.548Z</time></trkpt><trkpt lat="37.7166467" lon="15.1784567"><ele>130.0</ele><time>2026-04-24T18:10:52.547Z</time></trkpt><trkpt lat="37.7167167" lon="15.1785217"><ele>130.0</ele><time>2026-04-24T18:10:53.547Z</time></trkpt><trkpt lat="37.716795" lon="15.178585"><ele>130.0</ele><time>2026-04-24T18:10:54.548Z</time></trkpt><trkpt lat="37.7168783" lon="15.178655"><ele>130.0</ele><time>2026-04-24T18:10:55.547Z</time></trkpt><trkpt lat="37.7169633" lon="15.1787183"><ele>130.0</ele><time>2026-04-24T18:10:56.548Z</time></trkpt><trkpt lat="37.7170533" lon="15.1787867"><ele>129.4</ele><time>2026-04-24T18:10:57.548Z</time></trkpt><trkpt lat="37.717145" lon="15.1788583"><ele>128.8</ele><time>2026-04-24T18:10:58.548Z</time></trkpt><trkpt lat="37.71723" lon="15.1789217"><ele>128.2</ele><time>2026-04-24T18:10:59.547Z</time></trkpt><trkpt lat="37.7173033" lon="15.1789867"><ele>127.6</ele><time>2026-04-24T18:11:00.548Z</time></trkpt><trkpt lat="37.71738" lon="15.179045"><ele>127.0</ele><time>2026-04-24T18:11:01.548Z</time></trkpt><trkpt lat="37.71746" lon="15.1790983"><ele>127.0</ele><time>2026-04-24T18:11:02.547Z</time></trkpt><trkpt lat="37.7175433" lon="15.1791533"><ele>126.99999999999999</ele><time>2026-04-24T18:11:03.548Z</time></trkpt><trkpt lat="37.7176117" lon="15.1792183"><ele>126.99999999999999</ele><time>2026-04-24T18:11:04.548Z</time></trkpt><trkpt lat="37.7176933" lon="15.1792833"><ele>127.0</ele><time>2026-04-24T18:11:05.547Z</time></trkpt><trkpt lat="37.7177767" lon="15.1793417"><ele>127.0</ele><time>2026-04-24T18:11:06.547Z</time></trkpt><trkpt lat="37.7178633" lon="15.17939"><ele>127.0</ele><time>2026-04-24T18:11:07.548Z</time></trkpt><trkpt lat="37.7179467" lon="15.1794483"><ele>126.99999999999999</ele><time>2026-04-24T18:11:08.548Z</time></trkpt><trkpt lat="37.718025" lon="15.1795083"><ele>126.99999999999999</ele><time>2026-04-24T18:11:09.547Z</time></trkpt><trkpt lat="37.718105" lon="15.1795667"><ele>127.0</ele><time>2026-04-24T18:11:10.548Z</time></trkpt><trkpt lat="37.7181867" lon="15.1796233"><ele>127.0</ele><time>2026-04-24T18:11:11.548Z</time></trkpt><trkpt lat="37.718265" lon="15.17968"><ele>127.0</ele><time>2026-04-24T18:11:12.547Z</time></trkpt><trkpt lat="37.71834" lon="15.1797367"><ele>126.99999999999999</ele><time>2026-04-24T18:11:13.547Z</time></trkpt><trkpt lat="37.7184217" lon="15.1797933"><ele>126.99999999999999</ele><time>2026-04-24T18:11:14.548Z</time></trkpt><trkpt lat="37.7185083" lon="15.1798533"><ele>127.0</ele><time>2026-04-24T18:11:15.548Z</time></trkpt><trkpt lat="37.7185967" lon="15.179915"><ele>127.0</ele><time>2026-04-24T18:11:16.548Z</time></trkpt><trkpt lat="37.7186817" lon="15.1799767"><ele>125.66666666666667</ele><time>2026-04-24T18:11:17.548Z</time></trkpt><trkpt lat="37.7187633" lon="15.180035"><ele>124.33333333333334</ele><time>2026-04-24T18:11:18.548Z</time></trkpt><trkpt lat="37.7188383" lon="15.1801033"><ele>123.0</ele><time>2026-04-24T18:11:19.547Z</time></trkpt><trkpt lat="37.7189017" lon="15.1801517"><ele>121.66666666666666</ele><time>2026-04-24T18:11:20.548Z</time></trkpt><trkpt lat="37.7189633" lon="15.18019"><ele>120.33333333333333</ele><time>2026-04-24T18:11:21.548Z</time></trkpt><trkpt lat="37.719025" lon="15.1802383"><ele>119.0</ele><time>2026-04-24T18:11:22.547Z</time></trkpt><trkpt lat="37.7190917" lon="15.1802933"><ele>119.0</ele><time>2026-04-24T18:11:23.548Z</time></trkpt><trkpt lat="37.719165" lon="15.1803517"><ele>119.0</ele><time>2026-04-24T18:11:24.548Z</time></trkpt><trkpt lat="37.7192517" lon="15.18042"><ele>119.0</ele><time>2026-04-24T18:11:25.547Z</time></trkpt><trkpt lat="37.71934" lon="15.1804933"><ele>119.0</ele><time>2026-04-24T18:11:26.548Z</time></trkpt><trkpt lat="37.7194333" lon="15.180565"><ele>119.0</ele><time>2026-04-24T18:11:27.547Z</time></trkpt><trkpt lat="37.7195283" lon="15.1806383"><ele>118.2</ele><time>2026-04-24T18:11:28.548Z</time></trkpt><trkpt lat="37.719625" lon="15.18071"><ele>117.4</ele><time>2026-04-24T18:11:29.548Z</time></trkpt><trkpt lat="37.71972" lon="15.1807817"><ele>116.6</ele><time>2026-04-24T18:11:30.548Z</time></trkpt><trkpt lat="37.71981" lon="15.1808517"><ele>115.8</ele><time>2026-04-24T18:11:31.548Z</time></trkpt><trkpt lat="37.7199033" lon="15.18092"><ele>115.0</ele><time>2026-04-24T18:11:32.548Z</time></trkpt><trkpt lat="37.7199967" lon="15.1809883"><ele>115.0</ele><time>2026-04-24T18:11:33.547Z</time></trkpt><trkpt lat="37.72009" lon="15.1810583"><ele>115.0</ele><time>2026-04-24T18:11:34.547Z</time></trkpt><trkpt lat="37.7201833" lon="15.1811267"><ele>115.0</ele><time>2026-04-24T18:11:35.548Z</time></trkpt><trkpt lat="37.7202783" lon="15.1811967"><ele>115.0</ele><time>2026-04-24T18:11:36.548Z</time></trkpt><trkpt lat="37.7203717" lon="15.1812683"><ele>115.0</ele><time>2026-04-24T18:11:37.548Z</time></trkpt><trkpt lat="37.7204583" lon="15.1813433"><ele>114.16666666666667</ele><time>2026-04-24T18:11:38.548Z</time></trkpt><trkpt lat="37.7205433" lon="15.1814133"><ele>113.33333333333334</ele><time>2026-04-24T18:11:39.547Z</time></trkpt><trkpt lat="37.7206283" lon="15.1814783"><ele>112.5</ele><time>2026-04-24T18:11:40.548Z</time></trkpt><trkpt lat="37.7207047" lon="15.1815362"><ele>111.66666666666666</ele><time>2026-04-24T18:11:41.547Z</time></trkpt><trkpt lat="37.7207679" lon="15.1815866"><ele>110.83333333333333</ele><time>2026-04-24T18:11:42.547Z</time></trkpt><trkpt lat="37.720823" lon="15.1816288"><ele>110.0</ele><time>2026-04-24T18:11:43.548Z</time></trkpt><trkpt lat="37.7208809" lon="15.1816728"><ele>109.4</ele><time>2026-04-24T18:11:44.547Z</time></trkpt><trkpt lat="37.7209477" lon="15.1817209"><ele>108.8</ele><time>2026-04-24T18:11:45.548Z</time></trkpt><trkpt lat="37.7210245" lon="15.1817757"><ele>108.19999999999999</ele><time>2026-04-24T18:11:46.548Z</time></trkpt><trkpt lat="37.7211068" lon="15.1818378"><ele>107.6</ele><time>2026-04-24T18:11:47.548Z</time></trkpt><trkpt lat="37.7211941" lon="15.1819055"><ele>107.0</ele><time>2026-04-24T18:11:48.548Z</time></trkpt><trkpt lat="37.7212876" lon="15.1819734"><ele>106.6</ele><time>2026-04-24T18:11:49.547Z</time></trkpt><trkpt lat="37.7213856" lon="15.1820438"><ele>106.19999999999999</ele><time>2026-04-24T18:11:50.548Z</time></trkpt><trkpt lat="37.7214884" lon="15.1821139"><ele>105.8</ele><time>2026-04-24T18:11:51.547Z</time></trkpt><trkpt lat="37.7215855" lon="15.1821858"><ele>105.4</ele><time>2026-04-24T18:11:52.547Z</time></trkpt><trkpt lat="37.7216782" lon="15.182252"><ele>105.0</ele><time>2026-04-24T18:11:53.548Z</time></trkpt><trkpt lat="37.7217686" lon="15.1823185"><ele>104.6</ele><time>2026-04-24T18:11:54.548Z</time></trkpt><trkpt lat="37.7218568" lon="15.1823822"><ele>104.2</ele><time>2026-04-24T18:11:55.548Z</time></trkpt><trkpt lat="37.7219395" lon="15.1824414"><ele>103.80000000000001</ele><time>2026-04-24T18:11:56.548Z</time></trkpt><trkpt lat="37.7220179" lon="15.1824969"><ele>103.4</ele><time>2026-04-24T18:11:57.547Z</time></trkpt><trkpt lat="37.7220916" lon="15.182552"><ele>103.0</ele><time>2026-04-24T18:11:58.547Z</time></trkpt><trkpt lat="37.722166" lon="15.1826052"><ele>102.83333333333334</ele><time>2026-04-24T18:11:59.548Z</time></trkpt><trkpt lat="37.7222442" lon="15.1826577"><ele>102.66666666666667</ele><time>2026-04-24T18:12:00.547Z</time></trkpt><trkpt lat="37.7223259" lon="15.1827069"><ele>102.5</ele><time>2026-04-24T18:12:01.547Z</time></trkpt><trkpt lat="37.722401" lon="15.1827572"><ele>102.33333333333334</ele><time>2026-04-24T18:12:02.547Z</time></trkpt><trkpt lat="37.7224675" lon="15.1828083"><ele>102.16666666666667</ele><time>2026-04-24T18:12:03.548Z</time></trkpt><trkpt lat="37.7225588" lon="15.1828772"><ele>102.0</ele><time>2026-04-24T18:12:05.548Z</time></trkpt><trkpt lat="37.722607" lon="15.1829445"><ele>102.0</ele><time>2026-04-24T18:12:10.548Z</time></trkpt><trkpt lat="37.7226953" lon="15.1829801"><ele>102.0</ele><time>2026-04-24T18:12:13.547Z</time></trkpt><trkpt lat="37.7228157" lon="15.1830363"><ele>102.0</ele><time>2026-04-24T18:12:15.547Z</time></trkpt><trkpt lat="37.7228853" lon="15.1830725"><ele>102.0</ele><time>2026-04-24T18:12:16.547Z</time></trkpt><trkpt lat="37.7229588" lon="15.1831184"><ele>102.0</ele><time>2026-04-24T18:12:17.547Z</time></trkpt><trkpt lat="37.7230423" lon="15.1831673"><ele>101.16666666666667</ele><time>2026-04-24T18:12:18.548Z</time></trkpt><trkpt lat="37.7231309" lon="15.1832181"><ele>100.33333333333334</ele><time>2026-04-24T18:12:19.547Z</time></trkpt><trkpt lat="37.7232165" lon="15.1832607"><ele>99.5</ele><time>2026-04-24T18:12:20.547Z</time></trkpt><trkpt lat="37.7232897" lon="15.1832927"><ele>98.66666666666667</ele><time>2026-04-24T18:12:21.548Z</time></trkpt><trkpt lat="37.7233507" lon="15.1833187"><ele>97.83333333333334</ele><time>2026-04-24T18:12:22.548Z</time></trkpt><trkpt lat="37.723456" lon="15.1833776"><ele>97.0</ele><time>2026-04-24T18:12:24.548Z</time></trkpt><trkpt lat="37.7235164" lon="15.1834129"><ele>96.39999999999999</ele><time>2026-04-24T18:12:25.547Z</time></trkpt><trkpt lat="37.7235831" lon="15.183454"><ele>95.8</ele><time>2026-04-24T18:12:26.548Z</time></trkpt><trkpt lat="37.7236611" lon="15.1834997"><ele>95.2</ele><time>2026-04-24T18:12:27.547Z</time></trkpt><trkpt lat="37.7237511" lon="15.1835473"><ele>94.6</ele><time>2026-04-24T18:12:28.547Z</time></trkpt><trkpt lat="37.7238583" lon="15.1836"><ele>94.0</ele><time>2026-04-24T18:12:29.547Z</time></trkpt><trkpt lat="37.72395" lon="15.18364"><ele>94.0</ele><time>2026-04-24T18:12:30.548Z</time></trkpt><trkpt lat="37.7240283" lon="15.183685"><ele>94.0</ele><time>2026-04-24T18:12:31.547Z</time></trkpt><trkpt lat="37.724105" lon="15.1837267"><ele>94.0</ele><time>2026-04-24T18:12:32.547Z</time></trkpt><trkpt lat="37.7241867" lon="15.1837667"><ele>94.0</ele><time>2026-04-24T18:12:33.547Z</time></trkpt><trkpt lat="37.72427" lon="15.1838083"><ele>94.0</ele><time>2026-04-24T18:12:34.548Z</time></trkpt><trkpt lat="37.7243617" lon="15.183845"><ele>94.0</ele><time>2026-04-24T18:12:35.548Z</time></trkpt><trkpt lat="37.7244467" lon="15.1838767"><ele>93.83333333333333</ele><time>2026-04-24T18:12:36.548Z</time></trkpt><trkpt lat="37.7245267" lon="15.1839083"><ele>93.66666666666666</ele><time>2026-04-24T18:12:37.547Z</time></trkpt><trkpt lat="37.7245983" lon="15.183945"><ele>93.5</ele><time>2026-04-24T18:12:38.547Z</time></trkpt><trkpt lat="37.72466" lon="15.18397"><ele>93.33333333333333</ele><time>2026-04-24T18:12:39.547Z</time></trkpt><trkpt lat="37.724745" lon="15.1840083"><ele>93.16666666666667</ele><time>2026-04-24T18:12:41.547Z</time></trkpt><trkpt lat="37.724835" lon="15.1840683"><ele>93.0</ele><time>2026-04-24T18:12:51.549Z</time></trkpt><trkpt lat="37.7249033" lon="15.184095"><ele>92.83333333333333</ele><time>2026-04-24T18:12:53.548Z</time></trkpt><trkpt lat="37.7249817" lon="15.1841383"><ele>92.66666666666667</ele><time>2026-04-24T18:12:55.548Z</time></trkpt><trkpt lat="37.72507" lon="15.18416"><ele>92.5</ele><time>2026-04-24T18:12:57.549Z</time></trkpt><trkpt lat="37.725135" lon="15.1841883"><ele>92.33333333333334</ele><time>2026-04-24T18:12:59.549Z</time></trkpt><trkpt lat="37.7252117" lon="15.1842283"><ele>92.16666666666667</ele><time>2026-04-24T18:13:02.549Z</time></trkpt><trkpt lat="37.7253267" lon="15.1842583"><ele>92.0</ele><time>2026-04-24T18:13:14.549Z</time></trkpt><trkpt lat="37.7253883" lon="15.184295"><ele>91.75</ele><time>2026-04-24T18:13:18.549Z</time></trkpt><trkpt lat="37.7254533" lon="15.184325"><ele>91.5</ele><time>2026-04-24T18:13:25.548Z</time></trkpt><trkpt lat="37.7256583" lon="15.1843317"><ele>91.25</ele><time>2026-04-24T18:13:37.548Z</time></trkpt><trkpt lat="37.7258183" lon="15.1843433"><ele>91.0</ele><time>2026-04-24T18:14:07.548Z</time></trkpt><trkpt lat="37.7259967" lon="15.1843317"><ele>90.33333333333333</ele><time>2026-04-24T18:14:14.549Z</time></trkpt><trkpt lat="37.726075" lon="15.184315"><ele>89.66666666666666</ele><time>2026-04-24T18:14:16.549Z</time></trkpt><trkpt lat="37.7261633" lon="15.1842983"><ele>89.0</ele><time>2026-04-24T18:14:18.548Z</time></trkpt><trkpt lat="37.7262317" lon="15.1842883"><ele>88.33333333333333</ele><time>2026-04-24T18:14:20.548Z</time></trkpt><trkpt lat="37.726325" lon="15.1842783"><ele>87.66666666666667</ele><time>2026-04-24T18:14:23.549Z</time></trkpt><trkpt lat="37.7264017" lon="15.1842833"><ele>87.0</ele><time>2026-04-24T18:14:25.548Z</time></trkpt><trkpt lat="37.7264767" lon="15.1842883"><ele>87.0</ele><time>2026-04-24T18:14:41.549Z</time></trkpt><trkpt lat="37.7265767" lon="15.1842817"><ele>87.0</ele><time>2026-04-24T18:16:22.548Z</time></trkpt><trkpt lat="37.7266533" lon="15.1842483"><ele>87.0</ele><time>2026-04-24T18:16:24.549Z</time></trkpt><trkpt lat="37.72672" lon="15.1842417"><ele>87.0</ele><time>2026-04-24T18:16:26.549Z</time></trkpt><trkpt lat="37.7267883" lon="15.1842483"><ele>87.0</ele><time>2026-04-24T18:16:29.549Z</time></trkpt><trkpt lat="37.7269117" lon="15.184245"><ele>87.0</ele><time>2026-04-24T18:17:00.548Z</time></trkpt><trkpt lat="37.72705" lon="15.1842633"><ele>85.8</ele><time>2026-04-24T18:17:03.549Z</time></trkpt><trkpt lat="37.7271367" lon="15.1842517"><ele>84.6</ele><time>2026-04-24T18:17:05.548Z</time></trkpt><trkpt lat="37.7272533" lon="15.1842567"><ele>83.39999999999999</ele><time>2026-04-24T18:17:07.549Z</time></trkpt><trkpt lat="37.7273633" lon="15.18427"><ele>82.19999999999999</ele><time>2026-04-24T18:17:09.549Z</time></trkpt><trkpt lat="37.7274783" lon="15.184285"><ele>81.0</ele><time>2026-04-24T18:17:11.549Z</time></trkpt><trkpt lat="37.72758" lon="15.1843033"><ele>81.0</ele><time>2026-04-24T18:17:13.548Z</time></trkpt><trkpt lat="37.7276667" lon="15.1843233"><ele>81.0</ele><time>2026-04-24T18:17:15.549Z</time></trkpt><trkpt lat="37.7277367" lon="15.1843383"><ele>81.0</ele><time>2026-04-24T18:17:17.548Z</time></trkpt><trkpt lat="37.7278133" lon="15.18435"><ele>81.0</ele><time>2026-04-24T18:17:19.549Z</time></trkpt><trkpt lat="37.7279117" lon="15.18437"><ele>81.0</ele><time>2026-04-24T18:17:21.549Z</time></trkpt><trkpt lat="37.7280067" lon="15.18439"><ele>81.0</ele><time>2026-04-24T18:17:23.548Z</time></trkpt><trkpt lat="37.7280933" lon="15.1844067"><ele>80.5</ele><time>2026-04-24T18:17:25.549Z</time></trkpt><trkpt lat="37.7281833" lon="15.184425"><ele>80.0</ele><time>2026-04-24T18:17:27.548Z</time></trkpt><trkpt lat="37.728265" lon="15.184445"><ele>79.5</ele><time>2026-04-24T18:17:29.549Z</time></trkpt><trkpt lat="37.7283367" lon="15.184455"><ele>79.0</ele><time>2026-04-24T18:17:31.548Z</time></trkpt><trkpt lat="37.7284017" lon="15.18447"><ele>78.5</ele><time>2026-04-24T18:17:33.549Z</time></trkpt><trkpt lat="37.728495" lon="15.1844817"><ele>78.0</ele><time>2026-04-24T18:17:35.548Z</time></trkpt><trkpt lat="37.7286017" lon="15.1844683"><ele>77.6</ele><time>2026-04-24T18:17:37.549Z</time></trkpt><trkpt lat="37.7287233" lon="15.1844733"><ele>77.19999999999999</ele><time>2026-04-24T18:17:39.548Z</time></trkpt><trkpt lat="37.7287867" lon="15.1844733"><ele>76.8</ele><time>2026-04-24T18:17:40.549Z</time></trkpt><trkpt lat="37.7288533" lon="15.18447"><ele>76.39999999999999</ele><time>2026-04-24T18:17:41.548Z</time></trkpt><trkpt lat="37.7289583" lon="15.1844733"><ele>76.0</ele><time>2026-04-24T18:17:43.549Z</time></trkpt><trkpt lat="37.729065" lon="15.18448"><ele>76.0</ele><time>2026-04-24T18:17:45.549Z</time></trkpt><trkpt lat="37.7291733" lon="15.1844867"><ele>76.0</ele><time>2026-04-24T18:17:47.549Z</time></trkpt><trkpt lat="37.7292667" lon="15.1844883"><ele>76.0</ele><time>2026-04-24T18:17:49.549Z</time></trkpt><trkpt lat="37.7293383" lon="15.1844967"><ele>76.0</ele><time>2026-04-24T18:17:51.549Z</time></trkpt><trkpt lat="37.72949" lon="15.1845"><ele>76.0</ele><time>2026-04-24T18:17:58.548Z</time></trkpt><trkpt lat="37.7295767" lon="15.1845133"><ele>75.33333333333333</ele><time>2026-04-24T18:18:01.549Z</time></trkpt><trkpt lat="37.72966" lon="15.1845267"><ele>74.66666666666666</ele><time>2026-04-24T18:18:03.548Z</time></trkpt><trkpt lat="37.7297467" lon="15.1845433"><ele>74.0</ele><time>2026-04-24T18:18:05.548Z</time></trkpt><trkpt lat="37.7298283" lon="15.1845633"><ele>73.33333333333333</ele><time>2026-04-24T18:18:07.549Z</time></trkpt><trkpt lat="37.7299383" lon="15.1845883"><ele>72.66666666666667</ele><time>2026-04-24T18:18:09.549Z</time></trkpt><trkpt lat="37.7300033" lon="15.1846"><ele>72.0</ele><time>2026-04-24T18:18:10.549Z</time></trkpt><trkpt lat="37.73012" lon="15.18462"><ele>71.2</ele><time>2026-04-24T18:18:12.548Z</time></trkpt><trkpt lat="37.7302383" lon="15.1846383"><ele>70.4</ele><time>2026-04-24T18:18:14.549Z</time></trkpt><trkpt lat="37.7303383" lon="15.1846567"><ele>69.6</ele><time>2026-04-24T18:18:16.549Z</time></trkpt><trkpt lat="37.730435" lon="15.1846733"><ele>68.8</ele><time>2026-04-24T18:18:18.548Z</time></trkpt><trkpt lat="37.7305333" lon="15.1846967"><ele>68.0</ele><time>2026-04-24T18:18:20.548Z</time></trkpt><trkpt lat="37.730655" lon="15.1847217"><ele>68.0</ele><time>2026-04-24T18:18:22.548Z</time></trkpt><trkpt lat="37.7307217" lon="15.184735"><ele>68.0</ele><time>2026-04-24T18:18:23.549Z</time></trkpt><trkpt lat="37.7308433" lon="15.1847567"><ele>68.0</ele><time>2026-04-24T18:18:25.548Z</time></trkpt><trkpt lat="37.7309667" lon="15.1847767"><ele>68.0</ele><time>2026-04-24T18:18:27.549Z</time></trkpt><trkpt lat="37.7310333" lon="15.1847867"><ele>68.0</ele><time>2026-04-24T18:18:28.549Z</time></trkpt><trkpt lat="37.7311667" lon="15.1848083"><ele>67.5</ele><time>2026-04-24T18:18:30.549Z</time></trkpt><trkpt lat="37.73123" lon="15.1848233"><ele>67.0</ele><time>2026-04-24T18:18:31.549Z</time></trkpt><trkpt lat="37.7313" lon="15.184845"><ele>66.5</ele><time>2026-04-24T18:18:32.549Z</time></trkpt><trkpt lat="37.7313733" lon="15.184865"><ele>66.0</ele><time>2026-04-24T18:18:33.548Z</time></trkpt><trkpt lat="37.73145" lon="15.18487"><ele>65.5</ele><time>2026-04-24T18:18:34.548Z</time></trkpt><trkpt lat="37.73152" lon="15.1848783"><ele>65.0</ele><time>2026-04-24T18:18:35.549Z</time></trkpt><trkpt lat="37.731645" lon="15.1848967"><ele>65.0</ele><time>2026-04-24T18:18:37.548Z</time></trkpt><trkpt lat="37.7317217" lon="15.1849083"><ele>65.0</ele><time>2026-04-24T18:18:38.548Z</time></trkpt><trkpt lat="37.7318083" lon="15.1849283"><ele>65.0</ele><time>2026-04-24T18:18:39.548Z</time></trkpt><trkpt lat="37.7318867" lon="15.18495"><ele>65.0</ele><time>2026-04-24T18:18:40.548Z</time></trkpt><trkpt lat="37.7319633" lon="15.1849717"><ele>65.0</ele><time>2026-04-24T18:18:41.549Z</time></trkpt><trkpt lat="37.7320467" lon="15.18499"><ele>65.0</ele><time>2026-04-24T18:18:42.548Z</time></trkpt><trkpt lat="37.732125" lon="15.1850133"><ele>63.833333333333336</ele><time>2026-04-24T18:18:43.549Z</time></trkpt><trkpt lat="37.73221" lon="15.18503"><ele>62.66666666666667</ele><time>2026-04-24T18:18:44.549Z</time></trkpt><trkpt lat="37.732295" lon="15.1850467"><ele>61.5</ele><time>2026-04-24T18:18:45.548Z</time></trkpt><trkpt lat="37.7323833" lon="15.1850633"><ele>60.33333333333333</ele><time>2026-04-24T18:18:46.549Z</time></trkpt><trkpt lat="37.7324717" lon="15.185075"><ele>59.166666666666664</ele><time>2026-04-24T18:18:47.549Z</time></trkpt><trkpt lat="37.7325633" lon="15.1850917"><ele>58.0</ele><time>2026-04-24T18:18:48.548Z</time></trkpt><trkpt lat="37.7326533" lon="15.1851067"><ele>57.99999999999999</ele><time>2026-04-24T18:18:49.549Z</time></trkpt><trkpt lat="37.73274" lon="15.185125"><ele>58.0</ele><time>2026-04-24T18:18:50.549Z</time></trkpt><trkpt lat="37.7328167" lon="15.1851383"><ele>58.0</ele><time>2026-04-24T18:18:51.549Z</time></trkpt><trkpt lat="37.7328933" lon="15.1851583"><ele>58.0</ele><time>2026-04-24T18:18:52.548Z</time></trkpt><trkpt lat="37.73298" lon="15.1851833"><ele>57.99999999999999</ele><time>2026-04-24T18:18:53.548Z</time></trkpt><trkpt lat="37.7330667" lon="15.1851983"><ele>58.0</ele><time>2026-04-24T18:18:54.548Z</time></trkpt><trkpt lat="37.7331617" lon="15.185215"><ele>57.99999999999999</ele><time>2026-04-24T18:18:55.548Z</time></trkpt><trkpt lat="37.7332417" lon="15.1852267"><ele>58.0</ele><time>2026-04-24T18:18:56.549Z</time></trkpt><trkpt lat="37.7333233" lon="15.1852317"><ele>58.0</ele><time>2026-04-24T18:18:57.548Z</time></trkpt><trkpt lat="37.7333983" lon="15.185235"><ele>58.0</ele><time>2026-04-24T18:18:58.549Z</time></trkpt><trkpt lat="37.7334717" lon="15.185245"><ele>57.99999999999999</ele><time>2026-04-24T18:18:59.549Z</time></trkpt><trkpt lat="37.7335367" lon="15.185275"><ele>58.0</ele><time>2026-04-24T18:19:00.549Z</time></trkpt><trkpt lat="37.7336183" lon="15.185285"><ele>57.33333333333333</ele><time>2026-04-24T18:19:01.549Z</time></trkpt><trkpt lat="37.7337" lon="15.1853017"><ele>56.666666666666664</ele><time>2026-04-24T18:19:02.549Z</time></trkpt><trkpt lat="37.7337883" lon="15.1853033"><ele>56.0</ele><time>2026-04-24T18:19:03.549Z</time></trkpt><trkpt lat="37.733875" lon="15.1853083"><ele>55.33333333333333</ele><time>2026-04-24T18:19:04.549Z</time></trkpt><trkpt lat="37.7339633" lon="15.1853267"><ele>54.666666666666664</ele><time>2026-04-24T18:19:05.548Z</time></trkpt><trkpt lat="37.7340517" lon="15.18534"><ele>54.0</ele><time>2026-04-24T18:19:06.549Z</time></trkpt><trkpt lat="37.7341333" lon="15.1853617"><ele>54.0</ele><time>2026-04-24T18:19:07.549Z</time></trkpt><trkpt lat="37.734205" lon="15.1853833"><ele>54.0</ele><time>2026-04-24T18:19:08.548Z</time></trkpt><trkpt lat="37.73427" lon="15.185395"><ele>54.0</ele><time>2026-04-24T18:19:09.548Z</time></trkpt><trkpt lat="37.734345" lon="15.18541"><ele>54.0</ele><time>2026-04-24T18:19:10.548Z</time></trkpt><trkpt lat="37.73444" lon="15.1854383"><ele>54.0</ele><time>2026-04-24T18:19:11.548Z</time></trkpt><trkpt lat="37.73454" lon="15.1854533"><ele>54.0</ele><time>2026-04-24T18:19:12.549Z</time></trkpt><trkpt lat="37.7346283" lon="15.1854667"><ele>52.6</ele><time>2026-04-24T18:19:13.549Z</time></trkpt><trkpt lat="37.7347267" lon="15.1854733"><ele>51.2</ele><time>2026-04-24T18:19:14.548Z</time></trkpt><trkpt lat="37.7348267" lon="15.1854817"><ele>49.800000000000004</ele><time>2026-04-24T18:19:15.549Z</time></trkpt><trkpt lat="37.7349217" lon="15.185505"><ele>48.400000000000006</ele><time>2026-04-24T18:19:16.548Z</time></trkpt><trkpt lat="37.73502" lon="15.185525"><ele>47.0</ele><time>2026-04-24T18:19:17.549Z</time></trkpt><trkpt lat="37.7351217" lon="15.1855483"><ele>47.2</ele><time>2026-04-24T18:19:18.548Z</time></trkpt><trkpt lat="37.73523" lon="15.1855567"><ele>47.400000000000006</ele><time>2026-04-24T18:19:19.549Z</time></trkpt><trkpt lat="37.7353317" lon="15.18558"><ele>47.599999999999994</ele><time>2026-04-24T18:19:20.548Z</time></trkpt><trkpt lat="37.7354267" lon="15.1856"><ele>47.8</ele><time>2026-04-24T18:19:21.548Z</time></trkpt><trkpt lat="37.735505" lon="15.1856383"><ele>48.0</ele><time>2026-04-24T18:19:22.548Z</time></trkpt><trkpt lat="37.7355683" lon="15.1857"><ele>48.0</ele><time>2026-04-24T18:19:23.549Z</time></trkpt><trkpt lat="37.73562" lon="15.1857583"><ele>48.0</ele><time>2026-04-24T18:19:24.548Z</time></trkpt><trkpt lat="37.73567" lon="15.18581"><ele>48.0</ele><time>2026-04-24T18:19:25.549Z</time></trkpt><trkpt lat="37.73576" lon="15.1859133"><ele>48.0</ele><time>2026-04-24T18:19:27.549Z</time></trkpt><trkpt lat="37.735805" lon="15.185975"><ele>48.0</ele><time>2026-04-24T18:19:28.549Z</time></trkpt><trkpt lat="37.7358417" lon="15.186045"><ele>48.0</ele><time>2026-04-24T18:19:29.549Z</time></trkpt><trkpt lat="37.7359117" lon="15.1861533"><ele>48.0</ele><time>2026-04-24T18:19:31.548Z</time></trkpt><trkpt lat="37.73597" lon="15.186235"><ele>48.0</ele><time>2026-04-24T18:19:33.549Z</time></trkpt><trkpt lat="37.7360217" lon="15.1862917"><ele>48.0</ele><time>2026-04-24T18:19:35.548Z</time></trkpt><trkpt lat="37.7361" lon="15.1863483"><ele>48.0</ele><time>2026-04-24T18:19:37.549Z</time></trkpt><trkpt lat="37.7362017" lon="15.18643"><ele>48.0</ele><time>2026-04-24T18:19:39.549Z</time></trkpt><trkpt lat="37.73628" lon="15.1864933"><ele>46.5</ele><time>2026-04-24T18:19:41.549Z</time></trkpt><trkpt lat="37.7363567" lon="15.1865383"><ele>45.0</ele><time>2026-04-24T18:19:44.549Z</time></trkpt><trkpt lat="37.7364267" lon="15.1865417"><ele>43.5</ele><time>2026-04-24T18:19:47.548Z</time></trkpt><trkpt lat="37.7365967" lon="15.1864267"><ele>42.0</ele><time>2026-04-24T18:19:55.549Z</time></trkpt><trkpt lat="37.73667" lon="15.1863267"><ele>42.0</ele><time>2026-04-24T18:19:57.549Z</time></trkpt><trkpt lat="37.7367167" lon="15.1862617"><ele>42.0</ele><time>2026-04-24T18:19:58.548Z</time></trkpt><trkpt lat="37.7367667" lon="15.1861933"><ele>42.0</ele><time>2026-04-24T18:19:59.549Z</time></trkpt><trkpt lat="37.736815" lon="15.1861233"><ele>42.0</ele><time>2026-04-24T18:20:00.549Z</time></trkpt><trkpt lat="37.7368633" lon="15.1860517"><ele>42.0</ele><time>2026-04-24T18:20:01.548Z</time></trkpt><trkpt lat="37.7369167" lon="15.185985"><ele>42.0</ele><time>2026-04-24T18:20:02.549Z</time></trkpt><trkpt lat="37.73697" lon="15.1859183"><ele>42.0</ele><time>2026-04-24T18:20:03.549Z</time></trkpt><trkpt lat="37.7370167" lon="15.1858583"><ele>42.0</ele><time>2026-04-24T18:20:04.548Z</time></trkpt><trkpt lat="37.7370883" lon="15.1857583"><ele>42.0</ele><time>2026-04-24T18:20:06.549Z</time></trkpt><trkpt lat="37.7371667" lon="15.1856617"><ele>42.0</ele><time>2026-04-24T18:20:08.549Z</time></trkpt><trkpt lat="37.7372633" lon="15.1855933"><ele>42.0</ele><time>2026-04-24T18:20:10.549Z</time></trkpt><trkpt lat="37.7373767" lon="15.185585"><ele>42.0</ele><time>2026-04-24T18:20:12.548Z</time></trkpt><trkpt lat="37.73748" lon="15.1856183"><ele>42.0</ele><time>2026-04-24T18:20:14.549Z</time></trkpt><trkpt lat="37.7375883" lon="15.1856567"><ele>42.0</ele><time>2026-04-24T18:20:16.548Z</time></trkpt><trkpt lat="37.7376983" lon="15.1856933"><ele>42.0</ele><time>2026-04-24T18:20:18.548Z</time></trkpt><trkpt lat="37.7377967" lon="15.1857233"><ele>42.0</ele><time>2026-04-24T18:20:20.548Z</time></trkpt><trkpt lat="37.7379" lon="15.1857617"><ele>42.0</ele><time>2026-04-24T18:20:22.549Z</time></trkpt><trkpt lat="37.7379617" lon="15.185785"><ele>41.6</ele><time>2026-04-24T18:20:23.548Z</time></trkpt><trkpt lat="37.738025" lon="15.185815"><ele>41.2</ele><time>2026-04-24T18:20:24.549Z</time></trkpt><trkpt lat="37.73809" lon="15.18584"><ele>40.8</ele><time>2026-04-24T18:20:25.549Z</time></trkpt><trkpt lat="37.7381967" lon="15.185885"><ele>40.4</ele><time>2026-04-24T18:20:27.549Z</time></trkpt><trkpt lat="37.7382983" lon="15.1859267"><ele>40.0</ele><time>2026-04-24T18:20:29.548Z</time></trkpt><trkpt lat="37.7383917" lon="15.1859667"><ele>40.0</ele><time>2026-04-24T18:20:31.548Z</time></trkpt><trkpt lat="37.738475" lon="15.1859933"><ele>40.0</ele><time>2026-04-24T18:20:33.549Z</time></trkpt><trkpt lat="37.73856" lon="15.1860183"><ele>40.0</ele><time>2026-04-24T18:20:35.548Z</time></trkpt><trkpt lat="37.7386383" lon="15.18604"><ele>40.0</ele><time>2026-04-24T18:20:37.548Z</time></trkpt><trkpt lat="37.738725" lon="15.18607"><ele>40.0</ele><time>2026-04-24T18:20:39.549Z</time></trkpt><trkpt lat="37.7388" lon="15.1861"><ele>40.0</ele><time>2026-04-24T18:20:41.548Z</time></trkpt><trkpt lat="37.73887" lon="15.186125"><ele>39.833333333333336</ele><time>2026-04-24T18:20:43.549Z</time></trkpt><trkpt lat="37.7389383" lon="15.18615"><ele>39.66666666666667</ele><time>2026-04-24T18:20:45.549Z</time></trkpt><trkpt lat="37.7390133" lon="15.1861733"><ele>39.5</ele><time>2026-04-24T18:20:47.548Z</time></trkpt><trkpt lat="37.7390933" lon="15.1861867"><ele>39.333333333333336</ele><time>2026-04-24T18:20:49.549Z</time></trkpt><trkpt lat="37.7391617" lon="15.1862"><ele>39.166666666666664</ele><time>2026-04-24T18:20:51.549Z</time></trkpt><trkpt lat="37.739245" lon="15.1862167"><ele>39.0</ele><time>2026-04-24T18:20:53.548Z</time></trkpt><trkpt lat="37.7393117" lon="15.18623"><ele>38.5</ele><time>2026-04-24T18:20:55.549Z</time></trkpt><trkpt lat="37.7393883" lon="15.18624"><ele>38.0</ele><time>2026-04-24T18:20:57.549Z</time></trkpt><trkpt lat="37.7394767" lon="15.1862533"><ele>37.5</ele><time>2026-04-24T18:20:59.549Z</time></trkpt><trkpt lat="37.7395583" lon="15.1862667"><ele>37.0</ele><time>2026-04-24T18:21:01.548Z</time></trkpt><trkpt lat="37.7396417" lon="15.186285"><ele>36.5</ele><time>2026-04-24T18:21:03.548Z</time></trkpt><trkpt lat="37.73973" lon="15.1863083"><ele>36.0</ele><time>2026-04-24T18:21:05.549Z</time></trkpt><trkpt lat="37.7398117" lon="15.1863317"><ele>36.0</ele><time>2026-04-24T18:21:07.549Z</time></trkpt><trkpt lat="37.7398917" lon="15.186355"><ele>36.0</ele><time>2026-04-24T18:21:09.548Z</time></trkpt><trkpt lat="37.739975" lon="15.1863717"><ele>36.0</ele><time>2026-04-24T18:21:11.549Z</time></trkpt><trkpt lat="37.740045" lon="15.1863867"><ele>36.0</ele><time>2026-04-24T18:21:13.549Z</time></trkpt><trkpt lat="37.7401083" lon="15.1864"><ele>36.0</ele><time>2026-04-24T18:21:15.549Z</time></trkpt><trkpt lat="37.7401983" lon="15.186415"><ele>36.0</ele><time>2026-04-24T18:21:17.548Z</time></trkpt><trkpt lat="37.74029" lon="15.1864267"><ele>36.0</ele><time>2026-04-24T18:21:19.548Z</time></trkpt><trkpt lat="37.7403833" lon="15.1864333"><ele>36.0</ele><time>2026-04-24T18:21:21.549Z</time></trkpt><trkpt lat="37.74045" lon="15.1864383"><ele>36.0</ele><time>2026-04-24T18:21:22.548Z</time></trkpt><trkpt lat="37.7405317" lon="15.1864433"><ele>36.0</ele><time>2026-04-24T18:21:23.549Z</time></trkpt><trkpt lat="37.740625" lon="15.1864583"><ele>36.0</ele><time>2026-04-24T18:21:24.548Z</time></trkpt><trkpt lat="37.7407" lon="15.1864733"><ele>36.0</ele><time>2026-04-24T18:21:25.549Z</time></trkpt><trkpt lat="37.7407767" lon="15.1864833"><ele>36.0</ele><time>2026-04-24T18:21:27.549Z</time></trkpt><trkpt lat="37.74085" lon="15.18649"><ele>36.0</ele><time>2026-04-24T18:21:38.548Z</time></trkpt><trkpt lat="37.7409633" lon="15.18651"><ele>36.0</ele><time>2026-04-24T18:21:40.549Z</time></trkpt><trkpt lat="37.7410267" lon="15.1865233"><ele>36.0</ele><time>2026-04-24T18:21:41.548Z</time></trkpt><trkpt lat="37.74114" lon="15.186555"><ele>36.0</ele><time>2026-04-24T18:21:43.549Z</time></trkpt><trkpt lat="37.741235" lon="15.1865767"><ele>35.4</ele><time>2026-04-24T18:21:45.549Z</time></trkpt><trkpt lat="37.74134" lon="15.1865983"><ele>34.8</ele><time>2026-04-24T18:21:47.549Z</time></trkpt><trkpt lat="37.74146" lon="15.186615"><ele>34.199999999999996</ele><time>2026-04-24T18:21:49.549Z</time></trkpt><trkpt lat="37.7415667" lon="15.18663"><ele>33.6</ele><time>2026-04-24T18:21:51.548Z</time></trkpt><trkpt lat="37.7416683" lon="15.1866417"><ele>33.0</ele><time>2026-04-24T18:21:53.549Z</time></trkpt><trkpt lat="37.7417767" lon="15.1866617"><ele>32.6</ele><time>2026-04-24T18:21:55.549Z</time></trkpt><trkpt lat="37.7418933" lon="15.1866833"><ele>32.199999999999996</ele><time>2026-04-24T18:21:57.549Z</time></trkpt><trkpt lat="37.741955" lon="15.1867"><ele>31.8</ele><time>2026-04-24T18:21:58.548Z</time></trkpt><trkpt lat="37.7420783" lon="15.1867317"><ele>31.4</ele><time>2026-04-24T18:22:00.549Z</time></trkpt><trkpt lat="37.74214" lon="15.1867583"><ele>31.0</ele><time>2026-04-24T18:22:01.549Z</time></trkpt><trkpt lat="37.7422567" lon="15.186795"><ele>31.0</ele><time>2026-04-24T18:22:03.549Z</time></trkpt><trkpt lat="37.7423567" lon="15.1868333"><ele>31.0</ele><time>2026-04-24T18:22:05.548Z</time></trkpt><trkpt lat="37.742445" lon="15.1868733"><ele>31.0</ele><time>2026-04-24T18:22:07.548Z</time></trkpt><trkpt lat="37.7425233" lon="15.1869033"><ele>31.0</ele><time>2026-04-24T18:22:09.549Z</time></trkpt><trkpt lat="37.7426" lon="15.186935"><ele>31.0</ele><time>2026-04-24T18:22:11.549Z</time></trkpt><trkpt lat="37.7426917" lon="15.1869817"><ele>31.166666666666668</ele><time>2026-04-24T18:22:13.548Z</time></trkpt><trkpt lat="37.7427817" lon="15.18703"><ele>31.333333333333336</ele><time>2026-04-24T18:22:15.549Z</time></trkpt><trkpt lat="37.7428633" lon="15.18706"><ele>31.5</ele><time>2026-04-24T18:22:17.549Z</time></trkpt><trkpt lat="37.7429633" lon="15.1871217"><ele>31.666666666666664</ele><time>2026-04-24T18:22:19.548Z</time></trkpt><trkpt lat="37.743025" lon="15.1871633"><ele>31.833333333333332</ele><time>2026-04-24T18:22:22.549Z</time></trkpt><trkpt lat="37.7430933" lon="15.187185"><ele>32.0</ele><time>2026-04-24T18:22:25.548Z</time></trkpt><trkpt lat="37.7431583" lon="15.187215"><ele>31.999999999999996</ele><time>2026-04-24T18:22:27.548Z</time></trkpt><trkpt lat="37.743225" lon="15.187245"><ele>32.0</ele><time>2026-04-24T18:22:29.549Z</time></trkpt><trkpt lat="37.743315" lon="15.1872717"><ele>32.0</ele><time>2026-04-24T18:22:32.549Z</time></trkpt><trkpt lat="37.7433917" lon="15.1872967"><ele>32.0</ele><time>2026-04-24T18:22:37.549Z</time></trkpt><trkpt lat="37.7434683" lon="15.1873383"><ele>31.999999999999996</ele><time>2026-04-24T18:22:40.548Z</time></trkpt><trkpt lat="37.74355" lon="15.1873633"><ele>32.0</ele><time>2026-04-24T18:22:42.549Z</time></trkpt><trkpt lat="37.7436417" lon="15.1873567"><ele>31.6</ele><time>2026-04-24T18:22:44.549Z</time></trkpt><trkpt lat="37.7437633" lon="15.18738"><ele>31.200000000000003</ele><time>2026-04-24T18:22:46.548Z</time></trkpt><trkpt lat="37.7438367" lon="15.18743"><ele>30.8</ele><time>2026-04-24T18:22:47.548Z</time></trkpt><trkpt lat="37.743915" lon="15.18751"><ele>30.4</ele><time>2026-04-24T18:22:48.549Z</time></trkpt><trkpt lat="37.7439867" lon="15.1875917"><ele>30.0</ele><time>2026-04-24T18:22:49.549Z</time></trkpt><trkpt lat="37.7440633" lon="15.18768"><ele>30.0</ele><time>2026-04-24T18:22:50.548Z</time></trkpt><trkpt lat="37.7441333" lon="15.18776"><ele>30.0</ele><time>2026-04-24T18:22:51.549Z</time></trkpt><trkpt lat="37.74422" lon="15.1878417"><ele>30.0</ele><time>2026-04-24T18:22:52.548Z</time></trkpt><trkpt lat="37.744305" lon="15.1879117"><ele>30.0</ele><time>2026-04-24T18:22:53.548Z</time></trkpt><trkpt lat="37.744385" lon="15.1879933"><ele>30.0</ele><time>2026-04-24T18:22:54.549Z</time></trkpt><trkpt lat="37.744475" lon="15.1880783"><ele>30.2</ele><time>2026-04-24T18:22:55.549Z</time></trkpt><trkpt lat="37.74456" lon="15.1881667"><ele>30.4</ele><time>2026-04-24T18:22:56.549Z</time></trkpt><trkpt lat="37.7446517" lon="15.1882567"><ele>30.6</ele><time>2026-04-24T18:22:57.549Z</time></trkpt><trkpt lat="37.74474" lon="15.1883383"><ele>30.8</ele><time>2026-04-24T18:22:58.548Z</time></trkpt><trkpt lat="37.7448267" lon="15.1884167"><ele>31.0</ele><time>2026-04-24T18:22:59.549Z</time></trkpt><trkpt lat="37.744905" lon="15.188495"><ele>31.200000000000003</ele><time>2026-04-24T18:23:00.549Z</time></trkpt><trkpt lat="37.7449767" lon="15.1885767"><ele>31.400000000000002</ele><time>2026-04-24T18:23:01.549Z</time></trkpt><trkpt lat="37.74505" lon="15.1886667"><ele>31.6</ele><time>2026-04-24T18:23:02.549Z</time></trkpt><trkpt lat="37.74512" lon="15.1887683"><ele>31.8</ele><time>2026-04-24T18:23:03.548Z</time></trkpt><trkpt lat="37.745185" lon="15.1888833"><ele>32.0</ele><time>2026-04-24T18:23:04.549Z</time></trkpt><trkpt lat="37.7452483" lon="15.1890017"><ele>31.25</ele><time>2026-04-24T18:23:05.548Z</time></trkpt><trkpt lat="37.7453083" lon="15.1891267"><ele>30.5</ele><time>2026-04-24T18:23:06.549Z</time></trkpt><trkpt lat="37.7453683" lon="15.18925"><ele>29.75</ele><time>2026-04-24T18:23:07.548Z</time></trkpt><trkpt lat="37.7454233" lon="15.1893733"><ele>29.0</ele><time>2026-04-24T18:23:08.549Z</time></trkpt><trkpt lat="37.74547" lon="15.1894967"><ele>29.0</ele><time>2026-04-24T18:23:09.549Z</time></trkpt><trkpt lat="37.7455167" lon="15.1896167"><ele>29.0</ele><time>2026-04-24T18:23:10.549Z</time></trkpt><trkpt lat="37.7455683" lon="15.189735"><ele>29.0</ele><time>2026-04-24T18:23:11.548Z</time></trkpt><trkpt lat="37.74562" lon="15.1898533"><ele>29.0</ele><time>2026-04-24T18:23:12.548Z</time></trkpt><trkpt lat="37.7456683" lon="15.1899683"><ele>29.0</ele><time>2026-04-24T18:23:13.548Z</time></trkpt><trkpt lat="37.74572" lon="15.1900833"><ele>29.0</ele><time>2026-04-24T18:23:14.549Z</time></trkpt><trkpt lat="37.7457717" lon="15.1902033"><ele>29.0</ele><time>2026-04-24T18:23:15.548Z</time></trkpt><trkpt lat="37.7458217" lon="15.1903267"><ele>29.0</ele><time>2026-04-24T18:23:16.549Z</time></trkpt><trkpt lat="37.745875" lon="15.1904483"><ele>29.0</ele><time>2026-04-24T18:23:17.549Z</time></trkpt><trkpt lat="37.7459267" lon="15.19057"><ele>29.0</ele><time>2026-04-24T18:23:18.549Z</time></trkpt><trkpt lat="37.7459783" lon="15.1906917"><ele>29.0</ele><time>2026-04-24T18:23:19.548Z</time></trkpt><trkpt lat="37.746025" lon="15.1908117"><ele>29.0</ele><time>2026-04-24T18:23:20.549Z</time></trkpt><trkpt lat="37.7460767" lon="15.1909283"><ele>29.0</ele><time>2026-04-24T18:23:21.548Z</time></trkpt><trkpt lat="37.7461317" lon="15.19106"><ele>29.0</ele><time>2026-04-24T18:23:22.549Z</time></trkpt><trkpt lat="37.746175" lon="15.1911883"><ele>29.0</ele><time>2026-04-24T18:23:23.548Z</time></trkpt><trkpt lat="37.746225" lon="15.1912983"><ele>28.6</ele><time>2026-04-24T18:23:24.548Z</time></trkpt><trkpt lat="37.7462767" lon="15.1914183"><ele>28.2</ele><time>2026-04-24T18:23:25.549Z</time></trkpt><trkpt lat="37.74633" lon="15.1915383"><ele>27.800000000000004</ele><time>2026-04-24T18:23:26.548Z</time></trkpt><trkpt lat="37.7463883" lon="15.19166"><ele>27.400000000000002</ele><time>2026-04-24T18:23:27.549Z</time></trkpt><trkpt lat="37.7464467" lon="15.1917833"><ele>27.0</ele><time>2026-04-24T18:23:28.549Z</time></trkpt><trkpt lat="37.7465017" lon="15.1919067"><ele>26.8</ele><time>2026-04-24T18:23:29.549Z</time></trkpt><trkpt lat="37.7465467" lon="15.1920333"><ele>26.6</ele><time>2026-04-24T18:23:30.548Z</time></trkpt><trkpt lat="37.7466" lon="15.1921567"><ele>26.400000000000002</ele><time>2026-04-24T18:23:31.549Z</time></trkpt><trkpt lat="37.7466467" lon="15.192285"><ele>26.200000000000003</ele><time>2026-04-24T18:23:32.549Z</time></trkpt><trkpt lat="37.7467" lon="15.19241"><ele>26.0</ele><time>2026-04-24T18:23:33.549Z</time></trkpt><trkpt lat="37.7467583" lon="15.192535"><ele>26.0</ele><time>2026-04-24T18:23:34.548Z</time></trkpt><trkpt lat="37.7468333" lon="15.1926433"><ele>26.0</ele><time>2026-04-24T18:23:35.548Z</time></trkpt><trkpt lat="37.7469183" lon="15.19273"><ele>26.0</ele><time>2026-04-24T18:23:36.549Z</time></trkpt><trkpt lat="37.747015" lon="15.1927917"><ele>26.0</ele><time>2026-04-24T18:23:37.549Z</time></trkpt><trkpt lat="37.7471133" lon="15.1928333"><ele>26.0</ele><time>2026-04-24T18:23:38.549Z</time></trkpt><trkpt lat="37.7472133" lon="15.19285"><ele>25.999999999999996</ele><time>2026-04-24T18:23:39.549Z</time></trkpt><trkpt lat="37.7473017" lon="15.1928483"><ele>26.0</ele><time>2026-04-24T18:23:40.549Z</time></trkpt><trkpt lat="37.74738" lon="15.19283"><ele>26.0</ele><time>2026-04-24T18:23:41.548Z</time></trkpt><trkpt lat="37.747445" lon="15.1928"><ele>26.0</ele><time>2026-04-24T18:23:42.549Z</time></trkpt><trkpt lat="37.747515" lon="15.192765"><ele>25.999999999999996</ele><time>2026-04-24T18:23:43.549Z</time></trkpt><trkpt lat="37.747585" lon="15.1927317"><ele>26.0</ele><time>2026-04-24T18:23:44.549Z</time></trkpt><trkpt lat="37.7476467" lon="15.1926967"><ele>25.999999999999996</ele><time>2026-04-24T18:23:45.549Z</time></trkpt><trkpt lat="37.7477067" lon="15.1926567"><ele>26.0</ele><time>2026-04-24T18:23:46.548Z</time></trkpt><trkpt lat="37.7477867" lon="15.1926333"><ele>26.0</ele><time>2026-04-24T18:23:47.548Z</time></trkpt><trkpt lat="37.7478717" lon="15.1926133"><ele>26.0</ele><time>2026-04-24T18:23:48.549Z</time></trkpt><trkpt lat="37.74796" lon="15.1926067"><ele>25.999999999999996</ele><time>2026-04-24T18:23:49.549Z</time></trkpt><trkpt lat="37.7480433" lon="15.19261"><ele>26.0</ele><time>2026-04-24T18:23:50.549Z</time></trkpt><trkpt lat="37.748125" lon="15.1926267"><ele>25.6</ele><time>2026-04-24T18:23:51.549Z</time></trkpt><trkpt lat="37.7481933" lon="15.1926533"><ele>25.200000000000003</ele><time>2026-04-24T18:23:52.548Z</time></trkpt><trkpt lat="37.748255" lon="15.1926717"><ele>24.799999999999997</ele><time>2026-04-24T18:23:53.548Z</time></trkpt><trkpt lat="37.748365" lon="15.1927033"><ele>24.4</ele><time>2026-04-24T18:23:55.549Z</time></trkpt><trkpt lat="37.7484683" lon="15.1927333"><ele>24.0</ele><time>2026-04-24T18:23:57.548Z</time></trkpt><trkpt lat="37.7485817" lon="15.192755"><ele>23.799999999999997</ele><time>2026-04-24T18:23:59.549Z</time></trkpt><trkpt lat="37.74871" lon="15.1927783"><ele>23.599999999999998</ele><time>2026-04-24T18:24:01.548Z</time></trkpt><trkpt lat="37.7488383" lon="15.1928217"><ele>23.4</ele><time>2026-04-24T18:24:03.548Z</time></trkpt><trkpt lat="37.7489083" lon="15.1928517"><ele>23.2</ele><time>2026-04-24T18:24:04.548Z</time></trkpt><trkpt lat="37.74898" lon="15.1928733"><ele>23.0</ele><time>2026-04-24T18:24:05.549Z</time></trkpt><trkpt lat="37.74906" lon="15.1929033"><ele>23.0</ele><time>2026-04-24T18:24:06.549Z</time></trkpt><trkpt lat="37.749145" lon="15.1929467"><ele>23.0</ele><time>2026-04-24T18:24:07.548Z</time></trkpt><trkpt lat="37.7492217" lon="15.1929667"><ele>23.0</ele><time>2026-04-24T18:24:08.548Z</time></trkpt><trkpt lat="37.7492983" lon="15.192995"><ele>23.0</ele><time>2026-04-24T18:24:09.549Z</time></trkpt><trkpt lat="37.7493717" lon="15.1930083"><ele>23.0</ele><time>2026-04-24T18:24:10.549Z</time></trkpt><trkpt lat="37.74945" lon="15.193035"><ele>23.0</ele><time>2026-04-24T18:24:11.548Z</time></trkpt><trkpt lat="37.7495217" lon="15.193055"><ele>23.0</ele><time>2026-04-24T18:24:12.548Z</time></trkpt><trkpt lat="37.749595" lon="15.1930733"><ele>23.0</ele><time>2026-04-24T18:24:13.548Z</time></trkpt><trkpt lat="37.7496667" lon="15.19309"><ele>23.0</ele><time>2026-04-24T18:24:14.549Z</time></trkpt><trkpt lat="37.74974" lon="15.19311"><ele>23.0</ele><time>2026-04-24T18:24:15.548Z</time></trkpt><trkpt lat="37.7498067" lon="15.1931283"><ele>23.0</ele><time>2026-04-24T18:24:16.548Z</time></trkpt><trkpt lat="37.7499383" lon="15.1931667"><ele>23.0</ele><time>2026-04-24T18:24:18.548Z</time></trkpt><trkpt lat="37.750015" lon="15.1931883"><ele>22.833333333333336</ele><time>2026-04-24T18:24:19.548Z</time></trkpt><trkpt lat="37.7500917" lon="15.1932067"><ele>22.666666666666668</ele><time>2026-04-24T18:24:20.549Z</time></trkpt><trkpt lat="37.7501617" lon="15.1932233"><ele>22.5</ele><time>2026-04-24T18:24:21.549Z</time></trkpt><trkpt lat="37.7502283" lon="15.1932383"><ele>22.333333333333332</ele><time>2026-04-24T18:24:22.548Z</time></trkpt><trkpt lat="37.7502917" lon="15.193255"><ele>22.166666666666664</ele><time>2026-04-24T18:24:23.549Z</time></trkpt><trkpt lat="37.750355" lon="15.1932783"><ele>22.0</ele><time>2026-04-24T18:24:24.549Z</time></trkpt><trkpt lat="37.7504767" lon="15.1933267"><ele>21.6</ele><time>2026-04-24T18:24:26.548Z</time></trkpt><trkpt lat="37.7505917" lon="15.1933717"><ele>21.200000000000003</ele><time>2026-04-24T18:24:28.549Z</time></trkpt><trkpt lat="37.75068" lon="15.193395"><ele>20.8</ele><time>2026-04-24T18:24:30.549Z</time></trkpt><trkpt lat="37.7507583" lon="15.1934133"><ele>20.4</ele><time>2026-04-24T18:24:33.548Z</time></trkpt><trkpt lat="37.7508283" lon="15.193435"><ele>20.0</ele><time>2026-04-24T18:24:35.549Z</time></trkpt><trkpt lat="37.75092" lon="15.1934767"><ele>20.0</ele><time>2026-04-24T18:24:37.549Z</time></trkpt><trkpt lat="37.7510233" lon="15.19352"><ele>20.0</ele><time>2026-04-24T18:24:39.55Z</time></trkpt><trkpt lat="37.7511183" lon="15.193545"><ele>20.0</ele><time>2026-04-24T18:24:41.55Z</time></trkpt><trkpt lat="37.7512267" lon="15.1935817"><ele>20.0</ele><time>2026-04-24T18:24:43.549Z</time></trkpt><trkpt lat="37.7513167" lon="15.19363"><ele>20.0</ele><time>2026-04-24T18:24:45.55Z</time></trkpt><trkpt lat="37.7514017" lon="15.19369"><ele>20.0</ele><time>2026-04-24T18:24:47.55Z</time></trkpt><trkpt lat="37.7514733" lon="15.1937317"><ele>20.0</ele><time>2026-04-24T18:24:49.55Z</time></trkpt><trkpt lat="37.75154" lon="15.1937817"><ele>20.0</ele><time>2026-04-24T18:24:51.55Z</time></trkpt><trkpt lat="37.7516417" lon="15.19383"><ele>20.0</ele><time>2026-04-24T18:24:53.549Z</time></trkpt><trkpt lat="37.7517017" lon="15.1938633"><ele>20.0</ele><time>2026-04-24T18:24:54.55Z</time></trkpt><trkpt lat="37.7518183" lon="15.1939433"><ele>20.2</ele><time>2026-04-24T18:24:56.55Z</time></trkpt><trkpt lat="37.7518883" lon="15.19399"><ele>20.4</ele><time>2026-04-24T18:24:57.55Z</time></trkpt><trkpt lat="37.7519717" lon="15.1940417"><ele>20.6</ele><time>2026-04-24T18:24:58.55Z</time></trkpt><trkpt lat="37.752055" lon="15.1940933"><ele>20.8</ele><time>2026-04-24T18:24:59.55Z</time></trkpt><trkpt lat="37.752145" lon="15.1941567"><ele>21.0</ele><time>2026-04-24T18:25:00.549Z</time></trkpt><trkpt lat="37.752225" lon="15.1942183"><ele>21.0</ele><time>2026-04-24T18:25:01.549Z</time></trkpt><trkpt lat="37.7523" lon="15.19427"><ele>21.0</ele><time>2026-04-24T18:25:02.549Z</time></trkpt><trkpt lat="37.752375" lon="15.1943083"><ele>21.0</ele><time>2026-04-24T18:25:03.549Z</time></trkpt><trkpt lat="37.752445" lon="15.19434"><ele>21.0</ele><time>2026-04-24T18:25:04.549Z</time></trkpt><trkpt lat="37.7525333" lon="15.194415"><ele>21.0</ele><time>2026-04-24T18:25:06.549Z</time></trkpt><trkpt lat="37.75258" lon="15.1944933"><ele>21.0</ele><time>2026-04-24T18:25:08.549Z</time></trkpt><trkpt lat="37.7526267" lon="15.1945567"><ele>21.0</ele><time>2026-04-24T18:25:11.549Z</time></trkpt><trkpt lat="37.7527017" lon="15.1946217"><ele>21.0</ele><time>2026-04-24T18:27:17.549Z</time></trkpt><trkpt lat="37.7527733" lon="15.1946567"><ele>21.0</ele><time>2026-04-24T18:27:48.549Z</time></trkpt><trkpt lat="37.7528317" lon="15.1946933"><ele>21.0</ele><time>2026-04-24T18:27:50.55Z</time></trkpt><trkpt lat="37.7529083" lon="15.1946867"><ele>21.0</ele><time>2026-04-24T18:27:56.55Z</time></trkpt><trkpt lat="37.753005" lon="15.1947367"><ele>21.0</ele><time>2026-04-24T18:27:58.549Z</time></trkpt><trkpt lat="37.7530733" lon="15.194775"><ele>20.833333333333332</ele><time>2026-04-24T18:27:59.55Z</time></trkpt><trkpt lat="37.7531533" lon="15.19481"><ele>20.666666666666668</ele><time>2026-04-24T18:28:00.549Z</time></trkpt><trkpt lat="37.75323" lon="15.1948433"><ele>20.5</ele><time>2026-04-24T18:28:01.549Z</time></trkpt><trkpt lat="37.7532967" lon="15.1948833"><ele>20.333333333333336</ele><time>2026-04-24T18:28:02.55Z</time></trkpt><trkpt lat="37.7533583" lon="15.1949217"><ele>20.166666666666668</ele><time>2026-04-24T18:28:03.549Z</time></trkpt><trkpt lat="37.7534217" lon="15.1949433"><ele>20.0</ele><time>2026-04-24T18:28:04.549Z</time></trkpt><trkpt lat="37.7535283" lon="15.1949917"><ele>19.75</ele><time>2026-04-24T18:28:06.55Z</time></trkpt><trkpt lat="37.753605" lon="15.1950367"><ele>19.5</ele><time>2026-04-24T18:28:08.55Z</time></trkpt><trkpt lat="37.7536767" lon="15.1950733"><ele>19.25</ele><time>2026-04-24T18:28:10.55Z</time></trkpt><trkpt lat="37.753735" lon="15.1951167"><ele>19.0</ele><time>2026-04-24T18:28:12.549Z</time></trkpt><trkpt lat="37.7539567" lon="15.19526"><ele>19.0</ele><time>2026-04-24T18:28:24.549Z</time></trkpt><trkpt lat="37.754045" lon="15.1952917"><ele>19.0</ele><time>2026-04-24T18:28:26.55Z</time></trkpt><trkpt lat="37.75415" lon="15.1953267"><ele>19.0</ele><time>2026-04-24T18:28:28.55Z</time></trkpt><trkpt lat="37.7542617" lon="15.19536"><ele>19.0</ele><time>2026-04-24T18:28:30.549Z</time></trkpt><trkpt lat="37.754365" lon="15.1953967"><ele>19.0</ele><time>2026-04-24T18:28:32.549Z</time></trkpt><trkpt lat="37.75448" lon="15.1954433"><ele>19.4</ele><time>2026-04-24T18:28:34.549Z</time></trkpt><trkpt lat="37.75455" lon="15.1954767"><ele>19.799999999999997</ele><time>2026-04-24T18:28:35.549Z</time></trkpt><trkpt lat="37.75462" lon="15.1955"><ele>20.200000000000003</ele><time>2026-04-24T18:28:36.549Z</time></trkpt><trkpt lat="37.75468" lon="15.1955267"><ele>20.6</ele><time>2026-04-24T18:28:37.55Z</time></trkpt><trkpt lat="37.754785" lon="15.1955933"><ele>21.0</ele><time>2026-04-24T18:28:39.549Z</time></trkpt><trkpt lat="37.754915" lon="15.195655"><ele>20.833333333333332</ele><time>2026-04-24T18:28:41.55Z</time></trkpt><trkpt lat="37.7549867" lon="15.1956883"><ele>20.666666666666668</ele><time>2026-04-24T18:28:42.549Z</time></trkpt><trkpt lat="37.7550617" lon="15.1957267"><ele>20.5</ele><time>2026-04-24T18:28:43.55Z</time></trkpt><trkpt lat="37.7551383" lon="15.195765"><ele>20.333333333333336</ele><time>2026-04-24T18:28:44.55Z</time></trkpt><trkpt lat="37.7552133" lon="15.1958067"><ele>20.166666666666668</ele><time>2026-04-24T18:28:45.549Z</time></trkpt><trkpt lat="37.75529" lon="15.19584"><ele>20.0</ele><time>2026-04-24T18:28:46.55Z</time></trkpt><trkpt lat="37.7553583" lon="15.1958733"><ele>20.0</ele><time>2026-04-24T18:28:47.549Z</time></trkpt><trkpt lat="37.7554317" lon="15.1959033"><ele>20.0</ele><time>2026-04-24T18:28:48.55Z</time></trkpt><trkpt lat="37.755495" lon="15.1959233"><ele>20.0</ele><time>2026-04-24T18:28:49.55Z</time></trkpt><trkpt lat="37.7555567" lon="15.1959467"><ele>20.0</ele><time>2026-04-24T18:28:50.55Z</time></trkpt><trkpt lat="37.7556667" lon="15.1960033"><ele>20.0</ele><time>2026-04-24T18:28:52.55Z</time></trkpt><trkpt lat="37.7557733" lon="15.1960583"><ele>20.0</ele><time>2026-04-24T18:28:54.55Z</time></trkpt><trkpt lat="37.755835" lon="15.1960833"><ele>20.0</ele><time>2026-04-24T18:28:55.55Z</time></trkpt><trkpt lat="37.7558983" lon="15.1961133"><ele>20.0</ele><time>2026-04-24T18:28:56.549Z</time></trkpt><trkpt lat="37.7559617" lon="15.196135"><ele>20.0</ele><time>2026-04-24T18:28:57.55Z</time></trkpt><trkpt lat="37.7560267" lon="15.1961617"><ele>20.0</ele><time>2026-04-24T18:28:58.549Z</time></trkpt><trkpt lat="37.75609" lon="15.1961917"><ele>20.0</ele><time>2026-04-24T18:28:59.55Z</time></trkpt><trkpt lat="37.756155" lon="15.196225"><ele>20.0</ele><time>2026-04-24T18:29:00.55Z</time></trkpt><trkpt lat="37.75622" lon="15.196255"><ele>20.0</ele><time>2026-04-24T18:29:01.55Z</time></trkpt><trkpt lat="37.75628" lon="15.1962817"><ele>20.8</ele><time>2026-04-24T18:29:02.549Z</time></trkpt><trkpt lat="37.75634" lon="15.1963183"><ele>21.6</ele><time>2026-04-24T18:29:03.55Z</time></trkpt><trkpt lat="37.756455" lon="15.1963833"><ele>22.4</ele><time>2026-04-24T18:29:05.55Z</time></trkpt><trkpt lat="37.7565667" lon="15.1964383"><ele>23.2</ele><time>2026-04-24T18:29:07.55Z</time></trkpt><trkpt lat="37.756635" lon="15.1964633"><ele>24.0</ele><time>2026-04-24T18:29:08.55Z</time></trkpt><trkpt lat="37.756705" lon="15.1964867"><ele>23.833333333333332</ele><time>2026-04-24T18:29:09.549Z</time></trkpt><trkpt lat="37.756775" lon="15.1965067"><ele>23.666666666666668</ele><time>2026-04-24T18:29:10.549Z</time></trkpt><trkpt lat="37.7568383" lon="15.1965267"><ele>23.5</ele><time>2026-04-24T18:29:11.55Z</time></trkpt><trkpt lat="37.7569017" lon="15.196555"><ele>23.333333333333336</ele><time>2026-04-24T18:29:12.549Z</time></trkpt><trkpt lat="37.7570283" lon="15.1965817"><ele>23.166666666666668</ele><time>2026-04-24T18:29:14.549Z</time></trkpt><trkpt lat="37.75714" lon="15.196575"><ele>23.0</ele><time>2026-04-24T18:29:16.55Z</time></trkpt><trkpt lat="37.7572583" lon="15.1965667"><ele>23.599999999999998</ele><time>2026-04-24T18:29:18.55Z</time></trkpt><trkpt lat="37.7573333" lon="15.196565"><ele>24.2</ele><time>2026-04-24T18:29:19.549Z</time></trkpt><trkpt lat="37.7574167" lon="15.1965667"><ele>24.8</ele><time>2026-04-24T18:29:20.55Z</time></trkpt><trkpt lat="37.7575133" lon="15.196575"><ele>25.4</ele><time>2026-04-24T18:29:21.55Z</time></trkpt><trkpt lat="37.7576183" lon="15.1965833"><ele>26.0</ele><time>2026-04-24T18:29:22.55Z</time></trkpt><trkpt lat="37.7577383" lon="15.1965817"><ele>26.5</ele><time>2026-04-24T18:29:23.55Z</time></trkpt><trkpt lat="37.757865" lon="15.1965817"><ele>27.0</ele><time>2026-04-24T18:29:24.549Z</time></trkpt><trkpt lat="37.7579833" lon="15.1965817"><ele>27.5</ele><time>2026-04-24T18:29:25.549Z</time></trkpt><trkpt lat="37.7580933" lon="15.1965833"><ele>28.0</ele><time>2026-04-24T18:29:26.549Z</time></trkpt><trkpt lat="37.7582" lon="15.196575"><ele>28.0</ele><time>2026-04-24T18:29:27.549Z</time></trkpt><trkpt lat="37.75831" lon="15.196585"><ele>27.999999999999996</ele><time>2026-04-24T18:29:28.55Z</time></trkpt><trkpt lat="37.7584133" lon="15.1965933"><ele>27.999999999999996</ele><time>2026-04-24T18:29:29.549Z</time></trkpt><trkpt lat="37.758515" lon="15.1966167"><ele>28.0</ele><time>2026-04-24T18:29:30.549Z</time></trkpt><trkpt lat="37.7586167" lon="15.19663"><ele>28.0</ele><time>2026-04-24T18:29:31.55Z</time></trkpt><trkpt lat="37.7587333" lon="15.1966383"><ele>27.75</ele><time>2026-04-24T18:29:32.55Z</time></trkpt><trkpt lat="37.75886" lon="15.1966267"><ele>27.5</ele><time>2026-04-24T18:29:33.549Z</time></trkpt><trkpt lat="37.7589833" lon="15.196615"><ele>27.25</ele><time>2026-04-24T18:29:34.55Z</time></trkpt><trkpt lat="37.7591083" lon="15.19659"><ele>27.0</ele><time>2026-04-24T18:29:35.549Z</time></trkpt><trkpt lat="37.7592267" lon="15.19656"><ele>27.0</ele><time>2026-04-24T18:29:36.55Z</time></trkpt><trkpt lat="37.7593467" lon="15.196525"><ele>27.0</ele><time>2026-04-24T18:29:37.55Z</time></trkpt><trkpt lat="37.7594617" lon="15.1964833"><ele>27.0</ele><time>2026-04-24T18:29:38.55Z</time></trkpt><trkpt lat="37.7595767" lon="15.1964367"><ele>27.0</ele><time>2026-04-24T18:29:39.55Z</time></trkpt><trkpt lat="37.7596983" lon="15.19639"><ele>28.75</ele><time>2026-04-24T18:29:40.549Z</time></trkpt><trkpt lat="37.7598133" lon="15.1963367"><ele>30.5</ele><time>2026-04-24T18:29:41.549Z</time></trkpt><trkpt lat="37.7599233" lon="15.196265"><ele>32.25</ele><time>2026-04-24T18:29:42.55Z</time></trkpt><trkpt lat="37.76004" lon="15.1962067"><ele>34.0</ele><time>2026-04-24T18:29:43.549Z</time></trkpt><trkpt lat="37.76015" lon="15.196155"><ele>34.5</ele><time>2026-04-24T18:29:44.549Z</time></trkpt><trkpt lat="37.760275" lon="15.1961067"><ele>35.0</ele><time>2026-04-24T18:29:45.55Z</time></trkpt><trkpt lat="37.7603983" lon="15.19606"><ele>35.5</ele><time>2026-04-24T18:29:46.55Z</time></trkpt><trkpt lat="37.76052" lon="15.19602"><ele>36.0</ele><time>2026-04-24T18:29:47.55Z</time></trkpt><trkpt lat="37.7606433" lon="15.1959717"><ele>36.0</ele><time>2026-04-24T18:29:48.55Z</time></trkpt><trkpt lat="37.7607683" lon="15.1959283"><ele>36.0</ele><time>2026-04-24T18:29:49.549Z</time></trkpt><trkpt lat="37.760895" lon="15.19589"><ele>36.0</ele><time>2026-04-24T18:29:50.549Z</time></trkpt><trkpt lat="37.761025" lon="15.1958467"><ele>36.0</ele><time>2026-04-24T18:29:51.55Z</time></trkpt><trkpt lat="37.7611517" lon="15.19581"><ele>36.5</ele><time>2026-04-24T18:29:52.549Z</time></trkpt><trkpt lat="37.7612767" lon="15.195775"><ele>37.0</ele><time>2026-04-24T18:29:53.549Z</time></trkpt><trkpt lat="37.7613967" lon="15.19574"><ele>37.5</ele><time>2026-04-24T18:29:54.549Z</time></trkpt><trkpt lat="37.761525" lon="15.1957083"><ele>38.0</ele><time>2026-04-24T18:29:55.55Z</time></trkpt><trkpt lat="37.7616467" lon="15.1956717"><ele>38.0</ele><time>2026-04-24T18:29:56.55Z</time></trkpt><trkpt lat="37.7617717" lon="15.195645"><ele>38.0</ele><time>2026-04-24T18:29:57.55Z</time></trkpt><trkpt lat="37.761895" lon="15.1956167"><ele>38.0</ele><time>2026-04-24T18:29:58.55Z</time></trkpt><trkpt lat="37.7620183" lon="15.1955883"><ele>38.0</ele><time>2026-04-24T18:29:59.55Z</time></trkpt><trkpt lat="37.7621367" lon="15.195565"><ele>39.0</ele><time>2026-04-24T18:30:00.549Z</time></trkpt><trkpt lat="37.76225" lon="15.1955333"><ele>40.0</ele><time>2026-04-24T18:30:01.549Z</time></trkpt><trkpt lat="37.7623633" lon="15.195505"><ele>41.0</ele><time>2026-04-24T18:30:02.55Z</time></trkpt><trkpt lat="37.762485" lon="15.195465"><ele>42.0</ele><time>2026-04-24T18:30:03.549Z</time></trkpt><trkpt lat="37.762605" lon="15.19541"><ele>42.0</ele><time>2026-04-24T18:30:04.549Z</time></trkpt><trkpt lat="37.762725" lon="15.1953417"><ele>42.0</ele><time>2026-04-24T18:30:05.55Z</time></trkpt><trkpt lat="37.762845" lon="15.19527"><ele>42.0</ele><time>2026-04-24T18:30:06.55Z</time></trkpt><trkpt lat="37.762965" lon="15.1951883"><ele>42.0</ele><time>2026-04-24T18:30:07.55Z</time></trkpt><trkpt lat="37.763085" lon="15.1951017"><ele>42.0</ele><time>2026-04-24T18:30:08.55Z</time></trkpt><trkpt lat="37.7632017" lon="15.1950167"><ele>42.0</ele><time>2026-04-24T18:30:09.55Z</time></trkpt><trkpt lat="37.7633183" lon="15.194935"><ele>42.0</ele><time>2026-04-24T18:30:10.549Z</time></trkpt><trkpt lat="37.763435" lon="15.194855"><ele>42.0</ele><time>2026-04-24T18:30:11.549Z</time></trkpt><trkpt lat="37.7635517" lon="15.1947867"><ele>42.5</ele><time>2026-04-24T18:30:12.549Z</time></trkpt><trkpt lat="37.76367" lon="15.1947233"><ele>43.0</ele><time>2026-04-24T18:30:13.549Z</time></trkpt><trkpt lat="37.7637867" lon="15.1946683"><ele>43.5</ele><time>2026-04-24T18:30:14.55Z</time></trkpt><trkpt lat="37.7639117" lon="15.1946267"><ele>44.0</ele><time>2026-04-24T18:30:15.549Z</time></trkpt><trkpt lat="37.76403" lon="15.1945983"><ele>44.0</ele><time>2026-04-24T18:30:16.55Z</time></trkpt><trkpt lat="37.76414" lon="15.19458"><ele>44.0</ele><time>2026-04-24T18:30:17.55Z</time></trkpt><trkpt lat="37.76425" lon="15.194565"><ele>44.0</ele><time>2026-04-24T18:30:18.55Z</time></trkpt><trkpt lat="37.7643567" lon="15.1945617"><ele>44.0</ele><time>2026-04-24T18:30:19.55Z</time></trkpt><trkpt lat="37.7644583" lon="15.1945633"><ele>44.0</ele><time>2026-04-24T18:30:20.55Z</time></trkpt><trkpt lat="37.7645633" lon="15.1945617"><ele>44.5</ele><time>2026-04-24T18:30:21.55Z</time></trkpt><trkpt lat="37.76467" lon="15.19457"><ele>45.0</ele><time>2026-04-24T18:30:22.55Z</time></trkpt><trkpt lat="37.764785" lon="15.194565"><ele>45.5</ele><time>2026-04-24T18:30:23.55Z</time></trkpt><trkpt lat="37.7649017" lon="15.194565"><ele>46.0</ele><time>2026-04-24T18:30:24.55Z</time></trkpt><trkpt lat="37.765015" lon="15.1945617"><ele>46.0</ele><time>2026-04-24T18:30:25.549Z</time></trkpt><trkpt lat="37.7651183" lon="15.1945633"><ele>46.0</ele><time>2026-04-24T18:30:26.549Z</time></trkpt><trkpt lat="37.7652283" lon="15.1945633"><ele>46.0</ele><time>2026-04-24T18:30:27.549Z</time></trkpt><trkpt lat="37.7653317" lon="15.1945683"><ele>46.0</ele><time>2026-04-24T18:30:28.55Z</time></trkpt><trkpt lat="37.7654367" lon="15.1945833"><ele>46.0</ele><time>2026-04-24T18:30:29.55Z</time></trkpt><trkpt lat="37.7655383" lon="15.1946117"><ele>46.0</ele><time>2026-04-24T18:30:30.549Z</time></trkpt><trkpt lat="37.7656433" lon="15.1946517"><ele>46.0</ele><time>2026-04-24T18:30:31.549Z</time></trkpt><trkpt lat="37.7657433" lon="15.1947017"><ele>46.0</ele><time>2026-04-24T18:30:32.549Z</time></trkpt><trkpt lat="37.7658333" lon="15.1947567"><ele>46.0</ele><time>2026-04-24T18:30:33.55Z</time></trkpt><trkpt lat="37.7659233" lon="15.1948133"><ele>46.0</ele><time>2026-04-24T18:30:34.55Z</time></trkpt><trkpt lat="37.7660167" lon="15.1948683"><ele>47.199999999999996</ele><time>2026-04-24T18:30:35.55Z</time></trkpt><trkpt lat="37.7661083" lon="15.1949217"><ele>48.4</ele><time>2026-04-24T18:30:36.55Z</time></trkpt><trkpt lat="37.7661917" lon="15.194975"><ele>49.6</ele><time>2026-04-24T18:30:37.55Z</time></trkpt><trkpt lat="37.7662817" lon="15.1950233"><ele>50.8</ele><time>2026-04-24T18:30:38.55Z</time></trkpt><trkpt lat="37.76637" lon="15.195075"><ele>52.0</ele><time>2026-04-24T18:30:39.55Z</time></trkpt><trkpt lat="37.7664567" lon="15.1951283"><ele>52.0</ele><time>2026-04-24T18:30:40.549Z</time></trkpt><trkpt lat="37.7665417" lon="15.1951867"><ele>52.0</ele><time>2026-04-24T18:30:41.55Z</time></trkpt><trkpt lat="37.7666267" lon="15.1952433"><ele>52.0</ele><time>2026-04-24T18:30:42.549Z</time></trkpt><trkpt lat="37.766715" lon="15.1952983"><ele>52.0</ele><time>2026-04-24T18:30:43.55Z</time></trkpt><trkpt lat="37.7668133" lon="15.1953517"><ele>52.0</ele><time>2026-04-24T18:30:44.55Z</time></trkpt><trkpt lat="37.766905" lon="15.19541"><ele>51.6</ele><time>2026-04-24T18:30:45.55Z</time></trkpt><trkpt lat="37.767" lon="15.1954683"><ele>51.2</ele><time>2026-04-24T18:30:46.549Z</time></trkpt><trkpt lat="37.767095" lon="15.195525"><ele>50.8</ele><time>2026-04-24T18:30:47.549Z</time></trkpt><trkpt lat="37.7671917" lon="15.195585"><ele>50.4</ele><time>2026-04-24T18:30:48.55Z</time></trkpt><trkpt lat="37.7672917" lon="15.1956533"><ele>50.0</ele><time>2026-04-24T18:30:49.55Z</time></trkpt><trkpt lat="37.7673933" lon="15.195725"><ele>50.0</ele><time>2026-04-24T18:30:50.55Z</time></trkpt><trkpt lat="37.7675033" lon="15.1958017"><ele>50.0</ele><time>2026-04-24T18:30:51.55Z</time></trkpt><trkpt lat="37.7676183" lon="15.19588"><ele>50.0</ele><time>2026-04-24T18:30:52.549Z</time></trkpt><trkpt lat="37.7677333" lon="15.195965"><ele>50.0</ele><time>2026-04-24T18:30:53.55Z</time></trkpt><trkpt lat="37.76785" lon="15.19605"><ele>51.0</ele><time>2026-04-24T18:30:54.55Z</time></trkpt><trkpt lat="37.7679667" lon="15.1961333"><ele>52.0</ele><time>2026-04-24T18:30:55.549Z</time></trkpt><trkpt lat="37.768085" lon="15.1962167"><ele>53.0</ele><time>2026-04-24T18:30:56.55Z</time></trkpt><trkpt lat="37.7681967" lon="15.196305"><ele>54.0</ele><time>2026-04-24T18:30:57.549Z</time></trkpt><trkpt lat="37.7683083" lon="15.1963883"><ele>54.0</ele><time>2026-04-24T18:30:58.55Z</time></trkpt><trkpt lat="37.768425" lon="15.1964717"><ele>54.0</ele><time>2026-04-24T18:30:59.549Z</time></trkpt><trkpt lat="37.7685433" lon="15.1965567"><ele>54.0</ele><time>2026-04-24T18:31:00.549Z</time></trkpt><trkpt lat="37.7686567" lon="15.1966417"><ele>54.0</ele><time>2026-04-24T18:31:01.55Z</time></trkpt><trkpt lat="37.768775" lon="15.1967283"><ele>53.5</ele><time>2026-04-24T18:31:02.549Z</time></trkpt><trkpt lat="37.7688983" lon="15.196815"><ele>53.0</ele><time>2026-04-24T18:31:03.55Z</time></trkpt><trkpt lat="37.7690133" lon="15.1969033"><ele>52.5</ele><time>2026-04-24T18:31:04.549Z</time></trkpt><trkpt lat="37.769135" lon="15.1969983"><ele>52.0</ele><time>2026-04-24T18:31:05.55Z</time></trkpt><trkpt lat="37.7692583" lon="15.1970967"><ele>52.0</ele><time>2026-04-24T18:31:06.549Z</time></trkpt><trkpt lat="37.7693867" lon="15.1971933"><ele>52.0</ele><time>2026-04-24T18:31:07.55Z</time></trkpt><trkpt lat="37.7695117" lon="15.19729"><ele>52.0</ele><time>2026-04-24T18:31:08.549Z</time></trkpt><trkpt lat="37.7696367" lon="15.1973783"><ele>52.0</ele><time>2026-04-24T18:31:09.55Z</time></trkpt><trkpt lat="37.7697617" lon="15.19747"><ele>51.5</ele><time>2026-04-24T18:31:10.55Z</time></trkpt><trkpt lat="37.769885" lon="15.197565"><ele>51.0</ele><time>2026-04-24T18:31:11.549Z</time></trkpt><trkpt lat="37.7700117" lon="15.1976617"><ele>50.5</ele><time>2026-04-24T18:31:12.549Z</time></trkpt><trkpt lat="37.7701383" lon="15.1977583"><ele>50.0</ele><time>2026-04-24T18:31:13.549Z</time></trkpt><trkpt lat="37.7702617" lon="15.197855"><ele>50.0</ele><time>2026-04-24T18:31:14.55Z</time></trkpt><trkpt lat="37.770385" lon="15.1979517"><ele>50.0</ele><time>2026-04-24T18:31:15.55Z</time></trkpt><trkpt lat="37.7705083" lon="15.1980483"><ele>50.0</ele><time>2026-04-24T18:31:16.549Z</time></trkpt><trkpt lat="37.7706283" lon="15.19814"><ele>50.0</ele><time>2026-04-24T18:31:17.55Z</time></trkpt><trkpt lat="37.770745" lon="15.198225"><ele>49.75</ele><time>2026-04-24T18:31:18.55Z</time></trkpt><trkpt lat="37.7708633" lon="15.198315"><ele>49.5</ele><time>2026-04-24T18:31:19.549Z</time></trkpt><trkpt lat="37.770985" lon="15.1984033"><ele>49.25</ele><time>2026-04-24T18:31:20.55Z</time></trkpt><trkpt lat="37.7711067" lon="15.1984967"><ele>49.0</ele><time>2026-04-24T18:31:21.55Z</time></trkpt><trkpt lat="37.77123" lon="15.19859"><ele>48.75</ele><time>2026-04-24T18:31:22.549Z</time></trkpt><trkpt lat="37.771355" lon="15.1986833"><ele>48.5</ele><time>2026-04-24T18:31:23.549Z</time></trkpt><trkpt lat="37.7714817" lon="15.19877"><ele>48.25</ele><time>2026-04-24T18:31:24.549Z</time></trkpt><trkpt lat="37.7716033" lon="15.198855"><ele>48.0</ele><time>2026-04-24T18:31:25.55Z</time></trkpt><trkpt lat="37.771725" lon="15.1989367"><ele>48.75</ele><time>2026-04-24T18:31:26.55Z</time></trkpt><trkpt lat="37.7718467" lon="15.1990183"><ele>49.5</ele><time>2026-04-24T18:31:27.549Z</time></trkpt><trkpt lat="37.7719683" lon="15.1990933"><ele>50.25</ele><time>2026-04-24T18:31:28.55Z</time></trkpt><trkpt lat="37.772085" lon="15.1991633"><ele>51.0</ele><time>2026-04-24T18:31:29.55Z</time></trkpt><trkpt lat="37.7721983" lon="15.199235"><ele>51.75</ele><time>2026-04-24T18:31:30.55Z</time></trkpt><trkpt lat="37.7723183" lon="15.1993083"><ele>52.5</ele><time>2026-04-24T18:31:31.549Z</time></trkpt><trkpt lat="37.77244" lon="15.1993867"><ele>53.25</ele><time>2026-04-24T18:31:32.55Z</time></trkpt><trkpt lat="37.77256" lon="15.19947"><ele>54.0</ele><time>2026-04-24T18:31:33.55Z</time></trkpt><trkpt lat="37.7726833" lon="15.1995467"><ele>54.0</ele><time>2026-04-24T18:31:34.55Z</time></trkpt><trkpt lat="37.772805" lon="15.1996283"><ele>54.0</ele><time>2026-04-24T18:31:35.55Z</time></trkpt><trkpt lat="37.7729333" lon="15.1997117"><ele>54.0</ele><time>2026-04-24T18:31:36.55Z</time></trkpt><trkpt lat="37.7730567" lon="15.1997917"><ele>54.0</ele><time>2026-04-24T18:31:37.55Z</time></trkpt><trkpt lat="37.77318" lon="15.199875"><ele>53.75</ele><time>2026-04-24T18:31:38.55Z</time></trkpt><trkpt lat="37.7733083" lon="15.1999567"><ele>53.5</ele><time>2026-04-24T18:31:39.55Z</time></trkpt><trkpt lat="37.7734317" lon="15.2000433"><ele>53.25</ele><time>2026-04-24T18:31:40.55Z</time></trkpt><trkpt lat="37.7735617" lon="15.2001233"><ele>53.0</ele><time>2026-04-24T18:31:41.55Z</time></trkpt><trkpt lat="37.77369" lon="15.2002067"><ele>53.5</ele><time>2026-04-24T18:31:42.55Z</time></trkpt><trkpt lat="37.7738133" lon="15.200295"><ele>54.0</ele><time>2026-04-24T18:31:43.549Z</time></trkpt><trkpt lat="37.7739333" lon="15.2003783"><ele>54.5</ele><time>2026-04-24T18:31:44.55Z</time></trkpt><trkpt lat="37.77405" lon="15.2004583"><ele>55.0</ele><time>2026-04-24T18:31:45.549Z</time></trkpt><trkpt lat="37.7741683" lon="15.2005367"><ele>55.0</ele><time>2026-04-24T18:31:46.55Z</time></trkpt><trkpt lat="37.774285" lon="15.2006133"><ele>55.0</ele><time>2026-04-24T18:31:47.549Z</time></trkpt><trkpt lat="37.7744067" lon="15.2006867"><ele>55.0</ele><time>2026-04-24T18:31:48.549Z</time></trkpt><trkpt lat="37.7745267" lon="15.2007517"><ele>55.0</ele><time>2026-04-24T18:31:49.549Z</time></trkpt><trkpt lat="37.7746467" lon="15.20081"><ele>55.0</ele><time>2026-04-24T18:31:50.549Z</time></trkpt><trkpt lat="37.7747667" lon="15.20087"><ele>55.0</ele><time>2026-04-24T18:31:51.549Z</time></trkpt><trkpt lat="37.7748933" lon="15.2009267"><ele>55.0</ele><time>2026-04-24T18:31:52.549Z</time></trkpt><trkpt lat="37.775025" lon="15.2009817"><ele>55.0</ele><time>2026-04-24T18:31:53.549Z</time></trkpt><trkpt lat="37.7751567" lon="15.2010333"><ele>55.75</ele><time>2026-04-24T18:31:54.549Z</time></trkpt><trkpt lat="37.7752833" lon="15.20108"><ele>56.5</ele><time>2026-04-24T18:31:55.549Z</time></trkpt><trkpt lat="37.7754117" lon="15.201115"><ele>57.25</ele><time>2026-04-24T18:31:56.549Z</time></trkpt><trkpt lat="37.7755367" lon="15.2011467"><ele>58.0</ele><time>2026-04-24T18:31:57.549Z</time></trkpt><trkpt lat="37.7756633" lon="15.2011733"><ele>58.0</ele><time>2026-04-24T18:31:58.549Z</time></trkpt><trkpt lat="37.7757983" lon="15.20119"><ele>58.0</ele><time>2026-04-24T18:31:59.549Z</time></trkpt><trkpt lat="37.775935" lon="15.201205"><ele>58.0</ele><time>2026-04-24T18:32:00.55Z</time></trkpt><trkpt lat="37.776075" lon="15.201215"><ele>58.0</ele><time>2026-04-24T18:32:01.549Z</time></trkpt><trkpt lat="37.77622" lon="15.20122"><ele>58.0</ele><time>2026-04-24T18:32:02.55Z</time></trkpt><trkpt lat="37.77637" lon="15.2012167"><ele>58.0</ele><time>2026-04-24T18:32:03.55Z</time></trkpt><trkpt lat="37.7765217" lon="15.2012133"><ele>58.0</ele><time>2026-04-24T18:32:04.549Z</time></trkpt><trkpt lat="37.7766767" lon="15.2012083"><ele>58.0</ele><time>2026-04-24T18:32:05.55Z</time></trkpt><trkpt lat="37.7768317" lon="15.2012017"><ele>58.0</ele><time>2026-04-24T18:32:06.549Z</time></trkpt><trkpt lat="37.77699" lon="15.201195"><ele>58.0</ele><time>2026-04-24T18:32:07.55Z</time></trkpt><trkpt lat="37.7771433" lon="15.2011817"><ele>58.5</ele><time>2026-04-24T18:32:08.55Z</time></trkpt><trkpt lat="37.7772983" lon="15.2011717"><ele>59.0</ele><time>2026-04-24T18:32:09.55Z</time></trkpt><trkpt lat="37.7774433" lon="15.201155"><ele>59.5</ele><time>2026-04-24T18:32:10.55Z</time></trkpt><trkpt lat="37.7775883" lon="15.2011483"><ele>60.0</ele><time>2026-04-24T18:32:11.55Z</time></trkpt><trkpt lat="37.77773" lon="15.201135"><ele>60.25</ele><time>2026-04-24T18:32:12.55Z</time></trkpt><trkpt lat="37.7778617" lon="15.201135"><ele>60.5</ele><time>2026-04-24T18:32:13.55Z</time></trkpt><trkpt lat="37.7779983" lon="15.20114"><ele>60.75</ele><time>2026-04-24T18:32:14.55Z</time></trkpt><trkpt lat="37.778135" lon="15.2011483"><ele>61.0</ele><time>2026-04-24T18:32:15.549Z</time></trkpt><trkpt lat="37.7782583" lon="15.2011717"><ele>61.0</ele><time>2026-04-24T18:32:16.549Z</time></trkpt><trkpt lat="37.7783817" lon="15.2012067"><ele>61.0</ele><time>2026-04-24T18:32:17.549Z</time></trkpt><trkpt lat="37.7784883" lon="15.2012633"><ele>61.0</ele><time>2026-04-24T18:32:18.55Z</time></trkpt><trkpt lat="37.7785883" lon="15.2013283"><ele>61.0</ele><time>2026-04-24T18:32:19.55Z</time></trkpt><trkpt lat="37.778685" lon="15.2013983"><ele>61.0</ele><time>2026-04-24T18:32:20.55Z</time></trkpt><trkpt lat="37.7787783" lon="15.20146"><ele>60.99999999999999</ele><time>2026-04-24T18:32:21.549Z</time></trkpt><trkpt lat="37.77888" lon="15.2015183"><ele>60.99999999999999</ele><time>2026-04-24T18:32:22.55Z</time></trkpt><trkpt lat="37.7789817" lon="15.201575"><ele>61.0</ele><time>2026-04-24T18:32:23.55Z</time></trkpt><trkpt lat="37.77909" lon="15.2016167"><ele>61.0</ele><time>2026-04-24T18:32:24.549Z</time></trkpt><trkpt lat="37.7791983" lon="15.2016683"><ele>61.0</ele><time>2026-04-24T18:32:25.549Z</time></trkpt><trkpt lat="37.7793083" lon="15.2017167"><ele>60.99999999999999</ele><time>2026-04-24T18:32:26.55Z</time></trkpt><trkpt lat="37.7794233" lon="15.2017483"><ele>60.99999999999999</ele><time>2026-04-24T18:32:27.55Z</time></trkpt><trkpt lat="37.7795267" lon="15.201775"><ele>61.0</ele><time>2026-04-24T18:32:28.549Z</time></trkpt><trkpt lat="37.779625" lon="15.201795"><ele>61.0</ele><time>2026-04-24T18:32:29.549Z</time></trkpt><trkpt lat="37.77973" lon="15.2018283"><ele>60.599999999999994</ele><time>2026-04-24T18:32:30.55Z</time></trkpt><trkpt lat="37.7798367" lon="15.20185"><ele>60.199999999999996</ele><time>2026-04-24T18:32:31.55Z</time></trkpt><trkpt lat="37.7799433" lon="15.201865"><ele>59.800000000000004</ele><time>2026-04-24T18:32:32.55Z</time></trkpt><trkpt lat="37.7800483" lon="15.2018833"><ele>59.400000000000006</ele><time>2026-04-24T18:32:33.55Z</time></trkpt><trkpt lat="37.780155" lon="15.2019233"><ele>59.0</ele><time>2026-04-24T18:32:34.55Z</time></trkpt><trkpt lat="37.7802633" lon="15.2019567"><ele>58.800000000000004</ele><time>2026-04-24T18:32:35.549Z</time></trkpt><trkpt lat="37.780365" lon="15.2019883"><ele>58.60000000000001</ele><time>2026-04-24T18:32:36.55Z</time></trkpt><trkpt lat="37.7804567" lon="15.2020217"><ele>58.4</ele><time>2026-04-24T18:32:37.55Z</time></trkpt><trkpt lat="37.78055" lon="15.20205"><ele>58.2</ele><time>2026-04-24T18:32:38.55Z</time></trkpt><trkpt lat="37.78065" lon="15.2020717"><ele>58.0</ele><time>2026-04-24T18:32:39.549Z</time></trkpt><trkpt lat="37.7807533" lon="15.2020883"><ele>58.0</ele><time>2026-04-24T18:32:40.55Z</time></trkpt><trkpt lat="37.78086" lon="15.2021017"><ele>58.0</ele><time>2026-04-24T18:32:41.55Z</time></trkpt><trkpt lat="37.7809633" lon="15.2021183"><ele>58.0</ele><time>2026-04-24T18:32:42.55Z</time></trkpt><trkpt lat="37.7810667" lon="15.202135"><ele>58.0</ele><time>2026-04-24T18:32:43.549Z</time></trkpt><trkpt lat="37.7811633" lon="15.20215"><ele>58.0</ele><time>2026-04-24T18:32:44.549Z</time></trkpt><trkpt lat="37.7812567" lon="15.2021633"><ele>57.4</ele><time>2026-04-24T18:32:45.549Z</time></trkpt><trkpt lat="37.7813533" lon="15.20218"><ele>56.8</ele><time>2026-04-24T18:32:46.549Z</time></trkpt><trkpt lat="37.7814517" lon="15.2021967"><ele>56.2</ele><time>2026-04-24T18:32:47.549Z</time></trkpt><trkpt lat="37.781555" lon="15.2022133"><ele>55.6</ele><time>2026-04-24T18:32:48.549Z</time></trkpt><trkpt lat="37.7816583" lon="15.2022317"><ele>55.0</ele><time>2026-04-24T18:32:49.55Z</time></trkpt><trkpt lat="37.78176" lon="15.2022383"><ele>54.8</ele><time>2026-04-24T18:32:50.55Z</time></trkpt><trkpt lat="37.7818617" lon="15.2022367"><ele>54.6</ele><time>2026-04-24T18:32:51.55Z</time></trkpt><trkpt lat="37.7819683" lon="15.2022417"><ele>54.400000000000006</ele><time>2026-04-24T18:32:52.549Z</time></trkpt><trkpt lat="37.7820767" lon="15.20225"><ele>54.2</ele><time>2026-04-24T18:32:53.55Z</time></trkpt><trkpt lat="37.7821867" lon="15.2022567"><ele>54.0</ele><time>2026-04-24T18:32:54.55Z</time></trkpt><trkpt lat="37.7822983" lon="15.2022683"><ele>54.0</ele><time>2026-04-24T18:32:55.55Z</time></trkpt><trkpt lat="37.782395" lon="15.2022867"><ele>54.00000000000001</ele><time>2026-04-24T18:32:56.55Z</time></trkpt><trkpt lat="37.782485" lon="15.2023067"><ele>54.00000000000001</ele><time>2026-04-24T18:32:57.549Z</time></trkpt><trkpt lat="37.7825833" lon="15.2023233"><ele>54.0</ele><time>2026-04-24T18:32:58.549Z</time></trkpt><trkpt lat="37.782675" lon="15.202345"><ele>54.0</ele><time>2026-04-24T18:32:59.55Z</time></trkpt><trkpt lat="37.782765" lon="15.2023667"><ele>54.0</ele><time>2026-04-24T18:33:00.55Z</time></trkpt><trkpt lat="37.782855" lon="15.2023883"><ele>54.0</ele><time>2026-04-24T18:33:01.549Z</time></trkpt><trkpt lat="37.7830317" lon="15.202425"><ele>54.0</ele><time>2026-04-24T18:33:03.549Z</time></trkpt><trkpt lat="37.783125" lon="15.2024417"><ele>54.0</ele><time>2026-04-24T18:33:04.55Z</time></trkpt><trkpt lat="37.7832133" lon="15.2024583"><ele>54.0</ele><time>2026-04-24T18:33:05.55Z</time></trkpt><trkpt lat="37.7833" lon="15.2024817"><ele>54.0</ele><time>2026-04-24T18:33:06.55Z</time></trkpt><trkpt lat="37.783385" lon="15.2025"><ele>54.0</ele><time>2026-04-24T18:33:07.55Z</time></trkpt><trkpt lat="37.7834667" lon="15.2025117"><ele>54.0</ele><time>2026-04-24T18:33:08.549Z</time></trkpt><trkpt lat="37.7835483" lon="15.2025233"><ele>54.0</ele><time>2026-04-24T18:33:09.55Z</time></trkpt><trkpt lat="37.7836317" lon="15.2025433"><ele>54.0</ele><time>2026-04-24T18:33:10.55Z</time></trkpt><trkpt lat="37.7837167" lon="15.2025617"><ele>54.166666666666664</ele><time>2026-04-24T18:33:11.55Z</time></trkpt><trkpt lat="37.7838" lon="15.2025817"><ele>54.33333333333333</ele><time>2026-04-24T18:33:12.55Z</time></trkpt><trkpt lat="37.7838883" lon="15.2026083"><ele>54.5</ele><time>2026-04-24T18:33:13.55Z</time></trkpt><trkpt lat="37.78398" lon="15.2026283"><ele>54.666666666666664</ele><time>2026-04-24T18:33:14.55Z</time></trkpt><trkpt lat="37.7840696" lon="15.2026447"><ele>54.83333333333333</ele><time>2026-04-24T18:33:15.549Z</time></trkpt><trkpt lat="37.7841584" lon="15.2026601"><ele>55.0</ele><time>2026-04-24T18:33:16.55Z</time></trkpt><trkpt lat="37.7842529" lon="15.202677"><ele>55.0</ele><time>2026-04-24T18:33:17.55Z</time></trkpt><trkpt lat="37.7843538" lon="15.2026981"><ele>55.0</ele><time>2026-04-24T18:33:18.55Z</time></trkpt><trkpt lat="37.7844585" lon="15.2027185"><ele>55.0</ele><time>2026-04-24T18:33:19.55Z</time></trkpt><trkpt lat="37.7845654" lon="15.2027371"><ele>55.0</ele><time>2026-04-24T18:33:20.55Z</time></trkpt><trkpt lat="37.7846711" lon="15.2027551"><ele>55.0</ele><time>2026-04-24T18:33:21.55Z</time></trkpt><trkpt lat="37.7847797" lon="15.2027782"><ele>55.0</ele><time>2026-04-24T18:33:22.549Z</time></trkpt><trkpt lat="37.7848882" lon="15.202807"><ele>55.0</ele><time>2026-04-24T18:33:23.549Z</time></trkpt><trkpt lat="37.7849977" lon="15.2028348"><ele>55.0</ele><time>2026-04-24T18:33:24.549Z</time></trkpt><trkpt lat="37.7851066" lon="15.2028594"><ele>55.0</ele><time>2026-04-24T18:33:25.549Z</time></trkpt><trkpt lat="37.7852104" lon="15.2028861"><ele>55.0</ele><time>2026-04-24T18:33:26.55Z</time></trkpt><trkpt lat="37.7853056" lon="15.2029107"><ele>55.33333333333333</ele><time>2026-04-24T18:33:27.549Z</time></trkpt><trkpt lat="37.785391" lon="15.2029333"><ele>55.666666666666664</ele><time>2026-04-24T18:33:28.55Z</time></trkpt><trkpt lat="37.7854622" lon="15.2029502"><ele>56.0</ele><time>2026-04-24T18:33:29.55Z</time></trkpt><trkpt lat="37.7855601" lon="15.2029754"><ele>56.33333333333333</ele><time>2026-04-24T18:33:31.55Z</time></trkpt><trkpt lat="37.7856304" lon="15.2030014"><ele>56.666666666666664</ele><time>2026-04-24T18:33:33.55Z</time></trkpt><trkpt lat="37.7857286" lon="15.203024"><ele>57.0</ele><time>2026-04-24T18:33:35.549Z</time></trkpt><trkpt lat="37.7858407" lon="15.2030545"><ele>57.0</ele><time>2026-04-24T18:33:37.549Z</time></trkpt><trkpt lat="37.785956" lon="15.20308"><ele>57.0</ele><time>2026-04-24T18:33:39.55Z</time></trkpt><trkpt lat="37.7860235" lon="15.2030922"><ele>57.0</ele><time>2026-04-24T18:33:40.55Z</time></trkpt><trkpt lat="37.7860985" lon="15.2031031"><ele>57.0</ele><time>2026-04-24T18:33:41.549Z</time></trkpt><trkpt lat="37.7861789" lon="15.2031162"><ele>57.0</ele><time>2026-04-24T18:33:42.55Z</time></trkpt><trkpt lat="37.7862677" lon="15.2031334"><ele>57.0</ele><time>2026-04-24T18:33:43.55Z</time></trkpt><trkpt lat="37.7863611" lon="15.2031549"><ele>56.400000000000006</ele><time>2026-04-24T18:33:44.549Z</time></trkpt><trkpt lat="37.7864574" lon="15.203177"><ele>55.800000000000004</ele><time>2026-04-24T18:33:45.549Z</time></trkpt><trkpt lat="37.7865574" lon="15.2031988"><ele>55.2</ele><time>2026-04-24T18:33:46.549Z</time></trkpt><trkpt lat="37.7866599" lon="15.2032187"><ele>54.6</ele><time>2026-04-24T18:33:47.549Z</time></trkpt><trkpt lat="37.7867671" lon="15.2032375"><ele>54.0</ele><time>2026-04-24T18:33:48.549Z</time></trkpt><trkpt lat="37.7868782" lon="15.203257"><ele>54.0</ele><time>2026-04-24T18:33:49.55Z</time></trkpt><trkpt lat="37.7869858" lon="15.2032774"><ele>54.00000000000001</ele><time>2026-04-24T18:33:50.55Z</time></trkpt><trkpt lat="37.7870937" lon="15.2032955"><ele>54.00000000000001</ele><time>2026-04-24T18:33:51.549Z</time></trkpt><trkpt lat="37.7871995" lon="15.2033096"><ele>54.0</ele><time>2026-04-24T18:33:52.55Z</time></trkpt><trkpt lat="37.787301" lon="15.2033222"><ele>54.0</ele><time>2026-04-24T18:33:53.55Z</time></trkpt><trkpt lat="37.7874029" lon="15.2033372"><ele>54.0</ele><time>2026-04-24T18:33:54.55Z</time></trkpt><trkpt lat="37.7875073" lon="15.2033498"><ele>54.00000000000001</ele><time>2026-04-24T18:33:55.549Z</time></trkpt><trkpt lat="37.7876134" lon="15.2033614"><ele>54.00000000000001</ele><time>2026-04-24T18:33:56.549Z</time></trkpt><trkpt lat="37.787718" lon="15.2033759"><ele>54.0</ele><time>2026-04-24T18:33:57.549Z</time></trkpt><trkpt lat="37.7878173" lon="15.2033895"><ele>54.0</ele><time>2026-04-24T18:33:58.549Z</time></trkpt><trkpt lat="37.787914" lon="15.2034048"><ele>54.833333333333336</ele><time>2026-04-24T18:33:59.55Z</time></trkpt><trkpt lat="37.7880105" lon="15.203424"><ele>55.66666666666667</ele><time>2026-04-24T18:34:00.549Z</time></trkpt><trkpt lat="37.7881031" lon="15.2034498"><ele>56.5</ele><time>2026-04-24T18:34:01.549Z</time></trkpt><trkpt lat="37.7881817" lon="15.2034867"><ele>57.333333333333336</ele><time>2026-04-24T18:34:02.549Z</time></trkpt><trkpt lat="37.78825" lon="15.2035183"><ele>58.16666666666667</ele><time>2026-04-24T18:34:03.55Z</time></trkpt><trkpt lat="37.7883183" lon="15.2035533"><ele>59.0</ele><time>2026-04-24T18:34:04.55Z</time></trkpt><trkpt lat="37.78841" lon="15.2036167"><ele>59.0</ele><time>2026-04-24T18:34:06.549Z</time></trkpt><trkpt lat="37.788475" lon="15.2036733"><ele>59.00000000000001</ele><time>2026-04-24T18:34:08.55Z</time></trkpt><trkpt lat="37.78854" lon="15.2037533"><ele>59.00000000000001</ele><time>2026-04-24T18:34:10.55Z</time></trkpt><trkpt lat="37.7886067" lon="15.203845"><ele>59.0</ele><time>2026-04-24T18:34:12.55Z</time></trkpt><trkpt lat="37.7886617" lon="15.2039383"><ele>59.0</ele><time>2026-04-24T18:34:14.55Z</time></trkpt><trkpt lat="37.7887067" lon="15.2040467"><ele>60.00000000000001</ele><time>2026-04-24T18:34:16.549Z</time></trkpt><trkpt lat="37.7887633" lon="15.2041783"><ele>61.0</ele><time>2026-04-24T18:34:18.549Z</time></trkpt><trkpt lat="37.7887983" lon="15.2042467"><ele>62.0</ele><time>2026-04-24T18:34:19.549Z</time></trkpt><trkpt lat="37.7888367" lon="15.2043183"><ele>63.0</ele><time>2026-04-24T18:34:20.55Z</time></trkpt><trkpt lat="37.78888" lon="15.2043917"><ele>64.0</ele><time>2026-04-24T18:34:21.55Z</time></trkpt><trkpt lat="37.7889267" lon="15.2044667"><ele>65.0</ele><time>2026-04-24T18:34:22.55Z</time></trkpt><trkpt lat="37.788975" lon="15.2045433"><ele>65.0</ele><time>2026-04-24T18:34:23.55Z</time></trkpt><trkpt lat="37.7890233" lon="15.2046267"><ele>65.0</ele><time>2026-04-24T18:34:24.55Z</time></trkpt><trkpt lat="37.7890783" lon="15.2047083"><ele>65.0</ele><time>2026-04-24T18:34:25.55Z</time></trkpt><trkpt lat="37.78914" lon="15.2047817"><ele>65.0</ele><time>2026-04-24T18:34:26.549Z</time></trkpt><trkpt lat="37.7892067" lon="15.20485"><ele>65.0</ele><time>2026-04-24T18:34:27.549Z</time></trkpt><trkpt lat="37.7892567" lon="15.2049133"><ele>65.0</ele><time>2026-04-24T18:34:28.549Z</time></trkpt><trkpt lat="37.7893033" lon="15.20497"><ele>65.2</ele><time>2026-04-24T18:34:29.55Z</time></trkpt><trkpt lat="37.7893983" lon="15.2050483"><ele>65.4</ele><time>2026-04-24T18:34:31.549Z</time></trkpt><trkpt lat="37.7895033" lon="15.2051417"><ele>65.6</ele><time>2026-04-24T18:34:33.549Z</time></trkpt><trkpt lat="37.7895633" lon="15.2051917"><ele>65.8</ele><time>2026-04-24T18:34:34.549Z</time></trkpt><trkpt lat="37.789625" lon="15.2052433"><ele>66.0</ele><time>2026-04-24T18:34:35.55Z</time></trkpt><trkpt lat="37.7896767" lon="15.2052933"><ele>66.0</ele><time>2026-04-24T18:34:36.55Z</time></trkpt><trkpt lat="37.7897333" lon="15.20533"><ele>66.0</ele><time>2026-04-24T18:34:37.55Z</time></trkpt><trkpt lat="37.7898217" lon="15.2053867"><ele>66.0</ele><time>2026-04-24T18:34:39.55Z</time></trkpt><trkpt lat="37.78989" lon="15.2054333"><ele>66.0</ele><time>2026-04-24T18:34:41.549Z</time></trkpt><trkpt lat="37.7900383" lon="15.2055433"><ele>66.0</ele><time>2026-04-24T18:34:50.549Z</time></trkpt><trkpt lat="37.79012" lon="15.205635"><ele>66.16666666666667</ele><time>2026-04-24T18:34:52.55Z</time></trkpt><trkpt lat="37.7901767" lon="15.205675"><ele>66.33333333333333</ele><time>2026-04-24T18:34:53.549Z</time></trkpt><trkpt lat="37.7902333" lon="15.2057183"><ele>66.5</ele><time>2026-04-24T18:34:54.55Z</time></trkpt><trkpt lat="37.7902983" lon="15.20577"><ele>66.66666666666666</ele><time>2026-04-24T18:34:55.549Z</time></trkpt><trkpt lat="37.7903667" lon="15.2058267"><ele>66.83333333333333</ele><time>2026-04-24T18:34:56.55Z</time></trkpt><trkpt lat="37.7904383" lon="15.2058933"><ele>67.0</ele><time>2026-04-24T18:34:57.55Z</time></trkpt><trkpt lat="37.79051" lon="15.2059583"><ele>67.0</ele><time>2026-04-24T18:34:58.55Z</time></trkpt><trkpt lat="37.7905733" lon="15.2059967"><ele>67.0</ele><time>2026-04-24T18:34:59.549Z</time></trkpt><trkpt lat="37.7906717" lon="15.2060667"><ele>67.0</ele><time>2026-04-24T18:35:01.55Z</time></trkpt><trkpt lat="37.7907333" lon="15.2061017"><ele>67.0</ele><time>2026-04-24T18:35:03.549Z</time></trkpt><trkpt lat="37.7908033" lon="15.2061467"><ele>67.0</ele><time>2026-04-24T18:43:33.55Z</time></trkpt><trkpt lat="37.7908783" lon="15.2062017"><ele>67.0</ele><time>2026-04-24T18:43:39.551Z</time></trkpt><trkpt lat="37.7909517" lon="15.2062717"><ele>67.2</ele><time>2026-04-24T18:43:42.55Z</time></trkpt><trkpt lat="37.791035" lon="15.2063417"><ele>67.4</ele><time>2026-04-24T18:43:45.551Z</time></trkpt><trkpt lat="37.7911" lon="15.2064"><ele>67.6</ele><time>2026-04-24T18:43:47.55Z</time></trkpt><trkpt lat="37.7911683" lon="15.2064617"><ele>67.8</ele><time>2026-04-24T18:43:49.551Z</time></trkpt><trkpt lat="37.7912467" lon="15.2065333"><ele>68.0</ele><time>2026-04-24T18:43:51.551Z</time></trkpt><trkpt lat="37.7913383" lon="15.2065967"><ele>67.5</ele><time>2026-04-24T18:43:53.551Z</time></trkpt><trkpt lat="37.7914483" lon="15.2066817"><ele>67.0</ele><time>2026-04-24T18:43:55.55Z</time></trkpt><trkpt lat="37.7915117" lon="15.206735"><ele>66.5</ele><time>2026-04-24T18:43:56.551Z</time></trkpt><trkpt lat="37.7915767" lon="15.2067933"><ele>66.0</ele><time>2026-04-24T18:43:57.55Z</time></trkpt><trkpt lat="37.7916367" lon="15.2068383"><ele>65.5</ele><time>2026-04-24T18:43:58.55Z</time></trkpt><trkpt lat="37.79172" lon="15.206885"><ele>65.0</ele><time>2026-04-24T18:44:00.55Z</time></trkpt><trkpt lat="37.7917933" lon="15.2069517"><ele>65.66666666666667</ele><time>2026-04-24T18:44:02.55Z</time></trkpt><trkpt lat="37.7918717" lon="15.20702"><ele>66.33333333333334</ele><time>2026-04-24T18:44:04.551Z</time></trkpt><trkpt lat="37.7919417" lon="15.2070717"><ele>67.0</ele><time>2026-04-24T18:44:06.551Z</time></trkpt><trkpt lat="37.7920067" lon="15.2071317"><ele>67.66666666666667</ele><time>2026-04-24T18:44:08.551Z</time></trkpt><trkpt lat="37.792075" lon="15.2071933"><ele>68.33333333333333</ele><time>2026-04-24T18:44:10.55Z</time></trkpt><trkpt lat="37.7921483" lon="15.20725"><ele>69.0</ele><time>2026-04-24T18:44:13.55Z</time></trkpt><trkpt lat="37.7922167" lon="15.2072833"><ele>69.16666666666667</ele><time>2026-04-24T18:44:15.551Z</time></trkpt><trkpt lat="37.7922933" lon="15.2073333"><ele>69.33333333333333</ele><time>2026-04-24T18:44:18.55Z</time></trkpt><trkpt lat="37.7923467" lon="15.2073817"><ele>69.5</ele><time>2026-04-24T18:44:20.551Z</time></trkpt><trkpt lat="37.7924083" lon="15.2074317"><ele>69.66666666666666</ele><time>2026-04-24T18:44:22.551Z</time></trkpt><trkpt lat="37.7924867" lon="15.2074783"><ele>69.83333333333333</ele><time>2026-04-24T18:44:25.551Z</time></trkpt><trkpt lat="37.79257" lon="15.2075367"><ele>70.0</ele><time>2026-04-24T18:44:27.551Z</time></trkpt><trkpt lat="37.7926467" lon="15.207605"><ele>69.83333333333333</ele><time>2026-04-24T18:44:29.551Z</time></trkpt><trkpt lat="37.792735" lon="15.207685"><ele>69.66666666666666</ele><time>2026-04-24T18:44:31.551Z</time></trkpt><trkpt lat="37.792785" lon="15.207735"><ele>69.5</ele><time>2026-04-24T18:44:32.55Z</time></trkpt><trkpt lat="37.7928783" lon="15.2078183"><ele>69.33333333333333</ele><time>2026-04-24T18:44:34.55Z</time></trkpt><trkpt lat="37.7929333" lon="15.2078617"><ele>69.16666666666667</ele><time>2026-04-24T18:44:35.551Z</time></trkpt><trkpt lat="37.7929883" lon="15.2079133"><ele>69.0</ele><time>2026-04-24T18:44:36.55Z</time></trkpt><trkpt lat="37.7930433" lon="15.20797"><ele>69.0</ele><time>2026-04-24T18:44:37.55Z</time></trkpt><trkpt lat="37.7930967" lon="15.2080267"><ele>69.0</ele><time>2026-04-24T18:44:38.55Z</time></trkpt><trkpt lat="37.7931533" lon="15.2080867"><ele>69.0</ele><time>2026-04-24T18:44:39.551Z</time></trkpt><trkpt lat="37.793225" lon="15.2081433"><ele>69.0</ele><time>2026-04-24T18:44:40.551Z</time></trkpt><trkpt lat="37.7933917" lon="15.20827"><ele>69.0</ele><time>2026-04-24T18:44:42.551Z</time></trkpt><trkpt lat="37.79347" lon="15.2083367"><ele>68.5</ele><time>2026-04-24T18:44:43.551Z</time></trkpt><trkpt lat="37.7935433" lon="15.2083933"><ele>68.0</ele><time>2026-04-24T18:44:44.551Z</time></trkpt><trkpt lat="37.7936067" lon="15.2084617"><ele>67.5</ele><time>2026-04-24T18:44:45.55Z</time></trkpt><trkpt lat="37.7936667" lon="15.2085233"><ele>67.0</ele><time>2026-04-24T18:44:46.55Z</time></trkpt><trkpt lat="37.7937267" lon="15.2086"><ele>66.5</ele><time>2026-04-24T18:44:47.551Z</time></trkpt><trkpt lat="37.7937833" lon="15.2086717"><ele>66.0</ele><time>2026-04-24T18:44:48.55Z</time></trkpt><trkpt lat="37.7938317" lon="15.2087467"><ele>66.0</ele><time>2026-04-24T18:44:49.55Z</time></trkpt><trkpt lat="37.79388" lon="15.2088183"><ele>66.0</ele><time>2026-04-24T18:44:50.55Z</time></trkpt><trkpt lat="37.7939183" lon="15.2088967"><ele>66.0</ele><time>2026-04-24T18:44:51.551Z</time></trkpt><trkpt lat="37.7939617" lon="15.2089733"><ele>66.0</ele><time>2026-04-24T18:44:52.55Z</time></trkpt><trkpt lat="37.79401" lon="15.2090433"><ele>66.0</ele><time>2026-04-24T18:44:53.551Z</time></trkpt><trkpt lat="37.7940533" lon="15.20911"><ele>66.0</ele><time>2026-04-24T18:44:54.551Z</time></trkpt><trkpt lat="37.7941083" lon="15.209185"><ele>66.0</ele><time>2026-04-24T18:44:55.551Z</time></trkpt><trkpt lat="37.79416" lon="15.20926"><ele>66.0</ele><time>2026-04-24T18:44:56.551Z</time></trkpt><trkpt lat="37.7942217" lon="15.2093317"><ele>66.0</ele><time>2026-04-24T18:44:57.551Z</time></trkpt><trkpt lat="37.7942883" lon="15.2093967"><ele>66.0</ele><time>2026-04-24T18:44:58.55Z</time></trkpt><trkpt lat="37.7943583" lon="15.2094667"><ele>66.0</ele><time>2026-04-24T18:44:59.551Z</time></trkpt><trkpt lat="37.7944333" lon="15.2095367"><ele>66.0</ele><time>2026-04-24T18:45:00.551Z</time></trkpt><trkpt lat="37.7945167" lon="15.20961"><ele>66.0</ele><time>2026-04-24T18:45:01.551Z</time></trkpt><trkpt lat="37.7945967" lon="15.2096733"><ele>66.0</ele><time>2026-04-24T18:45:02.55Z</time></trkpt><trkpt lat="37.7946633" lon="15.209735"><ele>66.0</ele><time>2026-04-24T18:45:03.55Z</time></trkpt><trkpt lat="37.7947317" lon="15.2097917"><ele>66.0</ele><time>2026-04-24T18:45:04.551Z</time></trkpt><trkpt lat="37.7947967" lon="15.209845"><ele>66.0</ele><time>2026-04-24T18:45:05.551Z</time></trkpt><trkpt lat="37.7948717" lon="15.2098967"><ele>66.0</ele><time>2026-04-24T18:45:06.55Z</time></trkpt><trkpt lat="37.79494" lon="15.209955"><ele>66.0</ele><time>2026-04-24T18:45:07.55Z</time></trkpt><trkpt lat="37.7950033" lon="15.21001"><ele>66.0</ele><time>2026-04-24T18:45:08.551Z</time></trkpt><trkpt lat="37.7950733" lon="15.2100717"><ele>66.0</ele><time>2026-04-24T18:45:09.55Z</time></trkpt><trkpt lat="37.795145" lon="15.2101333"><ele>66.0</ele><time>2026-04-24T18:45:10.551Z</time></trkpt><trkpt lat="37.795215" lon="15.2101967"><ele>66.0</ele><time>2026-04-24T18:45:11.55Z</time></trkpt><trkpt lat="37.7952933" lon="15.2102533"><ele>66.0</ele><time>2026-04-24T18:45:12.55Z</time></trkpt><trkpt lat="37.79538" lon="15.2103117"><ele>66.2</ele><time>2026-04-24T18:45:13.551Z</time></trkpt><trkpt lat="37.79548" lon="15.2103633"><ele>66.39999999999999</ele><time>2026-04-24T18:45:14.551Z</time></trkpt><trkpt lat="37.79559" lon="15.2103917"><ele>66.6</ele><time>2026-04-24T18:45:15.551Z</time></trkpt><trkpt lat="37.795695" lon="15.2104133"><ele>66.8</ele><time>2026-04-24T18:45:16.551Z</time></trkpt><trkpt lat="37.7957917" lon="15.2104267"><ele>67.0</ele><time>2026-04-24T18:45:17.55Z</time></trkpt><trkpt lat="37.7958867" lon="15.2104383"><ele>67.0</ele><time>2026-04-24T18:45:18.551Z</time></trkpt><trkpt lat="37.7959733" lon="15.2104467"><ele>67.0</ele><time>2026-04-24T18:45:19.55Z</time></trkpt><trkpt lat="37.7960583" lon="15.210455"><ele>67.0</ele><time>2026-04-24T18:45:20.551Z</time></trkpt><trkpt lat="37.7961417" lon="15.2104717"><ele>67.0</ele><time>2026-04-24T18:45:21.551Z</time></trkpt><trkpt lat="37.79622" lon="15.2104817"><ele>67.0</ele><time>2026-04-24T18:45:22.551Z</time></trkpt><trkpt lat="37.7962983" lon="15.2104817"><ele>67.0</ele><time>2026-04-24T18:45:23.55Z</time></trkpt><trkpt lat="37.79638" lon="15.2104917"><ele>67.5</ele><time>2026-04-24T18:45:24.551Z</time></trkpt><trkpt lat="37.796455" lon="15.2104933"><ele>68.0</ele><time>2026-04-24T18:45:25.551Z</time></trkpt><trkpt lat="37.7965267" lon="15.2104983"><ele>68.5</ele><time>2026-04-24T18:45:26.551Z</time></trkpt><trkpt lat="37.7966" lon="15.2105233"><ele>69.0</ele><time>2026-04-24T18:45:27.551Z</time></trkpt><trkpt lat="37.7966783" lon="15.2105317"><ele>69.5</ele><time>2026-04-24T18:45:28.55Z</time></trkpt><trkpt lat="37.7967467" lon="15.21053"><ele>70.0</ele><time>2026-04-24T18:45:29.55Z</time></trkpt><trkpt lat="37.7968283" lon="15.2105383"><ele>70.33333333333333</ele><time>2026-04-24T18:45:30.55Z</time></trkpt><trkpt lat="37.796895" lon="15.2105467"><ele>70.66666666666666</ele><time>2026-04-24T18:45:31.551Z</time></trkpt><trkpt lat="37.79696" lon="15.2105517"><ele>71.0</ele><time>2026-04-24T18:45:32.55Z</time></trkpt><trkpt lat="37.7970467" lon="15.2105783"><ele>71.33333333333333</ele><time>2026-04-24T18:45:34.551Z</time></trkpt><trkpt lat="37.7971283" lon="15.210615"><ele>71.66666666666667</ele><time>2026-04-24T18:45:41.551Z</time></trkpt><trkpt lat="37.7972333" lon="15.2106317"><ele>72.0</ele><time>2026-04-24T18:45:43.55Z</time></trkpt><trkpt lat="37.7973583" lon="15.2106467"><ele>72.0</ele><time>2026-04-24T18:45:45.551Z</time></trkpt><trkpt lat="37.7974383" lon="15.21065"><ele>72.0</ele><time>2026-04-24T18:45:46.55Z</time></trkpt><trkpt lat="37.79752" lon="15.2106583"><ele>72.0</ele><time>2026-04-24T18:45:47.551Z</time></trkpt><trkpt lat="37.7976017" lon="15.2106733"><ele>72.0</ele><time>2026-04-24T18:45:48.551Z</time></trkpt><trkpt lat="37.79769" lon="15.210685"><ele>72.0</ele><time>2026-04-24T18:45:49.551Z</time></trkpt><trkpt lat="37.7977833" lon="15.2107133"><ele>72.0</ele><time>2026-04-24T18:45:50.55Z</time></trkpt><trkpt lat="37.7978833" lon="15.2107483"><ele>72.4</ele><time>2026-04-24T18:45:51.55Z</time></trkpt><trkpt lat="37.7979817" lon="15.2107917"><ele>72.80000000000001</ele><time>2026-04-24T18:45:52.551Z</time></trkpt><trkpt lat="37.7980833" lon="15.2108467"><ele>73.2</ele><time>2026-04-24T18:45:53.551Z</time></trkpt><trkpt lat="37.7981783" lon="15.21089"><ele>73.60000000000001</ele><time>2026-04-24T18:45:54.551Z</time></trkpt><trkpt lat="37.7982783" lon="15.2109333"><ele>74.0</ele><time>2026-04-24T18:45:55.551Z</time></trkpt><trkpt lat="37.7983817" lon="15.2109783"><ele>74.0</ele><time>2026-04-24T18:45:56.551Z</time></trkpt><trkpt lat="37.7984833" lon="15.21102"><ele>74.0</ele><time>2026-04-24T18:45:57.551Z</time></trkpt><trkpt lat="37.798595" lon="15.21105"><ele>74.0</ele><time>2026-04-24T18:45:58.551Z</time></trkpt><trkpt lat="37.7986983" lon="15.2110833"><ele>74.0</ele><time>2026-04-24T18:45:59.551Z</time></trkpt><trkpt lat="37.7987967" lon="15.2111333"><ele>74.0</ele><time>2026-04-24T18:46:00.551Z</time></trkpt><trkpt lat="37.7989017" lon="15.2111983"><ele>73.25</ele><time>2026-04-24T18:46:01.551Z</time></trkpt><trkpt lat="37.7989967" lon="15.2112767"><ele>72.5</ele><time>2026-04-24T18:46:02.551Z</time></trkpt><trkpt lat="37.7990883" lon="15.211375"><ele>71.75</ele><time>2026-04-24T18:46:03.55Z</time></trkpt><trkpt lat="37.7991717" lon="15.211485"><ele>71.0</ele><time>2026-04-24T18:46:04.551Z</time></trkpt><trkpt lat="37.7992517" lon="15.2115917"><ele>71.0</ele><time>2026-04-24T18:46:05.55Z</time></trkpt><trkpt lat="37.7993217" lon="15.2117033"><ele>71.0</ele><time>2026-04-24T18:46:06.551Z</time></trkpt><trkpt lat="37.7994017" lon="15.2118133"><ele>71.0</ele><time>2026-04-24T18:46:07.55Z</time></trkpt><trkpt lat="37.79948" lon="15.211925"><ele>71.0</ele><time>2026-04-24T18:46:08.55Z</time></trkpt><trkpt lat="37.7995633" lon="15.2120383"><ele>71.25</ele><time>2026-04-24T18:46:09.55Z</time></trkpt><trkpt lat="37.799645" lon="15.21215"><ele>71.5</ele><time>2026-04-24T18:46:10.551Z</time></trkpt><trkpt lat="37.7997283" lon="15.2122533"><ele>71.75</ele><time>2026-04-24T18:46:11.55Z</time></trkpt><trkpt lat="37.799815" lon="15.21235"><ele>72.0</ele><time>2026-04-24T18:46:12.551Z</time></trkpt><trkpt lat="37.7998967" lon="15.2124517"><ele>72.0</ele><time>2026-04-24T18:46:13.55Z</time></trkpt><trkpt lat="37.7999817" lon="15.2125483"><ele>72.0</ele><time>2026-04-24T18:46:14.55Z</time></trkpt><trkpt lat="37.800075" lon="15.21264"><ele>72.0</ele><time>2026-04-24T18:46:15.551Z</time></trkpt><trkpt lat="37.800175" lon="15.2127233"><ele>72.0</ele><time>2026-04-24T18:46:16.551Z</time></trkpt><trkpt lat="37.800275" lon="15.2128083"><ele>72.25</ele><time>2026-04-24T18:46:17.55Z</time></trkpt><trkpt lat="37.80038" lon="15.212895"><ele>72.5</ele><time>2026-04-24T18:46:18.551Z</time></trkpt><trkpt lat="37.8004883" lon="15.2129817"><ele>72.75</ele><time>2026-04-24T18:46:19.551Z</time></trkpt><trkpt lat="37.8005967" lon="15.2130717"><ele>73.0</ele><time>2026-04-24T18:46:20.551Z</time></trkpt><trkpt lat="37.8007017" lon="15.2131567"><ele>73.25</ele><time>2026-04-24T18:46:21.551Z</time></trkpt><trkpt lat="37.8007983" lon="15.213235"><ele>73.5</ele><time>2026-04-24T18:46:22.551Z</time></trkpt><trkpt lat="37.800895" lon="15.2133183"><ele>73.75</ele><time>2026-04-24T18:46:23.551Z</time></trkpt><trkpt lat="37.8009883" lon="15.2133967"><ele>74.0</ele><time>2026-04-24T18:46:24.551Z</time></trkpt><trkpt lat="37.80108" lon="15.2134833"><ele>71.5</ele><time>2026-04-24T18:46:25.55Z</time></trkpt><trkpt lat="37.801165" lon="15.2135733"><ele>69.0</ele><time>2026-04-24T18:46:26.551Z</time></trkpt><trkpt lat="37.8012567" lon="15.2136667"><ele>66.5</ele><time>2026-04-24T18:46:27.551Z</time></trkpt><trkpt lat="37.801345" lon="15.21377"><ele>64.0</ele><time>2026-04-24T18:46:28.551Z</time></trkpt><trkpt lat="37.80143" lon="15.2138733"><ele>64.0</ele><time>2026-04-24T18:46:29.55Z</time></trkpt><trkpt lat="37.8015067" lon="15.2139817"><ele>64.0</ele><time>2026-04-24T18:46:30.551Z</time></trkpt><trkpt lat="37.8015833" lon="15.2140917"><ele>64.0</ele><time>2026-04-24T18:46:31.55Z</time></trkpt><trkpt lat="37.8016533" lon="15.2142117"><ele>64.0</ele><time>2026-04-24T18:46:32.55Z</time></trkpt><trkpt lat="37.8017267" lon="15.2143383"><ele>64.75</ele><time>2026-04-24T18:46:33.55Z</time></trkpt><trkpt lat="37.8018017" lon="15.2144717"><ele>65.5</ele><time>2026-04-24T18:46:34.551Z</time></trkpt><trkpt lat="37.801875" lon="15.2146083"><ele>66.25</ele><time>2026-04-24T18:46:35.55Z</time></trkpt><trkpt lat="37.8019467" lon="15.2147517"><ele>67.0</ele><time>2026-04-24T18:46:36.55Z</time></trkpt><trkpt lat="37.8020217" lon="15.2148933"><ele>65.25</ele><time>2026-04-24T18:46:37.55Z</time></trkpt><trkpt lat="37.8021017" lon="15.2150333"><ele>63.5</ele><time>2026-04-24T18:46:38.551Z</time></trkpt><trkpt lat="37.8021883" lon="15.2151717"><ele>61.75</ele><time>2026-04-24T18:46:39.55Z</time></trkpt><trkpt lat="37.8022833" lon="15.2153067"><ele>60.0</ele><time>2026-04-24T18:46:40.55Z</time></trkpt><trkpt lat="37.802385" lon="15.2154383"><ele>60.0</ele><time>2026-04-24T18:46:41.551Z</time></trkpt><trkpt lat="37.802485" lon="15.2155633"><ele>60.0</ele><time>2026-04-24T18:46:42.551Z</time></trkpt><trkpt lat="37.8025933" lon="15.21569"><ele>60.0</ele><time>2026-04-24T18:46:43.55Z</time></trkpt><trkpt lat="37.8027017" lon="15.2158167"><ele>60.0</ele><time>2026-04-24T18:46:44.55Z</time></trkpt><trkpt lat="37.8028067" lon="15.2159383"><ele>59.0</ele><time>2026-04-24T18:46:45.55Z</time></trkpt><trkpt lat="37.8029117" lon="15.2160617"><ele>58.0</ele><time>2026-04-24T18:46:46.551Z</time></trkpt><trkpt lat="37.8030133" lon="15.2161833"><ele>57.0</ele><time>2026-04-24T18:46:47.55Z</time></trkpt><trkpt lat="37.8031183" lon="15.2163033"><ele>56.0</ele><time>2026-04-24T18:46:48.551Z</time></trkpt><trkpt lat="37.8032217" lon="15.2164233"><ele>55.5</ele><time>2026-04-24T18:46:49.55Z</time></trkpt><trkpt lat="37.8033217" lon="15.21654"><ele>55.0</ele><time>2026-04-24T18:46:50.551Z</time></trkpt><trkpt lat="37.8034117" lon="15.2166483"><ele>54.5</ele><time>2026-04-24T18:46:51.55Z</time></trkpt><trkpt lat="37.8035033" lon="15.21675"><ele>54.0</ele><time>2026-04-24T18:46:52.55Z</time></trkpt><trkpt lat="37.8035933" lon="15.2168583"><ele>55.25</ele><time>2026-04-24T18:46:53.55Z</time></trkpt><trkpt lat="37.8036917" lon="15.216975"><ele>56.5</ele><time>2026-04-24T18:46:54.55Z</time></trkpt><trkpt lat="37.8037867" lon="15.2170983"><ele>57.75</ele><time>2026-04-24T18:46:55.55Z</time></trkpt><trkpt lat="37.8038933" lon="15.21722"><ele>59.0</ele><time>2026-04-24T18:46:56.55Z</time></trkpt><trkpt lat="37.803995" lon="15.21734"><ele>59.0</ele><time>2026-04-24T18:46:57.551Z</time></trkpt><trkpt lat="37.804095" lon="15.2174633"><ele>59.0</ele><time>2026-04-24T18:46:58.55Z</time></trkpt><trkpt lat="37.804195" lon="15.2175933"><ele>59.0</ele><time>2026-04-24T18:46:59.551Z</time></trkpt><trkpt lat="37.8042833" lon="15.217725"><ele>59.0</ele><time>2026-04-24T18:47:00.551Z</time></trkpt><trkpt lat="37.8043683" lon="15.2178567"><ele>59.5</ele><time>2026-04-24T18:47:01.55Z</time></trkpt><trkpt lat="37.804455" lon="15.2179933"><ele>60.0</ele><time>2026-04-24T18:47:02.55Z</time></trkpt><trkpt lat="37.8045383" lon="15.2181367"><ele>60.5</ele><time>2026-04-24T18:47:03.55Z</time></trkpt><trkpt lat="37.804615" lon="15.2182833"><ele>61.0</ele><time>2026-04-24T18:47:04.55Z</time></trkpt><trkpt lat="37.804695" lon="15.21843"><ele>61.0</ele><time>2026-04-24T18:47:05.55Z</time></trkpt><trkpt lat="37.8047717" lon="15.2185833"><ele>61.0</ele><time>2026-04-24T18:47:06.55Z</time></trkpt><trkpt lat="37.80485" lon="15.2187317"><ele>61.0</ele><time>2026-04-24T18:47:07.551Z</time></trkpt><trkpt lat="37.8049267" lon="15.2188733"><ele>61.0</ele><time>2026-04-24T18:47:08.55Z</time></trkpt><trkpt lat="37.8049983" lon="15.2190017"><ele>60.8</ele><time>2026-04-24T18:47:09.551Z</time></trkpt><trkpt lat="37.805055" lon="15.2191183"><ele>60.599999999999994</ele><time>2026-04-24T18:47:10.551Z</time></trkpt><trkpt lat="37.8051083" lon="15.2192283"><ele>60.4</ele><time>2026-04-24T18:47:11.55Z</time></trkpt><trkpt lat="37.8051633" lon="15.2193383"><ele>60.2</ele><time>2026-04-24T18:47:12.55Z</time></trkpt><trkpt lat="37.8052217" lon="15.2194467"><ele>60.0</ele><time>2026-04-24T18:47:13.55Z</time></trkpt><trkpt lat="37.8052867" lon="15.2195567"><ele>60.0</ele><time>2026-04-24T18:47:14.551Z</time></trkpt><trkpt lat="37.8053517" lon="15.219665"><ele>60.0</ele><time>2026-04-24T18:47:15.551Z</time></trkpt><trkpt lat="37.8054217" lon="15.2197683"><ele>60.0</ele><time>2026-04-24T18:47:16.55Z</time></trkpt><trkpt lat="37.8054917" lon="15.2198717"><ele>60.0</ele><time>2026-04-24T18:47:17.55Z</time></trkpt><trkpt lat="37.80557" lon="15.2199717"><ele>60.0</ele><time>2026-04-24T18:47:18.55Z</time></trkpt><trkpt lat="37.805645" lon="15.2200633"><ele>59.666666666666664</ele><time>2026-04-24T18:47:19.551Z</time></trkpt><trkpt lat="37.8057183" lon="15.22015"><ele>59.33333333333333</ele><time>2026-04-24T18:47:20.55Z</time></trkpt><trkpt lat="37.8057883" lon="15.2202267"><ele>59.0</ele><time>2026-04-24T18:47:21.551Z</time></trkpt><trkpt lat="37.80585" lon="15.2203"><ele>58.666666666666664</ele><time>2026-04-24T18:47:22.55Z</time></trkpt><trkpt lat="37.8059067" lon="15.2203667"><ele>58.33333333333333</ele><time>2026-04-24T18:47:23.551Z</time></trkpt><trkpt lat="37.8059617" lon="15.2204283"><ele>58.0</ele><time>2026-04-24T18:47:24.55Z</time></trkpt><trkpt lat="37.8060133" lon="15.2204917"><ele>58.00000000000001</ele><time>2026-04-24T18:47:25.551Z</time></trkpt><trkpt lat="37.806065" lon="15.2205617"><ele>58.0</ele><time>2026-04-24T18:47:26.551Z</time></trkpt><trkpt lat="37.8061167" lon="15.220625"><ele>58.00000000000001</ele><time>2026-04-24T18:47:27.551Z</time></trkpt><trkpt lat="37.80616" lon="15.220685"><ele>58.00000000000001</ele><time>2026-04-24T18:47:28.551Z</time></trkpt><trkpt lat="37.8061983" lon="15.2207533"><ele>58.0</ele><time>2026-04-24T18:47:29.55Z</time></trkpt><trkpt lat="37.8062233" lon="15.2208383"><ele>58.00000000000001</ele><time>2026-04-24T18:47:30.55Z</time></trkpt><trkpt lat="37.806235" lon="15.220945"><ele>58.00000000000001</ele><time>2026-04-24T18:47:31.551Z</time></trkpt><trkpt lat="37.8062267" lon="15.2210583"><ele>58.0</ele><time>2026-04-24T18:47:32.551Z</time></trkpt><trkpt lat="37.80621" lon="15.2211817"><ele>58.0</ele><time>2026-04-24T18:47:33.551Z</time></trkpt><trkpt lat="37.80619" lon="15.2213167"><ele>58.0</ele><time>2026-04-24T18:47:34.551Z</time></trkpt><trkpt lat="37.80617" lon="15.2214533"><ele>58.0</ele><time>2026-04-24T18:47:35.551Z</time></trkpt><trkpt lat="37.80615" lon="15.2215883"><ele>58.0</ele><time>2026-04-24T18:47:36.551Z</time></trkpt><trkpt lat="37.8061283" lon="15.2217483"><ele>58.0</ele><time>2026-04-24T18:47:37.551Z</time></trkpt><trkpt lat="37.806105" lon="15.2218933"><ele>58.0</ele><time>2026-04-24T18:47:38.551Z</time></trkpt><trkpt lat="37.8060867" lon="15.2220383"><ele>58.0</ele><time>2026-04-24T18:47:39.551Z</time></trkpt><trkpt lat="37.8060667" lon="15.2221883"><ele>58.0</ele><time>2026-04-24T18:47:40.551Z</time></trkpt><trkpt lat="37.806045" lon="15.2223417"><ele>57.8</ele><time>2026-04-24T18:47:41.551Z</time></trkpt><trkpt lat="37.80602" lon="15.2224883"><ele>57.599999999999994</ele><time>2026-04-24T18:47:42.551Z</time></trkpt><trkpt lat="37.805995" lon="15.222625"><ele>57.400000000000006</ele><time>2026-04-24T18:47:43.551Z</time></trkpt><trkpt lat="37.8059767" lon="15.22276"><ele>57.2</ele><time>2026-04-24T18:47:44.55Z</time></trkpt><trkpt lat="37.8059583" lon="15.222885"><ele>57.0</ele><time>2026-04-24T18:47:45.55Z</time></trkpt><trkpt lat="37.8059433" lon="15.2229917"><ele>56.333333333333336</ele><time>2026-04-24T18:47:46.551Z</time></trkpt><trkpt lat="37.8059217" lon="15.2230883"><ele>55.66666666666667</ele><time>2026-04-24T18:47:47.551Z</time></trkpt><trkpt lat="37.8059067" lon="15.223185"><ele>55.0</ele><time>2026-04-24T18:47:48.55Z</time></trkpt><trkpt lat="37.8059017" lon="15.223295"><ele>54.333333333333336</ele><time>2026-04-24T18:47:49.551Z</time></trkpt><trkpt lat="37.805915" lon="15.2234167"><ele>53.66666666666667</ele><time>2026-04-24T18:47:50.551Z</time></trkpt><trkpt lat="37.8059483" lon="15.2235383"><ele>53.0</ele><time>2026-04-24T18:47:51.55Z</time></trkpt><trkpt lat="37.80599" lon="15.223665"><ele>53.4</ele><time>2026-04-24T18:47:52.55Z</time></trkpt><trkpt lat="37.8060333" lon="15.2237933"><ele>53.8</ele><time>2026-04-24T18:47:53.55Z</time></trkpt><trkpt lat="37.8060733" lon="15.2239167"><ele>54.2</ele><time>2026-04-24T18:47:54.551Z</time></trkpt><trkpt lat="37.80611" lon="15.2240417"><ele>54.6</ele><time>2026-04-24T18:47:55.55Z</time></trkpt><trkpt lat="37.806145" lon="15.2241683"><ele>55.0</ele><time>2026-04-24T18:47:56.55Z</time></trkpt><trkpt lat="37.80618" lon="15.224305"><ele>55.0</ele><time>2026-04-24T18:47:57.55Z</time></trkpt><trkpt lat="37.8062133" lon="15.2244433"><ele>55.0</ele><time>2026-04-24T18:47:58.551Z</time></trkpt><trkpt lat="37.8062417" lon="15.224585"><ele>55.0</ele><time>2026-04-24T18:47:59.551Z</time></trkpt><trkpt lat="37.806255" lon="15.2247367"><ele>55.0</ele><time>2026-04-24T18:48:00.55Z</time></trkpt><trkpt lat="37.8062667" lon="15.2248883"><ele>54.5</ele><time>2026-04-24T18:48:01.551Z</time></trkpt><trkpt lat="37.8062683" lon="15.225045"><ele>54.0</ele><time>2026-04-24T18:48:02.551Z</time></trkpt><trkpt lat="37.806275" lon="15.2251983"><ele>53.5</ele><time>2026-04-24T18:48:03.55Z</time></trkpt><trkpt lat="37.8062733" lon="15.22535"><ele>53.0</ele><time>2026-04-24T18:48:04.551Z</time></trkpt><trkpt lat="37.80627" lon="15.2254967"><ele>53.0</ele><time>2026-04-24T18:48:05.551Z</time></trkpt><trkpt lat="37.8062733" lon="15.2256417"><ele>53.0</ele><time>2026-04-24T18:48:06.551Z</time></trkpt><trkpt lat="37.8062883" lon="15.22579"><ele>53.0</ele><time>2026-04-24T18:48:07.551Z</time></trkpt><trkpt lat="37.8063067" lon="15.225945"><ele>53.0</ele><time>2026-04-24T18:48:08.551Z</time></trkpt><trkpt lat="37.80633" lon="15.2261"><ele>52.0</ele><time>2026-04-24T18:48:09.551Z</time></trkpt><trkpt lat="37.8063567" lon="15.2262467"><ele>51.0</ele><time>2026-04-24T18:48:10.551Z</time></trkpt><trkpt lat="37.8063767" lon="15.226385"><ele>50.0</ele><time>2026-04-24T18:48:11.55Z</time></trkpt><trkpt lat="37.8064033" lon="15.2265233"><ele>49.0</ele><time>2026-04-24T18:48:12.55Z</time></trkpt><trkpt lat="37.8064317" lon="15.2266467"><ele>48.0</ele><time>2026-04-24T18:48:13.55Z</time></trkpt><trkpt lat="37.806455" lon="15.22676"><ele>47.666666666666664</ele><time>2026-04-24T18:48:14.55Z</time></trkpt><trkpt lat="37.806485" lon="15.2268533"><ele>47.333333333333336</ele><time>2026-04-24T18:48:15.551Z</time></trkpt><trkpt lat="37.80654" lon="15.22692"><ele>47.0</ele><time>2026-04-24T18:48:16.551Z</time></trkpt><trkpt lat="37.806595" lon="15.226985"><ele>46.66666666666667</ele><time>2026-04-24T18:48:17.551Z</time></trkpt><trkpt lat="37.80669" lon="15.227015"><ele>46.333333333333336</ele><time>2026-04-24T18:48:18.551Z</time></trkpt><trkpt lat="37.8067883" lon="15.2270467"><ele>46.0</ele><time>2026-04-24T18:48:19.55Z</time></trkpt><trkpt lat="37.806895" lon="15.2270783"><ele>46.0</ele><time>2026-04-24T18:48:20.551Z</time></trkpt><trkpt lat="37.80699" lon="15.2271167"><ele>46.0</ele><time>2026-04-24T18:48:21.55Z</time></trkpt><trkpt lat="37.8070967" lon="15.2271567"><ele>46.0</ele><time>2026-04-24T18:48:22.551Z</time></trkpt><trkpt lat="37.8072067" lon="15.2272017"><ele>46.0</ele><time>2026-04-24T18:48:23.551Z</time></trkpt><trkpt lat="37.8073133" lon="15.2272617"><ele>46.0</ele><time>2026-04-24T18:48:24.551Z</time></trkpt><trkpt lat="37.8073983" lon="15.2273283"><ele>45.66666666666667</ele><time>2026-04-24T18:48:25.55Z</time></trkpt><trkpt lat="37.80747" lon="15.2273783"><ele>45.333333333333336</ele><time>2026-04-24T18:48:26.551Z</time></trkpt><trkpt lat="37.8075417" lon="15.227435"><ele>45.0</ele><time>2026-04-24T18:48:27.55Z</time></trkpt><trkpt lat="37.8076033" lon="15.2274967"><ele>44.666666666666664</ele><time>2026-04-24T18:48:28.55Z</time></trkpt><trkpt lat="37.8076717" lon="15.2275667"><ele>44.33333333333333</ele><time>2026-04-24T18:48:29.55Z</time></trkpt><trkpt lat="37.8077283" lon="15.22766"><ele>44.0</ele><time>2026-04-24T18:48:30.55Z</time></trkpt><trkpt lat="37.8077867" lon="15.2277517"><ele>44.0</ele><time>2026-04-24T18:48:31.55Z</time></trkpt><trkpt lat="37.8078467" lon="15.2278417"><ele>44.0</ele><time>2026-04-24T18:48:32.551Z</time></trkpt><trkpt lat="37.8079033" lon="15.22793"><ele>44.0</ele><time>2026-04-24T18:48:33.55Z</time></trkpt><trkpt lat="37.8079583" lon="15.2280233"><ele>44.0</ele><time>2026-04-24T18:48:34.551Z</time></trkpt><trkpt lat="37.808015" lon="15.2281183"><ele>44.0</ele><time>2026-04-24T18:48:35.551Z</time></trkpt><trkpt lat="37.8080683" lon="15.2282117"><ele>43.666666666666664</ele><time>2026-04-24T18:48:36.551Z</time></trkpt><trkpt lat="37.8081217" lon="15.2283"><ele>43.33333333333333</ele><time>2026-04-24T18:48:37.551Z</time></trkpt><trkpt lat="37.8081683" lon="15.228385"><ele>43.0</ele><time>2026-04-24T18:48:38.551Z</time></trkpt><trkpt lat="37.8082217" lon="15.2284683"><ele>42.666666666666664</ele><time>2026-04-24T18:48:39.551Z</time></trkpt><trkpt lat="37.8082717" lon="15.228545"><ele>42.333333333333336</ele><time>2026-04-24T18:48:40.55Z</time></trkpt><trkpt lat="37.8083133" lon="15.2286233"><ele>42.0</ele><time>2026-04-24T18:48:41.551Z</time></trkpt><trkpt lat="37.8083617" lon="15.2287033"><ele>42.0</ele><time>2026-04-24T18:48:42.551Z</time></trkpt><trkpt lat="37.8084133" lon="15.2287817"><ele>42.0</ele><time>2026-04-24T18:48:43.551Z</time></trkpt><trkpt lat="37.8084583" lon="15.228865"><ele>42.0</ele><time>2026-04-24T18:48:44.55Z</time></trkpt><trkpt lat="37.808505" lon="15.22894"><ele>42.0</ele><time>2026-04-24T18:48:45.55Z</time></trkpt><trkpt lat="37.8085517" lon="15.2290067"><ele>42.0</ele><time>2026-04-24T18:48:46.551Z</time></trkpt><trkpt lat="37.808595" lon="15.2290733"><ele>42.0</ele><time>2026-04-24T18:48:47.55Z</time></trkpt><trkpt lat="37.8086467" lon="15.22914"><ele>42.0</ele><time>2026-04-24T18:48:48.55Z</time></trkpt><trkpt lat="37.8086983" lon="15.2292133"><ele>41.5</ele><time>2026-04-24T18:48:49.551Z</time></trkpt><trkpt lat="37.80875" lon="15.2292883"><ele>41.0</ele><time>2026-04-24T18:48:50.55Z</time></trkpt><trkpt lat="37.808795" lon="15.229365"><ele>40.5</ele><time>2026-04-24T18:48:51.551Z</time></trkpt><trkpt lat="37.80884" lon="15.2294483"><ele>40.0</ele><time>2026-04-24T18:48:52.551Z</time></trkpt><trkpt lat="37.8088933" lon="15.2295283"><ele>39.5</ele><time>2026-04-24T18:48:53.551Z</time></trkpt><trkpt lat="37.808955" lon="15.2296167"><ele>39.0</ele><time>2026-04-24T18:48:54.551Z</time></trkpt><trkpt lat="37.8090167" lon="15.2297133"><ele>39.0</ele><time>2026-04-24T18:48:55.55Z</time></trkpt><trkpt lat="37.8090817" lon="15.2298167"><ele>39.0</ele><time>2026-04-24T18:48:56.55Z</time></trkpt><trkpt lat="37.8091533" lon="15.2299283"><ele>39.0</ele><time>2026-04-24T18:48:57.551Z</time></trkpt><trkpt lat="37.8092283" lon="15.2300483"><ele>39.0</ele><time>2026-04-24T18:48:58.551Z</time></trkpt><trkpt lat="37.80931" lon="15.2301717"><ele>39.0</ele><time>2026-04-24T18:48:59.551Z</time></trkpt><trkpt lat="37.8093917" lon="15.230305"><ele>39.0</ele><time>2026-04-24T18:49:00.551Z</time></trkpt><trkpt lat="37.8094733" lon="15.23044"><ele>39.0</ele><time>2026-04-24T18:49:01.551Z</time></trkpt><trkpt lat="37.8095617" lon="15.2305767"><ele>39.0</ele><time>2026-04-24T18:49:02.551Z</time></trkpt><trkpt lat="37.8096433" lon="15.23071"><ele>38.75</ele><time>2026-04-24T18:49:03.55Z</time></trkpt><trkpt lat="37.809725" lon="15.2308383"><ele>38.5</ele><time>2026-04-24T18:49:04.55Z</time></trkpt><trkpt lat="37.8098067" lon="15.2309667"><ele>38.25</ele><time>2026-04-24T18:49:05.55Z</time></trkpt><trkpt lat="37.8098867" lon="15.2310933"><ele>38.0</ele><time>2026-04-24T18:49:06.551Z</time></trkpt><trkpt lat="37.8099683" lon="15.2312167"><ele>38.0</ele><time>2026-04-24T18:49:07.55Z</time></trkpt><trkpt lat="37.810045" lon="15.23134"><ele>38.0</ele><time>2026-04-24T18:49:08.551Z</time></trkpt><trkpt lat="37.81012" lon="15.2314633"><ele>38.0</ele><time>2026-04-24T18:49:09.55Z</time></trkpt><trkpt lat="37.8101933" lon="15.2315767"><ele>38.0</ele><time>2026-04-24T18:49:10.55Z</time></trkpt><trkpt lat="37.8102717" lon="15.2316933"><ele>37.5</ele><time>2026-04-24T18:49:11.551Z</time></trkpt><trkpt lat="37.8103483" lon="15.2318183"><ele>37.0</ele><time>2026-04-24T18:49:12.551Z</time></trkpt><trkpt lat="37.81043" lon="15.231945"><ele>36.5</ele><time>2026-04-24T18:49:13.55Z</time></trkpt><trkpt lat="37.8105117" lon="15.2320783"><ele>36.0</ele><time>2026-04-24T18:49:14.551Z</time></trkpt><trkpt lat="37.8105917" lon="15.2322133"><ele>35.0</ele><time>2026-04-24T18:49:15.551Z</time></trkpt><trkpt lat="37.8106733" lon="15.232345"><ele>34.0</ele><time>2026-04-24T18:49:16.55Z</time></trkpt><trkpt lat="37.8107617" lon="15.232475"><ele>33.0</ele><time>2026-04-24T18:49:17.55Z</time></trkpt><trkpt lat="37.8108467" lon="15.2326117"><ele>32.0</ele><time>2026-04-24T18:49:18.55Z</time></trkpt><trkpt lat="37.810935" lon="15.2327517"><ele>32.75</ele><time>2026-04-24T18:49:19.551Z</time></trkpt><trkpt lat="37.8110217" lon="15.2328883"><ele>33.5</ele><time>2026-04-24T18:49:20.55Z</time></trkpt><trkpt lat="37.8111067" lon="15.2330267"><ele>34.25</ele><time>2026-04-24T18:49:21.55Z</time></trkpt><trkpt lat="37.8111883" lon="15.2331633"><ele>35.0</ele><time>2026-04-24T18:49:22.551Z</time></trkpt><trkpt lat="37.811275" lon="15.2333017"><ele>35.0</ele><time>2026-04-24T18:49:23.551Z</time></trkpt><trkpt lat="37.8113633" lon="15.2334417"><ele>35.0</ele><time>2026-04-24T18:49:24.551Z</time></trkpt><trkpt lat="37.8114483" lon="15.2335817"><ele>35.0</ele><time>2026-04-24T18:49:25.55Z</time></trkpt><trkpt lat="37.8115333" lon="15.2337267"><ele>35.0</ele><time>2026-04-24T18:49:26.551Z</time></trkpt><trkpt lat="37.8116233" lon="15.2338667"><ele>35.0</ele><time>2026-04-24T18:49:27.551Z</time></trkpt><trkpt lat="37.81171" lon="15.2340117"><ele>35.0</ele><time>2026-04-24T18:49:28.551Z</time></trkpt><trkpt lat="37.8118" lon="15.2341567"><ele>35.0</ele><time>2026-04-24T18:49:29.55Z</time></trkpt><trkpt lat="37.811895" lon="15.2343033"><ele>35.0</ele><time>2026-04-24T18:49:30.551Z</time></trkpt><trkpt lat="37.8119883" lon="15.23445"><ele>34.5</ele><time>2026-04-24T18:49:31.55Z</time></trkpt><trkpt lat="37.81208" lon="15.2346"><ele>34.0</ele><time>2026-04-24T18:49:32.55Z</time></trkpt><trkpt lat="37.8121683" lon="15.23475"><ele>33.5</ele><time>2026-04-24T18:49:33.551Z</time></trkpt><trkpt lat="37.812255" lon="15.2348917"><ele>33.0</ele><time>2026-04-24T18:49:34.55Z</time></trkpt><trkpt lat="37.8123367" lon="15.2350317"><ele>33.0</ele><time>2026-04-24T18:49:35.551Z</time></trkpt><trkpt lat="37.81242" lon="15.2351667"><ele>33.0</ele><time>2026-04-24T18:49:36.551Z</time></trkpt><trkpt lat="37.8125017" lon="15.235295"><ele>33.0</ele><time>2026-04-24T18:49:37.55Z</time></trkpt><trkpt lat="37.8125767" lon="15.2354183"><ele>33.0</ele><time>2026-04-24T18:49:38.551Z</time></trkpt><trkpt lat="37.8126467" lon="15.235535"><ele>33.6</ele><time>2026-04-24T18:49:39.55Z</time></trkpt><trkpt lat="37.8127017" lon="15.2356467"><ele>34.199999999999996</ele><time>2026-04-24T18:49:40.551Z</time></trkpt><trkpt lat="37.8127483" lon="15.2357517"><ele>34.8</ele><time>2026-04-24T18:49:41.55Z</time></trkpt><trkpt lat="37.8127867" lon="15.2358467"><ele>35.4</ele><time>2026-04-24T18:49:42.55Z</time></trkpt><trkpt lat="37.81282" lon="15.235955"><ele>36.0</ele><time>2026-04-24T18:49:43.55Z</time></trkpt><trkpt lat="37.8128683" lon="15.2360783"><ele>36.0</ele><time>2026-04-24T18:49:44.551Z</time></trkpt><trkpt lat="37.8129167" lon="15.2362167"><ele>36.0</ele><time>2026-04-24T18:49:45.55Z</time></trkpt><trkpt lat="37.8129633" lon="15.2363633"><ele>36.0</ele><time>2026-04-24T18:49:46.551Z</time></trkpt><trkpt lat="37.813015" lon="15.2365167"><ele>36.0</ele><time>2026-04-24T18:49:47.55Z</time></trkpt><trkpt lat="37.8130717" lon="15.2366817"><ele>35.0</ele><time>2026-04-24T18:49:48.55Z</time></trkpt><trkpt lat="37.8131217" lon="15.2368533"><ele>34.0</ele><time>2026-04-24T18:49:49.55Z</time></trkpt><trkpt lat="37.81317" lon="15.2370267"><ele>33.0</ele><time>2026-04-24T18:49:50.55Z</time></trkpt><trkpt lat="37.81322" lon="15.2371983"><ele>32.0</ele><time>2026-04-24T18:49:51.551Z</time></trkpt><trkpt lat="37.813265" lon="15.23737"><ele>31.0</ele><time>2026-04-24T18:49:52.551Z</time></trkpt><trkpt lat="37.8133067" lon="15.2375367"><ele>30.0</ele><time>2026-04-24T18:49:53.55Z</time></trkpt><trkpt lat="37.8133467" lon="15.2376983"><ele>29.0</ele><time>2026-04-24T18:49:54.55Z</time></trkpt><trkpt lat="37.8133933" lon="15.2378617"><ele>28.0</ele><time>2026-04-24T18:49:55.55Z</time></trkpt><trkpt lat="37.81344" lon="15.23802"><ele>27.75</ele><time>2026-04-24T18:49:56.551Z</time></trkpt><trkpt lat="37.8134833" lon="15.2381817"><ele>27.5</ele><time>2026-04-24T18:49:57.551Z</time></trkpt><trkpt lat="37.8135233" lon="15.2383467"><ele>27.25</ele><time>2026-04-24T18:49:58.55Z</time></trkpt><trkpt lat="37.813565" lon="15.238515"><ele>27.0</ele><time>2026-04-24T18:49:59.551Z</time></trkpt><trkpt lat="37.8136083" lon="15.2386817"><ele>27.5</ele><time>2026-04-24T18:50:00.55Z</time></trkpt><trkpt lat="37.81365" lon="15.2388433"><ele>28.0</ele><time>2026-04-24T18:50:01.55Z</time></trkpt><trkpt lat="37.81369" lon="15.239"><ele>28.5</ele><time>2026-04-24T18:50:02.551Z</time></trkpt><trkpt lat="37.81373" lon="15.2391533"><ele>29.0</ele><time>2026-04-24T18:50:03.551Z</time></trkpt><trkpt lat="37.8137667" lon="15.2392983"><ele>29.0</ele><time>2026-04-24T18:50:04.55Z</time></trkpt><trkpt lat="37.8138067" lon="15.2394433"><ele>29.0</ele><time>2026-04-24T18:50:05.551Z</time></trkpt><trkpt lat="37.8138433" lon="15.2395883"><ele>29.0</ele><time>2026-04-24T18:50:06.551Z</time></trkpt><trkpt lat="37.8138933" lon="15.239725"><ele>29.0</ele><time>2026-04-24T18:50:07.551Z</time></trkpt><trkpt lat="37.8139517" lon="15.23985"><ele>29.0</ele><time>2026-04-24T18:50:08.55Z</time></trkpt><trkpt lat="37.814025" lon="15.2399667"><ele>29.0</ele><time>2026-04-24T18:50:09.55Z</time></trkpt><trkpt lat="37.8141067" lon="15.2400833"><ele>29.0</ele><time>2026-04-24T18:50:10.55Z</time></trkpt><trkpt lat="37.8141917" lon="15.2402033"><ele>29.0</ele><time>2026-04-24T18:50:11.551Z</time></trkpt><trkpt lat="37.8142833" lon="15.2403317"><ele>29.0</ele><time>2026-04-24T18:50:12.55Z</time></trkpt><trkpt lat="37.8143717" lon="15.2404617"><ele>29.0</ele><time>2026-04-24T18:50:13.55Z</time></trkpt><trkpt lat="37.814465" lon="15.2405883"><ele>29.0</ele><time>2026-04-24T18:50:14.551Z</time></trkpt><trkpt lat="37.8145533" lon="15.2407117"><ele>29.0</ele><time>2026-04-24T18:50:15.551Z</time></trkpt><trkpt lat="37.8146483" lon="15.2408417"><ele>28.5</ele><time>2026-04-24T18:50:16.551Z</time></trkpt><trkpt lat="37.8147417" lon="15.2409717"><ele>28.0</ele><time>2026-04-24T18:50:17.551Z</time></trkpt><trkpt lat="37.814835" lon="15.241105"><ele>27.5</ele><time>2026-04-24T18:50:18.551Z</time></trkpt><trkpt lat="37.8149283" lon="15.24124"><ele>27.0</ele><time>2026-04-24T18:50:19.551Z</time></trkpt><trkpt lat="37.81502" lon="15.24137"><ele>27.25</ele><time>2026-04-24T18:50:20.55Z</time></trkpt><trkpt lat="37.8151183" lon="15.2415067"><ele>27.5</ele><time>2026-04-24T18:50:21.551Z</time></trkpt><trkpt lat="37.815215" lon="15.2416433"><ele>27.75</ele><time>2026-04-24T18:50:22.551Z</time></trkpt><trkpt lat="37.8153117" lon="15.2417733"><ele>28.0</ele><time>2026-04-24T18:50:23.55Z</time></trkpt><trkpt lat="37.8154067" lon="15.2418983"><ele>27.25</ele><time>2026-04-24T18:50:24.55Z</time></trkpt><trkpt lat="37.8154983" lon="15.2420283"><ele>26.5</ele><time>2026-04-24T18:50:25.55Z</time></trkpt><trkpt lat="37.81559" lon="15.2421583"><ele>25.75</ele><time>2026-04-24T18:50:26.55Z</time></trkpt><trkpt lat="37.8156767" lon="15.242285"><ele>25.0</ele><time>2026-04-24T18:50:27.551Z</time></trkpt><trkpt lat="37.815765" lon="15.2424067"><ele>25.0</ele><time>2026-04-24T18:50:28.55Z</time></trkpt><trkpt lat="37.8158517" lon="15.2425317"><ele>25.0</ele><time>2026-04-24T18:50:29.551Z</time></trkpt><trkpt lat="37.8159483" lon="15.24266"><ele>25.0</ele><time>2026-04-24T18:50:30.55Z</time></trkpt><trkpt lat="37.8160433" lon="15.242795"><ele>25.0</ele><time>2026-04-24T18:50:31.551Z</time></trkpt><trkpt lat="37.8161433" lon="15.2429317"><ele>25.0</ele><time>2026-04-24T18:50:32.551Z</time></trkpt><trkpt lat="37.8162467" lon="15.24307"><ele>25.0</ele><time>2026-04-24T18:50:33.551Z</time></trkpt><trkpt lat="37.816345" lon="15.24321"><ele>25.0</ele><time>2026-04-24T18:50:34.551Z</time></trkpt><trkpt lat="37.816445" lon="15.2433483"><ele>25.0</ele><time>2026-04-24T18:50:35.551Z</time></trkpt><trkpt lat="37.8165517" lon="15.2434867"><ele>25.0</ele><time>2026-04-24T18:50:36.55Z</time></trkpt><trkpt lat="37.8166533" lon="15.2436267"><ele>25.0</ele><time>2026-04-24T18:50:37.55Z</time></trkpt><trkpt lat="37.8167533" lon="15.2437667"><ele>25.0</ele><time>2026-04-24T18:50:38.55Z</time></trkpt><trkpt lat="37.8168483" lon="15.2438967"><ele>25.0</ele><time>2026-04-24T18:50:39.551Z</time></trkpt><trkpt lat="37.8169367" lon="15.2440267"><ele>25.5</ele><time>2026-04-24T18:50:40.551Z</time></trkpt><trkpt lat="37.8170233" lon="15.2441533"><ele>26.0</ele><time>2026-04-24T18:50:41.551Z</time></trkpt><trkpt lat="37.81711" lon="15.24428"><ele>26.5</ele><time>2026-04-24T18:50:42.55Z</time></trkpt><trkpt lat="37.8171983" lon="15.244405"><ele>27.0</ele><time>2026-04-24T18:50:43.55Z</time></trkpt><trkpt lat="37.8172917" lon="15.244525"><ele>27.0</ele><time>2026-04-24T18:50:44.551Z</time></trkpt><trkpt lat="37.817375" lon="15.2446383"><ele>27.0</ele><time>2026-04-24T18:50:45.551Z</time></trkpt><trkpt lat="37.8174467" lon="15.24475"><ele>27.0</ele><time>2026-04-24T18:50:46.55Z</time></trkpt><trkpt lat="37.8175117" lon="15.244865"><ele>27.0</ele><time>2026-04-24T18:50:47.55Z</time></trkpt><trkpt lat="37.8175733" lon="15.2449883"><ele>27.0</ele><time>2026-04-24T18:50:48.55Z</time></trkpt><trkpt lat="37.817625" lon="15.2451233"><ele>27.0</ele><time>2026-04-24T18:50:49.551Z</time></trkpt><trkpt lat="37.81768" lon="15.2452617"><ele>27.0</ele><time>2026-04-24T18:50:50.55Z</time></trkpt><trkpt lat="37.8177283" lon="15.24541"><ele>27.0</ele><time>2026-04-24T18:50:51.551Z</time></trkpt><trkpt lat="37.8177767" lon="15.2455617"><ele>26.75</ele><time>2026-04-24T18:50:52.55Z</time></trkpt><trkpt lat="37.8178233" lon="15.2457167"><ele>26.5</ele><time>2026-04-24T18:50:53.55Z</time></trkpt><trkpt lat="37.8178733" lon="15.2458717"><ele>26.25</ele><time>2026-04-24T18:50:54.55Z</time></trkpt><trkpt lat="37.8179183" lon="15.2460333"><ele>26.0</ele><time>2026-04-24T18:50:55.55Z</time></trkpt><trkpt lat="37.81796" lon="15.2461983"><ele>26.0</ele><time>2026-04-24T18:50:56.55Z</time></trkpt><trkpt lat="37.8179933" lon="15.2463683"><ele>26.0</ele><time>2026-04-24T18:50:57.55Z</time></trkpt><trkpt lat="37.8180267" lon="15.2465367"><ele>26.0</ele><time>2026-04-24T18:50:58.551Z</time></trkpt><trkpt lat="37.818055" lon="15.2467033"><ele>26.0</ele><time>2026-04-24T18:50:59.55Z</time></trkpt><trkpt lat="37.8180883" lon="15.2468667"><ele>26.25</ele><time>2026-04-24T18:51:00.55Z</time></trkpt><trkpt lat="37.8181217" lon="15.2470267"><ele>26.5</ele><time>2026-04-24T18:51:01.551Z</time></trkpt><trkpt lat="37.8181633" lon="15.2471867"><ele>26.75</ele><time>2026-04-24T18:51:02.55Z</time></trkpt><trkpt lat="37.8182117" lon="15.247345"><ele>27.0</ele><time>2026-04-24T18:51:03.551Z</time></trkpt><trkpt lat="37.81826" lon="15.2475"><ele>27.0</ele><time>2026-04-24T18:51:04.551Z</time></trkpt><trkpt lat="37.8183133" lon="15.2476517"><ele>27.0</ele><time>2026-04-24T18:51:05.55Z</time></trkpt><trkpt lat="37.8183817" lon="15.2477983"><ele>27.0</ele><time>2026-04-24T18:51:06.55Z</time></trkpt><trkpt lat="37.8184533" lon="15.2479483"><ele>27.0</ele><time>2026-04-24T18:51:07.55Z</time></trkpt><trkpt lat="37.818525" lon="15.24809"><ele>28.0</ele><time>2026-04-24T18:51:08.551Z</time></trkpt><trkpt lat="37.8185967" lon="15.248235"><ele>29.0</ele><time>2026-04-24T18:51:09.551Z</time></trkpt><trkpt lat="37.8186633" lon="15.2483783"><ele>30.0</ele><time>2026-04-24T18:51:10.551Z</time></trkpt><trkpt lat="37.81873" lon="15.2485233"><ele>31.0</ele><time>2026-04-24T18:51:11.551Z</time></trkpt><trkpt lat="37.81879" lon="15.248655"><ele>31.0</ele><time>2026-04-24T18:51:12.551Z</time></trkpt><trkpt lat="37.8188483" lon="15.2487733"><ele>31.0</ele><time>2026-04-24T18:51:13.551Z</time></trkpt><trkpt lat="37.8189067" lon="15.2488883"><ele>31.0</ele><time>2026-04-24T18:51:14.55Z</time></trkpt><trkpt lat="37.81897" lon="15.2490033"><ele>31.0</ele><time>2026-04-24T18:51:15.55Z</time></trkpt><trkpt lat="37.8190283" lon="15.24912"><ele>31.0</ele><time>2026-04-24T18:51:16.551Z</time></trkpt><trkpt lat="37.8190833" lon="15.2492333"><ele>31.0</ele><time>2026-04-24T18:51:17.551Z</time></trkpt><trkpt lat="37.8191417" lon="15.24935"><ele>31.0</ele><time>2026-04-24T18:51:18.55Z</time></trkpt><trkpt lat="37.819205" lon="15.2494617"><ele>31.0</ele><time>2026-04-24T18:51:19.551Z</time></trkpt><trkpt lat="37.81926" lon="15.249575"><ele>31.0</ele><time>2026-04-24T18:51:20.55Z</time></trkpt><trkpt lat="37.8193217" lon="15.2496883"><ele>31.0</ele><time>2026-04-24T18:51:21.551Z</time></trkpt><trkpt lat="37.8193833" lon="15.2498067"><ele>31.25</ele><time>2026-04-24T18:51:22.551Z</time></trkpt><trkpt lat="37.8194467" lon="15.24993"><ele>31.5</ele><time>2026-04-24T18:51:23.551Z</time></trkpt><trkpt lat="37.8195117" lon="15.2500517"><ele>31.75</ele><time>2026-04-24T18:51:24.55Z</time></trkpt><trkpt lat="37.8195733" lon="15.2501683"><ele>32.0</ele><time>2026-04-24T18:51:25.551Z</time></trkpt><trkpt lat="37.8196333" lon="15.2502833"><ele>32.0</ele><time>2026-04-24T18:51:26.551Z</time></trkpt><trkpt lat="37.8196917" lon="15.2504067"><ele>32.0</ele><time>2026-04-24T18:51:27.55Z</time></trkpt><trkpt lat="37.8197617" lon="15.25053"><ele>32.0</ele><time>2026-04-24T18:51:28.551Z</time></trkpt><trkpt lat="37.819825" lon="15.250655"><ele>32.0</ele><time>2026-04-24T18:51:29.551Z</time></trkpt><trkpt lat="37.8198883" lon="15.2507817"><ele>32.0</ele><time>2026-04-24T18:51:30.55Z</time></trkpt><trkpt lat="37.819955" lon="15.25091"><ele>32.0</ele><time>2026-04-24T18:51:31.55Z</time></trkpt><trkpt lat="37.82002" lon="15.25104"><ele>32.0</ele><time>2026-04-24T18:51:32.551Z</time></trkpt><trkpt lat="37.8200833" lon="15.2511717"><ele>32.0</ele><time>2026-04-24T18:51:33.551Z</time></trkpt><trkpt lat="37.820145" lon="15.2512967"><ele>32.0</ele><time>2026-04-24T18:51:34.551Z</time></trkpt><trkpt lat="37.820215" lon="15.251425"><ele>32.0</ele><time>2026-04-24T18:51:35.55Z</time></trkpt><trkpt lat="37.820285" lon="15.251555"><ele>32.0</ele><time>2026-04-24T18:51:36.55Z</time></trkpt><trkpt lat="37.82035" lon="15.2516883"><ele>32.0</ele><time>2026-04-24T18:51:37.551Z</time></trkpt><trkpt lat="37.8204133" lon="15.2518067"><ele>32.0</ele><time>2026-04-24T18:51:38.55Z</time></trkpt><trkpt lat="37.82047" lon="15.2519183"><ele>32.0</ele><time>2026-04-24T18:51:39.551Z</time></trkpt><trkpt lat="37.820525" lon="15.2520333"><ele>32.0</ele><time>2026-04-24T18:51:40.551Z</time></trkpt><trkpt lat="37.82058" lon="15.2521567"><ele>32.0</ele><time>2026-04-24T18:51:41.55Z</time></trkpt><trkpt lat="37.82063" lon="15.2522783"><ele>32.0</ele><time>2026-04-24T18:51:42.55Z</time></trkpt><trkpt lat="37.8206817" lon="15.2523983"><ele>31.0</ele><time>2026-04-24T18:51:43.551Z</time></trkpt><trkpt lat="37.82073" lon="15.2525217"><ele>30.0</ele><time>2026-04-24T18:51:44.55Z</time></trkpt><trkpt lat="37.820775" lon="15.2526567"><ele>29.0</ele><time>2026-04-24T18:51:45.551Z</time></trkpt><trkpt lat="37.8208083" lon="15.2527983"><ele>28.0</ele><time>2026-04-24T18:51:46.551Z</time></trkpt><trkpt lat="37.820835" lon="15.2529483"><ele>28.0</ele><time>2026-04-24T18:51:47.551Z</time></trkpt><trkpt lat="37.8208517" lon="15.2531"><ele>28.0</ele><time>2026-04-24T18:51:48.55Z</time></trkpt><trkpt lat="37.8208583" lon="15.2532483"><ele>28.0</ele><time>2026-04-24T18:51:49.55Z</time></trkpt><trkpt lat="37.8208633" lon="15.2534"><ele>28.0</ele><time>2026-04-24T18:51:50.55Z</time></trkpt><trkpt lat="37.8208567" lon="15.2535483"><ele>27.5</ele><time>2026-04-24T18:51:51.55Z</time></trkpt><trkpt lat="37.820845" lon="15.2537"><ele>27.0</ele><time>2026-04-24T18:51:52.551Z</time></trkpt><trkpt lat="37.8208283" lon="15.2538517"><ele>26.5</ele><time>2026-04-24T18:51:53.55Z</time></trkpt><trkpt lat="37.8208067" lon="15.2540067"><ele>26.0</ele><time>2026-04-24T18:51:54.551Z</time></trkpt><trkpt lat="37.82079" lon="15.2541583"><ele>26.0</ele><time>2026-04-24T18:51:55.55Z</time></trkpt><trkpt lat="37.8207733" lon="15.2543167"><ele>26.0</ele><time>2026-04-24T18:51:56.55Z</time></trkpt><trkpt lat="37.82075" lon="15.25448"><ele>26.0</ele><time>2026-04-24T18:51:57.551Z</time></trkpt><trkpt lat="37.8207233" lon="15.2546367"><ele>26.0</ele><time>2026-04-24T18:51:58.551Z</time></trkpt><trkpt lat="37.8206983" lon="15.2547933"><ele>26.0</ele><time>2026-04-24T18:51:59.551Z</time></trkpt><trkpt lat="37.8206767" lon="15.2549467"><ele>26.0</ele><time>2026-04-24T18:52:00.55Z</time></trkpt><trkpt lat="37.820655" lon="15.25509"><ele>26.0</ele><time>2026-04-24T18:52:01.55Z</time></trkpt><trkpt lat="37.8206283" lon="15.2552383"><ele>26.0</ele><time>2026-04-24T18:52:02.551Z</time></trkpt><trkpt lat="37.8206067" lon="15.2553833"><ele>26.0</ele><time>2026-04-24T18:52:03.551Z</time></trkpt><trkpt lat="37.8205883" lon="15.2555333"><ele>26.0</ele><time>2026-04-24T18:52:04.551Z</time></trkpt><trkpt lat="37.8205633" lon="15.2556933"><ele>26.0</ele><time>2026-04-24T18:52:05.551Z</time></trkpt><trkpt lat="37.8205383" lon="15.2558483"><ele>26.0</ele><time>2026-04-24T18:52:06.55Z</time></trkpt><trkpt lat="37.8205183" lon="15.2559983"><ele>26.0</ele><time>2026-04-24T18:52:07.55Z</time></trkpt><trkpt lat="37.8204967" lon="15.2561367"><ele>26.0</ele><time>2026-04-24T18:52:08.55Z</time></trkpt><trkpt lat="37.8204767" lon="15.2562783"><ele>26.0</ele><time>2026-04-24T18:52:09.551Z</time></trkpt><trkpt lat="37.820445" lon="15.2564117"><ele>26.0</ele><time>2026-04-24T18:52:10.55Z</time></trkpt><trkpt lat="37.820425" lon="15.2565317"><ele>26.0</ele><time>2026-04-24T18:52:11.551Z</time></trkpt><trkpt lat="37.8204067" lon="15.2566417"><ele>25.666666666666664</ele><time>2026-04-24T18:52:12.551Z</time></trkpt><trkpt lat="37.820395" lon="15.2567383"><ele>25.333333333333332</ele><time>2026-04-24T18:52:13.551Z</time></trkpt><trkpt lat="37.8203783" lon="15.2568367"><ele>25.0</ele><time>2026-04-24T18:52:14.551Z</time></trkpt><trkpt lat="37.8203617" lon="15.2569383"><ele>24.666666666666664</ele><time>2026-04-24T18:52:15.551Z</time></trkpt><trkpt lat="37.8203483" lon="15.2570433"><ele>24.333333333333332</ele><time>2026-04-24T18:52:16.55Z</time></trkpt><trkpt lat="37.8203333" lon="15.2571517"><ele>24.0</ele><time>2026-04-24T18:52:17.551Z</time></trkpt><trkpt lat="37.82032" lon="15.25726"><ele>24.166666666666668</ele><time>2026-04-24T18:52:18.551Z</time></trkpt><trkpt lat="37.8203117" lon="15.2573667"><ele>24.333333333333336</ele><time>2026-04-24T18:52:19.55Z</time></trkpt><trkpt lat="37.8203033" lon="15.25748"><ele>24.5</ele><time>2026-04-24T18:52:20.55Z</time></trkpt><trkpt lat="37.8202767" lon="15.2575883"><ele>24.666666666666668</ele><time>2026-04-24T18:52:21.551Z</time></trkpt><trkpt lat="37.8202683" lon="15.2576967"><ele>24.833333333333336</ele><time>2026-04-24T18:52:22.551Z</time></trkpt><trkpt lat="37.8202567" lon="15.2578083"><ele>25.0</ele><time>2026-04-24T18:52:23.551Z</time></trkpt><trkpt lat="37.820255" lon="15.257915"><ele>25.0</ele><time>2026-04-24T18:52:24.551Z</time></trkpt><trkpt lat="37.8202533" lon="15.25803"><ele>25.0</ele><time>2026-04-24T18:52:25.55Z</time></trkpt><trkpt lat="37.8202533" lon="15.2581467"><ele>25.0</ele><time>2026-04-24T18:52:26.55Z</time></trkpt><trkpt lat="37.8202567" lon="15.2582683"><ele>25.0</ele><time>2026-04-24T18:52:27.551Z</time></trkpt><trkpt lat="37.8202583" lon="15.2584017"><ele>25.0</ele><time>2026-04-24T18:52:28.551Z</time></trkpt><trkpt lat="37.8202567" lon="15.2585333"><ele>25.0</ele><time>2026-04-24T18:52:29.55Z</time></trkpt><trkpt lat="37.8202617" lon="15.25867"><ele>25.0</ele><time>2026-04-24T18:52:30.551Z</time></trkpt><trkpt lat="37.8202633" lon="15.2587983"><ele>25.0</ele><time>2026-04-24T18:52:31.55Z</time></trkpt><trkpt lat="37.82027" lon="15.2589267"><ele>25.0</ele><time>2026-04-24T18:52:32.55Z</time></trkpt><trkpt lat="37.8202783" lon="15.2590533"><ele>25.0</ele><time>2026-04-24T18:52:33.551Z</time></trkpt><trkpt lat="37.8202867" lon="15.2591783"><ele>25.0</ele><time>2026-04-24T18:52:34.551Z</time></trkpt><trkpt lat="37.8202983" lon="15.259305"><ele>25.0</ele><time>2026-04-24T18:52:35.551Z</time></trkpt><trkpt lat="37.820315" lon="15.2594317"><ele>25.0</ele><time>2026-04-24T18:52:36.55Z</time></trkpt><trkpt lat="37.820335" lon="15.2595583"><ele>25.0</ele><time>2026-04-24T18:52:37.551Z</time></trkpt><trkpt lat="37.8203567" lon="15.2596817"><ele>25.0</ele><time>2026-04-24T18:52:38.55Z</time></trkpt><trkpt lat="37.82037" lon="15.2598033"><ele>24.6</ele><time>2026-04-24T18:52:39.551Z</time></trkpt><trkpt lat="37.8203983" lon="15.2599317"><ele>24.2</ele><time>2026-04-24T18:52:40.551Z</time></trkpt><trkpt lat="37.8204233" lon="15.260055"><ele>23.799999999999997</ele><time>2026-04-24T18:52:41.55Z</time></trkpt><trkpt lat="37.8204433" lon="15.2601683"><ele>23.4</ele><time>2026-04-24T18:52:42.55Z</time></trkpt><trkpt lat="37.8204717" lon="15.2602683"><ele>23.0</ele><time>2026-04-24T18:52:43.551Z</time></trkpt><trkpt lat="37.8204967" lon="15.26037"><ele>23.0</ele><time>2026-04-24T18:52:44.551Z</time></trkpt><trkpt lat="37.8205233" lon="15.2604717"><ele>23.0</ele><time>2026-04-24T18:52:45.551Z</time></trkpt><trkpt lat="37.8205533" lon="15.2605633"><ele>23.0</ele><time>2026-04-24T18:52:46.551Z</time></trkpt><trkpt lat="37.82058" lon="15.2606567"><ele>23.0</ele><time>2026-04-24T18:52:47.551Z</time></trkpt><trkpt lat="37.8206033" lon="15.2607517"><ele>23.0</ele><time>2026-04-24T18:52:48.551Z</time></trkpt><trkpt lat="37.8206317" lon="15.26085"><ele>23.0</ele><time>2026-04-24T18:52:49.55Z</time></trkpt><trkpt lat="37.8206633" lon="15.26095"><ele>23.0</ele><time>2026-04-24T18:52:50.55Z</time></trkpt><trkpt lat="37.8206983" lon="15.2610633"><ele>23.0</ele><time>2026-04-24T18:52:51.551Z</time></trkpt><trkpt lat="37.8207333" lon="15.26117"><ele>23.0</ele><time>2026-04-24T18:52:52.551Z</time></trkpt><trkpt lat="37.8207717" lon="15.261275"><ele>23.0</ele><time>2026-04-24T18:52:53.55Z</time></trkpt><trkpt lat="37.8207967" lon="15.2613817"><ele>23.0</ele><time>2026-04-24T18:52:54.55Z</time></trkpt><trkpt lat="37.820825" lon="15.2614783"><ele>23.0</ele><time>2026-04-24T18:52:55.551Z</time></trkpt><trkpt lat="37.82085" lon="15.2615733"><ele>22.666666666666668</ele><time>2026-04-24T18:52:56.551Z</time></trkpt><trkpt lat="37.8208767" lon="15.2616683"><ele>22.333333333333336</ele><time>2026-04-24T18:52:57.551Z</time></trkpt><trkpt lat="37.82091" lon="15.2617633"><ele>22.0</ele><time>2026-04-24T18:52:58.551Z</time></trkpt><trkpt lat="37.82094" lon="15.2618567"><ele>21.666666666666668</ele><time>2026-04-24T18:52:59.55Z</time></trkpt><trkpt lat="37.8209667" lon="15.2619483"><ele>21.333333333333332</ele><time>2026-04-24T18:53:00.55Z</time></trkpt><trkpt lat="37.820995" lon="15.262045"><ele>21.0</ele><time>2026-04-24T18:53:01.551Z</time></trkpt><trkpt lat="37.8210267" lon="15.26215"><ele>21.0</ele><time>2026-04-24T18:53:02.551Z</time></trkpt><trkpt lat="37.8210683" lon="15.2622633"><ele>21.0</ele><time>2026-04-24T18:53:03.55Z</time></trkpt><trkpt lat="37.8211017" lon="15.2623833"><ele>21.0</ele><time>2026-04-24T18:53:04.55Z</time></trkpt><trkpt lat="37.8211383" lon="15.26251"><ele>21.0</ele><time>2026-04-24T18:53:05.551Z</time></trkpt><trkpt lat="37.82118" lon="15.26264"><ele>21.0</ele><time>2026-04-24T18:53:06.55Z</time></trkpt><trkpt lat="37.8212233" lon="15.2627717"><ele>21.0</ele><time>2026-04-24T18:53:07.551Z</time></trkpt><trkpt lat="37.8212733" lon="15.2628917"><ele>21.0</ele><time>2026-04-24T18:53:08.551Z</time></trkpt><trkpt lat="37.8213317" lon="15.2629917"><ele>21.0</ele><time>2026-04-24T18:53:09.55Z</time></trkpt><trkpt lat="37.8213883" lon="15.263085"><ele>21.0</ele><time>2026-04-24T18:53:10.55Z</time></trkpt><trkpt lat="37.8214433" lon="15.26317"><ele>21.0</ele><time>2026-04-24T18:53:11.55Z</time></trkpt><trkpt lat="37.8215" lon="15.2632533"><ele>21.200000000000003</ele><time>2026-04-24T18:53:12.55Z</time></trkpt><trkpt lat="37.821565" lon="15.2633333"><ele>21.400000000000002</ele><time>2026-04-24T18:53:13.55Z</time></trkpt><trkpt lat="37.821635" lon="15.2634133"><ele>21.6</ele><time>2026-04-24T18:53:14.551Z</time></trkpt><trkpt lat="37.8217033" lon="15.263495"><ele>21.8</ele><time>2026-04-24T18:53:15.551Z</time></trkpt><trkpt lat="37.8217683" lon="15.2635817"><ele>22.0</ele><time>2026-04-24T18:53:16.551Z</time></trkpt><trkpt lat="37.821835" lon="15.2636633"><ele>21.833333333333332</ele><time>2026-04-24T18:53:17.551Z</time></trkpt><trkpt lat="37.8219" lon="15.2637383"><ele>21.666666666666664</ele><time>2026-04-24T18:53:18.551Z</time></trkpt><trkpt lat="37.8219583" lon="15.263815"><ele>21.5</ele><time>2026-04-24T18:53:19.552Z</time></trkpt><trkpt lat="37.822025" lon="15.2638783"><ele>21.333333333333332</ele><time>2026-04-24T18:53:20.552Z</time></trkpt><trkpt lat="37.8220867" lon="15.26395"><ele>21.166666666666668</ele><time>2026-04-24T18:53:21.552Z</time></trkpt><trkpt lat="37.8221483" lon="15.264035"><ele>21.0</ele><time>2026-04-24T18:53:22.551Z</time></trkpt><trkpt lat="37.822225" lon="15.2641183"><ele>21.0</ele><time>2026-04-24T18:53:23.551Z</time></trkpt><trkpt lat="37.8223033" lon="15.2642117"><ele>21.0</ele><time>2026-04-24T18:53:24.551Z</time></trkpt><trkpt lat="37.822375" lon="15.264315"><ele>21.0</ele><time>2026-04-24T18:53:25.552Z</time></trkpt><trkpt lat="37.8224533" lon="15.2644183"><ele>21.0</ele><time>2026-04-24T18:53:26.552Z</time></trkpt><trkpt lat="37.8225333" lon="15.264525"><ele>21.0</ele><time>2026-04-24T18:53:27.551Z</time></trkpt><trkpt lat="37.82262" lon="15.2646267"><ele>21.0</ele><time>2026-04-24T18:53:28.552Z</time></trkpt><trkpt lat="37.8226983" lon="15.2647217"><ele>21.0</ele><time>2026-04-24T18:53:29.552Z</time></trkpt><trkpt lat="37.822775" lon="15.2648117"><ele>21.0</ele><time>2026-04-24T18:53:30.552Z</time></trkpt><trkpt lat="37.8228417" lon="15.2649017"><ele>21.0</ele><time>2026-04-24T18:53:31.552Z</time></trkpt><trkpt lat="37.8229167" lon="15.2649883"><ele>21.0</ele><time>2026-04-24T18:53:32.551Z</time></trkpt><trkpt lat="37.8229883" lon="15.2650733"><ele>21.6</ele><time>2026-04-24T18:53:33.552Z</time></trkpt><trkpt lat="37.8230567" lon="15.2651517"><ele>22.200000000000003</ele><time>2026-04-24T18:53:34.552Z</time></trkpt><trkpt lat="37.82312" lon="15.2652217"><ele>22.799999999999997</ele><time>2026-04-24T18:53:35.551Z</time></trkpt><trkpt lat="37.823185" lon="15.2652867"><ele>23.4</ele><time>2026-04-24T18:53:36.552Z</time></trkpt><trkpt lat="37.82327" lon="15.2653533"><ele>24.0</ele><time>2026-04-24T18:53:37.552Z</time></trkpt><trkpt lat="37.8233617" lon="15.2654183"><ele>24.0</ele><time>2026-04-24T18:53:38.552Z</time></trkpt><trkpt lat="37.8234567" lon="15.2654817"><ele>24.0</ele><time>2026-04-24T18:53:39.552Z</time></trkpt><trkpt lat="37.8235483" lon="15.2655317"><ele>24.0</ele><time>2026-04-24T18:53:40.551Z</time></trkpt><trkpt lat="37.8236383" lon="15.26558"><ele>24.0</ele><time>2026-04-24T18:53:41.551Z</time></trkpt><trkpt lat="37.82373" lon="15.2656217"><ele>24.0</ele><time>2026-04-24T18:53:42.552Z</time></trkpt><trkpt lat="37.8238217" lon="15.2656633"><ele>24.0</ele><time>2026-04-24T18:53:43.552Z</time></trkpt><trkpt lat="37.8239183" lon="15.26572"><ele>24.0</ele><time>2026-04-24T18:53:44.551Z</time></trkpt><trkpt lat="37.8240017" lon="15.2657617"><ele>24.0</ele><time>2026-04-24T18:53:45.552Z</time></trkpt><trkpt lat="37.824085" lon="15.265795"><ele>24.0</ele><time>2026-04-24T18:53:46.551Z</time></trkpt><trkpt lat="37.8241817" lon="15.2658433"><ele>24.0</ele><time>2026-04-24T18:53:47.552Z</time></trkpt><trkpt lat="37.824285" lon="15.265885"><ele>23.4</ele><time>2026-04-24T18:53:48.552Z</time></trkpt><trkpt lat="37.82437" lon="15.2659367"><ele>22.799999999999997</ele><time>2026-04-24T18:53:49.551Z</time></trkpt><trkpt lat="37.8244583" lon="15.2659883"><ele>22.200000000000003</ele><time>2026-04-24T18:53:50.552Z</time></trkpt><trkpt lat="37.824555" lon="15.2660433"><ele>21.6</ele><time>2026-04-24T18:53:51.551Z</time></trkpt><trkpt lat="37.8246533" lon="15.2660967"><ele>21.0</ele><time>2026-04-24T18:53:52.552Z</time></trkpt><trkpt lat="37.8247533" lon="15.2661533"><ele>21.0</ele><time>2026-04-24T18:53:53.552Z</time></trkpt><trkpt lat="37.8248383" lon="15.2661983"><ele>21.0</ele><time>2026-04-24T18:53:54.551Z</time></trkpt><trkpt lat="37.8249" lon="15.2662317"><ele>21.0</ele><time>2026-04-24T18:53:55.551Z</time></trkpt><trkpt lat="37.8249817" lon="15.26628"><ele>21.0</ele><time>2026-04-24T18:53:57.552Z</time></trkpt><trkpt lat="37.8250817" lon="15.2663317"><ele>21.0</ele><time>2026-04-24T18:53:59.552Z</time></trkpt><trkpt lat="37.825165" lon="15.2663767"><ele>21.0</ele><time>2026-04-24T18:54:01.552Z</time></trkpt><trkpt lat="37.825225" lon="15.2664117"><ele>21.0</ele><time>2026-04-24T18:54:02.552Z</time></trkpt><trkpt lat="37.8252933" lon="15.2664467"><ele>21.0</ele><time>2026-04-24T18:54:03.551Z</time></trkpt><trkpt lat="37.8253683" lon="15.266475"><ele>21.0</ele><time>2026-04-24T18:54:04.552Z</time></trkpt><trkpt lat="37.82545" lon="15.2665117"><ele>21.0</ele><time>2026-04-24T18:54:05.552Z</time></trkpt><trkpt lat="37.82553" lon="15.26654"><ele>21.0</ele><time>2026-04-24T18:54:06.551Z</time></trkpt><trkpt lat="37.825615" lon="15.2665783"><ele>21.0</ele><time>2026-04-24T18:54:07.551Z</time></trkpt><trkpt lat="37.8257033" lon="15.2666167"><ele>21.0</ele><time>2026-04-24T18:54:08.551Z</time></trkpt><trkpt lat="37.8257883" lon="15.2666517"><ele>21.0</ele><time>2026-04-24T18:54:09.552Z</time></trkpt><trkpt lat="37.8258583" lon="15.2666883"><ele>21.0</ele><time>2026-04-24T18:54:10.552Z</time></trkpt><trkpt lat="37.8259283" lon="15.2667283"><ele>21.0</ele><time>2026-04-24T18:54:11.552Z</time></trkpt><trkpt lat="37.8260033" lon="15.26677"><ele>21.0</ele><time>2026-04-24T18:54:12.551Z</time></trkpt><trkpt lat="37.82609" lon="15.2668117"><ele>21.0</ele><time>2026-04-24T18:54:13.552Z</time></trkpt><trkpt lat="37.8261783" lon="15.2668683"><ele>21.200000000000003</ele><time>2026-04-24T18:54:14.551Z</time></trkpt><trkpt lat="37.8262667" lon="15.2669167"><ele>21.400000000000002</ele><time>2026-04-24T18:54:15.552Z</time></trkpt><trkpt lat="37.826355" lon="15.2669667"><ele>21.6</ele><time>2026-04-24T18:54:16.551Z</time></trkpt><trkpt lat="37.82644" lon="15.267025"><ele>21.8</ele><time>2026-04-24T18:54:17.552Z</time></trkpt><trkpt lat="37.8265267" lon="15.2670767"><ele>22.0</ele><time>2026-04-24T18:54:18.551Z</time></trkpt><trkpt lat="37.826625" lon="15.2671283"><ele>22.0</ele><time>2026-04-24T18:54:19.552Z</time></trkpt><trkpt lat="37.8267317" lon="15.2671817"><ele>22.0</ele><time>2026-04-24T18:54:20.552Z</time></trkpt><trkpt lat="37.8268483" lon="15.2672333"><ele>22.0</ele><time>2026-04-24T18:54:21.552Z</time></trkpt><trkpt lat="37.82696" lon="15.2672967"><ele>22.0</ele><time>2026-04-24T18:54:22.551Z</time></trkpt><trkpt lat="37.827075" lon="15.2673583"><ele>21.25</ele><time>2026-04-24T18:54:23.552Z</time></trkpt><trkpt lat="37.827185" lon="15.267415"><ele>20.5</ele><time>2026-04-24T18:54:24.551Z</time></trkpt><trkpt lat="37.8273017" lon="15.2674733"><ele>19.75</ele><time>2026-04-24T18:54:25.552Z</time></trkpt><trkpt lat="37.827415" lon="15.2675383"><ele>19.0</ele><time>2026-04-24T18:54:26.552Z</time></trkpt><trkpt lat="37.82753" lon="15.2676017"><ele>19.0</ele><time>2026-04-24T18:54:27.551Z</time></trkpt><trkpt lat="37.8276417" lon="15.26766"><ele>19.0</ele><time>2026-04-24T18:54:28.552Z</time></trkpt><trkpt lat="37.8277567" lon="15.2677133"><ele>19.0</ele><time>2026-04-24T18:54:29.552Z</time></trkpt><trkpt lat="37.8278683" lon="15.26776"><ele>19.0</ele><time>2026-04-24T18:54:30.552Z</time></trkpt><trkpt lat="37.82798" lon="15.2677883"><ele>20.0</ele><time>2026-04-24T18:54:31.551Z</time></trkpt><trkpt lat="37.8280883" lon="15.2678083"><ele>21.0</ele><time>2026-04-24T18:54:32.552Z</time></trkpt><trkpt lat="37.8281917" lon="15.267825"><ele>22.0</ele><time>2026-04-24T18:54:33.551Z</time></trkpt><trkpt lat="37.8282917" lon="15.2678367"><ele>23.0</ele><time>2026-04-24T18:54:34.551Z</time></trkpt><trkpt lat="37.828385" lon="15.267845"><ele>24.0</ele><time>2026-04-24T18:54:35.552Z</time></trkpt><trkpt lat="37.8284783" lon="15.2678583"><ele>24.6</ele><time>2026-04-24T18:54:36.551Z</time></trkpt><trkpt lat="37.8285733" lon="15.2678683"><ele>25.2</ele><time>2026-04-24T18:54:37.551Z</time></trkpt><trkpt lat="37.8286667" lon="15.2678783"><ele>25.800000000000004</ele><time>2026-04-24T18:54:38.551Z</time></trkpt><trkpt lat="37.8287617" lon="15.2678933"><ele>26.400000000000002</ele><time>2026-04-24T18:54:39.552Z</time></trkpt><trkpt lat="37.8288517" lon="15.2679"><ele>27.0</ele><time>2026-04-24T18:54:40.552Z</time></trkpt><trkpt lat="37.8289317" lon="15.26791"><ele>27.0</ele><time>2026-04-24T18:54:41.552Z</time></trkpt><trkpt lat="37.82901" lon="15.26792"><ele>27.0</ele><time>2026-04-24T18:54:42.551Z</time></trkpt><trkpt lat="37.8290867" lon="15.2679183"><ele>27.0</ele><time>2026-04-24T18:54:43.551Z</time></trkpt><trkpt lat="37.8291633" lon="15.26792"><ele>27.0</ele><time>2026-04-24T18:54:44.551Z</time></trkpt><trkpt lat="37.8292517" lon="15.26792"><ele>27.0</ele><time>2026-04-24T18:54:45.551Z</time></trkpt><trkpt lat="37.8293333" lon="15.267925"><ele>27.0</ele><time>2026-04-24T18:54:46.552Z</time></trkpt><trkpt lat="37.829415" lon="15.2679367"><ele>27.8</ele><time>2026-04-24T18:54:47.552Z</time></trkpt><trkpt lat="37.829505" lon="15.2679533"><ele>28.6</ele><time>2026-04-24T18:54:48.552Z</time></trkpt><trkpt lat="37.829595" lon="15.2679767"><ele>29.400000000000002</ele><time>2026-04-24T18:54:49.552Z</time></trkpt><trkpt lat="37.8296883" lon="15.2680117"><ele>30.200000000000003</ele><time>2026-04-24T18:54:50.552Z</time></trkpt><trkpt lat="37.829775" lon="15.26803"><ele>31.0</ele><time>2026-04-24T18:54:51.551Z</time></trkpt><trkpt lat="37.8298583" lon="15.268045"><ele>31.0</ele><time>2026-04-24T18:54:52.552Z</time></trkpt><trkpt lat="37.8299433" lon="15.26806"><ele>31.0</ele><time>2026-04-24T18:54:53.552Z</time></trkpt><trkpt lat="37.83003" lon="15.26807"><ele>31.0</ele><time>2026-04-24T18:54:54.552Z</time></trkpt><trkpt lat="37.8301233" lon="15.2680967"><ele>31.0</ele><time>2026-04-24T18:54:55.551Z</time></trkpt><trkpt lat="37.8302183" lon="15.2681217"><ele>31.0</ele><time>2026-04-24T18:54:56.551Z</time></trkpt><trkpt lat="37.8303133" lon="15.2681483"><ele>28.2</ele><time>2026-04-24T18:54:57.551Z</time></trkpt><trkpt lat="37.8304067" lon="15.268175"><ele>25.400000000000002</ele><time>2026-04-24T18:54:58.552Z</time></trkpt><trkpt lat="37.8304933" lon="15.2681983"><ele>22.6</ele><time>2026-04-24T18:54:59.551Z</time></trkpt><trkpt lat="37.8305783" lon="15.2682217"><ele>19.8</ele><time>2026-04-24T18:55:00.552Z</time></trkpt><trkpt lat="37.8306667" lon="15.26824"><ele>17.0</ele><time>2026-04-24T18:55:01.552Z</time></trkpt><trkpt lat="37.83076" lon="15.26826"><ele>17.0</ele><time>2026-04-24T18:55:02.551Z</time></trkpt><trkpt lat="37.830855" lon="15.2682883"><ele>17.0</ele><time>2026-04-24T18:55:03.552Z</time></trkpt><trkpt lat="37.83095" lon="15.268315"><ele>17.0</ele><time>2026-04-24T18:55:04.551Z</time></trkpt><trkpt lat="37.831045" lon="15.268345"><ele>17.0</ele><time>2026-04-24T18:55:05.551Z</time></trkpt><trkpt lat="37.8311433" lon="15.2683833"><ele>17.0</ele><time>2026-04-24T18:55:06.552Z</time></trkpt><trkpt lat="37.8312317" lon="15.26842"><ele>17.166666666666668</ele><time>2026-04-24T18:55:07.552Z</time></trkpt><trkpt lat="37.8313133" lon="15.2684533"><ele>17.333333333333336</ele><time>2026-04-24T18:55:08.552Z</time></trkpt><trkpt lat="37.8313967" lon="15.268485"><ele>17.5</ele><time>2026-04-24T18:55:09.552Z</time></trkpt><trkpt lat="37.8314783" lon="15.268525"><ele>17.666666666666668</ele><time>2026-04-24T18:55:10.551Z</time></trkpt><trkpt lat="37.8315567" lon="15.2685667"><ele>17.833333333333332</ele><time>2026-04-24T18:55:11.552Z</time></trkpt><trkpt lat="37.8316283" lon="15.2686117"><ele>18.0</ele><time>2026-04-24T18:55:12.551Z</time></trkpt><trkpt lat="37.8316967" lon="15.2686583"><ele>18.0</ele><time>2026-04-24T18:55:13.552Z</time></trkpt><trkpt lat="37.8317583" lon="15.2687067"><ele>18.0</ele><time>2026-04-24T18:55:14.551Z</time></trkpt><trkpt lat="37.831815" lon="15.2687533"><ele>18.0</ele><time>2026-04-24T18:55:15.551Z</time></trkpt><trkpt lat="37.8318733" lon="15.2687983"><ele>18.0</ele><time>2026-04-24T18:55:16.552Z</time></trkpt><trkpt lat="37.8319317" lon="15.2688433"><ele>18.0</ele><time>2026-04-24T18:55:17.552Z</time></trkpt><trkpt lat="37.83203" lon="15.2689167"><ele>18.0</ele><time>2026-04-24T18:55:19.552Z</time></trkpt><trkpt lat="37.8321317" lon="15.2689867"><ele>17.6</ele><time>2026-04-24T18:55:21.551Z</time></trkpt><trkpt lat="37.832225" lon="15.2690583"><ele>17.200000000000003</ele><time>2026-04-24T18:55:23.552Z</time></trkpt><trkpt lat="37.8323133" lon="15.2691283"><ele>16.8</ele><time>2026-04-24T18:55:25.551Z</time></trkpt><trkpt lat="37.8324033" lon="15.2692083"><ele>16.400000000000002</ele><time>2026-04-24T18:55:27.552Z</time></trkpt><trkpt lat="37.8324683" lon="15.2692683"><ele>16.0</ele><time>2026-04-24T18:55:29.551Z</time></trkpt><trkpt lat="37.83254" lon="15.2693483"><ele>16.0</ele><time>2026-04-24T18:55:36.552Z</time></trkpt><trkpt lat="37.832615" lon="15.2694233"><ele>16.0</ele><time>2026-04-24T18:55:38.552Z</time></trkpt><trkpt lat="37.83269" lon="15.2694933"><ele>16.0</ele><time>2026-04-24T18:55:40.551Z</time></trkpt><trkpt lat="37.8327683" lon="15.2695617"><ele>16.0</ele><time>2026-04-24T18:55:42.552Z</time></trkpt><trkpt lat="37.8328533" lon="15.2696383"><ele>16.0</ele><time>2026-04-24T18:55:44.551Z</time></trkpt><trkpt lat="37.8329533" lon="15.2697317"><ele>15.857142857142856</ele><time>2026-04-24T18:55:46.552Z</time></trkpt><trkpt lat="37.83301" lon="15.2697783"><ele>15.714285714285712</ele><time>2026-04-24T18:55:47.552Z</time></trkpt><trkpt lat="37.8330667" lon="15.2698283"><ele>15.571428571428571</ele><time>2026-04-24T18:55:48.552Z</time></trkpt><trkpt lat="37.83312" lon="15.2698733"><ele>15.428571428571427</ele><time>2026-04-24T18:55:49.552Z</time></trkpt><trkpt lat="37.833175" lon="15.2699183"><ele>15.285714285714285</ele><time>2026-04-24T18:55:50.551Z</time></trkpt><trkpt lat="37.833235" lon="15.26996"><ele>15.142857142857142</ele><time>2026-04-24T18:55:51.552Z</time></trkpt><trkpt lat="37.8332983" lon="15.2700033"><ele>15.0</ele><time>2026-04-24T18:55:52.552Z</time></trkpt><trkpt lat="37.8333583" lon="15.2700433"><ele>15.0</ele><time>2026-04-24T18:55:53.552Z</time></trkpt><trkpt lat="37.8334167" lon="15.270085"><ele>15.0</ele><time>2026-04-24T18:55:54.552Z</time></trkpt><trkpt lat="37.833525" lon="15.2701683"><ele>15.0</ele><time>2026-04-24T18:55:56.552Z</time></trkpt><trkpt lat="37.8335833" lon="15.2702167"><ele>15.0</ele><time>2026-04-24T18:55:57.551Z</time></trkpt><trkpt lat="37.83365" lon="15.2702667"><ele>15.0</ele><time>2026-04-24T18:55:58.551Z</time></trkpt><trkpt lat="37.8337233" lon="15.2703083"><ele>15.0</ele><time>2026-04-24T18:55:59.551Z</time></trkpt><trkpt lat="37.8337933" lon="15.27036"><ele>15.333333333333334</ele><time>2026-04-24T18:56:00.552Z</time></trkpt><trkpt lat="37.833865" lon="15.2704083"><ele>15.666666666666668</ele><time>2026-04-24T18:56:01.552Z</time></trkpt><trkpt lat="37.8339317" lon="15.2704583"><ele>16.0</ele><time>2026-04-24T18:56:02.552Z</time></trkpt><trkpt lat="37.8339983" lon="15.2705083"><ele>16.333333333333336</ele><time>2026-04-24T18:56:03.552Z</time></trkpt><trkpt lat="37.8340567" lon="15.270555"><ele>16.666666666666668</ele><time>2026-04-24T18:56:04.552Z</time></trkpt><trkpt lat="37.83411" lon="15.2706"><ele>17.0</ele><time>2026-04-24T18:56:05.551Z</time></trkpt><trkpt lat="37.8342033" lon="15.2706733"><ele>17.0</ele><time>2026-04-24T18:56:07.552Z</time></trkpt><trkpt lat="37.8342983" lon="15.270735"><ele>17.0</ele><time>2026-04-24T18:56:09.552Z</time></trkpt><trkpt lat="37.834385" lon="15.27084"><ele>17.0</ele><time>2026-04-24T18:56:11.552Z</time></trkpt><trkpt lat="37.834425" lon="15.2709117"><ele>17.0</ele><time>2026-04-24T18:56:12.552Z</time></trkpt><trkpt lat="37.8344683" lon="15.2709917"><ele>17.0</ele><time>2026-04-24T18:56:13.552Z</time></trkpt><trkpt lat="37.8345117" lon="15.271085"><ele>17.5</ele><time>2026-04-24T18:56:14.552Z</time></trkpt><trkpt lat="37.8345467" lon="15.2711883"><ele>18.0</ele><time>2026-04-24T18:56:15.552Z</time></trkpt><trkpt lat="37.8345783" lon="15.271275"><ele>18.5</ele><time>2026-04-24T18:56:16.552Z</time></trkpt><trkpt lat="37.8346333" lon="15.2713533"><ele>19.0</ele><time>2026-04-24T18:56:17.552Z</time></trkpt><trkpt lat="37.83468" lon="15.2714383"><ele>19.5</ele><time>2026-04-24T18:56:18.552Z</time></trkpt><trkpt lat="37.83473" lon="15.2715167"><ele>20.0</ele><time>2026-04-24T18:56:19.552Z</time></trkpt><trkpt lat="37.8347783" lon="15.271585"><ele>18.833333333333336</ele><time>2026-04-24T18:56:20.551Z</time></trkpt><trkpt lat="37.8348283" lon="15.2716383"><ele>17.666666666666668</ele><time>2026-04-24T18:56:21.552Z</time></trkpt><trkpt lat="37.834925" lon="15.271735"><ele>16.5</ele><time>2026-04-24T18:56:23.551Z</time></trkpt><trkpt lat="37.8349883" lon="15.2717817"><ele>15.333333333333332</ele><time>2026-04-24T18:56:24.552Z</time></trkpt><trkpt lat="37.83505" lon="15.2718267"><ele>14.166666666666666</ele><time>2026-04-24T18:56:25.551Z</time></trkpt><trkpt lat="37.8351083" lon="15.2718817"><ele>13.0</ele><time>2026-04-24T18:56:26.552Z</time></trkpt><trkpt lat="37.835175" lon="15.27193"><ele>12.999999999999998</ele><time>2026-04-24T18:56:27.551Z</time></trkpt><trkpt lat="37.8352417" lon="15.2719833"><ele>13.0</ele><time>2026-04-24T18:56:28.551Z</time></trkpt><trkpt lat="37.8353117" lon="15.272035"><ele>13.0</ele><time>2026-04-24T18:56:29.552Z</time></trkpt><trkpt lat="37.8353833" lon="15.2720867"><ele>13.0</ele><time>2026-04-24T18:56:30.551Z</time></trkpt><trkpt lat="37.8354533" lon="15.27214"><ele>12.999999999999998</ele><time>2026-04-24T18:56:31.552Z</time></trkpt><trkpt lat="37.835515" lon="15.27219"><ele>13.0</ele><time>2026-04-24T18:56:32.552Z</time></trkpt><trkpt lat="37.8355717" lon="15.27224"><ele>11.999999999999998</ele><time>2026-04-24T18:56:33.552Z</time></trkpt><trkpt lat="37.8356283" lon="15.2722983"><ele>11.0</ele><time>2026-04-24T18:56:34.551Z</time></trkpt><trkpt lat="37.83568" lon="15.2723617"><ele>10.0</ele><time>2026-04-24T18:56:35.552Z</time></trkpt><trkpt lat="37.835725" lon="15.2724267"><ele>9.0</ele><time>2026-04-24T18:56:36.552Z</time></trkpt><trkpt lat="37.8357733" lon="15.2725"><ele>8.0</ele><time>2026-04-24T18:56:37.551Z</time></trkpt><trkpt lat="37.8358283" lon="15.272585"><ele>7.0</ele><time>2026-04-24T18:56:38.551Z</time></trkpt><trkpt lat="37.8358867" lon="15.2726783"><ele>7.0</ele><time>2026-04-24T18:56:39.551Z</time></trkpt><trkpt lat="37.8359533" lon="15.2727767"><ele>6.999999999999999</ele><time>2026-04-24T18:56:40.551Z</time></trkpt><trkpt lat="37.8360183" lon="15.2728783"><ele>6.999999999999999</ele><time>2026-04-24T18:56:41.552Z</time></trkpt><trkpt lat="37.8360917" lon="15.2729933"><ele>7.0</ele><time>2026-04-24T18:56:42.552Z</time></trkpt><trkpt lat="37.8361667" lon="15.2730967"><ele>7.0</ele><time>2026-04-24T18:56:43.551Z</time></trkpt><trkpt lat="37.8362433" lon="15.2731983"><ele>7.8</ele><time>2026-04-24T18:56:44.552Z</time></trkpt><trkpt lat="37.8363133" lon="15.2732983"><ele>8.6</ele><time>2026-04-24T18:56:45.551Z</time></trkpt><trkpt lat="37.8363833" lon="15.2733883"><ele>9.4</ele><time>2026-04-24T18:56:46.551Z</time></trkpt><trkpt lat="37.8364533" lon="15.2734783"><ele>10.200000000000001</ele><time>2026-04-24T18:56:47.551Z</time></trkpt><trkpt lat="37.8365183" lon="15.2735683"><ele>11.0</ele><time>2026-04-24T18:56:48.552Z</time></trkpt><trkpt lat="37.8365833" lon="15.27366"><ele>11.0</ele><time>2026-04-24T18:56:49.552Z</time></trkpt><trkpt lat="37.8366533" lon="15.2737483"><ele>11.0</ele><time>2026-04-24T18:56:50.552Z</time></trkpt><trkpt lat="37.836725" lon="15.2738333"><ele>11.0</ele><time>2026-04-24T18:56:51.551Z</time></trkpt><trkpt lat="37.836795" lon="15.2739317"><ele>11.0</ele><time>2026-04-24T18:56:52.551Z</time></trkpt><trkpt lat="37.8368617" lon="15.2740267"><ele>11.0</ele><time>2026-04-24T18:56:53.552Z</time></trkpt><trkpt lat="37.8369267" lon="15.2741283"><ele>11.8</ele><time>2026-04-24T18:56:54.552Z</time></trkpt><trkpt lat="37.836995" lon="15.2742283"><ele>12.600000000000001</ele><time>2026-04-24T18:56:55.552Z</time></trkpt><trkpt lat="37.8370733" lon="15.2743217"><ele>13.4</ele><time>2026-04-24T18:56:56.552Z</time></trkpt><trkpt lat="37.8371467" lon="15.27442"><ele>14.2</ele><time>2026-04-24T18:56:57.551Z</time></trkpt><trkpt lat="37.8372183" lon="15.274515"><ele>15.0</ele><time>2026-04-24T18:56:58.552Z</time></trkpt><trkpt lat="37.837285" lon="15.274605"><ele>15.0</ele><time>2026-04-24T18:56:59.551Z</time></trkpt><trkpt lat="37.8373517" lon="15.2746933"><ele>15.0</ele><time>2026-04-24T18:57:00.551Z</time></trkpt><trkpt lat="37.8374167" lon="15.2747833"><ele>15.0</ele><time>2026-04-24T18:57:01.551Z</time></trkpt><trkpt lat="37.83748" lon="15.27487"><ele>15.0</ele><time>2026-04-24T18:57:02.551Z</time></trkpt><trkpt lat="37.8375467" lon="15.274945"><ele>15.0</ele><time>2026-04-24T18:57:03.551Z</time></trkpt><trkpt lat="37.8375967" lon="15.2750017"><ele>15.0</ele><time>2026-04-24T18:57:04.552Z</time></trkpt><trkpt lat="37.8376583" lon="15.275065"><ele>15.5</ele><time>2026-04-24T18:57:06.551Z</time></trkpt><trkpt lat="37.8376867" lon="15.27514"><ele>16.0</ele><time>2026-04-24T19:00:35.551Z</time></trkpt><trkpt lat="37.8377233" lon="15.275225"><ele>16.5</ele><time>2026-04-24T19:00:37.552Z</time></trkpt><trkpt lat="37.83781" lon="15.2753367"><ele>17.0</ele><time>2026-04-24T19:00:39.551Z</time></trkpt><trkpt lat="37.8378583" lon="15.2754"><ele>17.5</ele><time>2026-04-24T19:00:40.551Z</time></trkpt><trkpt lat="37.8379083" lon="15.2754717"><ele>18.0</ele><time>2026-04-24T19:00:41.551Z</time></trkpt><trkpt lat="37.8379617" lon="15.2755383"><ele>16.666666666666668</ele><time>2026-04-24T19:00:42.552Z</time></trkpt><trkpt lat="37.8380133" lon="15.27561"><ele>15.333333333333334</ele><time>2026-04-24T19:00:43.552Z</time></trkpt><trkpt lat="37.838065" lon="15.27569"><ele>14.0</ele><time>2026-04-24T19:00:44.552Z</time></trkpt><trkpt lat="37.83812" lon="15.27577"><ele>12.666666666666668</ele><time>2026-04-24T19:00:45.551Z</time></trkpt><trkpt lat="37.8381717" lon="15.2758417"><ele>11.333333333333334</ele><time>2026-04-24T19:00:46.552Z</time></trkpt><trkpt lat="37.83822" lon="15.2759017"><ele>10.0</ele><time>2026-04-24T19:00:47.551Z</time></trkpt><trkpt lat="37.8382667" lon="15.2759583"><ele>10.0</ele><time>2026-04-24T19:00:48.552Z</time></trkpt><trkpt lat="37.83835" lon="15.2760383"><ele>10.0</ele><time>2026-04-24T19:00:50.551Z</time></trkpt><trkpt lat="37.83842" lon="15.2761033"><ele>10.0</ele><time>2026-04-24T19:00:52.552Z</time></trkpt><trkpt lat="37.83851" lon="15.2761717"><ele>10.0</ele><time>2026-04-24T19:00:54.552Z</time></trkpt><trkpt lat="37.8385717" lon="15.2762117"><ele>10.0</ele><time>2026-04-24T19:00:55.552Z</time></trkpt><trkpt lat="37.8386383" lon="15.276255"><ele>10.0</ele><time>2026-04-24T19:00:56.551Z</time></trkpt><trkpt lat="37.83871" lon="15.2763017"><ele>9.833333333333334</ele><time>2026-04-24T19:00:57.551Z</time></trkpt><trkpt lat="37.83879" lon="15.27635"><ele>9.666666666666668</ele><time>2026-04-24T19:00:58.552Z</time></trkpt><trkpt lat="37.8388667" lon="15.2764033"><ele>9.5</ele><time>2026-04-24T19:00:59.552Z</time></trkpt><trkpt lat="37.8389417" lon="15.2764583"><ele>9.333333333333334</ele><time>2026-04-24T19:01:00.551Z</time></trkpt><trkpt lat="37.8390183" lon="15.2765083"><ele>9.166666666666666</ele><time>2026-04-24T19:01:01.551Z</time></trkpt><trkpt lat="37.8391017" lon="15.2765533"><ele>9.0</ele><time>2026-04-24T19:01:02.551Z</time></trkpt><trkpt lat="37.839175" lon="15.2765983"><ele>9.0</ele><time>2026-04-24T19:01:03.551Z</time></trkpt><trkpt lat="37.8392433" lon="15.2766467"><ele>9.0</ele><time>2026-04-24T19:01:04.551Z</time></trkpt><trkpt lat="37.83933" lon="15.276695"><ele>9.0</ele><time>2026-04-24T19:01:05.552Z</time></trkpt><trkpt lat="37.8394217" lon="15.276755"><ele>9.0</ele><time>2026-04-24T19:01:06.552Z</time></trkpt><trkpt lat="37.8395167" lon="15.27682"><ele>9.0</ele><time>2026-04-24T19:01:07.552Z</time></trkpt><trkpt lat="37.8396017" lon="15.2768767"><ele>10.2</ele><time>2026-04-24T19:01:08.551Z</time></trkpt><trkpt lat="37.8396817" lon="15.2769317"><ele>11.4</ele><time>2026-04-24T19:01:09.552Z</time></trkpt><trkpt lat="37.8397583" lon="15.2769883"><ele>12.6</ele><time>2026-04-24T19:01:10.551Z</time></trkpt><trkpt lat="37.8398433" lon="15.2770433"><ele>13.8</ele><time>2026-04-24T19:01:11.551Z</time></trkpt><trkpt lat="37.8399217" lon="15.2770983"><ele>15.0</ele><time>2026-04-24T19:01:12.552Z</time></trkpt><trkpt lat="37.839995" lon="15.277165"><ele>15.0</ele><time>2026-04-24T19:01:13.552Z</time></trkpt><trkpt lat="37.8400683" lon="15.2772483"><ele>15.0</ele><time>2026-04-24T19:01:14.552Z</time></trkpt><trkpt lat="37.840135" lon="15.27733"><ele>15.0</ele><time>2026-04-24T19:01:15.552Z</time></trkpt><trkpt lat="37.8402017" lon="15.2774083"><ele>15.0</ele><time>2026-04-24T19:01:16.552Z</time></trkpt><trkpt lat="37.840265" lon="15.2774917"><ele>15.0</ele><time>2026-04-24T19:01:17.552Z</time></trkpt><trkpt lat="37.8403283" lon="15.2775767"><ele>15.4</ele><time>2026-04-24T19:01:18.552Z</time></trkpt><trkpt lat="37.8403933" lon="15.277655"><ele>15.8</ele><time>2026-04-24T19:01:19.552Z</time></trkpt><trkpt lat="37.8404533" lon="15.2777333"><ele>16.2</ele><time>2026-04-24T19:01:20.552Z</time></trkpt><trkpt lat="37.84052" lon="15.2778183"><ele>16.6</ele><time>2026-04-24T19:01:21.551Z</time></trkpt><trkpt lat="37.8405867" lon="15.277905"><ele>17.0</ele><time>2026-04-24T19:01:22.552Z</time></trkpt><trkpt lat="37.840655" lon="15.278"><ele>17.0</ele><time>2026-04-24T19:01:23.551Z</time></trkpt><trkpt lat="37.8407217" lon="15.278095"><ele>17.0</ele><time>2026-04-24T19:01:24.551Z</time></trkpt><trkpt lat="37.840785" lon="15.2781967"><ele>17.0</ele><time>2026-04-24T19:01:25.551Z</time></trkpt><trkpt lat="37.8408467" lon="15.278295"><ele>17.0</ele><time>2026-04-24T19:01:26.552Z</time></trkpt><trkpt lat="37.8409083" lon="15.2783867"><ele>17.0</ele><time>2026-04-24T19:01:27.551Z</time></trkpt><trkpt lat="37.8409683" lon="15.2784833"><ele>17.6</ele><time>2026-04-24T19:01:28.552Z</time></trkpt><trkpt lat="37.8410217" lon="15.2785883"><ele>18.2</ele><time>2026-04-24T19:01:29.551Z</time></trkpt><trkpt lat="37.8410767" lon="15.278695"><ele>18.8</ele><time>2026-04-24T19:01:30.551Z</time></trkpt><trkpt lat="37.8411267" lon="15.2787983"><ele>19.4</ele><time>2026-04-24T19:01:31.551Z</time></trkpt><trkpt lat="37.84116" lon="15.2789117"><ele>20.0</ele><time>2026-04-24T19:01:32.552Z</time></trkpt><trkpt lat="37.8411883" lon="15.27901"><ele>18.666666666666668</ele><time>2026-04-24T19:01:33.551Z</time></trkpt><trkpt lat="37.8412233" lon="15.2791067"><ele>17.333333333333336</ele><time>2026-04-24T19:01:34.552Z</time></trkpt><trkpt lat="37.8412583" lon="15.2792033"><ele>16.0</ele><time>2026-04-24T19:01:35.552Z</time></trkpt><trkpt lat="37.8413" lon="15.279295"><ele>14.666666666666668</ele><time>2026-04-24T19:01:36.552Z</time></trkpt><trkpt lat="37.8413567" lon="15.2793783"><ele>13.333333333333334</ele><time>2026-04-24T19:01:37.551Z</time></trkpt><trkpt lat="37.8414117" lon="15.27946"><ele>12.0</ele><time>2026-04-24T19:01:38.551Z</time></trkpt><trkpt lat="37.8414767" lon="15.279545"><ele>12.0</ele><time>2026-04-24T19:01:39.552Z</time></trkpt><trkpt lat="37.84155" lon="15.2796083"><ele>12.0</ele><time>2026-04-24T19:01:40.552Z</time></trkpt><trkpt lat="37.84163" lon="15.2796533"><ele>12.0</ele><time>2026-04-24T19:01:41.552Z</time></trkpt><trkpt lat="37.84171" lon="15.2796967"><ele>12.0</ele><time>2026-04-24T19:01:42.552Z</time></trkpt><trkpt lat="37.8417917" lon="15.2797417"><ele>12.0</ele><time>2026-04-24T19:01:43.551Z</time></trkpt><trkpt lat="37.8418633" lon="15.27979"><ele>12.0</ele><time>2026-04-24T19:01:44.552Z</time></trkpt><trkpt lat="37.84193" lon="15.2798233"><ele>11.666666666666666</ele><time>2026-04-24T19:01:45.552Z</time></trkpt><trkpt lat="37.8419933" lon="15.2798567"><ele>11.333333333333334</ele><time>2026-04-24T19:01:46.551Z</time></trkpt><trkpt lat="37.8420617" lon="15.2798967"><ele>11.0</ele><time>2026-04-24T19:01:47.551Z</time></trkpt><trkpt lat="37.8421233" lon="15.27993"><ele>10.666666666666668</ele><time>2026-04-24T19:01:48.551Z</time></trkpt><trkpt lat="37.8422317" lon="15.2799967"><ele>10.333333333333334</ele><time>2026-04-24T19:01:50.552Z</time></trkpt><trkpt lat="37.8423167" lon="15.2800517"><ele>10.0</ele><time>2026-04-24T19:01:52.552Z</time></trkpt><trkpt lat="37.8423983" lon="15.2801"><ele>10.0</ele><time>2026-04-24T19:01:54.552Z</time></trkpt><trkpt lat="37.8424683" lon="15.2800817"><ele>10.0</ele><time>2026-04-24T19:01:57.552Z</time></trkpt><trkpt lat="37.84252" lon="15.2799983"><ele>10.0</ele><time>2026-04-24T19:02:01.551Z</time></trkpt><trkpt lat="37.8425717" lon="15.2799383"><ele>10.0</ele><time>2026-04-24T19:02:03.551Z</time></trkpt><trkpt lat="37.8426567" lon="15.279855"><ele>10.0</ele><time>2026-04-24T19:02:05.552Z</time></trkpt><trkpt lat="37.8427483" lon="15.2797767"><ele>10.0</ele><time>2026-04-24T19:02:07.551Z</time></trkpt><trkpt lat="37.84283" lon="15.2797133"><ele>11.4</ele><time>2026-04-24T19:02:09.552Z</time></trkpt><trkpt lat="37.8429183" lon="15.279655"><ele>12.8</ele><time>2026-04-24T19:02:11.551Z</time></trkpt><trkpt lat="37.843" lon="15.2796133"><ele>14.2</ele><time>2026-04-24T19:02:13.552Z</time></trkpt><trkpt lat="37.8430733" lon="15.279585"><ele>15.6</ele><time>2026-04-24T19:02:15.552Z</time></trkpt><trkpt lat="37.843145" lon="15.2796133"><ele>17.0</ele><time>2026-04-24T19:02:17.551Z</time></trkpt><trkpt lat="37.8432317" lon="15.2797"><ele>17.0</ele><time>2026-04-24T19:02:19.552Z</time></trkpt><trkpt lat="37.8432917" lon="15.2797567"><ele>17.0</ele><time>2026-04-24T19:02:20.552Z</time></trkpt><trkpt lat="37.8433383" lon="15.279835"><ele>17.0</ele><time>2026-04-24T19:02:21.552Z</time></trkpt><trkpt lat="37.8433917" lon="15.27991"><ele>17.0</ele><time>2026-04-24T19:02:22.552Z</time></trkpt><trkpt lat="37.84345" lon="15.279975"><ele>17.0</ele><time>2026-04-24T19:02:23.552Z</time></trkpt><trkpt lat="37.843505" lon="15.280045"><ele>17.0</ele><time>2026-04-24T19:02:24.552Z</time></trkpt><trkpt lat="37.8435633" lon="15.2801133"><ele>16.6</ele><time>2026-04-24T19:02:25.551Z</time></trkpt><trkpt lat="37.84363" lon="15.2801983"><ele>16.2</ele><time>2026-04-24T19:02:26.551Z</time></trkpt><trkpt lat="37.8437083" lon="15.2802867"><ele>15.8</ele><time>2026-04-24T19:02:27.551Z</time></trkpt><trkpt lat="37.843785" lon="15.2803917"><ele>15.4</ele><time>2026-04-24T19:02:28.552Z</time></trkpt><trkpt lat="37.8438617" lon="15.280495"><ele>15.0</ele><time>2026-04-24T19:02:29.551Z</time></trkpt><trkpt lat="37.843945" lon="15.2806067"><ele>15.0</ele><time>2026-04-24T19:02:30.552Z</time></trkpt><trkpt lat="37.8440233" lon="15.28073"><ele>15.0</ele><time>2026-04-24T19:02:31.552Z</time></trkpt><trkpt lat="37.844105" lon="15.28085"><ele>15.0</ele><time>2026-04-24T19:02:32.551Z</time></trkpt><trkpt lat="37.84419" lon="15.28097"><ele>15.0</ele><time>2026-04-24T19:02:33.551Z</time></trkpt><trkpt lat="37.8442817" lon="15.28109"><ele>18.25</ele><time>2026-04-24T19:02:34.551Z</time></trkpt><trkpt lat="37.8443817" lon="15.28121"><ele>21.5</ele><time>2026-04-24T19:02:35.551Z</time></trkpt><trkpt lat="37.8444783" lon="15.2813283"><ele>24.75</ele><time>2026-04-24T19:02:36.552Z</time></trkpt><trkpt lat="37.8445783" lon="15.28144"><ele>28.0</ele><time>2026-04-24T19:02:37.552Z</time></trkpt><trkpt lat="37.8446817" lon="15.281545"><ele>28.0</ele><time>2026-04-24T19:02:38.552Z</time></trkpt><trkpt lat="37.8447917" lon="15.2816433"><ele>28.0</ele><time>2026-04-24T19:02:39.552Z</time></trkpt><trkpt lat="37.8449133" lon="15.2817483"><ele>28.0</ele><time>2026-04-24T19:02:40.552Z</time></trkpt><trkpt lat="37.8450383" lon="15.2818483"><ele>28.0</ele><time>2026-04-24T19:02:41.551Z</time></trkpt><trkpt lat="37.8451583" lon="15.2819567"><ele>25.75</ele><time>2026-04-24T19:02:42.551Z</time></trkpt><trkpt lat="37.845275" lon="15.2820683"><ele>23.5</ele><time>2026-04-24T19:02:43.551Z</time></trkpt><trkpt lat="37.8453883" lon="15.28218"><ele>21.25</ele><time>2026-04-24T19:02:44.552Z</time></trkpt><trkpt lat="37.8454917" lon="15.28228"><ele>19.0</ele><time>2026-04-24T19:02:45.551Z</time></trkpt><trkpt lat="37.845595" lon="15.2823717"><ele>19.0</ele><time>2026-04-24T19:02:46.551Z</time></trkpt><trkpt lat="37.845685" lon="15.28247"><ele>19.0</ele><time>2026-04-24T19:02:47.552Z</time></trkpt><trkpt lat="37.8457717" lon="15.28257"><ele>19.0</ele><time>2026-04-24T19:02:48.551Z</time></trkpt><trkpt lat="37.8458567" lon="15.2826833"><ele>19.0</ele><time>2026-04-24T19:02:49.551Z</time></trkpt><trkpt lat="37.8459417" lon="15.2827933"><ele>21.0</ele><time>2026-04-24T19:02:50.552Z</time></trkpt><trkpt lat="37.8460167" lon="15.2828967"><ele>23.0</ele><time>2026-04-24T19:02:51.552Z</time></trkpt><trkpt lat="37.8461167" lon="15.2829783"><ele>25.0</ele><time>2026-04-24T19:02:52.551Z</time></trkpt><trkpt lat="37.8462333" lon="15.28305"><ele>27.0</ele><time>2026-04-24T19:02:53.551Z</time></trkpt><trkpt lat="37.8463567" lon="15.28312"><ele>27.0</ele><time>2026-04-24T19:02:54.552Z</time></trkpt><trkpt lat="37.84648" lon="15.28319"><ele>27.0</ele><time>2026-04-24T19:02:55.551Z</time></trkpt><trkpt lat="37.8466" lon="15.2832733"><ele>27.0</ele><time>2026-04-24T19:02:56.552Z</time></trkpt><trkpt lat="37.8467117" lon="15.2833733"><ele>27.0</ele><time>2026-04-24T19:02:57.551Z</time></trkpt><trkpt lat="37.8468217" lon="15.283485"><ele>27.25</ele><time>2026-04-24T19:02:58.552Z</time></trkpt><trkpt lat="37.846925" lon="15.2836067"><ele>27.5</ele><time>2026-04-24T19:02:59.551Z</time></trkpt><trkpt lat="37.8470233" lon="15.2837367"><ele>27.75</ele><time>2026-04-24T19:03:00.552Z</time></trkpt><trkpt lat="37.8471233" lon="15.2838633"><ele>28.0</ele><time>2026-04-24T19:03:01.551Z</time></trkpt><trkpt lat="37.84722" lon="15.2839983"><ele>28.0</ele><time>2026-04-24T19:03:02.552Z</time></trkpt><trkpt lat="37.84731" lon="15.2841383"><ele>28.0</ele><time>2026-04-24T19:03:03.552Z</time></trkpt><trkpt lat="37.8473867" lon="15.28429"><ele>28.0</ele><time>2026-04-24T19:03:04.551Z</time></trkpt><trkpt lat="37.8474633" lon="15.28444"><ele>28.0</ele><time>2026-04-24T19:03:05.551Z</time></trkpt><trkpt lat="37.8475317" lon="15.2845867"><ele>28.0</ele><time>2026-04-24T19:03:06.552Z</time></trkpt><trkpt lat="37.8475983" lon="15.2847167"><ele>27.999999999999996</ele><time>2026-04-24T19:03:07.552Z</time></trkpt><trkpt lat="37.8476583" lon="15.2848367"><ele>27.999999999999996</ele><time>2026-04-24T19:03:08.552Z</time></trkpt><trkpt lat="37.8477133" lon="15.284945"><ele>28.0</ele><time>2026-04-24T19:03:09.551Z</time></trkpt><trkpt lat="37.8477683" lon="15.28504"><ele>28.0</ele><time>2026-04-24T19:03:10.552Z</time></trkpt><trkpt lat="37.84782" lon="15.2851233"><ele>28.4</ele><time>2026-04-24T19:03:11.551Z</time></trkpt><trkpt lat="37.84788" lon="15.2852067"><ele>28.799999999999997</ele><time>2026-04-24T19:03:12.551Z</time></trkpt><trkpt lat="37.84795" lon="15.2852967"><ele>29.2</ele><time>2026-04-24T19:03:13.552Z</time></trkpt><trkpt lat="37.8480267" lon="15.2853933"><ele>29.6</ele><time>2026-04-24T19:03:14.551Z</time></trkpt><trkpt lat="37.8480967" lon="15.2854933"><ele>30.0</ele><time>2026-04-24T19:03:15.552Z</time></trkpt><trkpt lat="37.848155" lon="15.2856083"><ele>29.0</ele><time>2026-04-24T19:03:16.551Z</time></trkpt><trkpt lat="37.84822" lon="15.2857233"><ele>28.0</ele><time>2026-04-24T19:03:17.552Z</time></trkpt><trkpt lat="37.8482667" lon="15.2858617"><ele>27.0</ele><time>2026-04-24T19:03:18.552Z</time></trkpt><trkpt lat="37.848295" lon="15.286025"><ele>26.0</ele><time>2026-04-24T19:03:19.552Z</time></trkpt><trkpt lat="37.848325" lon="15.2861833"><ele>26.0</ele><time>2026-04-24T19:03:20.552Z</time></trkpt><trkpt lat="37.8483433" lon="15.286355"><ele>26.0</ele><time>2026-04-24T19:03:21.551Z</time></trkpt><trkpt lat="37.8483583" lon="15.2865333"><ele>26.0</ele><time>2026-04-24T19:03:22.551Z</time></trkpt><trkpt lat="37.8483767" lon="15.2867133"><ele>26.0</ele><time>2026-04-24T19:03:23.552Z</time></trkpt><trkpt lat="37.8483983" lon="15.286895"><ele>24.25</ele><time>2026-04-24T19:03:24.552Z</time></trkpt><trkpt lat="37.84841" lon="15.2870833"><ele>22.5</ele><time>2026-04-24T19:03:25.552Z</time></trkpt><trkpt lat="37.8484217" lon="15.28727"><ele>20.75</ele><time>2026-04-24T19:03:26.552Z</time></trkpt><trkpt lat="37.8484167" lon="15.2874517"><ele>19.0</ele><time>2026-04-24T19:03:27.552Z</time></trkpt><trkpt lat="37.84841" lon="15.2876217"><ele>18.25</ele><time>2026-04-24T19:03:28.552Z</time></trkpt><trkpt lat="37.8484" lon="15.28778"><ele>17.5</ele><time>2026-04-24T19:03:29.552Z</time></trkpt><trkpt lat="37.8483983" lon="15.287945"><ele>16.75</ele><time>2026-04-24T19:03:30.552Z</time></trkpt><trkpt lat="37.8484033" lon="15.28811"><ele>16.0</ele><time>2026-04-24T19:03:31.551Z</time></trkpt><trkpt lat="37.8484133" lon="15.2882783"><ele>16.0</ele><time>2026-04-24T19:03:32.551Z</time></trkpt><trkpt lat="37.8484283" lon="15.28845"><ele>16.0</ele><time>2026-04-24T19:03:33.552Z</time></trkpt><trkpt lat="37.8484533" lon="15.2886267"><ele>16.0</ele><time>2026-04-24T19:03:34.551Z</time></trkpt><trkpt lat="37.8484683" lon="15.2888017"><ele>16.0</ele><time>2026-04-24T19:03:35.552Z</time></trkpt><trkpt lat="37.84847" lon="15.28899"><ele>33.666666666666664</ele><time>2026-04-24T19:03:36.552Z</time></trkpt><trkpt lat="37.84848" lon="15.2891867"><ele>51.333333333333336</ele><time>2026-04-24T19:03:37.551Z</time></trkpt><trkpt lat="37.84849" lon="15.2893767"><ele>69.0</ele><time>2026-04-24T19:03:38.552Z</time></trkpt><trkpt lat="37.8485" lon="15.289565"><ele>69.0</ele><time>2026-04-24T19:03:39.552Z</time></trkpt><trkpt lat="37.8485017" lon="15.2897383"><ele>69.0</ele><time>2026-04-24T19:03:40.552Z</time></trkpt><trkpt lat="37.8484917" lon="15.2898733"><ele>69.0</ele><time>2026-04-24T19:03:41.552Z</time></trkpt><trkpt lat="37.8484683" lon="15.29001"><ele>69.0</ele><time>2026-04-24T19:03:42.551Z</time></trkpt><trkpt lat="37.8484233" lon="15.2901483"><ele>64.25</ele><time>2026-04-24T19:03:43.551Z</time></trkpt><trkpt lat="37.8483667" lon="15.2902867"><ele>59.5</ele><time>2026-04-24T19:03:44.552Z</time></trkpt><trkpt lat="37.8483083" lon="15.2904283"><ele>54.75</ele><time>2026-04-24T19:03:45.552Z</time></trkpt><trkpt lat="37.8482433" lon="15.2905667"><ele>50.0</ele><time>2026-04-24T19:03:46.552Z</time></trkpt><trkpt lat="37.8481767" lon="15.2906983"><ele>50.0</ele><time>2026-04-24T19:03:47.552Z</time></trkpt><trkpt lat="37.8481117" lon="15.290815"><ele>50.0</ele><time>2026-04-24T19:03:48.552Z</time></trkpt><trkpt lat="37.8480433" lon="15.2909133"><ele>50.0</ele><time>2026-04-24T19:03:49.552Z</time></trkpt><trkpt lat="37.8479767" lon="15.2910167"><ele>50.0</ele><time>2026-04-24T19:03:50.551Z</time></trkpt><trkpt lat="37.8479183" lon="15.2911333"><ele>50.0</ele><time>2026-04-24T19:03:51.552Z</time></trkpt><trkpt lat="37.84787" lon="15.2912667"><ele>50.0</ele><time>2026-04-24T19:03:52.552Z</time></trkpt><trkpt lat="37.8478367" lon="15.2914067"><ele>50.0</ele><time>2026-04-24T19:03:53.552Z</time></trkpt><trkpt lat="37.8478067" lon="15.2915533"><ele>50.0</ele><time>2026-04-24T19:03:54.551Z</time></trkpt><trkpt lat="37.847795" lon="15.291705"><ele>50.0</ele><time>2026-04-24T19:03:55.552Z</time></trkpt><trkpt lat="37.847795" lon="15.291855"><ele>54.0</ele><time>2026-04-24T19:03:56.551Z</time></trkpt><trkpt lat="37.8478183" lon="15.2920017"><ele>58.0</ele><time>2026-04-24T19:03:57.552Z</time></trkpt><trkpt lat="37.8478433" lon="15.29215"><ele>62.0</ele><time>2026-04-24T19:03:58.552Z</time></trkpt><trkpt lat="37.8478783" lon="15.2922967"><ele>66.0</ele><time>2026-04-24T19:03:59.551Z</time></trkpt><trkpt lat="37.8479167" lon="15.2924383"><ele>66.0</ele><time>2026-04-24T19:04:00.551Z</time></trkpt><trkpt lat="37.847955" lon="15.292575"><ele>66.0</ele><time>2026-04-24T19:04:01.552Z</time></trkpt><trkpt lat="37.848" lon="15.2926933"><ele>66.0</ele><time>2026-04-24T19:04:02.551Z</time></trkpt><trkpt lat="37.8480467" lon="15.29279"><ele>66.0</ele><time>2026-04-24T19:04:03.551Z</time></trkpt><trkpt lat="37.84809" lon="15.2928733"><ele>66.0</ele><time>2026-04-24T19:04:04.552Z</time></trkpt><trkpt lat="37.848115" lon="15.2929633"><ele>66.0</ele><time>2026-04-24T19:04:05.552Z</time></trkpt><trkpt lat="37.8481067" lon="15.2930667"><ele>66.0</ele><time>2026-04-24T19:04:06.552Z</time></trkpt><trkpt lat="37.8480767" lon="15.2931683"><ele>66.0</ele><time>2026-04-24T19:04:07.552Z</time></trkpt><trkpt lat="37.8480017" lon="15.2932583"><ele>66.0</ele><time>2026-04-24T19:04:08.551Z</time></trkpt><trkpt lat="37.8479183" lon="15.2933567"><ele>66.0</ele><time>2026-04-24T19:04:09.551Z</time></trkpt><trkpt lat="37.8478367" lon="15.2934583"><ele>68.5</ele><time>2026-04-24T19:04:10.552Z</time></trkpt><trkpt lat="37.847755" lon="15.2935667"><ele>71.0</ele><time>2026-04-24T19:04:11.551Z</time></trkpt><trkpt lat="37.8476767" lon="15.2936883"><ele>73.5</ele><time>2026-04-24T19:04:12.551Z</time></trkpt><trkpt lat="37.8476033" lon="15.2938183"><ele>76.0</ele><time>2026-04-24T19:04:13.552Z</time></trkpt><trkpt lat="37.8475317" lon="15.2939533"><ele>69.25</ele><time>2026-04-24T19:04:14.552Z</time></trkpt><trkpt lat="37.84746" lon="15.29409"><ele>62.5</ele><time>2026-04-24T19:04:15.552Z</time></trkpt><trkpt lat="37.8473833" lon="15.294225"><ele>55.75</ele><time>2026-04-24T19:04:16.552Z</time></trkpt><trkpt lat="37.8473017" lon="15.2943667"><ele>49.0</ele><time>2026-04-24T19:04:17.552Z</time></trkpt><trkpt lat="37.8472167" lon="15.2945133"><ele>49.0</ele><time>2026-04-24T19:04:18.552Z</time></trkpt><trkpt lat="37.8471217" lon="15.2946467"><ele>49.0</ele><time>2026-04-24T19:04:19.552Z</time></trkpt><trkpt lat="37.8470317" lon="15.2947833"><ele>49.0</ele><time>2026-04-24T19:04:20.552Z</time></trkpt><trkpt lat="37.8469433" lon="15.29489"><ele>49.0</ele><time>2026-04-24T19:04:21.552Z</time></trkpt><trkpt lat="37.8468583" lon="15.2949833"><ele>47.800000000000004</ele><time>2026-04-24T19:04:22.552Z</time></trkpt><trkpt lat="37.846775" lon="15.2950683"><ele>46.6</ele><time>2026-04-24T19:04:23.552Z</time></trkpt><trkpt lat="37.8466933" lon="15.2951567"><ele>45.4</ele><time>2026-04-24T19:04:24.552Z</time></trkpt><trkpt lat="37.8466067" lon="15.2952417"><ele>44.2</ele><time>2026-04-24T19:04:25.552Z</time></trkpt><trkpt lat="37.8465367" lon="15.2953333"><ele>43.0</ele><time>2026-04-24T19:04:26.552Z</time></trkpt><trkpt lat="37.8464883" lon="15.2954367"><ele>43.0</ele><time>2026-04-24T19:04:27.552Z</time></trkpt><trkpt lat="37.8464517" lon="15.295545"><ele>43.0</ele><time>2026-04-24T19:04:28.552Z</time></trkpt><trkpt lat="37.8464233" lon="15.295665"><ele>43.0</ele><time>2026-04-24T19:04:29.552Z</time></trkpt><trkpt lat="37.8464067" lon="15.295795"><ele>43.0</ele><time>2026-04-24T19:04:30.552Z</time></trkpt><trkpt lat="37.8464" lon="15.2959167"><ele>43.0</ele><time>2026-04-24T19:04:31.552Z</time></trkpt><trkpt lat="37.84639" lon="15.296025"><ele>45.833333333333336</ele><time>2026-04-24T19:04:32.552Z</time></trkpt><trkpt lat="37.8463867" lon="15.2961283"><ele>48.66666666666667</ele><time>2026-04-24T19:04:33.551Z</time></trkpt><trkpt lat="37.8463833" lon="15.296215"><ele>51.5</ele><time>2026-04-24T19:04:34.551Z</time></trkpt><trkpt lat="37.84638" lon="15.2963233"><ele>54.333333333333336</ele><time>2026-04-24T19:04:36.552Z</time></trkpt><trkpt lat="37.846385" lon="15.2964383"><ele>57.166666666666664</ele><time>2026-04-24T19:04:38.552Z</time></trkpt><trkpt lat="37.8464033" lon="15.2965167"><ele>60.0</ele><time>2026-04-24T19:04:39.551Z</time></trkpt><trkpt lat="37.8464317" lon="15.296605"><ele>60.0</ele><time>2026-04-24T19:04:40.552Z</time></trkpt><trkpt lat="37.84647" lon="15.2966867"><ele>60.0</ele><time>2026-04-24T19:04:41.552Z</time></trkpt><trkpt lat="37.8465183" lon="15.29677"><ele>60.0</ele><time>2026-04-24T19:04:42.552Z</time></trkpt><trkpt lat="37.84658" lon="15.2968517"><ele>60.0</ele><time>2026-04-24T19:04:43.552Z</time></trkpt><trkpt lat="37.8466483" lon="15.2969317"><ele>60.0</ele><time>2026-04-24T19:04:44.551Z</time></trkpt><trkpt lat="37.8467167" lon="15.2970133"><ele>60.0</ele><time>2026-04-24T19:04:45.552Z</time></trkpt><trkpt lat="37.8467833" lon="15.2970917"><ele>60.833333333333336</ele><time>2026-04-24T19:04:46.552Z</time></trkpt><trkpt lat="37.8468433" lon="15.2971667"><ele>61.66666666666667</ele><time>2026-04-24T19:04:47.551Z</time></trkpt><trkpt lat="37.8469083" lon="15.2972317"><ele>62.5</ele><time>2026-04-24T19:04:48.552Z</time></trkpt><trkpt lat="37.8469867" lon="15.297285"><ele>63.333333333333336</ele><time>2026-04-24T19:04:49.552Z</time></trkpt><trkpt lat="37.8470717" lon="15.297315"><ele>64.16666666666667</ele><time>2026-04-24T19:04:50.552Z</time></trkpt><trkpt lat="37.847155" lon="15.2973317"><ele>65.0</ele><time>2026-04-24T19:04:51.552Z</time></trkpt><trkpt lat="37.8472367" lon="15.2973083"><ele>65.0</ele><time>2026-04-24T19:04:52.552Z</time></trkpt><trkpt lat="37.8473367" lon="15.2972533"><ele>65.0</ele><time>2026-04-24T19:04:53.551Z</time></trkpt><trkpt lat="37.8474333" lon="15.2971817"><ele>65.0</ele><time>2026-04-24T19:04:54.551Z</time></trkpt><trkpt lat="37.8475333" lon="15.2971017"><ele>65.0</ele><time>2026-04-24T19:04:55.552Z</time></trkpt><trkpt lat="37.8476433" lon="15.2970167"><ele>62.5</ele><time>2026-04-24T19:04:56.552Z</time></trkpt><trkpt lat="37.847755" lon="15.2969383"><ele>60.0</ele><time>2026-04-24T19:04:57.552Z</time></trkpt><trkpt lat="37.8478717" lon="15.2968617"><ele>57.5</ele><time>2026-04-24T19:04:58.551Z</time></trkpt><trkpt lat="37.8479817" lon="15.29679"><ele>55.0</ele><time>2026-04-24T19:04:59.552Z</time></trkpt><trkpt lat="37.8480917" lon="15.296725"><ele>55.0</ele><time>2026-04-24T19:05:00.552Z</time></trkpt><trkpt lat="37.8481983" lon="15.2966617"><ele>55.0</ele><time>2026-04-24T19:05:01.552Z</time></trkpt><trkpt lat="37.84831" lon="15.2965967"><ele>55.0</ele><time>2026-04-24T19:05:02.552Z</time></trkpt><trkpt lat="37.8484167" lon="15.29653"><ele>55.0</ele><time>2026-04-24T19:05:03.552Z</time></trkpt><trkpt lat="37.8485217" lon="15.2964717"><ele>60.4</ele><time>2026-04-24T19:05:04.552Z</time></trkpt><trkpt lat="37.848625" lon="15.296415"><ele>65.8</ele><time>2026-04-24T19:05:05.552Z</time></trkpt><trkpt lat="37.8487217" lon="15.29637"><ele>71.19999999999999</ele><time>2026-04-24T19:05:06.552Z</time></trkpt><trkpt lat="37.8488217" lon="15.2963333"><ele>76.6</ele><time>2026-04-24T19:05:07.551Z</time></trkpt><trkpt lat="37.8489217" lon="15.2963117"><ele>82.0</ele><time>2026-04-24T19:05:08.551Z</time></trkpt><trkpt lat="37.84902" lon="15.2962933"><ele>82.0</ele><time>2026-04-24T19:05:09.551Z</time></trkpt><trkpt lat="37.8491033" lon="15.2962817"><ele>82.0</ele><time>2026-04-24T19:05:10.552Z</time></trkpt><trkpt lat="37.8491933" lon="15.2962767"><ele>82.0</ele><time>2026-04-24T19:05:11.552Z</time></trkpt><trkpt lat="37.849275" lon="15.2962767"><ele>82.0</ele><time>2026-04-24T19:05:12.552Z</time></trkpt><trkpt lat="37.8493733" lon="15.29627"><ele>82.0</ele><time>2026-04-24T19:05:13.551Z</time></trkpt><trkpt lat="37.8494733" lon="15.29626"><ele>89.0</ele><time>2026-04-24T19:05:14.551Z</time></trkpt><trkpt lat="37.8495767" lon="15.2962583"><ele>96.0</ele><time>2026-04-24T19:05:15.551Z</time></trkpt><trkpt lat="37.8496933" lon="15.2962567"><ele>102.99999999999999</ele><time>2026-04-24T19:05:16.551Z</time></trkpt><trkpt lat="37.8498067" lon="15.29626"><ele>110.0</ele><time>2026-04-24T19:05:17.552Z</time></trkpt><trkpt lat="37.8499217" lon="15.29627"><ele>117.0</ele><time>2026-04-24T19:05:18.551Z</time></trkpt><trkpt lat="37.8500233" lon="15.296285"><ele>117.0</ele><time>2026-04-24T19:05:19.552Z</time></trkpt><trkpt lat="37.8501183" lon="15.296295"><ele>116.99999999999999</ele><time>2026-04-24T19:05:20.552Z</time></trkpt><trkpt lat="37.8502117" lon="15.2963133"><ele>116.99999999999999</ele><time>2026-04-24T19:05:21.551Z</time></trkpt><trkpt lat="37.8503067" lon="15.29633"><ele>117.0</ele><time>2026-04-24T19:05:22.552Z</time></trkpt><trkpt lat="37.8504117" lon="15.2963617"><ele>117.0</ele><time>2026-04-24T19:05:23.551Z</time></trkpt><trkpt lat="37.850535" lon="15.2964217"><ele>115.75</ele><time>2026-04-24T19:05:24.552Z</time></trkpt><trkpt lat="37.8506583" lon="15.296505"><ele>114.5</ele><time>2026-04-24T19:05:25.551Z</time></trkpt><trkpt lat="37.8507817" lon="15.29657"><ele>113.25</ele><time>2026-04-24T19:05:26.552Z</time></trkpt><trkpt lat="37.8508933" lon="15.2966517"><ele>112.0</ele><time>2026-04-24T19:05:27.552Z</time></trkpt><trkpt lat="37.851" lon="15.296725"><ele>112.0</ele><time>2026-04-24T19:05:28.552Z</time></trkpt><trkpt lat="37.8510933" lon="15.296785"><ele>111.99999999999999</ele><time>2026-04-24T19:05:29.551Z</time></trkpt><trkpt lat="37.8511767" lon="15.296845"><ele>111.99999999999999</ele><time>2026-04-24T19:05:30.551Z</time></trkpt><trkpt lat="37.8512517" lon="15.2969283"><ele>112.0</ele><time>2026-04-24T19:05:31.551Z</time></trkpt><trkpt lat="37.8513133" lon="15.2970433"><ele>112.0</ele><time>2026-04-24T19:05:32.551Z</time></trkpt><trkpt lat="37.85138" lon="15.297175"><ele>95.75</ele><time>2026-04-24T19:05:33.552Z</time></trkpt><trkpt lat="37.851445" lon="15.297315"><ele>79.5</ele><time>2026-04-24T19:05:34.552Z</time></trkpt><trkpt lat="37.8515167" lon="15.297455"><ele>63.25</ele><time>2026-04-24T19:05:35.552Z</time></trkpt><trkpt lat="37.851585" lon="15.2975933"><ele>47.0</ele><time>2026-04-24T19:05:36.552Z</time></trkpt><trkpt lat="37.8516617" lon="15.2977133"><ele>47.0</ele><time>2026-04-24T19:05:37.552Z</time></trkpt><trkpt lat="37.8517417" lon="15.2978217"><ele>47.0</ele><time>2026-04-24T19:05:38.552Z</time></trkpt><trkpt lat="37.8518283" lon="15.297925"><ele>47.0</ele><time>2026-04-24T19:05:39.551Z</time></trkpt><trkpt lat="37.851915" lon="15.2980233"><ele>47.0</ele><time>2026-04-24T19:05:40.552Z</time></trkpt><trkpt lat="37.851995" lon="15.2981283"><ele>47.0</ele><time>2026-04-24T19:05:41.552Z</time></trkpt><trkpt lat="37.852075" lon="15.298235"><ele>47.0</ele><time>2026-04-24T19:05:42.551Z</time></trkpt><trkpt lat="37.8521633" lon="15.2983267"><ele>47.0</ele><time>2026-04-24T19:05:43.552Z</time></trkpt><trkpt lat="37.8522567" lon="15.2984083"><ele>47.0</ele><time>2026-04-24T19:05:44.552Z</time></trkpt><trkpt lat="37.8523583" lon="15.2984783"><ele>47.0</ele><time>2026-04-24T19:05:45.552Z</time></trkpt><trkpt lat="37.85246" lon="15.2985467"><ele>47.0</ele><time>2026-04-24T19:05:46.552Z</time></trkpt><trkpt lat="37.8525633" lon="15.298615"><ele>47.0</ele><time>2026-04-24T19:05:47.552Z</time></trkpt><trkpt lat="37.85266" lon="15.29869"><ele>47.0</ele><time>2026-04-24T19:05:48.552Z</time></trkpt><trkpt lat="37.8527567" lon="15.2987583"><ele>47.5</ele><time>2026-04-24T19:05:49.552Z</time></trkpt><trkpt lat="37.85285" lon="15.2988383"><ele>48.0</ele><time>2026-04-24T19:05:50.551Z</time></trkpt><trkpt lat="37.852935" lon="15.2989317"><ele>48.5</ele><time>2026-04-24T19:05:51.551Z</time></trkpt><trkpt lat="37.853015" lon="15.2990333"><ele>49.0</ele><time>2026-04-24T19:05:52.551Z</time></trkpt><trkpt lat="37.8530883" lon="15.2991467"><ele>49.0</ele><time>2026-04-24T19:05:53.552Z</time></trkpt><trkpt lat="37.85316" lon="15.2992617"><ele>49.0</ele><time>2026-04-24T19:05:54.552Z</time></trkpt><trkpt lat="37.8532333" lon="15.29937"><ele>49.0</ele><time>2026-04-24T19:05:55.553Z</time></trkpt><trkpt lat="37.8533033" lon="15.2994767"><ele>49.0</ele><time>2026-04-24T19:05:56.552Z</time></trkpt><trkpt lat="37.8533733" lon="15.29958"><ele>49.0</ele><time>2026-04-24T19:05:57.552Z</time></trkpt><trkpt lat="37.8534383" lon="15.2996817"><ele>49.0</ele><time>2026-04-24T19:05:58.552Z</time></trkpt><trkpt lat="37.8535017" lon="15.29979"><ele>49.0</ele><time>2026-04-24T19:05:59.552Z</time></trkpt><trkpt lat="37.853555" lon="15.2999067"><ele>49.0</ele><time>2026-04-24T19:06:00.552Z</time></trkpt><trkpt lat="37.8536" lon="15.300035"><ele>49.0</ele><time>2026-04-24T19:06:01.553Z</time></trkpt><trkpt lat="37.8536233" lon="15.30017"><ele>49.0</ele><time>2026-04-24T19:06:02.553Z</time></trkpt><trkpt lat="37.8536383" lon="15.3003067"><ele>48.99999999999999</ele><time>2026-04-24T19:06:03.552Z</time></trkpt><trkpt lat="37.8536567" lon="15.300425"><ele>49.0</ele><time>2026-04-24T19:06:04.552Z</time></trkpt><trkpt lat="37.85367" lon="15.3005383"><ele>49.0</ele><time>2026-04-24T19:06:05.552Z</time></trkpt><trkpt lat="37.8536867" lon="15.3006483"><ele>49.0</ele><time>2026-04-24T19:06:06.553Z</time></trkpt><trkpt lat="37.8537183" lon="15.3007467"><ele>48.99999999999999</ele><time>2026-04-24T19:06:07.553Z</time></trkpt><trkpt lat="37.8537633" lon="15.3008333"><ele>49.0</ele><time>2026-04-24T19:06:08.552Z</time></trkpt><trkpt lat="37.8538117" lon="15.3008883"><ele>46.6</ele><time>2026-04-24T19:06:09.552Z</time></trkpt><trkpt lat="37.853925" lon="15.3009483"><ele>44.2</ele><time>2026-04-24T19:06:11.553Z</time></trkpt><trkpt lat="37.8539983" lon="15.3009517"><ele>41.800000000000004</ele><time>2026-04-24T19:06:12.552Z</time></trkpt><trkpt lat="37.8540867" lon="15.3009333"><ele>39.400000000000006</ele><time>2026-04-24T19:06:13.552Z</time></trkpt><trkpt lat="37.8541783" lon="15.3008917"><ele>37.0</ele><time>2026-04-24T19:06:14.553Z</time></trkpt><trkpt lat="37.8542783" lon="15.30085"><ele>33.800000000000004</ele><time>2026-04-24T19:06:15.553Z</time></trkpt><trkpt lat="37.8543767" lon="15.30081"><ele>30.6</ele><time>2026-04-24T19:06:16.553Z</time></trkpt><trkpt lat="37.854475" lon="15.3007667"><ele>27.400000000000002</ele><time>2026-04-24T19:06:17.553Z</time></trkpt><trkpt lat="37.8545733" lon="15.3007317"><ele>24.200000000000003</ele><time>2026-04-24T19:06:18.553Z</time></trkpt><trkpt lat="37.8546783" lon="15.300695"><ele>21.0</ele><time>2026-04-24T19:06:19.553Z</time></trkpt><trkpt lat="37.8547817" lon="15.300645"><ele>21.0</ele><time>2026-04-24T19:06:20.553Z</time></trkpt><trkpt lat="37.8548833" lon="15.300595"><ele>21.0</ele><time>2026-04-24T19:06:21.552Z</time></trkpt><trkpt lat="37.8549667" lon="15.3005433"><ele>21.0</ele><time>2026-04-24T19:06:22.553Z</time></trkpt><trkpt lat="37.8550467" lon="15.3004967"><ele>21.0</ele><time>2026-04-24T19:06:23.553Z</time></trkpt><trkpt lat="37.8551333" lon="15.3004533"><ele>21.0</ele><time>2026-04-24T19:06:24.553Z</time></trkpt><trkpt lat="37.8552167" lon="15.3004083"><ele>23.166666666666668</ele><time>2026-04-24T19:06:25.553Z</time></trkpt><trkpt lat="37.855295" lon="15.300365"><ele>25.333333333333336</ele><time>2026-04-24T19:06:26.553Z</time></trkpt><trkpt lat="37.8553683" lon="15.30033"><ele>27.5</ele><time>2026-04-24T19:06:27.553Z</time></trkpt><trkpt lat="37.855435" lon="15.3003117"><ele>29.666666666666668</ele><time>2026-04-24T19:06:28.553Z</time></trkpt><trkpt lat="37.8555117" lon="15.3003033"><ele>31.833333333333336</ele><time>2026-04-24T19:06:29.552Z</time></trkpt><trkpt lat="37.8555933" lon="15.3003117"><ele>34.0</ele><time>2026-04-24T19:06:30.553Z</time></trkpt><trkpt lat="37.855675" lon="15.3003367"><ele>34.0</ele><time>2026-04-24T19:06:31.553Z</time></trkpt><trkpt lat="37.8557667" lon="15.30036"><ele>34.0</ele><time>2026-04-24T19:06:32.552Z</time></trkpt><trkpt lat="37.85586" lon="15.3003833"><ele>34.0</ele><time>2026-04-24T19:06:33.552Z</time></trkpt><trkpt lat="37.8559517" lon="15.30041"><ele>34.0</ele><time>2026-04-24T19:06:34.553Z</time></trkpt><trkpt lat="37.856045" lon="15.3004417"><ele>34.0</ele><time>2026-04-24T19:06:35.553Z</time></trkpt><trkpt lat="37.8561367" lon="15.3004667"><ele>35.2</ele><time>2026-04-24T19:06:36.552Z</time></trkpt><trkpt lat="37.8562283" lon="15.3004867"><ele>36.4</ele><time>2026-04-24T19:06:37.552Z</time></trkpt><trkpt lat="37.8563183" lon="15.3005133"><ele>37.6</ele><time>2026-04-24T19:06:38.553Z</time></trkpt><trkpt lat="37.85641" lon="15.3005383"><ele>38.8</ele><time>2026-04-24T19:06:39.553Z</time></trkpt><trkpt lat="37.856505" lon="15.3005667"><ele>40.0</ele><time>2026-04-24T19:06:40.552Z</time></trkpt><trkpt lat="37.8566" lon="15.3006017"><ele>38.0</ele><time>2026-04-24T19:06:41.552Z</time></trkpt><trkpt lat="37.85669" lon="15.3006333"><ele>36.0</ele><time>2026-04-24T19:06:42.552Z</time></trkpt><trkpt lat="37.856785" lon="15.3006583"><ele>34.0</ele><time>2026-04-24T19:06:43.553Z</time></trkpt><trkpt lat="37.856875" lon="15.30067"><ele>32.0</ele><time>2026-04-24T19:06:44.552Z</time></trkpt><trkpt lat="37.8569517" lon="15.3006617"><ele>30.000000000000004</ele><time>2026-04-24T19:06:45.552Z</time></trkpt><trkpt lat="37.8570183" lon="15.3006233"><ele>28.0</ele><time>2026-04-24T19:06:46.553Z</time></trkpt><trkpt lat="37.8570833" lon="15.300565"><ele>27.666666666666668</ele><time>2026-04-24T19:06:47.552Z</time></trkpt><trkpt lat="37.8571517" lon="15.30049"><ele>27.333333333333336</ele><time>2026-04-24T19:06:48.552Z</time></trkpt><trkpt lat="37.85722" lon="15.3004217"><ele>27.0</ele><time>2026-04-24T19:06:49.552Z</time></trkpt><trkpt lat="37.85727" lon="15.3003433"><ele>26.666666666666664</ele><time>2026-04-24T19:06:50.552Z</time></trkpt><trkpt lat="37.8573183" lon="15.300255"><ele>26.333333333333332</ele><time>2026-04-24T19:06:51.552Z</time></trkpt><trkpt lat="37.8573633" lon="15.3001733"><ele>26.0</ele><time>2026-04-24T19:06:52.553Z</time></trkpt><trkpt lat="37.85741" lon="15.300095"><ele>26.0</ele><time>2026-04-24T19:06:53.553Z</time></trkpt><trkpt lat="37.85745" lon="15.3000033"><ele>26.0</ele><time>2026-04-24T19:06:54.553Z</time></trkpt><trkpt lat="37.8574867" lon="15.2998883"><ele>26.0</ele><time>2026-04-24T19:06:55.553Z</time></trkpt><trkpt lat="37.8575183" lon="15.299765"><ele>26.0</ele><time>2026-04-24T19:06:56.552Z</time></trkpt><trkpt lat="37.8575483" lon="15.29964"><ele>26.0</ele><time>2026-04-24T19:06:57.553Z</time></trkpt><trkpt lat="37.8575817" lon="15.2995233"><ele>28.4</ele><time>2026-04-24T19:06:58.553Z</time></trkpt><trkpt lat="37.8576133" lon="15.2994117"><ele>30.8</ele><time>2026-04-24T19:06:59.553Z</time></trkpt><trkpt lat="37.857655" lon="15.2992917"><ele>33.199999999999996</ele><time>2026-04-24T19:07:00.552Z</time></trkpt><trkpt lat="37.857695" lon="15.299175"><ele>35.6</ele><time>2026-04-24T19:07:01.553Z</time></trkpt><trkpt lat="37.8577383" lon="15.2990583"><ele>38.0</ele><time>2026-04-24T19:07:02.553Z</time></trkpt><trkpt lat="37.8577817" lon="15.298945"><ele>32.0</ele><time>2026-04-24T19:07:03.552Z</time></trkpt><trkpt lat="37.85785" lon="15.2988317"><ele>26.0</ele><time>2026-04-24T19:07:04.553Z</time></trkpt><trkpt lat="37.8579317" lon="15.298725"><ele>20.0</ele><time>2026-04-24T19:07:05.552Z</time></trkpt><trkpt lat="37.85801" lon="15.2986067"><ele>14.0</ele><time>2026-04-24T19:07:06.552Z</time></trkpt><trkpt lat="37.8580833" lon="15.2984783"><ele>14.0</ele><time>2026-04-24T19:07:07.553Z</time></trkpt><trkpt lat="37.8581467" lon="15.29834"><ele>14.0</ele><time>2026-04-24T19:07:08.553Z</time></trkpt><trkpt lat="37.8582083" lon="15.29821"><ele>14.0</ele><time>2026-04-24T19:07:09.552Z</time></trkpt><trkpt lat="37.8582717" lon="15.298075"><ele>14.0</ele><time>2026-04-24T19:07:10.552Z</time></trkpt><trkpt lat="37.8583367" lon="15.2979383"><ele>11.25</ele><time>2026-04-24T19:07:11.553Z</time></trkpt><trkpt lat="37.858405" lon="15.2978033"><ele>8.5</ele><time>2026-04-24T19:07:12.552Z</time></trkpt><trkpt lat="37.85847" lon="15.2976717"><ele>5.75</ele><time>2026-04-24T19:07:13.552Z</time></trkpt><trkpt lat="37.8585383" lon="15.2975417"><ele>3.0</ele><time>2026-04-24T19:07:14.552Z</time></trkpt><trkpt lat="37.8586017" lon="15.2974067"><ele>3.0</ele><time>2026-04-24T19:07:15.552Z</time></trkpt><trkpt lat="37.8586583" lon="15.2972667"><ele>3.0</ele><time>2026-04-24T19:07:16.553Z</time></trkpt><trkpt lat="37.8587083" lon="15.2971167"><ele>3.0</ele><time>2026-04-24T19:07:17.553Z</time></trkpt><trkpt lat="37.8587433" lon="15.2969867"><ele>3.0</ele><time>2026-04-24T19:07:18.552Z</time></trkpt><trkpt lat="37.8587767" lon="15.2968683"><ele>6.5</ele><time>2026-04-24T19:07:19.553Z</time></trkpt><trkpt lat="37.8588117" lon="15.2967533"><ele>10.0</ele><time>2026-04-24T19:07:20.553Z</time></trkpt><trkpt lat="37.8588717" lon="15.29664"><ele>13.5</ele><time>2026-04-24T19:07:21.553Z</time></trkpt><trkpt lat="37.858955" lon="15.2965283"><ele>17.0</ele><time>2026-04-24T19:07:22.552Z</time></trkpt><trkpt lat="37.8590583" lon="15.2964317"><ele>16.0</ele><time>2026-04-24T19:07:23.552Z</time></trkpt><trkpt lat="37.8591633" lon="15.2963433"><ele>15.0</ele><time>2026-04-24T19:07:24.552Z</time></trkpt><trkpt lat="37.8592583" lon="15.29627"><ele>14.0</ele><time>2026-04-24T19:07:25.552Z</time></trkpt><trkpt lat="37.8593517" lon="15.2962017"><ele>13.0</ele><time>2026-04-24T19:07:26.552Z</time></trkpt><trkpt lat="37.8594317" lon="15.2961167"><ele>13.0</ele><time>2026-04-24T19:07:27.553Z</time></trkpt><trkpt lat="37.8595017" lon="15.2960217"><ele>13.0</ele><time>2026-04-24T19:07:28.552Z</time></trkpt><trkpt lat="37.8595567" lon="15.2959133"><ele>13.0</ele><time>2026-04-24T19:07:29.553Z</time></trkpt><trkpt lat="37.8596" lon="15.295815"><ele>13.0</ele><time>2026-04-24T19:07:30.552Z</time></trkpt><trkpt lat="37.8596467" lon="15.2957167"><ele>13.0</ele><time>2026-04-24T19:07:31.553Z</time></trkpt><trkpt lat="37.8596983" lon="15.295625"><ele>14.8</ele><time>2026-04-24T19:07:32.552Z</time></trkpt><trkpt lat="37.859765" lon="15.2955533"><ele>16.6</ele><time>2026-04-24T19:07:33.552Z</time></trkpt><trkpt lat="37.8598467" lon="15.29549"><ele>18.400000000000002</ele><time>2026-04-24T19:07:34.553Z</time></trkpt><trkpt lat="37.8599367" lon="15.2954383"><ele>20.200000000000003</ele><time>2026-04-24T19:07:35.553Z</time></trkpt><trkpt lat="37.860025" lon="15.2954067"><ele>22.0</ele><time>2026-04-24T19:07:36.553Z</time></trkpt><trkpt lat="37.8601083" lon="15.2953867"><ele>24.200000000000003</ele><time>2026-04-24T19:07:37.553Z</time></trkpt><trkpt lat="37.8602017" lon="15.295375"><ele>26.4</ele><time>2026-04-24T19:07:38.553Z</time></trkpt><trkpt lat="37.8602967" lon="15.295385"><ele>28.599999999999998</ele><time>2026-04-24T19:07:39.552Z</time></trkpt><trkpt lat="37.8603917" lon="15.2954033"><ele>30.799999999999997</ele><time>2026-04-24T19:07:40.552Z</time></trkpt><trkpt lat="37.8604967" lon="15.2954233"><ele>33.0</ele><time>2026-04-24T19:07:41.553Z</time></trkpt><trkpt lat="37.8606133" lon="15.2954483"><ele>33.0</ele><time>2026-04-24T19:07:42.553Z</time></trkpt><trkpt lat="37.8607333" lon="15.2954767"><ele>33.0</ele><time>2026-04-24T19:07:43.553Z</time></trkpt><trkpt lat="37.8608483" lon="15.2955033"><ele>33.0</ele><time>2026-04-24T19:07:44.552Z</time></trkpt><trkpt lat="37.8609683" lon="15.2955367"><ele>33.0</ele><time>2026-04-24T19:07:45.552Z</time></trkpt><trkpt lat="37.861085" lon="15.2955767"><ele>33.5</ele><time>2026-04-24T19:07:46.552Z</time></trkpt><trkpt lat="37.8611967" lon="15.2956217"><ele>34.0</ele><time>2026-04-24T19:07:47.553Z</time></trkpt><trkpt lat="37.8613033" lon="15.2956817"><ele>34.5</ele><time>2026-04-24T19:07:48.552Z</time></trkpt><trkpt lat="37.8613883" lon="15.2957683"><ele>35.0</ele><time>2026-04-24T19:07:49.552Z</time></trkpt><trkpt lat="37.8614617" lon="15.2958867"><ele>35.0</ele><time>2026-04-24T19:07:50.553Z</time></trkpt><trkpt lat="37.861525" lon="15.29601"><ele>35.0</ele><time>2026-04-24T19:07:51.553Z</time></trkpt><trkpt lat="37.861575" lon="15.29613"><ele>35.0</ele><time>2026-04-24T19:07:52.553Z</time></trkpt><trkpt lat="37.861635" lon="15.29622"><ele>35.0</ele><time>2026-04-24T19:07:53.553Z</time></trkpt><trkpt lat="37.86171" lon="15.296285"><ele>35.0</ele><time>2026-04-24T19:07:54.553Z</time></trkpt><trkpt lat="37.8618017" lon="15.2963217"><ele>35.8</ele><time>2026-04-24T19:07:55.553Z</time></trkpt><trkpt lat="37.8618933" lon="15.296345"><ele>36.6</ele><time>2026-04-24T19:07:56.552Z</time></trkpt><trkpt lat="37.8619917" lon="15.29636"><ele>37.4</ele><time>2026-04-24T19:07:57.553Z</time></trkpt><trkpt lat="37.8620917" lon="15.2963683"><ele>38.2</ele><time>2026-04-24T19:07:58.553Z</time></trkpt><trkpt lat="37.86219" lon="15.2963717"><ele>39.0</ele><time>2026-04-24T19:07:59.552Z</time></trkpt><trkpt lat="37.862285" lon="15.29638"><ele>39.0</ele><time>2026-04-24T19:08:00.553Z</time></trkpt><trkpt lat="37.8623783" lon="15.296375"><ele>39.0</ele><time>2026-04-24T19:08:01.553Z</time></trkpt><trkpt lat="37.8624617" lon="15.29635"><ele>39.0</ele><time>2026-04-24T19:08:02.553Z</time></trkpt><trkpt lat="37.8625317" lon="15.296295"><ele>39.0</ele><time>2026-04-24T19:08:03.552Z</time></trkpt><trkpt lat="37.8626" lon="15.2962217"><ele>39.0</ele><time>2026-04-24T19:08:04.553Z</time></trkpt><trkpt lat="37.8626633" lon="15.2961333"><ele>39.0</ele><time>2026-04-24T19:08:05.553Z</time></trkpt><trkpt lat="37.8627233" lon="15.2960317"><ele>36.6</ele><time>2026-04-24T19:08:06.552Z</time></trkpt><trkpt lat="37.862795" lon="15.2959417"><ele>34.2</ele><time>2026-04-24T19:08:07.553Z</time></trkpt><trkpt lat="37.8628817" lon="15.2958883"><ele>31.800000000000004</ele><time>2026-04-24T19:08:08.553Z</time></trkpt><trkpt lat="37.8629783" lon="15.29584"><ele>29.400000000000002</ele><time>2026-04-24T19:08:09.553Z</time></trkpt><trkpt lat="37.8630917" lon="15.2958283"><ele>27.0</ele><time>2026-04-24T19:08:10.552Z</time></trkpt><trkpt lat="37.8631933" lon="15.295845"><ele>27.0</ele><time>2026-04-24T19:08:11.552Z</time></trkpt><trkpt lat="37.8632967" lon="15.2958583"><ele>27.000000000000004</ele><time>2026-04-24T19:08:12.553Z</time></trkpt><trkpt lat="37.8633983" lon="15.295875"><ele>27.000000000000004</ele><time>2026-04-24T19:08:13.552Z</time></trkpt><trkpt lat="37.8634967" lon="15.2958983"><ele>27.0</ele><time>2026-04-24T19:08:14.553Z</time></trkpt><trkpt lat="37.8635933" lon="15.2959217"><ele>27.0</ele><time>2026-04-24T19:08:15.552Z</time></trkpt><trkpt lat="37.86369" lon="15.2959383"><ele>27.166666666666668</ele><time>2026-04-24T19:08:16.553Z</time></trkpt><trkpt lat="37.8637867" lon="15.295955"><ele>27.333333333333336</ele><time>2026-04-24T19:08:17.553Z</time></trkpt><trkpt lat="37.863875" lon="15.2959667"><ele>27.5</ele><time>2026-04-24T19:08:18.553Z</time></trkpt><trkpt lat="37.8639667" lon="15.2959817"><ele>27.666666666666668</ele><time>2026-04-24T19:08:19.552Z</time></trkpt><trkpt lat="37.8640417" lon="15.2959983"><ele>27.833333333333336</ele><time>2026-04-24T19:08:20.552Z</time></trkpt><trkpt lat="37.86413" lon="15.29604"><ele>28.0</ele><time>2026-04-24T19:08:22.552Z</time></trkpt><trkpt lat="37.8642783" lon="15.2960833"><ele>31.0</ele><time>2026-04-24T19:37:01.554Z</time></trkpt><trkpt lat="37.864355" lon="15.2961383"><ele>34.0</ele><time>2026-04-24T19:37:02.554Z</time></trkpt><trkpt lat="37.8644383" lon="15.29618"><ele>37.0</ele><time>2026-04-24T19:37:03.554Z</time></trkpt><trkpt lat="37.86453" lon="15.2962217"><ele>40.0</ele><time>2026-04-24T19:37:04.554Z</time></trkpt><trkpt lat="37.86463" lon="15.2962667"><ele>43.0</ele><time>2026-04-24T19:37:05.554Z</time></trkpt><trkpt lat="37.8647267" lon="15.2963167"><ele>43.0</ele><time>2026-04-24T19:37:06.553Z</time></trkpt><trkpt lat="37.8648183" lon="15.2963667"><ele>43.0</ele><time>2026-04-24T19:37:07.553Z</time></trkpt><trkpt lat="37.864905" lon="15.2964233"><ele>43.0</ele><time>2026-04-24T19:37:08.554Z</time></trkpt><trkpt lat="37.8649933" lon="15.296475"><ele>43.0</ele><time>2026-04-24T19:37:09.554Z</time></trkpt><trkpt lat="37.8650817" lon="15.29653"><ele>43.0</ele><time>2026-04-24T19:37:10.553Z</time></trkpt><trkpt lat="37.8651717" lon="15.2965883"><ele>39.8</ele><time>2026-04-24T19:37:11.553Z</time></trkpt><trkpt lat="37.865265" lon="15.2966383"><ele>36.599999999999994</ele><time>2026-04-24T19:37:12.553Z</time></trkpt><trkpt lat="37.8653467" lon="15.2966933"><ele>33.400000000000006</ele><time>2026-04-24T19:37:13.554Z</time></trkpt><trkpt lat="37.8654333" lon="15.2967433"><ele>30.200000000000003</ele><time>2026-04-24T19:37:14.554Z</time></trkpt><trkpt lat="37.86553" lon="15.2968"><ele>27.0</ele><time>2026-04-24T19:37:15.554Z</time></trkpt><trkpt lat="37.8656317" lon="15.296855"><ele>27.0</ele><time>2026-04-24T19:37:16.553Z</time></trkpt><trkpt lat="37.865735" lon="15.296905"><ele>27.000000000000004</ele><time>2026-04-24T19:37:17.554Z</time></trkpt><trkpt lat="37.865835" lon="15.29696"><ele>27.000000000000004</ele><time>2026-04-24T19:37:18.553Z</time></trkpt><trkpt lat="37.8659283" lon="15.2970267"><ele>27.0</ele><time>2026-04-24T19:37:19.553Z</time></trkpt><trkpt lat="37.8660183" lon="15.2971017"><ele>27.0</ele><time>2026-04-24T19:37:20.553Z</time></trkpt><trkpt lat="37.8661033" lon="15.2971867"><ele>27.0</ele><time>2026-04-24T19:37:21.554Z</time></trkpt><trkpt lat="37.8661783" lon="15.297275"><ele>27.000000000000004</ele><time>2026-04-24T19:37:22.553Z</time></trkpt><trkpt lat="37.866245" lon="15.2973583"><ele>27.000000000000004</ele><time>2026-04-24T19:37:23.553Z</time></trkpt><trkpt lat="37.86631" lon="15.297445"><ele>27.0</ele><time>2026-04-24T19:37:24.554Z</time></trkpt><trkpt lat="37.8663717" lon="15.2975417"><ele>27.0</ele><time>2026-04-24T19:37:25.554Z</time></trkpt><trkpt lat="37.86643" lon="15.2976367"><ele>27.0</ele><time>2026-04-24T19:37:26.554Z</time></trkpt><trkpt lat="37.8664883" lon="15.29773"><ele>27.000000000000004</ele><time>2026-04-24T19:37:27.554Z</time></trkpt><trkpt lat="37.8665533" lon="15.297825"><ele>27.000000000000004</ele><time>2026-04-24T19:37:28.553Z</time></trkpt><trkpt lat="37.8666133" lon="15.297915"><ele>27.0</ele><time>2026-04-24T19:37:29.553Z</time></trkpt><trkpt lat="37.8666733" lon="15.298"><ele>27.0</ele><time>2026-04-24T19:37:30.554Z</time></trkpt><trkpt lat="37.866745" lon="15.2980783"><ele>25.0</ele><time>2026-04-24T19:37:31.554Z</time></trkpt><trkpt lat="37.8668283" lon="15.29814"><ele>23.000000000000004</ele><time>2026-04-24T19:37:32.553Z</time></trkpt><trkpt lat="37.8669233" lon="15.2981867"><ele>21.0</ele><time>2026-04-24T19:37:33.554Z</time></trkpt><trkpt lat="37.8670267" lon="15.2982233"><ele>19.0</ele><time>2026-04-24T19:37:34.554Z</time></trkpt><trkpt lat="37.8671317" lon="15.29826"><ele>17.0</ele><time>2026-04-24T19:37:35.554Z</time></trkpt><trkpt lat="37.8672317" lon="15.2982883"><ele>17.0</ele><time>2026-04-24T19:37:36.553Z</time></trkpt><trkpt lat="37.867325" lon="15.298315"><ele>17.0</ele><time>2026-04-24T19:37:37.554Z</time></trkpt><trkpt lat="37.8674233" lon="15.2983283"><ele>17.0</ele><time>2026-04-24T19:37:38.554Z</time></trkpt><trkpt lat="37.8675283" lon="15.2983217"><ele>17.0</ele><time>2026-04-24T19:37:39.554Z</time></trkpt><trkpt lat="37.8676317" lon="15.2982917"><ele>17.0</ele><time>2026-04-24T19:37:40.554Z</time></trkpt><trkpt lat="37.8677367" lon="15.2982383"><ele>16.75</ele><time>2026-04-24T19:37:41.554Z</time></trkpt><trkpt lat="37.8678467" lon="15.2981767"><ele>16.5</ele><time>2026-04-24T19:37:42.553Z</time></trkpt><trkpt lat="37.8679583" lon="15.2981283"><ele>16.25</ele><time>2026-04-24T19:37:43.553Z</time></trkpt><trkpt lat="37.8680683" lon="15.298085"><ele>16.0</ele><time>2026-04-24T19:37:44.554Z</time></trkpt><trkpt lat="37.8681783" lon="15.2980583"><ele>17.75</ele><time>2026-04-24T19:37:45.554Z</time></trkpt><trkpt lat="37.868285" lon="15.2980383"><ele>19.5</ele><time>2026-04-24T19:37:46.553Z</time></trkpt><trkpt lat="37.8683917" lon="15.29804"><ele>21.25</ele><time>2026-04-24T19:37:47.553Z</time></trkpt><trkpt lat="37.86851" lon="15.2980617"><ele>23.0</ele><time>2026-04-24T19:37:48.553Z</time></trkpt><trkpt lat="37.8686283" lon="15.2980967"><ele>23.0</ele><time>2026-04-24T19:37:49.554Z</time></trkpt><trkpt lat="37.8687483" lon="15.2981367"><ele>23.0</ele><time>2026-04-24T19:37:50.554Z</time></trkpt><trkpt lat="37.8688733" lon="15.2981817"><ele>23.0</ele><time>2026-04-24T19:37:51.554Z</time></trkpt><trkpt lat="37.868995" lon="15.2982217"><ele>23.0</ele><time>2026-04-24T19:37:52.554Z</time></trkpt><trkpt lat="37.8690983" lon="15.29826"><ele>23.0</ele><time>2026-04-24T19:37:53.553Z</time></trkpt><trkpt lat="37.8692" lon="15.2983"><ele>23.0</ele><time>2026-04-24T19:37:54.554Z</time></trkpt><trkpt lat="37.8693117" lon="15.29834"><ele>23.0</ele><time>2026-04-24T19:37:55.553Z</time></trkpt><trkpt lat="37.8694183" lon="15.2983783"><ele>23.0</ele><time>2026-04-24T19:37:56.554Z</time></trkpt><trkpt lat="37.8695183" lon="15.298415"><ele>23.0</ele><time>2026-04-24T19:37:57.553Z</time></trkpt><trkpt lat="37.86963" lon="15.29845"><ele>25.25</ele><time>2026-04-24T19:37:58.553Z</time></trkpt><trkpt lat="37.86974" lon="15.2984917"><ele>27.5</ele><time>2026-04-24T19:37:59.553Z</time></trkpt><trkpt lat="37.86985" lon="15.2985333"><ele>29.75</ele><time>2026-04-24T19:38:00.554Z</time></trkpt><trkpt lat="37.8699567" lon="15.2985783"><ele>32.0</ele><time>2026-04-24T19:38:01.553Z</time></trkpt><trkpt lat="37.8700633" lon="15.2986217"><ele>36.5</ele><time>2026-04-24T19:38:02.553Z</time></trkpt><trkpt lat="37.8701667" lon="15.2986683"><ele>41.0</ele><time>2026-04-24T19:38:03.553Z</time></trkpt><trkpt lat="37.8702767" lon="15.298715"><ele>45.5</ele><time>2026-04-24T19:38:04.554Z</time></trkpt><trkpt lat="37.870385" lon="15.2987683"><ele>50.0</ele><time>2026-04-24T19:38:05.553Z</time></trkpt><trkpt lat="37.870495" lon="15.2988183"><ele>50.0</ele><time>2026-04-24T19:38:06.554Z</time></trkpt><trkpt lat="37.8706067" lon="15.298865"><ele>50.0</ele><time>2026-04-24T19:38:07.553Z</time></trkpt><trkpt lat="37.8707183" lon="15.2989083"><ele>50.0</ele><time>2026-04-24T19:38:08.554Z</time></trkpt><trkpt lat="37.87083" lon="15.2989483"><ele>50.0</ele><time>2026-04-24T19:38:09.553Z</time></trkpt><trkpt lat="37.8709383" lon="15.2989933"><ele>43.75</ele><time>2026-04-24T19:38:10.554Z</time></trkpt><trkpt lat="37.8710417" lon="15.2990433"><ele>37.5</ele><time>2026-04-24T19:38:11.554Z</time></trkpt><trkpt lat="37.8711483" lon="15.2990967"><ele>31.25</ele><time>2026-04-24T19:38:12.554Z</time></trkpt><trkpt lat="37.871255" lon="15.2991617"><ele>25.0</ele><time>2026-04-24T19:38:13.553Z</time></trkpt><trkpt lat="37.871365" lon="15.2992383"><ele>25.0</ele><time>2026-04-24T19:38:14.553Z</time></trkpt><trkpt lat="37.8714833" lon="15.2993233"><ele>25.0</ele><time>2026-04-24T19:38:15.553Z</time></trkpt><trkpt lat="37.8716" lon="15.299405"><ele>25.0</ele><time>2026-04-24T19:38:16.554Z</time></trkpt><trkpt lat="37.8717183" lon="15.2994883"><ele>25.0</ele><time>2026-04-24T19:38:17.554Z</time></trkpt><trkpt lat="37.8718417" lon="15.299565"><ele>23.5</ele><time>2026-04-24T19:38:18.554Z</time></trkpt><trkpt lat="37.871955" lon="15.2996433"><ele>22.0</ele><time>2026-04-24T19:38:19.553Z</time></trkpt><trkpt lat="37.87208" lon="15.2997267"><ele>20.5</ele><time>2026-04-24T19:38:20.553Z</time></trkpt><trkpt lat="37.8722117" lon="15.2998133"><ele>19.0</ele><time>2026-04-24T19:38:21.553Z</time></trkpt><trkpt lat="37.8723433" lon="15.299905"><ele>19.0</ele><time>2026-04-24T19:38:22.554Z</time></trkpt><trkpt lat="37.8724733" lon="15.2999983"><ele>19.0</ele><time>2026-04-24T19:38:23.554Z</time></trkpt><trkpt lat="37.8726" lon="15.3000883"><ele>19.0</ele><time>2026-04-24T19:38:24.553Z</time></trkpt><trkpt lat="37.8727267" lon="15.300175"><ele>19.0</ele><time>2026-04-24T19:38:25.553Z</time></trkpt><trkpt lat="37.8728567" lon="15.3002633"><ele>22.333333333333332</ele><time>2026-04-24T19:38:26.553Z</time></trkpt><trkpt lat="37.8729867" lon="15.3003533"><ele>25.666666666666664</ele><time>2026-04-24T19:38:27.553Z</time></trkpt><trkpt lat="37.8731233" lon="15.3004517"><ele>29.0</ele><time>2026-04-24T19:38:28.553Z</time></trkpt><trkpt lat="37.87326" lon="15.3005517"><ele>29.666666666666664</ele><time>2026-04-24T19:38:29.553Z</time></trkpt><trkpt lat="37.8734" lon="15.300645"><ele>30.333333333333336</ele><time>2026-04-24T19:38:30.554Z</time></trkpt><trkpt lat="37.8735417" lon="15.30074"><ele>31.0</ele><time>2026-04-24T19:38:31.554Z</time></trkpt><trkpt lat="37.8736833" lon="15.3008383"><ele>31.0</ele><time>2026-04-24T19:38:32.554Z</time></trkpt><trkpt lat="37.8738233" lon="15.30094"><ele>31.0</ele><time>2026-04-24T19:38:33.553Z</time></trkpt><trkpt lat="37.873965" lon="15.3010433"><ele>31.0</ele><time>2026-04-24T19:38:34.554Z</time></trkpt><trkpt lat="37.874105" lon="15.30114"><ele>31.0</ele><time>2026-04-24T19:38:35.554Z</time></trkpt><trkpt lat="37.8742433" lon="15.3012283"><ele>31.0</ele><time>2026-04-24T19:38:36.553Z</time></trkpt><trkpt lat="37.8743767" lon="15.3013083"><ele>31.0</ele><time>2026-04-24T19:38:37.554Z</time></trkpt><trkpt lat="37.8745133" lon="15.30138"><ele>27.666666666666668</ele><time>2026-04-24T19:38:38.553Z</time></trkpt><trkpt lat="37.8746583" lon="15.3014383"><ele>24.333333333333336</ele><time>2026-04-24T19:38:39.553Z</time></trkpt><trkpt lat="37.8748117" lon="15.3014833"><ele>21.0</ele><time>2026-04-24T19:38:40.554Z</time></trkpt><trkpt lat="37.8749583" lon="15.3015217"><ele>22.666666666666664</ele><time>2026-04-24T19:38:41.553Z</time></trkpt><trkpt lat="37.875105" lon="15.3015533"><ele>24.333333333333332</ele><time>2026-04-24T19:38:42.554Z</time></trkpt><trkpt lat="37.87526" lon="15.3015783"><ele>26.0</ele><time>2026-04-24T19:38:43.554Z</time></trkpt><trkpt lat="37.8754183" lon="15.301595"><ele>26.0</ele><time>2026-04-24T19:38:44.553Z</time></trkpt><trkpt lat="37.87557" lon="15.3016267"><ele>26.0</ele><time>2026-04-24T19:38:45.554Z</time></trkpt><trkpt lat="37.8757183" lon="15.3016733"><ele>26.0</ele><time>2026-04-24T19:38:46.554Z</time></trkpt><trkpt lat="37.8758633" lon="15.3017317"><ele>26.333333333333332</ele><time>2026-04-24T19:38:47.553Z</time></trkpt><trkpt lat="37.8760133" lon="15.3018183"><ele>26.666666666666664</ele><time>2026-04-24T19:38:48.554Z</time></trkpt><trkpt lat="37.876165" lon="15.301905"><ele>27.0</ele><time>2026-04-24T19:38:49.553Z</time></trkpt><trkpt lat="37.8763133" lon="15.3019883"><ele>27.0</ele><time>2026-04-24T19:38:50.554Z</time></trkpt><trkpt lat="37.87646" lon="15.3020683"><ele>27.0</ele><time>2026-04-24T19:38:51.554Z</time></trkpt><trkpt lat="37.8766067" lon="15.3021567"><ele>27.0</ele><time>2026-04-24T19:38:52.553Z</time></trkpt><trkpt lat="37.8767467" lon="15.302245"><ele>28.333333333333336</ele><time>2026-04-24T19:38:53.554Z</time></trkpt><trkpt lat="37.8768833" lon="15.3023333"><ele>29.666666666666668</ele><time>2026-04-24T19:38:54.554Z</time></trkpt><trkpt lat="37.8770167" lon="15.3024333"><ele>31.0</ele><time>2026-04-24T19:38:55.553Z</time></trkpt><trkpt lat="37.87715" lon="15.3025317"><ele>31.0</ele><time>2026-04-24T19:38:56.554Z</time></trkpt><trkpt lat="37.87729" lon="15.3026267"><ele>31.0</ele><time>2026-04-24T19:38:57.553Z</time></trkpt><trkpt lat="37.877435" lon="15.3027233"><ele>31.0</ele><time>2026-04-24T19:38:58.554Z</time></trkpt><trkpt lat="37.8775833" lon="15.3028267"><ele>33.333333333333336</ele><time>2026-04-24T19:38:59.554Z</time></trkpt><trkpt lat="37.8777217" lon="15.3029233"><ele>35.666666666666664</ele><time>2026-04-24T19:39:00.554Z</time></trkpt><trkpt lat="37.8778533" lon="15.3030217"><ele>38.0</ele><time>2026-04-24T19:39:01.553Z</time></trkpt><trkpt lat="37.877985" lon="15.30312"><ele>34.75</ele><time>2026-04-24T19:39:02.554Z</time></trkpt><trkpt lat="37.8781083" lon="15.3032133"><ele>31.5</ele><time>2026-04-24T19:39:03.554Z</time></trkpt><trkpt lat="37.8782217" lon="15.3033067"><ele>28.25</ele><time>2026-04-24T19:39:04.553Z</time></trkpt><trkpt lat="37.8783383" lon="15.30339"><ele>25.0</ele><time>2026-04-24T19:39:05.554Z</time></trkpt><trkpt lat="37.8784617" lon="15.3034667"><ele>25.0</ele><time>2026-04-24T19:39:06.553Z</time></trkpt><trkpt lat="37.8785917" lon="15.3035417"><ele>25.0</ele><time>2026-04-24T19:39:07.554Z</time></trkpt><trkpt lat="37.8787217" lon="15.3036167"><ele>25.0</ele><time>2026-04-24T19:39:08.554Z</time></trkpt><trkpt lat="37.87885" lon="15.3036783"><ele>25.0</ele><time>2026-04-24T19:39:09.554Z</time></trkpt><trkpt lat="37.8789733" lon="15.3037383"><ele>25.0</ele><time>2026-04-24T19:39:10.554Z</time></trkpt><trkpt lat="37.8790917" lon="15.3038083"><ele>25.0</ele><time>2026-04-24T19:39:11.553Z</time></trkpt><trkpt lat="37.8792117" lon="15.303885"><ele>25.0</ele><time>2026-04-24T19:39:12.554Z</time></trkpt><trkpt lat="37.87932" lon="15.3039733"><ele>25.0</ele><time>2026-04-24T19:39:13.554Z</time></trkpt><trkpt lat="37.8794217" lon="15.304075"><ele>24.0</ele><time>2026-04-24T19:39:14.554Z</time></trkpt><trkpt lat="37.879525" lon="15.3041783"><ele>23.0</ele><time>2026-04-24T19:39:15.553Z</time></trkpt><trkpt lat="37.879615" lon="15.3042733"><ele>22.0</ele><time>2026-04-24T19:39:16.554Z</time></trkpt><trkpt lat="37.8796883" lon="15.3043517"><ele>21.0</ele><time>2026-04-24T19:39:17.554Z</time></trkpt><trkpt lat="37.8797517" lon="15.3044233"><ele>20.0</ele><time>2026-04-24T19:39:18.553Z</time></trkpt><trkpt lat="37.8798067" lon="15.3044833"><ele>20.0</ele><time>2026-04-24T19:39:19.553Z</time></trkpt><trkpt lat="37.879855" lon="15.3045383"><ele>20.0</ele><time>2026-04-24T19:39:20.553Z</time></trkpt><trkpt lat="37.8799317" lon="15.3046167"><ele>20.0</ele><time>2026-04-24T19:39:22.554Z</time></trkpt><trkpt lat="37.8799917" lon="15.3046867"><ele>20.0</ele><time>2026-04-24T19:39:25.554Z</time></trkpt><trkpt lat="37.8800417" lon="15.3047467"><ele>20.0</ele><time>2026-04-24T19:40:48.554Z</time></trkpt><trkpt lat="37.8801033" lon="15.3048133"><ele>20.0</ele><time>2026-04-24T19:40:50.553Z</time></trkpt><trkpt lat="37.88017" lon="15.3048833"><ele>20.8</ele><time>2026-04-24T19:40:52.554Z</time></trkpt><trkpt lat="37.880265" lon="15.3049067"><ele>21.6</ele><time>2026-04-24T19:40:54.553Z</time></trkpt><trkpt lat="37.8803667" lon="15.30483"><ele>22.4</ele><time>2026-04-24T19:40:56.554Z</time></trkpt><trkpt lat="37.8804217" lon="15.304755"><ele>23.2</ele><time>2026-04-24T19:40:57.554Z</time></trkpt><trkpt lat="37.8804767" lon="15.3046667"><ele>24.0</ele><time>2026-04-24T19:40:58.553Z</time></trkpt><trkpt lat="37.8805333" lon="15.3045767"><ele>25.799999999999997</ele><time>2026-04-24T19:40:59.554Z</time></trkpt><trkpt lat="37.8806017" lon="15.3044883"><ele>27.599999999999998</ele><time>2026-04-24T19:41:00.553Z</time></trkpt><trkpt lat="37.88067" lon="15.3043967"><ele>29.4</ele><time>2026-04-24T19:41:01.554Z</time></trkpt><trkpt lat="37.8807317" lon="15.30431"><ele>31.2</ele><time>2026-04-24T19:41:02.554Z</time></trkpt><trkpt lat="37.8808" lon="15.3042233"><ele>33.0</ele><time>2026-04-24T19:41:03.554Z</time></trkpt><trkpt lat="37.8808583" lon="15.3041233"><ele>33.0</ele><time>2026-04-24T19:41:04.553Z</time></trkpt><trkpt lat="37.88092" lon="15.3040167"><ele>33.0</ele><time>2026-04-24T19:41:05.554Z</time></trkpt><trkpt lat="37.8809783" lon="15.30391"><ele>33.0</ele><time>2026-04-24T19:41:06.554Z</time></trkpt><trkpt lat="37.881025" lon="15.3037917"><ele>33.0</ele><time>2026-04-24T19:41:07.553Z</time></trkpt><trkpt lat="37.8810767" lon="15.3036867"><ele>33.0</ele><time>2026-04-24T19:41:08.553Z</time></trkpt><trkpt lat="37.8811267" lon="15.3035683"><ele>32.0</ele><time>2026-04-24T19:41:09.554Z</time></trkpt><trkpt lat="37.8811933" lon="15.3034633"><ele>31.0</ele><time>2026-04-24T19:41:10.553Z</time></trkpt><trkpt lat="37.8812833" lon="15.303375"><ele>30.0</ele><time>2026-04-24T19:41:11.554Z</time></trkpt><trkpt lat="37.8813817" lon="15.30329"><ele>29.0</ele><time>2026-04-24T19:41:12.553Z</time></trkpt><trkpt lat="37.8814867" lon="15.303215"><ele>29.0</ele><time>2026-04-24T19:41:13.553Z</time></trkpt><trkpt lat="37.8816" lon="15.3031483"><ele>29.0</ele><time>2026-04-24T19:41:14.554Z</time></trkpt><trkpt lat="37.8817083" lon="15.3030867"><ele>29.0</ele><time>2026-04-24T19:41:15.554Z</time></trkpt><trkpt lat="37.8818133" lon="15.303015"><ele>29.0</ele><time>2026-04-24T19:41:16.553Z</time></trkpt><trkpt lat="37.8819117" lon="15.30293"><ele>32.0</ele><time>2026-04-24T19:41:17.554Z</time></trkpt><trkpt lat="37.88201" lon="15.3028283"><ele>35.0</ele><time>2026-04-24T19:41:18.554Z</time></trkpt><trkpt lat="37.8820983" lon="15.3027"><ele>38.0</ele><time>2026-04-24T19:41:19.554Z</time></trkpt><trkpt lat="37.8821683" lon="15.3025433"><ele>41.0</ele><time>2026-04-24T19:41:20.554Z</time></trkpt><trkpt lat="37.8822283" lon="15.3023833"><ele>41.75</ele><time>2026-04-24T19:41:21.554Z</time></trkpt><trkpt lat="37.882275" lon="15.3022267"><ele>42.5</ele><time>2026-04-24T19:41:22.554Z</time></trkpt><trkpt lat="37.882295" lon="15.3020517"><ele>43.25</ele><time>2026-04-24T19:41:23.554Z</time></trkpt><trkpt lat="37.882295" lon="15.301875"><ele>44.0</ele><time>2026-04-24T19:41:24.554Z</time></trkpt><trkpt lat="37.8822883" lon="15.301705"><ele>44.0</ele><time>2026-04-24T19:41:25.553Z</time></trkpt><trkpt lat="37.8822983" lon="15.3015467"><ele>44.0</ele><time>2026-04-24T19:41:26.554Z</time></trkpt><trkpt lat="37.8823133" lon="15.3013867"><ele>44.0</ele><time>2026-04-24T19:41:27.553Z</time></trkpt><trkpt lat="37.88233" lon="15.3012233"><ele>44.0</ele><time>2026-04-24T19:41:28.555Z</time></trkpt><trkpt lat="37.882325" lon="15.3010517"><ele>44.5</ele><time>2026-04-24T19:41:29.554Z</time></trkpt><trkpt lat="37.8822967" lon="15.300875"><ele>45.0</ele><time>2026-04-24T19:41:30.555Z</time></trkpt><trkpt lat="37.882265" lon="15.3007"><ele>45.5</ele><time>2026-04-24T19:41:31.555Z</time></trkpt><trkpt lat="37.8822333" lon="15.300525"><ele>46.0</ele><time>2026-04-24T19:41:32.554Z</time></trkpt><trkpt lat="37.8822067" lon="15.3003633"><ele>46.5</ele><time>2026-04-24T19:41:33.554Z</time></trkpt><trkpt lat="37.8821917" lon="15.3001983"><ele>47.0</ele><time>2026-04-24T19:41:34.555Z</time></trkpt><trkpt lat="37.8821683" lon="15.3000383"><ele>47.5</ele><time>2026-04-24T19:41:35.555Z</time></trkpt><trkpt lat="37.88215" lon="15.299885"><ele>48.0</ele><time>2026-04-24T19:41:36.555Z</time></trkpt><trkpt lat="37.8821467" lon="15.2997367"><ele>46.199999999999996</ele><time>2026-04-24T19:41:37.554Z</time></trkpt><trkpt lat="37.8821517" lon="15.2996"><ele>44.4</ele><time>2026-04-24T19:41:38.555Z</time></trkpt><trkpt lat="37.8821783" lon="15.2994867"><ele>42.599999999999994</ele><time>2026-04-24T19:41:39.555Z</time></trkpt><trkpt lat="37.8822433" lon="15.299385"><ele>40.8</ele><time>2026-04-24T19:41:40.555Z</time></trkpt><trkpt lat="37.8823317" lon="15.2992867"><ele>39.0</ele><time>2026-04-24T19:41:41.555Z</time></trkpt><trkpt lat="37.8824233" lon="15.2991783"><ele>39.0</ele><time>2026-04-24T19:41:42.554Z</time></trkpt><trkpt lat="37.882505" lon="15.29905"><ele>39.0</ele><time>2026-04-24T19:41:43.555Z</time></trkpt><trkpt lat="37.8825867" lon="15.2989017"><ele>39.0</ele><time>2026-04-24T19:41:44.555Z</time></trkpt><trkpt lat="37.882665" lon="15.29876"><ele>39.0</ele><time>2026-04-24T19:41:45.554Z</time></trkpt><trkpt lat="37.882735" lon="15.298615"><ele>40.25</ele><time>2026-04-24T19:41:46.554Z</time></trkpt><trkpt lat="37.882795" lon="15.2984917"><ele>41.5</ele><time>2026-04-24T19:41:47.555Z</time></trkpt><trkpt lat="37.8828683" lon="15.2983833"><ele>42.75</ele><time>2026-04-24T19:41:48.555Z</time></trkpt><trkpt lat="37.88296" lon="15.298285"><ele>44.0</ele><time>2026-04-24T19:41:49.555Z</time></trkpt><trkpt lat="37.8830717" lon="15.2981867"><ele>43.5</ele><time>2026-04-24T19:41:50.554Z</time></trkpt><trkpt lat="37.8831867" lon="15.29808"><ele>43.0</ele><time>2026-04-24T19:41:51.555Z</time></trkpt><trkpt lat="37.8832983" lon="15.2979767"><ele>42.5</ele><time>2026-04-24T19:41:52.555Z</time></trkpt><trkpt lat="37.8834083" lon="15.297875"><ele>42.0</ele><time>2026-04-24T19:41:53.554Z</time></trkpt><trkpt lat="37.8835117" lon="15.2977783"><ele>42.0</ele><time>2026-04-24T19:41:54.555Z</time></trkpt><trkpt lat="37.88361" lon="15.2976917"><ele>42.0</ele><time>2026-04-24T19:41:55.554Z</time></trkpt><trkpt lat="37.883705" lon="15.29762"><ele>42.0</ele><time>2026-04-24T19:41:56.554Z</time></trkpt><trkpt lat="37.8838083" lon="15.29755"><ele>42.0</ele><time>2026-04-24T19:41:57.554Z</time></trkpt><trkpt lat="37.8839117" lon="15.2974767"><ele>42.0</ele><time>2026-04-24T19:41:58.555Z</time></trkpt><trkpt lat="37.8840083" lon="15.297405"><ele>42.0</ele><time>2026-04-24T19:41:59.555Z</time></trkpt><trkpt lat="37.8840967" lon="15.2973333"><ele>42.0</ele><time>2026-04-24T19:42:00.555Z</time></trkpt><trkpt lat="37.8841867" lon="15.297265"><ele>42.0</ele><time>2026-04-24T19:42:01.555Z</time></trkpt><trkpt lat="37.884275" lon="15.2971967"><ele>42.0</ele><time>2026-04-24T19:42:02.554Z</time></trkpt><trkpt lat="37.8843667" lon="15.2971367"><ele>40.800000000000004</ele><time>2026-04-24T19:42:03.555Z</time></trkpt><trkpt lat="37.8844617" lon="15.2970833"><ele>39.6</ele><time>2026-04-24T19:42:04.555Z</time></trkpt><trkpt lat="37.8845633" lon="15.2970467"><ele>38.400000000000006</ele><time>2026-04-24T19:42:05.554Z</time></trkpt><trkpt lat="37.8846733" lon="15.297035"><ele>37.2</ele><time>2026-04-24T19:42:06.554Z</time></trkpt><trkpt lat="37.8847833" lon="15.2970517"><ele>36.0</ele><time>2026-04-24T19:42:07.555Z</time></trkpt><trkpt lat="37.8848867" lon="15.2971117"><ele>36.0</ele><time>2026-04-24T19:42:08.554Z</time></trkpt><trkpt lat="37.8849817" lon="15.2971967"><ele>36.0</ele><time>2026-04-24T19:42:09.555Z</time></trkpt><trkpt lat="37.88508" lon="15.2972817"><ele>36.0</ele><time>2026-04-24T19:42:10.555Z</time></trkpt><trkpt lat="37.8851883" lon="15.2973583"><ele>36.0</ele><time>2026-04-24T19:42:11.555Z</time></trkpt><trkpt lat="37.885295" lon="15.2974117"><ele>38.75</ele><time>2026-04-24T19:42:12.554Z</time></trkpt><trkpt lat="37.885405" lon="15.2974433"><ele>41.5</ele><time>2026-04-24T19:42:13.555Z</time></trkpt><trkpt lat="37.88552" lon="15.29744"><ele>44.25</ele><time>2026-04-24T19:42:14.555Z</time></trkpt><trkpt lat="37.8856317" lon="15.2974183"><ele>47.0</ele><time>2026-04-24T19:42:15.555Z</time></trkpt><trkpt lat="37.88575" lon="15.2973767"><ele>47.0</ele><time>2026-04-24T19:42:16.555Z</time></trkpt><trkpt lat="37.885865" lon="15.2973267"><ele>47.0</ele><time>2026-04-24T19:42:17.554Z</time></trkpt><trkpt lat="37.8859783" lon="15.29728"><ele>47.0</ele><time>2026-04-24T19:42:18.554Z</time></trkpt><trkpt lat="37.8860967" lon="15.2972317"><ele>47.0</ele><time>2026-04-24T19:42:19.555Z</time></trkpt><trkpt lat="37.886215" lon="15.2971867"><ele>47.25</ele><time>2026-04-24T19:42:20.555Z</time></trkpt><trkpt lat="37.8863367" lon="15.29714"><ele>47.5</ele><time>2026-04-24T19:42:21.555Z</time></trkpt><trkpt lat="37.88646" lon="15.2970933"><ele>47.75</ele><time>2026-04-24T19:42:22.554Z</time></trkpt><trkpt lat="37.886585" lon="15.2970533"><ele>48.0</ele><time>2026-04-24T19:42:23.555Z</time></trkpt><trkpt lat="37.88671" lon="15.2969983"><ele>51.5</ele><time>2026-04-24T19:42:24.555Z</time></trkpt><trkpt lat="37.8868283" lon="15.2969233"><ele>55.0</ele><time>2026-04-24T19:42:25.555Z</time></trkpt><trkpt lat="37.886945" lon="15.2968417"><ele>58.5</ele><time>2026-04-24T19:42:26.555Z</time></trkpt><trkpt lat="37.887055" lon="15.29676"><ele>62.0</ele><time>2026-04-24T19:42:27.554Z</time></trkpt><trkpt lat="37.88715" lon="15.2966917"><ele>62.0</ele><time>2026-04-24T19:42:28.555Z</time></trkpt><trkpt lat="37.8872367" lon="15.2966417"><ele>62.0</ele><time>2026-04-24T19:42:29.554Z</time></trkpt><trkpt lat="37.88732" lon="15.2966"><ele>62.0</ele><time>2026-04-24T19:42:30.555Z</time></trkpt><trkpt lat="37.8874083" lon="15.296575"><ele>62.0</ele><time>2026-04-24T19:42:31.555Z</time></trkpt><trkpt lat="37.887505" lon="15.2965717"><ele>62.0</ele><time>2026-04-24T19:42:32.554Z</time></trkpt><trkpt lat="37.8876083" lon="15.2965883"><ele>63.0</ele><time>2026-04-24T19:42:33.555Z</time></trkpt><trkpt lat="37.8877167" lon="15.2966117"><ele>64.0</ele><time>2026-04-24T19:42:34.554Z</time></trkpt><trkpt lat="37.8878283" lon="15.29663"><ele>65.0</ele><time>2026-04-24T19:42:35.555Z</time></trkpt><trkpt lat="37.8879383" lon="15.296635"><ele>66.0</ele><time>2026-04-24T19:42:36.554Z</time></trkpt><trkpt lat="37.8880483" lon="15.2966333"><ele>67.0</ele><time>2026-04-24T19:42:37.554Z</time></trkpt><trkpt lat="37.88816" lon="15.2966383"><ele>67.0</ele><time>2026-04-24T19:42:38.554Z</time></trkpt><trkpt lat="37.8882583" lon="15.2966283"><ele>67.0</ele><time>2026-04-24T19:42:39.555Z</time></trkpt><trkpt lat="37.8883467" lon="15.296605"><ele>67.0</ele><time>2026-04-24T19:42:40.554Z</time></trkpt><trkpt lat="37.8884233" lon="15.2965767"><ele>67.0</ele><time>2026-04-24T19:42:41.555Z</time></trkpt><trkpt lat="37.8885" lon="15.2965383"><ele>67.0</ele><time>2026-04-24T19:42:42.554Z</time></trkpt><trkpt lat="37.8885683" lon="15.296505"><ele>67.0</ele><time>2026-04-24T19:42:43.555Z</time></trkpt><trkpt lat="37.8886233" lon="15.2964617"><ele>68.0</ele><time>2026-04-24T19:42:44.554Z</time></trkpt><trkpt lat="37.8886817" lon="15.29633"><ele>69.0</ele><time>2026-04-24T19:42:46.555Z</time></trkpt><trkpt lat="37.8886783" lon="15.2962383"><ele>70.0</ele><time>2026-04-24T19:42:47.555Z</time></trkpt><trkpt lat="37.8886667" lon="15.2961317"><ele>71.0</ele><time>2026-04-24T19:42:48.555Z</time></trkpt><trkpt lat="37.8886533" lon="15.2960217"><ele>72.0</ele><time>2026-04-24T19:42:49.554Z</time></trkpt><trkpt lat="37.888635" lon="15.29591"><ele>72.0</ele><time>2026-04-24T19:42:50.555Z</time></trkpt><trkpt lat="37.888595" lon="15.2958083"><ele>72.0</ele><time>2026-04-24T19:42:51.554Z</time></trkpt><trkpt lat="37.8885283" lon="15.29573"><ele>72.0</ele><time>2026-04-24T19:42:52.554Z</time></trkpt><trkpt lat="37.88844" lon="15.29567"><ele>72.0</ele><time>2026-04-24T19:42:53.555Z</time></trkpt><trkpt lat="37.88834" lon="15.2956133"><ele>72.0</ele><time>2026-04-24T19:42:54.554Z</time></trkpt><trkpt lat="37.88824" lon="15.2955483"><ele>78.0</ele><time>2026-04-24T19:42:55.555Z</time></trkpt><trkpt lat="37.8881367" lon="15.29549"><ele>84.0</ele><time>2026-04-24T19:42:56.554Z</time></trkpt><trkpt lat="37.8880283" lon="15.2954283"><ele>90.0</ele><time>2026-04-24T19:42:57.554Z</time></trkpt><trkpt lat="37.887915" lon="15.2953717"><ele>96.0</ele><time>2026-04-24T19:42:58.554Z</time></trkpt><trkpt lat="37.8878017" lon="15.2953433"><ele>96.0</ele><time>2026-04-24T19:42:59.554Z</time></trkpt><trkpt lat="37.887695" lon="15.2953417"><ele>96.0</ele><time>2026-04-24T19:43:00.554Z</time></trkpt><trkpt lat="37.8875917" lon="15.2953433"><ele>96.0</ele><time>2026-04-24T19:43:01.554Z</time></trkpt><trkpt lat="37.8875" lon="15.2953267"><ele>96.0</ele><time>2026-04-24T19:43:02.554Z</time></trkpt><trkpt lat="37.8874067" lon="15.2952783"><ele>96.0</ele><time>2026-04-24T19:43:03.555Z</time></trkpt><trkpt lat="37.8873083" lon="15.2952133"><ele>93.0</ele><time>2026-04-24T19:43:04.555Z</time></trkpt><trkpt lat="37.8872017" lon="15.29515"><ele>90.0</ele><time>2026-04-24T19:43:05.555Z</time></trkpt><trkpt lat="37.8871033" lon="15.2950917"><ele>87.0</ele><time>2026-04-24T19:43:06.554Z</time></trkpt><trkpt lat="37.8870183" lon="15.2950433"><ele>84.0</ele><time>2026-04-24T19:43:07.555Z</time></trkpt><trkpt lat="37.88694" lon="15.2950233"><ele>81.0</ele><time>2026-04-24T19:43:08.555Z</time></trkpt><trkpt lat="37.8868583" lon="15.29503"><ele>81.0</ele><time>2026-04-24T19:43:09.555Z</time></trkpt><trkpt lat="37.8867817" lon="15.2950683"><ele>81.0</ele><time>2026-04-24T19:43:10.555Z</time></trkpt><trkpt lat="37.8866933" lon="15.2951283"><ele>81.0</ele><time>2026-04-24T19:43:11.555Z</time></trkpt><trkpt lat="37.8866083" lon="15.2951983"><ele>81.0</ele><time>2026-04-24T19:43:12.555Z</time></trkpt><trkpt lat="37.8865267" lon="15.2952583"><ele>81.0</ele><time>2026-04-24T19:43:13.555Z</time></trkpt><trkpt lat="37.8864467" lon="15.2953083"><ele>81.0</ele><time>2026-04-24T19:43:14.554Z</time></trkpt><trkpt lat="37.886365" lon="15.2953367"><ele>81.0</ele><time>2026-04-24T19:43:15.554Z</time></trkpt><trkpt lat="37.8862733" lon="15.2953283"><ele>81.0</ele><time>2026-04-24T19:43:16.554Z</time></trkpt><trkpt lat="37.88618" lon="15.2952933"><ele>81.0</ele><time>2026-04-24T19:43:17.555Z</time></trkpt><trkpt lat="37.8860867" lon="15.295255"><ele>81.0</ele><time>2026-04-24T19:43:18.554Z</time></trkpt><trkpt lat="37.885995" lon="15.295215"><ele>80.0</ele><time>2026-04-24T19:43:19.554Z</time></trkpt><trkpt lat="37.8859117" lon="15.2951633"><ele>79.0</ele><time>2026-04-24T19:43:20.555Z</time></trkpt><trkpt lat="37.8858517" lon="15.2950983"><ele>78.0</ele><time>2026-04-24T19:43:21.554Z</time></trkpt><trkpt lat="37.8858333" lon="15.295015"><ele>77.0</ele><time>2026-04-24T19:43:22.554Z</time></trkpt><trkpt lat="37.8858417" lon="15.2949267"><ele>76.0</ele><time>2026-04-24T19:43:23.555Z</time></trkpt><trkpt lat="37.8858633" lon="15.2948367"><ele>75.0</ele><time>2026-04-24T19:43:24.554Z</time></trkpt><trkpt lat="37.885895" lon="15.29474"><ele>75.0</ele><time>2026-04-24T19:43:25.555Z</time></trkpt><trkpt lat="37.8859233" lon="15.2946383"><ele>75.0</ele><time>2026-04-24T19:43:26.554Z</time></trkpt><trkpt lat="37.885945" lon="15.2945317"><ele>75.0</ele><time>2026-04-24T19:43:27.554Z</time></trkpt><trkpt lat="37.8859533" lon="15.2944383"><ele>75.0</ele><time>2026-04-24T19:43:28.554Z</time></trkpt><trkpt lat="37.8859817" lon="15.294325"><ele>75.0</ele><time>2026-04-24T19:43:30.555Z</time></trkpt><trkpt lat="37.886065" lon="15.2943833"><ele>75.0</ele><time>2026-04-24T19:43:33.554Z</time></trkpt><trkpt lat="37.8860667" lon="15.294465"><ele>76.0</ele><time>2026-04-24T19:43:34.554Z</time></trkpt><trkpt lat="37.8860517" lon="15.2945667"><ele>77.0</ele><time>2026-04-24T19:43:35.555Z</time></trkpt><trkpt lat="37.8860217" lon="15.2946667"><ele>78.0</ele><time>2026-04-24T19:43:36.555Z</time></trkpt><trkpt lat="37.8859883" lon="15.294765"><ele>79.0</ele><time>2026-04-24T19:43:37.555Z</time></trkpt><trkpt lat="37.8859667" lon="15.2948717"><ele>80.0</ele><time>2026-04-24T19:43:38.555Z</time></trkpt><trkpt lat="37.885975" lon="15.2949567"><ele>81.0</ele><time>2026-04-24T19:43:39.555Z</time></trkpt><trkpt lat="37.88608" lon="15.2950467"><ele>81.0</ele><time>2026-04-24T19:43:41.554Z</time></trkpt><trkpt lat="37.8861533" lon="15.295055"><ele>81.0</ele><time>2026-04-24T19:43:42.554Z</time></trkpt><trkpt lat="37.886225" lon="15.295045"><ele>81.0</ele><time>2026-04-24T19:43:43.555Z</time></trkpt><trkpt lat="37.8862933" lon="15.295015"><ele>81.0</ele><time>2026-04-24T19:43:44.554Z</time></trkpt><trkpt lat="37.8863667" lon="15.2949567"><ele>81.0</ele><time>2026-04-24T19:43:45.555Z</time></trkpt><trkpt lat="37.8864433" lon="15.29488"><ele>81.0</ele><time>2026-04-24T19:43:46.554Z</time></trkpt><trkpt lat="37.8865283" lon="15.294805"><ele>87.0</ele><time>2026-04-24T19:43:47.554Z</time></trkpt><trkpt lat="37.88661" lon="15.2947417"><ele>93.0</ele><time>2026-04-24T19:43:48.555Z</time></trkpt><trkpt lat="37.8866883" lon="15.294685"><ele>99.0</ele><time>2026-04-24T19:43:49.554Z</time></trkpt><trkpt lat="37.8867767" lon="15.2946383"><ele>105.0</ele><time>2026-04-24T19:43:50.555Z</time></trkpt><trkpt lat="37.88687" lon="15.29461"><ele>111.0</ele><time>2026-04-24T19:43:51.555Z</time></trkpt><trkpt lat="37.8869633" lon="15.294595"><ele>114.5</ele><time>2026-04-24T19:43:52.555Z</time></trkpt><trkpt lat="37.88707" lon="15.294585"><ele>118.0</ele><time>2026-04-24T19:43:53.554Z</time></trkpt><trkpt lat="37.8871867" lon="15.2945867"><ele>121.5</ele><time>2026-04-24T19:43:54.555Z</time></trkpt><trkpt lat="37.88731" lon="15.2945967"><ele>125.0</ele><time>2026-04-24T19:43:55.554Z</time></trkpt><trkpt lat="37.887435" lon="15.294615"><ele>125.0</ele><time>2026-04-24T19:43:56.554Z</time></trkpt><trkpt lat="37.8875567" lon="15.2946367"><ele>125.0</ele><time>2026-04-24T19:43:57.554Z</time></trkpt><trkpt lat="37.8876833" lon="15.29466"><ele>125.0</ele><time>2026-04-24T19:43:58.555Z</time></trkpt><trkpt lat="37.8878033" lon="15.2946833"><ele>125.0</ele><time>2026-04-24T19:43:59.555Z</time></trkpt><trkpt lat="37.8879333" lon="15.2947033"><ele>126.6</ele><time>2026-04-24T19:44:00.555Z</time></trkpt><trkpt lat="37.88805" lon="15.2947283"><ele>128.2</ele><time>2026-04-24T19:44:01.555Z</time></trkpt><trkpt lat="37.88815" lon="15.2947567"><ele>129.8</ele><time>2026-04-24T19:44:02.555Z</time></trkpt><trkpt lat="37.8882333" lon="15.294775"><ele>131.4</ele><time>2026-04-24T19:44:03.555Z</time></trkpt><trkpt lat="37.8883" lon="15.29478"><ele>133.0</ele><time>2026-04-24T19:44:04.554Z</time></trkpt><trkpt lat="37.888385" lon="15.2947167"><ele>133.0</ele><time>2026-04-24T19:44:06.555Z</time></trkpt><trkpt lat="37.8883817" lon="15.2946083"><ele>133.0</ele><time>2026-04-24T19:44:08.555Z</time></trkpt><trkpt lat="37.8882733" lon="15.294535"><ele>133.0</ele><time>2026-04-24T19:44:10.554Z</time></trkpt><trkpt lat="37.88819" lon="15.29451"><ele>133.0</ele><time>2026-04-24T19:44:11.555Z</time></trkpt><trkpt lat="37.8881017" lon="15.294475"><ele>133.0</ele><time>2026-04-24T19:44:12.555Z</time></trkpt><trkpt lat="37.8880033" lon="15.294435"><ele>133.0</ele><time>2026-04-24T19:44:13.555Z</time></trkpt><trkpt lat="37.887905" lon="15.2943933"><ele>133.0</ele><time>2026-04-24T19:44:14.555Z</time></trkpt><trkpt lat="37.8878033" lon="15.2943733"><ele>133.0</ele><time>2026-04-24T19:44:15.554Z</time></trkpt><trkpt lat="37.8876983" lon="15.2943633"><ele>133.0</ele><time>2026-04-24T19:44:16.554Z</time></trkpt><trkpt lat="37.8875833" lon="15.2943567"><ele>133.0</ele><time>2026-04-24T19:44:17.555Z</time></trkpt><trkpt lat="37.88747" lon="15.2943267"><ele>131.4</ele><time>2026-04-24T19:44:18.555Z</time></trkpt><trkpt lat="37.88736" lon="15.2942833"><ele>129.8</ele><time>2026-04-24T19:44:19.554Z</time></trkpt><trkpt lat="37.88725" lon="15.29424"><ele>128.2</ele><time>2026-04-24T19:44:20.555Z</time></trkpt><trkpt lat="37.8871533" lon="15.294205"><ele>126.6</ele><time>2026-04-24T19:44:21.555Z</time></trkpt><trkpt lat="37.8870517" lon="15.2941933"><ele>125.0</ele><time>2026-04-24T19:44:22.555Z</time></trkpt><trkpt lat="37.8869517" lon="15.29418"><ele>124.99999999999999</ele><time>2026-04-24T19:44:23.554Z</time></trkpt><trkpt lat="37.8868667" lon="15.294165"><ele>125.0</ele><time>2026-04-24T19:44:24.554Z</time></trkpt><trkpt lat="37.8867933" lon="15.29414"><ele>125.0</ele><time>2026-04-24T19:44:25.555Z</time></trkpt><trkpt lat="37.8867267" lon="15.2940917"><ele>125.0</ele><time>2026-04-24T19:44:26.555Z</time></trkpt><trkpt lat="37.8866833" lon="15.2940267"><ele>124.99999999999999</ele><time>2026-04-24T19:44:27.554Z</time></trkpt><trkpt lat="37.886685" lon="15.29388"><ele>125.0</ele><time>2026-04-24T19:44:29.555Z</time></trkpt><trkpt lat="37.88671" lon="15.2937917"><ele>123.4</ele><time>2026-04-24T19:44:30.555Z</time></trkpt><trkpt lat="37.88673" lon="15.2936867"><ele>121.8</ele><time>2026-04-24T19:44:31.555Z</time></trkpt><trkpt lat="37.886735" lon="15.293575"><ele>120.19999999999999</ele><time>2026-04-24T19:44:32.555Z</time></trkpt><trkpt lat="37.8867317" lon="15.29346"><ele>118.6</ele><time>2026-04-24T19:44:33.554Z</time></trkpt><trkpt lat="37.8867317" lon="15.293335"><ele>117.0</ele><time>2026-04-24T19:44:34.554Z</time></trkpt><trkpt lat="37.88675" lon="15.2932133"><ele>121.33333333333333</ele><time>2026-04-24T19:44:35.555Z</time></trkpt><trkpt lat="37.8867733" lon="15.2930967"><ele>125.66666666666666</ele><time>2026-04-24T19:44:36.555Z</time></trkpt><trkpt lat="37.8867983" lon="15.293"><ele>130.0</ele><time>2026-04-24T19:44:37.555Z</time></trkpt><trkpt lat="37.8868333" lon="15.2929133"><ele>134.33333333333331</ele><time>2026-04-24T19:44:38.555Z</time></trkpt><trkpt lat="37.8868867" lon="15.2928317"><ele>138.66666666666666</ele><time>2026-04-24T19:44:39.554Z</time></trkpt><trkpt lat="37.8869517" lon="15.2927583"><ele>143.0</ele><time>2026-04-24T19:44:40.554Z</time></trkpt><trkpt lat="37.887015" lon="15.2926833"><ele>143.33333333333331</ele><time>2026-04-24T19:44:41.554Z</time></trkpt><trkpt lat="37.8870633" lon="15.2926033"><ele>143.66666666666666</ele><time>2026-04-24T19:44:42.555Z</time></trkpt><trkpt lat="37.887095" lon="15.29252"><ele>144.0</ele><time>2026-04-24T19:44:43.555Z</time></trkpt><trkpt lat="37.8871" lon="15.2924333"><ele>144.33333333333334</ele><time>2026-04-24T19:44:44.555Z</time></trkpt><trkpt lat="37.8870817" lon="15.29234"><ele>144.66666666666669</ele><time>2026-04-24T19:44:45.554Z</time></trkpt><trkpt lat="37.887045" lon="15.29224"><ele>145.0</ele><time>2026-04-24T19:44:46.554Z</time></trkpt><trkpt lat="37.887005" lon="15.29214"><ele>146.0</ele><time>2026-04-24T19:44:47.555Z</time></trkpt><trkpt lat="37.8869683" lon="15.2920583"><ele>147.0</ele><time>2026-04-24T19:44:48.555Z</time></trkpt><trkpt lat="37.8869433" lon="15.291975"><ele>148.0</ele><time>2026-04-24T19:44:49.554Z</time></trkpt><trkpt lat="37.8869267" lon="15.291875"><ele>149.0</ele><time>2026-04-24T19:44:50.555Z</time></trkpt><trkpt lat="37.8869217" lon="15.29177"><ele>150.0</ele><time>2026-04-24T19:44:51.554Z</time></trkpt><trkpt lat="37.8869217" lon="15.2916667"><ele>151.0</ele><time>2026-04-24T19:44:52.555Z</time></trkpt><trkpt lat="37.886925" lon="15.291575"><ele>151.0</ele><time>2026-04-24T19:44:53.554Z</time></trkpt><trkpt lat="37.88696" lon="15.2914483"><ele>151.0</ele><time>2026-04-24T19:44:55.555Z</time></trkpt><trkpt lat="37.88703" lon="15.291455"><ele>151.0</ele><time>2026-04-24T19:44:57.555Z</time></trkpt><trkpt lat="37.8870633" lon="15.291565"><ele>151.0</ele><time>2026-04-24T19:44:59.555Z</time></trkpt><trkpt lat="37.8870467" lon="15.2916517"><ele>151.0</ele><time>2026-04-24T19:45:00.555Z</time></trkpt><trkpt lat="37.88704" lon="15.2917417"><ele>151.0</ele><time>2026-04-24T19:45:01.555Z</time></trkpt><trkpt lat="37.8870517" lon="15.2918317"><ele>151.0</ele><time>2026-04-24T19:45:02.554Z</time></trkpt><trkpt lat="37.8870983" lon="15.2919267"><ele>151.0</ele><time>2026-04-24T19:45:03.555Z</time></trkpt><trkpt lat="37.8871483" lon="15.2920217"><ele>151.0</ele><time>2026-04-24T19:45:04.555Z</time></trkpt><trkpt lat="37.887205" lon="15.292115"><ele>151.0</ele><time>2026-04-24T19:45:05.555Z</time></trkpt><trkpt lat="37.8872567" lon="15.292215"><ele>151.0</ele><time>2026-04-24T19:45:06.555Z</time></trkpt><trkpt lat="37.8872933" lon="15.2923167"><ele>150.0</ele><time>2026-04-24T19:45:07.555Z</time></trkpt><trkpt lat="37.88731" lon="15.292425"><ele>149.0</ele><time>2026-04-24T19:45:08.555Z</time></trkpt><trkpt lat="37.8873167" lon="15.2925333"><ele>148.0</ele><time>2026-04-24T19:45:09.554Z</time></trkpt><trkpt lat="37.8873183" lon="15.292635"><ele>147.0</ele><time>2026-04-24T19:45:10.555Z</time></trkpt><trkpt lat="37.8873267" lon="15.2927367"><ele>146.0</ele><time>2026-04-24T19:45:11.555Z</time></trkpt><trkpt lat="37.8873517" lon="15.2928433"><ele>145.0</ele><time>2026-04-24T19:45:12.555Z</time></trkpt><trkpt lat="37.8873817" lon="15.2929483"><ele>145.0</ele><time>2026-04-24T19:45:13.554Z</time></trkpt><trkpt lat="37.88742" lon="15.293055"><ele>145.0</ele><time>2026-04-24T19:45:14.555Z</time></trkpt><trkpt lat="37.8874583" lon="15.29316"><ele>145.0</ele><time>2026-04-24T19:45:15.555Z</time></trkpt><trkpt lat="37.8874917" lon="15.29326"><ele>145.0</ele><time>2026-04-24T19:45:16.555Z</time></trkpt><trkpt lat="37.8875267" lon="15.2933617"><ele>145.0</ele><time>2026-04-24T19:45:17.554Z</time></trkpt><trkpt lat="37.8875617" lon="15.2934467"><ele>145.0</ele><time>2026-04-24T19:45:18.554Z</time></trkpt><trkpt lat="37.8876267" lon="15.293555"><ele>148.66666666666669</ele><time>2026-04-24T19:45:20.555Z</time></trkpt><trkpt lat="37.8876983" lon="15.2935883"><ele>152.33333333333334</ele><time>2026-04-24T19:45:22.554Z</time></trkpt><trkpt lat="37.8877817" lon="15.293515"><ele>156.0</ele><time>2026-04-24T19:45:24.555Z</time></trkpt><trkpt lat="37.8878133" lon="15.29344"><ele>159.66666666666666</ele><time>2026-04-24T19:45:25.554Z</time></trkpt><trkpt lat="37.8878333" lon="15.2933583"><ele>163.33333333333331</ele><time>2026-04-24T19:45:26.555Z</time></trkpt><trkpt lat="37.887845" lon="15.2932617"><ele>167.0</ele><time>2026-04-24T19:45:27.555Z</time></trkpt><trkpt lat="37.8878583" lon="15.293155"><ele>169.5</ele><time>2026-04-24T19:45:28.555Z</time></trkpt><trkpt lat="37.8878617" lon="15.2930433"><ele>172.0</ele><time>2026-04-24T19:45:29.555Z</time></trkpt><trkpt lat="37.88785" lon="15.2929233"><ele>174.5</ele><time>2026-04-24T19:45:30.554Z</time></trkpt><trkpt lat="37.88783" lon="15.292805"><ele>177.0</ele><time>2026-04-24T19:45:31.555Z</time></trkpt><trkpt lat="37.887815" lon="15.2927033"><ele>179.5</ele><time>2026-04-24T19:45:32.554Z</time></trkpt><trkpt lat="37.8877933" lon="15.29262"><ele>182.0</ele><time>2026-04-24T19:45:33.555Z</time></trkpt><trkpt lat="37.8877867" lon="15.29254"><ele>182.0</ele><time>2026-04-24T19:45:34.554Z</time></trkpt><trkpt lat="37.88782" lon="15.2923933"><ele>182.0</ele><time>2026-04-24T19:45:36.555Z</time></trkpt><trkpt lat="37.8878483" lon="15.2923183"><ele>182.0</ele><time>2026-04-24T19:45:37.555Z</time></trkpt><trkpt lat="37.8878783" lon="15.292245"><ele>182.0</ele><time>2026-04-24T19:45:38.555Z</time></trkpt><trkpt lat="37.8879067" lon="15.2921667"><ele>182.0</ele><time>2026-04-24T19:45:39.554Z</time></trkpt><trkpt lat="37.88793" lon="15.2920833"><ele>182.0</ele><time>2026-04-24T19:45:40.555Z</time></trkpt><trkpt lat="37.8879467" lon="15.2919867"><ele>182.6</ele><time>2026-04-24T19:45:41.555Z</time></trkpt><trkpt lat="37.8879617" lon="15.2918783"><ele>183.2</ele><time>2026-04-24T19:45:42.555Z</time></trkpt><trkpt lat="37.8879683" lon="15.291755"><ele>183.8</ele><time>2026-04-24T19:45:43.555Z</time></trkpt><trkpt lat="37.8879583" lon="15.2916367"><ele>184.4</ele><time>2026-04-24T19:45:44.555Z</time></trkpt><trkpt lat="37.8879533" lon="15.2915233"><ele>185.0</ele><time>2026-04-24T19:45:45.554Z</time></trkpt><trkpt lat="37.8879567" lon="15.2914133"><ele>183.5</ele><time>2026-04-24T19:45:46.555Z</time></trkpt><trkpt lat="37.887965" lon="15.291305"><ele>182.0</ele><time>2026-04-24T19:45:47.554Z</time></trkpt><trkpt lat="37.88798" lon="15.2912"><ele>180.5</ele><time>2026-04-24T19:45:48.554Z</time></trkpt><trkpt lat="37.888" lon="15.2910967"><ele>179.0</ele><time>2026-04-24T19:45:49.554Z</time></trkpt><trkpt lat="37.8880217" lon="15.2909917"><ele>177.5</ele><time>2026-04-24T19:45:50.554Z</time></trkpt><trkpt lat="37.8880467" lon="15.290885"><ele>176.0</ele><time>2026-04-24T19:45:51.555Z</time></trkpt><trkpt lat="37.888075" lon="15.2907783"><ele>176.0</ele><time>2026-04-24T19:45:52.554Z</time></trkpt><trkpt lat="37.8881067" lon="15.290675"><ele>176.0</ele><time>2026-04-24T19:45:53.555Z</time></trkpt><trkpt lat="37.88814" lon="15.29058"><ele>176.0</ele><time>2026-04-24T19:45:54.555Z</time></trkpt><trkpt lat="37.8881783" lon="15.2904883"><ele>176.0</ele><time>2026-04-24T19:45:55.555Z</time></trkpt><trkpt lat="37.8882283" lon="15.2904033"><ele>176.0</ele><time>2026-04-24T19:45:56.555Z</time></trkpt><trkpt lat="37.88829" lon="15.29032"><ele>176.0</ele><time>2026-04-24T19:45:57.555Z</time></trkpt><trkpt lat="37.8883583" lon="15.2902383"><ele>174.4</ele><time>2026-04-24T19:45:58.554Z</time></trkpt><trkpt lat="37.8884183" lon="15.290145"><ele>172.8</ele><time>2026-04-24T19:45:59.554Z</time></trkpt><trkpt lat="37.88846" lon="15.2900467"><ele>171.20000000000002</ele><time>2026-04-24T19:46:00.555Z</time></trkpt><trkpt lat="37.8884867" lon="15.2899417"><ele>169.60000000000002</ele><time>2026-04-24T19:46:01.555Z</time></trkpt><trkpt lat="37.8885083" lon="15.2898283"><ele>168.0</ele><time>2026-04-24T19:46:02.554Z</time></trkpt><trkpt lat="37.8885167" lon="15.2897117"><ele>173.0</ele><time>2026-04-24T19:46:03.554Z</time></trkpt><trkpt lat="37.88852" lon="15.2895983"><ele>178.0</ele><time>2026-04-24T19:46:04.555Z</time></trkpt><trkpt lat="37.888525" lon="15.289485"><ele>183.0</ele><time>2026-04-24T19:46:05.555Z</time></trkpt><trkpt lat="37.888535" lon="15.2893717"><ele>188.0</ele><time>2026-04-24T19:46:06.555Z</time></trkpt><trkpt lat="37.8885583" lon="15.2892617"><ele>193.0</ele><time>2026-04-24T19:46:07.554Z</time></trkpt><trkpt lat="37.8885817" lon="15.2891533"><ele>198.0</ele><time>2026-04-24T19:46:08.555Z</time></trkpt><trkpt lat="37.8886" lon="15.2890433"><ele>198.0</ele><time>2026-04-24T19:46:09.554Z</time></trkpt><trkpt lat="37.8886117" lon="15.28893"><ele>198.0</ele><time>2026-04-24T19:46:10.554Z</time></trkpt><trkpt lat="37.88861" lon="15.2888133"><ele>198.0</ele><time>2026-04-24T19:46:11.555Z</time></trkpt><trkpt lat="37.8886" lon="15.2886967"><ele>198.0</ele><time>2026-04-24T19:46:12.555Z</time></trkpt><trkpt lat="37.8885883" lon="15.28857"><ele>198.0</ele><time>2026-04-24T19:46:13.555Z</time></trkpt><trkpt lat="37.8885967" lon="15.2884517"><ele>199.2</ele><time>2026-04-24T19:46:14.555Z</time></trkpt><trkpt lat="37.88861" lon="15.288335"><ele>200.4</ele><time>2026-04-24T19:46:15.554Z</time></trkpt><trkpt lat="37.8886317" lon="15.2882167"><ele>201.6</ele><time>2026-04-24T19:46:16.555Z</time></trkpt><trkpt lat="37.8886417" lon="15.2881"><ele>202.79999999999998</ele><time>2026-04-24T19:46:17.554Z</time></trkpt><trkpt lat="37.8886383" lon="15.287985"><ele>204.0</ele><time>2026-04-24T19:46:18.555Z</time></trkpt><trkpt lat="37.88863" lon="15.2878733"><ele>204.0</ele><time>2026-04-24T19:46:19.554Z</time></trkpt><trkpt lat="37.8886233" lon="15.28777"><ele>204.0</ele><time>2026-04-24T19:46:20.555Z</time></trkpt><trkpt lat="37.8886217" lon="15.28767"><ele>204.0</ele><time>2026-04-24T19:46:21.555Z</time></trkpt><trkpt lat="37.8886267" lon="15.28758"><ele>204.0</ele><time>2026-04-24T19:46:22.554Z</time></trkpt><trkpt lat="37.8886467" lon="15.28749"><ele>204.0</ele><time>2026-04-24T19:46:23.555Z</time></trkpt><trkpt lat="37.888685" lon="15.2874"><ele>204.0</ele><time>2026-04-24T19:46:24.554Z</time></trkpt><trkpt lat="37.888735" lon="15.28732"><ele>201.83333333333334</ele><time>2026-04-24T19:46:25.554Z</time></trkpt><trkpt lat="37.888785" lon="15.28724"><ele>199.66666666666666</ele><time>2026-04-24T19:46:26.554Z</time></trkpt><trkpt lat="37.8888333" lon="15.2871667"><ele>197.5</ele><time>2026-04-24T19:46:27.554Z</time></trkpt><trkpt lat="37.8888717" lon="15.2871"><ele>195.33333333333331</ele><time>2026-04-24T19:46:28.555Z</time></trkpt><trkpt lat="37.8889267" lon="15.2869983"><ele>193.16666666666666</ele><time>2026-04-24T19:46:30.554Z</time></trkpt><trkpt lat="37.8889633" lon="15.2869283"><ele>191.0</ele><time>2026-04-24T19:46:32.555Z</time></trkpt><trkpt lat="37.889015" lon="15.2868283"><ele>191.0</ele><time>2026-04-24T19:46:34.555Z</time></trkpt><trkpt lat="37.8890533" lon="15.2867583"><ele>191.0</ele><time>2026-04-24T19:46:35.554Z</time></trkpt><trkpt lat="37.889105" lon="15.2866883"><ele>191.0</ele><time>2026-04-24T19:46:36.554Z</time></trkpt><trkpt lat="37.8891667" lon="15.2866283"><ele>191.0</ele><time>2026-04-24T19:46:37.555Z</time></trkpt><trkpt lat="37.8892333" lon="15.2865617"><ele>191.0</ele><time>2026-04-24T19:46:38.555Z</time></trkpt><trkpt lat="37.8893083" lon="15.2864983"><ele>191.0</ele><time>2026-04-24T19:46:39.555Z</time></trkpt><trkpt lat="37.8893833" lon="15.2864183"><ele>192.0</ele><time>2026-04-24T19:46:40.555Z</time></trkpt><trkpt lat="37.8894617" lon="15.286325"><ele>193.0</ele><time>2026-04-24T19:46:41.555Z</time></trkpt><trkpt lat="37.88954" lon="15.2862267"><ele>194.0</ele><time>2026-04-24T19:46:42.555Z</time></trkpt><trkpt lat="37.8896167" lon="15.2861283"><ele>195.0</ele><time>2026-04-24T19:46:43.554Z</time></trkpt><trkpt lat="37.889695" lon="15.286035"><ele>196.0</ele><time>2026-04-24T19:46:44.555Z</time></trkpt><trkpt lat="37.8897783" lon="15.2859483"><ele>196.0</ele><time>2026-04-24T19:46:45.555Z</time></trkpt><trkpt lat="37.8898667" lon="15.2858717"><ele>196.0</ele><time>2026-04-24T19:46:46.554Z</time></trkpt><trkpt lat="37.8899583" lon="15.2858017"><ele>196.0</ele><time>2026-04-24T19:46:47.555Z</time></trkpt><trkpt lat="37.89006" lon="15.2857467"><ele>196.0</ele><time>2026-04-24T19:46:48.555Z</time></trkpt><trkpt lat="37.8901667" lon="15.285695"><ele>196.0</ele><time>2026-04-24T19:46:49.555Z</time></trkpt><trkpt lat="37.89028" lon="15.28565"><ele>199.4</ele><time>2026-04-24T19:46:50.555Z</time></trkpt><trkpt lat="37.8903883" lon="15.28561"><ele>202.8</ele><time>2026-04-24T19:46:51.554Z</time></trkpt><trkpt lat="37.890495" lon="15.2855717"><ele>206.20000000000002</ele><time>2026-04-24T19:46:52.555Z</time></trkpt><trkpt lat="37.8905917" lon="15.2855333"><ele>209.60000000000002</ele><time>2026-04-24T19:46:53.555Z</time></trkpt><trkpt lat="37.890685" lon="15.2854933"><ele>213.0</ele><time>2026-04-24T19:46:54.554Z</time></trkpt><trkpt lat="37.8907817" lon="15.28546"><ele>209.4</ele><time>2026-04-24T19:46:55.555Z</time></trkpt><trkpt lat="37.8908817" lon="15.2854233"><ele>205.8</ele><time>2026-04-24T19:46:56.555Z</time></trkpt><trkpt lat="37.89098" lon="15.2853917"><ele>202.2</ele><time>2026-04-24T19:46:57.555Z</time></trkpt><trkpt lat="37.8910733" lon="15.2853567"><ele>198.6</ele><time>2026-04-24T19:46:58.555Z</time></trkpt><trkpt lat="37.8911583" lon="15.28533"><ele>195.0</ele><time>2026-04-24T19:46:59.555Z</time></trkpt><trkpt lat="37.8912467" lon="15.2853033"><ele>195.0</ele><time>2026-04-24T19:47:00.554Z</time></trkpt><trkpt lat="37.8913383" lon="15.28528"><ele>195.0</ele><time>2026-04-24T19:47:01.555Z</time></trkpt><trkpt lat="37.89144" lon="15.2852517"><ele>195.0</ele><time>2026-04-24T19:47:02.555Z</time></trkpt><trkpt lat="37.8915467" lon="15.2852283"><ele>195.0</ele><time>2026-04-24T19:47:03.554Z</time></trkpt><trkpt lat="37.8916583" lon="15.28521"><ele>195.0</ele><time>2026-04-24T19:47:04.555Z</time></trkpt><trkpt lat="37.8917683" lon="15.28521"><ele>195.6</ele><time>2026-04-24T19:47:05.555Z</time></trkpt><trkpt lat="37.8918783" lon="15.2852267"><ele>196.2</ele><time>2026-04-24T19:47:06.554Z</time></trkpt><trkpt lat="37.8919883" lon="15.28525"><ele>196.8</ele><time>2026-04-24T19:47:07.555Z</time></trkpt><trkpt lat="37.8920983" lon="15.2852733"><ele>197.4</ele><time>2026-04-24T19:47:08.554Z</time></trkpt><trkpt lat="37.8922017" lon="15.285305"><ele>198.0</ele><time>2026-04-24T19:47:09.555Z</time></trkpt><trkpt lat="37.8923017" lon="15.285335"><ele>198.0</ele><time>2026-04-24T19:47:10.555Z</time></trkpt><trkpt lat="37.8924067" lon="15.2853617"><ele>198.0</ele><time>2026-04-24T19:47:11.554Z</time></trkpt><trkpt lat="37.8925133" lon="15.2853867"><ele>198.0</ele><time>2026-04-24T19:47:12.554Z</time></trkpt><trkpt lat="37.8926183" lon="15.2854083"><ele>198.0</ele><time>2026-04-24T19:47:13.555Z</time></trkpt><trkpt lat="37.892725" lon="15.2854233"><ele>198.0</ele><time>2026-04-24T19:47:14.554Z</time></trkpt><trkpt lat="37.892825" lon="15.28543"><ele>201.8</ele><time>2026-04-24T19:47:15.554Z</time></trkpt><trkpt lat="37.89293" lon="15.2854233"><ele>205.60000000000002</ele><time>2026-04-24T19:47:16.554Z</time></trkpt><trkpt lat="37.893035" lon="15.285405"><ele>209.39999999999998</ele><time>2026-04-24T19:47:17.555Z</time></trkpt><trkpt lat="37.8931417" lon="15.285375"><ele>213.2</ele><time>2026-04-24T19:47:18.554Z</time></trkpt><trkpt lat="37.8932433" lon="15.2853383"><ele>217.0</ele><time>2026-04-24T19:47:19.555Z</time></trkpt><trkpt lat="37.8933467" lon="15.2852933"><ele>231.39999999999998</ele><time>2026-04-24T19:47:20.554Z</time></trkpt><trkpt lat="37.8934483" lon="15.2852383"><ele>245.79999999999998</ele><time>2026-04-24T19:47:21.554Z</time></trkpt><trkpt lat="37.893545" lon="15.2851783"><ele>260.2</ele><time>2026-04-24T19:47:22.555Z</time></trkpt><trkpt lat="37.8936417" lon="15.2851133"><ele>274.59999999999997</ele><time>2026-04-24T19:47:23.555Z</time></trkpt><trkpt lat="37.8937367" lon="15.28504"><ele>289.0</ele><time>2026-04-24T19:47:24.554Z</time></trkpt><trkpt lat="37.89383" lon="15.2849533"><ele>289.0</ele><time>2026-04-24T19:47:25.555Z</time></trkpt><trkpt lat="37.893925" lon="15.28487"><ele>289.0</ele><time>2026-04-24T19:47:26.554Z</time></trkpt><trkpt lat="37.8940133" lon="15.2847733"><ele>289.0</ele><time>2026-04-24T19:47:27.555Z</time></trkpt><trkpt lat="37.8940883" lon="15.284665"><ele>289.0</ele><time>2026-04-24T19:47:28.555Z</time></trkpt><trkpt lat="37.89414" lon="15.2845433"><ele>281.2</ele><time>2026-04-24T19:47:29.555Z</time></trkpt><trkpt lat="37.8941983" lon="15.2844333"><ele>273.4</ele><time>2026-04-24T19:47:30.555Z</time></trkpt><trkpt lat="37.8942633" lon="15.284325"><ele>265.6</ele><time>2026-04-24T19:47:31.555Z</time></trkpt><trkpt lat="37.8943317" lon="15.2842117"><ele>257.8</ele><time>2026-04-24T19:47:32.555Z</time></trkpt><trkpt lat="37.8944033" lon="15.2841017"><ele>250.0</ele><time>2026-04-24T19:47:33.554Z</time></trkpt><trkpt lat="37.894485" lon="15.2840333"><ele>249.99999999999997</ele><time>2026-04-24T19:47:34.554Z</time></trkpt><trkpt lat="37.8945467" lon="15.2839533"><ele>250.0</ele><time>2026-04-24T19:47:35.555Z</time></trkpt><trkpt lat="37.8945867" lon="15.2838467"><ele>250.0</ele><time>2026-04-24T19:47:36.555Z</time></trkpt><trkpt lat="37.8946283" lon="15.2837533"><ele>250.0</ele><time>2026-04-24T19:47:37.555Z</time></trkpt><trkpt lat="37.8946667" lon="15.283665"><ele>249.99999999999997</ele><time>2026-04-24T19:47:38.554Z</time></trkpt><trkpt lat="37.89471" lon="15.283605"><ele>250.0</ele><time>2026-04-24T19:47:39.554Z</time></trkpt><trkpt lat="37.8947467" lon="15.2835383"><ele>248.71428571428572</ele><time>2026-04-24T19:47:40.554Z</time></trkpt><trkpt lat="37.89478" lon="15.2834633"><ele>247.42857142857144</ele><time>2026-04-24T19:47:41.555Z</time></trkpt><trkpt lat="37.8947983" lon="15.283375"><ele>246.14285714285717</ele><time>2026-04-24T19:47:42.554Z</time></trkpt><trkpt lat="37.8947933" lon="15.28329"><ele>244.85714285714286</ele><time>2026-04-24T19:47:43.555Z</time></trkpt><trkpt lat="37.8947767" lon="15.2832017"><ele>243.5714285714286</ele><time>2026-04-24T19:47:44.555Z</time></trkpt><trkpt lat="37.8947583" lon="15.2831133"><ele>242.2857142857143</ele><time>2026-04-24T19:47:45.554Z</time></trkpt><trkpt lat="37.8947567" lon="15.2830333"><ele>241.0</ele><time>2026-04-24T19:47:46.555Z</time></trkpt><trkpt lat="37.8948083" lon="15.2829083"><ele>242.4</ele><time>2026-04-24T19:47:48.554Z</time></trkpt><trkpt lat="37.8948783" lon="15.2828383"><ele>243.8</ele><time>2026-04-24T19:47:49.554Z</time></trkpt><trkpt lat="37.8949617" lon="15.28277"><ele>245.20000000000002</ele><time>2026-04-24T19:47:50.554Z</time></trkpt><trkpt lat="37.89506" lon="15.2827067"><ele>246.60000000000002</ele><time>2026-04-24T19:47:51.555Z</time></trkpt><trkpt lat="37.895165" lon="15.2826567"><ele>248.0</ele><time>2026-04-24T19:47:52.555Z</time></trkpt><trkpt lat="37.8952717" lon="15.282615"><ele>248.0</ele><time>2026-04-24T19:47:53.555Z</time></trkpt><trkpt lat="37.8953783" lon="15.28256"><ele>248.0</ele><time>2026-04-24T19:47:54.554Z</time></trkpt><trkpt lat="37.8954867" lon="15.2825067"><ele>248.0</ele><time>2026-04-24T19:47:55.554Z</time></trkpt><trkpt lat="37.895595" lon="15.2824683"><ele>248.0</ele><time>2026-04-24T19:47:56.554Z</time></trkpt><trkpt lat="37.8957033" lon="15.2824317"><ele>248.0</ele><time>2026-04-24T19:47:57.555Z</time></trkpt><trkpt lat="37.8958167" lon="15.28239"><ele>248.0</ele><time>2026-04-24T19:47:58.555Z</time></trkpt><trkpt lat="37.8959267" lon="15.2823517"><ele>248.0</ele><time>2026-04-24T19:47:59.554Z</time></trkpt><trkpt lat="37.896035" lon="15.2823117"><ele>248.0</ele><time>2026-04-24T19:48:00.554Z</time></trkpt><trkpt lat="37.8961333" lon="15.282275"><ele>248.0</ele><time>2026-04-24T19:48:01.555Z</time></trkpt><trkpt lat="37.8962217" lon="15.28224"><ele>251.4</ele><time>2026-04-24T19:48:02.554Z</time></trkpt><trkpt lat="37.8963067" lon="15.2822017"><ele>254.8</ele><time>2026-04-24T19:48:03.554Z</time></trkpt><trkpt lat="37.8963883" lon="15.28215"><ele>258.2</ele><time>2026-04-24T19:48:04.555Z</time></trkpt><trkpt lat="37.8964633" lon="15.2820917"><ele>261.6</ele><time>2026-04-24T19:48:05.555Z</time></trkpt><trkpt lat="37.896545" lon="15.282035"><ele>265.0</ele><time>2026-04-24T19:48:06.555Z</time></trkpt><trkpt lat="37.8966383" lon="15.2819817"><ele>265.0</ele><time>2026-04-24T19:48:07.555Z</time></trkpt><trkpt lat="37.896735" lon="15.2819417"><ele>265.0</ele><time>2026-04-24T19:48:08.554Z</time></trkpt><trkpt lat="37.8968283" lon="15.2819133"><ele>265.0</ele><time>2026-04-24T19:48:09.555Z</time></trkpt><trkpt lat="37.8969167" lon="15.28189"><ele>265.0</ele><time>2026-04-24T19:48:10.554Z</time></trkpt><trkpt lat="37.8970067" lon="15.2818767"><ele>265.0</ele><time>2026-04-24T19:48:11.555Z</time></trkpt><trkpt lat="37.8970967" lon="15.2818567"><ele>263.6</ele><time>2026-04-24T19:48:12.555Z</time></trkpt><trkpt lat="37.8971867" lon="15.281835"><ele>262.2</ele><time>2026-04-24T19:48:13.555Z</time></trkpt><trkpt lat="37.89728" lon="15.2818033"><ele>260.8</ele><time>2026-04-24T19:48:14.554Z</time></trkpt><trkpt lat="37.8973683" lon="15.281765"><ele>259.4</ele><time>2026-04-24T19:48:15.554Z</time></trkpt><trkpt lat="37.8974467" lon="15.2817033"><ele>258.0</ele><time>2026-04-24T19:48:16.555Z</time></trkpt><trkpt lat="37.8975117" lon="15.281625"><ele>258.0</ele><time>2026-04-24T19:48:17.554Z</time></trkpt><trkpt lat="37.8975767" lon="15.2815317"><ele>258.0</ele><time>2026-04-24T19:48:18.555Z</time></trkpt><trkpt lat="37.8976333" lon="15.28143"><ele>258.0</ele><time>2026-04-24T19:48:19.555Z</time></trkpt><trkpt lat="37.89768" lon="15.2813183"><ele>258.0</ele><time>2026-04-24T19:48:20.554Z</time></trkpt><trkpt lat="37.897715" lon="15.281205"><ele>258.0</ele><time>2026-04-24T19:48:21.555Z</time></trkpt><trkpt lat="37.89774" lon="15.28109"><ele>258.6</ele><time>2026-04-24T19:48:22.554Z</time></trkpt><trkpt lat="37.8977683" lon="15.2809783"><ele>259.20000000000005</ele><time>2026-04-24T19:48:23.555Z</time></trkpt><trkpt lat="37.8978183" lon="15.2808717"><ele>259.8</ele><time>2026-04-24T19:48:24.555Z</time></trkpt><trkpt lat="37.8978817" lon="15.28077"><ele>260.40000000000003</ele><time>2026-04-24T19:48:25.554Z</time></trkpt><trkpt lat="37.8979533" lon="15.2806717"><ele>261.0</ele><time>2026-04-24T19:48:26.555Z</time></trkpt><trkpt lat="37.898025" lon="15.2805833"><ele>264.40000000000003</ele><time>2026-04-24T19:48:27.554Z</time></trkpt><trkpt lat="37.8980867" lon="15.2804933"><ele>267.8</ele><time>2026-04-24T19:48:28.555Z</time></trkpt><trkpt lat="37.8981533" lon="15.2803833"><ele>271.20000000000005</ele><time>2026-04-24T19:48:29.555Z</time></trkpt><trkpt lat="37.8982217" lon="15.280275"><ele>274.6</ele><time>2026-04-24T19:48:30.554Z</time></trkpt><trkpt lat="37.8982933" lon="15.2801717"><ele>278.0</ele><time>2026-04-24T19:48:31.555Z</time></trkpt><trkpt lat="37.89836" lon="15.280085"><ele>277.6</ele><time>2026-04-24T19:48:32.554Z</time></trkpt><trkpt lat="37.898425" lon="15.28"><ele>277.20000000000005</ele><time>2026-04-24T19:48:33.554Z</time></trkpt><trkpt lat="37.8985083" lon="15.2799267"><ele>276.8</ele><time>2026-04-24T19:48:34.555Z</time></trkpt><trkpt lat="37.8986" lon="15.279865"><ele>276.40000000000003</ele><time>2026-04-24T19:48:35.555Z</time></trkpt><trkpt lat="37.8987" lon="15.2798117"><ele>276.0</ele><time>2026-04-24T19:48:36.555Z</time></trkpt><trkpt lat="37.8987983" lon="15.2797667"><ele>279.8</ele><time>2026-04-24T19:48:37.555Z</time></trkpt><trkpt lat="37.898895" lon="15.2797267"><ele>283.6</ele><time>2026-04-24T19:48:38.554Z</time></trkpt><trkpt lat="37.8989983" lon="15.279705"><ele>287.4</ele><time>2026-04-24T19:48:39.555Z</time></trkpt><trkpt lat="37.8990967" lon="15.2796917"><ele>291.2</ele><time>2026-04-24T19:48:40.555Z</time></trkpt><trkpt lat="37.8991983" lon="15.2796917"><ele>295.0</ele><time>2026-04-24T19:48:41.555Z</time></trkpt><trkpt lat="37.8993017" lon="15.2796983"><ele>295.0</ele><time>2026-04-24T19:48:42.555Z</time></trkpt><trkpt lat="37.8994017" lon="15.2797"><ele>295.0</ele><time>2026-04-24T19:48:43.555Z</time></trkpt><trkpt lat="37.8994817" lon="15.2796983"><ele>295.0</ele><time>2026-04-24T19:48:44.555Z</time></trkpt><trkpt lat="37.8995517" lon="15.2796917"><ele>295.0</ele><time>2026-04-24T19:48:45.555Z</time></trkpt><trkpt lat="37.8996333" lon="15.2796683"><ele>295.0</ele><time>2026-04-24T19:48:46.555Z</time></trkpt><trkpt lat="37.8997133" lon="15.2796383"><ele>295.0</ele><time>2026-04-24T19:48:47.554Z</time></trkpt><trkpt lat="37.8997933" lon="15.2795967"><ele>295.0</ele><time>2026-04-24T19:48:48.555Z</time></trkpt><trkpt lat="37.8998733" lon="15.2795367"><ele>295.0</ele><time>2026-04-24T19:48:49.554Z</time></trkpt><trkpt lat="37.8999567" lon="15.2794667"><ele>295.0</ele><time>2026-04-24T19:48:50.554Z</time></trkpt><trkpt lat="37.90004" lon="15.2793883"><ele>295.0</ele><time>2026-04-24T19:48:51.555Z</time></trkpt><trkpt lat="37.9001217" lon="15.27931"><ele>295.0</ele><time>2026-04-24T19:48:52.554Z</time></trkpt><trkpt lat="37.9002" lon="15.2792333"><ele>295.0</ele><time>2026-04-24T19:48:53.555Z</time></trkpt><trkpt lat="37.900265" lon="15.2791567"><ele>295.0</ele><time>2026-04-24T19:48:54.554Z</time></trkpt><trkpt lat="37.90032" lon="15.279085"><ele>295.0</ele><time>2026-04-24T19:48:55.555Z</time></trkpt><trkpt lat="37.9003683" lon="15.2790217"><ele>295.0</ele><time>2026-04-24T19:48:56.555Z</time></trkpt><trkpt lat="37.9004583" lon="15.2789383"><ele>295.0</ele><time>2026-04-24T19:48:58.555Z</time></trkpt><trkpt lat="37.9005783" lon="15.27894"><ele>295.0</ele><time>2026-04-24T19:49:00.555Z</time></trkpt><trkpt lat="37.90065" lon="15.2789783"><ele>295.0</ele><time>2026-04-24T19:49:01.555Z</time></trkpt><trkpt lat="37.900725" lon="15.2790233"><ele>295.0</ele><time>2026-04-24T19:49:02.554Z</time></trkpt><trkpt lat="37.9007983" lon="15.2790683"><ele>295.0</ele><time>2026-04-24T19:49:03.555Z</time></trkpt><trkpt lat="37.9008833" lon="15.279095"><ele>295.0</ele><time>2026-04-24T19:49:04.555Z</time></trkpt><trkpt lat="37.9009767" lon="15.27911"><ele>295.0</ele><time>2026-04-24T19:49:05.554Z</time></trkpt><trkpt lat="37.9010767" lon="15.27911"><ele>295.6</ele><time>2026-04-24T19:49:06.554Z</time></trkpt><trkpt lat="37.901185" lon="15.2790967"><ele>296.2</ele><time>2026-04-24T19:49:07.554Z</time></trkpt><trkpt lat="37.9012867" lon="15.2790833"><ele>296.8</ele><time>2026-04-24T19:49:08.555Z</time></trkpt><trkpt lat="37.901385" lon="15.2790667"><ele>297.4</ele><time>2026-04-24T19:49:09.554Z</time></trkpt><trkpt lat="37.901475" lon="15.2790617"><ele>298.0</ele><time>2026-04-24T19:49:10.555Z</time></trkpt><trkpt lat="37.9015533" lon="15.279065"><ele>298.0</ele><time>2026-04-24T19:49:11.555Z</time></trkpt><trkpt lat="37.901625" lon="15.2790733"><ele>298.0</ele><time>2026-04-24T19:49:12.554Z</time></trkpt><trkpt lat="37.90169" lon="15.27909"><ele>298.0</ele><time>2026-04-24T19:49:13.554Z</time></trkpt><trkpt lat="37.901755" lon="15.2790983"><ele>298.0</ele><time>2026-04-24T19:49:14.555Z</time></trkpt><trkpt lat="37.9018533" lon="15.2790717"><ele>298.0</ele><time>2026-04-24T19:49:16.555Z</time></trkpt><trkpt lat="37.901875" lon="15.2789783"><ele>298.0</ele><time>2026-04-24T19:49:18.555Z</time></trkpt><trkpt lat="37.9017933" lon="15.27892"><ele>301.16666666666663</ele><time>2026-04-24T19:49:20.554Z</time></trkpt><trkpt lat="37.9017167" lon="15.2789233"><ele>304.3333333333333</ele><time>2026-04-24T19:49:21.554Z</time></trkpt><trkpt lat="37.9016383" lon="15.2789233"><ele>307.5</ele><time>2026-04-24T19:49:22.555Z</time></trkpt><trkpt lat="37.9015567" lon="15.2789217"><ele>310.6666666666667</ele><time>2026-04-24T19:49:23.554Z</time></trkpt><trkpt lat="37.9014667" lon="15.2789233"><ele>313.83333333333337</ele><time>2026-04-24T19:49:24.555Z</time></trkpt><trkpt lat="37.9013733" lon="15.2789283"><ele>317.0</ele><time>2026-04-24T19:49:25.555Z</time></trkpt><trkpt lat="37.9012767" lon="15.2789267"><ele>317.0</ele><time>2026-04-24T19:49:26.555Z</time></trkpt><trkpt lat="37.9011833" lon="15.2789133"><ele>317.0</ele><time>2026-04-24T19:49:27.555Z</time></trkpt><trkpt lat="37.9011" lon="15.2789"><ele>317.0</ele><time>2026-04-24T19:49:28.554Z</time></trkpt><trkpt lat="37.901025" lon="15.2788817"><ele>317.0</ele><time>2026-04-24T19:49:29.555Z</time></trkpt><trkpt lat="37.9009517" lon="15.2788517"><ele>317.0</ele><time>2026-04-24T19:49:30.554Z</time></trkpt><trkpt lat="37.9008833" lon="15.2787867"><ele>317.0</ele><time>2026-04-24T19:49:31.555Z</time></trkpt><trkpt lat="37.9008367" lon="15.278695"><ele>318.0</ele><time>2026-04-24T19:49:32.555Z</time></trkpt><trkpt lat="37.900805" lon="15.2785867"><ele>319.0</ele><time>2026-04-24T19:49:33.554Z</time></trkpt><trkpt lat="37.9007917" lon="15.2784633"><ele>320.0</ele><time>2026-04-24T19:49:34.555Z</time></trkpt><trkpt lat="37.900785" lon="15.2783383"><ele>321.0</ele><time>2026-04-24T19:49:35.554Z</time></trkpt><trkpt lat="37.9007717" lon="15.27822"><ele>322.0</ele><time>2026-04-24T19:49:36.555Z</time></trkpt><trkpt lat="37.9007583" lon="15.2781183"><ele>322.0</ele><time>2026-04-24T19:49:37.555Z</time></trkpt><trkpt lat="37.9007367" lon="15.278035"><ele>322.0</ele><time>2026-04-24T19:49:38.555Z</time></trkpt><trkpt lat="37.900655" lon="15.2779517"><ele>322.0</ele><time>2026-04-24T19:49:40.555Z</time></trkpt><trkpt lat="37.9005433" lon="15.2779917"><ele>322.0</ele><time>2026-04-24T19:49:42.554Z</time></trkpt><trkpt lat="37.9004767" lon="15.2780433"><ele>322.0</ele><time>2026-04-24T19:49:43.554Z</time></trkpt><trkpt lat="37.900405" lon="15.2781083"><ele>322.0</ele><time>2026-04-24T19:49:44.554Z</time></trkpt><trkpt lat="37.9003317" lon="15.2781683"><ele>322.0</ele><time>2026-04-24T19:49:45.555Z</time></trkpt><trkpt lat="37.9002667" lon="15.2782383"><ele>322.0</ele><time>2026-04-24T19:49:46.554Z</time></trkpt><trkpt lat="37.9002017" lon="15.2783117"><ele>322.0</ele><time>2026-04-24T19:49:47.555Z</time></trkpt><trkpt lat="37.9001467" lon="15.27839"><ele>322.0</ele><time>2026-04-24T19:49:48.555Z</time></trkpt><trkpt lat="37.90009" lon="15.2784617"><ele>322.0</ele><time>2026-04-24T19:49:49.555Z</time></trkpt><trkpt lat="37.9000233" lon="15.2785333"><ele>322.40000000000003</ele><time>2026-04-24T19:49:50.555Z</time></trkpt><trkpt lat="37.8999483" lon="15.2785867"><ele>322.8</ele><time>2026-04-24T19:49:51.555Z</time></trkpt><trkpt lat="37.8998617" lon="15.2786283"><ele>323.2</ele><time>2026-04-24T19:49:52.555Z</time></trkpt><trkpt lat="37.8997733" lon="15.2786583"><ele>323.6</ele><time>2026-04-24T19:49:53.554Z</time></trkpt><trkpt lat="37.8996867" lon="15.2786883"><ele>324.0</ele><time>2026-04-24T19:49:54.554Z</time></trkpt><trkpt lat="37.8995967" lon="15.27871"><ele>324.0</ele><time>2026-04-24T19:49:55.555Z</time></trkpt><trkpt lat="37.8995" lon="15.27871"><ele>324.0</ele><time>2026-04-24T19:49:56.555Z</time></trkpt><trkpt lat="37.8994017" lon="15.2787017"><ele>324.0</ele><time>2026-04-24T19:49:57.554Z</time></trkpt><trkpt lat="37.899305" lon="15.27868"><ele>324.0</ele><time>2026-04-24T19:49:58.554Z</time></trkpt><trkpt lat="37.8992217" lon="15.278645"><ele>324.0</ele><time>2026-04-24T19:49:59.554Z</time></trkpt><trkpt lat="37.8991567" lon="15.278605"><ele>326.0</ele><time>2026-04-24T19:50:00.555Z</time></trkpt><trkpt lat="37.8990983" lon="15.2785583"><ele>328.0</ele><time>2026-04-24T19:50:01.555Z</time></trkpt><trkpt lat="37.8990383" lon="15.2785317"><ele>330.0</ele><time>2026-04-24T19:50:02.555Z</time></trkpt><trkpt lat="37.898925" lon="15.2785367"><ele>332.0</ele><time>2026-04-24T19:50:04.554Z</time></trkpt><trkpt lat="37.89885" lon="15.2785917"><ele>334.0</ele><time>2026-04-24T19:50:06.554Z</time></trkpt><trkpt lat="37.8987683" lon="15.27861"><ele>336.0</ele><time>2026-04-24T19:50:09.555Z</time></trkpt><trkpt lat="37.8987767" lon="15.2785017"><ele>336.0</ele><time>2026-04-24T19:50:12.555Z</time></trkpt><trkpt lat="37.89888" lon="15.2784217"><ele>336.0</ele><time>2026-04-24T19:50:14.554Z</time></trkpt><trkpt lat="37.898945" lon="15.2784"><ele>336.0</ele><time>2026-04-24T19:50:15.555Z</time></trkpt><trkpt lat="37.899015" lon="15.2784"><ele>336.0</ele><time>2026-04-24T19:50:16.554Z</time></trkpt><trkpt lat="37.8990867" lon="15.278415"><ele>336.0</ele><time>2026-04-24T19:50:17.555Z</time></trkpt><trkpt lat="37.8991633" lon="15.2784467"><ele>336.0</ele><time>2026-04-24T19:50:18.555Z</time></trkpt><trkpt lat="37.8992417" lon="15.2784767"><ele>334.0</ele><time>2026-04-24T19:50:19.555Z</time></trkpt><trkpt lat="37.89933" lon="15.2784917"><ele>332.0</ele><time>2026-04-24T19:50:20.555Z</time></trkpt><trkpt lat="37.8994217" lon="15.2785033"><ele>330.0</ele><time>2026-04-24T19:50:21.554Z</time></trkpt><trkpt lat="37.89952" lon="15.2785"><ele>328.0</ele><time>2026-04-24T19:50:22.555Z</time></trkpt><trkpt lat="37.89961" lon="15.278485"><ele>326.0</ele><time>2026-04-24T19:50:23.554Z</time></trkpt><trkpt lat="37.8996833" lon="15.2784633"><ele>324.0</ele><time>2026-04-24T19:50:24.554Z</time></trkpt><trkpt lat="37.899755" lon="15.2784183"><ele>324.0</ele><time>2026-04-24T19:50:25.555Z</time></trkpt><trkpt lat="37.8998217" lon="15.278355"><ele>324.0</ele><time>2026-04-24T19:50:26.555Z</time></trkpt><trkpt lat="37.8998767" lon="15.2782683"><ele>324.0</ele><time>2026-04-24T19:50:27.555Z</time></trkpt><trkpt lat="37.8999217" lon="15.2781633"><ele>324.0</ele><time>2026-04-24T19:50:28.554Z</time></trkpt><trkpt lat="37.8999633" lon="15.2780517"><ele>324.0</ele><time>2026-04-24T19:50:29.555Z</time></trkpt><trkpt lat="37.9000017" lon="15.277935"><ele>327.0</ele><time>2026-04-24T19:50:30.554Z</time></trkpt><trkpt lat="37.9000417" lon="15.2778333"><ele>330.0</ele><time>2026-04-24T19:50:31.555Z</time></trkpt><trkpt lat="37.9000883" lon="15.2777367"><ele>333.0</ele><time>2026-04-24T19:50:32.555Z</time></trkpt><trkpt lat="37.9001383" lon="15.277635"><ele>336.0</ele><time>2026-04-24T19:50:33.555Z</time></trkpt><trkpt lat="37.9001883" lon="15.2775283"><ele>339.0</ele><time>2026-04-24T19:50:34.554Z</time></trkpt><trkpt lat="37.9002333" lon="15.2774267"><ele>339.0</ele><time>2026-04-24T19:50:35.555Z</time></trkpt><trkpt lat="37.900265" lon="15.2773367"><ele>339.0</ele><time>2026-04-24T19:50:36.555Z</time></trkpt><trkpt lat="37.9002917" lon="15.2772617"><ele>339.0</ele><time>2026-04-24T19:50:37.555Z</time></trkpt><trkpt lat="37.9003" lon="15.2771533"><ele>339.0</ele><time>2026-04-24T19:50:39.555Z</time></trkpt><trkpt lat="37.9002467" lon="15.2770933"><ele>339.0</ele><time>2026-04-24T19:50:41.554Z</time></trkpt><trkpt lat="37.90017" lon="15.2771317"><ele>339.0</ele><time>2026-04-24T19:50:43.555Z</time></trkpt><trkpt lat="37.9001383" lon="15.2772033"><ele>339.0</ele><time>2026-04-24T19:50:44.555Z</time></trkpt><trkpt lat="37.900115" lon="15.2772917"><ele>339.0</ele><time>2026-04-24T19:50:45.554Z</time></trkpt><trkpt lat="37.9000867" lon="15.2773767"><ele>339.0</ele><time>2026-04-24T19:50:46.554Z</time></trkpt><trkpt lat="37.90004" lon="15.2774567"><ele>339.0</ele><time>2026-04-24T19:50:47.555Z</time></trkpt><trkpt lat="37.899985" lon="15.2775333"><ele>339.0</ele><time>2026-04-24T19:50:48.554Z</time></trkpt><trkpt lat="37.89992" lon="15.2776"><ele>339.0</ele><time>2026-04-24T19:50:49.555Z</time></trkpt><trkpt lat="37.8998567" lon="15.277665"><ele>339.0</ele><time>2026-04-24T19:50:50.555Z</time></trkpt><trkpt lat="37.8998" lon="15.2777233"><ele>340.3333333333333</ele><time>2026-04-24T19:50:51.555Z</time></trkpt><trkpt lat="37.8997567" lon="15.2777817"><ele>341.6666666666667</ele><time>2026-04-24T19:50:52.555Z</time></trkpt><trkpt lat="37.8996883" lon="15.2778583"><ele>343.0</ele><time>2026-04-24T19:50:54.555Z</time></trkpt><trkpt lat="37.8996183" lon="15.2778533"><ele>344.33333333333337</ele><time>2026-04-24T19:50:56.555Z</time></trkpt><trkpt lat="37.8995967" lon="15.2777733"><ele>345.6666666666667</ele><time>2026-04-24T19:50:58.554Z</time></trkpt><trkpt lat="37.8996383" lon="15.2776683"><ele>347.0</ele><time>2026-04-24T19:51:00.554Z</time></trkpt><trkpt lat="37.8996883" lon="15.2776067"><ele>347.0</ele><time>2026-04-24T19:51:01.555Z</time></trkpt><trkpt lat="37.89975" lon="15.277535"><ele>347.0</ele><time>2026-04-24T19:51:02.554Z</time></trkpt><trkpt lat="37.899805" lon="15.2774533"><ele>347.0</ele><time>2026-04-24T19:51:03.554Z</time></trkpt><trkpt lat="37.899855" lon="15.277365"><ele>347.0</ele><time>2026-04-24T19:51:04.555Z</time></trkpt><trkpt lat="37.8998967" lon="15.2772667"><ele>347.0</ele><time>2026-04-24T19:51:05.554Z</time></trkpt><trkpt lat="37.8999217" lon="15.2771633"><ele>347.0</ele><time>2026-04-24T19:51:06.554Z</time></trkpt><trkpt lat="37.8999383" lon="15.277075"><ele>348.14285714285717</ele><time>2026-04-24T19:51:07.555Z</time></trkpt><trkpt lat="37.89994" lon="15.2769883"><ele>349.2857142857143</ele><time>2026-04-24T19:51:08.555Z</time></trkpt><trkpt lat="37.8999483" lon="15.2769083"><ele>350.42857142857144</ele><time>2026-04-24T19:51:09.554Z</time></trkpt><trkpt lat="37.899975" lon="15.2768333"><ele>351.57142857142856</ele><time>2026-04-24T19:51:10.555Z</time></trkpt><trkpt lat="37.9000067" lon="15.2767517"><ele>352.7142857142857</ele><time>2026-04-24T19:51:11.554Z</time></trkpt><trkpt lat="37.900055" lon="15.27667"><ele>353.85714285714283</ele><time>2026-04-24T19:51:12.554Z</time></trkpt><trkpt lat="37.900115" lon="15.2765933"><ele>355.0</ele><time>2026-04-24T19:51:13.555Z</time></trkpt><trkpt lat="37.90017" lon="15.27653"><ele>355.0</ele><time>2026-04-24T19:51:14.555Z</time></trkpt><trkpt lat="37.9002167" lon="15.2764717"><ele>355.0</ele><time>2026-04-24T19:51:15.554Z</time></trkpt><trkpt lat="37.9002833" lon="15.2763733"><ele>355.0</ele><time>2026-04-24T19:51:17.554Z</time></trkpt><trkpt lat="37.9002717" lon="15.2762667"><ele>355.0</ele><time>2026-04-24T19:51:19.555Z</time></trkpt><trkpt lat="37.900185" lon="15.2762517"><ele>355.0</ele><time>2026-04-24T19:51:21.554Z</time></trkpt><trkpt lat="37.9001167" lon="15.2763617"><ele>356.5</ele><time>2026-04-24T19:51:23.554Z</time></trkpt><trkpt lat="37.9000767" lon="15.27644"><ele>358.0</ele><time>2026-04-24T19:51:24.554Z</time></trkpt><trkpt lat="37.9000233" lon="15.2765217"><ele>359.5</ele><time>2026-04-24T19:51:25.555Z</time></trkpt><trkpt lat="37.89996" lon="15.2766033"><ele>361.0</ele><time>2026-04-24T19:51:26.555Z</time></trkpt><trkpt lat="37.89989" lon="15.2766917"><ele>362.5</ele><time>2026-04-24T19:51:27.555Z</time></trkpt><trkpt lat="37.8998217" lon="15.2767833"><ele>364.0</ele><time>2026-04-24T19:51:28.554Z</time></trkpt><trkpt lat="37.89975" lon="15.2768733"><ele>364.0</ele><time>2026-04-24T19:51:29.555Z</time></trkpt><trkpt lat="37.8996817" lon="15.2769517"><ele>364.0</ele><time>2026-04-24T19:51:30.554Z</time></trkpt><trkpt lat="37.89961" lon="15.2770367"><ele>364.0</ele><time>2026-04-24T19:51:31.555Z</time></trkpt><trkpt lat="37.8995483" lon="15.2771317"><ele>364.0</ele><time>2026-04-24T19:51:32.554Z</time></trkpt><trkpt lat="37.8994933" lon="15.2772283"><ele>364.0</ele><time>2026-04-24T19:51:33.555Z</time></trkpt><trkpt lat="37.8994483" lon="15.277325"><ele>364.0</ele><time>2026-04-24T19:51:34.554Z</time></trkpt><trkpt lat="37.8994067" lon="15.2774033"><ele>364.0</ele><time>2026-04-24T19:51:35.555Z</time></trkpt><trkpt lat="37.899325" lon="15.27748"><ele>364.0</ele><time>2026-04-24T19:51:37.555Z</time></trkpt><trkpt lat="37.89925" lon="15.277445"><ele>364.0</ele><time>2026-04-24T19:51:39.555Z</time></trkpt><trkpt lat="37.8992683" lon="15.2773433"><ele>364.0</ele><time>2026-04-24T19:51:41.555Z</time></trkpt><trkpt lat="37.8993533" lon="15.277215"><ele>364.0</ele><time>2026-04-24T19:51:43.554Z</time></trkpt><trkpt lat="37.8994017" lon="15.2771383"><ele>364.0</ele><time>2026-04-24T19:51:44.555Z</time></trkpt><trkpt lat="37.899455" lon="15.2770483"><ele>364.0</ele><time>2026-04-24T19:51:45.555Z</time></trkpt><trkpt lat="37.8995117" lon="15.2769517"><ele>364.0</ele><time>2026-04-24T19:51:46.555Z</time></trkpt><trkpt lat="37.8995717" lon="15.27685"><ele>364.0</ele><time>2026-04-24T19:51:47.554Z</time></trkpt><trkpt lat="37.8996283" lon="15.276745"><ele>364.0</ele><time>2026-04-24T19:51:48.554Z</time></trkpt><trkpt lat="37.89969" lon="15.27665"><ele>364.0</ele><time>2026-04-24T19:51:49.554Z</time></trkpt><trkpt lat="37.8997433" lon="15.27655"><ele>364.0</ele><time>2026-04-24T19:51:50.555Z</time></trkpt><trkpt lat="37.8997917" lon="15.2764583"><ele>364.0</ele><time>2026-04-24T19:51:51.555Z</time></trkpt><trkpt lat="37.8998367" lon="15.2763733"><ele>364.0</ele><time>2026-04-24T19:51:52.554Z</time></trkpt><trkpt lat="37.89987" lon="15.27629"><ele>364.0</ele><time>2026-04-24T19:51:53.555Z</time></trkpt><trkpt lat="37.899885" lon="15.276205"><ele>366.3333333333333</ele><time>2026-04-24T19:51:54.554Z</time></trkpt><trkpt lat="37.8998783" lon="15.27612"><ele>368.66666666666663</ele><time>2026-04-24T19:51:55.555Z</time></trkpt><trkpt lat="37.8998533" lon="15.2760383"><ele>371.0</ele><time>2026-04-24T19:51:56.555Z</time></trkpt><trkpt lat="37.8998167" lon="15.27597"><ele>373.3333333333333</ele><time>2026-04-24T19:51:57.555Z</time></trkpt><trkpt lat="37.8997633" lon="15.2758583"><ele>375.6666666666667</ele><time>2026-04-24T19:51:59.555Z</time></trkpt><trkpt lat="37.899745" lon="15.2757083"><ele>378.0</ele><time>2026-04-24T19:52:01.555Z</time></trkpt><trkpt lat="37.899725" lon="15.27562"><ele>381.6666666666667</ele><time>2026-04-24T19:52:02.555Z</time></trkpt><trkpt lat="37.899705" lon="15.27553"><ele>385.33333333333337</ele><time>2026-04-24T19:52:03.554Z</time></trkpt><trkpt lat="37.8996917" lon="15.2754367"><ele>389.0</ele><time>2026-04-24T19:52:04.554Z</time></trkpt><trkpt lat="37.8996917" lon="15.2753567"><ele>392.6666666666667</ele><time>2026-04-24T19:52:05.555Z</time></trkpt><trkpt lat="37.8997317" lon="15.2752133"><ele>396.33333333333337</ele><time>2026-04-24T19:52:07.555Z</time></trkpt><trkpt lat="37.8998067" lon="15.2751367"><ele>400.0</ele><time>2026-04-24T19:52:09.555Z</time></trkpt><trkpt lat="37.89993" lon="15.2751517"><ele>400.00000000000006</ele><time>2026-04-24T19:52:11.554Z</time></trkpt><trkpt lat="37.9000033" lon="15.2751767"><ele>400.0</ele><time>2026-04-24T19:52:12.555Z</time></trkpt><trkpt lat="37.90009" lon="15.2751983"><ele>400.0</ele><time>2026-04-24T19:52:13.554Z</time></trkpt><trkpt lat="37.9001783" lon="15.2752233"><ele>400.0</ele><time>2026-04-24T19:52:14.554Z</time></trkpt><trkpt lat="37.9002667" lon="15.27526"><ele>400.00000000000006</ele><time>2026-04-24T19:52:15.554Z</time></trkpt><trkpt lat="37.9003533" lon="15.2753117"><ele>400.0</ele><time>2026-04-24T19:52:16.554Z</time></trkpt><trkpt lat="37.900435" lon="15.27536"><ele>399.00000000000006</ele><time>2026-04-24T19:52:17.554Z</time></trkpt><trkpt lat="37.9005117" lon="15.2753983"><ele>398.0</ele><time>2026-04-24T19:52:18.555Z</time></trkpt><trkpt lat="37.9005917" lon="15.27542"><ele>397.0</ele><time>2026-04-24T19:52:19.554Z</time></trkpt><trkpt lat="37.9006617" lon="15.27542"><ele>396.0</ele><time>2026-04-24T19:52:20.555Z</time></trkpt><trkpt lat="37.9007617" lon="15.275345"><ele>395.00000000000006</ele><time>2026-04-24T19:52:22.554Z</time></trkpt><trkpt lat="37.900805" lon="15.2752717"><ele>394.0</ele><time>2026-04-24T19:52:23.554Z</time></trkpt><trkpt lat="37.900835" lon="15.2751783"><ele>394.00000000000006</ele><time>2026-04-24T19:52:24.555Z</time></trkpt><trkpt lat="37.90086" lon="15.2750733"><ele>394.0</ele><time>2026-04-24T19:52:25.554Z</time></trkpt><trkpt lat="37.900885" lon="15.2749633"><ele>394.0</ele><time>2026-04-24T19:52:26.554Z</time></trkpt><trkpt lat="37.9009117" lon="15.274855"><ele>394.0</ele><time>2026-04-24T19:52:27.555Z</time></trkpt><trkpt lat="37.900935" lon="15.274745"><ele>394.00000000000006</ele><time>2026-04-24T19:52:28.555Z</time></trkpt><trkpt lat="37.90096" lon="15.27464"><ele>394.0</ele><time>2026-04-24T19:52:29.555Z</time></trkpt><trkpt lat="37.9009817" lon="15.274535"><ele>395.83333333333337</ele><time>2026-04-24T19:52:30.554Z</time></trkpt><trkpt lat="37.9009883" lon="15.27444"><ele>397.6666666666667</ele><time>2026-04-24T19:52:31.555Z</time></trkpt><trkpt lat="37.9009933" lon="15.2743533"><ele>399.5</ele><time>2026-04-24T19:52:32.554Z</time></trkpt><trkpt lat="37.901005" lon="15.2742733"><ele>401.33333333333337</ele><time>2026-04-24T19:52:33.555Z</time></trkpt><trkpt lat="37.90102" lon="15.2741933"><ele>403.1666666666667</ele><time>2026-04-24T19:52:34.554Z</time></trkpt><trkpt lat="37.9010467" lon="15.27412"><ele>405.0</ele><time>2026-04-24T19:52:35.555Z</time></trkpt><trkpt lat="37.901125" lon="15.274"><ele>405.0</ele><time>2026-04-24T19:52:37.554Z</time></trkpt><trkpt lat="37.90123" lon="15.273935"><ele>405.0</ele><time>2026-04-24T19:52:39.554Z</time></trkpt><trkpt lat="37.9013433" lon="15.27394"><ele>405.0</ele><time>2026-04-24T19:52:41.554Z</time></trkpt><trkpt lat="37.9014183" lon="15.2739667"><ele>405.0</ele><time>2026-04-24T19:52:43.555Z</time></trkpt><trkpt lat="37.9014983" lon="15.2740317"><ele>405.0</ele><time>2026-04-24T19:56:41.555Z</time></trkpt><trkpt lat="37.9015533" lon="15.2740933"><ele>405.0</ele><time>2026-04-24T19:56:43.554Z</time></trkpt><trkpt lat="37.9016233" lon="15.2741417"><ele>405.0</ele><time>2026-04-24T19:56:45.555Z</time></trkpt><trkpt lat="37.90171" lon="15.2741983"><ele>405.0</ele><time>2026-04-24T19:56:47.554Z</time></trkpt><trkpt lat="37.9018283" lon="15.2742917"><ele>405.0</ele><time>2026-04-24T19:56:49.555Z</time></trkpt><trkpt lat="37.9018983" lon="15.274375"><ele>405.0</ele><time>2026-04-24T19:56:50.555Z</time></trkpt><trkpt lat="37.9019617" lon="15.2744683"><ele>406.8</ele><time>2026-04-24T19:56:51.555Z</time></trkpt><trkpt lat="37.9020233" lon="15.2745717"><ele>408.6</ele><time>2026-04-24T19:56:52.555Z</time></trkpt><trkpt lat="37.90209" lon="15.2746833"><ele>410.4</ele><time>2026-04-24T19:56:53.554Z</time></trkpt><trkpt lat="37.9021533" lon="15.2747933"><ele>412.2</ele><time>2026-04-24T19:56:54.555Z</time></trkpt><trkpt lat="37.90222" lon="15.2748933"><ele>414.0</ele><time>2026-04-24T19:56:55.555Z</time></trkpt><trkpt lat="37.9022917" lon="15.27499"><ele>414.0</ele><time>2026-04-24T19:56:56.555Z</time></trkpt><trkpt lat="37.9023683" lon="15.2750783"><ele>414.0</ele><time>2026-04-24T19:56:57.554Z</time></trkpt><trkpt lat="37.9024467" lon="15.2751633"><ele>414.0</ele><time>2026-04-24T19:56:58.554Z</time></trkpt><trkpt lat="37.902525" lon="15.2752383"><ele>414.0</ele><time>2026-04-24T19:56:59.555Z</time></trkpt><trkpt lat="37.9025917" lon="15.2753033"><ele>414.0</ele><time>2026-04-24T19:57:00.555Z</time></trkpt><trkpt lat="37.90265" lon="15.275365"><ele>414.3333333333333</ele><time>2026-04-24T19:57:01.555Z</time></trkpt><trkpt lat="37.9027083" lon="15.27543"><ele>414.66666666666663</ele><time>2026-04-24T19:57:02.555Z</time></trkpt><trkpt lat="37.902765" lon="15.2754917"><ele>415.0</ele><time>2026-04-24T19:57:03.555Z</time></trkpt><trkpt lat="37.902815" lon="15.2755517"><ele>415.3333333333333</ele><time>2026-04-24T19:57:04.554Z</time></trkpt><trkpt lat="37.9029033" lon="15.2756217"><ele>415.66666666666663</ele><time>2026-04-24T19:57:06.556Z</time></trkpt><trkpt lat="37.90299" lon="15.27566"><ele>416.0</ele><time>2026-04-24T19:57:09.556Z</time></trkpt><trkpt lat="37.9030683" lon="15.275685"><ele>416.0</ele><time>2026-04-24T19:57:11.556Z</time></trkpt><trkpt lat="37.9031333" lon="15.2756983"><ele>416.0</ele><time>2026-04-24T19:57:13.555Z</time></trkpt><trkpt lat="37.9032" lon="15.2756967"><ele>416.0</ele><time>2026-04-24T19:57:15.555Z</time></trkpt><trkpt lat="37.903265" lon="15.2756567"><ele>416.0</ele><time>2026-04-24T19:57:18.555Z</time></trkpt><trkpt lat="37.903315" lon="15.2755783"><ele>416.0</ele><time>2026-04-24T19:57:23.556Z</time></trkpt><trkpt lat="37.9033683" lon="15.27553"><ele>416.0</ele><time>2026-04-24T19:57:28.556Z</time></trkpt><trkpt lat="37.9034233" lon="15.2754906"><ele>416.0</ele><time>2026-04-24T19:59:44.63Z</time></trkpt><trkpt lat="37.9034267" lon="15.2755983"><ele>415.99999999999994</ele><time>2026-04-24T20:04:57.555Z</time></trkpt><trkpt lat="37.9033967" lon="15.2755017"><ele>416.0</ele><time>2026-04-24T20:08:56.557Z</time></trkpt><trkpt lat="37.90339" lon="15.2753933"><ele>416.0</ele><time>2026-04-24T20:14:22.557Z</time></trkpt><trkpt lat="37.9034217" lon="15.2755017"><ele>416.0</ele><time>2026-04-24T20:15:14.556Z</time></trkpt><trkpt lat="37.903365" lon="15.27555"><ele>415.99999999999994</ele><time>2026-04-24T20:30:44.557Z</time></trkpt><trkpt lat="37.9034233" lon="15.2754967"><ele>416.0</ele><time>2026-04-24T20:36:04.557Z</time></trkpt><trkpt lat="37.9033717" lon="15.2755533"><ele>416.0</ele><time>2026-04-24T20:37:53.557Z</time></trkpt><trkpt lat="37.9034267" lon="15.2754783"><ele>416.0</ele><time>2026-04-24T20:38:41.558Z</time></trkpt><trkpt lat="37.9034033" lon="15.2753467"><ele>416.0</ele><time>2026-04-24T20:39:02.557Z</time></trkpt><trkpt lat="37.90343" lon="15.275435"><ele>416.0</ele><time>2026-04-24T20:39:14.558Z</time></trkpt><trkpt lat="37.903425" lon="15.2755217"><ele>416.0</ele><time>2026-04-24T20:40:13.557Z</time></trkpt><trkpt lat="37.90341" lon="15.275685"><ele>416.0</ele><time>2026-04-24T20:58:47.557Z</time></trkpt><trkpt lat="37.9034667" lon="15.2758033"><ele>416.0</ele><time>2026-04-24T20:58:55.558Z</time></trkpt><trkpt lat="37.903535" lon="15.2756833"><ele>416.0</ele><time>2026-04-24T20:59:05.558Z</time></trkpt><trkpt lat="37.9034433" lon="15.2755883"><ele>416.0</ele><time>2026-04-24T21:07:11.557Z</time></trkpt><trkpt lat="37.9033983" lon="15.2754783"><ele>416.0</ele><time>2026-04-24T21:27:52.558Z</time></trkpt><trkpt lat="37.903455" lon="15.2757767"><ele>399.0</ele><time>2026-04-24T21:32:22.558Z</time></trkpt></trkseg><trkseg><trkpt lat="37.9034507" lon="15.2754779"><ele>412.0</ele><time>2026-04-24T21:52:36.646Z</time></trkpt><trkpt lat="37.903515" lon="15.2754333"><ele>412.0</ele><time>2026-04-24T21:59:33.556Z</time></trkpt><trkpt lat="37.903445" lon="15.275405"><ele>412.0</ele><time>2026-04-24T22:03:33.555Z</time></trkpt><trkpt lat="37.90345" lon="15.2754883"><ele>412.0</ele><time>2026-04-24T22:03:44.556Z</time></trkpt><trkpt lat="37.90335" lon="15.2755417"><ele>412.0</ele><time>2026-04-24T22:08:04.556Z</time></trkpt><trkpt lat="37.9032367" lon="15.2756217"><ele>412.8</ele><time>2026-04-24T22:10:25.555Z</time></trkpt><trkpt lat="37.90314" lon="15.275665"><ele>413.6</ele><time>2026-04-24T22:10:27.555Z</time></trkpt><trkpt lat="37.9030233" lon="15.2756633"><ele>414.40000000000003</ele><time>2026-04-24T22:10:29.556Z</time></trkpt><trkpt lat="37.9029367" lon="15.2756333"><ele>415.20000000000005</ele><time>2026-04-24T22:10:31.555Z</time></trkpt><trkpt lat="37.9028267" lon="15.2755817"><ele>416.0</ele><time>2026-04-24T22:10:33.556Z</time></trkpt><trkpt lat="37.90274" lon="15.2755033"><ele>416.0</ele><time>2026-04-24T22:10:35.557Z</time></trkpt><trkpt lat="37.9026483" lon="15.2754133"><ele>416.0</ele><time>2026-04-24T22:10:37.557Z</time></trkpt><trkpt lat="37.9025533" lon="15.2752967"><ele>416.0</ele><time>2026-04-24T22:10:39.557Z</time></trkpt><trkpt lat="37.9025067" lon="15.275235"><ele>416.0</ele><time>2026-04-24T22:10:40.557Z</time></trkpt><trkpt lat="37.9024267" lon="15.275135"><ele>416.0</ele><time>2026-04-24T22:10:42.557Z</time></trkpt><trkpt lat="37.9023367" lon="15.2750383"><ele>415.66666666666663</ele><time>2026-04-24T22:10:44.557Z</time></trkpt><trkpt lat="37.9022817" lon="15.2749783"><ele>415.3333333333333</ele><time>2026-04-24T22:10:45.557Z</time></trkpt><trkpt lat="37.9022283" lon="15.2749083"><ele>415.0</ele><time>2026-04-24T22:10:46.556Z</time></trkpt><trkpt lat="37.9021817" lon="15.2748267"><ele>414.66666666666663</ele><time>2026-04-24T22:10:47.556Z</time></trkpt><trkpt lat="37.9021383" lon="15.274745"><ele>414.3333333333333</ele><time>2026-04-24T22:10:48.557Z</time></trkpt><trkpt lat="37.9020983" lon="15.2746683"><ele>414.0</ele><time>2026-04-24T22:10:49.556Z</time></trkpt><trkpt lat="37.90202" lon="15.2745367"><ele>412.5</ele><time>2026-04-24T22:10:51.556Z</time></trkpt><trkpt lat="37.9019767" lon="15.274465"><ele>411.0</ele><time>2026-04-24T22:10:52.557Z</time></trkpt><trkpt lat="37.9019317" lon="15.2743833"><ele>409.5</ele><time>2026-04-24T22:10:53.557Z</time></trkpt><trkpt lat="37.90189" lon="15.274315"><ele>408.0</ele><time>2026-04-24T22:10:54.556Z</time></trkpt><trkpt lat="37.9018467" lon="15.274255"><ele>406.5</ele><time>2026-04-24T22:10:55.556Z</time></trkpt><trkpt lat="37.9017483" lon="15.2741667"><ele>405.0</ele><time>2026-04-24T22:10:57.557Z</time></trkpt><trkpt lat="37.9016433" lon="15.2740917"><ele>405.0</ele><time>2026-04-24T22:10:59.557Z</time></trkpt><trkpt lat="37.9015417" lon="15.2740417"><ele>405.0</ele><time>2026-04-24T22:11:01.557Z</time></trkpt><trkpt lat="37.9014517" lon="15.2739667"><ele>405.0</ele><time>2026-04-24T22:11:03.556Z</time></trkpt><trkpt lat="37.9013967" lon="15.2739267"><ele>405.0</ele><time>2026-04-24T22:11:04.557Z</time></trkpt><trkpt lat="37.9013367" lon="15.27389"><ele>405.0</ele><time>2026-04-24T22:11:05.557Z</time></trkpt><trkpt lat="37.9012183" lon="15.2738667"><ele>405.0</ele><time>2026-04-24T22:11:07.557Z</time></trkpt><trkpt lat="37.901115" lon="15.27393"><ele>405.0</ele><time>2026-04-24T22:11:09.557Z</time></trkpt><trkpt lat="37.90107" lon="15.2739967"><ele>405.0</ele><time>2026-04-24T22:11:10.556Z</time></trkpt><trkpt lat="37.9010333" lon="15.2740767"><ele>405.0</ele><time>2026-04-24T22:11:11.557Z</time></trkpt><trkpt lat="37.90101" lon="15.2741567"><ele>405.0</ele><time>2026-04-24T22:11:12.556Z</time></trkpt><trkpt lat="37.9009933" lon="15.2742417"><ele>405.0</ele><time>2026-04-24T22:11:13.556Z</time></trkpt><trkpt lat="37.90098" lon="15.2743417"><ele>405.0</ele><time>2026-04-24T22:11:14.556Z</time></trkpt><trkpt lat="37.90097" lon="15.27444"><ele>405.0</ele><time>2026-04-24T22:11:15.556Z</time></trkpt><trkpt lat="37.900965" lon="15.2745317"><ele>405.0</ele><time>2026-04-24T22:11:16.557Z</time></trkpt><trkpt lat="37.9009567" lon="15.2746267"><ele>405.0</ele><time>2026-04-24T22:11:17.557Z</time></trkpt><trkpt lat="37.9009367" lon="15.2747217"><ele>405.0</ele><time>2026-04-24T22:11:18.556Z</time></trkpt><trkpt lat="37.9009133" lon="15.2748233"><ele>405.0</ele><time>2026-04-24T22:11:19.557Z</time></trkpt><trkpt lat="37.900885" lon="15.2749167"><ele>403.1666666666667</ele><time>2026-04-24T22:11:20.557Z</time></trkpt><trkpt lat="37.90086" lon="15.2750133"><ele>401.33333333333337</ele><time>2026-04-24T22:11:21.557Z</time></trkpt><trkpt lat="37.9008367" lon="15.2751183"><ele>399.5</ele><time>2026-04-24T22:11:22.556Z</time></trkpt><trkpt lat="37.90081" lon="15.2752067"><ele>397.6666666666667</ele><time>2026-04-24T22:11:23.557Z</time></trkpt><trkpt lat="37.9007667" lon="15.2752833"><ele>395.83333333333337</ele><time>2026-04-24T22:11:24.556Z</time></trkpt><trkpt lat="37.90071" lon="15.2753333"><ele>394.0</ele><time>2026-04-24T22:11:25.557Z</time></trkpt><trkpt lat="37.9006433" lon="15.2753667"><ele>394.0</ele><time>2026-04-24T22:11:26.557Z</time></trkpt><trkpt lat="37.9005683" lon="15.2753683"><ele>394.0</ele><time>2026-04-24T22:11:27.557Z</time></trkpt><trkpt lat="37.900485" lon="15.2753383"><ele>394.0</ele><time>2026-04-24T22:11:28.556Z</time></trkpt><trkpt lat="37.9003983" lon="15.2752967"><ele>394.0</ele><time>2026-04-24T22:11:29.557Z</time></trkpt><trkpt lat="37.9003067" lon="15.2752517"><ele>394.0</ele><time>2026-04-24T22:11:30.556Z</time></trkpt><trkpt lat="37.90021" lon="15.2752117"><ele>394.00000000000006</ele><time>2026-04-24T22:11:31.556Z</time></trkpt><trkpt lat="37.9001167" lon="15.27518"><ele>394.0</ele><time>2026-04-24T22:11:32.556Z</time></trkpt><trkpt lat="37.90003" lon="15.2751533"><ele>394.0</ele><time>2026-04-24T22:11:33.557Z</time></trkpt><trkpt lat="37.8999583" lon="15.2751267"><ele>394.0</ele><time>2026-04-24T22:11:34.556Z</time></trkpt><trkpt lat="37.899895" lon="15.275105"><ele>394.00000000000006</ele><time>2026-04-24T22:11:35.557Z</time></trkpt><trkpt lat="37.8997917" lon="15.2751083"><ele>394.0</ele><time>2026-04-24T22:11:37.557Z</time></trkpt><trkpt lat="37.8997117" lon="15.2751933"><ele>395.2</ele><time>2026-04-24T22:11:39.557Z</time></trkpt><trkpt lat="37.8996883" lon="15.2752867"><ele>396.4</ele><time>2026-04-24T22:11:40.556Z</time></trkpt><trkpt lat="37.8996833" lon="15.2753967"><ele>397.6</ele><time>2026-04-24T22:11:41.556Z</time></trkpt><trkpt lat="37.8996967" lon="15.275515"><ele>398.8</ele><time>2026-04-24T22:11:42.557Z</time></trkpt><trkpt lat="37.8997167" lon="15.2756467"><ele>400.0</ele><time>2026-04-24T22:11:43.556Z</time></trkpt><trkpt lat="37.89973" lon="15.2757733"><ele>396.8571428571429</ele><time>2026-04-24T22:11:44.556Z</time></trkpt><trkpt lat="37.8997567" lon="15.2758767"><ele>393.7142857142857</ele><time>2026-04-24T22:11:45.557Z</time></trkpt><trkpt lat="37.89979" lon="15.2759617"><ele>390.57142857142856</ele><time>2026-04-24T22:11:46.556Z</time></trkpt><trkpt lat="37.89983" lon="15.27603"><ele>387.42857142857144</ele><time>2026-04-24T22:11:47.557Z</time></trkpt><trkpt lat="37.8998517" lon="15.2761067"><ele>384.2857142857143</ele><time>2026-04-24T22:11:48.556Z</time></trkpt><trkpt lat="37.8998533" lon="15.2761917"><ele>381.14285714285717</ele><time>2026-04-24T22:11:49.556Z</time></trkpt><trkpt lat="37.8998417" lon="15.2762867"><ele>378.0</ele><time>2026-04-24T22:11:50.557Z</time></trkpt><trkpt lat="37.8998033" lon="15.27639"><ele>374.5</ele><time>2026-04-24T22:11:51.557Z</time></trkpt><trkpt lat="37.8997433" lon="15.2765067"><ele>371.0</ele><time>2026-04-24T22:11:52.556Z</time></trkpt><trkpt lat="37.8996717" lon="15.276635"><ele>367.5</ele><time>2026-04-24T22:11:53.556Z</time></trkpt><trkpt lat="37.8995933" lon="15.2767717"><ele>364.0</ele><time>2026-04-24T22:11:54.556Z</time></trkpt><trkpt lat="37.899525" lon="15.2769"><ele>364.0</ele><time>2026-04-24T22:11:55.556Z</time></trkpt><trkpt lat="37.8994667" lon="15.2770117"><ele>364.0</ele><time>2026-04-24T22:11:56.557Z</time></trkpt><trkpt lat="37.899415" lon="15.2770967"><ele>364.0</ele><time>2026-04-24T22:11:57.557Z</time></trkpt><trkpt lat="37.8993667" lon="15.2771633"><ele>364.0</ele><time>2026-04-24T22:11:58.556Z</time></trkpt><trkpt lat="37.8993167" lon="15.2772217"><ele>364.0</ele><time>2026-04-24T22:11:59.557Z</time></trkpt><trkpt lat="37.89925" lon="15.2773183"><ele>364.0</ele><time>2026-04-24T22:12:01.557Z</time></trkpt><trkpt lat="37.89923" lon="15.2774383"><ele>364.0</ele><time>2026-04-24T22:12:03.556Z</time></trkpt><trkpt lat="37.8992917" lon="15.2775333"><ele>364.0</ele><time>2026-04-24T22:12:05.556Z</time></trkpt><trkpt lat="37.899385" lon="15.2775033"><ele>364.0</ele><time>2026-04-24T22:12:07.557Z</time></trkpt><trkpt lat="37.8994283" lon="15.2774283"><ele>364.0</ele><time>2026-04-24T22:12:08.557Z</time></trkpt><trkpt lat="37.899465" lon="15.2773283"><ele>364.0</ele><time>2026-04-24T22:12:09.557Z</time></trkpt><trkpt lat="37.899515" lon="15.2772283"><ele>364.0</ele><time>2026-04-24T22:12:10.557Z</time></trkpt><trkpt lat="37.8995767" lon="15.2771267"><ele>364.0</ele><time>2026-04-24T22:12:11.556Z</time></trkpt><trkpt lat="37.8996417" lon="15.27704"><ele>364.0</ele><time>2026-04-24T22:12:12.557Z</time></trkpt><trkpt lat="37.8997067" lon="15.27696"><ele>364.0</ele><time>2026-04-24T22:12:13.557Z</time></trkpt><trkpt lat="37.8997667" lon="15.2768783"><ele>364.0</ele><time>2026-04-24T22:12:14.556Z</time></trkpt><trkpt lat="37.8998333" lon="15.2767833"><ele>364.0</ele><time>2026-04-24T22:12:15.556Z</time></trkpt><trkpt lat="37.8998933" lon="15.2767"><ele>364.0</ele><time>2026-04-24T22:12:16.557Z</time></trkpt><trkpt lat="37.8999517" lon="15.2766233"><ele>364.0</ele><time>2026-04-24T22:12:17.557Z</time></trkpt><trkpt lat="37.9000067" lon="15.276555"><ele>364.0</ele><time>2026-04-24T22:12:18.557Z</time></trkpt><trkpt lat="37.9000767" lon="15.2764517"><ele>364.0</ele><time>2026-04-24T22:12:20.557Z</time></trkpt><trkpt lat="37.9001283" lon="15.2763683"><ele>364.0</ele><time>2026-04-24T22:12:22.556Z</time></trkpt><trkpt lat="37.9001767" lon="15.2762817"><ele>364.0</ele><time>2026-04-24T22:12:24.557Z</time></trkpt><trkpt lat="37.90024" lon="15.276275"><ele>364.0</ele><time>2026-04-24T22:12:26.557Z</time></trkpt><trkpt lat="37.9002533" lon="15.2763833"><ele>364.0</ele><time>2026-04-24T22:12:28.557Z</time></trkpt><trkpt lat="37.9002183" lon="15.2764583"><ele>364.0</ele><time>2026-04-24T22:12:29.557Z</time></trkpt><trkpt lat="37.9001567" lon="15.27654"><ele>364.0</ele><time>2026-04-24T22:12:30.557Z</time></trkpt><trkpt lat="37.9000867" lon="15.2766317"><ele>364.0</ele><time>2026-04-24T22:12:31.557Z</time></trkpt><trkpt lat="37.9000233" lon="15.2767233"><ele>364.0</ele><time>2026-04-24T22:12:32.556Z</time></trkpt><trkpt lat="37.8999783" lon="15.276825"><ele>364.0</ele><time>2026-04-24T22:12:33.557Z</time></trkpt><trkpt lat="37.899955" lon="15.2769217"><ele>364.0</ele><time>2026-04-24T22:12:34.556Z</time></trkpt><trkpt lat="37.899935" lon="15.27703"><ele>364.0</ele><time>2026-04-24T22:12:35.557Z</time></trkpt><trkpt lat="37.8999117" lon="15.2771467"><ele>364.0</ele><time>2026-04-24T22:12:36.556Z</time></trkpt><trkpt lat="37.89988" lon="15.2772583"><ele>364.0</ele><time>2026-04-24T22:12:37.556Z</time></trkpt><trkpt lat="37.8998317" lon="15.277375"><ele>361.16666666666663</ele><time>2026-04-24T22:12:38.557Z</time></trkpt><trkpt lat="37.8997683" lon="15.27748"><ele>358.3333333333333</ele><time>2026-04-24T22:12:39.556Z</time></trkpt><trkpt lat="37.8996967" lon="15.2775667"><ele>355.5</ele><time>2026-04-24T22:12:40.557Z</time></trkpt><trkpt lat="37.8996417" lon="15.277625"><ele>352.6666666666667</ele><time>2026-04-24T22:12:41.556Z</time></trkpt><trkpt lat="37.8995967" lon="15.2776833"><ele>349.83333333333337</ele><time>2026-04-24T22:12:42.556Z</time></trkpt><trkpt lat="37.89956" lon="15.2778"><ele>347.0</ele><time>2026-04-24T22:12:44.557Z</time></trkpt><trkpt lat="37.89959" lon="15.2778967"><ele>347.0</ele><time>2026-04-24T22:12:46.556Z</time></trkpt><trkpt lat="37.899685" lon="15.2779017"><ele>347.0</ele><time>2026-04-24T22:12:48.557Z</time></trkpt><trkpt lat="37.8997917" lon="15.2777817"><ele>347.0</ele><time>2026-04-24T22:12:50.557Z</time></trkpt><trkpt lat="37.8998617" lon="15.277705"><ele>347.0</ele><time>2026-04-24T22:12:51.556Z</time></trkpt><trkpt lat="37.899935" lon="15.2776317"><ele>347.0</ele><time>2026-04-24T22:12:52.557Z</time></trkpt><trkpt lat="37.9000033" lon="15.277555"><ele>347.0</ele><time>2026-04-24T22:12:53.557Z</time></trkpt><trkpt lat="37.9000617" lon="15.27747"><ele>347.0</ele><time>2026-04-24T22:12:54.557Z</time></trkpt><trkpt lat="37.9001033" lon="15.27738"><ele>347.0</ele><time>2026-04-24T22:12:55.556Z</time></trkpt><trkpt lat="37.90013" lon="15.277295"><ele>347.0</ele><time>2026-04-24T22:12:56.557Z</time></trkpt><trkpt lat="37.9001683" lon="15.27718"><ele>347.0</ele><time>2026-04-24T22:12:58.557Z</time></trkpt><trkpt lat="37.900235" lon="15.2771433"><ele>347.0</ele><time>2026-04-24T22:13:00.557Z</time></trkpt><trkpt lat="37.9002833" lon="15.2772283"><ele>347.0</ele><time>2026-04-24T22:13:02.556Z</time></trkpt><trkpt lat="37.900245" lon="15.2773917"><ele>347.0</ele><time>2026-04-24T22:13:04.557Z</time></trkpt><trkpt lat="37.9002017" lon="15.27749"><ele>347.0</ele><time>2026-04-24T22:13:05.556Z</time></trkpt><trkpt lat="37.9001417" lon="15.2775933"><ele>347.0</ele><time>2026-04-24T22:13:06.556Z</time></trkpt><trkpt lat="37.9000817" lon="15.2776933"><ele>347.0</ele><time>2026-04-24T22:13:07.556Z</time></trkpt><trkpt lat="37.9000283" lon="15.2777933"><ele>347.0</ele><time>2026-04-24T22:13:08.556Z</time></trkpt><trkpt lat="37.8999883" lon="15.2778917"><ele>347.0</ele><time>2026-04-24T22:13:09.557Z</time></trkpt><trkpt lat="37.899955" lon="15.2779933"><ele>347.0</ele><time>2026-04-24T22:13:10.556Z</time></trkpt><trkpt lat="37.8999233" lon="15.2780967"><ele>347.0</ele><time>2026-04-24T22:13:11.556Z</time></trkpt><trkpt lat="37.8998867" lon="15.2782"><ele>347.0</ele><time>2026-04-24T22:13:12.557Z</time></trkpt><trkpt lat="37.89983" lon="15.2782933"><ele>347.0</ele><time>2026-04-24T22:13:13.557Z</time></trkpt><trkpt lat="37.8997567" lon="15.27837"><ele>345.1666666666667</ele><time>2026-04-24T22:13:14.557Z</time></trkpt><trkpt lat="37.8996667" lon="15.2784217"><ele>343.33333333333337</ele><time>2026-04-24T22:13:15.557Z</time></trkpt><trkpt lat="37.8995717" lon="15.2784533"><ele>341.5</ele><time>2026-04-24T22:13:16.557Z</time></trkpt><trkpt lat="37.899485" lon="15.2784667"><ele>339.6666666666667</ele><time>2026-04-24T22:13:17.556Z</time></trkpt><trkpt lat="37.8994033" lon="15.27847"><ele>337.8333333333333</ele><time>2026-04-24T22:13:18.557Z</time></trkpt><trkpt lat="37.8993217" lon="15.2784567"><ele>336.0</ele><time>2026-04-24T22:13:19.557Z</time></trkpt><trkpt lat="37.8992367" lon="15.2784333"><ele>336.0</ele><time>2026-04-24T22:13:20.556Z</time></trkpt><trkpt lat="37.89916" lon="15.2784033"><ele>336.0</ele><time>2026-04-24T22:13:21.556Z</time></trkpt><trkpt lat="37.8990917" lon="15.2783783"><ele>336.0</ele><time>2026-04-24T22:13:22.557Z</time></trkpt><trkpt lat="37.8990267" lon="15.2783667"><ele>336.0</ele><time>2026-04-24T22:13:23.556Z</time></trkpt><trkpt lat="37.8988967" lon="15.27839"><ele>336.0</ele><time>2026-04-24T22:13:25.557Z</time></trkpt><trkpt lat="37.8988383" lon="15.2784217"><ele>336.0</ele><time>2026-04-24T22:13:26.557Z</time></trkpt><trkpt lat="37.8987467" lon="15.2784933"><ele>336.0</ele><time>2026-04-24T22:13:28.557Z</time></trkpt><trkpt lat="37.8987183" lon="15.2785967"><ele>336.0</ele><time>2026-04-24T22:13:30.557Z</time></trkpt><trkpt lat="37.8987767" lon="15.2786633"><ele>336.0</ele><time>2026-04-24T22:13:32.557Z</time></trkpt><trkpt lat="37.8988767" lon="15.2786333"><ele>336.0</ele><time>2026-04-24T22:13:34.557Z</time></trkpt><trkpt lat="37.8989333" lon="15.278595"><ele>336.0</ele><time>2026-04-24T22:13:35.557Z</time></trkpt><trkpt lat="37.8990417" lon="15.27858"><ele>336.0</ele><time>2026-04-24T22:13:37.557Z</time></trkpt><trkpt lat="37.8991117" lon="15.2786117"><ele>336.0</ele><time>2026-04-24T22:13:38.556Z</time></trkpt><trkpt lat="37.8991967" lon="15.2786567"><ele>336.0</ele><time>2026-04-24T22:13:39.557Z</time></trkpt><trkpt lat="37.8992983" lon="15.2786967"><ele>336.0</ele><time>2026-04-24T22:13:40.557Z</time></trkpt><trkpt lat="37.8994017" lon="15.27873"><ele>336.0</ele><time>2026-04-24T22:13:41.556Z</time></trkpt><trkpt lat="37.8995117" lon="15.2787533"><ele>336.0</ele><time>2026-04-24T22:13:42.557Z</time></trkpt><trkpt lat="37.8996083" lon="15.278755"><ele>333.6</ele><time>2026-04-24T22:13:43.557Z</time></trkpt><trkpt lat="37.8997033" lon="15.2787383"><ele>331.20000000000005</ele><time>2026-04-24T22:13:44.557Z</time></trkpt><trkpt lat="37.8997933" lon="15.278705"><ele>328.79999999999995</ele><time>2026-04-24T22:13:45.556Z</time></trkpt><trkpt lat="37.8998833" lon="15.2786617"><ele>326.4</ele><time>2026-04-24T22:13:46.556Z</time></trkpt><trkpt lat="37.8999683" lon="15.278615"><ele>324.0</ele><time>2026-04-24T22:13:47.556Z</time></trkpt><trkpt lat="37.9000483" lon="15.278555"><ele>323.6666666666667</ele><time>2026-04-24T22:13:48.557Z</time></trkpt><trkpt lat="37.9001167" lon="15.2784767"><ele>323.3333333333333</ele><time>2026-04-24T22:13:49.557Z</time></trkpt><trkpt lat="37.9001833" lon="15.27839"><ele>323.0</ele><time>2026-04-24T22:13:50.557Z</time></trkpt><trkpt lat="37.900245" lon="15.2783033"><ele>322.66666666666663</ele><time>2026-04-24T22:13:51.557Z</time></trkpt><trkpt lat="37.9003033" lon="15.2782317"><ele>322.3333333333333</ele><time>2026-04-24T22:13:52.557Z</time></trkpt><trkpt lat="37.9003633" lon="15.278165"><ele>322.0</ele><time>2026-04-24T22:13:53.556Z</time></trkpt><trkpt lat="37.9004283" lon="15.2781133"><ele>322.0</ele><time>2026-04-24T22:13:54.557Z</time></trkpt><trkpt lat="37.90049" lon="15.2780667"><ele>322.0</ele><time>2026-04-24T22:13:55.557Z</time></trkpt><trkpt lat="37.9005517" lon="15.2780333"><ele>322.0</ele><time>2026-04-24T22:13:56.556Z</time></trkpt><trkpt lat="37.9006533" lon="15.2780133"><ele>322.0</ele><time>2026-04-24T22:13:58.557Z</time></trkpt><trkpt lat="37.90071" lon="15.2781017"><ele>322.0</ele><time>2026-04-24T22:14:00.557Z</time></trkpt><trkpt lat="37.9007233" lon="15.2782133"><ele>322.0</ele><time>2026-04-24T22:14:01.557Z</time></trkpt><trkpt lat="37.9007317" lon="15.27834"><ele>322.0</ele><time>2026-04-24T22:14:02.557Z</time></trkpt><trkpt lat="37.9007467" lon="15.2784617"><ele>322.0</ele><time>2026-04-24T22:14:03.557Z</time></trkpt><trkpt lat="37.9007667" lon="15.2785817"><ele>322.0</ele><time>2026-04-24T22:14:04.557Z</time></trkpt><trkpt lat="37.9007883" lon="15.2786833"><ele>322.0</ele><time>2026-04-24T22:14:05.557Z</time></trkpt><trkpt lat="37.9008167" lon="15.2787717"><ele>322.0</ele><time>2026-04-24T22:14:06.557Z</time></trkpt><trkpt lat="37.9008667" lon="15.2788417"><ele>322.0</ele><time>2026-04-24T22:14:07.556Z</time></trkpt><trkpt lat="37.9009367" lon="15.2788917"><ele>321.0</ele><time>2026-04-24T22:14:08.556Z</time></trkpt><trkpt lat="37.9010267" lon="15.278925"><ele>320.0</ele><time>2026-04-24T22:14:09.557Z</time></trkpt><trkpt lat="37.9011267" lon="15.2789433"><ele>319.0</ele><time>2026-04-24T22:14:10.556Z</time></trkpt><trkpt lat="37.9012333" lon="15.2789533"><ele>318.0</ele><time>2026-04-24T22:14:11.556Z</time></trkpt><trkpt lat="37.90134" lon="15.2789533"><ele>317.0</ele><time>2026-04-24T22:14:12.556Z</time></trkpt><trkpt lat="37.901435" lon="15.2789467"><ele>317.0</ele><time>2026-04-24T22:14:13.557Z</time></trkpt><trkpt lat="37.901515" lon="15.2789417"><ele>317.0</ele><time>2026-04-24T22:14:14.556Z</time></trkpt><trkpt lat="37.901595" lon="15.27894"><ele>317.0</ele><time>2026-04-24T22:14:15.557Z</time></trkpt><trkpt lat="37.90167" lon="15.27893"><ele>317.0</ele><time>2026-04-24T22:14:16.557Z</time></trkpt><trkpt lat="37.9017783" lon="15.2789233"><ele>317.0</ele><time>2026-04-24T22:14:18.557Z</time></trkpt><trkpt lat="37.901845" lon="15.27894"><ele>317.0</ele><time>2026-04-24T22:14:20.557Z</time></trkpt><trkpt lat="37.901845" lon="15.2790367"><ele>313.2</ele><time>2026-04-24T22:14:22.557Z</time></trkpt><trkpt lat="37.9017733" lon="15.2790967"><ele>309.4</ele><time>2026-04-24T22:14:24.557Z</time></trkpt><trkpt lat="37.901625" lon="15.27907"><ele>305.6</ele><time>2026-04-24T22:14:26.557Z</time></trkpt><trkpt lat="37.9015267" lon="15.2790667"><ele>301.8</ele><time>2026-04-24T22:14:27.557Z</time></trkpt><trkpt lat="37.9014183" lon="15.2790667"><ele>298.0</ele><time>2026-04-24T22:14:28.557Z</time></trkpt><trkpt lat="37.901315" lon="15.2790767"><ele>298.0</ele><time>2026-04-24T22:14:29.557Z</time></trkpt><trkpt lat="37.90122" lon="15.2790917"><ele>298.0</ele><time>2026-04-24T22:14:30.557Z</time></trkpt><trkpt lat="37.9011333" lon="15.2791067"><ele>298.0</ele><time>2026-04-24T22:14:31.557Z</time></trkpt><trkpt lat="37.90105" lon="15.2791167"><ele>298.0</ele><time>2026-04-24T22:14:32.556Z</time></trkpt><trkpt lat="37.900965" lon="15.27912"><ele>298.0</ele><time>2026-04-24T22:14:33.557Z</time></trkpt><trkpt lat="37.9008767" lon="15.27911"><ele>298.0</ele><time>2026-04-24T22:14:34.557Z</time></trkpt><trkpt lat="37.9007933" lon="15.279075"><ele>297.57142857142856</ele><time>2026-04-24T22:14:35.557Z</time></trkpt><trkpt lat="37.900715" lon="15.279025"><ele>297.1428571428571</ele><time>2026-04-24T22:14:36.557Z</time></trkpt><trkpt lat="37.90065" lon="15.2789683"><ele>296.7142857142857</ele><time>2026-04-24T22:14:37.556Z</time></trkpt><trkpt lat="37.90059" lon="15.2789367"><ele>296.2857142857143</ele><time>2026-04-24T22:14:38.557Z</time></trkpt><trkpt lat="37.90052" lon="15.2789283"><ele>295.8571428571429</ele><time>2026-04-24T22:14:39.557Z</time></trkpt><trkpt lat="37.9004567" lon="15.2789467"><ele>295.42857142857144</ele><time>2026-04-24T22:14:40.557Z</time></trkpt><trkpt lat="37.9003967" lon="15.278995"><ele>295.0</ele><time>2026-04-24T22:14:41.557Z</time></trkpt><trkpt lat="37.9003283" lon="15.27906"><ele>295.0</ele><time>2026-04-24T22:14:42.557Z</time></trkpt><trkpt lat="37.9002533" lon="15.2791383"><ele>295.0</ele><time>2026-04-24T22:14:43.557Z</time></trkpt><trkpt lat="37.9001817" lon="15.279215"><ele>295.0</ele><time>2026-04-24T22:14:44.556Z</time></trkpt><trkpt lat="37.90011" lon="15.279295"><ele>295.0</ele><time>2026-04-24T22:14:45.557Z</time></trkpt><trkpt lat="37.9000317" lon="15.2793783"><ele>295.0</ele><time>2026-04-24T22:14:46.557Z</time></trkpt><trkpt lat="37.899945" lon="15.2794567"><ele>295.0</ele><time>2026-04-24T22:14:47.557Z</time></trkpt><trkpt lat="37.8998517" lon="15.279525"><ele>295.0</ele><time>2026-04-24T22:14:48.557Z</time></trkpt><trkpt lat="37.8997483" lon="15.2795833"><ele>295.0</ele><time>2026-04-24T22:14:49.556Z</time></trkpt><trkpt lat="37.899645" lon="15.2796317"><ele>295.0</ele><time>2026-04-24T22:14:50.557Z</time></trkpt><trkpt lat="37.8995483" lon="15.2796667"><ele>295.0</ele><time>2026-04-24T22:14:51.557Z</time></trkpt><trkpt lat="37.89945" lon="15.2796867"><ele>295.0</ele><time>2026-04-24T22:14:52.556Z</time></trkpt><trkpt lat="37.8993483" lon="15.2796883"><ele>295.0</ele><time>2026-04-24T22:14:53.556Z</time></trkpt><trkpt lat="37.899235" lon="15.27968"><ele>295.0</ele><time>2026-04-24T22:14:54.557Z</time></trkpt><trkpt lat="37.899125" lon="15.279675"><ele>295.0</ele><time>2026-04-24T22:14:55.557Z</time></trkpt><trkpt lat="37.89902" lon="15.2796833"><ele>295.0</ele><time>2026-04-24T22:14:56.557Z</time></trkpt><trkpt lat="37.8989233" lon="15.27971"><ele>296.3333333333333</ele><time>2026-04-24T22:14:57.557Z</time></trkpt><trkpt lat="37.898835" lon="15.279745"><ele>297.66666666666663</ele><time>2026-04-24T22:14:58.557Z</time></trkpt><trkpt lat="37.8987517" lon="15.27979"><ele>299.0</ele><time>2026-04-24T22:14:59.556Z</time></trkpt><trkpt lat="37.8986733" lon="15.2798317"><ele>300.3333333333333</ele><time>2026-04-24T22:15:00.556Z</time></trkpt><trkpt lat="37.8985917" lon="15.2798667"><ele>301.6666666666667</ele><time>2026-04-24T22:15:01.557Z</time></trkpt><trkpt lat="37.8985133" lon="15.2799133"><ele>303.0</ele><time>2026-04-24T22:15:02.556Z</time></trkpt><trkpt lat="37.8984333" lon="15.2799817"><ele>298.0</ele><time>2026-04-24T22:15:03.557Z</time></trkpt><trkpt lat="37.89836" lon="15.2800733"><ele>293.0</ele><time>2026-04-24T22:15:04.557Z</time></trkpt><trkpt lat="37.89828" lon="15.28016"><ele>288.0</ele><time>2026-04-24T22:15:05.557Z</time></trkpt><trkpt lat="37.8982117" lon="15.2802517"><ele>283.0</ele><time>2026-04-24T22:15:06.557Z</time></trkpt><trkpt lat="37.8981433" lon="15.2803467"><ele>278.0</ele><time>2026-04-24T22:15:07.557Z</time></trkpt><trkpt lat="37.8980833" lon="15.28044"><ele>278.0</ele><time>2026-04-24T22:15:08.556Z</time></trkpt><trkpt lat="37.89802" lon="15.280535"><ele>278.0</ele><time>2026-04-24T22:15:09.556Z</time></trkpt><trkpt lat="37.8979517" lon="15.28062"><ele>278.0</ele><time>2026-04-24T22:15:10.557Z</time></trkpt><trkpt lat="37.8978767" lon="15.2807083"><ele>278.0</ele><time>2026-04-24T22:15:11.557Z</time></trkpt><trkpt lat="37.8978133" lon="15.280805"><ele>278.0</ele><time>2026-04-24T22:15:12.557Z</time></trkpt><trkpt lat="37.8977667" lon="15.2809133"><ele>274.6</ele><time>2026-04-24T22:15:13.557Z</time></trkpt><trkpt lat="37.8977317" lon="15.2810283"><ele>271.20000000000005</ele><time>2026-04-24T22:15:14.557Z</time></trkpt><trkpt lat="37.897705" lon="15.28115"><ele>267.8</ele><time>2026-04-24T22:15:15.556Z</time></trkpt><trkpt lat="37.8976733" lon="15.28127"><ele>264.40000000000003</ele><time>2026-04-24T22:15:16.556Z</time></trkpt><trkpt lat="37.8976333" lon="15.2813883"><ele>261.0</ele><time>2026-04-24T22:15:17.556Z</time></trkpt><trkpt lat="37.8975817" lon="15.2815033"><ele>260.40000000000003</ele><time>2026-04-24T22:15:18.557Z</time></trkpt><trkpt lat="37.8975167" lon="15.2816033"><ele>259.8</ele><time>2026-04-24T22:15:19.557Z</time></trkpt><trkpt lat="37.8974433" lon="15.2816833"><ele>259.20000000000005</ele><time>2026-04-24T22:15:20.556Z</time></trkpt><trkpt lat="37.8973617" lon="15.281745"><ele>258.6</ele><time>2026-04-24T22:15:21.557Z</time></trkpt><trkpt lat="37.8972667" lon="15.2817917"><ele>258.0</ele><time>2026-04-24T22:15:22.557Z</time></trkpt><trkpt lat="37.89716" lon="15.2818283"><ele>258.0</ele><time>2026-04-24T22:15:23.557Z</time></trkpt><trkpt lat="37.89705" lon="15.2818567"><ele>258.0</ele><time>2026-04-24T22:15:24.556Z</time></trkpt><trkpt lat="37.896935" lon="15.281885"><ele>258.0</ele><time>2026-04-24T22:15:25.557Z</time></trkpt><trkpt lat="37.8968283" lon="15.281905"><ele>258.0</ele><time>2026-04-24T22:15:26.556Z</time></trkpt><trkpt lat="37.8967217" lon="15.2819367"><ele>258.0</ele><time>2026-04-24T22:15:27.557Z</time></trkpt><trkpt lat="37.8966267" lon="15.2819783"><ele>259.4</ele><time>2026-04-24T22:15:28.556Z</time></trkpt><trkpt lat="37.896535" lon="15.2820283"><ele>260.8</ele><time>2026-04-24T22:15:29.557Z</time></trkpt><trkpt lat="37.8964483" lon="15.2820817"><ele>262.2</ele><time>2026-04-24T22:15:30.557Z</time></trkpt><trkpt lat="37.896355" lon="15.282115"><ele>263.6</ele><time>2026-04-24T22:15:31.557Z</time></trkpt><trkpt lat="37.8962567" lon="15.282165"><ele>265.0</ele><time>2026-04-24T22:15:32.556Z</time></trkpt><trkpt lat="37.89615" lon="15.282205"><ele>265.0</ele><time>2026-04-24T22:15:33.556Z</time></trkpt><trkpt lat="37.8960367" lon="15.2822517"><ele>265.0</ele><time>2026-04-24T22:15:34.557Z</time></trkpt><trkpt lat="37.8959167" lon="15.282295"><ele>265.0</ele><time>2026-04-24T22:15:35.556Z</time></trkpt><trkpt lat="37.8957967" lon="15.2823383"><ele>265.0</ele><time>2026-04-24T22:15:36.556Z</time></trkpt><trkpt lat="37.89568" lon="15.2823833"><ele>261.6</ele><time>2026-04-24T22:15:37.556Z</time></trkpt><trkpt lat="37.8955683" lon="15.2824367"><ele>258.2</ele><time>2026-04-24T22:15:38.556Z</time></trkpt><trkpt lat="37.895465" lon="15.2824933"><ele>254.8</ele><time>2026-04-24T22:15:39.556Z</time></trkpt><trkpt lat="37.895365" lon="15.28255"><ele>251.4</ele><time>2026-04-24T22:15:40.557Z</time></trkpt><trkpt lat="37.8952733" lon="15.2825917"><ele>248.0</ele><time>2026-04-24T22:15:41.557Z</time></trkpt><trkpt lat="37.8951817" lon="15.282635"><ele>248.00000000000003</ele><time>2026-04-24T22:15:42.556Z</time></trkpt><trkpt lat="37.8950883" lon="15.282685"><ele>248.0</ele><time>2026-04-24T22:15:43.557Z</time></trkpt><trkpt lat="37.8949917" lon="15.2827383"><ele>248.0</ele><time>2026-04-24T22:15:44.556Z</time></trkpt><trkpt lat="37.8949167" lon="15.2827967"><ele>248.0</ele><time>2026-04-24T22:15:45.557Z</time></trkpt><trkpt lat="37.8948567" lon="15.2828567"><ele>248.00000000000003</ele><time>2026-04-24T22:15:46.556Z</time></trkpt><trkpt lat="37.8948083" lon="15.28291"><ele>248.0</ele><time>2026-04-24T22:15:47.557Z</time></trkpt><trkpt lat="37.8947483" lon="15.2830367"><ele>246.83333333333334</ele><time>2026-04-24T22:15:49.557Z</time></trkpt><trkpt lat="37.8947517" lon="15.2831983"><ele>245.66666666666669</ele><time>2026-04-24T22:15:51.557Z</time></trkpt><trkpt lat="37.8947667" lon="15.2832967"><ele>244.5</ele><time>2026-04-24T22:15:52.556Z</time></trkpt><trkpt lat="37.894765" lon="15.28339"><ele>243.33333333333331</ele><time>2026-04-24T22:15:53.556Z</time></trkpt><trkpt lat="37.8947433" lon="15.2834767"><ele>242.16666666666666</ele><time>2026-04-24T22:15:54.556Z</time></trkpt><trkpt lat="37.894695" lon="15.2835717"><ele>241.0</ele><time>2026-04-24T22:15:55.557Z</time></trkpt><trkpt lat="37.89463" lon="15.2836767"><ele>241.0</ele><time>2026-04-24T22:15:56.557Z</time></trkpt><trkpt lat="37.89457" lon="15.2837967"><ele>241.0</ele><time>2026-04-24T22:15:57.557Z</time></trkpt><trkpt lat="37.8945167" lon="15.283935"><ele>241.0</ele><time>2026-04-24T22:15:58.557Z</time></trkpt><trkpt lat="37.8944633" lon="15.2840717"><ele>241.0</ele><time>2026-04-24T22:15:59.556Z</time></trkpt><trkpt lat="37.8943983" lon="15.284215"><ele>240.5</ele><time>2026-04-24T22:16:00.557Z</time></trkpt><trkpt lat="37.89433" lon="15.2843517"><ele>240.0</ele><time>2026-04-24T22:16:01.557Z</time></trkpt><trkpt lat="37.8942483" lon="15.2844817"><ele>239.5</ele><time>2026-04-24T22:16:02.556Z</time></trkpt><trkpt lat="37.8941783" lon="15.2846567"><ele>239.0</ele><time>2026-04-24T22:16:03.556Z</time></trkpt><trkpt lat="37.8940917" lon="15.2847817"><ele>251.5</ele><time>2026-04-24T22:16:04.556Z</time></trkpt><trkpt lat="37.8939983" lon="15.2848817"><ele>264.0</ele><time>2026-04-24T22:16:05.557Z</time></trkpt><trkpt lat="37.89389" lon="15.2849317"><ele>276.5</ele><time>2026-04-24T22:16:06.556Z</time></trkpt><trkpt lat="37.89379" lon="15.2850233"><ele>289.0</ele><time>2026-04-24T22:16:07.557Z</time></trkpt><trkpt lat="37.8936767" lon="15.2851"><ele>289.0</ele><time>2026-04-24T22:16:08.556Z</time></trkpt><trkpt lat="37.8935617" lon="15.28515"><ele>289.0</ele><time>2026-04-24T22:16:09.557Z</time></trkpt><trkpt lat="37.8934567" lon="15.2852333"><ele>289.0</ele><time>2026-04-24T22:16:10.556Z</time></trkpt><trkpt lat="37.8933533" lon="15.2852967"><ele>289.0</ele><time>2026-04-24T22:16:11.557Z</time></trkpt><trkpt lat="37.8932583" lon="15.2853467"><ele>274.59999999999997</ele><time>2026-04-24T22:16:12.556Z</time></trkpt><trkpt lat="37.8931483" lon="15.2853783"><ele>260.2</ele><time>2026-04-24T22:16:13.557Z</time></trkpt><trkpt lat="37.8930417" lon="15.285405"><ele>245.79999999999998</ele><time>2026-04-24T22:16:14.557Z</time></trkpt><trkpt lat="37.8929417" lon="15.2854267"><ele>231.39999999999998</ele><time>2026-04-24T22:16:15.556Z</time></trkpt><trkpt lat="37.8928317" lon="15.2854367"><ele>217.0</ele><time>2026-04-24T22:16:16.557Z</time></trkpt><trkpt lat="37.8927167" lon="15.2854433"><ele>217.0</ele><time>2026-04-24T22:16:17.557Z</time></trkpt><trkpt lat="37.8926067" lon="15.2854217"><ele>217.0</ele><time>2026-04-24T22:16:18.557Z</time></trkpt><trkpt lat="37.892495" lon="15.2853767"><ele>217.0</ele><time>2026-04-24T22:16:19.557Z</time></trkpt><trkpt lat="37.8923917" lon="15.2853333"><ele>217.0</ele><time>2026-04-24T22:16:20.557Z</time></trkpt><trkpt lat="37.8922917" lon="15.28529"><ele>217.0</ele><time>2026-04-24T22:16:21.556Z</time></trkpt><trkpt lat="37.8921933" lon="15.2852533"><ele>213.2</ele><time>2026-04-24T22:16:22.556Z</time></trkpt><trkpt lat="37.8920967" lon="15.2852167"><ele>209.39999999999998</ele><time>2026-04-24T22:16:23.557Z</time></trkpt><trkpt lat="37.8920017" lon="15.2852"><ele>205.60000000000002</ele><time>2026-04-24T22:16:24.557Z</time></trkpt><trkpt lat="37.891905" lon="15.2851883"><ele>201.8</ele><time>2026-04-24T22:16:25.557Z</time></trkpt><trkpt lat="37.8918017" lon="15.2851767"><ele>198.0</ele><time>2026-04-24T22:16:26.557Z</time></trkpt><trkpt lat="37.8917" lon="15.28518"><ele>197.25</ele><time>2026-04-24T22:16:27.556Z</time></trkpt><trkpt lat="37.891585" lon="15.2852"><ele>196.5</ele><time>2026-04-24T22:16:28.556Z</time></trkpt><trkpt lat="37.89147" lon="15.2852267"><ele>195.75</ele><time>2026-04-24T22:16:29.557Z</time></trkpt><trkpt lat="37.89134" lon="15.2852617"><ele>195.0</ele><time>2026-04-24T22:16:30.557Z</time></trkpt><trkpt lat="37.8912117" lon="15.2853033"><ele>195.0</ele><time>2026-04-24T22:16:31.556Z</time></trkpt><trkpt lat="37.8910883" lon="15.2853433"><ele>195.0</ele><time>2026-04-24T22:16:32.556Z</time></trkpt><trkpt lat="37.8909717" lon="15.2853817"><ele>195.0</ele><time>2026-04-24T22:16:33.557Z</time></trkpt><trkpt lat="37.8908583" lon="15.285425"><ele>195.0</ele><time>2026-04-24T22:16:34.556Z</time></trkpt><trkpt lat="37.8907467" lon="15.2854633"><ele>198.6</ele><time>2026-04-24T22:16:35.557Z</time></trkpt><trkpt lat="37.890645" lon="15.2855"><ele>202.2</ele><time>2026-04-24T22:16:36.557Z</time></trkpt><trkpt lat="37.8905433" lon="15.2855317"><ele>205.8</ele><time>2026-04-24T22:16:37.556Z</time></trkpt><trkpt lat="37.8904417" lon="15.2855633"><ele>209.4</ele><time>2026-04-24T22:16:38.557Z</time></trkpt><trkpt lat="37.8903433" lon="15.2855983"><ele>213.0</ele><time>2026-04-24T22:16:39.557Z</time></trkpt><trkpt lat="37.8902483" lon="15.2856383"><ele>213.0</ele><time>2026-04-24T22:16:40.557Z</time></trkpt><trkpt lat="37.890155" lon="15.28567"><ele>213.0</ele><time>2026-04-24T22:16:41.556Z</time></trkpt><trkpt lat="37.8900617" lon="15.2857117"><ele>213.0</ele><time>2026-04-24T22:16:42.557Z</time></trkpt><trkpt lat="37.8899683" lon="15.2857683"><ele>213.0</ele><time>2026-04-24T22:16:43.556Z</time></trkpt><trkpt lat="37.8898733" lon="15.2858333"><ele>213.0</ele><time>2026-04-24T22:16:44.556Z</time></trkpt><trkpt lat="37.88979" lon="15.2859133"><ele>209.60000000000002</ele><time>2026-04-24T22:16:45.556Z</time></trkpt><trkpt lat="37.889705" lon="15.2860083"><ele>206.20000000000002</ele><time>2026-04-24T22:16:46.557Z</time></trkpt><trkpt lat="37.8896233" lon="15.2861017"><ele>202.8</ele><time>2026-04-24T22:16:47.557Z</time></trkpt><trkpt lat="37.8895517" lon="15.2862"><ele>199.4</ele><time>2026-04-24T22:16:48.557Z</time></trkpt><trkpt lat="37.889475" lon="15.286295"><ele>196.0</ele><time>2026-04-24T22:16:49.557Z</time></trkpt><trkpt lat="37.8893983" lon="15.2863867"><ele>194.75</ele><time>2026-04-24T22:16:50.557Z</time></trkpt><trkpt lat="37.8893167" lon="15.28647"><ele>193.5</ele><time>2026-04-24T22:16:51.557Z</time></trkpt><trkpt lat="37.8892383" lon="15.286545"><ele>192.25</ele><time>2026-04-24T22:16:52.557Z</time></trkpt><trkpt lat="37.8890733" lon="15.2867117"><ele>191.0</ele><time>2026-04-24T22:16:54.557Z</time></trkpt><trkpt lat="37.8890033" lon="15.2868233"><ele>191.0</ele><time>2026-04-24T22:16:55.557Z</time></trkpt><trkpt lat="37.8889367" lon="15.286945"><ele>191.0</ele><time>2026-04-24T22:16:56.556Z</time></trkpt><trkpt lat="37.88888" lon="15.2870583"><ele>191.0</ele><time>2026-04-24T22:16:57.557Z</time></trkpt><trkpt lat="37.8888217" lon="15.2871567"><ele>191.0</ele><time>2026-04-24T22:16:58.557Z</time></trkpt><trkpt lat="37.888765" lon="15.2872367"><ele>191.0</ele><time>2026-04-24T22:16:59.556Z</time></trkpt><trkpt lat="37.8886983" lon="15.2873117"><ele>193.60000000000002</ele><time>2026-04-24T22:17:00.557Z</time></trkpt><trkpt lat="37.88865" lon="15.2873883"><ele>196.2</ele><time>2026-04-24T22:17:01.557Z</time></trkpt><trkpt lat="37.888625" lon="15.287485"><ele>198.8</ele><time>2026-04-24T22:17:02.556Z</time></trkpt><trkpt lat="37.8886183" lon="15.2876117"><ele>201.39999999999998</ele><time>2026-04-24T22:17:03.557Z</time></trkpt><trkpt lat="37.8886167" lon="15.28775"><ele>204.0</ele><time>2026-04-24T22:17:04.557Z</time></trkpt><trkpt lat="37.88862" lon="15.28789"><ele>204.0</ele><time>2026-04-24T22:17:05.557Z</time></trkpt><trkpt lat="37.8886167" lon="15.28803"><ele>204.0</ele><time>2026-04-24T22:17:06.556Z</time></trkpt><trkpt lat="37.88861" lon="15.2881667"><ele>204.0</ele><time>2026-04-24T22:17:07.556Z</time></trkpt><trkpt lat="37.88859" lon="15.2882983"><ele>204.0</ele><time>2026-04-24T22:17:08.556Z</time></trkpt><trkpt lat="37.8885733" lon="15.2884283"><ele>204.0</ele><time>2026-04-24T22:17:09.557Z</time></trkpt><trkpt lat="37.8885717" lon="15.2885633"><ele>204.39999999999998</ele><time>2026-04-24T22:17:10.556Z</time></trkpt><trkpt lat="37.8885817" lon="15.2886983"><ele>204.8</ele><time>2026-04-24T22:17:11.557Z</time></trkpt><trkpt lat="37.888595" lon="15.2888283"><ele>205.2</ele><time>2026-04-24T22:17:12.556Z</time></trkpt><trkpt lat="37.8886033" lon="15.28896"><ele>205.60000000000002</ele><time>2026-04-24T22:17:13.557Z</time></trkpt><trkpt lat="37.8885917" lon="15.2890833"><ele>206.0</ele><time>2026-04-24T22:17:14.556Z</time></trkpt><trkpt lat="37.8885667" lon="15.2892083"><ele>206.0</ele><time>2026-04-24T22:17:15.556Z</time></trkpt><trkpt lat="37.888545" lon="15.2893333"><ele>206.0</ele><time>2026-04-24T22:17:16.557Z</time></trkpt><trkpt lat="37.8885283" lon="15.2894583"><ele>206.0</ele><time>2026-04-24T22:17:17.557Z</time></trkpt><trkpt lat="37.8885267" lon="15.2895867"><ele>206.0</ele><time>2026-04-24T22:17:18.557Z</time></trkpt><trkpt lat="37.8885167" lon="15.28971"><ele>206.0</ele><time>2026-04-24T22:17:19.556Z</time></trkpt><trkpt lat="37.888505" lon="15.2898283"><ele>206.00000000000003</ele><time>2026-04-24T22:17:20.556Z</time></trkpt><trkpt lat="37.8884867" lon="15.2899433"><ele>206.0</ele><time>2026-04-24T22:17:21.557Z</time></trkpt><trkpt lat="37.8884517" lon="15.2900533"><ele>206.0</ele><time>2026-04-24T22:17:22.557Z</time></trkpt><trkpt lat="37.8884167" lon="15.2901517"><ele>206.0</ele><time>2026-04-24T22:17:23.556Z</time></trkpt><trkpt lat="37.8883683" lon="15.290235"><ele>206.00000000000003</ele><time>2026-04-24T22:17:24.556Z</time></trkpt><trkpt lat="37.88831" lon="15.290305"><ele>206.0</ele><time>2026-04-24T22:17:25.556Z</time></trkpt><trkpt lat="37.8882467" lon="15.2903767"><ele>200.0</ele><time>2026-04-24T22:17:26.556Z</time></trkpt><trkpt lat="37.8881883" lon="15.2904617"><ele>194.0</ele><time>2026-04-24T22:17:27.556Z</time></trkpt><trkpt lat="37.88814" lon="15.2905683"><ele>188.0</ele><time>2026-04-24T22:17:28.556Z</time></trkpt><trkpt lat="37.8880967" lon="15.2906933"><ele>182.0</ele><time>2026-04-24T22:17:29.556Z</time></trkpt><trkpt lat="37.8880567" lon="15.2908167"><ele>176.0</ele><time>2026-04-24T22:17:30.557Z</time></trkpt><trkpt lat="37.8880217" lon="15.2909467"><ele>176.0</ele><time>2026-04-24T22:17:31.556Z</time></trkpt><trkpt lat="37.88799" lon="15.291075"><ele>176.0</ele><time>2026-04-24T22:17:32.556Z</time></trkpt><trkpt lat="37.8879617" lon="15.2911967"><ele>176.0</ele><time>2026-04-24T22:17:33.557Z</time></trkpt><trkpt lat="37.8879467" lon="15.2913133"><ele>176.0</ele><time>2026-04-24T22:17:34.557Z</time></trkpt><trkpt lat="37.887945" lon="15.2914333"><ele>176.0</ele><time>2026-04-24T22:17:35.556Z</time></trkpt><trkpt lat="37.8879483" lon="15.29156"><ele>177.8</ele><time>2026-04-24T22:17:36.556Z</time></trkpt><trkpt lat="37.88796" lon="15.2916767"><ele>179.60000000000002</ele><time>2026-04-24T22:17:37.556Z</time></trkpt><trkpt lat="37.8879583" lon="15.2917883"><ele>181.4</ele><time>2026-04-24T22:17:38.557Z</time></trkpt><trkpt lat="37.887955" lon="15.2919017"><ele>183.2</ele><time>2026-04-24T22:17:39.557Z</time></trkpt><trkpt lat="37.8879383" lon="15.292015"><ele>185.0</ele><time>2026-04-24T22:17:40.556Z</time></trkpt><trkpt lat="37.887905" lon="15.2921267"><ele>185.0</ele><time>2026-04-24T22:17:41.556Z</time></trkpt><trkpt lat="37.8878667" lon="15.2922333"><ele>185.0</ele><time>2026-04-24T22:17:42.557Z</time></trkpt><trkpt lat="37.8878317" lon="15.2923267"><ele>185.0</ele><time>2026-04-24T22:17:43.556Z</time></trkpt><trkpt lat="37.887805" lon="15.2924167"><ele>185.0</ele><time>2026-04-24T22:17:44.557Z</time></trkpt><trkpt lat="37.8877967" lon="15.2925233"><ele>185.0</ele><time>2026-04-24T22:17:45.556Z</time></trkpt><trkpt lat="37.8878017" lon="15.292645"><ele>185.0</ele><time>2026-04-24T22:17:46.556Z</time></trkpt><trkpt lat="37.8878217" lon="15.2927717"><ele>184.5</ele><time>2026-04-24T22:17:47.557Z</time></trkpt><trkpt lat="37.8878417" lon="15.2929"><ele>184.0</ele><time>2026-04-24T22:17:48.556Z</time></trkpt><trkpt lat="37.8878483" lon="15.2930217"><ele>183.5</ele><time>2026-04-24T22:17:49.556Z</time></trkpt><trkpt lat="37.887845" lon="15.29314"><ele>183.0</ele><time>2026-04-24T22:17:50.557Z</time></trkpt><trkpt lat="37.887835" lon="15.2932367"><ele>182.5</ele><time>2026-04-24T22:17:51.557Z</time></trkpt><trkpt lat="37.887825" lon="15.29332"><ele>182.0</ele><time>2026-04-24T22:17:52.557Z</time></trkpt><trkpt lat="37.8877933" lon="15.2934617"><ele>179.0</ele><time>2026-04-24T22:17:54.557Z</time></trkpt><trkpt lat="37.8877233" lon="15.2935267"><ele>176.0</ele><time>2026-04-24T22:17:56.557Z</time></trkpt><trkpt lat="37.8876333" lon="15.293465"><ele>173.0</ele><time>2026-04-24T22:17:58.557Z</time></trkpt><trkpt lat="37.8875833" lon="15.2933833"><ele>170.0</ele><time>2026-04-24T22:17:59.557Z</time></trkpt><trkpt lat="37.8875367" lon="15.2932733"><ele>167.0</ele><time>2026-04-24T22:18:00.556Z</time></trkpt><trkpt lat="37.8874867" lon="15.2931583"><ele>162.6</ele><time>2026-04-24T22:18:01.556Z</time></trkpt><trkpt lat="37.88744" lon="15.2930483"><ele>158.2</ele><time>2026-04-24T22:18:02.556Z</time></trkpt><trkpt lat="37.887405" lon="15.292935"><ele>153.8</ele><time>2026-04-24T22:18:03.556Z</time></trkpt><trkpt lat="37.8873833" lon="15.292815"><ele>149.4</ele><time>2026-04-24T22:18:04.556Z</time></trkpt><trkpt lat="37.8873767" lon="15.292695"><ele>145.0</ele><time>2026-04-24T22:18:05.557Z</time></trkpt><trkpt lat="37.88737" lon="15.2925767"><ele>145.0</ele><time>2026-04-24T22:18:06.557Z</time></trkpt><trkpt lat="37.8873567" lon="15.292455"><ele>145.0</ele><time>2026-04-24T22:18:07.557Z</time></trkpt><trkpt lat="37.88733" lon="15.2923317"><ele>145.0</ele><time>2026-04-24T22:18:08.556Z</time></trkpt><trkpt lat="37.8872867" lon="15.2922167"><ele>145.0</ele><time>2026-04-24T22:18:09.557Z</time></trkpt><trkpt lat="37.88723" lon="15.2921133"><ele>145.0</ele><time>2026-04-24T22:18:10.556Z</time></trkpt><trkpt lat="37.8871783" lon="15.2920217"><ele>146.2</ele><time>2026-04-24T22:18:11.557Z</time></trkpt><trkpt lat="37.8871283" lon="15.2919317"><ele>147.4</ele><time>2026-04-24T22:18:12.556Z</time></trkpt><trkpt lat="37.88709" lon="15.29184"><ele>148.6</ele><time>2026-04-24T22:18:13.557Z</time></trkpt><trkpt lat="37.887065" lon="15.29176"><ele>149.8</ele><time>2026-04-24T22:18:14.556Z</time></trkpt><trkpt lat="37.887045" lon="15.29161"><ele>151.0</ele><time>2026-04-24T22:18:16.557Z</time></trkpt><trkpt lat="37.8870367" lon="15.2914783"><ele>151.0</ele><time>2026-04-24T22:18:18.556Z</time></trkpt><trkpt lat="37.8869933" lon="15.291405"><ele>151.0</ele><time>2026-04-24T22:18:20.556Z</time></trkpt><trkpt lat="37.88691" lon="15.2914333"><ele>151.0</ele><time>2026-04-24T22:18:22.556Z</time></trkpt><trkpt lat="37.88687" lon="15.2915833"><ele>151.0</ele><time>2026-04-24T22:18:24.557Z</time></trkpt><trkpt lat="37.88688" lon="15.2916933"><ele>151.0</ele><time>2026-04-24T22:18:25.557Z</time></trkpt><trkpt lat="37.8869017" lon="15.291815"><ele>151.0</ele><time>2026-04-24T22:18:26.556Z</time></trkpt><trkpt lat="37.8869217" lon="15.2919383"><ele>151.0</ele><time>2026-04-24T22:18:27.557Z</time></trkpt><trkpt lat="37.8869483" lon="15.2920483"><ele>151.0</ele><time>2026-04-24T22:18:28.556Z</time></trkpt><trkpt lat="37.88699" lon="15.29215"><ele>151.0</ele><time>2026-04-24T22:18:29.556Z</time></trkpt><trkpt lat="37.88703" lon="15.2922333"><ele>151.0</ele><time>2026-04-24T22:18:30.556Z</time></trkpt><trkpt lat="37.8870617" lon="15.292315"><ele>151.0</ele><time>2026-04-24T22:18:31.557Z</time></trkpt><trkpt lat="37.8870833" lon="15.2924033"><ele>150.0</ele><time>2026-04-24T22:18:32.556Z</time></trkpt><trkpt lat="37.8870867" lon="15.2925"><ele>149.0</ele><time>2026-04-24T22:18:33.557Z</time></trkpt><trkpt lat="37.8870733" lon="15.29259"><ele>148.0</ele><time>2026-04-24T22:18:34.557Z</time></trkpt><trkpt lat="37.8870383" lon="15.29268"><ele>147.0</ele><time>2026-04-24T22:18:35.556Z</time></trkpt><trkpt lat="37.8869817" lon="15.29277"><ele>146.0</ele><time>2026-04-24T22:18:36.556Z</time></trkpt><trkpt lat="37.8869067" lon="15.2928533"><ele>145.0</ele><time>2026-04-24T22:18:37.557Z</time></trkpt><trkpt lat="37.8868383" lon="15.29294"><ele>145.0</ele><time>2026-04-24T22:18:38.557Z</time></trkpt><trkpt lat="37.88679" lon="15.2930433"><ele>145.0</ele><time>2026-04-24T22:18:39.556Z</time></trkpt><trkpt lat="37.886755" lon="15.293165"><ele>145.0</ele><time>2026-04-24T22:18:40.556Z</time></trkpt><trkpt lat="37.8867317" lon="15.2933"><ele>145.0</ele><time>2026-04-24T22:18:41.557Z</time></trkpt><trkpt lat="37.88672" lon="15.29344"><ele>145.0</ele><time>2026-04-24T22:18:42.557Z</time></trkpt><trkpt lat="37.8867133" lon="15.29357"><ele>140.33333333333334</ele><time>2026-04-24T22:18:43.557Z</time></trkpt><trkpt lat="37.8867067" lon="15.2936767"><ele>135.66666666666669</ele><time>2026-04-24T22:18:44.557Z</time></trkpt><trkpt lat="37.8866983" lon="15.2937633"><ele>131.0</ele><time>2026-04-24T22:18:45.556Z</time></trkpt><trkpt lat="37.8866817" lon="15.293855"><ele>126.33333333333334</ele><time>2026-04-24T22:18:46.556Z</time></trkpt><trkpt lat="37.88666" lon="15.2939367"><ele>121.66666666666667</ele><time>2026-04-24T22:18:47.556Z</time></trkpt><trkpt lat="37.88666" lon="15.294075"><ele>117.0</ele><time>2026-04-24T22:18:49.556Z</time></trkpt><trkpt lat="37.886705" lon="15.2941317"><ele>118.6</ele><time>2026-04-24T22:18:50.556Z</time></trkpt><trkpt lat="37.8867783" lon="15.2941717"><ele>120.19999999999999</ele><time>2026-04-24T22:18:51.556Z</time></trkpt><trkpt lat="37.886875" lon="15.2941967"><ele>121.8</ele><time>2026-04-24T22:18:52.557Z</time></trkpt><trkpt lat="37.88698" lon="15.29421"><ele>123.4</ele><time>2026-04-24T22:18:53.557Z</time></trkpt><trkpt lat="37.88709" lon="15.294225"><ele>125.0</ele><time>2026-04-24T22:18:54.557Z</time></trkpt><trkpt lat="37.8871933" lon="15.2942483"><ele>125.0</ele><time>2026-04-24T22:18:55.556Z</time></trkpt><trkpt lat="37.88729" lon="15.294285"><ele>125.0</ele><time>2026-04-24T22:18:56.557Z</time></trkpt><trkpt lat="37.8873867" lon="15.2943283"><ele>125.0</ele><time>2026-04-24T22:18:57.557Z</time></trkpt><trkpt lat="37.8874833" lon="15.2943617"><ele>125.0</ele><time>2026-04-24T22:18:58.556Z</time></trkpt><trkpt lat="37.8875867" lon="15.2943817"><ele>125.0</ele><time>2026-04-24T22:18:59.556Z</time></trkpt><trkpt lat="37.8876833" lon="15.2943883"><ele>126.6</ele><time>2026-04-24T22:19:00.557Z</time></trkpt><trkpt lat="37.8877767" lon="15.2943917"><ele>128.2</ele><time>2026-04-24T22:19:01.556Z</time></trkpt><trkpt lat="37.887865" lon="15.2944033"><ele>129.8</ele><time>2026-04-24T22:19:02.557Z</time></trkpt><trkpt lat="37.887955" lon="15.2944317"><ele>131.4</ele><time>2026-04-24T22:19:03.556Z</time></trkpt><trkpt lat="37.8880417" lon="15.2944617"><ele>133.0</ele><time>2026-04-24T22:19:04.557Z</time></trkpt><trkpt lat="37.8881267" lon="15.294495"><ele>133.0</ele><time>2026-04-24T22:19:05.557Z</time></trkpt><trkpt lat="37.8882033" lon="15.294525"><ele>133.0</ele><time>2026-04-24T22:19:06.557Z</time></trkpt><trkpt lat="37.8882667" lon="15.2945483"><ele>133.0</ele><time>2026-04-24T22:19:07.556Z</time></trkpt><trkpt lat="37.8883467" lon="15.2946"><ele>133.0</ele><time>2026-04-24T22:19:09.557Z</time></trkpt><trkpt lat="37.8883667" lon="15.2946883"><ele>133.0</ele><time>2026-04-24T22:19:11.557Z</time></trkpt><trkpt lat="37.88829" lon="15.29476"><ele>133.0</ele><time>2026-04-24T22:19:13.557Z</time></trkpt><trkpt lat="37.8882217" lon="15.2947567"><ele>133.0</ele><time>2026-04-24T22:19:14.557Z</time></trkpt><trkpt lat="37.88814" lon="15.2947367"><ele>133.0</ele><time>2026-04-24T22:19:15.557Z</time></trkpt><trkpt lat="37.8880467" lon="15.294705"><ele>133.0</ele><time>2026-04-24T22:19:16.557Z</time></trkpt><trkpt lat="37.8879417" lon="15.29467"><ele>133.0</ele><time>2026-04-24T22:19:17.557Z</time></trkpt><trkpt lat="37.8878333" lon="15.2946483"><ele>133.0</ele><time>2026-04-24T22:19:18.557Z</time></trkpt><trkpt lat="37.8877233" lon="15.2946283"><ele>133.0</ele><time>2026-04-24T22:19:19.556Z</time></trkpt><trkpt lat="37.887615" lon="15.294615"><ele>133.0</ele><time>2026-04-24T22:19:20.557Z</time></trkpt><trkpt lat="37.8875017" lon="15.2945983"><ele>133.0</ele><time>2026-04-24T22:19:21.556Z</time></trkpt><trkpt lat="37.8873867" lon="15.294585"><ele>133.0</ele><time>2026-04-24T22:19:22.557Z</time></trkpt><trkpt lat="37.8872717" lon="15.29457"><ele>131.4</ele><time>2026-04-24T22:19:23.556Z</time></trkpt><trkpt lat="37.88716" lon="15.2945617"><ele>129.8</ele><time>2026-04-24T22:19:24.557Z</time></trkpt><trkpt lat="37.8870567" lon="15.2945617"><ele>128.2</ele><time>2026-04-24T22:19:25.557Z</time></trkpt><trkpt lat="37.88695" lon="15.294575"><ele>126.6</ele><time>2026-04-24T22:19:26.557Z</time></trkpt><trkpt lat="37.88685" lon="15.2946017"><ele>125.0</ele><time>2026-04-24T22:19:27.556Z</time></trkpt><trkpt lat="37.886755" lon="15.29464"><ele>122.2</ele><time>2026-04-24T22:19:28.557Z</time></trkpt><trkpt lat="37.8866617" lon="15.2946867"><ele>119.4</ele><time>2026-04-24T22:19:29.557Z</time></trkpt><trkpt lat="37.8865717" lon="15.2947483"><ele>116.6</ele><time>2026-04-24T22:19:30.557Z</time></trkpt><trkpt lat="37.88649" lon="15.2948117"><ele>113.8</ele><time>2026-04-24T22:19:31.557Z</time></trkpt><trkpt lat="37.88641" lon="15.294875"><ele>111.0</ele><time>2026-04-24T22:19:32.557Z</time></trkpt><trkpt lat="37.8863383" lon="15.2949367"><ele>106.0</ele><time>2026-04-24T22:19:33.556Z</time></trkpt><trkpt lat="37.8862633" lon="15.2949817"><ele>101.0</ele><time>2026-04-24T22:19:34.556Z</time></trkpt><trkpt lat="37.8861883" lon="15.2950083"><ele>96.0</ele><time>2026-04-24T22:19:35.557Z</time></trkpt><trkpt lat="37.8861117" lon="15.2950167"><ele>91.0</ele><time>2026-04-24T22:19:36.557Z</time></trkpt><trkpt lat="37.886045" lon="15.2950017"><ele>86.0</ele><time>2026-04-24T22:19:37.556Z</time></trkpt><trkpt lat="37.88598" lon="15.2948983"><ele>81.0</ele><time>2026-04-24T22:19:39.557Z</time></trkpt><trkpt lat="37.8859883" lon="15.2948133"><ele>86.0</ele><time>2026-04-24T22:19:40.557Z</time></trkpt><trkpt lat="37.8860083" lon="15.294715"><ele>91.0</ele><time>2026-04-24T22:19:41.556Z</time></trkpt><trkpt lat="37.8860367" lon="15.2946183"><ele>96.0</ele><time>2026-04-24T22:19:42.556Z</time></trkpt><trkpt lat="37.88606" lon="15.294525"><ele>101.0</ele><time>2026-04-24T22:19:43.557Z</time></trkpt><trkpt lat="37.8860733" lon="15.2944383"><ele>106.0</ele><time>2026-04-24T22:19:44.556Z</time></trkpt><trkpt lat="37.8860717" lon="15.2943133"><ele>111.0</ele><time>2026-04-24T22:19:46.557Z</time></trkpt><trkpt lat="37.8860133" lon="15.29427"><ele>111.0</ele><time>2026-04-24T22:19:48.556Z</time></trkpt><trkpt lat="37.8859417" lon="15.2943383"><ele>111.0</ele><time>2026-04-24T22:19:50.557Z</time></trkpt><trkpt lat="37.885935" lon="15.2944983"><ele>111.0</ele><time>2026-04-24T22:19:52.557Z</time></trkpt><trkpt lat="37.8859067" lon="15.294665"><ele>111.0</ele><time>2026-04-24T22:19:54.556Z</time></trkpt><trkpt lat="37.8858767" lon="15.2947583"><ele>111.0</ele><time>2026-04-24T22:19:55.556Z</time></trkpt><trkpt lat="37.8858467" lon="15.29485"><ele>106.0</ele><time>2026-04-24T22:19:56.557Z</time></trkpt><trkpt lat="37.8858233" lon="15.2949317"><ele>101.0</ele><time>2026-04-24T22:19:57.557Z</time></trkpt><trkpt lat="37.88584" lon="15.2950783"><ele>96.0</ele><time>2026-04-24T22:19:59.557Z</time></trkpt><trkpt lat="37.885885" lon="15.29515"><ele>91.0</ele><time>2026-04-24T22:20:00.557Z</time></trkpt><trkpt lat="37.8859533" lon="15.2952017"><ele>86.0</ele><time>2026-04-24T22:20:01.556Z</time></trkpt><trkpt lat="37.88603" lon="15.2952467"><ele>81.0</ele><time>2026-04-24T22:20:02.557Z</time></trkpt><trkpt lat="37.8861167" lon="15.2952867"><ele>81.0</ele><time>2026-04-24T22:20:03.557Z</time></trkpt><trkpt lat="37.8862033" lon="15.2953267"><ele>81.0</ele><time>2026-04-24T22:20:04.557Z</time></trkpt><trkpt lat="37.8862817" lon="15.29536"><ele>81.0</ele><time>2026-04-24T22:20:05.557Z</time></trkpt><trkpt lat="37.88635" lon="15.2953783"><ele>81.0</ele><time>2026-04-24T22:20:06.557Z</time></trkpt><trkpt lat="37.8864183" lon="15.2953733"><ele>81.0</ele><time>2026-04-24T22:20:07.557Z</time></trkpt><trkpt lat="37.8864917" lon="15.2953317"><ele>81.0</ele><time>2026-04-24T22:20:08.557Z</time></trkpt><trkpt lat="37.88657" lon="15.29527"><ele>81.0</ele><time>2026-04-24T22:20:09.556Z</time></trkpt><trkpt lat="37.8866433" lon="15.2952017"><ele>81.0</ele><time>2026-04-24T22:20:10.557Z</time></trkpt><trkpt lat="37.8867183" lon="15.2951367"><ele>81.0</ele><time>2026-04-24T22:20:11.557Z</time></trkpt><trkpt lat="37.886785" lon="15.295085"><ele>81.0</ele><time>2026-04-24T22:20:12.556Z</time></trkpt><trkpt lat="37.8868483" lon="15.2950517"><ele>81.0</ele><time>2026-04-24T22:20:13.557Z</time></trkpt><trkpt lat="37.88698" lon="15.2950583"><ele>81.0</ele><time>2026-04-24T22:20:15.557Z</time></trkpt><trkpt lat="37.8870633" lon="15.2950917"><ele>81.0</ele><time>2026-04-24T22:20:16.557Z</time></trkpt><trkpt lat="37.8871533" lon="15.2951367"><ele>81.0</ele><time>2026-04-24T22:20:17.556Z</time></trkpt><trkpt lat="37.8872483" lon="15.29519"><ele>81.0</ele><time>2026-04-24T22:20:18.556Z</time></trkpt><trkpt lat="37.8873333" lon="15.295245"><ele>81.0</ele><time>2026-04-24T22:20:19.556Z</time></trkpt><trkpt lat="37.8874183" lon="15.2953033"><ele>81.0</ele><time>2026-04-24T22:20:20.557Z</time></trkpt><trkpt lat="37.88751" lon="15.29535"><ele>81.0</ele><time>2026-04-24T22:20:21.557Z</time></trkpt><trkpt lat="37.8875933" lon="15.2953717"><ele>81.0</ele><time>2026-04-24T22:20:22.556Z</time></trkpt><trkpt lat="37.887675" lon="15.2953683"><ele>81.0</ele><time>2026-04-24T22:20:23.557Z</time></trkpt><trkpt lat="37.8877517" lon="15.2953567"><ele>81.0</ele><time>2026-04-24T22:20:24.557Z</time></trkpt><trkpt lat="37.8878317" lon="15.2953633"><ele>81.0</ele><time>2026-04-24T22:20:25.557Z</time></trkpt><trkpt lat="37.8879233" lon="15.2953933"><ele>84.0</ele><time>2026-04-24T22:20:26.557Z</time></trkpt><trkpt lat="37.8880267" lon="15.2954417"><ele>87.0</ele><time>2026-04-24T22:20:27.556Z</time></trkpt><trkpt lat="37.8881317" lon="15.2955"><ele>90.0</ele><time>2026-04-24T22:20:28.557Z</time></trkpt><trkpt lat="37.8882367" lon="15.295555"><ele>93.0</ele><time>2026-04-24T22:20:29.557Z</time></trkpt><trkpt lat="37.8883317" lon="15.2956067"><ele>96.0</ele><time>2026-04-24T22:20:30.556Z</time></trkpt><trkpt lat="37.8884167" lon="15.2956517"><ele>92.0</ele><time>2026-04-24T22:20:31.556Z</time></trkpt><trkpt lat="37.8884867" lon="15.2957017"><ele>88.0</ele><time>2026-04-24T22:20:32.557Z</time></trkpt><trkpt lat="37.8885517" lon="15.2957533"><ele>84.0</ele><time>2026-04-24T22:20:33.556Z</time></trkpt><trkpt lat="37.8886017" lon="15.29581"><ele>80.0</ele><time>2026-04-24T22:20:34.556Z</time></trkpt><trkpt lat="37.88864" lon="15.2958817"><ele>76.0</ele><time>2026-04-24T22:20:35.557Z</time></trkpt><trkpt lat="37.8886617" lon="15.2959717"><ele>72.0</ele><time>2026-04-24T22:20:36.557Z</time></trkpt><trkpt lat="37.88867" lon="15.2960867"><ele>72.0</ele><time>2026-04-24T22:20:37.557Z</time></trkpt><trkpt lat="37.888675" lon="15.2961983"><ele>72.0</ele><time>2026-04-24T22:20:38.557Z</time></trkpt><trkpt lat="37.88868" lon="15.29629"><ele>72.0</ele><time>2026-04-24T22:20:39.557Z</time></trkpt><trkpt lat="37.8886717" lon="15.2963733"><ele>72.0</ele><time>2026-04-24T22:20:40.556Z</time></trkpt><trkpt lat="37.88864" lon="15.2964433"><ele>72.0</ele><time>2026-04-24T22:20:41.556Z</time></trkpt><trkpt lat="37.88858" lon="15.2965"><ele>72.0</ele><time>2026-04-24T22:20:42.557Z</time></trkpt><trkpt lat="37.8885" lon="15.296535"><ele>71.0</ele><time>2026-04-24T22:20:43.556Z</time></trkpt><trkpt lat="37.8884067" lon="15.296565"><ele>70.0</ele><time>2026-04-24T22:20:44.557Z</time></trkpt><trkpt lat="37.8883067" lon="15.2965967"><ele>69.0</ele><time>2026-04-24T22:20:45.556Z</time></trkpt><trkpt lat="37.8882067" lon="15.2966233"><ele>68.0</ele><time>2026-04-24T22:20:46.556Z</time></trkpt><trkpt lat="37.8881017" lon="15.2966317"><ele>67.0</ele><time>2026-04-24T22:20:47.556Z</time></trkpt><trkpt lat="37.8879933" lon="15.296625"><ele>67.0</ele><time>2026-04-24T22:20:48.557Z</time></trkpt><trkpt lat="37.8878767" lon="15.2966117"><ele>67.0</ele><time>2026-04-24T22:20:49.557Z</time></trkpt><trkpt lat="37.887755" lon="15.2965967"><ele>67.0</ele><time>2026-04-24T22:20:50.557Z</time></trkpt><trkpt lat="37.8876333" lon="15.2965817"><ele>67.0</ele><time>2026-04-24T22:20:51.556Z</time></trkpt><trkpt lat="37.8875217" lon="15.2965717"><ele>65.75</ele><time>2026-04-24T22:20:52.557Z</time></trkpt><trkpt lat="37.8874167" lon="15.2965717"><ele>64.5</ele><time>2026-04-24T22:20:53.557Z</time></trkpt><trkpt lat="37.8873167" lon="15.2965883"><ele>63.25</ele><time>2026-04-24T22:20:54.556Z</time></trkpt><trkpt lat="37.8871183" lon="15.2967033"><ele>62.0</ele><time>2026-04-24T22:20:56.557Z</time></trkpt><trkpt lat="37.8870167" lon="15.296785"><ele>62.0</ele><time>2026-04-24T22:20:57.557Z</time></trkpt><trkpt lat="37.8869233" lon="15.2968583"><ele>62.0</ele><time>2026-04-24T22:20:58.557Z</time></trkpt><trkpt lat="37.8868283" lon="15.2969283"><ele>62.0</ele><time>2026-04-24T22:20:59.557Z</time></trkpt><trkpt lat="37.8867217" lon="15.2969883"><ele>62.0</ele><time>2026-04-24T22:21:00.556Z</time></trkpt><trkpt lat="37.886605" lon="15.297035"><ele>58.5</ele><time>2026-04-24T22:21:01.556Z</time></trkpt><trkpt lat="37.88648" lon="15.2970783"><ele>55.0</ele><time>2026-04-24T22:21:02.557Z</time></trkpt><trkpt lat="37.88635" lon="15.2971233"><ele>51.5</ele><time>2026-04-24T22:21:03.557Z</time></trkpt><trkpt lat="37.8862233" lon="15.2971717"><ele>48.0</ele><time>2026-04-24T22:21:04.557Z</time></trkpt><trkpt lat="37.8861033" lon="15.2972217"><ele>47.75</ele><time>2026-04-24T22:21:05.557Z</time></trkpt><trkpt lat="37.88599" lon="15.2972667"><ele>47.5</ele><time>2026-04-24T22:21:06.556Z</time></trkpt><trkpt lat="37.88588" lon="15.2973083"><ele>47.25</ele><time>2026-04-24T22:21:07.557Z</time></trkpt><trkpt lat="37.88577" lon="15.29735"><ele>47.0</ele><time>2026-04-24T22:21:08.556Z</time></trkpt><trkpt lat="37.8856617" lon="15.29739"><ele>47.0</ele><time>2026-04-24T22:21:09.557Z</time></trkpt><trkpt lat="37.8855617" lon="15.2974183"><ele>47.0</ele><time>2026-04-24T22:21:10.557Z</time></trkpt><trkpt lat="37.885465" lon="15.2974267"><ele>47.0</ele><time>2026-04-24T22:21:11.556Z</time></trkpt><trkpt lat="37.8853617" lon="15.2974133"><ele>47.0</ele><time>2026-04-24T22:21:12.557Z</time></trkpt><trkpt lat="37.8852533" lon="15.297375"><ele>47.0</ele><time>2026-04-24T22:21:13.556Z</time></trkpt><trkpt lat="37.8851467" lon="15.2973133"><ele>44.25</ele><time>2026-04-24T22:21:14.557Z</time></trkpt><trkpt lat="37.88504" lon="15.297235"><ele>41.5</ele><time>2026-04-24T22:21:15.557Z</time></trkpt><trkpt lat="37.884945" lon="15.2971517"><ele>38.75</ele><time>2026-04-24T22:21:16.556Z</time></trkpt><trkpt lat="37.8848483" lon="15.29707"><ele>36.0</ele><time>2026-04-24T22:21:17.557Z</time></trkpt><trkpt lat="37.884755" lon="15.2970183"><ele>36.0</ele><time>2026-04-24T22:21:18.557Z</time></trkpt><trkpt lat="37.8846567" lon="15.2969967"><ele>36.0</ele><time>2026-04-24T22:21:19.557Z</time></trkpt><trkpt lat="37.8845633" lon="15.297005"><ele>36.0</ele><time>2026-04-24T22:21:20.556Z</time></trkpt><trkpt lat="37.8844767" lon="15.297035"><ele>36.0</ele><time>2026-04-24T22:21:21.557Z</time></trkpt><trkpt lat="37.8843967" lon="15.29708"><ele>36.0</ele><time>2026-04-24T22:21:22.556Z</time></trkpt><trkpt lat="37.8843367" lon="15.2971233"><ele>36.0</ele><time>2026-04-24T22:21:23.556Z</time></trkpt><trkpt lat="37.884255" lon="15.2971833"><ele>36.85714285714286</ele><time>2026-04-24T22:21:25.556Z</time></trkpt><trkpt lat="37.8841917" lon="15.2972283"><ele>37.714285714285715</ele><time>2026-04-24T22:21:27.557Z</time></trkpt><trkpt lat="37.884135" lon="15.2972717"><ele>38.57142857142857</ele><time>2026-04-24T22:21:30.557Z</time></trkpt><trkpt lat="37.8840567" lon="15.2973567"><ele>39.42857142857143</ele><time>2026-04-24T22:23:49.557Z</time></trkpt><trkpt lat="37.8839983" lon="15.29741"><ele>40.285714285714285</ele><time>2026-04-24T22:23:50.557Z</time></trkpt><trkpt lat="37.883945" lon="15.2974533"><ele>41.142857142857146</ele><time>2026-04-24T22:23:51.556Z</time></trkpt><trkpt lat="37.8838833" lon="15.2975"><ele>42.0</ele><time>2026-04-24T22:23:52.557Z</time></trkpt><trkpt lat="37.8838117" lon="15.2975567"><ele>42.0</ele><time>2026-04-24T22:23:53.557Z</time></trkpt><trkpt lat="37.8837433" lon="15.2976117"><ele>42.0</ele><time>2026-04-24T22:23:54.557Z</time></trkpt><trkpt lat="37.883685" lon="15.2976583"><ele>42.0</ele><time>2026-04-24T22:23:55.557Z</time></trkpt><trkpt lat="37.8836267" lon="15.2977033"><ele>42.0</ele><time>2026-04-24T22:23:56.557Z</time></trkpt><trkpt lat="37.8834983" lon="15.2978167"><ele>42.0</ele><time>2026-04-24T22:23:58.557Z</time></trkpt><trkpt lat="37.8834267" lon="15.2978833"><ele>42.400000000000006</ele><time>2026-04-24T22:23:59.556Z</time></trkpt><trkpt lat="37.883355" lon="15.29795"><ele>42.800000000000004</ele><time>2026-04-24T22:24:00.556Z</time></trkpt><trkpt lat="37.88328" lon="15.2980217"><ele>43.2</ele><time>2026-04-24T22:24:01.556Z</time></trkpt><trkpt lat="37.8832033" lon="15.29809"><ele>43.6</ele><time>2026-04-24T22:24:02.557Z</time></trkpt><trkpt lat="37.8831233" lon="15.2981617"><ele>44.0</ele><time>2026-04-24T22:24:03.557Z</time></trkpt><trkpt lat="37.8830417" lon="15.2982333"><ele>44.0</ele><time>2026-04-24T22:24:04.557Z</time></trkpt><trkpt lat="37.8829667" lon="15.2983"><ele>44.0</ele><time>2026-04-24T22:24:05.557Z</time></trkpt><trkpt lat="37.8828933" lon="15.2983767"><ele>44.0</ele><time>2026-04-24T22:24:06.557Z</time></trkpt><trkpt lat="37.8828217" lon="15.2984767"><ele>44.0</ele><time>2026-04-24T22:24:07.557Z</time></trkpt><trkpt lat="37.8827517" lon="15.2985883"><ele>44.0</ele><time>2026-04-24T22:24:08.557Z</time></trkpt><trkpt lat="37.8826917" lon="15.2986983"><ele>44.0</ele><time>2026-04-24T22:24:09.556Z</time></trkpt><trkpt lat="37.8826333" lon="15.2988033"><ele>44.0</ele><time>2026-04-24T22:24:10.557Z</time></trkpt><trkpt lat="37.88258" lon="15.2989117"><ele>44.0</ele><time>2026-04-24T22:24:11.557Z</time></trkpt><trkpt lat="37.8825283" lon="15.2990183"><ele>44.0</ele><time>2026-04-24T22:24:12.556Z</time></trkpt><trkpt lat="37.8824633" lon="15.2991233"><ele>44.0</ele><time>2026-04-24T22:24:13.556Z</time></trkpt><trkpt lat="37.88239" lon="15.2992233"><ele>44.666666666666664</ele><time>2026-04-24T22:24:14.556Z</time></trkpt><trkpt lat="37.8823267" lon="15.2993183"><ele>45.33333333333333</ele><time>2026-04-24T22:24:15.557Z</time></trkpt><trkpt lat="37.88226" lon="15.2994033"><ele>46.0</ele><time>2026-04-24T22:24:16.556Z</time></trkpt><trkpt lat="37.882205" lon="15.2994867"><ele>46.666666666666664</ele><time>2026-04-24T22:24:17.556Z</time></trkpt><trkpt lat="37.882165" lon="15.2995683"><ele>47.333333333333336</ele><time>2026-04-24T22:24:18.557Z</time></trkpt><trkpt lat="37.8821433" lon="15.2996767"><ele>48.0</ele><time>2026-04-24T22:24:19.556Z</time></trkpt><trkpt lat="37.882145" lon="15.299805"><ele>48.0</ele><time>2026-04-24T22:24:20.556Z</time></trkpt><trkpt lat="37.8821533" lon="15.2999483"><ele>48.0</ele><time>2026-04-24T22:24:21.557Z</time></trkpt><trkpt lat="37.882175" lon="15.3001"><ele>48.0</ele><time>2026-04-24T22:24:22.556Z</time></trkpt><trkpt lat="37.8821917" lon="15.300265"><ele>48.0</ele><time>2026-04-24T22:24:23.557Z</time></trkpt><trkpt lat="37.8822183" lon="15.3004317"><ele>47.5</ele><time>2026-04-24T22:24:24.557Z</time></trkpt><trkpt lat="37.8822467" lon="15.3005917"><ele>47.0</ele><time>2026-04-24T22:24:25.556Z</time></trkpt><trkpt lat="37.88227" lon="15.30075"><ele>46.5</ele><time>2026-04-24T22:24:26.557Z</time></trkpt><trkpt lat="37.8822967" lon="15.3009017"><ele>46.0</ele><time>2026-04-24T22:24:27.557Z</time></trkpt><trkpt lat="37.8823133" lon="15.30105"><ele>46.0</ele><time>2026-04-24T22:24:28.557Z</time></trkpt><trkpt lat="37.882325" lon="15.30119"><ele>46.0</ele><time>2026-04-24T22:24:29.557Z</time></trkpt><trkpt lat="37.882325" lon="15.3013317"><ele>46.0</ele><time>2026-04-24T22:24:30.557Z</time></trkpt><trkpt lat="37.8823033" lon="15.301465"><ele>46.0</ele><time>2026-04-24T22:24:31.556Z</time></trkpt><trkpt lat="37.8822883" lon="15.3016067"><ele>46.0</ele><time>2026-04-24T22:24:32.556Z</time></trkpt><trkpt lat="37.882285" lon="15.3017533"><ele>45.5</ele><time>2026-04-24T22:24:33.557Z</time></trkpt><trkpt lat="37.8822883" lon="15.3019017"><ele>45.0</ele><time>2026-04-24T22:24:34.556Z</time></trkpt><trkpt lat="37.8822817" lon="15.3020467"><ele>44.5</ele><time>2026-04-24T22:24:35.556Z</time></trkpt><trkpt lat="37.8822667" lon="15.3021817"><ele>44.0</ele><time>2026-04-24T22:24:36.556Z</time></trkpt><trkpt lat="37.8822383" lon="15.30232"><ele>43.25</ele><time>2026-04-24T22:24:37.557Z</time></trkpt><trkpt lat="37.8821883" lon="15.3024533"><ele>42.5</ele><time>2026-04-24T22:24:38.556Z</time></trkpt><trkpt lat="37.8821233" lon="15.302585"><ele>41.75</ele><time>2026-04-24T22:24:39.556Z</time></trkpt><trkpt lat="37.8820467" lon="15.302715"><ele>41.0</ele><time>2026-04-24T22:24:40.557Z</time></trkpt><trkpt lat="37.8819617" lon="15.302845"><ele>41.0</ele><time>2026-04-24T22:24:41.556Z</time></trkpt><trkpt lat="37.88187" lon="15.3029533"><ele>41.0</ele><time>2026-04-24T22:24:42.557Z</time></trkpt><trkpt lat="37.881775" lon="15.3030533"><ele>41.0</ele><time>2026-04-24T22:24:43.556Z</time></trkpt><trkpt lat="37.8816717" lon="15.303145"><ele>41.0</ele><time>2026-04-24T22:24:44.556Z</time></trkpt><trkpt lat="37.88155" lon="15.3032083"><ele>38.0</ele><time>2026-04-24T22:24:45.557Z</time></trkpt><trkpt lat="37.881435" lon="15.3032817"><ele>35.0</ele><time>2026-04-24T22:24:46.556Z</time></trkpt><trkpt lat="37.8813317" lon="15.30337"><ele>32.0</ele><time>2026-04-24T22:24:47.557Z</time></trkpt><trkpt lat="37.8812283" lon="15.30347"><ele>29.0</ele><time>2026-04-24T22:24:48.556Z</time></trkpt><trkpt lat="37.881145" lon="15.3035833"><ele>29.0</ele><time>2026-04-24T22:24:49.557Z</time></trkpt><trkpt lat="37.8810683" lon="15.3037083"><ele>29.0</ele><time>2026-04-24T22:24:50.556Z</time></trkpt><trkpt lat="37.881005" lon="15.303845"><ele>29.0</ele><time>2026-04-24T22:24:51.557Z</time></trkpt><trkpt lat="37.88094" lon="15.3039733"><ele>29.0</ele><time>2026-04-24T22:24:52.556Z</time></trkpt><trkpt lat="37.8808667" lon="15.304095"><ele>29.799999999999997</ele><time>2026-04-24T22:24:53.557Z</time></trkpt><trkpt lat="37.8808033" lon="15.30421"><ele>30.599999999999998</ele><time>2026-04-24T22:24:54.556Z</time></trkpt><trkpt lat="37.880745" lon="15.304325"><ele>31.4</ele><time>2026-04-24T22:24:55.557Z</time></trkpt><trkpt lat="37.880675" lon="15.3044117"><ele>32.199999999999996</ele><time>2026-04-24T22:24:56.557Z</time></trkpt><trkpt lat="37.88061" lon="15.304485"><ele>33.0</ele><time>2026-04-24T22:24:57.556Z</time></trkpt><trkpt lat="37.8805583" lon="15.30456"><ele>33.0</ele><time>2026-04-24T22:24:58.557Z</time></trkpt><trkpt lat="37.8805133" lon="15.304625"><ele>33.0</ele><time>2026-04-24T22:24:59.556Z</time></trkpt><trkpt lat="37.8804683" lon="15.3046817"><ele>33.0</ele><time>2026-04-24T22:25:00.557Z</time></trkpt><trkpt lat="37.880395" lon="15.304755"><ele>33.0</ele><time>2026-04-24T22:25:02.556Z</time></trkpt><trkpt lat="37.880335" lon="15.3047967"><ele>33.0</ele><time>2026-04-24T22:25:05.556Z</time></trkpt><trkpt lat="37.8802683" lon="15.3048267"><ele>33.0</ele><time>2026-04-24T22:25:58.557Z</time></trkpt><trkpt lat="37.880175" lon="15.3048183"><ele>30.4</ele><time>2026-04-24T22:26:00.556Z</time></trkpt><trkpt lat="37.8800533" lon="15.3047367"><ele>27.799999999999997</ele><time>2026-04-24T22:26:02.557Z</time></trkpt><trkpt lat="37.8799867" lon="15.3046667"><ele>25.2</ele><time>2026-04-24T22:26:03.557Z</time></trkpt><trkpt lat="37.879915" lon="15.3045867"><ele>22.6</ele><time>2026-04-24T22:26:04.557Z</time></trkpt><trkpt lat="37.8798417" lon="15.3045017"><ele>20.0</ele><time>2026-04-24T22:26:05.557Z</time></trkpt><trkpt lat="37.8797717" lon="15.3044217"><ele>20.0</ele><time>2026-04-24T22:26:06.556Z</time></trkpt><trkpt lat="37.8797017" lon="15.3043333"><ele>20.0</ele><time>2026-04-24T22:26:07.557Z</time></trkpt><trkpt lat="37.8796333" lon="15.304255"><ele>20.0</ele><time>2026-04-24T22:26:08.556Z</time></trkpt><trkpt lat="37.8795667" lon="15.3041783"><ele>20.0</ele><time>2026-04-24T22:26:09.557Z</time></trkpt><trkpt lat="37.8794933" lon="15.3041033"><ele>20.0</ele><time>2026-04-24T22:26:10.557Z</time></trkpt><trkpt lat="37.8794183" lon="15.3040283"><ele>20.0</ele><time>2026-04-24T22:26:11.556Z</time></trkpt><trkpt lat="37.879335" lon="15.303955"><ele>20.0</ele><time>2026-04-24T22:26:12.557Z</time></trkpt><trkpt lat="37.8792483" lon="15.3038817"><ele>20.0</ele><time>2026-04-24T22:26:13.556Z</time></trkpt><trkpt lat="37.8791517" lon="15.3038183"><ele>20.0</ele><time>2026-04-24T22:26:14.556Z</time></trkpt><trkpt lat="37.8790417" lon="15.303755"><ele>20.0</ele><time>2026-04-24T22:26:15.556Z</time></trkpt><trkpt lat="37.8789283" lon="15.3036967"><ele>21.25</ele><time>2026-04-24T22:26:16.556Z</time></trkpt><trkpt lat="37.8788217" lon="15.3036367"><ele>22.5</ele><time>2026-04-24T22:26:17.557Z</time></trkpt><trkpt lat="37.8787083" lon="15.30358"><ele>23.75</ele><time>2026-04-24T22:26:18.557Z</time></trkpt><trkpt lat="37.8785967" lon="15.3035117"><ele>25.0</ele><time>2026-04-24T22:26:19.556Z</time></trkpt><trkpt lat="37.8784867" lon="15.3034383"><ele>23.5</ele><time>2026-04-24T22:26:20.556Z</time></trkpt><trkpt lat="37.87837" lon="15.3033567"><ele>22.0</ele><time>2026-04-24T22:26:21.557Z</time></trkpt><trkpt lat="37.878245" lon="15.3032683"><ele>20.5</ele><time>2026-04-24T22:26:22.557Z</time></trkpt><trkpt lat="37.87812" lon="15.3031833"><ele>19.0</ele><time>2026-04-24T22:26:23.556Z</time></trkpt><trkpt lat="37.8779917" lon="15.3030917"><ele>22.0</ele><time>2026-04-24T22:26:24.556Z</time></trkpt><trkpt lat="37.8778617" lon="15.302995"><ele>25.0</ele><time>2026-04-24T22:26:25.557Z</time></trkpt><trkpt lat="37.8777317" lon="15.3028983"><ele>28.0</ele><time>2026-04-24T22:26:26.557Z</time></trkpt><trkpt lat="37.8776167" lon="15.3028017"><ele>31.0</ele><time>2026-04-24T22:26:27.557Z</time></trkpt><trkpt lat="37.87749" lon="15.302705"><ele>31.0</ele><time>2026-04-24T22:26:28.557Z</time></trkpt><trkpt lat="37.877365" lon="15.3026117"><ele>31.0</ele><time>2026-04-24T22:26:29.557Z</time></trkpt><trkpt lat="37.8772317" lon="15.302505"><ele>31.0</ele><time>2026-04-24T22:26:30.556Z</time></trkpt><trkpt lat="37.87708" lon="15.3023933"><ele>31.0</ele><time>2026-04-24T22:26:31.557Z</time></trkpt><trkpt lat="37.8769367" lon="15.3022933"><ele>31.0</ele><time>2026-04-24T22:26:32.556Z</time></trkpt><trkpt lat="37.8768017" lon="15.3022017"><ele>31.0</ele><time>2026-04-24T22:26:33.557Z</time></trkpt><trkpt lat="37.8766583" lon="15.30211"><ele>29.666666666666668</ele><time>2026-04-24T22:26:34.557Z</time></trkpt><trkpt lat="37.8765233" lon="15.3020317"><ele>28.333333333333336</ele><time>2026-04-24T22:26:35.556Z</time></trkpt><trkpt lat="37.876385" lon="15.3019583"><ele>27.0</ele><time>2026-04-24T22:26:36.556Z</time></trkpt><trkpt lat="37.87624" lon="15.3018883"><ele>27.0</ele><time>2026-04-24T22:26:37.557Z</time></trkpt><trkpt lat="37.8761017" lon="15.301805"><ele>27.0</ele><time>2026-04-24T22:26:38.556Z</time></trkpt><trkpt lat="37.875965" lon="15.3017317"><ele>27.0</ele><time>2026-04-24T22:26:39.556Z</time></trkpt><trkpt lat="37.8758083" lon="15.3016583"><ele>26.666666666666664</ele><time>2026-04-24T22:26:40.557Z</time></trkpt><trkpt lat="37.87565" lon="15.3016083"><ele>26.333333333333332</ele><time>2026-04-24T22:26:41.556Z</time></trkpt><trkpt lat="37.8754883" lon="15.30158"><ele>26.0</ele><time>2026-04-24T22:26:42.556Z</time></trkpt><trkpt lat="37.87532" lon="15.301565"><ele>26.0</ele><time>2026-04-24T22:26:43.557Z</time></trkpt><trkpt lat="37.87515" lon="15.3015417"><ele>26.0</ele><time>2026-04-24T22:26:44.557Z</time></trkpt><trkpt lat="37.874975" lon="15.3015117"><ele>26.0</ele><time>2026-04-24T22:26:45.557Z</time></trkpt><trkpt lat="37.874805" lon="15.3014733"><ele>24.333333333333332</ele><time>2026-04-24T22:26:46.557Z</time></trkpt><trkpt lat="37.8746517" lon="15.301425"><ele>22.666666666666664</ele><time>2026-04-24T22:26:47.557Z</time></trkpt><trkpt lat="37.8745067" lon="15.3013617"><ele>21.0</ele><time>2026-04-24T22:26:48.557Z</time></trkpt><trkpt lat="37.8743617" lon="15.3012833"><ele>24.333333333333336</ele><time>2026-04-24T22:26:49.557Z</time></trkpt><trkpt lat="37.8742233" lon="15.3011783"><ele>27.666666666666668</ele><time>2026-04-24T22:26:50.556Z</time></trkpt><trkpt lat="37.8740833" lon="15.3010717"><ele>31.0</ele><time>2026-04-24T22:26:51.557Z</time></trkpt><trkpt lat="37.873935" lon="15.30097"><ele>31.0</ele><time>2026-04-24T22:26:52.556Z</time></trkpt><trkpt lat="37.873785" lon="15.3008683"><ele>31.0</ele><time>2026-04-24T22:26:53.556Z</time></trkpt><trkpt lat="37.8736333" lon="15.3007717"><ele>31.0</ele><time>2026-04-24T22:26:54.557Z</time></trkpt><trkpt lat="37.8734817" lon="15.300675"><ele>30.333333333333336</ele><time>2026-04-24T22:26:55.557Z</time></trkpt><trkpt lat="37.8733367" lon="15.300575"><ele>29.666666666666664</ele><time>2026-04-24T22:26:56.557Z</time></trkpt><trkpt lat="37.8731967" lon="15.3004767"><ele>29.0</ele><time>2026-04-24T22:26:57.557Z</time></trkpt><trkpt lat="37.8730633" lon="15.30038"><ele>29.0</ele><time>2026-04-24T22:26:58.557Z</time></trkpt><trkpt lat="37.8729283" lon="15.3002817"><ele>29.0</ele><time>2026-04-24T22:26:59.557Z</time></trkpt><trkpt lat="37.8727917" lon="15.3001867"><ele>29.0</ele><time>2026-04-24T22:27:00.557Z</time></trkpt><trkpt lat="37.8726567" lon="15.3000933"><ele>25.666666666666664</ele><time>2026-04-24T22:27:01.557Z</time></trkpt><trkpt lat="37.87252" lon="15.300005"><ele>22.333333333333332</ele><time>2026-04-24T22:27:02.556Z</time></trkpt><trkpt lat="37.872385" lon="15.29991"><ele>19.0</ele><time>2026-04-24T22:27:03.557Z</time></trkpt><trkpt lat="37.8722517" lon="15.2998217"><ele>25.0</ele><time>2026-04-24T22:27:04.556Z</time></trkpt><trkpt lat="37.8721167" lon="15.2997333"><ele>31.0</ele><time>2026-04-24T22:27:05.557Z</time></trkpt><trkpt lat="37.87198" lon="15.2996383"><ele>37.0</ele><time>2026-04-24T22:27:06.557Z</time></trkpt><trkpt lat="37.8718467" lon="15.29953"><ele>33.0</ele><time>2026-04-24T22:27:07.557Z</time></trkpt><trkpt lat="37.8716933" lon="15.29944"><ele>29.0</ele><time>2026-04-24T22:27:08.557Z</time></trkpt><trkpt lat="37.8715467" lon="15.29933"><ele>25.0</ele><time>2026-04-24T22:27:09.557Z</time></trkpt><trkpt lat="37.87139" lon="15.2992233"><ele>25.0</ele><time>2026-04-24T22:27:10.556Z</time></trkpt><trkpt lat="37.8712267" lon="15.299115"><ele>25.0</ele><time>2026-04-24T22:27:11.556Z</time></trkpt><trkpt lat="37.8710617" lon="15.2990117"><ele>25.0</ele><time>2026-04-24T22:27:12.556Z</time></trkpt><trkpt lat="37.87089" lon="15.2989183"><ele>33.333333333333336</ele><time>2026-04-24T22:27:13.557Z</time></trkpt><trkpt lat="37.8707067" lon="15.2988433"><ele>41.66666666666667</ele><time>2026-04-24T22:27:14.556Z</time></trkpt><trkpt lat="37.8705217" lon="15.298765"><ele>50.0</ele><time>2026-04-24T22:27:15.557Z</time></trkpt><trkpt lat="37.8703317" lon="15.298685"><ele>50.0</ele><time>2026-04-24T22:27:16.557Z</time></trkpt><trkpt lat="37.8701433" lon="15.2985967"><ele>50.0</ele><time>2026-04-24T22:27:17.557Z</time></trkpt><trkpt lat="37.8699567" lon="15.298515"><ele>50.0</ele><time>2026-04-24T22:27:18.557Z</time></trkpt><trkpt lat="37.8697733" lon="15.2984433"><ele>44.0</ele><time>2026-04-24T22:27:19.557Z</time></trkpt><trkpt lat="37.8695833" lon="15.298375"><ele>38.0</ele><time>2026-04-24T22:27:20.556Z</time></trkpt><trkpt lat="37.8693983" lon="15.2983117"><ele>32.0</ele><time>2026-04-24T22:27:21.557Z</time></trkpt><trkpt lat="37.86922" lon="15.2982483"><ele>29.0</ele><time>2026-04-24T22:27:22.557Z</time></trkpt><trkpt lat="37.86905" lon="15.2981917"><ele>26.0</ele><time>2026-04-24T22:27:23.557Z</time></trkpt><trkpt lat="37.8688833" lon="15.2981383"><ele>23.0</ele><time>2026-04-24T22:27:24.556Z</time></trkpt><trkpt lat="37.86873" lon="15.2980817"><ele>27.5</ele><time>2026-04-24T22:27:25.556Z</time></trkpt><trkpt lat="37.8685817" lon="15.29803"><ele>32.0</ele><time>2026-04-24T22:27:26.557Z</time></trkpt><trkpt lat="37.8684367" lon="15.2979983"><ele>36.5</ele><time>2026-04-24T22:27:27.556Z</time></trkpt><trkpt lat="37.8682933" lon="15.2979933"><ele>41.0</ele><time>2026-04-24T22:27:28.557Z</time></trkpt><trkpt lat="37.8681483" lon="15.2980283"><ele>41.0</ele><time>2026-04-24T22:27:29.557Z</time></trkpt><trkpt lat="37.8680033" lon="15.2980833"><ele>41.0</ele><time>2026-04-24T22:27:30.556Z</time></trkpt><trkpt lat="37.8678633" lon="15.2981467"><ele>41.0</ele><time>2026-04-24T22:27:31.557Z</time></trkpt><trkpt lat="37.8677317" lon="15.2982067"><ele>41.0</ele><time>2026-04-24T22:27:32.557Z</time></trkpt><trkpt lat="37.86761" lon="15.2982517"><ele>35.0</ele><time>2026-04-24T22:27:33.557Z</time></trkpt><trkpt lat="37.8674917" lon="15.2982783"><ele>29.0</ele><time>2026-04-24T22:27:34.557Z</time></trkpt><trkpt lat="37.8673667" lon="15.2982733"><ele>23.0</ele><time>2026-04-24T22:27:35.556Z</time></trkpt><trkpt lat="37.867235" lon="15.29824"><ele>17.0</ele><time>2026-04-24T22:27:36.557Z</time></trkpt><trkpt lat="37.867095" lon="15.2982017"><ele>17.0</ele><time>2026-04-24T22:27:37.556Z</time></trkpt><trkpt lat="37.866965" lon="15.2981633"><ele>17.0</ele><time>2026-04-24T22:27:38.557Z</time></trkpt><trkpt lat="37.86685" lon="15.2981033"><ele>17.0</ele><time>2026-04-24T22:27:39.557Z</time></trkpt><trkpt lat="37.8667467" lon="15.2980217"><ele>17.0</ele><time>2026-04-24T22:27:40.557Z</time></trkpt><trkpt lat="37.8666567" lon="15.2979083"><ele>19.5</ele><time>2026-04-24T22:27:41.556Z</time></trkpt><trkpt lat="37.8665683" lon="15.2977767"><ele>22.0</ele><time>2026-04-24T22:27:42.557Z</time></trkpt><trkpt lat="37.8664783" lon="15.2976483"><ele>24.5</ele><time>2026-04-24T22:27:43.556Z</time></trkpt><trkpt lat="37.8663867" lon="15.2975083"><ele>27.0</ele><time>2026-04-24T22:27:44.557Z</time></trkpt><trkpt lat="37.8662817" lon="15.2973683"><ele>27.0</ele><time>2026-04-24T22:27:45.557Z</time></trkpt><trkpt lat="37.8661733" lon="15.2972333"><ele>27.0</ele><time>2026-04-24T22:27:46.557Z</time></trkpt><trkpt lat="37.8660583" lon="15.29711"><ele>27.0</ele><time>2026-04-24T22:27:47.557Z</time></trkpt><trkpt lat="37.865935" lon="15.2970017"><ele>27.0</ele><time>2026-04-24T22:27:48.557Z</time></trkpt><trkpt lat="37.8658" lon="15.2968967"><ele>27.0</ele><time>2026-04-24T22:27:49.556Z</time></trkpt><trkpt lat="37.865655" lon="15.2968033"><ele>27.0</ele><time>2026-04-24T22:27:50.557Z</time></trkpt><trkpt lat="37.8655033" lon="15.2967167"><ele>27.0</ele><time>2026-04-24T22:27:51.557Z</time></trkpt><trkpt lat="37.8653483" lon="15.2966317"><ele>27.0</ele><time>2026-04-24T22:27:52.556Z</time></trkpt><trkpt lat="37.865195" lon="15.2965467"><ele>27.0</ele><time>2026-04-24T22:27:53.557Z</time></trkpt><trkpt lat="37.86504" lon="15.296465"><ele>32.333333333333336</ele><time>2026-04-24T22:27:54.557Z</time></trkpt><trkpt lat="37.8648833" lon="15.2963783"><ele>37.66666666666667</ele><time>2026-04-24T22:27:55.557Z</time></trkpt><trkpt lat="37.86473" lon="15.2962883"><ele>43.0</ele><time>2026-04-24T22:27:56.556Z</time></trkpt><trkpt lat="37.8645783" lon="15.2962083"><ele>43.0</ele><time>2026-04-24T22:27:57.557Z</time></trkpt><trkpt lat="37.86443" lon="15.2961217"><ele>43.0</ele><time>2026-04-24T22:27:58.556Z</time></trkpt><trkpt lat="37.8642833" lon="15.2960467"><ele>43.0</ele><time>2026-04-24T22:27:59.557Z</time></trkpt><trkpt lat="37.8641417" lon="15.2959767"><ele>38.0</ele><time>2026-04-24T22:28:00.557Z</time></trkpt><trkpt lat="37.8639967" lon="15.2959267"><ele>33.0</ele><time>2026-04-24T22:28:01.557Z</time></trkpt><trkpt lat="37.8638483" lon="15.2958917"><ele>28.0</ele><time>2026-04-24T22:28:02.557Z</time></trkpt><trkpt lat="37.863695" lon="15.2958667"><ele>28.0</ele><time>2026-04-24T22:28:03.557Z</time></trkpt><trkpt lat="37.8635383" lon="15.295835"><ele>28.0</ele><time>2026-04-24T22:28:04.557Z</time></trkpt><trkpt lat="37.8633833" lon="15.2958067"><ele>28.0</ele><time>2026-04-24T22:28:05.557Z</time></trkpt><trkpt lat="37.863225" lon="15.295785"><ele>27.75</ele><time>2026-04-24T22:28:06.557Z</time></trkpt><trkpt lat="37.86308" lon="15.295775"><ele>27.5</ele><time>2026-04-24T22:28:07.557Z</time></trkpt><trkpt lat="37.86295" lon="15.2958"><ele>27.25</ele><time>2026-04-24T22:28:08.557Z</time></trkpt><trkpt lat="37.86283" lon="15.2958567"><ele>27.0</ele><time>2026-04-24T22:28:09.557Z</time></trkpt><trkpt lat="37.8627283" lon="15.295935"><ele>27.0</ele><time>2026-04-24T22:28:10.556Z</time></trkpt><trkpt lat="37.8626467" lon="15.2960333"><ele>27.000000000000004</ele><time>2026-04-24T22:28:11.557Z</time></trkpt><trkpt lat="37.86258" lon="15.2961483"><ele>27.000000000000004</ele><time>2026-04-24T22:28:12.557Z</time></trkpt><trkpt lat="37.8625067" lon="15.296245"><ele>27.0</ele><time>2026-04-24T22:28:13.557Z</time></trkpt><trkpt lat="37.8624183" lon="15.2963033"><ele>27.0</ele><time>2026-04-24T22:28:14.556Z</time></trkpt><trkpt lat="37.8623083" lon="15.296325"><ele>28.6</ele><time>2026-04-24T22:28:15.556Z</time></trkpt><trkpt lat="37.8621933" lon="15.2963283"><ele>30.200000000000003</ele><time>2026-04-24T22:28:16.557Z</time></trkpt><trkpt lat="37.8620783" lon="15.29633"><ele>31.8</ele><time>2026-04-24T22:28:17.557Z</time></trkpt><trkpt lat="37.8619683" lon="15.2963283"><ele>33.4</ele><time>2026-04-24T22:28:18.556Z</time></trkpt><trkpt lat="37.86187" lon="15.2963167"><ele>35.0</ele><time>2026-04-24T22:28:19.557Z</time></trkpt><trkpt lat="37.861775" lon="15.2962817"><ele>35.0</ele><time>2026-04-24T22:28:20.557Z</time></trkpt><trkpt lat="37.8616867" lon="15.296225"><ele>35.0</ele><time>2026-04-24T22:28:21.557Z</time></trkpt><trkpt lat="37.86161" lon="15.29613"><ele>35.0</ele><time>2026-04-24T22:28:22.557Z</time></trkpt><trkpt lat="37.8615433" lon="15.2960067"><ele>35.0</ele><time>2026-04-24T22:28:23.556Z</time></trkpt><trkpt lat="37.8614733" lon="15.29588"><ele>35.0</ele><time>2026-04-24T22:28:24.556Z</time></trkpt><trkpt lat="37.8613967" lon="15.2957517"><ele>35.0</ele><time>2026-04-24T22:28:25.557Z</time></trkpt><trkpt lat="37.8612983" lon="15.2956517"><ele>35.0</ele><time>2026-04-24T22:28:26.556Z</time></trkpt><trkpt lat="37.8611833" lon="15.29558"><ele>35.0</ele><time>2026-04-24T22:28:27.557Z</time></trkpt><trkpt lat="37.8610517" lon="15.2955367"><ele>35.0</ele><time>2026-04-24T22:28:28.557Z</time></trkpt><trkpt lat="37.860915" lon="15.295505"><ele>34.5</ele><time>2026-04-24T22:28:29.557Z</time></trkpt><trkpt lat="37.8607767" lon="15.2954733"><ele>34.0</ele><time>2026-04-24T22:28:30.557Z</time></trkpt><trkpt lat="37.860645" lon="15.295435"><ele>33.5</ele><time>2026-04-24T22:28:31.556Z</time></trkpt><trkpt lat="37.8605133" lon="15.295395"><ele>33.0</ele><time>2026-04-24T22:28:32.557Z</time></trkpt><trkpt lat="37.8603867" lon="15.295355"><ele>33.0</ele><time>2026-04-24T22:28:33.557Z</time></trkpt><trkpt lat="37.8602583" lon="15.2953233"><ele>33.0</ele><time>2026-04-24T22:28:34.556Z</time></trkpt><trkpt lat="37.860125" lon="15.2953233"><ele>33.0</ele><time>2026-04-24T22:28:35.556Z</time></trkpt><trkpt lat="37.8599917" lon="15.29536"><ele>33.0</ele><time>2026-04-24T22:28:36.557Z</time></trkpt><trkpt lat="37.8598617" lon="15.29543"><ele>30.25</ele><time>2026-04-24T22:28:37.557Z</time></trkpt><trkpt lat="37.8597517" lon="15.2955133"><ele>27.5</ele><time>2026-04-24T22:28:38.557Z</time></trkpt><trkpt lat="37.8596633" lon="15.2956267"><ele>24.75</ele><time>2026-04-24T22:28:39.557Z</time></trkpt><trkpt lat="37.8596083" lon="15.2957567"><ele>22.0</ele><time>2026-04-24T22:28:40.556Z</time></trkpt><trkpt lat="37.8595583" lon="15.2958933"><ele>19.75</ele><time>2026-04-24T22:28:41.556Z</time></trkpt><trkpt lat="37.8594933" lon="15.2960167"><ele>17.5</ele><time>2026-04-24T22:28:42.556Z</time></trkpt><trkpt lat="37.8594117" lon="15.29613"><ele>15.25</ele><time>2026-04-24T22:28:43.556Z</time></trkpt><trkpt lat="37.8593083" lon="15.2962217"><ele>13.0</ele><time>2026-04-24T22:28:44.556Z</time></trkpt><trkpt lat="37.859195" lon="15.2963033"><ele>14.0</ele><time>2026-04-24T22:28:45.557Z</time></trkpt><trkpt lat="37.85909" lon="15.2963917"><ele>15.0</ele><time>2026-04-24T22:28:46.557Z</time></trkpt><trkpt lat="37.8589833" lon="15.2964967"><ele>16.0</ele><time>2026-04-24T22:28:47.556Z</time></trkpt><trkpt lat="37.8588917" lon="15.296615"><ele>17.0</ele><time>2026-04-24T22:28:48.557Z</time></trkpt><trkpt lat="37.8588117" lon="15.2967483"><ele>17.0</ele><time>2026-04-24T22:28:49.557Z</time></trkpt><trkpt lat="37.8587467" lon="15.2969033"><ele>17.0</ele><time>2026-04-24T22:28:50.556Z</time></trkpt><trkpt lat="37.8587" lon="15.2970683"><ele>17.0</ele><time>2026-04-24T22:28:51.556Z</time></trkpt><trkpt lat="37.8586483" lon="15.297225"><ele>17.0</ele><time>2026-04-24T22:28:52.556Z</time></trkpt><trkpt lat="37.8585833" lon="15.29738"><ele>13.5</ele><time>2026-04-24T22:28:53.556Z</time></trkpt><trkpt lat="37.8585083" lon="15.297535"><ele>10.0</ele><time>2026-04-24T22:28:54.556Z</time></trkpt><trkpt lat="37.85843" lon="15.297685"><ele>6.5</ele><time>2026-04-24T22:28:55.557Z</time></trkpt><trkpt lat="37.8583567" lon="15.2978283"><ele>3.0</ele><time>2026-04-24T22:28:56.556Z</time></trkpt><trkpt lat="37.85829" lon="15.297975"><ele>5.75</ele><time>2026-04-24T22:28:57.557Z</time></trkpt><trkpt lat="37.858225" lon="15.2981283"><ele>8.5</ele><time>2026-04-24T22:28:58.556Z</time></trkpt><trkpt lat="37.8581583" lon="15.2982833"><ele>11.25</ele><time>2026-04-24T22:28:59.557Z</time></trkpt><trkpt lat="37.8580883" lon="15.2984333"><ele>14.0</ele><time>2026-04-24T22:29:00.557Z</time></trkpt><trkpt lat="37.85801" lon="15.29857"><ele>14.0</ele><time>2026-04-24T22:29:01.556Z</time></trkpt><trkpt lat="37.8579367" lon="15.2986967"><ele>14.0</ele><time>2026-04-24T22:29:02.557Z</time></trkpt><trkpt lat="37.857855" lon="15.298805"><ele>14.0</ele><time>2026-04-24T22:29:03.557Z</time></trkpt><trkpt lat="37.8577783" lon="15.298925"><ele>14.0</ele><time>2026-04-24T22:29:04.556Z</time></trkpt><trkpt lat="37.8577133" lon="15.2990633"><ele>11.5</ele><time>2026-04-24T22:29:05.557Z</time></trkpt><trkpt lat="37.85766" lon="15.2992167"><ele>9.0</ele><time>2026-04-24T22:29:06.557Z</time></trkpt><trkpt lat="37.8576117" lon="15.2993833"><ele>6.5</ele><time>2026-04-24T22:29:07.556Z</time></trkpt><trkpt lat="37.8575733" lon="15.2995483"><ele>4.0</ele><time>2026-04-24T22:29:08.556Z</time></trkpt><trkpt lat="37.8575383" lon="15.2997067"><ele>9.5</ele><time>2026-04-24T22:29:09.556Z</time></trkpt><trkpt lat="37.8574917" lon="15.299855"><ele>15.0</ele><time>2026-04-24T22:29:10.557Z</time></trkpt><trkpt lat="37.8574383" lon="15.2999967"><ele>20.5</ele><time>2026-04-24T22:29:11.557Z</time></trkpt><trkpt lat="37.8573767" lon="15.3001333"><ele>26.0</ele><time>2026-04-24T22:29:12.557Z</time></trkpt><trkpt lat="37.8573033" lon="15.3002583"><ele>26.0</ele><time>2026-04-24T22:29:13.557Z</time></trkpt><trkpt lat="37.857225" lon="15.30037"><ele>26.0</ele><time>2026-04-24T22:29:14.556Z</time></trkpt><trkpt lat="37.85715" lon="15.300475"><ele>26.0</ele><time>2026-04-24T22:29:15.557Z</time></trkpt><trkpt lat="37.8570717" lon="15.3005633"><ele>26.0</ele><time>2026-04-24T22:29:16.556Z</time></trkpt><trkpt lat="37.8569867" lon="15.3006233"><ele>26.0</ele><time>2026-04-24T22:29:17.557Z</time></trkpt><trkpt lat="37.856905" lon="15.30066"><ele>26.5</ele><time>2026-04-24T22:29:18.557Z</time></trkpt><trkpt lat="37.8568183" lon="15.3006617"><ele>27.0</ele><time>2026-04-24T22:29:19.556Z</time></trkpt><trkpt lat="37.8567083" lon="15.3006383"><ele>27.5</ele><time>2026-04-24T22:29:20.556Z</time></trkpt><trkpt lat="37.85658" lon="15.3005917"><ele>28.0</ele><time>2026-04-24T22:29:21.556Z</time></trkpt><trkpt lat="37.85645" lon="15.3005483"><ele>29.5</ele><time>2026-04-24T22:29:22.556Z</time></trkpt><trkpt lat="37.85632" lon="15.300505"><ele>31.0</ele><time>2026-04-24T22:29:23.557Z</time></trkpt><trkpt lat="37.856195" lon="15.30046"><ele>32.5</ele><time>2026-04-24T22:29:24.556Z</time></trkpt><trkpt lat="37.85607" lon="15.300415"><ele>34.0</ele><time>2026-04-24T22:29:25.556Z</time></trkpt><trkpt lat="37.85594" lon="15.3003783"><ele>34.0</ele><time>2026-04-24T22:29:26.557Z</time></trkpt><trkpt lat="37.8558167" lon="15.3003467"><ele>34.0</ele><time>2026-04-24T22:29:27.556Z</time></trkpt><trkpt lat="37.855695" lon="15.3003067"><ele>34.0</ele><time>2026-04-24T22:29:28.557Z</time></trkpt><trkpt lat="37.8555717" lon="15.3002833"><ele>34.0</ele><time>2026-04-24T22:29:29.556Z</time></trkpt><trkpt lat="37.855455" lon="15.3002883"><ele>34.0</ele><time>2026-04-24T22:29:30.556Z</time></trkpt><trkpt lat="37.85535" lon="15.30031"><ele>34.0</ele><time>2026-04-24T22:29:31.556Z</time></trkpt><trkpt lat="37.8552217" lon="15.3003767"><ele>34.0</ele><time>2026-04-24T22:29:32.557Z</time></trkpt><trkpt lat="37.8551017" lon="15.300455"><ele>34.0</ele><time>2026-04-24T22:29:33.556Z</time></trkpt><trkpt lat="37.854985" lon="15.30053"><ele>30.75</ele><time>2026-04-24T22:29:34.557Z</time></trkpt><trkpt lat="37.8548783" lon="15.3005867"><ele>27.5</ele><time>2026-04-24T22:29:35.557Z</time></trkpt><trkpt lat="37.8547633" lon="15.30064"><ele>24.25</ele><time>2026-04-24T22:29:36.557Z</time></trkpt><trkpt lat="37.8546433" lon="15.3006967"><ele>21.0</ele><time>2026-04-24T22:29:37.557Z</time></trkpt><trkpt lat="37.8545283" lon="15.3007367"><ele>21.0</ele><time>2026-04-24T22:29:38.557Z</time></trkpt><trkpt lat="37.8544083" lon="15.3007617"><ele>21.0</ele><time>2026-04-24T22:29:39.557Z</time></trkpt><trkpt lat="37.8542933" lon="15.3007967"><ele>21.0</ele><time>2026-04-24T22:29:40.556Z</time></trkpt><trkpt lat="37.8541867" lon="15.3008367"><ele>21.0</ele><time>2026-04-24T22:29:41.557Z</time></trkpt><trkpt lat="37.854095" lon="15.300875"><ele>21.0</ele><time>2026-04-24T22:29:42.556Z</time></trkpt><trkpt lat="37.8540117" lon="15.3008983"><ele>23.666666666666668</ele><time>2026-04-24T22:29:43.556Z</time></trkpt><trkpt lat="37.8539367" lon="15.3009067"><ele>26.333333333333336</ele><time>2026-04-24T22:29:44.556Z</time></trkpt><trkpt lat="37.8538633" lon="15.3008983"><ele>29.0</ele><time>2026-04-24T22:29:45.557Z</time></trkpt><trkpt lat="37.8538" lon="15.30087"><ele>31.666666666666668</ele><time>2026-04-24T22:29:46.557Z</time></trkpt><trkpt lat="37.8537417" lon="15.300815"><ele>34.333333333333336</ele><time>2026-04-24T22:29:47.556Z</time></trkpt><trkpt lat="37.8536917" lon="15.3007283"><ele>37.0</ele><time>2026-04-24T22:29:48.556Z</time></trkpt><trkpt lat="37.853665" lon="15.300625"><ele>39.400000000000006</ele><time>2026-04-24T22:29:49.557Z</time></trkpt><trkpt lat="37.8536567" lon="15.3005033"><ele>41.800000000000004</ele><time>2026-04-24T22:29:50.557Z</time></trkpt><trkpt lat="37.8536483" lon="15.3003683"><ele>44.2</ele><time>2026-04-24T22:29:51.557Z</time></trkpt><trkpt lat="37.8536433" lon="15.3002267"><ele>46.6</ele><time>2026-04-24T22:29:52.557Z</time></trkpt><trkpt lat="37.8536167" lon="15.3000783"><ele>49.0</ele><time>2026-04-24T22:29:53.557Z</time></trkpt><trkpt lat="37.853575" lon="15.2999417"><ele>49.0</ele><time>2026-04-24T22:29:54.556Z</time></trkpt><trkpt lat="37.85351" lon="15.29981"><ele>49.0</ele><time>2026-04-24T22:29:55.557Z</time></trkpt><trkpt lat="37.8534417" lon="15.2996667"><ele>49.0</ele><time>2026-04-24T22:29:56.557Z</time></trkpt><trkpt lat="37.8533617" lon="15.29954"><ele>49.0</ele><time>2026-04-24T22:29:57.557Z</time></trkpt><trkpt lat="37.8532733" lon="15.2994117"><ele>49.0</ele><time>2026-04-24T22:29:58.556Z</time></trkpt><trkpt lat="37.853185" lon="15.299275"><ele>49.0</ele><time>2026-04-24T22:29:59.557Z</time></trkpt><trkpt lat="37.8530917" lon="15.2991383"><ele>49.0</ele><time>2026-04-24T22:30:00.557Z</time></trkpt><trkpt lat="37.852995" lon="15.2990083"><ele>49.0</ele><time>2026-04-24T22:30:01.557Z</time></trkpt><trkpt lat="37.85289" lon="15.298885"><ele>48.5</ele><time>2026-04-24T22:30:02.556Z</time></trkpt><trkpt lat="37.8527767" lon="15.298775"><ele>48.0</ele><time>2026-04-24T22:30:03.556Z</time></trkpt><trkpt lat="37.8526533" lon="15.298685"><ele>47.5</ele><time>2026-04-24T22:30:04.556Z</time></trkpt><trkpt lat="37.8525333" lon="15.298595"><ele>47.0</ele><time>2026-04-24T22:30:05.556Z</time></trkpt><trkpt lat="37.8524183" lon="15.298505"><ele>47.0</ele><time>2026-04-24T22:30:06.557Z</time></trkpt><trkpt lat="37.852305" lon="15.298415"><ele>47.0</ele><time>2026-04-24T22:30:07.556Z</time></trkpt><trkpt lat="37.852195" lon="15.2983217"><ele>47.0</ele><time>2026-04-24T22:30:08.557Z</time></trkpt><trkpt lat="37.8520917" lon="15.2982067"><ele>47.0</ele><time>2026-04-24T22:30:09.557Z</time></trkpt><trkpt lat="37.8519917" lon="15.2980783"><ele>47.0</ele><time>2026-04-24T22:30:10.556Z</time></trkpt><trkpt lat="37.85189" lon="15.2979533"><ele>47.0</ele><time>2026-04-24T22:30:11.557Z</time></trkpt><trkpt lat="37.8517833" lon="15.2978317"><ele>47.0</ele><time>2026-04-24T22:30:12.557Z</time></trkpt><trkpt lat="37.85169" lon="15.2977133"><ele>47.0</ele><time>2026-04-24T22:30:13.557Z</time></trkpt><trkpt lat="37.8516" lon="15.297585"><ele>47.0</ele><time>2026-04-24T22:30:14.557Z</time></trkpt><trkpt lat="37.8515183" lon="15.2974367"><ele>47.0</ele><time>2026-04-24T22:30:15.556Z</time></trkpt><trkpt lat="37.8514383" lon="15.297285"><ele>47.0</ele><time>2026-04-24T22:30:16.556Z</time></trkpt><trkpt lat="37.8513533" lon="15.297135"><ele>47.0</ele><time>2026-04-24T22:30:17.556Z</time></trkpt><trkpt lat="37.8512583" lon="15.296995"><ele>51.25</ele><time>2026-04-24T22:30:18.556Z</time></trkpt><trkpt lat="37.8511533" lon="15.2968667"><ele>55.5</ele><time>2026-04-24T22:30:19.556Z</time></trkpt><trkpt lat="37.8510383" lon="15.2967533"><ele>59.75</ele><time>2026-04-24T22:30:20.557Z</time></trkpt><trkpt lat="37.850915" lon="15.2966467"><ele>64.0</ele><time>2026-04-24T22:30:21.557Z</time></trkpt><trkpt lat="37.8507867" lon="15.2965417"><ele>64.0</ele><time>2026-04-24T22:30:22.556Z</time></trkpt><trkpt lat="37.8506583" lon="15.2964267"><ele>64.0</ele><time>2026-04-24T22:30:23.557Z</time></trkpt><trkpt lat="37.850525" lon="15.2963567"><ele>64.0</ele><time>2026-04-24T22:30:24.557Z</time></trkpt><trkpt lat="37.8503933" lon="15.29629"><ele>64.0</ele><time>2026-04-24T22:30:25.557Z</time></trkpt><trkpt lat="37.8502533" lon="15.296235"><ele>81.66666666666666</ele><time>2026-04-24T22:30:26.556Z</time></trkpt><trkpt lat="37.8501083" lon="15.2961867"><ele>99.33333333333333</ele><time>2026-04-24T22:30:27.556Z</time></trkpt><trkpt lat="37.849965" lon="15.2961617"><ele>117.0</ele><time>2026-04-24T22:30:28.556Z</time></trkpt><trkpt lat="37.8498083" lon="15.2961617"><ele>117.0</ele><time>2026-04-24T22:30:29.557Z</time></trkpt><trkpt lat="37.8496533" lon="15.29616"><ele>117.0</ele><time>2026-04-24T22:30:30.556Z</time></trkpt><trkpt lat="37.8495083" lon="15.2961667"><ele>117.0</ele><time>2026-04-24T22:30:31.556Z</time></trkpt><trkpt lat="37.8493467" lon="15.296115"><ele>105.33333333333333</ele><time>2026-04-24T22:30:32.557Z</time></trkpt><trkpt lat="37.8491967" lon="15.2961317"><ele>93.66666666666666</ele><time>2026-04-24T22:30:33.557Z</time></trkpt><trkpt lat="37.8490467" lon="15.2961683"><ele>82.0</ele><time>2026-04-24T22:30:34.557Z</time></trkpt><trkpt lat="37.8488917" lon="15.2962117"><ele>82.0</ele><time>2026-04-24T22:30:35.557Z</time></trkpt><trkpt lat="37.8487417" lon="15.2962767"><ele>82.0</ele><time>2026-04-24T22:30:36.557Z</time></trkpt><trkpt lat="37.8486033" lon="15.2963617"><ele>82.0</ele><time>2026-04-24T22:30:37.557Z</time></trkpt><trkpt lat="37.8484667" lon="15.29645"><ele>73.0</ele><time>2026-04-24T22:30:38.557Z</time></trkpt><trkpt lat="37.8483317" lon="15.2965383"><ele>64.0</ele><time>2026-04-24T22:30:39.556Z</time></trkpt><trkpt lat="37.8481917" lon="15.2966333"><ele>55.0</ele><time>2026-04-24T22:30:40.557Z</time></trkpt><trkpt lat="37.8480533" lon="15.2967283"><ele>55.0</ele><time>2026-04-24T22:30:41.557Z</time></trkpt><trkpt lat="37.847915" lon="15.2968183"><ele>55.0</ele><time>2026-04-24T22:30:42.556Z</time></trkpt><trkpt lat="37.8477733" lon="15.29691"><ele>55.0</ele><time>2026-04-24T22:30:43.557Z</time></trkpt><trkpt lat="37.8476383" lon="15.2970083"><ele>57.5</ele><time>2026-04-24T22:30:44.557Z</time></trkpt><trkpt lat="37.8475167" lon="15.2970933"><ele>60.0</ele><time>2026-04-24T22:30:45.557Z</time></trkpt><trkpt lat="37.8474033" lon="15.2971667"><ele>62.5</ele><time>2026-04-24T22:30:46.556Z</time></trkpt><trkpt lat="37.847305" lon="15.297225"><ele>65.0</ele><time>2026-04-24T22:30:47.557Z</time></trkpt><trkpt lat="37.8472033" lon="15.29726"><ele>65.0</ele><time>2026-04-24T22:30:48.557Z</time></trkpt><trkpt lat="37.8471033" lon="15.2972683"><ele>65.0</ele><time>2026-04-24T22:30:49.556Z</time></trkpt><trkpt lat="37.8470017" lon="15.2972383"><ele>65.0</ele><time>2026-04-24T22:30:50.557Z</time></trkpt><trkpt lat="37.8469117" lon="15.29719"><ele>65.0</ele><time>2026-04-24T22:30:51.557Z</time></trkpt><trkpt lat="37.846835" lon="15.2971117"><ele>65.0</ele><time>2026-04-24T22:30:52.557Z</time></trkpt><trkpt lat="37.84676" lon="15.2970183"><ele>64.0</ele><time>2026-04-24T22:30:53.556Z</time></trkpt><trkpt lat="37.8466733" lon="15.2969183"><ele>63.0</ele><time>2026-04-24T22:30:54.557Z</time></trkpt><trkpt lat="37.8465883" lon="15.2968183"><ele>62.0</ele><time>2026-04-24T22:30:55.557Z</time></trkpt><trkpt lat="37.8465183" lon="15.296715"><ele>61.0</ele><time>2026-04-24T22:30:56.556Z</time></trkpt><trkpt lat="37.8464667" lon="15.2966033"><ele>60.0</ele><time>2026-04-24T22:30:57.557Z</time></trkpt><trkpt lat="37.846435" lon="15.2964717"><ele>60.25</ele><time>2026-04-24T22:30:58.557Z</time></trkpt><trkpt lat="37.8464217" lon="15.296325"><ele>60.5</ele><time>2026-04-24T22:30:59.556Z</time></trkpt><trkpt lat="37.8464233" lon="15.29617"><ele>60.75</ele><time>2026-04-24T22:31:00.557Z</time></trkpt><trkpt lat="37.8464233" lon="15.2960117"><ele>61.0</ele><time>2026-04-24T22:31:01.557Z</time></trkpt><trkpt lat="37.8464333" lon="15.2958583"><ele>61.0</ele><time>2026-04-24T22:31:02.557Z</time></trkpt><trkpt lat="37.846455" lon="15.2957183"><ele>60.99999999999999</ele><time>2026-04-24T22:31:03.556Z</time></trkpt><trkpt lat="37.8464817" lon="15.2955833"><ele>60.99999999999999</ele><time>2026-04-24T22:31:04.557Z</time></trkpt><trkpt lat="37.84652" lon="15.29546"><ele>61.0</ele><time>2026-04-24T22:31:05.556Z</time></trkpt><trkpt lat="37.84658" lon="15.2953433"><ele>61.0</ele><time>2026-04-24T22:31:06.557Z</time></trkpt><trkpt lat="37.846665" lon="15.2952317"><ele>58.0</ele><time>2026-04-24T22:31:07.556Z</time></trkpt><trkpt lat="37.8467617" lon="15.295115"><ele>55.0</ele><time>2026-04-24T22:31:08.556Z</time></trkpt><trkpt lat="37.8468717" lon="15.294995"><ele>52.0</ele><time>2026-04-24T22:31:09.556Z</time></trkpt><trkpt lat="37.8469867" lon="15.294865"><ele>49.0</ele><time>2026-04-24T22:31:10.556Z</time></trkpt><trkpt lat="37.8471" lon="15.294715"><ele>49.0</ele><time>2026-04-24T22:31:11.557Z</time></trkpt><trkpt lat="37.8472067" lon="15.294565"><ele>49.0</ele><time>2026-04-24T22:31:12.556Z</time></trkpt><trkpt lat="37.84731" lon="15.2944117"><ele>49.0</ele><time>2026-04-24T22:31:13.557Z</time></trkpt><trkpt lat="37.847415" lon="15.2942517"><ele>49.0</ele><time>2026-04-24T22:31:14.556Z</time></trkpt><trkpt lat="37.84751" lon="15.2940883"><ele>49.0</ele><time>2026-04-24T22:31:15.557Z</time></trkpt><trkpt lat="37.8475983" lon="15.2939333"><ele>49.0</ele><time>2026-04-24T22:31:16.557Z</time></trkpt><trkpt lat="37.8476817" lon="15.29378"><ele>55.75</ele><time>2026-04-24T22:31:17.557Z</time></trkpt><trkpt lat="37.84777" lon="15.29364"><ele>62.5</ele><time>2026-04-24T22:31:18.556Z</time></trkpt><trkpt lat="37.8478617" lon="15.2934983"><ele>69.25</ele><time>2026-04-24T22:31:19.557Z</time></trkpt><trkpt lat="37.8479567" lon="15.2933733"><ele>76.0</ele><time>2026-04-24T22:31:20.556Z</time></trkpt><trkpt lat="37.8480367" lon="15.2932667"><ele>76.0</ele><time>2026-04-24T22:31:21.556Z</time></trkpt><trkpt lat="37.8480983" lon="15.2931567"><ele>76.0</ele><time>2026-04-24T22:31:22.557Z</time></trkpt><trkpt lat="37.8481367" lon="15.293065"><ele>76.0</ele><time>2026-04-24T22:31:23.557Z</time></trkpt><trkpt lat="37.84814" lon="15.292965"><ele>76.0</ele><time>2026-04-24T22:31:24.557Z</time></trkpt><trkpt lat="37.8481033" lon="15.292855"><ele>76.0</ele><time>2026-04-24T22:31:25.557Z</time></trkpt><trkpt lat="37.8480433" lon="15.2927417"><ele>73.75</ele><time>2026-04-24T22:31:26.557Z</time></trkpt><trkpt lat="37.8479917" lon="15.292605"><ele>71.5</ele><time>2026-04-24T22:31:27.556Z</time></trkpt><trkpt lat="37.8479433" lon="15.2924433"><ele>69.25</ele><time>2026-04-24T22:31:28.556Z</time></trkpt><trkpt lat="37.8479033" lon="15.2922867"><ele>67.0</ele><time>2026-04-24T22:31:29.557Z</time></trkpt><trkpt lat="37.84787" lon="15.2921483"><ele>67.0</ele><time>2026-04-24T22:31:30.556Z</time></trkpt><trkpt lat="37.8478417" lon="15.292025"><ele>67.0</ele><time>2026-04-24T22:31:31.556Z</time></trkpt><trkpt lat="37.8478233" lon="15.2919083"><ele>67.0</ele><time>2026-04-24T22:31:32.557Z</time></trkpt><trkpt lat="37.8478233" lon="15.291775"><ele>67.0</ele><time>2026-04-24T22:31:33.556Z</time></trkpt><trkpt lat="37.8478333" lon="15.29165"><ele>67.0</ele><time>2026-04-24T22:31:34.557Z</time></trkpt><trkpt lat="37.8478483" lon="15.2915383"><ele>63.6</ele><time>2026-04-24T22:31:35.556Z</time></trkpt><trkpt lat="37.8478717" lon="15.29142"><ele>60.2</ele><time>2026-04-24T22:31:36.557Z</time></trkpt><trkpt lat="37.8479" lon="15.291305"><ele>56.8</ele><time>2026-04-24T22:31:37.557Z</time></trkpt><trkpt lat="37.8479267" lon="15.291195"><ele>53.4</ele><time>2026-04-24T22:31:38.556Z</time></trkpt><trkpt lat="37.84797" lon="15.291095"><ele>50.0</ele><time>2026-04-24T22:31:39.557Z</time></trkpt><trkpt lat="37.8480283" lon="15.2910033"><ele>50.0</ele><time>2026-04-24T22:31:40.557Z</time></trkpt><trkpt lat="37.8480917" lon="15.2908967"><ele>50.0</ele><time>2026-04-24T22:31:41.557Z</time></trkpt><trkpt lat="37.8481683" lon="15.2907783"><ele>50.0</ele><time>2026-04-24T22:31:42.557Z</time></trkpt><trkpt lat="37.8482517" lon="15.2906417"><ele>50.0</ele><time>2026-04-24T22:31:43.557Z</time></trkpt><trkpt lat="37.8483317" lon="15.2904867"><ele>45.0</ele><time>2026-04-24T22:31:44.556Z</time></trkpt><trkpt lat="37.848405" lon="15.2903383"><ele>40.0</ele><time>2026-04-24T22:31:45.556Z</time></trkpt><trkpt lat="37.8484667" lon="15.2901967"><ele>35.0</ele><time>2026-04-24T22:31:46.557Z</time></trkpt><trkpt lat="37.8485117" lon="15.2900517"><ele>30.0</ele><time>2026-04-24T22:31:47.557Z</time></trkpt><trkpt lat="37.8485283" lon="15.2898867"><ele>39.75</ele><time>2026-04-24T22:31:48.557Z</time></trkpt><trkpt lat="37.8485317" lon="15.2897167"><ele>49.5</ele><time>2026-04-24T22:31:49.557Z</time></trkpt><trkpt lat="37.8485317" lon="15.289545"><ele>59.25</ele><time>2026-04-24T22:31:50.556Z</time></trkpt><trkpt lat="37.8485267" lon="15.289355"><ele>69.0</ele><time>2026-04-24T22:31:51.557Z</time></trkpt><trkpt lat="37.84852" lon="15.2891683"><ele>69.0</ele><time>2026-04-24T22:31:52.556Z</time></trkpt><trkpt lat="37.8485083" lon="15.2889783"><ele>69.0</ele><time>2026-04-24T22:31:53.556Z</time></trkpt><trkpt lat="37.8484883" lon="15.2887867"><ele>69.0</ele><time>2026-04-24T22:31:54.556Z</time></trkpt><trkpt lat="37.8484683" lon="15.2885967"><ele>55.75</ele><time>2026-04-24T22:31:55.557Z</time></trkpt><trkpt lat="37.8484533" lon="15.2884183"><ele>42.5</ele><time>2026-04-24T22:31:56.556Z</time></trkpt><trkpt lat="37.8484433" lon="15.2882267"><ele>29.25</ele><time>2026-04-24T22:31:57.556Z</time></trkpt><trkpt lat="37.8484367" lon="15.2880317"><ele>16.0</ele><time>2026-04-24T22:31:58.557Z</time></trkpt><trkpt lat="37.8484367" lon="15.2878333"><ele>16.0</ele><time>2026-04-24T22:31:59.556Z</time></trkpt><trkpt lat="37.8484417" lon="15.2876367"><ele>16.0</ele><time>2026-04-24T22:32:00.557Z</time></trkpt><trkpt lat="37.848445" lon="15.2874433"><ele>16.0</ele><time>2026-04-24T22:32:01.556Z</time></trkpt><trkpt lat="37.84844" lon="15.2872467"><ele>17.0</ele><time>2026-04-24T22:32:02.556Z</time></trkpt><trkpt lat="37.8484183" lon="15.2870467"><ele>18.0</ele><time>2026-04-24T22:32:03.556Z</time></trkpt><trkpt lat="37.8483867" lon="15.28684"><ele>19.0</ele><time>2026-04-24T22:32:04.557Z</time></trkpt><trkpt lat="37.8483633" lon="15.28664"><ele>19.0</ele><time>2026-04-24T22:32:05.557Z</time></trkpt><trkpt lat="37.8483483" lon="15.28645"><ele>19.0</ele><time>2026-04-24T22:32:06.557Z</time></trkpt><trkpt lat="37.84833" lon="15.2862683"><ele>19.0</ele><time>2026-04-24T22:32:07.557Z</time></trkpt><trkpt lat="37.8483017" lon="15.28609"><ele>19.0</ele><time>2026-04-24T22:32:08.556Z</time></trkpt><trkpt lat="37.8482567" lon="15.2859167"><ele>21.333333333333332</ele><time>2026-04-24T22:32:09.557Z</time></trkpt><trkpt lat="37.8481983" lon="15.285745"><ele>23.666666666666664</ele><time>2026-04-24T22:32:10.556Z</time></trkpt><trkpt lat="37.8481233" lon="15.2855833"><ele>26.0</ele><time>2026-04-24T22:32:11.557Z</time></trkpt><trkpt lat="37.848035" lon="15.2854133"><ele>27.333333333333332</ele><time>2026-04-24T22:32:12.557Z</time></trkpt><trkpt lat="37.8479333" lon="15.28526"><ele>28.666666666666664</ele><time>2026-04-24T22:32:13.557Z</time></trkpt><trkpt lat="37.84783" lon="15.2851017"><ele>30.0</ele><time>2026-04-24T22:32:14.557Z</time></trkpt><trkpt lat="37.847745" lon="15.2849233"><ele>29.333333333333336</ele><time>2026-04-24T22:32:15.557Z</time></trkpt><trkpt lat="37.8476567" lon="15.2847617"><ele>28.666666666666668</ele><time>2026-04-24T22:32:16.557Z</time></trkpt><trkpt lat="37.8475683" lon="15.2845983"><ele>28.0</ele><time>2026-04-24T22:32:17.557Z</time></trkpt><trkpt lat="37.8474867" lon="15.28445"><ele>28.0</ele><time>2026-04-24T22:32:18.556Z</time></trkpt><trkpt lat="37.847405" lon="15.2843033"><ele>28.0</ele><time>2026-04-24T22:32:19.556Z</time></trkpt><trkpt lat="37.84732" lon="15.2841617"><ele>28.0</ele><time>2026-04-24T22:32:20.557Z</time></trkpt><trkpt lat="37.847235" lon="15.2840267"><ele>28.0</ele><time>2026-04-24T22:32:21.556Z</time></trkpt><trkpt lat="37.8471433" lon="15.2838917"><ele>27.75</ele><time>2026-04-24T22:32:22.556Z</time></trkpt><trkpt lat="37.84705" lon="15.2837533"><ele>27.5</ele><time>2026-04-24T22:32:23.557Z</time></trkpt><trkpt lat="37.8469583" lon="15.2836317"><ele>27.25</ele><time>2026-04-24T22:32:24.556Z</time></trkpt><trkpt lat="37.84687" lon="15.2835283"><ele>27.0</ele><time>2026-04-24T22:32:25.556Z</time></trkpt><trkpt lat="37.846775" lon="15.2834217"><ele>27.0</ele><time>2026-04-24T22:32:26.557Z</time></trkpt><trkpt lat="37.8466717" lon="15.2833233"><ele>27.0</ele><time>2026-04-24T22:32:27.556Z</time></trkpt><trkpt lat="37.8465583" lon="15.283225"><ele>27.0</ele><time>2026-04-24T22:32:28.557Z</time></trkpt><trkpt lat="37.8464383" lon="15.2831367"><ele>27.0</ele><time>2026-04-24T22:32:29.556Z</time></trkpt><trkpt lat="37.846315" lon="15.283065"><ele>25.0</ele><time>2026-04-24T22:32:30.556Z</time></trkpt><trkpt lat="37.846195" lon="15.2830017"><ele>23.0</ele><time>2026-04-24T22:32:31.556Z</time></trkpt><trkpt lat="37.8460783" lon="15.2829317"><ele>21.0</ele><time>2026-04-24T22:32:32.556Z</time></trkpt><trkpt lat="37.8459733" lon="15.2828183"><ele>19.0</ele><time>2026-04-24T22:32:33.556Z</time></trkpt><trkpt lat="37.845865" lon="15.2826917"><ele>19.0</ele><time>2026-04-24T22:32:34.556Z</time></trkpt><trkpt lat="37.8457667" lon="15.2825533"><ele>19.0</ele><time>2026-04-24T22:32:35.556Z</time></trkpt><trkpt lat="37.8456633" lon="15.2824433"><ele>19.0</ele><time>2026-04-24T22:32:36.557Z</time></trkpt><trkpt lat="37.8455767" lon="15.2823433"><ele>19.0</ele><time>2026-04-24T22:32:37.557Z</time></trkpt><trkpt lat="37.8454817" lon="15.2822517"><ele>21.25</ele><time>2026-04-24T22:32:38.557Z</time></trkpt><trkpt lat="37.8453933" lon="15.2821683"><ele>23.5</ele><time>2026-04-24T22:32:39.556Z</time></trkpt><trkpt lat="37.8453" lon="15.2820883"><ele>25.75</ele><time>2026-04-24T22:32:40.557Z</time></trkpt><trkpt lat="37.8452" lon="15.281995"><ele>28.0</ele><time>2026-04-24T22:32:41.556Z</time></trkpt><trkpt lat="37.8450883" lon="15.2818983"><ele>28.0</ele><time>2026-04-24T22:32:42.556Z</time></trkpt><trkpt lat="37.8449717" lon="15.28179"><ele>28.0</ele><time>2026-04-24T22:32:43.557Z</time></trkpt><trkpt lat="37.8448567" lon="15.2816817"><ele>28.0</ele><time>2026-04-24T22:32:44.557Z</time></trkpt><trkpt lat="37.8447383" lon="15.281575"><ele>28.0</ele><time>2026-04-24T22:32:45.556Z</time></trkpt><trkpt lat="37.8446217" lon="15.2814567"><ele>24.75</ele><time>2026-04-24T22:32:46.557Z</time></trkpt><trkpt lat="37.8445117" lon="15.28132"><ele>21.5</ele><time>2026-04-24T22:32:47.556Z</time></trkpt><trkpt lat="37.8444067" lon="15.2811833"><ele>18.25</ele><time>2026-04-24T22:32:48.557Z</time></trkpt><trkpt lat="37.8443083" lon="15.2810567"><ele>15.0</ele><time>2026-04-24T22:32:49.556Z</time></trkpt><trkpt lat="37.8442167" lon="15.28093"><ele>15.0</ele><time>2026-04-24T22:32:50.556Z</time></trkpt><trkpt lat="37.8441317" lon="15.2808083"><ele>15.0</ele><time>2026-04-24T22:32:51.557Z</time></trkpt><trkpt lat="37.844055" lon="15.2806983"><ele>15.0</ele><time>2026-04-24T22:32:52.557Z</time></trkpt><trkpt lat="37.8439817" lon="15.2805933"><ele>15.0</ele><time>2026-04-24T22:32:53.556Z</time></trkpt><trkpt lat="37.8439067" lon="15.2804817"><ele>16.0</ele><time>2026-04-24T22:32:54.557Z</time></trkpt><trkpt lat="37.843835" lon="15.2803833"><ele>17.0</ele><time>2026-04-24T22:32:55.557Z</time></trkpt><trkpt lat="37.843765" lon="15.280295"><ele>18.0</ele><time>2026-04-24T22:32:56.556Z</time></trkpt><trkpt lat="37.843705" lon="15.28021"><ele>19.0</ele><time>2026-04-24T22:32:57.556Z</time></trkpt><trkpt lat="37.84362" lon="15.2801283"><ele>20.0</ele><time>2026-04-24T22:32:58.556Z</time></trkpt><trkpt lat="37.84354" lon="15.28003"><ele>19.5</ele><time>2026-04-24T22:32:59.557Z</time></trkpt><trkpt lat="37.8434633" lon="15.279935"><ele>19.0</ele><time>2026-04-24T22:33:00.557Z</time></trkpt><trkpt lat="37.8433933" lon="15.279855"><ele>18.5</ele><time>2026-04-24T22:33:01.557Z</time></trkpt><trkpt lat="37.8433367" lon="15.2797867"><ele>18.0</ele><time>2026-04-24T22:33:02.556Z</time></trkpt><trkpt lat="37.8432917" lon="15.2797283"><ele>17.5</ele><time>2026-04-24T22:33:03.557Z</time></trkpt><trkpt lat="37.843245" lon="15.27967"><ele>17.0</ele><time>2026-04-24T22:33:04.556Z</time></trkpt><trkpt lat="37.8431967" lon="15.2796183"><ele>17.0</ele><time>2026-04-24T22:33:05.556Z</time></trkpt><trkpt lat="37.8430883" lon="15.2795667"><ele>17.0</ele><time>2026-04-24T22:33:07.557Z</time></trkpt><trkpt lat="37.8430167" lon="15.2795767"><ele>17.0</ele><time>2026-04-24T22:33:08.557Z</time></trkpt><trkpt lat="37.84294" lon="15.2796117"><ele>17.0</ele><time>2026-04-24T22:33:09.556Z</time></trkpt><trkpt lat="37.8428667" lon="15.27967"><ele>17.0</ele><time>2026-04-24T22:33:10.557Z</time></trkpt><trkpt lat="37.8428017" lon="15.2797217"><ele>17.0</ele><time>2026-04-24T22:33:11.556Z</time></trkpt><trkpt lat="37.8427167" lon="15.2798133"><ele>16.4</ele><time>2026-04-24T22:33:13.557Z</time></trkpt><trkpt lat="37.8426433" lon="15.2798683"><ele>15.799999999999999</ele><time>2026-04-24T22:33:15.557Z</time></trkpt><trkpt lat="37.842565" lon="15.2798867"><ele>15.2</ele><time>2026-04-24T22:33:17.557Z</time></trkpt><trkpt lat="37.8424517" lon="15.27979"><ele>14.6</ele><time>2026-04-24T22:33:19.556Z</time></trkpt><trkpt lat="37.8423817" lon="15.279725"><ele>14.0</ele><time>2026-04-24T22:33:20.557Z</time></trkpt><trkpt lat="37.8423" lon="15.279655"><ele>14.000000000000002</ele><time>2026-04-24T22:33:21.557Z</time></trkpt><trkpt lat="37.8422267" lon="15.27958"><ele>14.0</ele><time>2026-04-24T22:33:22.557Z</time></trkpt><trkpt lat="37.8421667" lon="15.2795017"><ele>14.0</ele><time>2026-04-24T22:33:23.556Z</time></trkpt><trkpt lat="37.8421133" lon="15.2794217"><ele>14.0</ele><time>2026-04-24T22:33:24.557Z</time></trkpt><trkpt lat="37.8420683" lon="15.2793283"><ele>14.000000000000002</ele><time>2026-04-24T22:33:25.557Z</time></trkpt><trkpt lat="37.8420233" lon="15.27923"><ele>14.0</ele><time>2026-04-24T22:33:26.557Z</time></trkpt><trkpt lat="37.8419967" lon="15.2791133"><ele>14.0</ele><time>2026-04-24T22:33:27.557Z</time></trkpt><trkpt lat="37.8419633" lon="15.2790017"><ele>13.999999999999998</ele><time>2026-04-24T22:33:28.557Z</time></trkpt><trkpt lat="37.841915" lon="15.2788917"><ele>13.999999999999998</ele><time>2026-04-24T22:33:29.557Z</time></trkpt><trkpt lat="37.8418467" lon="15.2788033"><ele>14.0</ele><time>2026-04-24T22:33:30.556Z</time></trkpt><trkpt lat="37.8417717" lon="15.2787217"><ele>14.0</ele><time>2026-04-24T22:33:31.556Z</time></trkpt><trkpt lat="37.8417033" lon="15.2786483"><ele>15.2</ele><time>2026-04-24T22:33:32.557Z</time></trkpt><trkpt lat="37.8416433" lon="15.2785733"><ele>16.4</ele><time>2026-04-24T22:33:33.557Z</time></trkpt><trkpt lat="37.841585" lon="15.278495"><ele>17.6</ele><time>2026-04-24T22:33:34.557Z</time></trkpt><trkpt lat="37.8415183" lon="15.278405"><ele>18.8</ele><time>2026-04-24T22:33:35.557Z</time></trkpt><trkpt lat="37.841455" lon="15.2783117"><ele>20.0</ele><time>2026-04-24T22:33:36.557Z</time></trkpt><trkpt lat="37.84139" lon="15.2782167"><ele>20.0</ele><time>2026-04-24T22:33:37.556Z</time></trkpt><trkpt lat="37.8413317" lon="15.27813"><ele>20.0</ele><time>2026-04-24T22:33:38.557Z</time></trkpt><trkpt lat="37.841275" lon="15.2780467"><ele>20.0</ele><time>2026-04-24T22:33:39.557Z</time></trkpt><trkpt lat="37.8412133" lon="15.27798"><ele>20.0</ele><time>2026-04-24T22:33:40.556Z</time></trkpt><trkpt lat="37.8411567" lon="15.2779083"><ele>20.0</ele><time>2026-04-24T22:33:41.556Z</time></trkpt><trkpt lat="37.8410967" lon="15.2778283"><ele>20.0</ele><time>2026-04-24T22:33:42.556Z</time></trkpt><trkpt lat="37.8410467" lon="15.27774"><ele>19.4</ele><time>2026-04-24T22:33:43.556Z</time></trkpt><trkpt lat="37.8409817" lon="15.2776483"><ele>18.8</ele><time>2026-04-24T22:33:44.557Z</time></trkpt><trkpt lat="37.840915" lon="15.2775583"><ele>18.2</ele><time>2026-04-24T22:33:45.557Z</time></trkpt><trkpt lat="37.8408467" lon="15.2774733"><ele>17.6</ele><time>2026-04-24T22:33:46.556Z</time></trkpt><trkpt lat="37.8407817" lon="15.27738"><ele>17.0</ele><time>2026-04-24T22:33:47.556Z</time></trkpt><trkpt lat="37.8407067" lon="15.2772933"><ele>20.0</ele><time>2026-04-24T22:33:48.556Z</time></trkpt><trkpt lat="37.8406367" lon="15.277205"><ele>23.0</ele><time>2026-04-24T22:33:49.557Z</time></trkpt><trkpt lat="37.84057" lon="15.2771217"><ele>26.000000000000004</ele><time>2026-04-24T22:33:50.556Z</time></trkpt><trkpt lat="37.8404933" lon="15.2770467"><ele>29.0</ele><time>2026-04-24T22:33:51.557Z</time></trkpt><trkpt lat="37.8404083" lon="15.2769783"><ele>32.0</ele><time>2026-04-24T22:33:52.556Z</time></trkpt><trkpt lat="37.840315" lon="15.2769183"><ele>32.0</ele><time>2026-04-24T22:33:53.556Z</time></trkpt><trkpt lat="37.8402233" lon="15.276855"><ele>32.0</ele><time>2026-04-24T22:33:54.556Z</time></trkpt><trkpt lat="37.840145" lon="15.2767867"><ele>32.0</ele><time>2026-04-24T22:33:55.556Z</time></trkpt><trkpt lat="37.84006" lon="15.2767267"><ele>32.0</ele><time>2026-04-24T22:33:56.557Z</time></trkpt><trkpt lat="37.83997" lon="15.27666"><ele>32.0</ele><time>2026-04-24T22:33:57.557Z</time></trkpt><trkpt lat="37.83987" lon="15.276595"><ele>30.5</ele><time>2026-04-24T22:33:58.557Z</time></trkpt><trkpt lat="37.8397483" lon="15.2765333"><ele>29.0</ele><time>2026-04-24T22:33:59.557Z</time></trkpt><trkpt lat="37.8396333" lon="15.2764667"><ele>27.5</ele><time>2026-04-24T22:34:00.557Z</time></trkpt><trkpt lat="37.8395267" lon="15.276405"><ele>26.0</ele><time>2026-04-24T22:34:01.557Z</time></trkpt><trkpt lat="37.8394283" lon="15.2763533"><ele>26.0</ele><time>2026-04-24T22:34:02.556Z</time></trkpt><trkpt lat="37.8393333" lon="15.2763033"><ele>26.0</ele><time>2026-04-24T22:34:03.556Z</time></trkpt><trkpt lat="37.8392483" lon="15.2762617"><ele>26.0</ele><time>2026-04-24T22:34:04.556Z</time></trkpt><trkpt lat="37.8391583" lon="15.2762167"><ele>26.0</ele><time>2026-04-24T22:34:05.556Z</time></trkpt><trkpt lat="37.8390667" lon="15.2761717"><ele>26.0</ele><time>2026-04-24T22:34:06.556Z</time></trkpt><trkpt lat="37.8389767" lon="15.2761183"><ele>24.6</ele><time>2026-04-24T22:34:07.556Z</time></trkpt><trkpt lat="37.8388817" lon="15.2760567"><ele>23.200000000000003</ele><time>2026-04-24T22:34:08.557Z</time></trkpt><trkpt lat="37.8387783" lon="15.2760067"><ele>21.799999999999997</ele><time>2026-04-24T22:34:09.557Z</time></trkpt><trkpt lat="37.8386883" lon="15.2759517"><ele>20.4</ele><time>2026-04-24T22:34:10.556Z</time></trkpt><trkpt lat="37.8386067" lon="15.2758817"><ele>19.0</ele><time>2026-04-24T22:34:11.556Z</time></trkpt><trkpt lat="37.8385283" lon="15.2758217"><ele>18.8</ele><time>2026-04-24T22:34:12.557Z</time></trkpt><trkpt lat="37.8384417" lon="15.2757717"><ele>18.599999999999998</ele><time>2026-04-24T22:34:13.556Z</time></trkpt><trkpt lat="37.83836" lon="15.27571"><ele>18.4</ele><time>2026-04-24T22:34:14.556Z</time></trkpt><trkpt lat="37.8382883" lon="15.275635"><ele>18.2</ele><time>2026-04-24T22:34:15.557Z</time></trkpt><trkpt lat="37.8382267" lon="15.2755583"><ele>18.0</ele><time>2026-04-24T22:34:16.556Z</time></trkpt><trkpt lat="37.8381717" lon="15.2754733"><ele>18.0</ele><time>2026-04-24T22:34:17.557Z</time></trkpt><trkpt lat="37.8381167" lon="15.2754067"><ele>18.0</ele><time>2026-04-24T22:34:18.557Z</time></trkpt><trkpt lat="37.8380683" lon="15.275325"><ele>18.0</ele><time>2026-04-24T22:34:19.557Z</time></trkpt><trkpt lat="37.83801" lon="15.2752433"><ele>18.0</ele><time>2026-04-24T22:34:20.557Z</time></trkpt><trkpt lat="37.8379533" lon="15.2751817"><ele>18.0</ele><time>2026-04-24T22:34:21.556Z</time></trkpt><trkpt lat="37.8378967" lon="15.2751017"><ele>18.0</ele><time>2026-04-24T22:34:22.557Z</time></trkpt><trkpt lat="37.837845" lon="15.2750167"><ele>18.0</ele><time>2026-04-24T22:34:23.556Z</time></trkpt><trkpt lat="37.837795" lon="15.2749283"><ele>18.0</ele><time>2026-04-24T22:34:24.557Z</time></trkpt><trkpt lat="37.8377367" lon="15.2748417"><ele>18.0</ele><time>2026-04-24T22:34:25.556Z</time></trkpt><trkpt lat="37.8376767" lon="15.2747517"><ele>18.0</ele><time>2026-04-24T22:34:26.556Z</time></trkpt><trkpt lat="37.83761" lon="15.2746583"><ele>18.0</ele><time>2026-04-24T22:34:27.557Z</time></trkpt><trkpt lat="37.83754" lon="15.27457"><ele>17.4</ele><time>2026-04-24T22:34:28.556Z</time></trkpt><trkpt lat="37.8374767" lon="15.2744717"><ele>16.8</ele><time>2026-04-24T22:34:29.557Z</time></trkpt><trkpt lat="37.8374133" lon="15.27438"><ele>16.2</ele><time>2026-04-24T22:34:30.557Z</time></trkpt><trkpt lat="37.837345" lon="15.2742967"><ele>15.6</ele><time>2026-04-24T22:34:31.556Z</time></trkpt><trkpt lat="37.837285" lon="15.2742033"><ele>15.0</ele><time>2026-04-24T22:34:32.557Z</time></trkpt><trkpt lat="37.83722" lon="15.27412"><ele>15.0</ele><time>2026-04-24T22:34:33.557Z</time></trkpt><trkpt lat="37.8371517" lon="15.27403"><ele>15.0</ele><time>2026-04-24T22:34:34.557Z</time></trkpt><trkpt lat="37.8370783" lon="15.2739267"><ele>15.0</ele><time>2026-04-24T22:34:35.556Z</time></trkpt><trkpt lat="37.8370067" lon="15.273815"><ele>15.0</ele><time>2026-04-24T22:34:36.557Z</time></trkpt><trkpt lat="37.836935" lon="15.2737167"><ele>15.0</ele><time>2026-04-24T22:34:37.556Z</time></trkpt><trkpt lat="37.8368667" lon="15.2736183"><ele>14.2</ele><time>2026-04-24T22:34:38.557Z</time></trkpt><trkpt lat="37.8368033" lon="15.2735267"><ele>13.4</ele><time>2026-04-24T22:34:39.557Z</time></trkpt><trkpt lat="37.8367433" lon="15.2734483"><ele>12.600000000000001</ele><time>2026-04-24T22:34:40.557Z</time></trkpt><trkpt lat="37.836685" lon="15.27337"><ele>11.8</ele><time>2026-04-24T22:34:41.557Z</time></trkpt><trkpt lat="37.8366217" lon="15.27329"><ele>11.0</ele><time>2026-04-24T22:34:42.557Z</time></trkpt><trkpt lat="37.8365517" lon="15.2732083"><ele>11.0</ele><time>2026-04-24T22:34:43.556Z</time></trkpt><trkpt lat="37.83648" lon="15.273115"><ele>11.0</ele><time>2026-04-24T22:34:44.557Z</time></trkpt><trkpt lat="37.8364083" lon="15.27302"><ele>11.0</ele><time>2026-04-24T22:34:45.557Z</time></trkpt><trkpt lat="37.836345" lon="15.2729283"><ele>11.0</ele><time>2026-04-24T22:34:46.557Z</time></trkpt><trkpt lat="37.8362783" lon="15.2728383"><ele>11.0</ele><time>2026-04-24T22:34:47.556Z</time></trkpt><trkpt lat="37.8362217" lon="15.2727483"><ele>11.333333333333332</ele><time>2026-04-24T22:34:48.556Z</time></trkpt><trkpt lat="37.8361667" lon="15.2726683"><ele>11.666666666666666</ele><time>2026-04-24T22:34:49.557Z</time></trkpt><trkpt lat="37.836115" lon="15.27258"><ele>12.0</ele><time>2026-04-24T22:34:50.556Z</time></trkpt><trkpt lat="37.8360633" lon="15.272495"><ele>12.333333333333332</ele><time>2026-04-24T22:34:51.556Z</time></trkpt><trkpt lat="37.8360117" lon="15.272415"><ele>12.666666666666666</ele><time>2026-04-24T22:34:52.557Z</time></trkpt><trkpt lat="37.8359633" lon="15.2723267"><ele>13.0</ele><time>2026-04-24T22:34:53.556Z</time></trkpt><trkpt lat="37.835915" lon="15.27223"><ele>12.999999999999998</ele><time>2026-04-24T22:34:54.557Z</time></trkpt><trkpt lat="37.83586" lon="15.2721283"><ele>13.0</ele><time>2026-04-24T22:34:55.556Z</time></trkpt><trkpt lat="37.8358167" lon="15.2720333"><ele>13.0</ele><time>2026-04-24T22:34:56.557Z</time></trkpt><trkpt lat="37.83577" lon="15.2719467"><ele>13.0</ele><time>2026-04-24T22:34:57.557Z</time></trkpt><trkpt lat="37.835725" lon="15.2718717"><ele>12.999999999999998</ele><time>2026-04-24T22:34:58.556Z</time></trkpt><trkpt lat="37.835675" lon="15.2717983"><ele>13.0</ele><time>2026-04-24T22:34:59.557Z</time></trkpt><trkpt lat="37.8356167" lon="15.2717317"><ele>13.0</ele><time>2026-04-24T22:35:00.556Z</time></trkpt><trkpt lat="37.8355717" lon="15.2716717"><ele>13.0</ele><time>2026-04-24T22:35:01.556Z</time></trkpt><trkpt lat="37.8355067" lon="15.271585"><ele>13.0</ele><time>2026-04-24T22:35:03.557Z</time></trkpt><trkpt lat="37.8354317" lon="15.2715167"><ele>13.0</ele><time>2026-04-24T22:35:05.557Z</time></trkpt><trkpt lat="37.8353283" lon="15.2714333"><ele>13.0</ele><time>2026-04-24T22:35:07.556Z</time></trkpt><trkpt lat="37.8352117" lon="15.2713683"><ele>13.571428571428571</ele><time>2026-04-24T22:35:09.557Z</time></trkpt><trkpt lat="37.8351567" lon="15.2713233"><ele>14.142857142857142</ele><time>2026-04-24T22:35:10.557Z</time></trkpt><trkpt lat="37.8351" lon="15.2712867"><ele>14.714285714285714</ele><time>2026-04-24T22:35:11.556Z</time></trkpt><trkpt lat="37.835035" lon="15.2712417"><ele>15.285714285714285</ele><time>2026-04-24T22:35:12.556Z</time></trkpt><trkpt lat="37.834965" lon="15.2711967"><ele>15.857142857142858</ele><time>2026-04-24T22:35:13.557Z</time></trkpt><trkpt lat="37.8349" lon="15.2711517"><ele>16.428571428571427</ele><time>2026-04-24T22:35:14.557Z</time></trkpt><trkpt lat="37.8348417" lon="15.271105"><ele>17.0</ele><time>2026-04-24T22:35:15.556Z</time></trkpt><trkpt lat="37.834745" lon="15.2710233"><ele>17.0</ele><time>2026-04-24T22:35:17.557Z</time></trkpt><trkpt lat="37.8346467" lon="15.270935"><ele>17.0</ele><time>2026-04-24T22:35:19.556Z</time></trkpt><trkpt lat="37.8345867" lon="15.2708983"><ele>17.0</ele><time>2026-04-24T22:35:20.556Z</time></trkpt><trkpt lat="37.834485" lon="15.2708367"><ele>17.0</ele><time>2026-04-24T22:35:22.557Z</time></trkpt><trkpt lat="37.834425" lon="15.270795"><ele>17.0</ele><time>2026-04-24T22:35:23.556Z</time></trkpt><trkpt lat="37.83436" lon="15.2707533"><ele>17.0</ele><time>2026-04-24T22:35:24.557Z</time></trkpt><trkpt lat="37.8342883" lon="15.2707017"><ele>17.0</ele><time>2026-04-24T22:35:25.557Z</time></trkpt><trkpt lat="37.8342067" lon="15.270645"><ele>17.0</ele><time>2026-04-24T22:35:26.557Z</time></trkpt><trkpt lat="37.834125" lon="15.2705883"><ele>17.0</ele><time>2026-04-24T22:35:27.557Z</time></trkpt><trkpt lat="37.83405" lon="15.2705333"><ele>17.0</ele><time>2026-04-24T22:35:28.556Z</time></trkpt><trkpt lat="37.833985" lon="15.2704833"><ele>17.0</ele><time>2026-04-24T22:35:29.557Z</time></trkpt><trkpt lat="37.8339233" lon="15.2704417"><ele>17.0</ele><time>2026-04-24T22:35:30.557Z</time></trkpt><trkpt lat="37.8338583" lon="15.2704"><ele>16.666666666666668</ele><time>2026-04-24T22:35:31.556Z</time></trkpt><trkpt lat="37.8337883" lon="15.27035"><ele>16.333333333333336</ele><time>2026-04-24T22:35:32.557Z</time></trkpt><trkpt lat="37.8337233" lon="15.2703083"><ele>16.0</ele><time>2026-04-24T22:35:33.557Z</time></trkpt><trkpt lat="37.8336567" lon="15.2702633"><ele>15.666666666666668</ele><time>2026-04-24T22:35:34.557Z</time></trkpt><trkpt lat="37.8335967" lon="15.270205"><ele>15.333333333333334</ele><time>2026-04-24T22:35:35.557Z</time></trkpt><trkpt lat="37.8335283" lon="15.27015"><ele>15.0</ele><time>2026-04-24T22:35:36.556Z</time></trkpt><trkpt lat="37.8334533" lon="15.2700933"><ele>15.0</ele><time>2026-04-24T22:35:37.557Z</time></trkpt><trkpt lat="37.8333733" lon="15.270035"><ele>15.0</ele><time>2026-04-24T22:35:38.556Z</time></trkpt><trkpt lat="37.8332767" lon="15.2699683"><ele>15.0</ele><time>2026-04-24T22:35:39.557Z</time></trkpt><trkpt lat="37.833185" lon="15.269885"><ele>15.0</ele><time>2026-04-24T22:35:40.557Z</time></trkpt><trkpt lat="37.8331067" lon="15.2698133"><ele>15.0</ele><time>2026-04-24T22:35:41.557Z</time></trkpt><trkpt lat="37.83303" lon="15.26975"><ele>15.166666666666666</ele><time>2026-04-24T22:35:42.557Z</time></trkpt><trkpt lat="37.8329567" lon="15.2696933"><ele>15.333333333333332</ele><time>2026-04-24T22:35:43.556Z</time></trkpt><trkpt lat="37.8328933" lon="15.269635"><ele>15.5</ele><time>2026-04-24T22:35:44.557Z</time></trkpt><trkpt lat="37.8328333" lon="15.2695733"><ele>15.666666666666666</ele><time>2026-04-24T22:35:45.557Z</time></trkpt><trkpt lat="37.8327667" lon="15.26951"><ele>15.833333333333332</ele><time>2026-04-24T22:35:46.557Z</time></trkpt><trkpt lat="37.832695" lon="15.2694567"><ele>16.0</ele><time>2026-04-24T22:35:47.556Z</time></trkpt><trkpt lat="37.8326267" lon="15.2694017"><ele>16.0</ele><time>2026-04-24T22:35:48.557Z</time></trkpt><trkpt lat="37.832555" lon="15.2693467"><ele>16.0</ele><time>2026-04-24T22:35:49.557Z</time></trkpt><trkpt lat="37.8324783" lon="15.2692833"><ele>16.0</ele><time>2026-04-24T22:35:50.557Z</time></trkpt><trkpt lat="37.8324" lon="15.26922"><ele>16.0</ele><time>2026-04-24T22:35:51.556Z</time></trkpt><trkpt lat="37.832325" lon="15.2691567"><ele>16.0</ele><time>2026-04-24T22:35:52.556Z</time></trkpt><trkpt lat="37.8322433" lon="15.269095"><ele>16.0</ele><time>2026-04-24T22:35:53.556Z</time></trkpt><trkpt lat="37.8321583" lon="15.2690317"><ele>16.0</ele><time>2026-04-24T22:35:54.556Z</time></trkpt><trkpt lat="37.8320683" lon="15.2689717"><ele>16.0</ele><time>2026-04-24T22:35:55.556Z</time></trkpt><trkpt lat="37.831985" lon="15.268905"><ele>16.0</ele><time>2026-04-24T22:35:56.557Z</time></trkpt><trkpt lat="37.8318983" lon="15.2688367"><ele>16.0</ele><time>2026-04-24T22:35:57.556Z</time></trkpt><trkpt lat="37.8318083" lon="15.26878"><ele>16.400000000000002</ele><time>2026-04-24T22:35:58.556Z</time></trkpt><trkpt lat="37.8317183" lon="15.2687267"><ele>16.8</ele><time>2026-04-24T22:35:59.557Z</time></trkpt><trkpt lat="37.831635" lon="15.268665"><ele>17.200000000000003</ele><time>2026-04-24T22:36:00.556Z</time></trkpt><trkpt lat="37.8315583" lon="15.2686033"><ele>17.6</ele><time>2026-04-24T22:36:01.557Z</time></trkpt><trkpt lat="37.8314683" lon="15.2685533"><ele>18.0</ele><time>2026-04-24T22:36:02.556Z</time></trkpt><trkpt lat="37.831375" lon="15.2685017"><ele>18.0</ele><time>2026-04-24T22:36:03.556Z</time></trkpt><trkpt lat="37.8312667" lon="15.268455"><ele>18.0</ele><time>2026-04-24T22:36:04.556Z</time></trkpt><trkpt lat="37.8311517" lon="15.2684183"><ele>18.0</ele><time>2026-04-24T22:36:05.556Z</time></trkpt><trkpt lat="37.8310283" lon="15.26838"><ele>18.0</ele><time>2026-04-24T22:36:06.557Z</time></trkpt><trkpt lat="37.830895" lon="15.26834"><ele>17.666666666666668</ele><time>2026-04-24T22:36:07.556Z</time></trkpt><trkpt lat="37.830755" lon="15.2683033"><ele>17.333333333333336</ele><time>2026-04-24T22:36:08.556Z</time></trkpt><trkpt lat="37.8306083" lon="15.26827"><ele>17.0</ele><time>2026-04-24T22:36:09.556Z</time></trkpt><trkpt lat="37.8304517" lon="15.2682283"><ele>17.0</ele><time>2026-04-24T22:36:10.556Z</time></trkpt><trkpt lat="37.8302917" lon="15.26818"><ele>17.0</ele><time>2026-04-24T22:36:11.556Z</time></trkpt><trkpt lat="37.83013" lon="15.2681317"><ele>17.0</ele><time>2026-04-24T22:36:12.557Z</time></trkpt><trkpt lat="37.8299633" lon="15.2680883"><ele>21.666666666666668</ele><time>2026-04-24T22:36:13.556Z</time></trkpt><trkpt lat="37.8297967" lon="15.2680383"><ele>26.333333333333336</ele><time>2026-04-24T22:36:14.556Z</time></trkpt><trkpt lat="37.8296333" lon="15.26799"><ele>31.0</ele><time>2026-04-24T22:36:15.557Z</time></trkpt><trkpt lat="37.8294667" lon="15.26795"><ele>31.0</ele><time>2026-04-24T22:36:16.556Z</time></trkpt><trkpt lat="37.82931" lon="15.2679133"><ele>31.0</ele><time>2026-04-24T22:36:17.556Z</time></trkpt><trkpt lat="37.8291533" lon="15.267895"><ele>31.0</ele><time>2026-04-24T22:36:18.556Z</time></trkpt><trkpt lat="37.82899" lon="15.2678733"><ele>29.666666666666668</ele><time>2026-04-24T22:36:19.556Z</time></trkpt><trkpt lat="37.8288283" lon="15.26786"><ele>28.333333333333336</ele><time>2026-04-24T22:36:20.557Z</time></trkpt><trkpt lat="37.8286633" lon="15.267845"><ele>27.0</ele><time>2026-04-24T22:36:21.557Z</time></trkpt><trkpt lat="37.8284983" lon="15.2678367"><ele>26.0</ele><time>2026-04-24T22:36:22.557Z</time></trkpt><trkpt lat="37.8283383" lon="15.267815"><ele>25.0</ele><time>2026-04-24T22:36:23.556Z</time></trkpt><trkpt lat="37.8281733" lon="15.2677833"><ele>24.0</ele><time>2026-04-24T22:36:24.557Z</time></trkpt><trkpt lat="37.8279983" lon="15.2677517"><ele>24.0</ele><time>2026-04-24T22:36:25.556Z</time></trkpt><trkpt lat="37.8278217" lon="15.267695"><ele>24.0</ele><time>2026-04-24T22:36:26.557Z</time></trkpt><trkpt lat="37.827645" lon="15.26762"><ele>24.0</ele><time>2026-04-24T22:36:27.556Z</time></trkpt><trkpt lat="37.8274617" lon="15.26753"><ele>24.666666666666664</ele><time>2026-04-24T22:36:28.557Z</time></trkpt><trkpt lat="37.8272833" lon="15.26744"><ele>25.333333333333332</ele><time>2026-04-24T22:36:29.556Z</time></trkpt><trkpt lat="37.82711" lon="15.2673483"><ele>26.0</ele><time>2026-04-24T22:36:30.556Z</time></trkpt><trkpt lat="37.8269433" lon="15.2672633"><ele>25.0</ele><time>2026-04-24T22:36:31.557Z</time></trkpt><trkpt lat="37.826795" lon="15.2671833"><ele>24.0</ele><time>2026-04-24T22:36:32.556Z</time></trkpt><trkpt lat="37.82666" lon="15.2671083"><ele>23.0</ele><time>2026-04-24T22:36:33.557Z</time></trkpt><trkpt lat="37.8265367" lon="15.2670383"><ele>22.0</ele><time>2026-04-24T22:36:34.556Z</time></trkpt><trkpt lat="37.82642" lon="15.266975"><ele>22.0</ele><time>2026-04-24T22:36:35.557Z</time></trkpt><trkpt lat="37.8263083" lon="15.266915"><ele>22.0</ele><time>2026-04-24T22:36:36.557Z</time></trkpt><trkpt lat="37.826205" lon="15.2668633"><ele>22.0</ele><time>2026-04-24T22:36:37.557Z</time></trkpt><trkpt lat="37.82611" lon="15.2668133"><ele>22.0</ele><time>2026-04-24T22:36:38.556Z</time></trkpt><trkpt lat="37.8260217" lon="15.2667683"><ele>22.0</ele><time>2026-04-24T22:36:39.556Z</time></trkpt><trkpt lat="37.8259417" lon="15.266725"><ele>21.833333333333332</ele><time>2026-04-24T22:36:40.556Z</time></trkpt><trkpt lat="37.8258667" lon="15.2666817"><ele>21.666666666666664</ele><time>2026-04-24T22:36:41.556Z</time></trkpt><trkpt lat="37.8257917" lon="15.2666417"><ele>21.5</ele><time>2026-04-24T22:36:42.557Z</time></trkpt><trkpt lat="37.825715" lon="15.2666033"><ele>21.333333333333332</ele><time>2026-04-24T22:36:43.556Z</time></trkpt><trkpt lat="37.8256417" lon="15.2665633"><ele>21.166666666666668</ele><time>2026-04-24T22:36:44.557Z</time></trkpt><trkpt lat="37.8255667" lon="15.2665283"><ele>21.0</ele><time>2026-04-24T22:36:45.556Z</time></trkpt><trkpt lat="37.8254933" lon="15.266495"><ele>21.0</ele><time>2026-04-24T22:36:46.556Z</time></trkpt><trkpt lat="37.82542" lon="15.2664567"><ele>21.0</ele><time>2026-04-24T22:36:47.557Z</time></trkpt><trkpt lat="37.8253417" lon="15.2664167"><ele>21.0</ele><time>2026-04-24T22:36:48.557Z</time></trkpt><trkpt lat="37.8252617" lon="15.266365"><ele>21.0</ele><time>2026-04-24T22:36:49.556Z</time></trkpt><trkpt lat="37.825175" lon="15.2663167"><ele>21.0</ele><time>2026-04-24T22:36:50.557Z</time></trkpt><trkpt lat="37.82508" lon="15.2662617"><ele>21.0</ele><time>2026-04-24T22:36:51.557Z</time></trkpt><trkpt lat="37.8249817" lon="15.2662033"><ele>21.0</ele><time>2026-04-24T22:36:52.556Z</time></trkpt><trkpt lat="37.8248717" lon="15.2661467"><ele>21.0</ele><time>2026-04-24T22:36:53.556Z</time></trkpt><trkpt lat="37.82476" lon="15.2660867"><ele>21.0</ele><time>2026-04-24T22:36:54.556Z</time></trkpt><trkpt lat="37.8246383" lon="15.2660233"><ele>21.0</ele><time>2026-04-24T22:36:55.556Z</time></trkpt><trkpt lat="37.82452" lon="15.265965"><ele>21.0</ele><time>2026-04-24T22:36:56.556Z</time></trkpt><trkpt lat="37.8244083" lon="15.2659067"><ele>21.0</ele><time>2026-04-24T22:36:57.556Z</time></trkpt><trkpt lat="37.8242983" lon="15.265855"><ele>21.0</ele><time>2026-04-24T22:36:58.556Z</time></trkpt><trkpt lat="37.8241967" lon="15.2658033"><ele>21.75</ele><time>2026-04-24T22:36:59.556Z</time></trkpt><trkpt lat="37.824085" lon="15.265745"><ele>22.5</ele><time>2026-04-24T22:37:00.557Z</time></trkpt><trkpt lat="37.8239717" lon="15.2656917"><ele>23.25</ele><time>2026-04-24T22:37:01.556Z</time></trkpt><trkpt lat="37.8238533" lon="15.2656333"><ele>24.0</ele><time>2026-04-24T22:37:02.556Z</time></trkpt><trkpt lat="37.823735" lon="15.2655817"><ele>24.0</ele><time>2026-04-24T22:37:03.556Z</time></trkpt><trkpt lat="37.8236167" lon="15.26553"><ele>24.0</ele><time>2026-04-24T22:37:04.557Z</time></trkpt><trkpt lat="37.8235" lon="15.2654667"><ele>24.0</ele><time>2026-04-24T22:37:05.556Z</time></trkpt><trkpt lat="37.8233883" lon="15.265395"><ele>24.0</ele><time>2026-04-24T22:37:06.557Z</time></trkpt><trkpt lat="37.8232633" lon="15.2653"><ele>24.0</ele><time>2026-04-24T22:37:07.556Z</time></trkpt><trkpt lat="37.82314" lon="15.265185"><ele>24.0</ele><time>2026-04-24T22:37:08.557Z</time></trkpt><trkpt lat="37.8230117" lon="15.265055"><ele>24.0</ele><time>2026-04-24T22:37:09.557Z</time></trkpt><trkpt lat="37.8228867" lon="15.2649167"><ele>23.0</ele><time>2026-04-24T22:37:10.556Z</time></trkpt><trkpt lat="37.8227633" lon="15.2647667"><ele>22.0</ele><time>2026-04-24T22:37:11.556Z</time></trkpt><trkpt lat="37.82264" lon="15.264615"><ele>21.0</ele><time>2026-04-24T22:37:12.557Z</time></trkpt><trkpt lat="37.82251" lon="15.26446"><ele>21.0</ele><time>2026-04-24T22:37:13.557Z</time></trkpt><trkpt lat="37.822375" lon="15.2642967"><ele>21.0</ele><time>2026-04-24T22:37:14.556Z</time></trkpt><trkpt lat="37.82224" lon="15.2641317"><ele>21.0</ele><time>2026-04-24T22:37:15.556Z</time></trkpt><trkpt lat="37.8221167" lon="15.2639783"><ele>21.333333333333332</ele><time>2026-04-24T22:37:16.557Z</time></trkpt><trkpt lat="37.822" lon="15.2638283"><ele>21.666666666666664</ele><time>2026-04-24T22:37:17.556Z</time></trkpt><trkpt lat="37.8218883" lon="15.2636883"><ele>22.0</ele><time>2026-04-24T22:37:18.556Z</time></trkpt><trkpt lat="37.8217833" lon="15.263555"><ele>22.0</ele><time>2026-04-24T22:37:19.557Z</time></trkpt><trkpt lat="37.8216817" lon="15.2634283"><ele>22.0</ele><time>2026-04-24T22:37:20.557Z</time></trkpt><trkpt lat="37.8215817" lon="15.2632983"><ele>22.0</ele><time>2026-04-24T22:37:21.557Z</time></trkpt><trkpt lat="37.82148" lon="15.2631583"><ele>22.0</ele><time>2026-04-24T22:37:22.557Z</time></trkpt><trkpt lat="37.8213917" lon="15.263015"><ele>21.75</ele><time>2026-04-24T22:37:23.556Z</time></trkpt><trkpt lat="37.8213133" lon="15.2628667"><ele>21.5</ele><time>2026-04-24T22:37:24.556Z</time></trkpt><trkpt lat="37.821245" lon="15.2627267"><ele>21.25</ele><time>2026-04-24T22:37:25.556Z</time></trkpt><trkpt lat="37.8211917" lon="15.262585"><ele>21.0</ele><time>2026-04-24T22:37:26.556Z</time></trkpt><trkpt lat="37.8211517" lon="15.2624617"><ele>21.0</ele><time>2026-04-24T22:37:27.557Z</time></trkpt><trkpt lat="37.8211233" lon="15.2623467"><ele>21.0</ele><time>2026-04-24T22:37:28.556Z</time></trkpt><trkpt lat="37.8210883" lon="15.2622117"><ele>21.0</ele><time>2026-04-24T22:37:29.557Z</time></trkpt><trkpt lat="37.8210433" lon="15.262065"><ele>21.0</ele><time>2026-04-24T22:37:30.556Z</time></trkpt><trkpt lat="37.8209867" lon="15.261905"><ele>21.0</ele><time>2026-04-24T22:37:31.557Z</time></trkpt><trkpt lat="37.8209317" lon="15.2617317"><ele>21.0</ele><time>2026-04-24T22:37:32.556Z</time></trkpt><trkpt lat="37.8208783" lon="15.2615567"><ele>21.0</ele><time>2026-04-24T22:37:33.556Z</time></trkpt><trkpt lat="37.82083" lon="15.2613983"><ele>21.0</ele><time>2026-04-24T22:37:34.557Z</time></trkpt><trkpt lat="37.8207883" lon="15.2612483"><ele>21.5</ele><time>2026-04-24T22:37:35.557Z</time></trkpt><trkpt lat="37.82074" lon="15.2611"><ele>22.0</ele><time>2026-04-24T22:37:36.557Z</time></trkpt><trkpt lat="37.820695" lon="15.2609583"><ele>22.5</ele><time>2026-04-24T22:37:37.557Z</time></trkpt><trkpt lat="37.8206567" lon="15.260825"><ele>23.0</ele><time>2026-04-24T22:37:38.557Z</time></trkpt><trkpt lat="37.8206217" lon="15.260695"><ele>23.0</ele><time>2026-04-24T22:37:39.557Z</time></trkpt><trkpt lat="37.820585" lon="15.2605767"><ele>23.0</ele><time>2026-04-24T22:37:40.556Z</time></trkpt><trkpt lat="37.8205517" lon="15.2604583"><ele>23.0</ele><time>2026-04-24T22:37:41.557Z</time></trkpt><trkpt lat="37.82052" lon="15.2603383"><ele>23.0</ele><time>2026-04-24T22:37:42.556Z</time></trkpt><trkpt lat="37.8204867" lon="15.2602067"><ele>23.0</ele><time>2026-04-24T22:37:43.556Z</time></trkpt><trkpt lat="37.8204567" lon="15.2600783"><ele>23.0</ele><time>2026-04-24T22:37:44.557Z</time></trkpt><trkpt lat="37.82043" lon="15.2599467"><ele>23.0</ele><time>2026-04-24T22:37:45.556Z</time></trkpt><trkpt lat="37.820405" lon="15.259815"><ele>23.0</ele><time>2026-04-24T22:37:46.557Z</time></trkpt><trkpt lat="37.82039" lon="15.2596933"><ele>23.0</ele><time>2026-04-24T22:37:47.556Z</time></trkpt><trkpt lat="37.820375" lon="15.2595683"><ele>23.0</ele><time>2026-04-24T22:37:48.557Z</time></trkpt><trkpt lat="37.82036" lon="15.2594467"><ele>23.4</ele><time>2026-04-24T22:37:49.557Z</time></trkpt><trkpt lat="37.82035" lon="15.2593233"><ele>23.799999999999997</ele><time>2026-04-24T22:37:50.557Z</time></trkpt><trkpt lat="37.82034" lon="15.2591967"><ele>24.2</ele><time>2026-04-24T22:37:51.557Z</time></trkpt><trkpt lat="37.82033" lon="15.2590667"><ele>24.6</ele><time>2026-04-24T22:37:52.557Z</time></trkpt><trkpt lat="37.8203217" lon="15.2589383"><ele>25.0</ele><time>2026-04-24T22:37:53.557Z</time></trkpt><trkpt lat="37.8203183" lon="15.2588133"><ele>25.2</ele><time>2026-04-24T22:37:54.557Z</time></trkpt><trkpt lat="37.8203117" lon="15.2586983"><ele>25.4</ele><time>2026-04-24T22:37:55.557Z</time></trkpt><trkpt lat="37.820305" lon="15.258585"><ele>25.6</ele><time>2026-04-24T22:37:56.557Z</time></trkpt><trkpt lat="37.8203" lon="15.2584667"><ele>25.8</ele><time>2026-04-24T22:37:57.556Z</time></trkpt><trkpt lat="37.8203" lon="15.2583483"><ele>26.0</ele><time>2026-04-24T22:37:58.557Z</time></trkpt><trkpt lat="37.8203" lon="15.2582267"><ele>25.8</ele><time>2026-04-24T22:37:59.556Z</time></trkpt><trkpt lat="37.8203017" lon="15.2581067"><ele>25.6</ele><time>2026-04-24T22:38:00.556Z</time></trkpt><trkpt lat="37.820305" lon="15.2579867"><ele>25.4</ele><time>2026-04-24T22:38:01.556Z</time></trkpt><trkpt lat="37.82031" lon="15.2578733"><ele>25.2</ele><time>2026-04-24T22:38:02.557Z</time></trkpt><trkpt lat="37.8203183" lon="15.2577617"><ele>25.0</ele><time>2026-04-24T22:38:03.557Z</time></trkpt><trkpt lat="37.820325" lon="15.257655"><ele>25.0</ele><time>2026-04-24T22:38:04.556Z</time></trkpt><trkpt lat="37.8203333" lon="15.257535"><ele>25.0</ele><time>2026-04-24T22:38:05.557Z</time></trkpt><trkpt lat="37.8203483" lon="15.25741"><ele>25.0</ele><time>2026-04-24T22:38:06.557Z</time></trkpt><trkpt lat="37.8203617" lon="15.2572867"><ele>25.0</ele><time>2026-04-24T22:38:07.556Z</time></trkpt><trkpt lat="37.8203767" lon="15.2571633"><ele>25.0</ele><time>2026-04-24T22:38:08.556Z</time></trkpt><trkpt lat="37.8203933" lon="15.2570383"><ele>24.8</ele><time>2026-04-24T22:38:09.557Z</time></trkpt><trkpt lat="37.8204133" lon="15.2569117"><ele>24.6</ele><time>2026-04-24T22:38:10.557Z</time></trkpt><trkpt lat="37.8204333" lon="15.2567733"><ele>24.4</ele><time>2026-04-24T22:38:11.556Z</time></trkpt><trkpt lat="37.82045" lon="15.2566333"><ele>24.2</ele><time>2026-04-24T22:38:12.556Z</time></trkpt><trkpt lat="37.820475" lon="15.2564917"><ele>24.0</ele><time>2026-04-24T22:38:13.556Z</time></trkpt><trkpt lat="37.8204967" lon="15.2563517"><ele>24.4</ele><time>2026-04-24T22:38:14.557Z</time></trkpt><trkpt lat="37.8205167" lon="15.25622"><ele>24.799999999999997</ele><time>2026-04-24T22:38:15.556Z</time></trkpt><trkpt lat="37.8205367" lon="15.2560867"><ele>25.200000000000003</ele><time>2026-04-24T22:38:16.557Z</time></trkpt><trkpt lat="37.8205567" lon="15.2559533"><ele>25.6</ele><time>2026-04-24T22:38:17.556Z</time></trkpt><trkpt lat="37.8205767" lon="15.2558233"><ele>26.0</ele><time>2026-04-24T22:38:18.556Z</time></trkpt><trkpt lat="37.8205967" lon="15.2556983"><ele>26.0</ele><time>2026-04-24T22:38:19.557Z</time></trkpt><trkpt lat="37.8206183" lon="15.2555717"><ele>26.0</ele><time>2026-04-24T22:38:20.556Z</time></trkpt><trkpt lat="37.820645" lon="15.2554433"><ele>26.0</ele><time>2026-04-24T22:38:21.556Z</time></trkpt><trkpt lat="37.8206667" lon="15.2553117"><ele>26.0</ele><time>2026-04-24T22:38:22.557Z</time></trkpt><trkpt lat="37.8206883" lon="15.2551733"><ele>26.0</ele><time>2026-04-24T22:38:23.557Z</time></trkpt><trkpt lat="37.820705" lon="15.2550333"><ele>26.0</ele><time>2026-04-24T22:38:24.556Z</time></trkpt><trkpt lat="37.8207267" lon="15.2548933"><ele>26.0</ele><time>2026-04-24T22:38:25.557Z</time></trkpt><trkpt lat="37.8207467" lon="15.2547633"><ele>26.0</ele><time>2026-04-24T22:38:26.556Z</time></trkpt><trkpt lat="37.820765" lon="15.254645"><ele>26.0</ele><time>2026-04-24T22:38:27.556Z</time></trkpt><trkpt lat="37.8207833" lon="15.2545267"><ele>26.0</ele><time>2026-04-24T22:38:28.557Z</time></trkpt><trkpt lat="37.8208" lon="15.2543933"><ele>26.0</ele><time>2026-04-24T22:38:29.557Z</time></trkpt><trkpt lat="37.82082" lon="15.2542517"><ele>26.0</ele><time>2026-04-24T22:38:30.557Z</time></trkpt><trkpt lat="37.82084" lon="15.25411"><ele>26.0</ele><time>2026-04-24T22:38:31.557Z</time></trkpt><trkpt lat="37.82086" lon="15.25397"><ele>26.0</ele><time>2026-04-24T22:38:32.557Z</time></trkpt><trkpt lat="37.820875" lon="15.25383"><ele>26.0</ele><time>2026-04-24T22:38:33.557Z</time></trkpt><trkpt lat="37.820885" lon="15.2536867"><ele>26.0</ele><time>2026-04-24T22:38:34.556Z</time></trkpt><trkpt lat="37.82089" lon="15.2535333"><ele>26.0</ele><time>2026-04-24T22:38:35.557Z</time></trkpt><trkpt lat="37.8208883" lon="15.2533717"><ele>26.0</ele><time>2026-04-24T22:38:36.557Z</time></trkpt><trkpt lat="37.820875" lon="15.2532033"><ele>26.5</ele><time>2026-04-24T22:38:37.556Z</time></trkpt><trkpt lat="37.8208567" lon="15.253045"><ele>27.0</ele><time>2026-04-24T22:38:38.556Z</time></trkpt><trkpt lat="37.8208383" lon="15.2528867"><ele>27.5</ele><time>2026-04-24T22:38:39.557Z</time></trkpt><trkpt lat="37.82081" lon="15.2527383"><ele>28.0</ele><time>2026-04-24T22:38:40.556Z</time></trkpt><trkpt lat="37.8207867" lon="15.252605"><ele>28.0</ele><time>2026-04-24T22:38:41.557Z</time></trkpt><trkpt lat="37.8207433" lon="15.25248"><ele>28.0</ele><time>2026-04-24T22:38:42.557Z</time></trkpt><trkpt lat="37.8206933" lon="15.25235"><ele>28.0</ele><time>2026-04-24T22:38:43.557Z</time></trkpt><trkpt lat="37.8206417" lon="15.252225"><ele>28.0</ele><time>2026-04-24T22:38:44.557Z</time></trkpt><trkpt lat="37.820585" lon="15.2520967"><ele>29.0</ele><time>2026-04-24T22:38:45.557Z</time></trkpt><trkpt lat="37.82052" lon="15.251965"><ele>30.0</ele><time>2026-04-24T22:38:46.557Z</time></trkpt><trkpt lat="37.820455" lon="15.25184"><ele>31.0</ele><time>2026-04-24T22:38:47.556Z</time></trkpt><trkpt lat="37.8203883" lon="15.2517033"><ele>32.0</ele><time>2026-04-24T22:38:48.557Z</time></trkpt><trkpt lat="37.8203167" lon="15.25156"><ele>32.0</ele><time>2026-04-24T22:38:49.556Z</time></trkpt><trkpt lat="37.8202383" lon="15.2514017"><ele>32.0</ele><time>2026-04-24T22:38:50.557Z</time></trkpt><trkpt lat="37.8201567" lon="15.25124"><ele>32.0</ele><time>2026-04-24T22:38:51.557Z</time></trkpt><trkpt lat="37.82007" lon="15.25107"><ele>32.0</ele><time>2026-04-24T22:38:52.556Z</time></trkpt><trkpt lat="37.8199867" lon="15.2508933"><ele>32.0</ele><time>2026-04-24T22:38:53.557Z</time></trkpt><trkpt lat="37.81989" lon="15.2507067"><ele>32.0</ele><time>2026-04-24T22:38:54.556Z</time></trkpt><trkpt lat="37.8198" lon="15.250525"><ele>32.0</ele><time>2026-04-24T22:38:55.557Z</time></trkpt><trkpt lat="37.8196983" lon="15.2503317"><ele>32.0</ele><time>2026-04-24T22:38:56.556Z</time></trkpt><trkpt lat="37.8196" lon="15.250125"><ele>32.0</ele><time>2026-04-24T22:38:57.556Z</time></trkpt><trkpt lat="37.8194967" lon="15.249925"><ele>31.666666666666664</ele><time>2026-04-24T22:38:58.557Z</time></trkpt><trkpt lat="37.8193917" lon="15.2497167"><ele>31.333333333333336</ele><time>2026-04-24T22:38:59.557Z</time></trkpt><trkpt lat="37.8192883" lon="15.249515"><ele>31.0</ele><time>2026-04-24T22:39:00.557Z</time></trkpt><trkpt lat="37.8191783" lon="15.24931"><ele>31.0</ele><time>2026-04-24T22:39:01.557Z</time></trkpt><trkpt lat="37.8190767" lon="15.249105"><ele>31.0</ele><time>2026-04-24T22:39:02.557Z</time></trkpt><trkpt lat="37.8189717" lon="15.2489"><ele>31.0</ele><time>2026-04-24T22:39:03.556Z</time></trkpt><trkpt lat="37.8188633" lon="15.24871"><ele>31.0</ele><time>2026-04-24T22:39:04.556Z</time></trkpt><trkpt lat="37.8187683" lon="15.2485333"><ele>31.0</ele><time>2026-04-24T22:39:05.556Z</time></trkpt><trkpt lat="37.8186833" lon="15.2483617"><ele>31.0</ele><time>2026-04-24T22:39:06.556Z</time></trkpt><trkpt lat="37.818605" lon="15.248195"><ele>30.5</ele><time>2026-04-24T22:39:07.557Z</time></trkpt><trkpt lat="37.81854" lon="15.24804"><ele>30.0</ele><time>2026-04-24T22:39:08.556Z</time></trkpt><trkpt lat="37.8184733" lon="15.2479033"><ele>29.5</ele><time>2026-04-24T22:39:09.557Z</time></trkpt><trkpt lat="37.8184117" lon="15.2477733"><ele>29.0</ele><time>2026-04-24T22:39:10.556Z</time></trkpt><trkpt lat="37.818355" lon="15.247645"><ele>28.5</ele><time>2026-04-24T22:39:11.557Z</time></trkpt><trkpt lat="37.8183017" lon="15.2475083"><ele>28.0</ele><time>2026-04-24T22:39:12.557Z</time></trkpt><trkpt lat="37.8182517" lon="15.2473567"><ele>27.5</ele><time>2026-04-24T22:39:13.557Z</time></trkpt><trkpt lat="37.8182067" lon="15.2471917"><ele>27.0</ele><time>2026-04-24T22:39:14.556Z</time></trkpt><trkpt lat="37.8181683" lon="15.2470233"><ele>25.666666666666668</ele><time>2026-04-24T22:39:15.556Z</time></trkpt><trkpt lat="37.8181367" lon="15.2468367"><ele>24.333333333333336</ele><time>2026-04-24T22:39:16.557Z</time></trkpt><trkpt lat="37.8180967" lon="15.2466533"><ele>23.0</ele><time>2026-04-24T22:39:17.557Z</time></trkpt><trkpt lat="37.8180533" lon="15.2464683"><ele>23.75</ele><time>2026-04-24T22:39:18.557Z</time></trkpt><trkpt lat="37.818015" lon="15.246295"><ele>24.5</ele><time>2026-04-24T22:39:19.557Z</time></trkpt><trkpt lat="37.817975" lon="15.2461217"><ele>25.25</ele><time>2026-04-24T22:39:20.556Z</time></trkpt><trkpt lat="37.8179283" lon="15.2459483"><ele>26.0</ele><time>2026-04-24T22:39:21.556Z</time></trkpt><trkpt lat="37.8178767" lon="15.245785"><ele>26.75</ele><time>2026-04-24T22:39:22.557Z</time></trkpt><trkpt lat="37.817825" lon="15.2456133"><ele>27.5</ele><time>2026-04-24T22:39:23.556Z</time></trkpt><trkpt lat="37.8177717" lon="15.2454467"><ele>28.25</ele><time>2026-04-24T22:39:24.557Z</time></trkpt><trkpt lat="37.8177217" lon="15.2452917"><ele>29.0</ele><time>2026-04-24T22:39:25.557Z</time></trkpt><trkpt lat="37.8176667" lon="15.24514"><ele>28.5</ele><time>2026-04-24T22:39:26.557Z</time></trkpt><trkpt lat="37.81761" lon="15.2449883"><ele>28.0</ele><time>2026-04-24T22:39:27.557Z</time></trkpt><trkpt lat="37.8175383" lon="15.2448367"><ele>27.5</ele><time>2026-04-24T22:39:28.557Z</time></trkpt><trkpt lat="37.8174517" lon="15.2446917"><ele>27.0</ele><time>2026-04-24T22:39:29.556Z</time></trkpt><trkpt lat="37.8173533" lon="15.2445517"><ele>27.0</ele><time>2026-04-24T22:39:30.557Z</time></trkpt><trkpt lat="37.8172467" lon="15.2444117"><ele>27.0</ele><time>2026-04-24T22:39:31.557Z</time></trkpt><trkpt lat="37.8171433" lon="15.2442667"><ele>27.0</ele><time>2026-04-24T22:39:32.557Z</time></trkpt><trkpt lat="37.8170417" lon="15.2441217"><ele>27.0</ele><time>2026-04-24T22:39:33.557Z</time></trkpt><trkpt lat="37.81693" lon="15.24398"><ele>27.0</ele><time>2026-04-24T22:39:34.557Z</time></trkpt><trkpt lat="37.8168217" lon="15.2438333"><ele>27.0</ele><time>2026-04-24T22:39:35.556Z</time></trkpt><trkpt lat="37.8167183" lon="15.2436867"><ele>26.333333333333336</ele><time>2026-04-24T22:39:36.557Z</time></trkpt><trkpt lat="37.8166233" lon="15.2435317"><ele>25.666666666666668</ele><time>2026-04-24T22:39:37.556Z</time></trkpt><trkpt lat="37.81651" lon="15.2433767"><ele>25.0</ele><time>2026-04-24T22:39:38.556Z</time></trkpt><trkpt lat="37.8163933" lon="15.2432167"><ele>25.0</ele><time>2026-04-24T22:39:39.557Z</time></trkpt><trkpt lat="37.8162683" lon="15.2430517"><ele>25.0</ele><time>2026-04-24T22:39:40.556Z</time></trkpt><trkpt lat="37.8161383" lon="15.24288"><ele>25.0</ele><time>2026-04-24T22:39:41.557Z</time></trkpt><trkpt lat="37.81601" lon="15.2426983"><ele>25.0</ele><time>2026-04-24T22:39:42.557Z</time></trkpt><trkpt lat="37.8158767" lon="15.2425183"><ele>25.0</ele><time>2026-04-24T22:39:43.556Z</time></trkpt><trkpt lat="37.8157433" lon="15.2423317"><ele>25.0</ele><time>2026-04-24T22:39:44.556Z</time></trkpt><trkpt lat="37.8156033" lon="15.24214"><ele>25.0</ele><time>2026-04-24T22:39:45.557Z</time></trkpt><trkpt lat="37.8154617" lon="15.2419467"><ele>25.0</ele><time>2026-04-24T22:39:46.557Z</time></trkpt><trkpt lat="37.8153217" lon="15.2417467"><ele>25.0</ele><time>2026-04-24T22:39:47.556Z</time></trkpt><trkpt lat="37.8151733" lon="15.2415483"><ele>25.666666666666668</ele><time>2026-04-24T22:39:48.556Z</time></trkpt><trkpt lat="37.815035" lon="15.2413517"><ele>26.333333333333336</ele><time>2026-04-24T22:39:49.556Z</time></trkpt><trkpt lat="37.81491" lon="15.2411683"><ele>27.0</ele><time>2026-04-24T22:39:50.557Z</time></trkpt><trkpt lat="37.8147867" lon="15.240985"><ele>27.0</ele><time>2026-04-24T22:39:51.556Z</time></trkpt><trkpt lat="37.8146633" lon="15.24081"><ele>27.0</ele><time>2026-04-24T22:39:52.557Z</time></trkpt><trkpt lat="37.81455" lon="15.2406433"><ele>27.0</ele><time>2026-04-24T22:39:53.556Z</time></trkpt><trkpt lat="37.8144467" lon="15.2404983"><ele>27.5</ele><time>2026-04-24T22:39:54.556Z</time></trkpt><trkpt lat="37.8143467" lon="15.2403567"><ele>28.0</ele><time>2026-04-24T22:39:55.557Z</time></trkpt><trkpt lat="37.8142467" lon="15.24022"><ele>28.5</ele><time>2026-04-24T22:39:56.557Z</time></trkpt><trkpt lat="37.81415" lon="15.2400867"><ele>29.0</ele><time>2026-04-24T22:39:57.557Z</time></trkpt><trkpt lat="37.8140617" lon="15.23996"><ele>29.0</ele><time>2026-04-24T22:39:58.557Z</time></trkpt><trkpt lat="37.8139783" lon="15.23983"><ele>29.0</ele><time>2026-04-24T22:39:59.557Z</time></trkpt><trkpt lat="37.81391" lon="15.239685"><ele>29.0</ele><time>2026-04-24T22:40:00.556Z</time></trkpt><trkpt lat="37.81385" lon="15.2395117"><ele>29.0</ele><time>2026-04-24T22:40:01.556Z</time></trkpt><trkpt lat="37.8137967" lon="15.239315"><ele>29.0</ele><time>2026-04-24T22:40:02.556Z</time></trkpt><trkpt lat="37.8137467" lon="15.23912"><ele>29.0</ele><time>2026-04-24T22:40:03.557Z</time></trkpt><trkpt lat="37.8136967" lon="15.2389167"><ele>29.0</ele><time>2026-04-24T22:40:04.556Z</time></trkpt><trkpt lat="37.81364" lon="15.2387117"><ele>29.333333333333332</ele><time>2026-04-24T22:40:05.557Z</time></trkpt><trkpt lat="37.81359" lon="15.2385167"><ele>29.666666666666664</ele><time>2026-04-24T22:40:06.556Z</time></trkpt><trkpt lat="37.813535" lon="15.2383183"><ele>30.0</ele><time>2026-04-24T22:40:07.556Z</time></trkpt><trkpt lat="37.8134817" lon="15.238115"><ele>29.333333333333336</ele><time>2026-04-24T22:40:08.557Z</time></trkpt><trkpt lat="37.813435" lon="15.2379183"><ele>28.666666666666668</ele><time>2026-04-24T22:40:09.557Z</time></trkpt><trkpt lat="37.8133833" lon="15.2377267"><ele>28.0</ele><time>2026-04-24T22:40:10.557Z</time></trkpt><trkpt lat="37.8133367" lon="15.23753"><ele>28.0</ele><time>2026-04-24T22:40:11.557Z</time></trkpt><trkpt lat="37.813285" lon="15.237335"><ele>28.0</ele><time>2026-04-24T22:40:12.557Z</time></trkpt><trkpt lat="37.81323" lon="15.2371367"><ele>28.0</ele><time>2026-04-24T22:40:13.557Z</time></trkpt><trkpt lat="37.8131767" lon="15.2369433"><ele>29.333333333333336</ele><time>2026-04-24T22:40:14.556Z</time></trkpt><trkpt lat="37.81311" lon="15.2367483"><ele>30.666666666666664</ele><time>2026-04-24T22:40:15.557Z</time></trkpt><trkpt lat="37.8130467" lon="15.23656"><ele>32.0</ele><time>2026-04-24T22:40:16.557Z</time></trkpt><trkpt lat="37.8129867" lon="15.2363783"><ele>33.0</ele><time>2026-04-24T22:40:17.557Z</time></trkpt><trkpt lat="37.8129383" lon="15.2362183"><ele>34.0</ele><time>2026-04-24T22:40:18.556Z</time></trkpt><trkpt lat="37.812895" lon="15.2360767"><ele>35.0</ele><time>2026-04-24T22:40:19.556Z</time></trkpt><trkpt lat="37.8128567" lon="15.235955"><ele>36.0</ele><time>2026-04-24T22:40:20.557Z</time></trkpt><trkpt lat="37.8128183" lon="15.2358467"><ele>36.0</ele><time>2026-04-24T22:40:21.556Z</time></trkpt><trkpt lat="37.8127767" lon="15.2357317"><ele>36.0</ele><time>2026-04-24T22:40:22.557Z</time></trkpt><trkpt lat="37.812725" lon="15.235615"><ele>36.0</ele><time>2026-04-24T22:40:23.557Z</time></trkpt><trkpt lat="37.8126617" lon="15.2354883"><ele>36.0</ele><time>2026-04-24T22:40:24.557Z</time></trkpt><trkpt lat="37.812585" lon="15.2353533"><ele>35.25</ele><time>2026-04-24T22:40:25.556Z</time></trkpt><trkpt lat="37.8125033" lon="15.2352117"><ele>34.5</ele><time>2026-04-24T22:40:26.557Z</time></trkpt><trkpt lat="37.8124183" lon="15.235065"><ele>33.75</ele><time>2026-04-24T22:40:27.557Z</time></trkpt><trkpt lat="37.81233" lon="15.2349317"><ele>33.0</ele><time>2026-04-24T22:40:28.557Z</time></trkpt><trkpt lat="37.81224" lon="15.234795"><ele>33.0</ele><time>2026-04-24T22:40:29.557Z</time></trkpt><trkpt lat="37.8121467" lon="15.234655"><ele>33.0</ele><time>2026-04-24T22:40:30.557Z</time></trkpt><trkpt lat="37.81206" lon="15.23451"><ele>33.0</ele><time>2026-04-24T22:40:31.557Z</time></trkpt><trkpt lat="37.811975" lon="15.234365"><ele>33.0</ele><time>2026-04-24T22:40:32.557Z</time></trkpt><trkpt lat="37.811885" lon="15.2342133"><ele>33.5</ele><time>2026-04-24T22:40:33.556Z</time></trkpt><trkpt lat="37.8118033" lon="15.234075"><ele>34.0</ele><time>2026-04-24T22:40:34.556Z</time></trkpt><trkpt lat="37.8117217" lon="15.2339417"><ele>34.5</ele><time>2026-04-24T22:40:35.556Z</time></trkpt><trkpt lat="37.811645" lon="15.23382"><ele>35.0</ele><time>2026-04-24T22:40:36.556Z</time></trkpt><trkpt lat="37.8115733" lon="15.2337017"><ele>35.0</ele><time>2026-04-24T22:40:37.557Z</time></trkpt><trkpt lat="37.8114983" lon="15.23358"><ele>35.0</ele><time>2026-04-24T22:40:38.557Z</time></trkpt><trkpt lat="37.8114217" lon="15.2334617"><ele>35.0</ele><time>2026-04-24T22:40:39.556Z</time></trkpt><trkpt lat="37.811345" lon="15.2333383"><ele>35.0</ele><time>2026-04-24T22:40:40.556Z</time></trkpt><trkpt lat="37.811265" lon="15.2332133"><ele>35.0</ele><time>2026-04-24T22:40:41.557Z</time></trkpt><trkpt lat="37.8111867" lon="15.2330967"><ele>35.0</ele><time>2026-04-24T22:40:42.557Z</time></trkpt><trkpt lat="37.8111133" lon="15.2329767"><ele>35.0</ele><time>2026-04-24T22:40:43.556Z</time></trkpt><trkpt lat="37.81104" lon="15.2328567"><ele>35.0</ele><time>2026-04-24T22:40:44.557Z</time></trkpt><trkpt lat="37.810965" lon="15.2327417"><ele>35.2</ele><time>2026-04-24T22:40:45.557Z</time></trkpt><trkpt lat="37.8108967" lon="15.2326283"><ele>35.4</ele><time>2026-04-24T22:40:46.556Z</time></trkpt><trkpt lat="37.8108283" lon="15.2325167"><ele>35.6</ele><time>2026-04-24T22:40:47.556Z</time></trkpt><trkpt lat="37.81076" lon="15.2324133"><ele>35.8</ele><time>2026-04-24T22:40:48.557Z</time></trkpt><trkpt lat="37.8106933" lon="15.2322983"><ele>36.0</ele><time>2026-04-24T22:40:49.556Z</time></trkpt><trkpt lat="37.8106317" lon="15.2321933"><ele>36.0</ele><time>2026-04-24T22:40:50.556Z</time></trkpt><trkpt lat="37.8105717" lon="15.232095"><ele>36.0</ele><time>2026-04-24T22:40:51.557Z</time></trkpt><trkpt lat="37.8105083" lon="15.232"><ele>36.0</ele><time>2026-04-24T22:40:52.556Z</time></trkpt><trkpt lat="37.8104483" lon="15.231905"><ele>36.0</ele><time>2026-04-24T22:40:53.556Z</time></trkpt><trkpt lat="37.8103817" lon="15.2318067"><ele>36.0</ele><time>2026-04-24T22:40:54.557Z</time></trkpt><trkpt lat="37.81032" lon="15.231705"><ele>36.0</ele><time>2026-04-24T22:40:55.557Z</time></trkpt><trkpt lat="37.8102583" lon="15.2316083"><ele>36.0</ele><time>2026-04-24T22:40:56.557Z</time></trkpt><trkpt lat="37.8101933" lon="15.2315133"><ele>36.0</ele><time>2026-04-24T22:40:57.556Z</time></trkpt><trkpt lat="37.810125" lon="15.2314067"><ele>36.0</ele><time>2026-04-24T22:40:58.556Z</time></trkpt><trkpt lat="37.8100583" lon="15.2313"><ele>36.0</ele><time>2026-04-24T22:40:59.556Z</time></trkpt><trkpt lat="37.8099933" lon="15.2311967"><ele>36.4</ele><time>2026-04-24T22:41:00.556Z</time></trkpt><trkpt lat="37.8099283" lon="15.2310933"><ele>36.8</ele><time>2026-04-24T22:41:01.557Z</time></trkpt><trkpt lat="37.8098633" lon="15.23099"><ele>37.199999999999996</ele><time>2026-04-24T22:41:02.556Z</time></trkpt><trkpt lat="37.8097967" lon="15.23089"><ele>37.6</ele><time>2026-04-24T22:41:03.556Z</time></trkpt><trkpt lat="37.809735" lon="15.2307933"><ele>38.0</ele><time>2026-04-24T22:41:04.556Z</time></trkpt><trkpt lat="37.8096783" lon="15.230705"><ele>38.199999999999996</ele><time>2026-04-24T22:41:05.557Z</time></trkpt><trkpt lat="37.8096183" lon="15.23062"><ele>38.4</ele><time>2026-04-24T22:41:06.557Z</time></trkpt><trkpt lat="37.8095633" lon="15.2305317"><ele>38.599999999999994</ele><time>2026-04-24T22:41:07.557Z</time></trkpt><trkpt lat="37.809505" lon="15.2304417"><ele>38.8</ele><time>2026-04-24T22:41:08.556Z</time></trkpt><trkpt lat="37.8094467" lon="15.23035"><ele>39.0</ele><time>2026-04-24T22:41:09.557Z</time></trkpt><trkpt lat="37.80939" lon="15.2302583"><ele>39.0</ele><time>2026-04-24T22:41:10.557Z</time></trkpt><trkpt lat="37.8093333" lon="15.230165"><ele>39.0</ele><time>2026-04-24T22:41:11.556Z</time></trkpt><trkpt lat="37.8092733" lon="15.2300717"><ele>39.0</ele><time>2026-04-24T22:41:12.557Z</time></trkpt><trkpt lat="37.8092183" lon="15.2299733"><ele>39.0</ele><time>2026-04-24T22:41:13.557Z</time></trkpt><trkpt lat="37.809155" lon="15.229875"><ele>39.0</ele><time>2026-04-24T22:41:14.556Z</time></trkpt><trkpt lat="37.8090867" lon="15.2297833"><ele>39.0</ele><time>2026-04-24T22:41:15.556Z</time></trkpt><trkpt lat="37.8090233" lon="15.2296933"><ele>39.0</ele><time>2026-04-24T22:41:16.557Z</time></trkpt><trkpt lat="37.8089667" lon="15.2296033"><ele>39.0</ele><time>2026-04-24T22:41:17.557Z</time></trkpt><trkpt lat="37.80891" lon="15.229515"><ele>39.0</ele><time>2026-04-24T22:41:18.556Z</time></trkpt><trkpt lat="37.808855" lon="15.2294283"><ele>39.0</ele><time>2026-04-24T22:41:19.556Z</time></trkpt><trkpt lat="37.8088" lon="15.2293417"><ele>39.0</ele><time>2026-04-24T22:41:20.557Z</time></trkpt><trkpt lat="37.8087417" lon="15.2292467"><ele>39.0</ele><time>2026-04-24T22:41:21.557Z</time></trkpt><trkpt lat="37.8086733" lon="15.2291433"><ele>39.0</ele><time>2026-04-24T22:41:22.556Z</time></trkpt><trkpt lat="37.8085983" lon="15.2290267"><ele>39.0</ele><time>2026-04-24T22:41:23.557Z</time></trkpt><trkpt lat="37.8085133" lon="15.2288967"><ele>39.75</ele><time>2026-04-24T22:41:24.557Z</time></trkpt><trkpt lat="37.8084283" lon="15.2287667"><ele>40.5</ele><time>2026-04-24T22:41:25.556Z</time></trkpt><trkpt lat="37.80834" lon="15.22863"><ele>41.25</ele><time>2026-04-24T22:41:26.557Z</time></trkpt><trkpt lat="37.8082483" lon="15.2284867"><ele>42.0</ele><time>2026-04-24T22:41:27.556Z</time></trkpt><trkpt lat="37.808155" lon="15.2283333"><ele>42.0</ele><time>2026-04-24T22:41:28.556Z</time></trkpt><trkpt lat="37.808055" lon="15.2281783"><ele>42.0</ele><time>2026-04-24T22:41:29.556Z</time></trkpt><trkpt lat="37.80796" lon="15.2280267"><ele>42.0</ele><time>2026-04-24T22:41:30.556Z</time></trkpt><trkpt lat="37.8078667" lon="15.2278817"><ele>42.25</ele><time>2026-04-24T22:41:31.556Z</time></trkpt><trkpt lat="37.8077867" lon="15.2277467"><ele>42.5</ele><time>2026-04-24T22:41:32.556Z</time></trkpt><trkpt lat="37.8077017" lon="15.2276167"><ele>42.75</ele><time>2026-04-24T22:41:33.557Z</time></trkpt><trkpt lat="37.8076017" lon="15.2274983"><ele>43.0</ele><time>2026-04-24T22:41:34.556Z</time></trkpt><trkpt lat="37.8074917" lon="15.2273933"><ele>43.75</ele><time>2026-04-24T22:41:35.556Z</time></trkpt><trkpt lat="37.8073733" lon="15.2273017"><ele>44.5</ele><time>2026-04-24T22:41:36.557Z</time></trkpt><trkpt lat="37.8072467" lon="15.22722"><ele>45.25</ele><time>2026-04-24T22:41:37.556Z</time></trkpt><trkpt lat="37.8071083" lon="15.227155"><ele>46.0</ele><time>2026-04-24T22:41:38.556Z</time></trkpt><trkpt lat="37.8069667" lon="15.2270883"><ele>46.0</ele><time>2026-04-24T22:41:39.556Z</time></trkpt><trkpt lat="37.8068417" lon="15.227045"><ele>46.0</ele><time>2026-04-24T22:41:40.556Z</time></trkpt><trkpt lat="37.80673" lon="15.2270017"><ele>46.0</ele><time>2026-04-24T22:41:41.556Z</time></trkpt><trkpt lat="37.8066433" lon="15.2269583"><ele>46.0</ele><time>2026-04-24T22:41:42.556Z</time></trkpt><trkpt lat="37.8065667" lon="15.2269067"><ele>46.0</ele><time>2026-04-24T22:41:43.557Z</time></trkpt><trkpt lat="37.8064983" lon="15.2268233"><ele>46.5</ele><time>2026-04-24T22:41:44.557Z</time></trkpt><trkpt lat="37.8064567" lon="15.2267067"><ele>47.0</ele><time>2026-04-24T22:41:45.556Z</time></trkpt><trkpt lat="37.8064267" lon="15.226565"><ele>47.5</ele><time>2026-04-24T22:41:46.557Z</time></trkpt><trkpt lat="37.8063983" lon="15.2264117"><ele>48.0</ele><time>2026-04-24T22:41:47.557Z</time></trkpt><trkpt lat="37.8063717" lon="15.2262517"><ele>48.0</ele><time>2026-04-24T22:41:48.557Z</time></trkpt><trkpt lat="37.8063417" lon="15.2260767"><ele>48.0</ele><time>2026-04-24T22:41:49.556Z</time></trkpt><trkpt lat="37.8063233" lon="15.2258933"><ele>48.0</ele><time>2026-04-24T22:41:50.556Z</time></trkpt><trkpt lat="37.8063033" lon="15.22571"><ele>48.0</ele><time>2026-04-24T22:41:51.556Z</time></trkpt><trkpt lat="37.8062917" lon="15.2255317"><ele>49.25</ele><time>2026-04-24T22:41:52.556Z</time></trkpt><trkpt lat="37.806295" lon="15.2253667"><ele>50.5</ele><time>2026-04-24T22:41:53.557Z</time></trkpt><trkpt lat="37.8063" lon="15.225205"><ele>51.75</ele><time>2026-04-24T22:41:54.557Z</time></trkpt><trkpt lat="37.8063017" lon="15.2250333"><ele>53.0</ele><time>2026-04-24T22:41:55.556Z</time></trkpt><trkpt lat="37.8062933" lon="15.2248483"><ele>53.5</ele><time>2026-04-24T22:41:56.557Z</time></trkpt><trkpt lat="37.80627" lon="15.224665"><ele>54.0</ele><time>2026-04-24T22:41:57.557Z</time></trkpt><trkpt lat="37.8062367" lon="15.2244867"><ele>54.5</ele><time>2026-04-24T22:41:58.557Z</time></trkpt><trkpt lat="37.8061967" lon="15.2243133"><ele>55.0</ele><time>2026-04-24T22:41:59.557Z</time></trkpt><trkpt lat="37.8061483" lon="15.22414"><ele>55.25</ele><time>2026-04-24T22:42:00.556Z</time></trkpt><trkpt lat="37.8061" lon="15.2239733"><ele>55.5</ele><time>2026-04-24T22:42:01.557Z</time></trkpt><trkpt lat="37.8060517" lon="15.22381"><ele>55.75</ele><time>2026-04-24T22:42:02.557Z</time></trkpt><trkpt lat="37.8060067" lon="15.2236533"><ele>56.0</ele><time>2026-04-24T22:42:03.556Z</time></trkpt><trkpt lat="37.8059667" lon="15.2235133"><ele>55.4</ele><time>2026-04-24T22:42:04.556Z</time></trkpt><trkpt lat="37.8059383" lon="15.223385"><ele>54.8</ele><time>2026-04-24T22:42:05.557Z</time></trkpt><trkpt lat="37.805925" lon="15.2232567"><ele>54.199999999999996</ele><time>2026-04-24T22:42:06.556Z</time></trkpt><trkpt lat="37.8059333" lon="15.2231167"><ele>53.599999999999994</ele><time>2026-04-24T22:42:07.557Z</time></trkpt><trkpt lat="37.8059483" lon="15.2229717"><ele>53.0</ele><time>2026-04-24T22:42:08.557Z</time></trkpt><trkpt lat="37.8059683" lon="15.2228267"><ele>53.0</ele><time>2026-04-24T22:42:09.557Z</time></trkpt><trkpt lat="37.8059867" lon="15.2226817"><ele>53.0</ele><time>2026-04-24T22:42:10.557Z</time></trkpt><trkpt lat="37.80601" lon="15.222545"><ele>53.0</ele><time>2026-04-24T22:42:11.556Z</time></trkpt><trkpt lat="37.80603" lon="15.222415"><ele>53.0</ele><time>2026-04-24T22:42:12.556Z</time></trkpt><trkpt lat="37.80605" lon="15.222285"><ele>53.0</ele><time>2026-04-24T22:42:13.556Z</time></trkpt><trkpt lat="37.8060667" lon="15.222155"><ele>54.0</ele><time>2026-04-24T22:42:14.557Z</time></trkpt><trkpt lat="37.8060767" lon="15.2220133"><ele>55.0</ele><time>2026-04-24T22:42:15.556Z</time></trkpt><trkpt lat="37.8060967" lon="15.2218783"><ele>56.0</ele><time>2026-04-24T22:42:16.557Z</time></trkpt><trkpt lat="37.8061183" lon="15.2217517"><ele>57.0</ele><time>2026-04-24T22:42:17.556Z</time></trkpt><trkpt lat="37.8061417" lon="15.221625"><ele>58.0</ele><time>2026-04-24T22:42:18.556Z</time></trkpt><trkpt lat="37.8061633" lon="15.2214867"><ele>58.4</ele><time>2026-04-24T22:42:19.557Z</time></trkpt><trkpt lat="37.8061917" lon="15.221355"><ele>58.8</ele><time>2026-04-24T22:42:20.557Z</time></trkpt><trkpt lat="37.8062167" lon="15.2212283"><ele>59.2</ele><time>2026-04-24T22:42:21.557Z</time></trkpt><trkpt lat="37.8062283" lon="15.22111"><ele>59.6</ele><time>2026-04-24T22:42:22.557Z</time></trkpt><trkpt lat="37.8062517" lon="15.22101"><ele>60.0</ele><time>2026-04-24T22:42:23.556Z</time></trkpt><trkpt lat="37.8062617" lon="15.220905"><ele>60.0</ele><time>2026-04-24T22:42:24.556Z</time></trkpt><trkpt lat="37.8062533" lon="15.2208067"><ele>60.0</ele><time>2026-04-24T22:42:25.557Z</time></trkpt><trkpt lat="37.806225" lon="15.2207267"><ele>60.0</ele><time>2026-04-24T22:42:26.557Z</time></trkpt><trkpt lat="37.8061333" lon="15.22059"><ele>60.0</ele><time>2026-04-24T22:42:28.556Z</time></trkpt><trkpt lat="37.8060783" lon="15.2205267"><ele>60.0</ele><time>2026-04-24T22:42:29.557Z</time></trkpt><trkpt lat="37.806025" lon="15.2204617"><ele>60.0</ele><time>2026-04-24T22:42:30.557Z</time></trkpt><trkpt lat="37.80597" lon="15.220395"><ele>59.666666666666664</ele><time>2026-04-24T22:42:31.556Z</time></trkpt><trkpt lat="37.805915" lon="15.2203267"><ele>59.33333333333333</ele><time>2026-04-24T22:42:32.557Z</time></trkpt><trkpt lat="37.8058583" lon="15.2202583"><ele>59.0</ele><time>2026-04-24T22:42:33.557Z</time></trkpt><trkpt lat="37.8057983" lon="15.2201833"><ele>58.666666666666664</ele><time>2026-04-24T22:42:34.557Z</time></trkpt><trkpt lat="37.80574" lon="15.22011"><ele>58.33333333333333</ele><time>2026-04-24T22:42:35.556Z</time></trkpt><trkpt lat="37.8056783" lon="15.22003"><ele>58.0</ele><time>2026-04-24T22:42:36.557Z</time></trkpt><trkpt lat="37.8056067" lon="15.2199433"><ele>58.0</ele><time>2026-04-24T22:42:37.557Z</time></trkpt><trkpt lat="37.8055317" lon="15.21985"><ele>58.0</ele><time>2026-04-24T22:42:38.556Z</time></trkpt><trkpt lat="37.8054533" lon="15.2197483"><ele>58.0</ele><time>2026-04-24T22:42:39.556Z</time></trkpt><trkpt lat="37.8053717" lon="15.21964"><ele>58.0</ele><time>2026-04-24T22:42:40.557Z</time></trkpt><trkpt lat="37.8052967" lon="15.2195217"><ele>56.666666666666664</ele><time>2026-04-24T22:42:41.556Z</time></trkpt><trkpt lat="37.8051583" lon="15.2192617"><ele>55.33333333333333</ele><time>2026-04-24T22:42:43.557Z</time></trkpt><trkpt lat="37.8051" lon="15.2191333"><ele>54.0</ele><time>2026-04-24T22:42:44.556Z</time></trkpt><trkpt lat="37.8050333" lon="15.2190033"><ele>55.75</ele><time>2026-04-24T22:42:45.556Z</time></trkpt><trkpt lat="37.8049567" lon="15.218865"><ele>57.5</ele><time>2026-04-24T22:42:46.557Z</time></trkpt><trkpt lat="37.804875" lon="15.2187167"><ele>59.25</ele><time>2026-04-24T22:42:47.557Z</time></trkpt><trkpt lat="37.8047983" lon="15.2185683"><ele>61.0</ele><time>2026-04-24T22:42:48.556Z</time></trkpt><trkpt lat="37.8047183" lon="15.21841"><ele>61.0</ele><time>2026-04-24T22:42:49.556Z</time></trkpt><trkpt lat="37.804635" lon="15.21825"><ele>61.0</ele><time>2026-04-24T22:42:50.557Z</time></trkpt><trkpt lat="37.8045467" lon="15.21809"><ele>61.0</ele><time>2026-04-24T22:42:51.556Z</time></trkpt><trkpt lat="37.8044567" lon="15.2179317"><ele>61.666666666666664</ele><time>2026-04-24T22:42:52.557Z</time></trkpt><trkpt lat="37.8043567" lon="15.2177733"><ele>62.33333333333333</ele><time>2026-04-24T22:42:53.556Z</time></trkpt><trkpt lat="37.8042517" lon="15.2176183"><ele>63.0</ele><time>2026-04-24T22:42:54.557Z</time></trkpt><trkpt lat="37.804135" lon="15.2174717"><ele>61.66666666666667</ele><time>2026-04-24T22:42:55.556Z</time></trkpt><trkpt lat="37.804015" lon="15.217325"><ele>60.333333333333336</ele><time>2026-04-24T22:42:56.556Z</time></trkpt><trkpt lat="37.803895" lon="15.21718"><ele>59.0</ele><time>2026-04-24T22:42:57.556Z</time></trkpt><trkpt lat="37.8037733" lon="15.217035"><ele>57.333333333333336</ele><time>2026-04-24T22:42:58.556Z</time></trkpt><trkpt lat="37.80365" lon="15.2168917"><ele>55.66666666666667</ele><time>2026-04-24T22:42:59.557Z</time></trkpt><trkpt lat="37.8035233" lon="15.216745"><ele>54.0</ele><time>2026-04-24T22:43:00.557Z</time></trkpt><trkpt lat="37.8033967" lon="15.2165917"><ele>54.66666666666667</ele><time>2026-04-24T22:43:01.556Z</time></trkpt><trkpt lat="37.8032617" lon="15.2164383"><ele>55.333333333333336</ele><time>2026-04-24T22:43:02.557Z</time></trkpt><trkpt lat="37.8031267" lon="15.21628"><ele>56.0</ele><time>2026-04-24T22:43:03.557Z</time></trkpt><trkpt lat="37.8029867" lon="15.2161133"><ele>56.0</ele><time>2026-04-24T22:43:04.556Z</time></trkpt><trkpt lat="37.8028467" lon="15.2159533"><ele>56.0</ele><time>2026-04-24T22:43:05.556Z</time></trkpt><trkpt lat="37.80272" lon="15.2158"><ele>56.0</ele><time>2026-04-24T22:43:06.557Z</time></trkpt><trkpt lat="37.8025983" lon="15.2156433"><ele>57.333333333333336</ele><time>2026-04-24T22:43:07.556Z</time></trkpt><trkpt lat="37.802475" lon="15.2154933"><ele>58.66666666666667</ele><time>2026-04-24T22:43:08.557Z</time></trkpt><trkpt lat="37.802365" lon="15.2153417"><ele>60.0</ele><time>2026-04-24T22:43:09.556Z</time></trkpt><trkpt lat="37.8022567" lon="15.2151933"><ele>60.0</ele><time>2026-04-24T22:43:10.557Z</time></trkpt><trkpt lat="37.802155" lon="15.2150333"><ele>60.0</ele><time>2026-04-24T22:43:11.556Z</time></trkpt><trkpt lat="37.8020567" lon="15.2148683"><ele>60.0</ele><time>2026-04-24T22:43:12.556Z</time></trkpt><trkpt lat="37.8019617" lon="15.2146967"><ele>59.33333333333333</ele><time>2026-04-24T22:43:13.556Z</time></trkpt><trkpt lat="37.801865" lon="15.2145267"><ele>58.666666666666664</ele><time>2026-04-24T22:43:14.556Z</time></trkpt><trkpt lat="37.8017717" lon="15.21436"><ele>58.0</ele><time>2026-04-24T22:43:15.557Z</time></trkpt><trkpt lat="37.801675" lon="15.2141983"><ele>60.0</ele><time>2026-04-24T22:43:16.557Z</time></trkpt><trkpt lat="37.8015717" lon="15.21404"><ele>62.0</ele><time>2026-04-24T22:43:17.556Z</time></trkpt><trkpt lat="37.8014683" lon="15.2138767"><ele>64.0</ele><time>2026-04-24T22:43:18.556Z</time></trkpt><trkpt lat="37.8013517" lon="15.21372"><ele>64.0</ele><time>2026-04-24T22:43:19.556Z</time></trkpt><trkpt lat="37.8012217" lon="15.2135733"><ele>64.0</ele><time>2026-04-24T22:43:20.557Z</time></trkpt><trkpt lat="37.801085" lon="15.2134383"><ele>64.0</ele><time>2026-04-24T22:43:21.557Z</time></trkpt><trkpt lat="37.8009367" lon="15.2133117"><ele>67.0</ele><time>2026-04-24T22:43:22.557Z</time></trkpt><trkpt lat="37.80079" lon="15.2131883"><ele>70.0</ele><time>2026-04-24T22:43:23.556Z</time></trkpt><trkpt lat="37.8006467" lon="15.2130667"><ele>73.0</ele><time>2026-04-24T22:43:24.557Z</time></trkpt><trkpt lat="37.8005033" lon="15.2129517"><ele>73.0</ele><time>2026-04-24T22:43:25.557Z</time></trkpt><trkpt lat="37.8003583" lon="15.2128417"><ele>73.0</ele><time>2026-04-24T22:43:26.557Z</time></trkpt><trkpt lat="37.8002217" lon="15.2127333"><ele>73.0</ele><time>2026-04-24T22:43:27.556Z</time></trkpt><trkpt lat="37.8000833" lon="15.2126217"><ele>72.66666666666666</ele><time>2026-04-24T22:43:28.556Z</time></trkpt><trkpt lat="37.7999567" lon="15.2124883"><ele>72.33333333333333</ele><time>2026-04-24T22:43:29.556Z</time></trkpt><trkpt lat="37.7998317" lon="15.2123433"><ele>72.0</ele><time>2026-04-24T22:43:30.557Z</time></trkpt><trkpt lat="37.799715" lon="15.2121917"><ele>72.0</ele><time>2026-04-24T22:43:31.557Z</time></trkpt><trkpt lat="37.7995967" lon="15.2120317"><ele>72.0</ele><time>2026-04-24T22:43:32.557Z</time></trkpt><trkpt lat="37.7994717" lon="15.2118733"><ele>72.0</ele><time>2026-04-24T22:43:33.556Z</time></trkpt><trkpt lat="37.7993467" lon="15.2117083"><ele>71.75</ele><time>2026-04-24T22:43:34.556Z</time></trkpt><trkpt lat="37.7992383" lon="15.21156"><ele>71.5</ele><time>2026-04-24T22:43:35.557Z</time></trkpt><trkpt lat="37.7991467" lon="15.2114117"><ele>71.25</ele><time>2026-04-24T22:43:36.557Z</time></trkpt><trkpt lat="37.79906" lon="15.2112817"><ele>71.0</ele><time>2026-04-24T22:43:37.557Z</time></trkpt><trkpt lat="37.7989617" lon="15.2111667"><ele>71.0</ele><time>2026-04-24T22:43:38.556Z</time></trkpt><trkpt lat="37.7988417" lon="15.2110833"><ele>71.0</ele><time>2026-04-24T22:43:39.557Z</time></trkpt><trkpt lat="37.7987017" lon="15.2110233"><ele>71.0</ele><time>2026-04-24T22:43:40.557Z</time></trkpt><trkpt lat="37.7985583" lon="15.2109733"><ele>71.0</ele><time>2026-04-24T22:43:41.556Z</time></trkpt><trkpt lat="37.7984133" lon="15.2109367"><ele>71.75</ele><time>2026-04-24T22:43:42.556Z</time></trkpt><trkpt lat="37.79827" lon="15.2108867"><ele>72.5</ele><time>2026-04-24T22:43:43.557Z</time></trkpt><trkpt lat="37.7981233" lon="15.21084"><ele>73.25</ele><time>2026-04-24T22:43:44.556Z</time></trkpt><trkpt lat="37.7979883" lon="15.2107967"><ele>74.0</ele><time>2026-04-24T22:43:45.556Z</time></trkpt><trkpt lat="37.7978583" lon="15.2107483"><ele>74.0</ele><time>2026-04-24T22:43:46.557Z</time></trkpt><trkpt lat="37.7977367" lon="15.2106967"><ele>74.0</ele><time>2026-04-24T22:43:47.557Z</time></trkpt><trkpt lat="37.7976117" lon="15.2106517"><ele>74.0</ele><time>2026-04-24T22:43:48.557Z</time></trkpt><trkpt lat="37.7974833" lon="15.2106267"><ele>74.0</ele><time>2026-04-24T22:43:49.557Z</time></trkpt><trkpt lat="37.7973517" lon="15.210605"><ele>73.5</ele><time>2026-04-24T22:43:50.556Z</time></trkpt><trkpt lat="37.79722" lon="15.21059"><ele>73.0</ele><time>2026-04-24T22:43:51.557Z</time></trkpt><trkpt lat="37.7970867" lon="15.2105783"><ele>72.5</ele><time>2026-04-24T22:43:52.556Z</time></trkpt><trkpt lat="37.7969583" lon="15.2105583"><ele>72.0</ele><time>2026-04-24T22:43:53.556Z</time></trkpt><trkpt lat="37.796825" lon="15.2105383"><ele>71.5</ele><time>2026-04-24T22:43:54.557Z</time></trkpt><trkpt lat="37.7967" lon="15.21052"><ele>71.0</ele><time>2026-04-24T22:43:55.556Z</time></trkpt><trkpt lat="37.7965767" lon="15.2105033"><ele>70.5</ele><time>2026-04-24T22:43:56.557Z</time></trkpt><trkpt lat="37.7964467" lon="15.210485"><ele>70.0</ele><time>2026-04-24T22:43:57.558Z</time></trkpt><trkpt lat="37.7963167" lon="15.2104717"><ele>70.0</ele><time>2026-04-24T22:43:58.558Z</time></trkpt><trkpt lat="37.7961767" lon="15.210455"><ele>70.0</ele><time>2026-04-24T22:43:59.558Z</time></trkpt><trkpt lat="37.796035" lon="15.2104317"><ele>70.0</ele><time>2026-04-24T22:44:00.558Z</time></trkpt><trkpt lat="37.795895" lon="15.2104133"><ele>70.0</ele><time>2026-04-24T22:44:01.557Z</time></trkpt><trkpt lat="37.7957567" lon="15.2103983"><ele>69.25</ele><time>2026-04-24T22:44:02.558Z</time></trkpt><trkpt lat="37.795625" lon="15.2103783"><ele>68.5</ele><time>2026-04-24T22:44:03.558Z</time></trkpt><trkpt lat="37.7954967" lon="15.210355"><ele>67.75</ele><time>2026-04-24T22:44:04.557Z</time></trkpt><trkpt lat="37.7953683" lon="15.2103167"><ele>67.0</ele><time>2026-04-24T22:44:05.558Z</time></trkpt><trkpt lat="37.7952467" lon="15.2102433"><ele>66.8</ele><time>2026-04-24T22:44:06.558Z</time></trkpt><trkpt lat="37.7951383" lon="15.21016"><ele>66.6</ele><time>2026-04-24T22:44:07.558Z</time></trkpt><trkpt lat="37.7950483" lon="15.2100683"><ele>66.39999999999999</ele><time>2026-04-24T22:44:08.557Z</time></trkpt><trkpt lat="37.794965" lon="15.2099933"><ele>66.2</ele><time>2026-04-24T22:44:09.557Z</time></trkpt><trkpt lat="37.7948833" lon="15.2099283"><ele>66.0</ele><time>2026-04-24T22:44:10.558Z</time></trkpt><trkpt lat="37.794805" lon="15.209865"><ele>66.39999999999999</ele><time>2026-04-24T22:44:11.558Z</time></trkpt><trkpt lat="37.7947233" lon="15.2097967"><ele>66.8</ele><time>2026-04-24T22:44:12.558Z</time></trkpt><trkpt lat="37.7946383" lon="15.2097267"><ele>67.19999999999999</ele><time>2026-04-24T22:44:13.558Z</time></trkpt><trkpt lat="37.7945583" lon="15.2096583"><ele>67.6</ele><time>2026-04-24T22:44:14.557Z</time></trkpt><trkpt lat="37.79449" lon="15.209585"><ele>68.0</ele><time>2026-04-24T22:44:15.557Z</time></trkpt><trkpt lat="37.7944183" lon="15.20952"><ele>68.0</ele><time>2026-04-24T22:44:16.557Z</time></trkpt><trkpt lat="37.7943517" lon="15.2094583"><ele>68.0</ele><time>2026-04-24T22:44:17.557Z</time></trkpt><trkpt lat="37.7942967" lon="15.209405"><ele>68.0</ele><time>2026-04-24T22:44:18.558Z</time></trkpt><trkpt lat="37.794245" lon="15.209355"><ele>68.0</ele><time>2026-04-24T22:44:19.557Z</time></trkpt><trkpt lat="37.7941967" lon="15.2092967"><ele>68.0</ele><time>2026-04-24T22:44:20.558Z</time></trkpt><trkpt lat="37.7941533" lon="15.2091567"><ele>68.0</ele><time>2026-04-24T22:44:22.558Z</time></trkpt><trkpt lat="37.7941633" lon="15.2090633"><ele>67.6</ele><time>2026-04-24T22:44:23.557Z</time></trkpt><trkpt lat="37.7941917" lon="15.2089567"><ele>67.19999999999999</ele><time>2026-04-24T22:44:24.557Z</time></trkpt><trkpt lat="37.794225" lon="15.2088433"><ele>66.8</ele><time>2026-04-24T22:44:25.558Z</time></trkpt><trkpt lat="37.79426" lon="15.20873"><ele>66.39999999999999</ele><time>2026-04-24T22:44:26.558Z</time></trkpt><trkpt lat="37.794295" lon="15.20862"><ele>66.0</ele><time>2026-04-24T22:44:27.557Z</time></trkpt><trkpt lat="37.7943283" lon="15.2085083"><ele>66.6</ele><time>2026-04-24T22:44:28.557Z</time></trkpt><trkpt lat="37.794365" lon="15.2083983"><ele>67.19999999999999</ele><time>2026-04-24T22:44:29.558Z</time></trkpt><trkpt lat="37.7944017" lon="15.20829"><ele>67.80000000000001</ele><time>2026-04-24T22:44:30.557Z</time></trkpt><trkpt lat="37.79444" lon="15.2081817"><ele>68.4</ele><time>2026-04-24T22:44:31.558Z</time></trkpt><trkpt lat="37.79448" lon="15.20807"><ele>69.0</ele><time>2026-04-24T22:44:32.557Z</time></trkpt><trkpt lat="37.7945167" lon="15.2079633"><ele>69.16666666666667</ele><time>2026-04-24T22:44:33.558Z</time></trkpt><trkpt lat="37.7945533" lon="15.20786"><ele>69.33333333333333</ele><time>2026-04-24T22:44:34.557Z</time></trkpt><trkpt lat="37.79459" lon="15.2077533"><ele>69.5</ele><time>2026-04-24T22:44:35.557Z</time></trkpt><trkpt lat="37.7946217" lon="15.207655"><ele>69.66666666666666</ele><time>2026-04-24T22:44:36.558Z</time></trkpt><trkpt lat="37.794645" lon="15.20757"><ele>69.83333333333333</ele><time>2026-04-24T22:44:37.558Z</time></trkpt><trkpt lat="37.7946517" lon="15.2074567"><ele>70.0</ele><time>2026-04-24T22:44:39.558Z</time></trkpt><trkpt lat="37.7946233" lon="15.2073817"><ele>69.66666666666666</ele><time>2026-04-24T22:44:42.558Z</time></trkpt><trkpt lat="37.794585" lon="15.2073017"><ele>69.33333333333333</ele><time>2026-04-24T22:44:46.557Z</time></trkpt><trkpt lat="37.7945533" lon="15.2072133"><ele>69.0</ele><time>2026-04-24T22:44:49.557Z</time></trkpt><trkpt lat="37.7945233" lon="15.207135"><ele>68.66666666666667</ele><time>2026-04-24T22:44:51.557Z</time></trkpt><trkpt lat="37.7944667" lon="15.207015"><ele>68.33333333333334</ele><time>2026-04-24T22:44:53.557Z</time></trkpt><trkpt lat="37.7944133" lon="15.2069483"><ele>68.0</ele><time>2026-04-24T22:44:54.558Z</time></trkpt><trkpt lat="37.794345" lon="15.2068833"><ele>68.2</ele><time>2026-04-24T22:44:55.558Z</time></trkpt><trkpt lat="37.7942617" lon="15.2068283"><ele>68.4</ele><time>2026-04-24T22:44:56.558Z</time></trkpt><trkpt lat="37.794175" lon="15.2067817"><ele>68.60000000000001</ele><time>2026-04-24T22:44:57.558Z</time></trkpt><trkpt lat="37.7940867" lon="15.20673"><ele>68.8</ele><time>2026-04-24T22:44:58.558Z</time></trkpt><trkpt lat="37.7939933" lon="15.20669"><ele>69.0</ele><time>2026-04-24T22:44:59.557Z</time></trkpt><trkpt lat="37.7939033" lon="15.206645"><ele>69.0</ele><time>2026-04-24T22:45:00.557Z</time></trkpt><trkpt lat="37.7938233" lon="15.2065933"><ele>69.0</ele><time>2026-04-24T22:45:01.558Z</time></trkpt><trkpt lat="37.7937367" lon="15.2065367"><ele>69.0</ele><time>2026-04-24T22:45:02.558Z</time></trkpt><trkpt lat="37.7936433" lon="15.2064867"><ele>69.0</ele><time>2026-04-24T22:45:03.558Z</time></trkpt><trkpt lat="37.7935517" lon="15.2064383"><ele>69.0</ele><time>2026-04-24T22:45:04.558Z</time></trkpt><trkpt lat="37.79346" lon="15.20638"><ele>69.60000000000001</ele><time>2026-04-24T22:45:05.557Z</time></trkpt><trkpt lat="37.7933683" lon="15.2063267"><ele>70.2</ele><time>2026-04-24T22:45:06.558Z</time></trkpt><trkpt lat="37.7932717" lon="15.2062733"><ele>70.80000000000001</ele><time>2026-04-24T22:45:07.558Z</time></trkpt><trkpt lat="37.7931767" lon="15.206225"><ele>71.4</ele><time>2026-04-24T22:45:08.557Z</time></trkpt><trkpt lat="37.79309" lon="15.206175"><ele>72.0</ele><time>2026-04-24T22:45:09.558Z</time></trkpt><trkpt lat="37.7930033" lon="15.20613"><ele>72.0</ele><time>2026-04-24T22:45:10.557Z</time></trkpt><trkpt lat="37.7929217" lon="15.2060833"><ele>72.0</ele><time>2026-04-24T22:45:11.557Z</time></trkpt><trkpt lat="37.7928433" lon="15.2060383"><ele>72.0</ele><time>2026-04-24T22:45:12.557Z</time></trkpt><trkpt lat="37.7927667" lon="15.2059917"><ele>72.0</ele><time>2026-04-24T22:45:13.558Z</time></trkpt><trkpt lat="37.7926917" lon="15.2059417"><ele>72.0</ele><time>2026-04-24T22:45:14.558Z</time></trkpt><trkpt lat="37.7926067" lon="15.2058983"><ele>72.0</ele><time>2026-04-24T22:45:15.557Z</time></trkpt><trkpt lat="37.7925183" lon="15.2058483"><ele>72.0</ele><time>2026-04-24T22:45:16.557Z</time></trkpt><trkpt lat="37.7924317" lon="15.20581"><ele>72.0</ele><time>2026-04-24T22:45:17.558Z</time></trkpt><trkpt lat="37.7923517" lon="15.2057683"><ele>72.0</ele><time>2026-04-24T22:45:18.557Z</time></trkpt><trkpt lat="37.79227" lon="15.205725"><ele>72.0</ele><time>2026-04-24T22:45:19.558Z</time></trkpt><trkpt lat="37.792195" lon="15.2056683"><ele>72.0</ele><time>2026-04-24T22:45:20.558Z</time></trkpt><trkpt lat="37.792115" lon="15.2056233"><ele>72.0</ele><time>2026-04-24T22:45:21.557Z</time></trkpt><trkpt lat="37.792035" lon="15.2055767"><ele>72.0</ele><time>2026-04-24T22:45:22.557Z</time></trkpt><trkpt lat="37.7919517" lon="15.2055333"><ele>72.0</ele><time>2026-04-24T22:45:23.557Z</time></trkpt><trkpt lat="37.7918667" lon="15.205485"><ele>72.0</ele><time>2026-04-24T22:45:24.558Z</time></trkpt><trkpt lat="37.7917717" lon="15.20543"><ele>72.0</ele><time>2026-04-24T22:45:25.557Z</time></trkpt><trkpt lat="37.7916633" lon="15.2053683"><ele>72.0</ele><time>2026-04-24T22:45:26.558Z</time></trkpt><trkpt lat="37.791555" lon="15.2053067"><ele>71.6</ele><time>2026-04-24T22:45:27.558Z</time></trkpt><trkpt lat="37.7914583" lon="15.20525"><ele>71.2</ele><time>2026-04-24T22:45:28.558Z</time></trkpt><trkpt lat="37.7913667" lon="15.2051967"><ele>70.8</ele><time>2026-04-24T22:45:29.557Z</time></trkpt><trkpt lat="37.79128" lon="15.2051483"><ele>70.4</ele><time>2026-04-24T22:45:30.558Z</time></trkpt><trkpt lat="37.7912067" lon="15.205105"><ele>70.0</ele><time>2026-04-24T22:45:31.558Z</time></trkpt><trkpt lat="37.7911317" lon="15.2050633"><ele>70.0</ele><time>2026-04-24T22:45:32.557Z</time></trkpt><trkpt lat="37.7910567" lon="15.2050167"><ele>70.0</ele><time>2026-04-24T22:45:33.558Z</time></trkpt><trkpt lat="37.790975" lon="15.2049833"><ele>70.0</ele><time>2026-04-24T22:45:34.557Z</time></trkpt><trkpt lat="37.7908967" lon="15.2049383"><ele>70.0</ele><time>2026-04-24T22:45:35.558Z</time></trkpt><trkpt lat="37.7908183" lon="15.204895"><ele>70.0</ele><time>2026-04-24T22:45:36.557Z</time></trkpt><trkpt lat="37.79075" lon="15.204855"><ele>70.0</ele><time>2026-04-24T22:45:37.557Z</time></trkpt><trkpt lat="37.79068" lon="15.2048167"><ele>69.6</ele><time>2026-04-24T22:45:38.557Z</time></trkpt><trkpt lat="37.7906033" lon="15.2047783"><ele>69.2</ele><time>2026-04-24T22:45:39.558Z</time></trkpt><trkpt lat="37.79052" lon="15.2047317"><ele>68.8</ele><time>2026-04-24T22:45:40.557Z</time></trkpt><trkpt lat="37.790435" lon="15.204685"><ele>68.4</ele><time>2026-04-24T22:45:41.557Z</time></trkpt><trkpt lat="37.7903483" lon="15.204635"><ele>68.0</ele><time>2026-04-24T22:45:42.558Z</time></trkpt><trkpt lat="37.7902667" lon="15.2045883"><ele>68.0</ele><time>2026-04-24T22:45:43.558Z</time></trkpt><trkpt lat="37.79019" lon="15.2045483"><ele>68.0</ele><time>2026-04-24T22:45:44.558Z</time></trkpt><trkpt lat="37.7901167" lon="15.20451"><ele>68.0</ele><time>2026-04-24T22:45:45.557Z</time></trkpt><trkpt lat="37.7900417" lon="15.20447"><ele>68.0</ele><time>2026-04-24T22:45:46.558Z</time></trkpt><trkpt lat="37.7899633" lon="15.20442"><ele>68.0</ele><time>2026-04-24T22:45:47.557Z</time></trkpt><trkpt lat="37.7898783" lon="15.2043683"><ele>68.0</ele><time>2026-04-24T22:45:48.558Z</time></trkpt><trkpt lat="37.7897867" lon="15.2043183"><ele>67.83333333333334</ele><time>2026-04-24T22:45:49.558Z</time></trkpt><trkpt lat="37.7896917" lon="15.2042717"><ele>67.66666666666667</ele><time>2026-04-24T22:45:50.558Z</time></trkpt><trkpt lat="37.7896117" lon="15.20422"><ele>67.5</ele><time>2026-04-24T22:45:51.558Z</time></trkpt><trkpt lat="37.7895333" lon="15.2041767"><ele>67.33333333333333</ele><time>2026-04-24T22:45:52.558Z</time></trkpt><trkpt lat="37.7894617" lon="15.204125"><ele>67.16666666666666</ele><time>2026-04-24T22:45:53.557Z</time></trkpt><trkpt lat="37.7893967" lon="15.2040833"><ele>67.0</ele><time>2026-04-24T22:45:54.557Z</time></trkpt><trkpt lat="37.7893283" lon="15.2040317"><ele>67.0</ele><time>2026-04-24T22:45:55.558Z</time></trkpt><trkpt lat="37.78926" lon="15.2039867"><ele>67.0</ele><time>2026-04-24T22:45:56.557Z</time></trkpt><trkpt lat="37.7891967" lon="15.203945"><ele>67.0</ele><time>2026-04-24T22:45:57.557Z</time></trkpt><trkpt lat="37.789125" lon="15.203905"><ele>67.0</ele><time>2026-04-24T22:45:58.558Z</time></trkpt><trkpt lat="37.7890433" lon="15.20386"><ele>67.0</ele><time>2026-04-24T22:45:59.557Z</time></trkpt><trkpt lat="37.7889567" lon="15.2038167"><ele>67.0</ele><time>2026-04-24T22:46:00.558Z</time></trkpt><trkpt lat="37.7888683" lon="15.2037767"><ele>67.0</ele><time>2026-04-24T22:46:01.558Z</time></trkpt><trkpt lat="37.78878" lon="15.2037333"><ele>67.0</ele><time>2026-04-24T22:46:02.558Z</time></trkpt><trkpt lat="37.7886917" lon="15.2036867"><ele>67.0</ele><time>2026-04-24T22:46:03.557Z</time></trkpt><trkpt lat="37.7885967" lon="15.2036483"><ele>67.0</ele><time>2026-04-24T22:46:04.557Z</time></trkpt><trkpt lat="37.7885033" lon="15.20361"><ele>67.0</ele><time>2026-04-24T22:46:05.558Z</time></trkpt><trkpt lat="37.788405" lon="15.2035717"><ele>65.4</ele><time>2026-04-24T22:46:06.558Z</time></trkpt><trkpt lat="37.788305" lon="15.203525"><ele>63.800000000000004</ele><time>2026-04-24T22:46:07.557Z</time></trkpt><trkpt lat="37.788205" lon="15.20348"><ele>62.2</ele><time>2026-04-24T22:46:08.558Z</time></trkpt><trkpt lat="37.7881" lon="15.203445"><ele>60.6</ele><time>2026-04-24T22:46:09.558Z</time></trkpt><trkpt lat="37.7879867" lon="15.2034083"><ele>59.0</ele><time>2026-04-24T22:46:10.557Z</time></trkpt><trkpt lat="37.7878733" lon="15.203375"><ele>59.0</ele><time>2026-04-24T22:46:11.558Z</time></trkpt><trkpt lat="37.7877533" lon="15.2033467"><ele>59.0</ele><time>2026-04-24T22:46:12.557Z</time></trkpt><trkpt lat="37.78763" lon="15.2033317"><ele>59.0</ele><time>2026-04-24T22:46:13.557Z</time></trkpt><trkpt lat="37.7875067" lon="15.2033117"><ele>59.0</ele><time>2026-04-24T22:46:14.558Z</time></trkpt><trkpt lat="37.7873883" lon="15.2032917"><ele>57.75</ele><time>2026-04-24T22:46:15.558Z</time></trkpt><trkpt lat="37.7872683" lon="15.2032717"><ele>56.5</ele><time>2026-04-24T22:46:16.558Z</time></trkpt><trkpt lat="37.7871533" lon="15.2032517"><ele>55.25</ele><time>2026-04-24T22:46:17.558Z</time></trkpt><trkpt lat="37.787045" lon="15.2032367"><ele>54.0</ele><time>2026-04-24T22:46:18.557Z</time></trkpt><trkpt lat="37.78694" lon="15.2032217"><ele>54.0</ele><time>2026-04-24T22:46:19.557Z</time></trkpt><trkpt lat="37.786845" lon="15.20321"><ele>54.0</ele><time>2026-04-24T22:46:20.558Z</time></trkpt><trkpt lat="37.786755" lon="15.2031967"><ele>54.0</ele><time>2026-04-24T22:46:21.557Z</time></trkpt><trkpt lat="37.7866633" lon="15.2031783"><ele>54.0</ele><time>2026-04-24T22:46:22.558Z</time></trkpt><trkpt lat="37.7865783" lon="15.2031567"><ele>54.0</ele><time>2026-04-24T22:46:23.558Z</time></trkpt><trkpt lat="37.7864983" lon="15.2031383"><ele>54.0</ele><time>2026-04-24T22:46:24.557Z</time></trkpt><trkpt lat="37.7864133" lon="15.20312"><ele>54.166666666666664</ele><time>2026-04-24T22:46:25.558Z</time></trkpt><trkpt lat="37.78633" lon="15.2031033"><ele>54.33333333333333</ele><time>2026-04-24T22:46:26.557Z</time></trkpt><trkpt lat="37.7862483" lon="15.2030917"><ele>54.5</ele><time>2026-04-24T22:46:27.557Z</time></trkpt><trkpt lat="37.78616" lon="15.2030717"><ele>54.666666666666664</ele><time>2026-04-24T22:46:28.557Z</time></trkpt><trkpt lat="37.7860717" lon="15.2030567"><ele>54.83333333333333</ele><time>2026-04-24T22:46:29.558Z</time></trkpt><trkpt lat="37.7859867" lon="15.2030383"><ele>55.0</ele><time>2026-04-24T22:46:30.557Z</time></trkpt><trkpt lat="37.7858983" lon="15.2030183"><ele>55.4</ele><time>2026-04-24T22:46:31.557Z</time></trkpt><trkpt lat="37.7858033" lon="15.2029983"><ele>55.8</ele><time>2026-04-24T22:46:32.557Z</time></trkpt><trkpt lat="37.7857067" lon="15.2029783"><ele>56.2</ele><time>2026-04-24T22:46:33.558Z</time></trkpt><trkpt lat="37.7856083" lon="15.2029567"><ele>56.6</ele><time>2026-04-24T22:46:34.558Z</time></trkpt><trkpt lat="37.7855083" lon="15.2029333"><ele>57.0</ele><time>2026-04-24T22:46:35.558Z</time></trkpt><trkpt lat="37.7854083" lon="15.2029117"><ele>57.0</ele><time>2026-04-24T22:46:36.557Z</time></trkpt><trkpt lat="37.7853083" lon="15.20289"><ele>57.0</ele><time>2026-04-24T22:46:37.558Z</time></trkpt><trkpt lat="37.7852133" lon="15.2028667"><ele>57.0</ele><time>2026-04-24T22:46:38.558Z</time></trkpt><trkpt lat="37.7851167" lon="15.20285"><ele>57.0</ele><time>2026-04-24T22:46:39.558Z</time></trkpt><trkpt lat="37.7850167" lon="15.202825"><ele>57.0</ele><time>2026-04-24T22:46:40.557Z</time></trkpt><trkpt lat="37.78492" lon="15.202805"><ele>56.6</ele><time>2026-04-24T22:46:41.558Z</time></trkpt><trkpt lat="37.784825" lon="15.20279"><ele>56.2</ele><time>2026-04-24T22:46:42.557Z</time></trkpt><trkpt lat="37.7847283" lon="15.2027783"><ele>55.8</ele><time>2026-04-24T22:46:43.558Z</time></trkpt><trkpt lat="37.784635" lon="15.2027567"><ele>55.4</ele><time>2026-04-24T22:46:44.557Z</time></trkpt><trkpt lat="37.7845417" lon="15.20273"><ele>55.0</ele><time>2026-04-24T22:46:45.557Z</time></trkpt><trkpt lat="37.78445" lon="15.2026983"><ele>55.0</ele><time>2026-04-24T22:46:46.558Z</time></trkpt><trkpt lat="37.7843567" lon="15.202675"><ele>55.0</ele><time>2026-04-24T22:46:47.557Z</time></trkpt><trkpt lat="37.784265" lon="15.2026533"><ele>55.0</ele><time>2026-04-24T22:46:48.558Z</time></trkpt><trkpt lat="37.784175" lon="15.20263"><ele>55.0</ele><time>2026-04-24T22:46:49.558Z</time></trkpt><trkpt lat="37.784085" lon="15.2026117"><ele>55.0</ele><time>2026-04-24T22:46:50.558Z</time></trkpt><trkpt lat="37.783985" lon="15.2025917"><ele>55.0</ele><time>2026-04-24T22:46:51.557Z</time></trkpt><trkpt lat="37.78388" lon="15.20257"><ele>55.0</ele><time>2026-04-24T22:46:52.558Z</time></trkpt><trkpt lat="37.7837617" lon="15.2025433"><ele>55.0</ele><time>2026-04-24T22:46:53.558Z</time></trkpt><trkpt lat="37.7836417" lon="15.20252"><ele>55.0</ele><time>2026-04-24T22:46:54.558Z</time></trkpt><trkpt lat="37.7835283" lon="15.2025"><ele>54.8</ele><time>2026-04-24T22:46:55.558Z</time></trkpt><trkpt lat="37.7834217" lon="15.20248"><ele>54.6</ele><time>2026-04-24T22:46:56.557Z</time></trkpt><trkpt lat="37.78332" lon="15.2024617"><ele>54.400000000000006</ele><time>2026-04-24T22:46:57.558Z</time></trkpt><trkpt lat="37.7832117" lon="15.2024383"><ele>54.2</ele><time>2026-04-24T22:46:58.558Z</time></trkpt><trkpt lat="37.783095" lon="15.202415"><ele>54.0</ele><time>2026-04-24T22:46:59.558Z</time></trkpt><trkpt lat="37.78297" lon="15.2023867"><ele>54.0</ele><time>2026-04-24T22:47:00.558Z</time></trkpt><trkpt lat="37.78284" lon="15.2023583"><ele>54.0</ele><time>2026-04-24T22:47:01.557Z</time></trkpt><trkpt lat="37.7827117" lon="15.2023267"><ele>54.0</ele><time>2026-04-24T22:47:02.558Z</time></trkpt><trkpt lat="37.7825867" lon="15.2022933"><ele>54.0</ele><time>2026-04-24T22:47:03.558Z</time></trkpt><trkpt lat="37.7824683" lon="15.2022667"><ele>54.0</ele><time>2026-04-24T22:47:04.558Z</time></trkpt><trkpt lat="37.78236" lon="15.2022433"><ele>54.00000000000001</ele><time>2026-04-24T22:47:05.558Z</time></trkpt><trkpt lat="37.7822633" lon="15.202225"><ele>54.00000000000001</ele><time>2026-04-24T22:47:06.558Z</time></trkpt><trkpt lat="37.7821683" lon="15.20221"><ele>54.0</ele><time>2026-04-24T22:47:07.558Z</time></trkpt><trkpt lat="37.7820667" lon="15.2021967"><ele>54.0</ele><time>2026-04-24T22:47:08.558Z</time></trkpt><trkpt lat="37.7819683" lon="15.2021783"><ele>54.0</ele><time>2026-04-24T22:47:09.558Z</time></trkpt><trkpt lat="37.7818683" lon="15.202165"><ele>54.0</ele><time>2026-04-24T22:47:10.557Z</time></trkpt><trkpt lat="37.7817617" lon="15.2021417"><ele>54.0</ele><time>2026-04-24T22:47:11.558Z</time></trkpt><trkpt lat="37.781645" lon="15.2021167"><ele>54.0</ele><time>2026-04-24T22:47:12.558Z</time></trkpt><trkpt lat="37.781515" lon="15.2020967"><ele>54.25</ele><time>2026-04-24T22:47:13.557Z</time></trkpt><trkpt lat="37.78138" lon="15.202075"><ele>54.5</ele><time>2026-04-24T22:47:14.558Z</time></trkpt><trkpt lat="37.7812417" lon="15.2020533"><ele>54.75</ele><time>2026-04-24T22:47:15.558Z</time></trkpt><trkpt lat="37.7811033" lon="15.2020317"><ele>55.0</ele><time>2026-04-24T22:47:16.558Z</time></trkpt><trkpt lat="37.7809683" lon="15.20201"><ele>55.75</ele><time>2026-04-24T22:47:17.557Z</time></trkpt><trkpt lat="37.7808383" lon="15.201985"><ele>56.5</ele><time>2026-04-24T22:47:18.558Z</time></trkpt><trkpt lat="37.7807117" lon="15.201965"><ele>57.25</ele><time>2026-04-24T22:47:19.558Z</time></trkpt><trkpt lat="37.7805933" lon="15.2019467"><ele>58.0</ele><time>2026-04-24T22:47:20.558Z</time></trkpt><trkpt lat="37.78048" lon="15.20193"><ele>58.0</ele><time>2026-04-24T22:47:21.557Z</time></trkpt><trkpt lat="37.7803683" lon="15.2019183"><ele>58.0</ele><time>2026-04-24T22:47:22.558Z</time></trkpt><trkpt lat="37.7802617" lon="15.2019083"><ele>58.0</ele><time>2026-04-24T22:47:23.558Z</time></trkpt><trkpt lat="37.7801567" lon="15.201895"><ele>58.0</ele><time>2026-04-24T22:47:24.558Z</time></trkpt><trkpt lat="37.7800533" lon="15.2018783"><ele>58.0</ele><time>2026-04-24T22:47:25.557Z</time></trkpt><trkpt lat="37.7799583" lon="15.20186"><ele>58.2</ele><time>2026-04-24T22:47:26.558Z</time></trkpt><trkpt lat="37.7798667" lon="15.20184"><ele>58.4</ele><time>2026-04-24T22:47:27.558Z</time></trkpt><trkpt lat="37.779765" lon="15.2018167"><ele>58.60000000000001</ele><time>2026-04-24T22:47:28.558Z</time></trkpt><trkpt lat="37.7796683" lon="15.2017967"><ele>58.800000000000004</ele><time>2026-04-24T22:47:29.557Z</time></trkpt><trkpt lat="37.7795733" lon="15.2017733"><ele>59.0</ele><time>2026-04-24T22:47:30.558Z</time></trkpt><trkpt lat="37.7794767" lon="15.201745"><ele>59.0</ele><time>2026-04-24T22:47:31.557Z</time></trkpt><trkpt lat="37.77938" lon="15.2017133"><ele>59.00000000000001</ele><time>2026-04-24T22:47:32.558Z</time></trkpt><trkpt lat="37.7792767" lon="15.20168"><ele>59.00000000000001</ele><time>2026-04-24T22:47:33.558Z</time></trkpt><trkpt lat="37.7791767" lon="15.20164"><ele>59.0</ele><time>2026-04-24T22:47:34.558Z</time></trkpt><trkpt lat="37.7790783" lon="15.201585"><ele>59.0</ele><time>2026-04-24T22:47:35.558Z</time></trkpt><trkpt lat="37.77898" lon="15.2015267"><ele>59.400000000000006</ele><time>2026-04-24T22:47:36.557Z</time></trkpt><trkpt lat="37.7788783" lon="15.2014783"><ele>59.800000000000004</ele><time>2026-04-24T22:47:37.557Z</time></trkpt><trkpt lat="37.778775" lon="15.2014267"><ele>60.199999999999996</ele><time>2026-04-24T22:47:38.557Z</time></trkpt><trkpt lat="37.7786767" lon="15.2013667"><ele>60.599999999999994</ele><time>2026-04-24T22:47:39.557Z</time></trkpt><trkpt lat="37.778585" lon="15.2013"><ele>61.0</ele><time>2026-04-24T22:47:40.558Z</time></trkpt><trkpt lat="37.7785" lon="15.2012317"><ele>61.0</ele><time>2026-04-24T22:47:41.558Z</time></trkpt><trkpt lat="37.7784017" lon="15.201175"><ele>61.0</ele><time>2026-04-24T22:47:42.557Z</time></trkpt><trkpt lat="37.7782983" lon="15.2011283"><ele>61.0</ele><time>2026-04-24T22:47:43.558Z</time></trkpt><trkpt lat="37.77818" lon="15.20111"><ele>61.0</ele><time>2026-04-24T22:47:44.558Z</time></trkpt><trkpt lat="37.7780517" lon="15.20111"><ele>61.0</ele><time>2026-04-24T22:47:45.557Z</time></trkpt><trkpt lat="37.777925" lon="15.201115"><ele>61.0</ele><time>2026-04-24T22:47:46.558Z</time></trkpt><trkpt lat="37.7777933" lon="15.20112"><ele>61.0</ele><time>2026-04-24T22:47:47.558Z</time></trkpt><trkpt lat="37.7776567" lon="15.2011267"><ele>61.0</ele><time>2026-04-24T22:47:48.557Z</time></trkpt><trkpt lat="37.7775133" lon="15.201135"><ele>60.75</ele><time>2026-04-24T22:47:49.558Z</time></trkpt><trkpt lat="37.7773667" lon="15.2011467"><ele>60.5</ele><time>2026-04-24T22:47:50.558Z</time></trkpt><trkpt lat="37.7772183" lon="15.201155"><ele>60.25</ele><time>2026-04-24T22:47:51.558Z</time></trkpt><trkpt lat="37.7770717" lon="15.2011617"><ele>60.0</ele><time>2026-04-24T22:47:52.557Z</time></trkpt><trkpt lat="37.7769367" lon="15.2011733"><ele>59.5</ele><time>2026-04-24T22:47:53.558Z</time></trkpt><trkpt lat="37.7768133" lon="15.2011883"><ele>59.0</ele><time>2026-04-24T22:47:54.558Z</time></trkpt><trkpt lat="37.7766983" lon="15.201195"><ele>58.5</ele><time>2026-04-24T22:47:55.557Z</time></trkpt><trkpt lat="37.7765883" lon="15.2012"><ele>58.0</ele><time>2026-04-24T22:47:56.558Z</time></trkpt><trkpt lat="37.7764733" lon="15.2012017"><ele>58.0</ele><time>2026-04-24T22:47:57.558Z</time></trkpt><trkpt lat="37.776355" lon="15.2012033"><ele>58.0</ele><time>2026-04-24T22:47:58.557Z</time></trkpt><trkpt lat="37.7762283" lon="15.2012"><ele>58.0</ele><time>2026-04-24T22:47:59.557Z</time></trkpt><trkpt lat="37.7760967" lon="15.2011933"><ele>58.0</ele><time>2026-04-24T22:48:00.558Z</time></trkpt><trkpt lat="37.7759667" lon="15.2011833"><ele>58.0</ele><time>2026-04-24T22:48:01.558Z</time></trkpt><trkpt lat="37.7758533" lon="15.2011617"><ele>58.0</ele><time>2026-04-24T22:48:02.557Z</time></trkpt><trkpt lat="37.7757483" lon="15.20115"><ele>58.0</ele><time>2026-04-24T22:48:03.557Z</time></trkpt><trkpt lat="37.77564" lon="15.20114"><ele>58.0</ele><time>2026-04-24T22:48:04.558Z</time></trkpt><trkpt lat="37.7755283" lon="15.20112"><ele>58.0</ele><time>2026-04-24T22:48:05.558Z</time></trkpt><trkpt lat="37.7754133" lon="15.2010867"><ele>58.0</ele><time>2026-04-24T22:48:06.557Z</time></trkpt><trkpt lat="37.7752967" lon="15.2010483"><ele>58.0</ele><time>2026-04-24T22:48:07.557Z</time></trkpt><trkpt lat="37.7751833" lon="15.201005"><ele>58.0</ele><time>2026-04-24T22:48:08.557Z</time></trkpt><trkpt lat="37.7750767" lon="15.200965"><ele>58.0</ele><time>2026-04-24T22:48:09.557Z</time></trkpt><trkpt lat="37.7749667" lon="15.2009217"><ele>57.25</ele><time>2026-04-24T22:48:10.558Z</time></trkpt><trkpt lat="37.774865" lon="15.2008817"><ele>56.5</ele><time>2026-04-24T22:48:11.557Z</time></trkpt><trkpt lat="37.774765" lon="15.2008383"><ele>55.75</ele><time>2026-04-24T22:48:12.557Z</time></trkpt><trkpt lat="37.7746567" lon="15.200785"><ele>55.0</ele><time>2026-04-24T22:48:13.557Z</time></trkpt><trkpt lat="37.77454" lon="15.200725"><ele>55.0</ele><time>2026-04-24T22:48:14.557Z</time></trkpt><trkpt lat="37.77442" lon="15.2006617"><ele>55.0</ele><time>2026-04-24T22:48:15.557Z</time></trkpt><trkpt lat="37.7743067" lon="15.20059"><ele>55.0</ele><time>2026-04-24T22:48:16.558Z</time></trkpt><trkpt lat="37.7741933" lon="15.2005183"><ele>55.0</ele><time>2026-04-24T22:48:17.558Z</time></trkpt><trkpt lat="37.774085" lon="15.2004483"><ele>55.0</ele><time>2026-04-24T22:48:18.557Z</time></trkpt><trkpt lat="37.7739767" lon="15.2003817"><ele>55.0</ele><time>2026-04-24T22:48:19.558Z</time></trkpt><trkpt lat="37.77386" lon="15.200305"><ele>55.0</ele><time>2026-04-24T22:48:20.558Z</time></trkpt><trkpt lat="37.773745" lon="15.20022"><ele>55.0</ele><time>2026-04-24T22:48:21.558Z</time></trkpt><trkpt lat="37.7736483" lon="15.2001483"><ele>55.0</ele><time>2026-04-24T22:48:22.558Z</time></trkpt><trkpt lat="37.7735517" lon="15.20008"><ele>55.0</ele><time>2026-04-24T22:48:23.558Z</time></trkpt><trkpt lat="37.7734533" lon="15.2000133"><ele>55.0</ele><time>2026-04-24T22:48:24.558Z</time></trkpt><trkpt lat="37.7733483" lon="15.1999467"><ele>55.0</ele><time>2026-04-24T22:48:25.557Z</time></trkpt><trkpt lat="37.7732367" lon="15.199875"><ele>54.75</ele><time>2026-04-24T22:48:26.558Z</time></trkpt><trkpt lat="37.77312" lon="15.1997983"><ele>54.5</ele><time>2026-04-24T22:48:27.558Z</time></trkpt><trkpt lat="37.7730017" lon="15.1997233"><ele>54.25</ele><time>2026-04-24T22:48:28.557Z</time></trkpt><trkpt lat="37.7728917" lon="15.199655"><ele>54.0</ele><time>2026-04-24T22:48:29.558Z</time></trkpt><trkpt lat="37.7727917" lon="15.1995883"><ele>54.0</ele><time>2026-04-24T22:48:30.558Z</time></trkpt><trkpt lat="37.7726983" lon="15.199525"><ele>54.00000000000001</ele><time>2026-04-24T22:48:31.557Z</time></trkpt><trkpt lat="37.7726017" lon="15.1994617"><ele>54.00000000000001</ele><time>2026-04-24T22:48:32.558Z</time></trkpt><trkpt lat="37.772505" lon="15.199395"><ele>54.0</ele><time>2026-04-24T22:48:33.557Z</time></trkpt><trkpt lat="37.7723967" lon="15.1993317"><ele>54.0</ele><time>2026-04-24T22:48:34.557Z</time></trkpt><trkpt lat="37.7722817" lon="15.1992667"><ele>54.0</ele><time>2026-04-24T22:48:35.558Z</time></trkpt><trkpt lat="37.7721583" lon="15.1991867"><ele>54.0</ele><time>2026-04-24T22:48:36.557Z</time></trkpt><trkpt lat="37.7720267" lon="15.199105"><ele>54.0</ele><time>2026-04-24T22:48:37.558Z</time></trkpt><trkpt lat="37.7718883" lon="15.1990167"><ele>54.0</ele><time>2026-04-24T22:48:38.558Z</time></trkpt><trkpt lat="37.7717417" lon="15.1989233"><ele>52.0</ele><time>2026-04-24T22:48:39.558Z</time></trkpt><trkpt lat="37.7715933" lon="15.1988233"><ele>50.0</ele><time>2026-04-24T22:48:40.558Z</time></trkpt><trkpt lat="37.7714467" lon="15.1987117"><ele>48.0</ele><time>2026-04-24T22:48:41.557Z</time></trkpt><trkpt lat="37.7712967" lon="15.1985967"><ele>48.0</ele><time>2026-04-24T22:48:42.557Z</time></trkpt><trkpt lat="37.7711433" lon="15.198475"><ele>48.0</ele><time>2026-04-24T22:48:43.557Z</time></trkpt><trkpt lat="37.770985" lon="15.1983517"><ele>48.0</ele><time>2026-04-24T22:48:44.558Z</time></trkpt><trkpt lat="37.77083" lon="15.1982283"><ele>48.66666666666667</ele><time>2026-04-24T22:48:45.557Z</time></trkpt><trkpt lat="37.77067" lon="15.198105"><ele>49.333333333333336</ele><time>2026-04-24T22:48:46.558Z</time></trkpt><trkpt lat="37.7705" lon="15.1979817"><ele>50.0</ele><time>2026-04-24T22:48:47.558Z</time></trkpt><trkpt lat="37.7703333" lon="15.1978533"><ele>49.333333333333336</ele><time>2026-04-24T22:48:48.558Z</time></trkpt><trkpt lat="37.7701633" lon="15.197735"><ele>48.66666666666667</ele><time>2026-04-24T22:48:49.558Z</time></trkpt><trkpt lat="37.770005" lon="15.197615"><ele>48.0</ele><time>2026-04-24T22:48:50.558Z</time></trkpt><trkpt lat="37.7698417" lon="15.1974983"><ele>48.0</ele><time>2026-04-24T22:48:51.557Z</time></trkpt><trkpt lat="37.7696833" lon="15.1973783"><ele>48.0</ele><time>2026-04-24T22:48:52.557Z</time></trkpt><trkpt lat="37.769525" lon="15.1972567"><ele>48.0</ele><time>2026-04-24T22:48:53.557Z</time></trkpt><trkpt lat="37.7693633" lon="15.1971317"><ele>49.33333333333333</ele><time>2026-04-24T22:48:54.558Z</time></trkpt><trkpt lat="37.7692" lon="15.197005"><ele>50.666666666666664</ele><time>2026-04-24T22:48:55.558Z</time></trkpt><trkpt lat="37.769035" lon="15.1968833"><ele>52.0</ele><time>2026-04-24T22:48:56.557Z</time></trkpt><trkpt lat="37.7688683" lon="15.19676"><ele>52.0</ele><time>2026-04-24T22:48:57.557Z</time></trkpt><trkpt lat="37.7686967" lon="15.19663"><ele>52.0</ele><time>2026-04-24T22:48:58.557Z</time></trkpt><trkpt lat="37.76852" lon="15.1965017"><ele>52.0</ele><time>2026-04-24T22:48:59.558Z</time></trkpt><trkpt lat="37.7683433" lon="15.19637"><ele>52.666666666666664</ele><time>2026-04-24T22:49:00.557Z</time></trkpt><trkpt lat="37.7681683" lon="15.19624"><ele>53.33333333333333</ele><time>2026-04-24T22:49:01.558Z</time></trkpt><trkpt lat="37.7679933" lon="15.19611"><ele>54.0</ele><time>2026-04-24T22:49:02.557Z</time></trkpt><trkpt lat="37.7678267" lon="15.1959867"><ele>52.66666666666667</ele><time>2026-04-24T22:49:03.558Z</time></trkpt><trkpt lat="37.7676683" lon="15.1958733"><ele>51.333333333333336</ele><time>2026-04-24T22:49:04.557Z</time></trkpt><trkpt lat="37.7675233" lon="15.1957717"><ele>50.0</ele><time>2026-04-24T22:49:05.557Z</time></trkpt><trkpt lat="37.7673883" lon="15.1956783"><ele>51.25</ele><time>2026-04-24T22:49:06.557Z</time></trkpt><trkpt lat="37.7672667" lon="15.1956"><ele>52.5</ele><time>2026-04-24T22:49:07.558Z</time></trkpt><trkpt lat="37.7671533" lon="15.1955217"><ele>53.75</ele><time>2026-04-24T22:49:08.557Z</time></trkpt><trkpt lat="37.767045" lon="15.1954467"><ele>55.0</ele><time>2026-04-24T22:49:09.558Z</time></trkpt><trkpt lat="37.7669433" lon="15.1953783"><ele>54.4</ele><time>2026-04-24T22:49:10.558Z</time></trkpt><trkpt lat="37.7668433" lon="15.1953117"><ele>53.8</ele><time>2026-04-24T22:49:11.558Z</time></trkpt><trkpt lat="37.7667483" lon="15.1952517"><ele>53.2</ele><time>2026-04-24T22:49:12.557Z</time></trkpt><trkpt lat="37.766655" lon="15.1951967"><ele>52.6</ele><time>2026-04-24T22:49:13.558Z</time></trkpt><trkpt lat="37.76656" lon="15.1951383"><ele>52.0</ele><time>2026-04-24T22:49:14.557Z</time></trkpt><trkpt lat="37.7664567" lon="15.1950833"><ele>52.0</ele><time>2026-04-24T22:49:15.557Z</time></trkpt><trkpt lat="37.7663517" lon="15.1950167"><ele>52.0</ele><time>2026-04-24T22:49:16.557Z</time></trkpt><trkpt lat="37.766235" lon="15.1949467"><ele>52.0</ele><time>2026-04-24T22:49:17.558Z</time></trkpt><trkpt lat="37.7661083" lon="15.19487"><ele>52.0</ele><time>2026-04-24T22:49:18.558Z</time></trkpt><trkpt lat="37.7659733" lon="15.1947917"><ele>52.0</ele><time>2026-04-24T22:49:19.558Z</time></trkpt><trkpt lat="37.7658417" lon="15.1947083"><ele>52.0</ele><time>2026-04-24T22:49:20.557Z</time></trkpt><trkpt lat="37.7657083" lon="15.19463"><ele>52.0</ele><time>2026-04-24T22:49:21.558Z</time></trkpt><trkpt lat="37.7655733" lon="15.1945667"><ele>52.0</ele><time>2026-04-24T22:49:22.558Z</time></trkpt><trkpt lat="37.7654233" lon="15.1945267"><ele>52.0</ele><time>2026-04-24T22:49:23.557Z</time></trkpt><trkpt lat="37.7652617" lon="15.1945067"><ele>52.0</ele><time>2026-04-24T22:49:24.558Z</time></trkpt><trkpt lat="37.7650933" lon="15.1945017"><ele>52.0</ele><time>2026-04-24T22:49:25.557Z</time></trkpt><trkpt lat="37.764925" lon="15.19451"><ele>50.0</ele><time>2026-04-24T22:49:26.558Z</time></trkpt><trkpt lat="37.7647633" lon="15.19451"><ele>48.0</ele><time>2026-04-24T22:49:27.557Z</time></trkpt><trkpt lat="37.76461" lon="15.194505"><ele>46.0</ele><time>2026-04-24T22:49:28.558Z</time></trkpt><trkpt lat="37.7644517" lon="15.1945083"><ele>45.333333333333336</ele><time>2026-04-24T22:49:29.557Z</time></trkpt><trkpt lat="37.7642933" lon="15.1945083"><ele>44.666666666666664</ele><time>2026-04-24T22:49:30.558Z</time></trkpt><trkpt lat="37.76413" lon="15.1945267"><ele>44.0</ele><time>2026-04-24T22:49:31.557Z</time></trkpt><trkpt lat="37.76396" lon="15.1945567"><ele>44.0</ele><time>2026-04-24T22:49:32.558Z</time></trkpt><trkpt lat="37.7638" lon="15.194615"><ele>44.0</ele><time>2026-04-24T22:49:33.557Z</time></trkpt><trkpt lat="37.76365" lon="15.19469"><ele>44.0</ele><time>2026-04-24T22:49:34.557Z</time></trkpt><trkpt lat="37.7635167" lon="15.19478"><ele>43.33333333333333</ele><time>2026-04-24T22:49:35.558Z</time></trkpt><trkpt lat="37.7633817" lon="15.1948767"><ele>42.666666666666664</ele><time>2026-04-24T22:49:36.557Z</time></trkpt><trkpt lat="37.7632417" lon="15.1949733"><ele>42.0</ele><time>2026-04-24T22:49:37.558Z</time></trkpt><trkpt lat="37.7631017" lon="15.1950633"><ele>42.0</ele><time>2026-04-24T22:49:38.557Z</time></trkpt><trkpt lat="37.7629633" lon="15.1951517"><ele>42.0</ele><time>2026-04-24T22:49:39.557Z</time></trkpt><trkpt lat="37.76283" lon="15.19524"><ele>42.0</ele><time>2026-04-24T22:49:40.557Z</time></trkpt><trkpt lat="37.7627017" lon="15.1953183"><ele>42.0</ele><time>2026-04-24T22:49:41.558Z</time></trkpt><trkpt lat="37.7625683" lon="15.1953867"><ele>42.0</ele><time>2026-04-24T22:49:42.557Z</time></trkpt><trkpt lat="37.7624283" lon="15.1954433"><ele>42.0</ele><time>2026-04-24T22:49:43.558Z</time></trkpt><trkpt lat="37.7622783" lon="15.1954883"><ele>42.0</ele><time>2026-04-24T22:49:44.558Z</time></trkpt><trkpt lat="37.76213" lon="15.195525"><ele>42.0</ele><time>2026-04-24T22:49:45.558Z</time></trkpt><trkpt lat="37.7619783" lon="15.19556"><ele>42.0</ele><time>2026-04-24T22:49:46.558Z</time></trkpt><trkpt lat="37.761815" lon="15.195605"><ele>42.0</ele><time>2026-04-24T22:49:47.558Z</time></trkpt><trkpt lat="37.7616517" lon="15.1956483"><ele>40.666666666666664</ele><time>2026-04-24T22:49:48.558Z</time></trkpt><trkpt lat="37.76149" lon="15.1956967"><ele>39.33333333333333</ele><time>2026-04-24T22:49:49.557Z</time></trkpt><trkpt lat="37.76133" lon="15.1957433"><ele>38.0</ele><time>2026-04-24T22:49:50.558Z</time></trkpt><trkpt lat="37.761175" lon="15.19579"><ele>37.33333333333333</ele><time>2026-04-24T22:49:51.558Z</time></trkpt><trkpt lat="37.76103" lon="15.1958333"><ele>36.666666666666664</ele><time>2026-04-24T22:49:52.558Z</time></trkpt><trkpt lat="37.7608817" lon="15.1958767"><ele>36.0</ele><time>2026-04-24T22:49:53.558Z</time></trkpt><trkpt lat="37.760735" lon="15.195925"><ele>36.0</ele><time>2026-04-24T22:49:54.558Z</time></trkpt><trkpt lat="37.7605917" lon="15.195975"><ele>36.0</ele><time>2026-04-24T22:49:55.557Z</time></trkpt><trkpt lat="37.76044" lon="15.1960233"><ele>36.0</ele><time>2026-04-24T22:49:56.557Z</time></trkpt><trkpt lat="37.7602783" lon="15.1960867"><ele>35.333333333333336</ele><time>2026-04-24T22:49:57.558Z</time></trkpt><trkpt lat="37.7601233" lon="15.1961683"><ele>34.66666666666667</ele><time>2026-04-24T22:49:58.558Z</time></trkpt><trkpt lat="37.7599467" lon="15.1962433"><ele>34.0</ele><time>2026-04-24T22:49:59.558Z</time></trkpt><trkpt lat="37.7597633" lon="15.1963367"><ele>34.0</ele><time>2026-04-24T22:50:00.558Z</time></trkpt><trkpt lat="37.7595817" lon="15.1964117"><ele>34.0</ele><time>2026-04-24T22:50:01.557Z</time></trkpt><trkpt lat="37.7594133" lon="15.1964767"><ele>34.0</ele><time>2026-04-24T22:50:02.557Z</time></trkpt><trkpt lat="37.7592483" lon="15.19652"><ele>31.666666666666668</ele><time>2026-04-24T22:50:03.558Z</time></trkpt><trkpt lat="37.7590733" lon="15.196555"><ele>29.333333333333336</ele><time>2026-04-24T22:50:04.558Z</time></trkpt><trkpt lat="37.7589" lon="15.1965783"><ele>27.0</ele><time>2026-04-24T22:50:05.558Z</time></trkpt><trkpt lat="37.7587367" lon="15.1966067"><ele>27.0</ele><time>2026-04-24T22:50:06.558Z</time></trkpt><trkpt lat="37.7585767" lon="15.1966183"><ele>27.0</ele><time>2026-04-24T22:50:07.557Z</time></trkpt><trkpt lat="37.75843" lon="15.1966167"><ele>27.0</ele><time>2026-04-24T22:50:08.558Z</time></trkpt><trkpt lat="37.7583" lon="15.1966117"><ele>27.0</ele><time>2026-04-24T22:50:09.557Z</time></trkpt><trkpt lat="37.75818" lon="15.1966"><ele>27.166666666666668</ele><time>2026-04-24T22:50:10.558Z</time></trkpt><trkpt lat="37.75808" lon="15.19659"><ele>27.333333333333336</ele><time>2026-04-24T22:50:11.557Z</time></trkpt><trkpt lat="37.7579917" lon="15.1965833"><ele>27.5</ele><time>2026-04-24T22:50:12.557Z</time></trkpt><trkpt lat="37.757925" lon="15.1965817"><ele>27.666666666666668</ele><time>2026-04-24T22:50:13.557Z</time></trkpt><trkpt lat="37.7578517" lon="15.1965717"><ele>27.833333333333336</ele><time>2026-04-24T22:50:15.558Z</time></trkpt><trkpt lat="37.75779" lon="15.1965517"><ele>28.0</ele><time>2026-04-24T22:50:28.558Z</time></trkpt><trkpt lat="37.7576367" lon="15.1965517"><ele>27.5</ele><time>2026-04-24T22:50:30.557Z</time></trkpt><trkpt lat="37.7575317" lon="15.19655"><ele>27.0</ele><time>2026-04-24T22:50:31.557Z</time></trkpt><trkpt lat="37.7574217" lon="15.196545"><ele>26.5</ele><time>2026-04-24T22:50:32.558Z</time></trkpt><trkpt lat="37.7573017" lon="15.1965367"><ele>26.0</ele><time>2026-04-24T22:50:33.558Z</time></trkpt><trkpt lat="37.7571717" lon="15.1965283"><ele>26.0</ele><time>2026-04-24T22:50:34.557Z</time></trkpt><trkpt lat="37.757045" lon="15.1965233"><ele>26.0</ele><time>2026-04-24T22:50:35.557Z</time></trkpt><trkpt lat="37.7569067" lon="15.19651"><ele>26.0</ele><time>2026-04-24T22:50:36.558Z</time></trkpt><trkpt lat="37.7567717" lon="15.1964617"><ele>26.0</ele><time>2026-04-24T22:50:37.558Z</time></trkpt><trkpt lat="37.75663" lon="15.1964117"><ele>25.333333333333332</ele><time>2026-04-24T22:50:38.557Z</time></trkpt><trkpt lat="37.756485" lon="15.1963517"><ele>24.666666666666664</ele><time>2026-04-24T22:50:39.557Z</time></trkpt><trkpt lat="37.756335" lon="15.1962833"><ele>24.0</ele><time>2026-04-24T22:50:40.558Z</time></trkpt><trkpt lat="37.7561833" lon="15.1962133"><ele>22.666666666666668</ele><time>2026-04-24T22:50:41.558Z</time></trkpt><trkpt lat="37.7560317" lon="15.196135"><ele>21.333333333333336</ele><time>2026-04-24T22:50:42.557Z</time></trkpt><trkpt lat="37.7558767" lon="15.1960617"><ele>20.0</ele><time>2026-04-24T22:50:43.557Z</time></trkpt><trkpt lat="37.755725" lon="15.1959967"><ele>20.0</ele><time>2026-04-24T22:50:44.557Z</time></trkpt><trkpt lat="37.7555817" lon="15.1959233"><ele>20.0</ele><time>2026-04-24T22:50:45.558Z</time></trkpt><trkpt lat="37.7554233" lon="15.19585"><ele>20.0</ele><time>2026-04-24T22:50:46.557Z</time></trkpt><trkpt lat="37.7552733" lon="15.1957867"><ele>19.666666666666668</ele><time>2026-04-24T22:50:47.557Z</time></trkpt><trkpt lat="37.755115" lon="15.1957117"><ele>19.333333333333332</ele><time>2026-04-24T22:50:48.558Z</time></trkpt><trkpt lat="37.754955" lon="15.1956333"><ele>19.0</ele><time>2026-04-24T22:50:49.557Z</time></trkpt><trkpt lat="37.75479" lon="15.1955617"><ele>19.0</ele><time>2026-04-24T22:50:50.557Z</time></trkpt><trkpt lat="37.75463" lon="15.1954833"><ele>19.0</ele><time>2026-04-24T22:50:51.558Z</time></trkpt><trkpt lat="37.754465" lon="15.19541"><ele>19.0</ele><time>2026-04-24T22:50:52.557Z</time></trkpt><trkpt lat="37.7543083" lon="15.195325"><ele>19.0</ele><time>2026-04-24T22:50:53.558Z</time></trkpt><trkpt lat="37.7541467" lon="15.1952433"><ele>19.0</ele><time>2026-04-24T22:50:54.558Z</time></trkpt><trkpt lat="37.7539783" lon="15.1951767"><ele>19.0</ele><time>2026-04-24T22:50:55.558Z</time></trkpt><trkpt lat="37.75381" lon="15.19511"><ele>19.0</ele><time>2026-04-24T22:50:56.557Z</time></trkpt><trkpt lat="37.7536467" lon="15.1950383"><ele>19.0</ele><time>2026-04-24T22:50:57.557Z</time></trkpt><trkpt lat="37.753485" lon="15.1949617"><ele>19.0</ele><time>2026-04-24T22:50:58.558Z</time></trkpt><trkpt lat="37.75332" lon="15.1948817"><ele>19.0</ele><time>2026-04-24T22:50:59.558Z</time></trkpt><trkpt lat="37.75316" lon="15.194785"><ele>19.0</ele><time>2026-04-24T22:51:00.557Z</time></trkpt><trkpt lat="37.752995" lon="15.194685"><ele>19.0</ele><time>2026-04-24T22:51:01.557Z</time></trkpt><trkpt lat="37.752845" lon="15.1945783"><ele>19.666666666666664</ele><time>2026-04-24T22:51:02.558Z</time></trkpt><trkpt lat="37.752695" lon="15.1944833"><ele>20.333333333333332</ele><time>2026-04-24T22:51:03.558Z</time></trkpt><trkpt lat="37.7525433" lon="15.1943833"><ele>21.0</ele><time>2026-04-24T22:51:04.558Z</time></trkpt><trkpt lat="37.7523917" lon="15.194285"><ele>21.0</ele><time>2026-04-24T22:51:05.558Z</time></trkpt><trkpt lat="37.752235" lon="15.194185"><ele>21.0</ele><time>2026-04-24T22:51:06.558Z</time></trkpt><trkpt lat="37.75209" lon="15.1940767"><ele>21.0</ele><time>2026-04-24T22:51:07.558Z</time></trkpt><trkpt lat="37.751935" lon="15.1939783"><ele>20.666666666666668</ele><time>2026-04-24T22:51:08.557Z</time></trkpt><trkpt lat="37.7517767" lon="15.1938817"><ele>20.333333333333336</ele><time>2026-04-24T22:51:09.558Z</time></trkpt><trkpt lat="37.7516133" lon="15.19379"><ele>20.0</ele><time>2026-04-24T22:51:10.558Z</time></trkpt><trkpt lat="37.7514567" lon="15.1937033"><ele>20.0</ele><time>2026-04-24T22:51:11.558Z</time></trkpt><trkpt lat="37.751295" lon="15.1936167"><ele>20.0</ele><time>2026-04-24T22:51:12.558Z</time></trkpt><trkpt lat="37.751125" lon="15.1935367"><ele>20.0</ele><time>2026-04-24T22:51:13.557Z</time></trkpt><trkpt lat="37.750955" lon="15.19347"><ele>20.0</ele><time>2026-04-24T22:51:14.558Z</time></trkpt><trkpt lat="37.75078" lon="15.193415"><ele>20.0</ele><time>2026-04-24T22:51:15.558Z</time></trkpt><trkpt lat="37.7506083" lon="15.1933667"><ele>20.0</ele><time>2026-04-24T22:51:16.558Z</time></trkpt><trkpt lat="37.750435" lon="15.19332"><ele>20.0</ele><time>2026-04-24T22:51:17.558Z</time></trkpt><trkpt lat="37.7502633" lon="15.1932633"><ele>20.0</ele><time>2026-04-24T22:51:18.557Z</time></trkpt><trkpt lat="37.7500883" lon="15.1932083"><ele>20.0</ele><time>2026-04-24T22:51:19.558Z</time></trkpt><trkpt lat="37.7499233" lon="15.19316"><ele>21.0</ele><time>2026-04-24T22:51:20.558Z</time></trkpt><trkpt lat="37.74975" lon="15.1931067"><ele>22.0</ele><time>2026-04-24T22:51:21.558Z</time></trkpt><trkpt lat="37.7495767" lon="15.1930517"><ele>23.0</ele><time>2026-04-24T22:51:22.558Z</time></trkpt><trkpt lat="37.7494133" lon="15.1930017"><ele>23.0</ele><time>2026-04-24T22:51:23.558Z</time></trkpt><trkpt lat="37.7492467" lon="15.1929517"><ele>23.0</ele><time>2026-04-24T22:51:24.558Z</time></trkpt><trkpt lat="37.74908" lon="15.1928983"><ele>23.0</ele><time>2026-04-24T22:51:25.557Z</time></trkpt><trkpt lat="37.74892" lon="15.1928433"><ele>23.0</ele><time>2026-04-24T22:51:26.557Z</time></trkpt><trkpt lat="37.7487633" lon="15.1928"><ele>23.0</ele><time>2026-04-24T22:51:27.558Z</time></trkpt><trkpt lat="37.7486083" lon="15.1927467"><ele>23.0</ele><time>2026-04-24T22:51:28.558Z</time></trkpt><trkpt lat="37.7484667" lon="15.192705"><ele>23.25</ele><time>2026-04-24T22:51:29.558Z</time></trkpt><trkpt lat="37.7483317" lon="15.1926683"><ele>23.5</ele><time>2026-04-24T22:51:30.558Z</time></trkpt><trkpt lat="37.74821" lon="15.1926333"><ele>23.75</ele><time>2026-04-24T22:51:31.558Z</time></trkpt><trkpt lat="37.7480983" lon="15.1926017"><ele>24.0</ele><time>2026-04-24T22:51:32.558Z</time></trkpt><trkpt lat="37.7479817" lon="15.1925783"><ele>24.0</ele><time>2026-04-24T22:51:33.558Z</time></trkpt><trkpt lat="37.7478583" lon="15.1925817"><ele>24.0</ele><time>2026-04-24T22:51:34.558Z</time></trkpt><trkpt lat="37.7477367" lon="15.1926267"><ele>24.0</ele><time>2026-04-24T22:51:35.558Z</time></trkpt><trkpt lat="37.7476283" lon="15.19268"><ele>24.0</ele><time>2026-04-24T22:51:36.558Z</time></trkpt><trkpt lat="37.7475083" lon="15.1927383"><ele>24.5</ele><time>2026-04-24T22:51:37.557Z</time></trkpt><trkpt lat="37.7473767" lon="15.19278"><ele>25.0</ele><time>2026-04-24T22:51:38.558Z</time></trkpt><trkpt lat="37.747245" lon="15.1927933"><ele>25.5</ele><time>2026-04-24T22:51:39.557Z</time></trkpt><trkpt lat="37.7471283" lon="15.1927667"><ele>26.0</ele><time>2026-04-24T22:51:40.557Z</time></trkpt><trkpt lat="37.7470133" lon="15.1927133"><ele>26.0</ele><time>2026-04-24T22:51:41.557Z</time></trkpt><trkpt lat="37.7469" lon="15.192625"><ele>26.0</ele><time>2026-04-24T22:51:42.557Z</time></trkpt><trkpt lat="37.7468" lon="15.1925117"><ele>26.0</ele><time>2026-04-24T22:51:43.557Z</time></trkpt><trkpt lat="37.7467217" lon="15.192375"><ele>26.0</ele><time>2026-04-24T22:51:44.558Z</time></trkpt><trkpt lat="37.7466517" lon="15.1922233"><ele>26.0</ele><time>2026-04-24T22:51:45.557Z</time></trkpt><trkpt lat="37.746585" lon="15.1920667"><ele>26.0</ele><time>2026-04-24T22:51:46.557Z</time></trkpt><trkpt lat="37.7465267" lon="15.1919"><ele>26.0</ele><time>2026-04-24T22:51:47.558Z</time></trkpt><trkpt lat="37.74646" lon="15.19174"><ele>26.0</ele><time>2026-04-24T22:51:48.558Z</time></trkpt><trkpt lat="37.7463933" lon="15.1915783"><ele>26.333333333333332</ele><time>2026-04-24T22:51:49.558Z</time></trkpt><trkpt lat="37.7463167" lon="15.1914117"><ele>26.666666666666664</ele><time>2026-04-24T22:51:50.558Z</time></trkpt><trkpt lat="37.7462383" lon="15.1912367"><ele>27.0</ele><time>2026-04-24T22:51:51.557Z</time></trkpt><trkpt lat="37.7461583" lon="15.1910617"><ele>27.0</ele><time>2026-04-24T22:51:52.558Z</time></trkpt><trkpt lat="37.7460783" lon="15.1908867"><ele>27.0</ele><time>2026-04-24T22:51:53.558Z</time></trkpt><trkpt lat="37.7459967" lon="15.1907067"><ele>27.0</ele><time>2026-04-24T22:51:54.558Z</time></trkpt><trkpt lat="37.7459217" lon="15.1905283"><ele>27.333333333333336</ele><time>2026-04-24T22:51:55.558Z</time></trkpt><trkpt lat="37.745845" lon="15.190355"><ele>27.666666666666668</ele><time>2026-04-24T22:51:56.558Z</time></trkpt><trkpt lat="37.7457717" lon="15.1901783"><ele>28.0</ele><time>2026-04-24T22:51:57.558Z</time></trkpt><trkpt lat="37.7456983" lon="15.1899967"><ele>28.333333333333336</ele><time>2026-04-24T22:51:58.558Z</time></trkpt><trkpt lat="37.7456217" lon="15.1898167"><ele>28.666666666666664</ele><time>2026-04-24T22:51:59.558Z</time></trkpt><trkpt lat="37.745545" lon="15.189625"><ele>29.0</ele><time>2026-04-24T22:52:00.558Z</time></trkpt><trkpt lat="37.7454683" lon="15.1894283"><ele>29.0</ele><time>2026-04-24T22:52:01.558Z</time></trkpt><trkpt lat="37.745385" lon="15.189245"><ele>29.0</ele><time>2026-04-24T22:52:02.557Z</time></trkpt><trkpt lat="37.7453083" lon="15.1890733"><ele>29.0</ele><time>2026-04-24T22:52:03.558Z</time></trkpt><trkpt lat="37.74523" lon="15.18891"><ele>29.0</ele><time>2026-04-24T22:52:04.557Z</time></trkpt><trkpt lat="37.74515" lon="15.1887483"><ele>29.0</ele><time>2026-04-24T22:52:05.557Z</time></trkpt><trkpt lat="37.7450533" lon="15.1885933"><ele>29.0</ele><time>2026-04-24T22:52:06.558Z</time></trkpt><trkpt lat="37.7449267" lon="15.1884567"><ele>29.0</ele><time>2026-04-24T22:52:07.558Z</time></trkpt><trkpt lat="37.7447783" lon="15.18833"><ele>29.0</ele><time>2026-04-24T22:52:08.558Z</time></trkpt><trkpt lat="37.7446333" lon="15.1882033"><ele>29.0</ele><time>2026-04-24T22:52:09.557Z</time></trkpt><trkpt lat="37.744495" lon="15.1880683"><ele>29.333333333333332</ele><time>2026-04-24T22:52:10.558Z</time></trkpt><trkpt lat="37.7443617" lon="15.1879417"><ele>29.666666666666664</ele><time>2026-04-24T22:52:11.557Z</time></trkpt><trkpt lat="37.7442367" lon="15.1878283"><ele>30.0</ele><time>2026-04-24T22:52:12.558Z</time></trkpt><trkpt lat="37.74412" lon="15.1877217"><ele>30.0</ele><time>2026-04-24T22:52:13.558Z</time></trkpt><trkpt lat="37.7440167" lon="15.1876133"><ele>30.0</ele><time>2026-04-24T22:52:14.557Z</time></trkpt><trkpt lat="37.7439133" lon="15.18752"><ele>30.0</ele><time>2026-04-24T22:52:15.558Z</time></trkpt><trkpt lat="37.7438133" lon="15.1874433"><ele>30.0</ele><time>2026-04-24T22:52:16.558Z</time></trkpt><trkpt lat="37.7437033" lon="15.18739"><ele>30.5</ele><time>2026-04-24T22:52:17.557Z</time></trkpt><trkpt lat="37.7435833" lon="15.1873383"><ele>31.0</ele><time>2026-04-24T22:52:18.558Z</time></trkpt><trkpt lat="37.7434567" lon="15.1872933"><ele>31.5</ele><time>2026-04-24T22:52:19.558Z</time></trkpt><trkpt lat="37.743315" lon="15.18724"><ele>32.0</ele><time>2026-04-24T22:52:20.558Z</time></trkpt><trkpt lat="37.74318" lon="15.187185"><ele>32.0</ele><time>2026-04-24T22:52:21.557Z</time></trkpt><trkpt lat="37.74303" lon="15.1871283"><ele>32.0</ele><time>2026-04-24T22:52:22.558Z</time></trkpt><trkpt lat="37.7428767" lon="15.18707"><ele>32.0</ele><time>2026-04-24T22:52:23.557Z</time></trkpt><trkpt lat="37.7427317" lon="15.1870117"><ele>31.666666666666664</ele><time>2026-04-24T22:52:24.557Z</time></trkpt><trkpt lat="37.74259" lon="15.1869567"><ele>31.333333333333336</ele><time>2026-04-24T22:52:25.558Z</time></trkpt><trkpt lat="37.742445" lon="15.186895"><ele>31.0</ele><time>2026-04-24T22:52:26.558Z</time></trkpt><trkpt lat="37.7423" lon="15.1868333"><ele>31.0</ele><time>2026-04-24T22:52:27.557Z</time></trkpt><trkpt lat="37.7421517" lon="15.1867733"><ele>31.0</ele><time>2026-04-24T22:52:28.557Z</time></trkpt><trkpt lat="37.7419983" lon="15.1867233"><ele>31.0</ele><time>2026-04-24T22:52:29.557Z</time></trkpt><trkpt lat="37.7418433" lon="15.1866783"><ele>31.5</ele><time>2026-04-24T22:52:30.558Z</time></trkpt><trkpt lat="37.7416967" lon="15.18664"><ele>32.0</ele><time>2026-04-24T22:52:31.558Z</time></trkpt><trkpt lat="37.7415533" lon="15.186615"><ele>32.5</ele><time>2026-04-24T22:52:32.558Z</time></trkpt><trkpt lat="37.7414067" lon="15.1865867"><ele>33.0</ele><time>2026-04-24T22:52:33.558Z</time></trkpt><trkpt lat="37.741265" lon="15.186565"><ele>33.0</ele><time>2026-04-24T22:52:34.558Z</time></trkpt><trkpt lat="37.741125" lon="15.1865467"><ele>33.0</ele><time>2026-04-24T22:52:35.557Z</time></trkpt><trkpt lat="37.741" lon="15.1865233"><ele>33.0</ele><time>2026-04-24T22:52:36.558Z</time></trkpt><trkpt lat="37.74088" lon="15.1864967"><ele>33.0</ele><time>2026-04-24T22:52:37.557Z</time></trkpt><trkpt lat="37.7407683" lon="15.186475"><ele>33.75</ele><time>2026-04-24T22:52:38.557Z</time></trkpt><trkpt lat="37.740655" lon="15.186455"><ele>34.5</ele><time>2026-04-24T22:52:39.558Z</time></trkpt><trkpt lat="37.740535" lon="15.1864317"><ele>35.25</ele><time>2026-04-24T22:52:40.558Z</time></trkpt><trkpt lat="37.7404133" lon="15.1864033"><ele>36.0</ele><time>2026-04-24T22:52:41.557Z</time></trkpt><trkpt lat="37.7402983" lon="15.1863867"><ele>36.0</ele><time>2026-04-24T22:52:42.558Z</time></trkpt><trkpt lat="37.7401867" lon="15.18637"><ele>36.0</ele><time>2026-04-24T22:52:43.558Z</time></trkpt><trkpt lat="37.74007" lon="15.1863583"><ele>36.0</ele><time>2026-04-24T22:52:44.557Z</time></trkpt><trkpt lat="37.739965" lon="15.1863433"><ele>36.0</ele><time>2026-04-24T22:52:45.558Z</time></trkpt><trkpt lat="37.73986" lon="15.1863283"><ele>36.0</ele><time>2026-04-24T22:52:46.557Z</time></trkpt><trkpt lat="37.7397567" lon="15.186315"><ele>36.0</ele><time>2026-04-24T22:52:47.557Z</time></trkpt><trkpt lat="37.739655" lon="15.186305"><ele>36.0</ele><time>2026-04-24T22:52:48.558Z</time></trkpt><trkpt lat="37.73955" lon="15.18629"><ele>36.0</ele><time>2026-04-24T22:52:49.557Z</time></trkpt><trkpt lat="37.739445" lon="15.1862767"><ele>36.0</ele><time>2026-04-24T22:52:50.558Z</time></trkpt><trkpt lat="37.7393533" lon="15.18625"><ele>36.0</ele><time>2026-04-24T22:52:51.557Z</time></trkpt><trkpt lat="37.7392717" lon="15.1862217"><ele>36.6</ele><time>2026-04-24T22:52:52.558Z</time></trkpt><trkpt lat="37.7391917" lon="15.18619"><ele>37.2</ele><time>2026-04-24T22:52:53.558Z</time></trkpt><trkpt lat="37.7391033" lon="15.186165"><ele>37.8</ele><time>2026-04-24T22:52:54.558Z</time></trkpt><trkpt lat="37.739" lon="15.18615"><ele>38.4</ele><time>2026-04-24T22:52:55.558Z</time></trkpt><trkpt lat="37.7388933" lon="15.186125"><ele>39.0</ele><time>2026-04-24T22:52:56.557Z</time></trkpt><trkpt lat="37.7387767" lon="15.1860933"><ele>39.0</ele><time>2026-04-24T22:52:57.557Z</time></trkpt><trkpt lat="37.7386583" lon="15.1860583"><ele>39.0</ele><time>2026-04-24T22:52:58.557Z</time></trkpt><trkpt lat="37.7385367" lon="15.186015"><ele>39.0</ele><time>2026-04-24T22:52:59.557Z</time></trkpt><trkpt lat="37.7384133" lon="15.1859667"><ele>39.0</ele><time>2026-04-24T22:53:00.558Z</time></trkpt><trkpt lat="37.7382867" lon="15.185915"><ele>39.25</ele><time>2026-04-24T22:53:01.558Z</time></trkpt><trkpt lat="37.7381567" lon="15.1858633"><ele>39.5</ele><time>2026-04-24T22:53:02.557Z</time></trkpt><trkpt lat="37.7380267" lon="15.185815"><ele>39.75</ele><time>2026-04-24T22:53:03.558Z</time></trkpt><trkpt lat="37.7379017" lon="15.1857567"><ele>40.0</ele><time>2026-04-24T22:53:04.558Z</time></trkpt><trkpt lat="37.7377717" lon="15.1856967"><ele>41.0</ele><time>2026-04-24T22:53:05.558Z</time></trkpt><trkpt lat="37.7376417" lon="15.18564"><ele>42.0</ele><time>2026-04-24T22:53:06.558Z</time></trkpt><trkpt lat="37.7375083" lon="15.18559"><ele>43.0</ele><time>2026-04-24T22:53:07.557Z</time></trkpt><trkpt lat="37.737375" lon="15.1855433"><ele>44.0</ele><time>2026-04-24T22:53:08.557Z</time></trkpt><trkpt lat="37.7372467" lon="15.185495"><ele>44.0</ele><time>2026-04-24T22:53:09.558Z</time></trkpt><trkpt lat="37.7371033" lon="15.1854667"><ele>44.0</ele><time>2026-04-24T22:53:10.557Z</time></trkpt><trkpt lat="37.736955" lon="15.1854583"><ele>44.0</ele><time>2026-04-24T22:53:11.557Z</time></trkpt><trkpt lat="37.7368033" lon="15.1854533"><ele>44.0</ele><time>2026-04-24T22:53:12.557Z</time></trkpt><trkpt lat="37.736645" lon="15.1854583"><ele>43.33333333333333</ele><time>2026-04-24T22:53:13.557Z</time></trkpt><trkpt lat="37.73648" lon="15.1854683"><ele>42.666666666666664</ele><time>2026-04-24T22:53:14.558Z</time></trkpt><trkpt lat="37.7363233" lon="15.1854933"><ele>42.0</ele><time>2026-04-24T22:53:15.558Z</time></trkpt><trkpt lat="37.7361683" lon="15.18552"><ele>42.75</ele><time>2026-04-24T22:53:16.558Z</time></trkpt><trkpt lat="37.7360217" lon="15.185545"><ele>43.5</ele><time>2026-04-24T22:53:17.558Z</time></trkpt><trkpt lat="37.7358917" lon="15.18556"><ele>44.25</ele><time>2026-04-24T22:53:18.558Z</time></trkpt><trkpt lat="37.73575" lon="15.1855683"><ele>45.0</ele><time>2026-04-24T22:53:19.558Z</time></trkpt><trkpt lat="37.7356117" lon="15.1855667"><ele>45.0</ele><time>2026-04-24T22:53:20.557Z</time></trkpt><trkpt lat="37.735465" lon="15.18555"><ele>45.0</ele><time>2026-04-24T22:53:21.558Z</time></trkpt><trkpt lat="37.7353183" lon="15.185535"><ele>45.0</ele><time>2026-04-24T22:53:22.558Z</time></trkpt><trkpt lat="37.735175" lon="15.1855067"><ele>45.0</ele><time>2026-04-24T22:53:23.558Z</time></trkpt><trkpt lat="37.7350333" lon="15.1854833"><ele>45.5</ele><time>2026-04-24T22:53:24.558Z</time></trkpt><trkpt lat="37.7348983" lon="15.18546"><ele>46.0</ele><time>2026-04-24T22:53:25.558Z</time></trkpt><trkpt lat="37.73476" lon="15.1854317"><ele>46.5</ele><time>2026-04-24T22:53:26.558Z</time></trkpt><trkpt lat="37.7346133" lon="15.1854033"><ele>47.0</ele><time>2026-04-24T22:53:27.558Z</time></trkpt><trkpt lat="37.73447" lon="15.185375"><ele>49.33333333333333</ele><time>2026-04-24T22:53:28.558Z</time></trkpt><trkpt lat="37.73432" lon="15.1853533"><ele>51.666666666666664</ele><time>2026-04-24T22:53:29.558Z</time></trkpt><trkpt lat="37.7341683" lon="15.1853267"><ele>54.0</ele><time>2026-04-24T22:53:30.558Z</time></trkpt><trkpt lat="37.7340133" lon="15.1852933"><ele>54.0</ele><time>2026-04-24T22:53:31.557Z</time></trkpt><trkpt lat="37.7338517" lon="15.185275"><ele>54.0</ele><time>2026-04-24T22:53:32.557Z</time></trkpt><trkpt lat="37.7337" lon="15.1852533"><ele>54.0</ele><time>2026-04-24T22:53:33.558Z</time></trkpt><trkpt lat="37.73356" lon="15.185225"><ele>55.0</ele><time>2026-04-24T22:53:34.558Z</time></trkpt><trkpt lat="37.7334333" lon="15.1852033"><ele>56.0</ele><time>2026-04-24T22:53:35.557Z</time></trkpt><trkpt lat="37.7333117" lon="15.1851917"><ele>57.0</ele><time>2026-04-24T22:53:36.557Z</time></trkpt><trkpt lat="37.7331983" lon="15.185165"><ele>58.0</ele><time>2026-04-24T22:53:37.558Z</time></trkpt><trkpt lat="37.7330867" lon="15.185145"><ele>58.0</ele><time>2026-04-24T22:53:38.558Z</time></trkpt><trkpt lat="37.7329817" lon="15.1851317"><ele>58.0</ele><time>2026-04-24T22:53:39.558Z</time></trkpt><trkpt lat="37.732875" lon="15.1851033"><ele>58.0</ele><time>2026-04-24T22:53:40.558Z</time></trkpt><trkpt lat="37.7327717" lon="15.18509"><ele>58.0</ele><time>2026-04-24T22:53:41.557Z</time></trkpt><trkpt lat="37.7326783" lon="15.1850717"><ele>58.0</ele><time>2026-04-24T22:53:42.557Z</time></trkpt><trkpt lat="37.7325767" lon="15.1850467"><ele>58.0</ele><time>2026-04-24T22:53:43.558Z</time></trkpt><trkpt lat="37.732475" lon="15.1850267"><ele>58.0</ele><time>2026-04-24T22:53:44.557Z</time></trkpt><trkpt lat="37.732375" lon="15.1850067"><ele>58.0</ele><time>2026-04-24T22:53:45.558Z</time></trkpt><trkpt lat="37.7322717" lon="15.1849783"><ele>58.0</ele><time>2026-04-24T22:53:46.558Z</time></trkpt><trkpt lat="37.7321617" lon="15.1849583"><ele>58.0</ele><time>2026-04-24T22:53:47.557Z</time></trkpt><trkpt lat="37.7320483" lon="15.184935"><ele>58.0</ele><time>2026-04-24T22:53:48.557Z</time></trkpt><trkpt lat="37.73194" lon="15.18491"><ele>58.0</ele><time>2026-04-24T22:53:49.557Z</time></trkpt><trkpt lat="37.73183" lon="15.1848917"><ele>58.0</ele><time>2026-04-24T22:53:50.558Z</time></trkpt><trkpt lat="37.73172" lon="15.18487"><ele>58.0</ele><time>2026-04-24T22:53:51.558Z</time></trkpt><trkpt lat="37.7316033" lon="15.1848533"><ele>59.4</ele><time>2026-04-24T22:53:52.557Z</time></trkpt><trkpt lat="37.73149" lon="15.1848433"><ele>60.8</ele><time>2026-04-24T22:53:53.558Z</time></trkpt><trkpt lat="37.7313833" lon="15.1848233"><ele>62.2</ele><time>2026-04-24T22:53:54.558Z</time></trkpt><trkpt lat="37.7312867" lon="15.18481"><ele>63.6</ele><time>2026-04-24T22:53:55.557Z</time></trkpt><trkpt lat="37.731195" lon="15.1847967"><ele>65.0</ele><time>2026-04-24T22:53:56.558Z</time></trkpt><trkpt lat="37.7311" lon="15.18478"><ele>65.6</ele><time>2026-04-24T22:53:57.558Z</time></trkpt><trkpt lat="37.731005" lon="15.1847567"><ele>66.2</ele><time>2026-04-24T22:53:58.558Z</time></trkpt><trkpt lat="37.730905" lon="15.1847383"><ele>66.8</ele><time>2026-04-24T22:53:59.558Z</time></trkpt><trkpt lat="37.7308017" lon="15.1847233"><ele>67.4</ele><time>2026-04-24T22:54:00.557Z</time></trkpt><trkpt lat="37.7307" lon="15.184705"><ele>68.0</ele><time>2026-04-24T22:54:01.557Z</time></trkpt><trkpt lat="37.7306" lon="15.1846917"><ele>68.0</ele><time>2026-04-24T22:54:02.558Z</time></trkpt><trkpt lat="37.7304983" lon="15.184675"><ele>68.0</ele><time>2026-04-24T22:54:03.558Z</time></trkpt><trkpt lat="37.7303933" lon="15.1846517"><ele>68.0</ele><time>2026-04-24T22:54:04.558Z</time></trkpt><trkpt lat="37.7302817" lon="15.18463"><ele>68.0</ele><time>2026-04-24T22:54:05.558Z</time></trkpt><trkpt lat="37.73017" lon="15.1846133"><ele>68.0</ele><time>2026-04-24T22:54:06.558Z</time></trkpt><trkpt lat="37.7300567" lon="15.1846017"><ele>68.8</ele><time>2026-04-24T22:54:07.558Z</time></trkpt><trkpt lat="37.7299483" lon="15.18458"><ele>69.6</ele><time>2026-04-24T22:54:08.558Z</time></trkpt><trkpt lat="37.7298367" lon="15.18456"><ele>70.4</ele><time>2026-04-24T22:54:09.558Z</time></trkpt><trkpt lat="37.7297267" lon="15.18454"><ele>71.2</ele><time>2026-04-24T22:54:10.557Z</time></trkpt><trkpt lat="37.729615" lon="15.184525"><ele>72.0</ele><time>2026-04-24T22:54:11.557Z</time></trkpt><trkpt lat="37.7295" lon="15.18451"><ele>72.8</ele><time>2026-04-24T22:54:12.557Z</time></trkpt><trkpt lat="37.7293867" lon="15.1845"><ele>73.6</ele><time>2026-04-24T22:54:13.558Z</time></trkpt><trkpt lat="37.72928" lon="15.184485"><ele>74.39999999999999</ele><time>2026-04-24T22:54:14.558Z</time></trkpt><trkpt lat="37.72917" lon="15.1844717"><ele>75.2</ele><time>2026-04-24T22:54:15.558Z</time></trkpt><trkpt lat="37.7290617" lon="15.18446"><ele>76.0</ele><time>2026-04-24T22:54:16.558Z</time></trkpt><trkpt lat="37.7289467" lon="15.184445"><ele>76.0</ele><time>2026-04-24T22:54:17.558Z</time></trkpt><trkpt lat="37.7288317" lon="15.1844283"><ele>76.0</ele><time>2026-04-24T22:54:18.557Z</time></trkpt><trkpt lat="37.7287167" lon="15.1844267"><ele>76.0</ele><time>2026-04-24T22:54:19.558Z</time></trkpt><trkpt lat="37.7286" lon="15.1844117"><ele>76.0</ele><time>2026-04-24T22:54:20.557Z</time></trkpt><trkpt lat="37.7283733" lon="15.1843833"><ele>76.5</ele><time>2026-04-24T22:54:22.558Z</time></trkpt><trkpt lat="37.7282617" lon="15.1843633"><ele>77.0</ele><time>2026-04-24T22:54:23.557Z</time></trkpt><trkpt lat="37.7281467" lon="15.1843467"><ele>77.5</ele><time>2026-04-24T22:54:24.558Z</time></trkpt><trkpt lat="37.72803" lon="15.1843317"><ele>78.0</ele><time>2026-04-24T22:54:25.557Z</time></trkpt><trkpt lat="37.7279117" lon="15.1843183"><ele>78.0</ele><time>2026-04-24T22:54:26.558Z</time></trkpt><trkpt lat="37.727805" lon="15.1843083"><ele>78.0</ele><time>2026-04-24T22:54:27.558Z</time></trkpt><trkpt lat="37.7277083" lon="15.1842933"><ele>78.0</ele><time>2026-04-24T22:54:28.558Z</time></trkpt><trkpt lat="37.7276183" lon="15.1842783"><ele>78.0</ele><time>2026-04-24T22:54:29.558Z</time></trkpt><trkpt lat="37.7275317" lon="15.1842667"><ele>78.0</ele><time>2026-04-24T22:54:30.558Z</time></trkpt><trkpt lat="37.7274533" lon="15.18426"><ele>78.6</ele><time>2026-04-24T22:54:31.558Z</time></trkpt><trkpt lat="37.7273833" lon="15.18425"><ele>79.19999999999999</ele><time>2026-04-24T22:54:32.557Z</time></trkpt><trkpt lat="37.7272783" lon="15.18424"><ele>79.8</ele><time>2026-04-24T22:54:34.558Z</time></trkpt><trkpt lat="37.727205" lon="15.18423"><ele>80.39999999999999</ele><time>2026-04-24T22:54:37.557Z</time></trkpt><trkpt lat="37.72711" lon="15.184215"><ele>81.0</ele><time>2026-04-24T22:55:25.558Z</time></trkpt><trkpt lat="37.726975" lon="15.184195"><ele>82.0</ele><time>2026-04-24T22:55:27.557Z</time></trkpt><trkpt lat="37.7268933" lon="15.184195"><ele>83.0</ele><time>2026-04-24T22:55:28.557Z</time></trkpt><trkpt lat="37.7268117" lon="15.1842067"><ele>84.0</ele><time>2026-04-24T22:55:29.558Z</time></trkpt><trkpt lat="37.7267333" lon="15.1842117"><ele>85.0</ele><time>2026-04-24T22:55:30.558Z</time></trkpt><trkpt lat="37.72665" lon="15.184215"><ele>86.0</ele><time>2026-04-24T22:55:31.558Z</time></trkpt><trkpt lat="37.7265733" lon="15.1842233"><ele>87.0</ele><time>2026-04-24T22:55:32.557Z</time></trkpt><trkpt lat="37.7264917" lon="15.1842283"><ele>87.0</ele><time>2026-04-24T22:55:33.558Z</time></trkpt><trkpt lat="37.7264067" lon="15.1842383"><ele>87.0</ele><time>2026-04-24T22:55:34.558Z</time></trkpt><trkpt lat="37.7263183" lon="15.1842583"><ele>87.0</ele><time>2026-04-24T22:55:35.557Z</time></trkpt><trkpt lat="37.7262317" lon="15.1842683"><ele>87.0</ele><time>2026-04-24T22:55:36.558Z</time></trkpt><trkpt lat="37.72614" lon="15.184275"><ele>87.0</ele><time>2026-04-24T22:55:37.557Z</time></trkpt><trkpt lat="37.726045" lon="15.1842733"><ele>87.0</ele><time>2026-04-24T22:55:38.557Z</time></trkpt><trkpt lat="37.7259417" lon="15.1842733"><ele>87.8</ele><time>2026-04-24T22:55:39.558Z</time></trkpt><trkpt lat="37.7258367" lon="15.1842767"><ele>88.6</ele><time>2026-04-24T22:55:40.557Z</time></trkpt><trkpt lat="37.7257417" lon="15.1842817"><ele>89.39999999999999</ele><time>2026-04-24T22:55:41.557Z</time></trkpt><trkpt lat="37.7256583" lon="15.1842783"><ele>90.19999999999999</ele><time>2026-04-24T22:55:42.557Z</time></trkpt><trkpt lat="37.7255333" lon="15.184305"><ele>91.0</ele><time>2026-04-24T22:55:44.558Z</time></trkpt><trkpt lat="37.7254633" lon="15.1843"><ele>91.0</ele><time>2026-04-24T22:55:45.558Z</time></trkpt><trkpt lat="37.72539" lon="15.1842867"><ele>91.0</ele><time>2026-04-24T22:55:46.557Z</time></trkpt><trkpt lat="37.7253233" lon="15.1842633"><ele>91.0</ele><time>2026-04-24T22:55:47.557Z</time></trkpt><trkpt lat="37.7252583" lon="15.1842317"><ele>91.0</ele><time>2026-04-24T22:55:48.558Z</time></trkpt><trkpt lat="37.7251917" lon="15.1841983"><ele>91.0</ele><time>2026-04-24T22:55:49.557Z</time></trkpt><trkpt lat="37.7251167" lon="15.18416"><ele>91.0</ele><time>2026-04-24T22:55:50.557Z</time></trkpt><trkpt lat="37.7250417" lon="15.18412"><ele>91.0</ele><time>2026-04-24T22:55:51.557Z</time></trkpt><trkpt lat="37.7249567" lon="15.1840783"><ele>91.25</ele><time>2026-04-24T22:55:52.558Z</time></trkpt><trkpt lat="37.7248617" lon="15.1840317"><ele>91.5</ele><time>2026-04-24T22:55:53.558Z</time></trkpt><trkpt lat="37.7247533" lon="15.1839817"><ele>91.75</ele><time>2026-04-24T22:55:54.558Z</time></trkpt><trkpt lat="37.724635" lon="15.183935"><ele>92.0</ele><time>2026-04-24T22:55:55.557Z</time></trkpt><trkpt lat="37.724525" lon="15.1838817"><ele>92.25</ele><time>2026-04-24T22:55:56.557Z</time></trkpt><trkpt lat="37.7244133" lon="15.1838333"><ele>92.5</ele><time>2026-04-24T22:55:57.558Z</time></trkpt><trkpt lat="37.724295" lon="15.1837867"><ele>92.75</ele><time>2026-04-24T22:55:58.557Z</time></trkpt><trkpt lat="37.7241783" lon="15.18373"><ele>93.0</ele><time>2026-04-24T22:55:59.557Z</time></trkpt><trkpt lat="37.7240583" lon="15.1836867"><ele>93.25</ele><time>2026-04-24T22:56:00.558Z</time></trkpt><trkpt lat="37.723945" lon="15.1836283"><ele>93.5</ele><time>2026-04-24T22:56:01.558Z</time></trkpt><trkpt lat="37.7238233" lon="15.1835667"><ele>93.75</ele><time>2026-04-24T22:56:02.558Z</time></trkpt><trkpt lat="37.7237" lon="15.1835017"><ele>94.0</ele><time>2026-04-24T22:56:03.558Z</time></trkpt><trkpt lat="37.7235833" lon="15.1834467"><ele>94.75</ele><time>2026-04-24T22:56:04.557Z</time></trkpt><trkpt lat="37.723465" lon="15.18338"><ele>95.5</ele><time>2026-04-24T22:56:05.558Z</time></trkpt><trkpt lat="37.7233383" lon="15.18332"><ele>96.25</ele><time>2026-04-24T22:56:06.557Z</time></trkpt><trkpt lat="37.7232083" lon="15.1832467"><ele>97.0</ele><time>2026-04-24T22:56:07.558Z</time></trkpt><trkpt lat="37.72308" lon="15.1831733"><ele>98.0</ele><time>2026-04-24T22:56:08.557Z</time></trkpt><trkpt lat="37.72295" lon="15.1831017"><ele>99.0</ele><time>2026-04-24T22:56:09.558Z</time></trkpt><trkpt lat="37.722835" lon="15.183045"><ele>100.0</ele><time>2026-04-24T22:56:10.558Z</time></trkpt><trkpt lat="37.7227233" lon="15.18298"><ele>101.0</ele><time>2026-04-24T22:56:11.557Z</time></trkpt><trkpt lat="37.722615" lon="15.182915"><ele>101.25</ele><time>2026-04-24T22:56:12.558Z</time></trkpt><trkpt lat="37.7225117" lon="15.1828517"><ele>101.5</ele><time>2026-04-24T22:56:13.557Z</time></trkpt><trkpt lat="37.7224117" lon="15.1827817"><ele>101.75</ele><time>2026-04-24T22:56:14.558Z</time></trkpt><trkpt lat="37.7223067" lon="15.182705"><ele>102.0</ele><time>2026-04-24T22:56:15.558Z</time></trkpt><trkpt lat="37.7221917" lon="15.1826267"><ele>102.0</ele><time>2026-04-24T22:56:16.558Z</time></trkpt><trkpt lat="37.7220833" lon="15.18254"><ele>102.0</ele><time>2026-04-24T22:56:17.557Z</time></trkpt><trkpt lat="37.7219683" lon="15.1824533"><ele>102.0</ele><time>2026-04-24T22:56:18.558Z</time></trkpt><trkpt lat="37.7218483" lon="15.1823583"><ele>102.0</ele><time>2026-04-24T22:56:19.558Z</time></trkpt><trkpt lat="37.7217217" lon="15.1822683"><ele>102.75</ele><time>2026-04-24T22:56:20.558Z</time></trkpt><trkpt lat="37.7216033" lon="15.1821717"><ele>103.5</ele><time>2026-04-24T22:56:21.558Z</time></trkpt><trkpt lat="37.7214717" lon="15.1820767"><ele>104.25</ele><time>2026-04-24T22:56:22.557Z</time></trkpt><trkpt lat="37.72134" lon="15.1819833"><ele>105.0</ele><time>2026-04-24T22:56:23.558Z</time></trkpt><trkpt lat="37.7212183" lon="15.181895"><ele>105.0</ele><time>2026-04-24T22:56:24.558Z</time></trkpt><trkpt lat="37.7211083" lon="15.1818017"><ele>105.0</ele><time>2026-04-24T22:56:25.558Z</time></trkpt><trkpt lat="37.7209983" lon="15.1817167"><ele>105.0</ele><time>2026-04-24T22:56:26.557Z</time></trkpt><trkpt lat="37.7208983" lon="15.18164"><ele>105.0</ele><time>2026-04-24T22:56:27.558Z</time></trkpt><trkpt lat="37.720795" lon="15.1815733"><ele>106.25</ele><time>2026-04-24T22:56:28.557Z</time></trkpt><trkpt lat="37.7206933" lon="15.1814917"><ele>107.5</ele><time>2026-04-24T22:56:29.558Z</time></trkpt><trkpt lat="37.7205883" lon="15.1814117"><ele>108.75</ele><time>2026-04-24T22:56:30.559Z</time></trkpt><trkpt lat="37.7204783" lon="15.1813367"><ele>110.0</ele><time>2026-04-24T22:56:31.558Z</time></trkpt><trkpt lat="37.720375" lon="15.181255"><ele>110.0</ele><time>2026-04-24T22:56:32.558Z</time></trkpt><trkpt lat="37.720265" lon="15.181175"><ele>110.0</ele><time>2026-04-24T22:56:33.559Z</time></trkpt><trkpt lat="37.7201533" lon="15.1811017"><ele>110.0</ele><time>2026-04-24T22:56:34.559Z</time></trkpt><trkpt lat="37.72004" lon="15.18102"><ele>110.0</ele><time>2026-04-24T22:56:35.559Z</time></trkpt><trkpt lat="37.7199267" lon="15.1809383"><ele>111.25</ele><time>2026-04-24T22:56:36.559Z</time></trkpt><trkpt lat="37.719815" lon="15.1808517"><ele>112.5</ele><time>2026-04-24T22:56:37.558Z</time></trkpt><trkpt lat="37.7197033" lon="15.1807567"><ele>113.75</ele><time>2026-04-24T22:56:38.559Z</time></trkpt><trkpt lat="37.7195867" lon="15.1806717"><ele>115.0</ele><time>2026-04-24T22:56:39.559Z</time></trkpt><trkpt lat="37.7194733" lon="15.180585"><ele>116.0</ele><time>2026-04-24T22:56:40.559Z</time></trkpt><trkpt lat="37.7193667" lon="15.1804967"><ele>117.0</ele><time>2026-04-24T22:56:41.559Z</time></trkpt><trkpt lat="37.7192533" lon="15.1804167"><ele>118.0</ele><time>2026-04-24T22:56:42.559Z</time></trkpt><trkpt lat="37.71914" lon="15.1803367"><ele>119.0</ele><time>2026-04-24T22:56:43.559Z</time></trkpt><trkpt lat="37.7190283" lon="15.1802533"><ele>119.0</ele><time>2026-04-24T22:56:44.559Z</time></trkpt><trkpt lat="37.718925" lon="15.1801633"><ele>119.0</ele><time>2026-04-24T22:56:45.559Z</time></trkpt><trkpt lat="37.7188217" lon="15.18008"><ele>119.0</ele><time>2026-04-24T22:56:46.559Z</time></trkpt><trkpt lat="37.7187167" lon="15.1799967"><ele>119.0</ele><time>2026-04-24T22:56:47.558Z</time></trkpt><trkpt lat="37.7186083" lon="15.179915"><ele>121.0</ele><time>2026-04-24T22:56:48.559Z</time></trkpt><trkpt lat="37.7185" lon="15.1798333"><ele>123.0</ele><time>2026-04-24T22:56:49.559Z</time></trkpt><trkpt lat="37.7183883" lon="15.1797517"><ele>125.0</ele><time>2026-04-24T22:56:50.559Z</time></trkpt><trkpt lat="37.7182783" lon="15.1796733"><ele>127.0</ele><time>2026-04-24T22:56:51.559Z</time></trkpt><trkpt lat="37.7181733" lon="15.1795917"><ele>127.0</ele><time>2026-04-24T22:56:52.559Z</time></trkpt><trkpt lat="37.71807" lon="15.1795167"><ele>127.0</ele><time>2026-04-24T22:56:53.559Z</time></trkpt><trkpt lat="37.717965" lon="15.179445"><ele>127.0</ele><time>2026-04-24T22:56:54.559Z</time></trkpt><trkpt lat="37.7178683" lon="15.17937"><ele>127.0</ele><time>2026-04-24T22:56:55.559Z</time></trkpt><trkpt lat="37.7177667" lon="15.17929"><ele>127.0</ele><time>2026-04-24T22:56:56.559Z</time></trkpt><trkpt lat="37.7176633" lon="15.179205"><ele>127.0</ele><time>2026-04-24T22:56:57.559Z</time></trkpt><trkpt lat="37.7175633" lon="15.1791233"><ele>127.0</ele><time>2026-04-24T22:56:58.559Z</time></trkpt><trkpt lat="37.717465" lon="15.1790517"><ele>127.0</ele><time>2026-04-24T22:56:59.559Z</time></trkpt><trkpt lat="37.7173817" lon="15.1789883"><ele>126.8</ele><time>2026-04-24T22:57:00.559Z</time></trkpt><trkpt lat="37.7172933" lon="15.1789217"><ele>126.6</ele><time>2026-04-24T22:57:01.558Z</time></trkpt><trkpt lat="37.717205" lon="15.1788517"><ele>126.39999999999999</ele><time>2026-04-24T22:57:02.558Z</time></trkpt><trkpt lat="37.71711" lon="15.1787817"><ele>126.19999999999999</ele><time>2026-04-24T22:57:03.558Z</time></trkpt><trkpt lat="37.7170067" lon="15.17871"><ele>126.0</ele><time>2026-04-24T22:57:04.558Z</time></trkpt><trkpt lat="37.7169033" lon="15.1786333"><ele>127.0</ele><time>2026-04-24T22:57:05.559Z</time></trkpt><trkpt lat="37.7167983" lon="15.1785583"><ele>128.0</ele><time>2026-04-24T22:57:06.558Z</time></trkpt><trkpt lat="37.7166867" lon="15.1784783"><ele>129.0</ele><time>2026-04-24T22:57:07.559Z</time></trkpt><trkpt lat="37.7165783" lon="15.1783917"><ele>130.0</ele><time>2026-04-24T22:57:08.559Z</time></trkpt><trkpt lat="37.716465" lon="15.1783067"><ele>130.0</ele><time>2026-04-24T22:57:09.558Z</time></trkpt><trkpt lat="37.7163517" lon="15.1782183"><ele>130.0</ele><time>2026-04-24T22:57:10.559Z</time></trkpt><trkpt lat="37.716235" lon="15.1781317"><ele>130.0</ele><time>2026-04-24T22:57:11.559Z</time></trkpt><trkpt lat="37.7161133" lon="15.178045"><ele>130.0</ele><time>2026-04-24T22:57:12.559Z</time></trkpt><trkpt lat="37.71599" lon="15.1779533"><ele>132.0</ele><time>2026-04-24T22:57:13.559Z</time></trkpt><trkpt lat="37.7158633" lon="15.1778683"><ele>134.0</ele><time>2026-04-24T22:57:14.559Z</time></trkpt><trkpt lat="37.7157417" lon="15.1777667"><ele>136.0</ele><time>2026-04-24T22:57:15.558Z</time></trkpt><trkpt lat="37.71562" lon="15.17767"><ele>138.0</ele><time>2026-04-24T22:57:16.558Z</time></trkpt><trkpt lat="37.7154983" lon="15.1775783"><ele>138.0</ele><time>2026-04-24T22:57:17.558Z</time></trkpt><trkpt lat="37.7153783" lon="15.1774867"><ele>138.0</ele><time>2026-04-24T22:57:18.558Z</time></trkpt><trkpt lat="37.715255" lon="15.1773983"><ele>138.0</ele><time>2026-04-24T22:57:19.558Z</time></trkpt><trkpt lat="37.7151333" lon="15.1773117"><ele>138.0</ele><time>2026-04-24T22:57:20.559Z</time></trkpt><trkpt lat="37.71502" lon="15.1772217"><ele>138.75</ele><time>2026-04-24T22:57:21.559Z</time></trkpt><trkpt lat="37.7149033" lon="15.1771417"><ele>139.5</ele><time>2026-04-24T22:57:22.559Z</time></trkpt><trkpt lat="37.7147783" lon="15.17706"><ele>140.25</ele><time>2026-04-24T22:57:23.559Z</time></trkpt><trkpt lat="37.714655" lon="15.1769683"><ele>141.0</ele><time>2026-04-24T22:57:24.558Z</time></trkpt><trkpt lat="37.7145333" lon="15.176885"><ele>141.0</ele><time>2026-04-24T22:57:25.558Z</time></trkpt><trkpt lat="37.7144183" lon="15.176805"><ele>141.0</ele><time>2026-04-24T22:57:26.558Z</time></trkpt><trkpt lat="37.7143083" lon="15.1767217"><ele>141.0</ele><time>2026-04-24T22:57:27.558Z</time></trkpt><trkpt lat="37.7141983" lon="15.1766467"><ele>141.0</ele><time>2026-04-24T22:57:28.559Z</time></trkpt><trkpt lat="37.7140833" lon="15.1765867"><ele>141.75</ele><time>2026-04-24T22:57:29.558Z</time></trkpt><trkpt lat="37.7139733" lon="15.1765233"><ele>142.5</ele><time>2026-04-24T22:57:30.559Z</time></trkpt><trkpt lat="37.7138533" lon="15.176465"><ele>143.25</ele><time>2026-04-24T22:57:31.558Z</time></trkpt><trkpt lat="37.7137367" lon="15.176395"><ele>144.0</ele><time>2026-04-24T22:57:32.559Z</time></trkpt><trkpt lat="37.713615" lon="15.1763383"><ele>144.75</ele><time>2026-04-24T22:57:33.559Z</time></trkpt><trkpt lat="37.7134917" lon="15.17627"><ele>145.5</ele><time>2026-04-24T22:57:34.559Z</time></trkpt><trkpt lat="37.71337" lon="15.176195"><ele>146.25</ele><time>2026-04-24T22:57:35.558Z</time></trkpt><trkpt lat="37.7132567" lon="15.17612"><ele>147.0</ele><time>2026-04-24T22:57:36.558Z</time></trkpt><trkpt lat="37.7131383" lon="15.1760533"><ele>147.0</ele><time>2026-04-24T22:57:37.559Z</time></trkpt><trkpt lat="37.71302" lon="15.1759833"><ele>147.0</ele><time>2026-04-24T22:57:38.558Z</time></trkpt><trkpt lat="37.7128883" lon="15.17591"><ele>147.0</ele><time>2026-04-24T22:57:39.559Z</time></trkpt><trkpt lat="37.7127617" lon="15.1758317"><ele>147.0</ele><time>2026-04-24T22:57:40.559Z</time></trkpt><trkpt lat="37.7126317" lon="15.1757567"><ele>148.25</ele><time>2026-04-24T22:57:41.559Z</time></trkpt><trkpt lat="37.712505" lon="15.1756833"><ele>149.5</ele><time>2026-04-24T22:57:42.559Z</time></trkpt><trkpt lat="37.712375" lon="15.17562"><ele>150.75</ele><time>2026-04-24T22:57:43.559Z</time></trkpt><trkpt lat="37.7122467" lon="15.1755467"><ele>152.0</ele><time>2026-04-24T22:57:44.558Z</time></trkpt><trkpt lat="37.7121133" lon="15.175475"><ele>152.0</ele><time>2026-04-24T22:57:45.559Z</time></trkpt><trkpt lat="37.7119783" lon="15.17541"><ele>152.0</ele><time>2026-04-24T22:57:46.558Z</time></trkpt><trkpt lat="37.711835" lon="15.1753467"><ele>152.0</ele><time>2026-04-24T22:57:47.559Z</time></trkpt><trkpt lat="37.7116917" lon="15.1752817"><ele>152.0</ele><time>2026-04-24T22:57:48.558Z</time></trkpt><trkpt lat="37.7115517" lon="15.1752033"><ele>153.33333333333331</ele><time>2026-04-24T22:57:49.559Z</time></trkpt><trkpt lat="37.71141" lon="15.1751333"><ele>154.66666666666666</ele><time>2026-04-24T22:57:50.558Z</time></trkpt><trkpt lat="37.711255" lon="15.1750717"><ele>156.0</ele><time>2026-04-24T22:57:51.559Z</time></trkpt><trkpt lat="37.7111" lon="15.17501"><ele>156.66666666666666</ele><time>2026-04-24T22:57:52.558Z</time></trkpt><trkpt lat="37.7109367" lon="15.17495"><ele>157.33333333333331</ele><time>2026-04-24T22:57:53.558Z</time></trkpt><trkpt lat="37.7107667" lon="15.1748883"><ele>158.0</ele><time>2026-04-24T22:57:54.559Z</time></trkpt><trkpt lat="37.7106017" lon="15.1748233"><ele>158.66666666666666</ele><time>2026-04-24T22:57:55.558Z</time></trkpt><trkpt lat="37.7104383" lon="15.1747633"><ele>159.33333333333334</ele><time>2026-04-24T22:57:56.558Z</time></trkpt><trkpt lat="37.710275" lon="15.174705"><ele>160.0</ele><time>2026-04-24T22:57:57.558Z</time></trkpt><trkpt lat="37.7101217" lon="15.1746517"><ele>160.66666666666669</ele><time>2026-04-24T22:57:58.559Z</time></trkpt><trkpt lat="37.709965" lon="15.1746033"><ele>161.33333333333334</ele><time>2026-04-24T22:57:59.559Z</time></trkpt><trkpt lat="37.709805" lon="15.174565"><ele>162.0</ele><time>2026-04-24T22:58:00.559Z</time></trkpt><trkpt lat="37.7096467" lon="15.1745333"><ele>162.0</ele><time>2026-04-24T22:58:01.559Z</time></trkpt><trkpt lat="37.7094883" lon="15.1745017"><ele>162.0</ele><time>2026-04-24T22:58:02.559Z</time></trkpt><trkpt lat="37.7093217" lon="15.1744783"><ele>162.0</ele><time>2026-04-24T22:58:03.559Z</time></trkpt><trkpt lat="37.7091567" lon="15.1744533"><ele>161.66666666666666</ele><time>2026-04-24T22:58:04.559Z</time></trkpt><trkpt lat="37.708995" lon="15.17442"><ele>161.33333333333331</ele><time>2026-04-24T22:58:05.559Z</time></trkpt><trkpt lat="37.7088383" lon="15.1743867"><ele>161.0</ele><time>2026-04-24T22:58:06.559Z</time></trkpt><trkpt lat="37.7086817" lon="15.1743467"><ele>162.33333333333331</ele><time>2026-04-24T22:58:07.559Z</time></trkpt><trkpt lat="37.708525" lon="15.1743117"><ele>163.66666666666666</ele><time>2026-04-24T22:58:08.559Z</time></trkpt><trkpt lat="37.7083717" lon="15.1742583"><ele>165.0</ele><time>2026-04-24T22:58:09.559Z</time></trkpt><trkpt lat="37.7082167" lon="15.1742083"><ele>165.0</ele><time>2026-04-24T22:58:10.558Z</time></trkpt><trkpt lat="37.70806" lon="15.17416"><ele>165.0</ele><time>2026-04-24T22:58:11.559Z</time></trkpt><trkpt lat="37.7079" lon="15.1741167"><ele>165.0</ele><time>2026-04-24T22:58:12.559Z</time></trkpt><trkpt lat="37.7077367" lon="15.174085"><ele>165.33333333333334</ele><time>2026-04-24T22:58:13.559Z</time></trkpt><trkpt lat="37.7075717" lon="15.1740483"><ele>165.66666666666669</ele><time>2026-04-24T22:58:14.559Z</time></trkpt><trkpt lat="37.7074017" lon="15.174025"><ele>166.0</ele><time>2026-04-24T22:58:15.559Z</time></trkpt><trkpt lat="37.707225" lon="15.1740133"><ele>167.0</ele><time>2026-04-24T22:58:16.559Z</time></trkpt><trkpt lat="37.70706" lon="15.1740117"><ele>168.0</ele><time>2026-04-24T22:58:17.559Z</time></trkpt><trkpt lat="37.7069167" lon="15.173995"><ele>169.0</ele><time>2026-04-24T22:58:18.559Z</time></trkpt><trkpt lat="37.7067833" lon="15.17398"><ele>170.0</ele><time>2026-04-24T22:58:19.559Z</time></trkpt><trkpt lat="37.7066617" lon="15.1739567"><ele>170.5</ele><time>2026-04-24T22:58:20.559Z</time></trkpt><trkpt lat="37.7065317" lon="15.1739533"><ele>171.0</ele><time>2026-04-24T22:58:21.558Z</time></trkpt><trkpt lat="37.7064033" lon="15.173945"><ele>171.5</ele><time>2026-04-24T22:58:22.558Z</time></trkpt><trkpt lat="37.7062867" lon="15.1739417"><ele>172.0</ele><time>2026-04-24T22:58:23.558Z</time></trkpt><trkpt lat="37.706185" lon="15.173935"><ele>172.0</ele><time>2026-04-24T22:58:24.559Z</time></trkpt><trkpt lat="37.7060883" lon="15.1739267"><ele>172.0</ele><time>2026-04-24T22:58:25.558Z</time></trkpt><trkpt lat="37.7060017" lon="15.17392"><ele>172.0</ele><time>2026-04-24T22:58:26.558Z</time></trkpt><trkpt lat="37.705905" lon="15.1739083"><ele>172.0</ele><time>2026-04-24T22:58:27.558Z</time></trkpt><trkpt lat="37.7058" lon="15.173895"><ele>172.0</ele><time>2026-04-24T22:58:28.558Z</time></trkpt><trkpt lat="37.7056767" lon="15.173885"><ele>172.0</ele><time>2026-04-24T22:58:29.559Z</time></trkpt><trkpt lat="37.7055417" lon="15.1738817"><ele>172.0</ele><time>2026-04-24T22:58:30.558Z</time></trkpt><trkpt lat="37.7053967" lon="15.1738783"><ele>172.0</ele><time>2026-04-24T22:58:31.559Z</time></trkpt><trkpt lat="37.7052533" lon="15.173885"><ele>172.0</ele><time>2026-04-24T22:58:32.559Z</time></trkpt><trkpt lat="37.7051067" lon="15.1738933"><ele>172.0</ele><time>2026-04-24T22:58:33.559Z</time></trkpt><trkpt lat="37.7049583" lon="15.1739017"><ele>172.0</ele><time>2026-04-24T22:58:34.558Z</time></trkpt><trkpt lat="37.70481" lon="15.1738983"><ele>172.0</ele><time>2026-04-24T22:58:35.559Z</time></trkpt><trkpt lat="37.7046583" lon="15.173905"><ele>172.0</ele><time>2026-04-24T22:58:36.558Z</time></trkpt><trkpt lat="37.7044933" lon="15.173915"><ele>172.33333333333334</ele><time>2026-04-24T22:58:37.559Z</time></trkpt><trkpt lat="37.7043367" lon="15.1739383"><ele>172.66666666666666</ele><time>2026-04-24T22:58:38.558Z</time></trkpt><trkpt lat="37.7041667" lon="15.1739833"><ele>173.0</ele><time>2026-04-24T22:58:39.558Z</time></trkpt><trkpt lat="37.703995" lon="15.1740333"><ele>172.33333333333331</ele><time>2026-04-24T22:58:40.559Z</time></trkpt><trkpt lat="37.70382" lon="15.174085"><ele>171.66666666666666</ele><time>2026-04-24T22:58:41.559Z</time></trkpt><trkpt lat="37.7036517" lon="15.17413"><ele>171.0</ele><time>2026-04-24T22:58:42.558Z</time></trkpt><trkpt lat="37.7034817" lon="15.1741817"><ele>171.0</ele><time>2026-04-24T22:58:43.559Z</time></trkpt><trkpt lat="37.7033083" lon="15.17422"><ele>171.0</ele><time>2026-04-24T22:58:44.558Z</time></trkpt><trkpt lat="37.7031317" lon="15.1742367"><ele>171.0</ele><time>2026-04-24T22:58:45.559Z</time></trkpt><trkpt lat="37.7029567" lon="15.17424"><ele>171.0</ele><time>2026-04-24T22:58:46.559Z</time></trkpt><trkpt lat="37.702775" lon="15.1742217"><ele>171.0</ele><time>2026-04-24T22:58:47.558Z</time></trkpt><trkpt lat="37.70259" lon="15.1741933"><ele>171.0</ele><time>2026-04-24T22:58:48.559Z</time></trkpt><trkpt lat="37.70241" lon="15.174175"><ele>171.0</ele><time>2026-04-24T22:58:49.559Z</time></trkpt><trkpt lat="37.702245" lon="15.1741533"><ele>171.0</ele><time>2026-04-24T22:58:50.558Z</time></trkpt><trkpt lat="37.7020883" lon="15.1741317"><ele>171.0</ele><time>2026-04-24T22:58:51.559Z</time></trkpt><trkpt lat="37.70193" lon="15.1740983"><ele>172.33333333333334</ele><time>2026-04-24T22:58:52.558Z</time></trkpt><trkpt lat="37.7017767" lon="15.1740683"><ele>173.66666666666669</ele><time>2026-04-24T22:58:53.559Z</time></trkpt><trkpt lat="37.701625" lon="15.1740517"><ele>175.0</ele><time>2026-04-24T22:58:54.559Z</time></trkpt><trkpt lat="37.70147" lon="15.1740417"><ele>175.0</ele><time>2026-04-24T22:58:55.559Z</time></trkpt><trkpt lat="37.70131" lon="15.1740333"><ele>175.0</ele><time>2026-04-24T22:58:56.558Z</time></trkpt><trkpt lat="37.7011383" lon="15.1740383"><ele>175.0</ele><time>2026-04-24T22:58:57.558Z</time></trkpt><trkpt lat="37.7009583" lon="15.17405"><ele>174.0</ele><time>2026-04-24T22:58:58.558Z</time></trkpt><trkpt lat="37.7007767" lon="15.1740617"><ele>173.0</ele><time>2026-04-24T22:58:59.558Z</time></trkpt><trkpt lat="37.700585" lon="15.174085"><ele>172.0</ele><time>2026-04-24T22:59:00.558Z</time></trkpt><trkpt lat="37.70039" lon="15.1741133"><ele>171.33333333333334</ele><time>2026-04-24T22:59:01.559Z</time></trkpt><trkpt lat="37.700185" lon="15.174155"><ele>170.66666666666666</ele><time>2026-04-24T22:59:02.558Z</time></trkpt><trkpt lat="37.6999817" lon="15.1742017"><ele>170.0</ele><time>2026-04-24T22:59:03.558Z</time></trkpt><trkpt lat="37.6997817" lon="15.1742467"><ele>170.0</ele><time>2026-04-24T22:59:04.558Z</time></trkpt><trkpt lat="37.69959" lon="15.1742783"><ele>170.0</ele><time>2026-04-24T22:59:05.559Z</time></trkpt><trkpt lat="37.6993983" lon="15.1742967"><ele>170.0</ele><time>2026-04-24T22:59:06.559Z</time></trkpt><trkpt lat="37.6992117" lon="15.1742983"><ele>169.66666666666666</ele><time>2026-04-24T22:59:07.559Z</time></trkpt><trkpt lat="37.699035" lon="15.1742883"><ele>169.33333333333334</ele><time>2026-04-24T22:59:08.558Z</time></trkpt><trkpt lat="37.698875" lon="15.1742633"><ele>169.0</ele><time>2026-04-24T22:59:09.559Z</time></trkpt><trkpt lat="37.69874" lon="15.174235"><ele>169.0</ele><time>2026-04-24T22:59:10.559Z</time></trkpt><trkpt lat="37.6986167" lon="15.17421"><ele>169.0</ele><time>2026-04-24T22:59:11.559Z</time></trkpt><trkpt lat="37.6984917" lon="15.1741817"><ele>169.0</ele><time>2026-04-24T22:59:12.559Z</time></trkpt><trkpt lat="37.6983617" lon="15.1741583"><ele>169.0</ele><time>2026-04-24T22:59:13.558Z</time></trkpt><trkpt lat="37.6982267" lon="15.17413"><ele>168.75</ele><time>2026-04-24T22:59:14.558Z</time></trkpt><trkpt lat="37.6980917" lon="15.174095"><ele>168.5</ele><time>2026-04-24T22:59:15.559Z</time></trkpt><trkpt lat="37.6979467" lon="15.174065"><ele>168.25</ele><time>2026-04-24T22:59:16.559Z</time></trkpt><trkpt lat="37.6978017" lon="15.1740383"><ele>168.0</ele><time>2026-04-24T22:59:17.558Z</time></trkpt><trkpt lat="37.6976483" lon="15.17402"><ele>167.0</ele><time>2026-04-24T22:59:18.559Z</time></trkpt><trkpt lat="37.697495" lon="15.1740017"><ele>166.0</ele><time>2026-04-24T22:59:19.559Z</time></trkpt><trkpt lat="37.6973383" lon="15.1739883"><ele>165.0</ele><time>2026-04-24T22:59:20.558Z</time></trkpt><trkpt lat="37.697175" lon="15.173975"><ele>165.0</ele><time>2026-04-24T22:59:21.558Z</time></trkpt><trkpt lat="37.697005" lon="15.17396"><ele>165.0</ele><time>2026-04-24T22:59:22.559Z</time></trkpt><trkpt lat="37.6968333" lon="15.1739483"><ele>165.0</ele><time>2026-04-24T22:59:23.559Z</time></trkpt><trkpt lat="37.6966617" lon="15.1739367"><ele>163.66666666666666</ele><time>2026-04-24T22:59:24.559Z</time></trkpt><trkpt lat="37.69649" lon="15.1739217"><ele>162.33333333333331</ele><time>2026-04-24T22:59:25.558Z</time></trkpt><trkpt lat="37.6963167" lon="15.1739067"><ele>161.0</ele><time>2026-04-24T22:59:26.558Z</time></trkpt><trkpt lat="37.6961467" lon="15.1739017"><ele>159.66666666666666</ele><time>2026-04-24T22:59:27.559Z</time></trkpt><trkpt lat="37.6959783" lon="15.1739"><ele>158.33333333333334</ele><time>2026-04-24T22:59:28.558Z</time></trkpt><trkpt lat="37.695815" lon="15.1738967"><ele>157.0</ele><time>2026-04-24T22:59:29.558Z</time></trkpt><trkpt lat="37.6956517" lon="15.1738883"><ele>157.0</ele><time>2026-04-24T22:59:30.558Z</time></trkpt><trkpt lat="37.69549" lon="15.1738767"><ele>157.0</ele><time>2026-04-24T22:59:31.559Z</time></trkpt><trkpt lat="37.6953217" lon="15.1738667"><ele>157.0</ele><time>2026-04-24T22:59:32.559Z</time></trkpt><trkpt lat="37.6951533" lon="15.1738533"><ele>156.0</ele><time>2026-04-24T22:59:33.559Z</time></trkpt><trkpt lat="37.6949833" lon="15.1738383"><ele>155.0</ele><time>2026-04-24T22:59:34.559Z</time></trkpt><trkpt lat="37.69481" lon="15.1738167"><ele>154.0</ele><time>2026-04-24T22:59:35.558Z</time></trkpt><trkpt lat="37.69464" lon="15.17379"><ele>154.0</ele><time>2026-04-24T22:59:36.558Z</time></trkpt><trkpt lat="37.6944667" lon="15.1737633"><ele>154.0</ele><time>2026-04-24T22:59:37.559Z</time></trkpt><trkpt lat="37.694295" lon="15.1737367"><ele>154.0</ele><time>2026-04-24T22:59:38.558Z</time></trkpt><trkpt lat="37.6941333" lon="15.1737033"><ele>153.33333333333334</ele><time>2026-04-24T22:59:39.559Z</time></trkpt><trkpt lat="37.6939583" lon="15.173665"><ele>152.66666666666666</ele><time>2026-04-24T22:59:40.559Z</time></trkpt><trkpt lat="37.693795" lon="15.173625"><ele>152.0</ele><time>2026-04-24T22:59:41.558Z</time></trkpt><trkpt lat="37.6936333" lon="15.1735883"><ele>151.33333333333331</ele><time>2026-04-24T22:59:42.558Z</time></trkpt><trkpt lat="37.69347" lon="15.1735517"><ele>150.66666666666666</ele><time>2026-04-24T22:59:43.558Z</time></trkpt><trkpt lat="37.6933083" lon="15.1735167"><ele>150.0</ele><time>2026-04-24T22:59:44.558Z</time></trkpt><trkpt lat="37.69314" lon="15.17348"><ele>150.0</ele><time>2026-04-24T22:59:45.558Z</time></trkpt><trkpt lat="37.6929667" lon="15.1734433"><ele>150.0</ele><time>2026-04-24T22:59:46.559Z</time></trkpt><trkpt lat="37.6927933" lon="15.1734083"><ele>150.0</ele><time>2026-04-24T22:59:47.559Z</time></trkpt><trkpt lat="37.692635" lon="15.173365"><ele>150.0</ele><time>2026-04-24T22:59:48.559Z</time></trkpt><trkpt lat="37.6924867" lon="15.1733133"><ele>150.0</ele><time>2026-04-24T22:59:49.558Z</time></trkpt><trkpt lat="37.6923433" lon="15.17324"><ele>150.0</ele><time>2026-04-24T22:59:50.558Z</time></trkpt><trkpt lat="37.692205" lon="15.1731617"><ele>149.66666666666666</ele><time>2026-04-24T22:59:51.558Z</time></trkpt><trkpt lat="37.6920583" lon="15.17309"><ele>149.33333333333331</ele><time>2026-04-24T22:59:52.559Z</time></trkpt><trkpt lat="37.6919067" lon="15.1730283"><ele>149.0</ele><time>2026-04-24T22:59:53.559Z</time></trkpt><trkpt lat="37.6917533" lon="15.1729783"><ele>149.0</ele><time>2026-04-24T22:59:54.559Z</time></trkpt><trkpt lat="37.6915983" lon="15.1729317"><ele>149.0</ele><time>2026-04-24T22:59:55.559Z</time></trkpt><trkpt lat="37.69144" lon="15.1728967"><ele>149.0</ele><time>2026-04-24T22:59:56.558Z</time></trkpt><trkpt lat="37.691285" lon="15.1728617"><ele>149.0</ele><time>2026-04-24T22:59:57.558Z</time></trkpt><trkpt lat="37.69113" lon="15.1728217"><ele>149.0</ele><time>2026-04-24T22:59:58.558Z</time></trkpt><trkpt lat="37.6909733" lon="15.1727767"><ele>149.0</ele><time>2026-04-24T22:59:59.558Z</time></trkpt><trkpt lat="37.690825" lon="15.1727267"><ele>149.0</ele><time>2026-04-24T23:00:00.558Z</time></trkpt><trkpt lat="37.6906867" lon="15.17268"><ele>149.0</ele><time>2026-04-24T23:00:01.558Z</time></trkpt><trkpt lat="37.69055" lon="15.1726267"><ele>149.0</ele><time>2026-04-24T23:00:02.559Z</time></trkpt><trkpt lat="37.690415" lon="15.1725617"><ele>149.0</ele><time>2026-04-24T23:00:03.559Z</time></trkpt><trkpt lat="37.6902817" lon="15.172495"><ele>149.0</ele><time>2026-04-24T23:00:04.559Z</time></trkpt><trkpt lat="37.6901483" lon="15.17243"><ele>149.0</ele><time>2026-04-24T23:00:05.559Z</time></trkpt><trkpt lat="37.6900067" lon="15.1723667"><ele>149.0</ele><time>2026-04-24T23:00:06.558Z</time></trkpt><trkpt lat="37.68986" lon="15.17231"><ele>149.0</ele><time>2026-04-24T23:00:07.559Z</time></trkpt><trkpt lat="37.689715" lon="15.1722533"><ele>150.33333333333331</ele><time>2026-04-24T23:00:08.559Z</time></trkpt><trkpt lat="37.6895583" lon="15.1721967"><ele>151.66666666666666</ele><time>2026-04-24T23:00:09.559Z</time></trkpt><trkpt lat="37.6893983" lon="15.1721383"><ele>153.0</ele><time>2026-04-24T23:00:10.559Z</time></trkpt><trkpt lat="37.6892367" lon="15.1720817"><ele>154.66666666666666</ele><time>2026-04-24T23:00:11.559Z</time></trkpt><trkpt lat="37.6890817" lon="15.1720283"><ele>156.33333333333331</ele><time>2026-04-24T23:00:12.559Z</time></trkpt><trkpt lat="37.6889333" lon="15.1719783"><ele>158.0</ele><time>2026-04-24T23:00:13.559Z</time></trkpt><trkpt lat="37.6887883" lon="15.1719267"><ele>158.0</ele><time>2026-04-24T23:00:14.558Z</time></trkpt><trkpt lat="37.68865" lon="15.1718767"><ele>158.0</ele><time>2026-04-24T23:00:15.558Z</time></trkpt><trkpt lat="37.68851" lon="15.171835"><ele>158.0</ele><time>2026-04-24T23:00:16.559Z</time></trkpt><trkpt lat="37.6883667" lon="15.17182"><ele>158.0</ele><time>2026-04-24T23:00:17.558Z</time></trkpt><trkpt lat="37.688225" lon="15.1718367"><ele>158.5</ele><time>2026-04-24T23:00:18.559Z</time></trkpt><trkpt lat="37.6880767" lon="15.1718767"><ele>159.0</ele><time>2026-04-24T23:00:19.558Z</time></trkpt><trkpt lat="37.6879333" lon="15.171915"><ele>159.5</ele><time>2026-04-24T23:00:20.559Z</time></trkpt><trkpt lat="37.687785" lon="15.171945"><ele>160.0</ele><time>2026-04-24T23:00:21.558Z</time></trkpt><trkpt lat="37.687635" lon="15.1719767"><ele>163.66666666666669</ele><time>2026-04-24T23:00:22.559Z</time></trkpt><trkpt lat="37.68749" lon="15.1720067"><ele>167.33333333333334</ele><time>2026-04-24T23:00:23.559Z</time></trkpt><trkpt lat="37.687335" lon="15.172035"><ele>171.0</ele><time>2026-04-24T23:00:24.559Z</time></trkpt><trkpt lat="37.687185" lon="15.1720533"><ele>171.0</ele><time>2026-04-24T23:00:25.558Z</time></trkpt><trkpt lat="37.6870317" lon="15.1720633"><ele>171.0</ele><time>2026-04-24T23:00:26.558Z</time></trkpt><trkpt lat="37.68688" lon="15.1720517"><ele>171.0</ele><time>2026-04-24T23:00:27.559Z</time></trkpt><trkpt lat="37.68673" lon="15.1720233"><ele>171.0</ele><time>2026-04-24T23:00:28.558Z</time></trkpt><trkpt lat="37.6865717" lon="15.171985"><ele>171.0</ele><time>2026-04-24T23:00:29.559Z</time></trkpt><trkpt lat="37.6864167" lon="15.1719467"><ele>171.0</ele><time>2026-04-24T23:00:30.558Z</time></trkpt><trkpt lat="37.6862667" lon="15.171895"><ele>171.0</ele><time>2026-04-24T23:00:31.559Z</time></trkpt><trkpt lat="37.6861167" lon="15.17183"><ele>171.0</ele><time>2026-04-24T23:00:32.559Z</time></trkpt><trkpt lat="37.6859617" lon="15.17177"><ele>171.0</ele><time>2026-04-24T23:00:33.559Z</time></trkpt><trkpt lat="37.6858017" lon="15.171705"><ele>171.33333333333334</ele><time>2026-04-24T23:00:34.558Z</time></trkpt><trkpt lat="37.68564" lon="15.17164"><ele>171.66666666666669</ele><time>2026-04-24T23:00:35.559Z</time></trkpt><trkpt lat="37.6854767" lon="15.1715733"><ele>172.0</ele><time>2026-04-24T23:00:36.558Z</time></trkpt><trkpt lat="37.685325" lon="15.1715117"><ele>174.33333333333334</ele><time>2026-04-24T23:00:37.559Z</time></trkpt><trkpt lat="37.68516" lon="15.1714467"><ele>176.66666666666666</ele><time>2026-04-24T23:00:38.558Z</time></trkpt><trkpt lat="37.6849967" lon="15.17139"><ele>179.0</ele><time>2026-04-24T23:00:39.559Z</time></trkpt><trkpt lat="37.684835" lon="15.1713383"><ele>179.0</ele><time>2026-04-24T23:00:40.559Z</time></trkpt><trkpt lat="37.6846767" lon="15.1713067"><ele>179.0</ele><time>2026-04-24T23:00:41.558Z</time></trkpt><trkpt lat="37.6845167" lon="15.171305"><ele>179.0</ele><time>2026-04-24T23:00:42.558Z</time></trkpt><trkpt lat="37.6843517" lon="15.1713083"><ele>180.0</ele><time>2026-04-24T23:00:43.559Z</time></trkpt><trkpt lat="37.6841983" lon="15.17133"><ele>181.0</ele><time>2026-04-24T23:00:44.559Z</time></trkpt><trkpt lat="37.6840467" lon="15.17138"><ele>182.0</ele><time>2026-04-24T23:00:45.558Z</time></trkpt><trkpt lat="37.6839017" lon="15.1714617"><ele>181.0</ele><time>2026-04-24T23:00:46.559Z</time></trkpt><trkpt lat="37.68376" lon="15.171565"><ele>180.0</ele><time>2026-04-24T23:00:47.559Z</time></trkpt><trkpt lat="37.6836117" lon="15.171665"><ele>179.0</ele><time>2026-04-24T23:00:48.558Z</time></trkpt><trkpt lat="37.6834633" lon="15.1717733"><ele>177.66666666666666</ele><time>2026-04-24T23:00:49.559Z</time></trkpt><trkpt lat="37.6833133" lon="15.171885"><ele>176.33333333333334</ele><time>2026-04-24T23:00:50.558Z</time></trkpt><trkpt lat="37.6831567" lon="15.1719933"><ele>175.0</ele><time>2026-04-24T23:00:51.558Z</time></trkpt><trkpt lat="37.682995" lon="15.1721017"><ele>175.0</ele><time>2026-04-24T23:00:52.559Z</time></trkpt><trkpt lat="37.682835" lon="15.1722217"><ele>175.0</ele><time>2026-04-24T23:00:53.559Z</time></trkpt><trkpt lat="37.6826817" lon="15.1723333"><ele>175.0</ele><time>2026-04-24T23:00:54.558Z</time></trkpt><trkpt lat="37.682535" lon="15.1724367"><ele>172.33333333333334</ele><time>2026-04-24T23:00:55.558Z</time></trkpt><trkpt lat="37.6823883" lon="15.1725283"><ele>169.66666666666666</ele><time>2026-04-24T23:00:56.558Z</time></trkpt><trkpt lat="37.682245" lon="15.1726183"><ele>167.0</ele><time>2026-04-24T23:00:57.559Z</time></trkpt><trkpt lat="37.6820933" lon="15.172705"><ele>167.0</ele><time>2026-04-24T23:00:58.559Z</time></trkpt><trkpt lat="37.681935" lon="15.1727783"><ele>167.0</ele><time>2026-04-24T23:00:59.559Z</time></trkpt><trkpt lat="37.6817683" lon="15.1728317"><ele>167.0</ele><time>2026-04-24T23:01:00.558Z</time></trkpt><trkpt lat="37.68159" lon="15.17288"><ele>166.0</ele><time>2026-04-24T23:01:01.558Z</time></trkpt><trkpt lat="37.6814133" lon="15.1729233"><ele>165.0</ele><time>2026-04-24T23:01:02.559Z</time></trkpt><trkpt lat="37.6812383" lon="15.172965"><ele>164.0</ele><time>2026-04-24T23:01:03.558Z</time></trkpt><trkpt lat="37.6810567" lon="15.1730067"><ele>164.0</ele><time>2026-04-24T23:01:04.558Z</time></trkpt><trkpt lat="37.68088" lon="15.1730533"><ele>164.0</ele><time>2026-04-24T23:01:05.559Z</time></trkpt><trkpt lat="37.6807033" lon="15.1730983"><ele>164.0</ele><time>2026-04-24T23:01:06.559Z</time></trkpt><trkpt lat="37.6805417" lon="15.1731383"><ele>164.0</ele><time>2026-04-24T23:01:07.558Z</time></trkpt><trkpt lat="37.68038" lon="15.1731733"><ele>164.0</ele><time>2026-04-24T23:01:08.559Z</time></trkpt><trkpt lat="37.6802183" lon="15.1731933"><ele>164.0</ele><time>2026-04-24T23:01:09.559Z</time></trkpt><trkpt lat="37.6800567" lon="15.173195"><ele>163.66666666666666</ele><time>2026-04-24T23:01:10.558Z</time></trkpt><trkpt lat="37.679895" lon="15.1731783"><ele>163.33333333333334</ele><time>2026-04-24T23:01:11.558Z</time></trkpt><trkpt lat="37.6797417" lon="15.1731533"><ele>163.0</ele><time>2026-04-24T23:01:12.559Z</time></trkpt><trkpt lat="37.6795883" lon="15.173115"><ele>163.0</ele><time>2026-04-24T23:01:13.559Z</time></trkpt><trkpt lat="37.6794367" lon="15.1730633"><ele>163.0</ele><time>2026-04-24T23:01:14.559Z</time></trkpt><trkpt lat="37.6792883" lon="15.1729883"><ele>163.0</ele><time>2026-04-24T23:01:15.559Z</time></trkpt><trkpt lat="37.6791333" lon="15.1728917"><ele>162.0</ele><time>2026-04-24T23:01:16.559Z</time></trkpt><trkpt lat="37.678985" lon="15.17278"><ele>161.0</ele><time>2026-04-24T23:01:17.559Z</time></trkpt><trkpt lat="37.67883" lon="15.1726683"><ele>160.0</ele><time>2026-04-24T23:01:18.559Z</time></trkpt><trkpt lat="37.678675" lon="15.172555"><ele>159.33333333333334</ele><time>2026-04-24T23:01:19.559Z</time></trkpt><trkpt lat="37.67853" lon="15.17245"><ele>158.66666666666666</ele><time>2026-04-24T23:01:20.559Z</time></trkpt><trkpt lat="37.678385" lon="15.1723467"><ele>158.0</ele><time>2026-04-24T23:01:21.558Z</time></trkpt><trkpt lat="37.6782417" lon="15.1722517"><ele>158.0</ele><time>2026-04-24T23:01:22.559Z</time></trkpt><trkpt lat="37.6781033" lon="15.1721583"><ele>158.0</ele><time>2026-04-24T23:01:23.559Z</time></trkpt><trkpt lat="37.677965" lon="15.172075"><ele>158.0</ele><time>2026-04-24T23:01:24.558Z</time></trkpt><trkpt lat="37.6778267" lon="15.17203"><ele>158.75</ele><time>2026-04-24T23:01:25.559Z</time></trkpt><trkpt lat="37.6777033" lon="15.1720333"><ele>159.5</ele><time>2026-04-24T23:01:26.559Z</time></trkpt><trkpt lat="37.6775867" lon="15.172055"><ele>160.25</ele><time>2026-04-24T23:01:27.559Z</time></trkpt><trkpt lat="37.6774567" lon="15.1720783"><ele>161.0</ele><time>2026-04-24T23:01:28.559Z</time></trkpt><trkpt lat="37.6773283" lon="15.1721017"><ele>161.0</ele><time>2026-04-24T23:01:29.559Z</time></trkpt><trkpt lat="37.6771967" lon="15.17213"><ele>161.0</ele><time>2026-04-24T23:01:30.559Z</time></trkpt><trkpt lat="37.67705" lon="15.1721267"><ele>161.0</ele><time>2026-04-24T23:01:31.559Z</time></trkpt><trkpt lat="37.676905" lon="15.1720967"><ele>161.0</ele><time>2026-04-24T23:01:32.558Z</time></trkpt><trkpt lat="37.67676" lon="15.1720533"><ele>160.5</ele><time>2026-04-24T23:01:33.558Z</time></trkpt><trkpt lat="37.6766217" lon="15.1720017"><ele>160.0</ele><time>2026-04-24T23:01:34.558Z</time></trkpt><trkpt lat="37.6764867" lon="15.17195"><ele>159.5</ele><time>2026-04-24T23:01:35.558Z</time></trkpt><trkpt lat="37.67636" lon="15.1718833"><ele>159.0</ele><time>2026-04-24T23:01:36.559Z</time></trkpt><trkpt lat="37.6762233" lon="15.1718183"><ele>158.0</ele><time>2026-04-24T23:01:37.559Z</time></trkpt><trkpt lat="37.6760733" lon="15.17177"><ele>157.0</ele><time>2026-04-24T23:01:38.559Z</time></trkpt><trkpt lat="37.6759317" lon="15.1717167"><ele>156.0</ele><time>2026-04-24T23:01:39.559Z</time></trkpt><trkpt lat="37.675775" lon="15.1716483"><ele>156.0</ele><time>2026-04-24T23:01:40.559Z</time></trkpt><trkpt lat="37.6756383" lon="15.1715967"><ele>156.0</ele><time>2026-04-24T23:01:41.559Z</time></trkpt><trkpt lat="37.6755183" lon="15.1715483"><ele>156.0</ele><time>2026-04-24T23:01:42.558Z</time></trkpt><trkpt lat="37.67541" lon="15.17151"><ele>156.0</ele><time>2026-04-24T23:01:43.559Z</time></trkpt><trkpt lat="37.6753033" lon="15.1714667"><ele>156.25</ele><time>2026-04-24T23:01:44.559Z</time></trkpt><trkpt lat="37.6751933" lon="15.1714267"><ele>156.5</ele><time>2026-04-24T23:01:45.559Z</time></trkpt><trkpt lat="37.6750667" lon="15.171375"><ele>156.75</ele><time>2026-04-24T23:01:46.559Z</time></trkpt><trkpt lat="37.6749267" lon="15.17132"><ele>157.0</ele><time>2026-04-24T23:01:47.559Z</time></trkpt><trkpt lat="37.6747867" lon="15.1712617"><ele>157.0</ele><time>2026-04-24T23:01:48.559Z</time></trkpt><trkpt lat="37.6746383" lon="15.171205"><ele>157.0</ele><time>2026-04-24T23:01:49.558Z</time></trkpt><trkpt lat="37.6744933" lon="15.1711517"><ele>157.0</ele><time>2026-04-24T23:01:50.558Z</time></trkpt><trkpt lat="37.6743417" lon="15.1710867"><ele>157.33333333333334</ele><time>2026-04-24T23:01:51.559Z</time></trkpt><trkpt lat="37.6741817" lon="15.17101"><ele>157.66666666666666</ele><time>2026-04-24T23:01:52.558Z</time></trkpt><trkpt lat="37.6740133" lon="15.1709367"><ele>158.0</ele><time>2026-04-24T23:01:53.558Z</time></trkpt><trkpt lat="37.67384" lon="15.1708467"><ele>158.0</ele><time>2026-04-24T23:01:54.559Z</time></trkpt><trkpt lat="37.67366" lon="15.1707667"><ele>158.0</ele><time>2026-04-24T23:01:55.559Z</time></trkpt><trkpt lat="37.6734783" lon="15.1706817"><ele>158.0</ele><time>2026-04-24T23:01:56.559Z</time></trkpt><trkpt lat="37.673295" lon="15.1706017"><ele>157.33333333333331</ele><time>2026-04-24T23:01:57.558Z</time></trkpt><trkpt lat="37.6731067" lon="15.1705333"><ele>156.66666666666666</ele><time>2026-04-24T23:01:58.558Z</time></trkpt><trkpt lat="37.67292" lon="15.170455"><ele>156.0</ele><time>2026-04-24T23:01:59.559Z</time></trkpt><trkpt lat="37.672765" lon="15.1703767"><ele>155.66666666666666</ele><time>2026-04-24T23:02:00.558Z</time></trkpt><trkpt lat="37.6725933" lon="15.1703083"><ele>155.33333333333331</ele><time>2026-04-24T23:02:01.559Z</time></trkpt><trkpt lat="37.6724317" lon="15.1702467"><ele>155.0</ele><time>2026-04-24T23:02:02.559Z</time></trkpt><trkpt lat="37.6722817" lon="15.1701833"><ele>155.0</ele><time>2026-04-24T23:02:03.559Z</time></trkpt><trkpt lat="37.6721133" lon="15.1701233"><ele>155.0</ele><time>2026-04-24T23:02:04.559Z</time></trkpt><trkpt lat="37.6719517" lon="15.170055"><ele>155.0</ele><time>2026-04-24T23:02:05.559Z</time></trkpt><trkpt lat="37.6717767" lon="15.16997"><ele>152.33333333333331</ele><time>2026-04-24T23:02:06.558Z</time></trkpt><trkpt lat="37.6716083" lon="15.16988"><ele>149.66666666666666</ele><time>2026-04-24T23:02:07.559Z</time></trkpt><trkpt lat="37.6714383" lon="15.1697817"><ele>147.0</ele><time>2026-04-24T23:02:08.559Z</time></trkpt><trkpt lat="37.6712767" lon="15.169685"><ele>143.66666666666666</ele><time>2026-04-24T23:02:09.558Z</time></trkpt><trkpt lat="37.6711067" lon="15.16959"><ele>140.33333333333331</ele><time>2026-04-24T23:02:10.559Z</time></trkpt><trkpt lat="37.6709333" lon="15.1694933"><ele>137.0</ele><time>2026-04-24T23:02:11.559Z</time></trkpt><trkpt lat="37.6707533" lon="15.1694"><ele>137.0</ele><time>2026-04-24T23:02:12.559Z</time></trkpt><trkpt lat="37.6705767" lon="15.1693083"><ele>137.0</ele><time>2026-04-24T23:02:13.558Z</time></trkpt><trkpt lat="37.6704017" lon="15.1692083"><ele>137.0</ele><time>2026-04-24T23:02:14.559Z</time></trkpt><trkpt lat="37.67023" lon="15.169125"><ele>136.66666666666666</ele><time>2026-04-24T23:02:15.559Z</time></trkpt><trkpt lat="37.6700667" lon="15.169045"><ele>136.33333333333334</ele><time>2026-04-24T23:02:16.559Z</time></trkpt><trkpt lat="37.6699" lon="15.1689567"><ele>136.0</ele><time>2026-04-24T23:02:17.559Z</time></trkpt><trkpt lat="37.669735" lon="15.1688683"><ele>136.0</ele><time>2026-04-24T23:02:18.558Z</time></trkpt><trkpt lat="37.6695717" lon="15.1687783"><ele>136.0</ele><time>2026-04-24T23:02:19.558Z</time></trkpt><trkpt lat="37.6694133" lon="15.1686867"><ele>136.0</ele><time>2026-04-24T23:02:20.559Z</time></trkpt><trkpt lat="37.6692583" lon="15.1686067"><ele>136.0</ele><time>2026-04-24T23:02:21.559Z</time></trkpt><trkpt lat="37.669095" lon="15.1685133"><ele>136.0</ele><time>2026-04-24T23:02:22.559Z</time></trkpt><trkpt lat="37.6689267" lon="15.1684267"><ele>136.0</ele><time>2026-04-24T23:02:23.558Z</time></trkpt><trkpt lat="37.6687533" lon="15.16833"><ele>135.66666666666669</ele><time>2026-04-24T23:02:24.559Z</time></trkpt><trkpt lat="37.6685833" lon="15.168245"><ele>135.33333333333334</ele><time>2026-04-24T23:02:25.559Z</time></trkpt><trkpt lat="37.6684167" lon="15.1681517"><ele>135.0</ele><time>2026-04-24T23:02:26.558Z</time></trkpt><trkpt lat="37.6682517" lon="15.1680633"><ele>136.66666666666666</ele><time>2026-04-24T23:02:27.558Z</time></trkpt><trkpt lat="37.66809" lon="15.16797"><ele>138.33333333333331</ele><time>2026-04-24T23:02:28.558Z</time></trkpt><trkpt lat="37.667935" lon="15.1678967"><ele>140.0</ele><time>2026-04-24T23:02:29.559Z</time></trkpt><trkpt lat="37.6677933" lon="15.1678167"><ele>140.25</ele><time>2026-04-24T23:02:30.559Z</time></trkpt><trkpt lat="37.667645" lon="15.1677517"><ele>140.5</ele><time>2026-04-24T23:02:31.558Z</time></trkpt><trkpt lat="37.6675183" lon="15.1676733"><ele>140.75</ele><time>2026-04-24T23:02:32.559Z</time></trkpt><trkpt lat="37.6673917" lon="15.167605"><ele>141.0</ele><time>2026-04-24T23:02:33.558Z</time></trkpt><trkpt lat="37.667265" lon="15.1675467"><ele>141.0</ele><time>2026-04-24T23:02:34.558Z</time></trkpt><trkpt lat="37.6671517" lon="15.1674917"><ele>141.0</ele><time>2026-04-24T23:02:35.558Z</time></trkpt><trkpt lat="37.6670417" lon="15.1674383"><ele>141.0</ele><time>2026-04-24T23:02:36.559Z</time></trkpt><trkpt lat="37.66694" lon="15.167375"><ele>141.0</ele><time>2026-04-24T23:02:37.558Z</time></trkpt><trkpt lat="37.666835" lon="15.16732"><ele>141.4</ele><time>2026-04-24T23:02:38.558Z</time></trkpt><trkpt lat="37.66673" lon="15.167265"><ele>141.8</ele><time>2026-04-24T23:02:39.559Z</time></trkpt><trkpt lat="37.6666317" lon="15.1672067"><ele>142.20000000000002</ele><time>2026-04-24T23:02:40.559Z</time></trkpt><trkpt lat="37.66653" lon="15.1671567"><ele>142.6</ele><time>2026-04-24T23:02:41.559Z</time></trkpt><trkpt lat="37.6664267" lon="15.1670983"><ele>143.0</ele><time>2026-04-24T23:02:42.559Z</time></trkpt><trkpt lat="37.6663317" lon="15.16705"><ele>143.0</ele><time>2026-04-24T23:02:43.558Z</time></trkpt><trkpt lat="37.6662433" lon="15.1670067"><ele>143.0</ele><time>2026-04-24T23:02:44.559Z</time></trkpt><trkpt lat="37.666155" lon="15.1669617"><ele>143.0</ele><time>2026-04-24T23:02:45.558Z</time></trkpt><trkpt lat="37.6660667" lon="15.166915"><ele>143.0</ele><time>2026-04-24T23:02:46.559Z</time></trkpt><trkpt lat="37.66598" lon="15.1668733"><ele>143.0</ele><time>2026-04-24T23:02:47.559Z</time></trkpt><trkpt lat="37.6658917" lon="15.1668233"><ele>141.6</ele><time>2026-04-24T23:02:48.559Z</time></trkpt><trkpt lat="37.6658" lon="15.1667733"><ele>140.20000000000002</ele><time>2026-04-24T23:02:49.559Z</time></trkpt><trkpt lat="37.6657067" lon="15.166725"><ele>138.8</ele><time>2026-04-24T23:02:50.559Z</time></trkpt><trkpt lat="37.665625" lon="15.1666833"><ele>137.4</ele><time>2026-04-24T23:02:51.558Z</time></trkpt><trkpt lat="37.6655433" lon="15.1666333"><ele>136.0</ele><time>2026-04-24T23:02:52.558Z</time></trkpt><trkpt lat="37.665475" lon="15.16659"><ele>136.0</ele><time>2026-04-24T23:02:53.558Z</time></trkpt><trkpt lat="37.6654" lon="15.166545"><ele>136.0</ele><time>2026-04-24T23:02:54.559Z</time></trkpt><trkpt lat="37.665315" lon="15.1664833"><ele>136.0</ele><time>2026-04-24T23:02:55.559Z</time></trkpt><trkpt lat="37.66523" lon="15.16644"><ele>136.0</ele><time>2026-04-24T23:02:56.558Z</time></trkpt><trkpt lat="37.665135" lon="15.16639"><ele>136.0</ele><time>2026-04-24T23:02:57.559Z</time></trkpt><trkpt lat="37.665035" lon="15.1663283"><ele>136.6</ele><time>2026-04-24T23:02:58.558Z</time></trkpt><trkpt lat="37.664935" lon="15.1662733"><ele>137.2</ele><time>2026-04-24T23:02:59.559Z</time></trkpt><trkpt lat="37.66483" lon="15.1662167"><ele>137.8</ele><time>2026-04-24T23:03:00.558Z</time></trkpt><trkpt lat="37.6647317" lon="15.16616"><ele>138.4</ele><time>2026-04-24T23:03:01.559Z</time></trkpt><trkpt lat="37.6646317" lon="15.1660983"><ele>139.0</ele><time>2026-04-24T23:03:02.558Z</time></trkpt><trkpt lat="37.6645383" lon="15.16604"><ele>138.8</ele><time>2026-04-24T23:03:03.559Z</time></trkpt><trkpt lat="37.6644433" lon="15.1659883"><ele>138.60000000000002</ele><time>2026-04-24T23:03:04.559Z</time></trkpt><trkpt lat="37.6643633" lon="15.165925"><ele>138.4</ele><time>2026-04-24T23:03:05.558Z</time></trkpt><trkpt lat="37.6642667" lon="15.1658767"><ele>138.20000000000002</ele><time>2026-04-24T23:03:06.559Z</time></trkpt><trkpt lat="37.6641783" lon="15.16583"><ele>138.0</ele><time>2026-04-24T23:03:07.558Z</time></trkpt><trkpt lat="37.6640883" lon="15.16578"><ele>138.0</ele><time>2026-04-24T23:03:08.558Z</time></trkpt><trkpt lat="37.6639983" lon="15.1657433"><ele>138.0</ele><time>2026-04-24T23:03:09.559Z</time></trkpt><trkpt lat="37.6639167" lon="15.1657"><ele>138.0</ele><time>2026-04-24T23:03:10.559Z</time></trkpt><trkpt lat="37.6638433" lon="15.1656567"><ele>138.0</ele><time>2026-04-24T23:03:11.558Z</time></trkpt><trkpt lat="37.663765" lon="15.1656167"><ele>138.0</ele><time>2026-04-24T23:03:12.559Z</time></trkpt><trkpt lat="37.663685" lon="15.1655767"><ele>138.0</ele><time>2026-04-24T23:03:13.558Z</time></trkpt><trkpt lat="37.6636067" lon="15.1655417"><ele>139.0</ele><time>2026-04-24T23:03:14.558Z</time></trkpt><trkpt lat="37.663525" lon="15.165495"><ele>140.0</ele><time>2026-04-24T23:03:15.558Z</time></trkpt><trkpt lat="37.6634467" lon="15.1654633"><ele>141.0</ele><time>2026-04-24T23:03:16.558Z</time></trkpt><trkpt lat="37.66337" lon="15.1654217"><ele>142.0</ele><time>2026-04-24T23:03:17.558Z</time></trkpt><trkpt lat="37.66329" lon="15.16538"><ele>143.0</ele><time>2026-04-24T23:03:18.558Z</time></trkpt><trkpt lat="37.6632067" lon="15.1653383"><ele>144.0</ele><time>2026-04-24T23:03:19.559Z</time></trkpt><trkpt lat="37.6631217" lon="15.1652933"><ele>144.0</ele><time>2026-04-24T23:03:20.559Z</time></trkpt><trkpt lat="37.6630383" lon="15.1652583"><ele>144.0</ele><time>2026-04-24T23:03:21.558Z</time></trkpt><trkpt lat="37.6629533" lon="15.165215"><ele>144.0</ele><time>2026-04-24T23:03:22.559Z</time></trkpt><trkpt lat="37.662865" lon="15.1651633"><ele>144.0</ele><time>2026-04-24T23:03:23.559Z</time></trkpt><trkpt lat="37.66278" lon="15.1651167"><ele>144.0</ele><time>2026-04-24T23:03:24.559Z</time></trkpt><trkpt lat="37.6626933" lon="15.1650667"><ele>144.6</ele><time>2026-04-24T23:03:25.559Z</time></trkpt><trkpt lat="37.6626083" lon="15.1650083"><ele>145.2</ele><time>2026-04-24T23:03:26.559Z</time></trkpt><trkpt lat="37.6625183" lon="15.1649617"><ele>145.79999999999998</ele><time>2026-04-24T23:03:27.559Z</time></trkpt><trkpt lat="37.6624217" lon="15.1649067"><ele>146.4</ele><time>2026-04-24T23:03:28.558Z</time></trkpt><trkpt lat="37.6623133" lon="15.16485"><ele>147.0</ele><time>2026-04-24T23:03:29.559Z</time></trkpt><trkpt lat="37.6622067" lon="15.1647917"><ele>147.5</ele><time>2026-04-24T23:03:30.558Z</time></trkpt><trkpt lat="37.6620983" lon="15.1647333"><ele>148.0</ele><time>2026-04-24T23:03:31.558Z</time></trkpt><trkpt lat="37.661995" lon="15.16467"><ele>148.5</ele><time>2026-04-24T23:03:32.559Z</time></trkpt><trkpt lat="37.6618917" lon="15.1646067"><ele>149.0</ele><time>2026-04-24T23:03:33.558Z</time></trkpt><trkpt lat="37.6617883" lon="15.1645417"><ele>149.0</ele><time>2026-04-24T23:03:34.558Z</time></trkpt><trkpt lat="37.66168" lon="15.1644767"><ele>149.0</ele><time>2026-04-24T23:03:35.559Z</time></trkpt><trkpt lat="37.661565" lon="15.16441"><ele>149.0</ele><time>2026-04-24T23:03:36.558Z</time></trkpt><trkpt lat="37.661445" lon="15.164345"><ele>149.0</ele><time>2026-04-24T23:03:37.559Z</time></trkpt><trkpt lat="37.661315" lon="15.1642733"><ele>149.0</ele><time>2026-04-24T23:03:38.558Z</time></trkpt><trkpt lat="37.6611783" lon="15.1642"><ele>149.0</ele><time>2026-04-24T23:03:39.558Z</time></trkpt><trkpt lat="37.6610317" lon="15.1641167"><ele>149.0</ele><time>2026-04-24T23:03:40.559Z</time></trkpt><trkpt lat="37.66088" lon="15.1640333"><ele>149.66666666666666</ele><time>2026-04-24T23:03:41.558Z</time></trkpt><trkpt lat="37.6607283" lon="15.16395"><ele>150.33333333333334</ele><time>2026-04-24T23:03:42.559Z</time></trkpt><trkpt lat="37.6605733" lon="15.163865"><ele>151.0</ele><time>2026-04-24T23:03:43.559Z</time></trkpt><trkpt lat="37.6604167" lon="15.1637767"><ele>150.0</ele><time>2026-04-24T23:03:44.558Z</time></trkpt><trkpt lat="37.6602767" lon="15.1636967"><ele>149.0</ele><time>2026-04-24T23:03:45.559Z</time></trkpt><trkpt lat="37.6601517" lon="15.1636367"><ele>148.0</ele><time>2026-04-24T23:03:46.558Z</time></trkpt><trkpt lat="37.6600317" lon="15.1635833"><ele>147.0</ele><time>2026-04-24T23:03:47.558Z</time></trkpt><trkpt lat="37.65992" lon="15.163545"><ele>147.0</ele><time>2026-04-24T23:03:48.559Z</time></trkpt><trkpt lat="37.6598033" lon="15.1635333"><ele>147.0</ele><time>2026-04-24T23:03:49.559Z</time></trkpt><trkpt lat="37.6596833" lon="15.16354"><ele>147.0</ele><time>2026-04-24T23:03:50.558Z</time></trkpt><trkpt lat="37.6595567" lon="15.163565"><ele>147.0</ele><time>2026-04-24T23:03:51.559Z</time></trkpt><trkpt lat="37.6594267" lon="15.1635967"><ele>148.5</ele><time>2026-04-24T23:03:52.558Z</time></trkpt><trkpt lat="37.6592933" lon="15.1636417"><ele>150.0</ele><time>2026-04-24T23:03:53.559Z</time></trkpt><trkpt lat="37.659155" lon="15.1636917"><ele>151.5</ele><time>2026-04-24T23:03:54.558Z</time></trkpt><trkpt lat="37.6590167" lon="15.163745"><ele>153.0</ele><time>2026-04-24T23:03:55.558Z</time></trkpt><trkpt lat="37.6588883" lon="15.1637933"><ele>153.0</ele><time>2026-04-24T23:03:56.558Z</time></trkpt><trkpt lat="37.6587683" lon="15.1638433"><ele>153.0</ele><time>2026-04-24T23:03:57.558Z</time></trkpt><trkpt lat="37.658655" lon="15.1638867"><ele>153.0</ele><time>2026-04-24T23:03:58.558Z</time></trkpt><trkpt lat="37.65855" lon="15.1639217"><ele>153.0</ele><time>2026-04-24T23:03:59.559Z</time></trkpt><trkpt lat="37.6584383" lon="15.1639517"><ele>154.5</ele><time>2026-04-24T23:04:00.559Z</time></trkpt><trkpt lat="37.658325" lon="15.1639583"><ele>156.0</ele><time>2026-04-24T23:04:01.558Z</time></trkpt><trkpt lat="37.658215" lon="15.1639417"><ele>157.5</ele><time>2026-04-24T23:04:02.558Z</time></trkpt><trkpt lat="37.658105" lon="15.1638883"><ele>159.0</ele><time>2026-04-24T23:04:03.559Z</time></trkpt><trkpt lat="37.6580067" lon="15.1637967"><ele>159.0</ele><time>2026-04-24T23:04:04.559Z</time></trkpt><trkpt lat="37.65791" lon="15.163695"><ele>159.0</ele><time>2026-04-24T23:04:05.559Z</time></trkpt><trkpt lat="37.6578" lon="15.1636167"><ele>159.0</ele><time>2026-04-24T23:04:06.558Z</time></trkpt><trkpt lat="37.6576833" lon="15.1635633"><ele>159.0</ele><time>2026-04-24T23:04:07.558Z</time></trkpt><trkpt lat="37.65756" lon="15.163535"><ele>159.4</ele><time>2026-04-24T23:04:08.559Z</time></trkpt><trkpt lat="37.6574367" lon="15.1635167"><ele>159.8</ele><time>2026-04-24T23:04:09.558Z</time></trkpt><trkpt lat="37.6573283" lon="15.163485"><ele>160.20000000000002</ele><time>2026-04-24T23:04:10.559Z</time></trkpt><trkpt lat="37.6572333" lon="15.1634283"><ele>160.60000000000002</ele><time>2026-04-24T23:04:11.559Z</time></trkpt><trkpt lat="37.6571533" lon="15.1633467"><ele>161.0</ele><time>2026-04-24T23:04:12.558Z</time></trkpt><trkpt lat="37.657095" lon="15.1632433"><ele>162.60000000000002</ele><time>2026-04-24T23:04:13.559Z</time></trkpt><trkpt lat="37.657065" lon="15.163115"><ele>164.2</ele><time>2026-04-24T23:04:14.558Z</time></trkpt><trkpt lat="37.657065" lon="15.1629767"><ele>165.8</ele><time>2026-04-24T23:04:15.558Z</time></trkpt><trkpt lat="37.6570767" lon="15.1628333"><ele>167.39999999999998</ele><time>2026-04-24T23:04:16.558Z</time></trkpt><trkpt lat="37.6570967" lon="15.1626883"><ele>169.0</ele><time>2026-04-24T23:04:17.559Z</time></trkpt><trkpt lat="37.657115" lon="15.1625433"><ele>169.0</ele><time>2026-04-24T23:04:18.558Z</time></trkpt><trkpt lat="37.65714" lon="15.1623867"><ele>169.0</ele><time>2026-04-24T23:04:19.559Z</time></trkpt><trkpt lat="37.657155" lon="15.162225"><ele>169.0</ele><time>2026-04-24T23:04:20.558Z</time></trkpt><trkpt lat="37.657165" lon="15.1620633"><ele>169.0</ele><time>2026-04-24T23:04:21.559Z</time></trkpt><trkpt lat="37.6571683" lon="15.1619017"><ele>171.0</ele><time>2026-04-24T23:04:22.558Z</time></trkpt><trkpt lat="37.6571633" lon="15.1617333"><ele>173.0</ele><time>2026-04-24T23:04:23.559Z</time></trkpt><trkpt lat="37.6571583" lon="15.16158"><ele>175.0</ele><time>2026-04-24T23:04:24.559Z</time></trkpt><trkpt lat="37.6571417" lon="15.1614333"><ele>177.0</ele><time>2026-04-24T23:04:25.558Z</time></trkpt><trkpt lat="37.6570983" lon="15.1613"><ele>177.5</ele><time>2026-04-24T23:04:26.559Z</time></trkpt><trkpt lat="37.6570417" lon="15.1611717"><ele>178.0</ele><time>2026-04-24T23:04:27.558Z</time></trkpt><trkpt lat="37.656955" lon="15.1610583"><ele>178.5</ele><time>2026-04-24T23:04:28.558Z</time></trkpt><trkpt lat="37.65685" lon="15.1609633"><ele>179.0</ele><time>2026-04-24T23:04:29.559Z</time></trkpt><trkpt lat="37.65674" lon="15.1608617"><ele>179.0</ele><time>2026-04-24T23:04:30.559Z</time></trkpt><trkpt lat="37.6566217" lon="15.1607917"><ele>179.0</ele><time>2026-04-24T23:04:31.559Z</time></trkpt><trkpt lat="37.6564917" lon="15.16073"><ele>179.0</ele><time>2026-04-24T23:04:32.559Z</time></trkpt><trkpt lat="37.6563567" lon="15.1606883"><ele>179.0</ele><time>2026-04-24T23:04:33.558Z</time></trkpt><trkpt lat="37.6562133" lon="15.1606517"><ele>182.5</ele><time>2026-04-24T23:04:34.558Z</time></trkpt><trkpt lat="37.6560683" lon="15.160625"><ele>186.0</ele><time>2026-04-24T23:04:35.559Z</time></trkpt><trkpt lat="37.6559283" lon="15.1606117"><ele>189.5</ele><time>2026-04-24T23:04:36.558Z</time></trkpt><trkpt lat="37.6557883" lon="15.1606017"><ele>193.0</ele><time>2026-04-24T23:04:37.558Z</time></trkpt><trkpt lat="37.655655" lon="15.1605917"><ele>193.0</ele><time>2026-04-24T23:04:38.559Z</time></trkpt><trkpt lat="37.6555233" lon="15.1605733"><ele>193.0</ele><time>2026-04-24T23:04:39.559Z</time></trkpt><trkpt lat="37.6553867" lon="15.16053"><ele>193.0</ele><time>2026-04-24T23:04:40.559Z</time></trkpt><trkpt lat="37.65526" lon="15.1604633"><ele>193.0</ele><time>2026-04-24T23:04:41.559Z</time></trkpt><trkpt lat="37.655135" lon="15.1604033"><ele>193.75</ele><time>2026-04-24T23:04:42.558Z</time></trkpt><trkpt lat="37.6550133" lon="15.1603633"><ele>194.5</ele><time>2026-04-24T23:04:43.559Z</time></trkpt><trkpt lat="37.6548783" lon="15.160355"><ele>195.25</ele><time>2026-04-24T23:04:44.559Z</time></trkpt><trkpt lat="37.6547583" lon="15.1603883"><ele>196.0</ele><time>2026-04-24T23:04:45.558Z</time></trkpt><trkpt lat="37.6546533" lon="15.1604367"><ele>196.0</ele><time>2026-04-24T23:04:46.559Z</time></trkpt><trkpt lat="37.6545467" lon="15.1604617"><ele>196.0</ele><time>2026-04-24T23:04:47.558Z</time></trkpt><trkpt lat="37.6544267" lon="15.160445"><ele>196.0</ele><time>2026-04-24T23:04:48.559Z</time></trkpt><trkpt lat="37.6543117" lon="15.1603933"><ele>196.0</ele><time>2026-04-24T23:04:49.559Z</time></trkpt><trkpt lat="37.6541933" lon="15.1603283"><ele>195.75</ele><time>2026-04-24T23:04:50.558Z</time></trkpt><trkpt lat="37.65407" lon="15.1602583"><ele>195.5</ele><time>2026-04-24T23:04:51.559Z</time></trkpt><trkpt lat="37.653935" lon="15.16019"><ele>195.25</ele><time>2026-04-24T23:04:52.559Z</time></trkpt><trkpt lat="37.6538017" lon="15.16011"><ele>195.0</ele><time>2026-04-24T23:04:53.559Z</time></trkpt><trkpt lat="37.6536617" lon="15.1600233"><ele>194.66666666666669</ele><time>2026-04-24T23:04:54.559Z</time></trkpt><trkpt lat="37.65352" lon="15.159945"><ele>194.33333333333334</ele><time>2026-04-24T23:04:55.558Z</time></trkpt><trkpt lat="37.6533717" lon="15.1598617"><ele>194.0</ele><time>2026-04-24T23:04:56.558Z</time></trkpt><trkpt lat="37.6532217" lon="15.159775"><ele>195.33333333333334</ele><time>2026-04-24T23:04:57.558Z</time></trkpt><trkpt lat="37.6530667" lon="15.1596867"><ele>196.66666666666669</ele><time>2026-04-24T23:04:58.558Z</time></trkpt><trkpt lat="37.6529083" lon="15.1596"><ele>198.0</ele><time>2026-04-24T23:04:59.558Z</time></trkpt><trkpt lat="37.65274" lon="15.1595133"><ele>198.0</ele><time>2026-04-24T23:05:00.559Z</time></trkpt><trkpt lat="37.65257" lon="15.1594167"><ele>198.0</ele><time>2026-04-24T23:05:01.559Z</time></trkpt><trkpt lat="37.6523983" lon="15.1593233"><ele>198.0</ele><time>2026-04-24T23:05:02.558Z</time></trkpt><trkpt lat="37.6522283" lon="15.159225"><ele>198.0</ele><time>2026-04-24T23:05:03.559Z</time></trkpt><trkpt lat="37.6520617" lon="15.15913"><ele>198.0</ele><time>2026-04-24T23:05:04.558Z</time></trkpt><trkpt lat="37.651895" lon="15.159035"><ele>198.0</ele><time>2026-04-24T23:05:05.559Z</time></trkpt><trkpt lat="37.6517317" lon="15.158945"><ele>198.66666666666669</ele><time>2026-04-24T23:05:06.558Z</time></trkpt><trkpt lat="37.6515733" lon="15.1588517"><ele>199.33333333333334</ele><time>2026-04-24T23:05:07.559Z</time></trkpt><trkpt lat="37.6514" lon="15.1587533"><ele>200.0</ele><time>2026-04-24T23:05:08.559Z</time></trkpt><trkpt lat="37.6512233" lon="15.158655"><ele>199.66666666666669</ele><time>2026-04-24T23:05:09.559Z</time></trkpt><trkpt lat="37.65105" lon="15.1585567"><ele>199.33333333333331</ele><time>2026-04-24T23:05:10.559Z</time></trkpt><trkpt lat="37.6508783" lon="15.158465"><ele>199.0</ele><time>2026-04-24T23:05:11.559Z</time></trkpt><trkpt lat="37.65071" lon="15.1583667"><ele>199.0</ele><time>2026-04-24T23:05:12.559Z</time></trkpt><trkpt lat="37.6505483" lon="15.1582567"><ele>199.0</ele><time>2026-04-24T23:05:13.558Z</time></trkpt><trkpt lat="37.6503867" lon="15.1581683"><ele>199.0</ele><time>2026-04-24T23:05:14.558Z</time></trkpt><trkpt lat="37.6502367" lon="15.1580817"><ele>199.0</ele><time>2026-04-24T23:05:15.559Z</time></trkpt><trkpt lat="37.6500767" lon="15.158"><ele>199.0</ele><time>2026-04-24T23:05:16.559Z</time></trkpt><trkpt lat="37.6499267" lon="15.1579167"><ele>199.0</ele><time>2026-04-24T23:05:17.558Z</time></trkpt><trkpt lat="37.6497783" lon="15.1578317"><ele>199.0</ele><time>2026-04-24T23:05:18.559Z</time></trkpt><trkpt lat="37.64963" lon="15.157745"><ele>199.0</ele><time>2026-04-24T23:05:19.559Z</time></trkpt><trkpt lat="37.6494783" lon="15.1576617"><ele>199.0</ele><time>2026-04-24T23:05:20.559Z</time></trkpt><trkpt lat="37.6493217" lon="15.1575717"><ele>199.0</ele><time>2026-04-24T23:05:21.559Z</time></trkpt><trkpt lat="37.6491617" lon="15.15748"><ele>199.0</ele><time>2026-04-24T23:05:22.559Z</time></trkpt><trkpt lat="37.649" lon="15.1573867"><ele>199.0</ele><time>2026-04-24T23:05:23.56Z</time></trkpt><trkpt lat="37.648835" lon="15.1572883"><ele>200.66666666666666</ele><time>2026-04-24T23:05:24.56Z</time></trkpt><trkpt lat="37.6486717" lon="15.1571933"><ele>202.33333333333331</ele><time>2026-04-24T23:05:25.56Z</time></trkpt><trkpt lat="37.6485083" lon="15.1571"><ele>204.0</ele><time>2026-04-24T23:05:26.559Z</time></trkpt><trkpt lat="37.6483517" lon="15.1570033"><ele>204.0</ele><time>2026-04-24T23:05:27.56Z</time></trkpt><trkpt lat="37.6482017" lon="15.15692"><ele>204.0</ele><time>2026-04-24T23:05:28.56Z</time></trkpt><trkpt lat="37.6480583" lon="15.1568383"><ele>204.0</ele><time>2026-04-24T23:05:29.56Z</time></trkpt><trkpt lat="37.6479217" lon="15.1567667"><ele>204.0</ele><time>2026-04-24T23:05:30.56Z</time></trkpt><trkpt lat="37.6477967" lon="15.156715"><ele>204.0</ele><time>2026-04-24T23:05:31.56Z</time></trkpt><trkpt lat="37.6476833" lon="15.1566767"><ele>204.0</ele><time>2026-04-24T23:05:32.56Z</time></trkpt><trkpt lat="37.6475917" lon="15.156645"><ele>204.0</ele><time>2026-04-24T23:05:33.56Z</time></trkpt><trkpt lat="37.6474833" lon="15.1565717"><ele>205.0</ele><time>2026-04-24T23:05:35.559Z</time></trkpt><trkpt lat="37.64741" lon="15.1564433"><ele>206.0</ele><time>2026-04-24T23:05:37.559Z</time></trkpt><trkpt lat="37.647405" lon="15.1563617"><ele>207.0</ele><time>2026-04-24T23:05:38.56Z</time></trkpt><trkpt lat="37.6474083" lon="15.156235"><ele>208.0</ele><time>2026-04-24T23:05:40.559Z</time></trkpt><trkpt lat="37.6473167" lon="15.1561867"><ele>209.0</ele><time>2026-04-24T23:05:43.56Z</time></trkpt><trkpt lat="37.6471933" lon="15.1562183"><ele>209.0</ele><time>2026-04-24T23:05:45.56Z</time></trkpt><trkpt lat="37.64713" lon="15.1562333"><ele>209.0</ele><time>2026-04-24T23:05:46.559Z</time></trkpt><trkpt lat="37.6470433" lon="15.1562817"><ele>209.0</ele><time>2026-04-24T23:05:48.56Z</time></trkpt><trkpt lat="37.6470517" lon="15.1564217"><ele>209.0</ele><time>2026-04-24T23:05:51.559Z</time></trkpt><trkpt lat="37.6470717" lon="15.1565283"><ele>209.0</ele><time>2026-04-24T23:05:52.56Z</time></trkpt><trkpt lat="37.647075" lon="15.1566483"><ele>209.0</ele><time>2026-04-24T23:05:53.56Z</time></trkpt><trkpt lat="37.64705" lon="15.156765"><ele>209.0</ele><time>2026-04-24T23:05:54.56Z</time></trkpt><trkpt lat="37.6469933" lon="15.1568667"><ele>209.0</ele><time>2026-04-24T23:05:55.56Z</time></trkpt><trkpt lat="37.6469067" lon="15.1569683"><ele>209.0</ele><time>2026-04-24T23:05:56.56Z</time></trkpt><trkpt lat="37.646805" lon="15.1570633"><ele>209.0</ele><time>2026-04-24T23:05:57.56Z</time></trkpt><trkpt lat="37.6466933" lon="15.1571483"><ele>209.0</ele><time>2026-04-24T23:05:58.559Z</time></trkpt><trkpt lat="37.64658" lon="15.1572433"><ele>209.0</ele><time>2026-04-24T23:05:59.559Z</time></trkpt><trkpt lat="37.646465" lon="15.1573417"><ele>209.0</ele><time>2026-04-24T23:06:00.559Z</time></trkpt><trkpt lat="37.64635" lon="15.1574433"><ele>209.0</ele><time>2026-04-24T23:06:01.56Z</time></trkpt><trkpt lat="37.6462317" lon="15.1575517"><ele>208.33333333333334</ele><time>2026-04-24T23:06:02.56Z</time></trkpt><trkpt lat="37.6460983" lon="15.15766"><ele>207.66666666666669</ele><time>2026-04-24T23:06:03.559Z</time></trkpt><trkpt lat="37.6459717" lon="15.1577733"><ele>207.0</ele><time>2026-04-24T23:06:04.559Z</time></trkpt><trkpt lat="37.6458417" lon="15.1578883"><ele>207.0</ele><time>2026-04-24T23:06:05.56Z</time></trkpt><trkpt lat="37.6457033" lon="15.1580133"><ele>207.0</ele><time>2026-04-24T23:06:06.559Z</time></trkpt><trkpt lat="37.64556" lon="15.1581367"><ele>207.0</ele><time>2026-04-24T23:06:07.559Z</time></trkpt><trkpt lat="37.6454217" lon="15.1582683"><ele>207.66666666666669</ele><time>2026-04-24T23:06:08.559Z</time></trkpt><trkpt lat="37.6452683" lon="15.1583867"><ele>208.33333333333334</ele><time>2026-04-24T23:06:09.56Z</time></trkpt><trkpt lat="37.64511" lon="15.1585183"><ele>209.0</ele><time>2026-04-24T23:06:10.56Z</time></trkpt><trkpt lat="37.644955" lon="15.15865"><ele>209.0</ele><time>2026-04-24T23:06:11.56Z</time></trkpt><trkpt lat="37.6448" lon="15.158785"><ele>209.0</ele><time>2026-04-24T23:06:12.56Z</time></trkpt><trkpt lat="37.6446433" lon="15.158925"><ele>209.0</ele><time>2026-04-24T23:06:13.559Z</time></trkpt><trkpt lat="37.6444867" lon="15.1590667"><ele>207.66666666666669</ele><time>2026-04-24T23:06:14.56Z</time></trkpt><trkpt lat="37.6443267" lon="15.1592083"><ele>206.33333333333331</ele><time>2026-04-24T23:06:15.559Z</time></trkpt><trkpt lat="37.64416" lon="15.1593567"><ele>205.0</ele><time>2026-04-24T23:06:16.56Z</time></trkpt><trkpt lat="37.643995" lon="15.1595"><ele>205.0</ele><time>2026-04-24T23:06:17.56Z</time></trkpt><trkpt lat="37.6438283" lon="15.15964"><ele>205.0</ele><time>2026-04-24T23:06:18.559Z</time></trkpt><trkpt lat="37.643665" lon="15.1597817"><ele>205.0</ele><time>2026-04-24T23:06:19.559Z</time></trkpt><trkpt lat="37.6435017" lon="15.15993"><ele>207.33333333333331</ele><time>2026-04-24T23:06:20.56Z</time></trkpt><trkpt lat="37.64334" lon="15.1600767"><ele>209.66666666666669</ele><time>2026-04-24T23:06:21.56Z</time></trkpt><trkpt lat="37.64318" lon="15.1602167"><ele>212.0</ele><time>2026-04-24T23:06:22.559Z</time></trkpt><trkpt lat="37.643015" lon="15.160365"><ele>212.0</ele><time>2026-04-24T23:06:23.559Z</time></trkpt><trkpt lat="37.6428533" lon="15.1605117"><ele>212.0</ele><time>2026-04-24T23:06:24.559Z</time></trkpt><trkpt lat="37.642695" lon="15.160655"><ele>212.0</ele><time>2026-04-24T23:06:25.56Z</time></trkpt><trkpt lat="37.6425367" lon="15.160795"><ele>209.66666666666669</ele><time>2026-04-24T23:06:26.56Z</time></trkpt><trkpt lat="37.64238" lon="15.1609283"><ele>207.33333333333331</ele><time>2026-04-24T23:06:27.559Z</time></trkpt><trkpt lat="37.6422283" lon="15.1610583"><ele>205.0</ele><time>2026-04-24T23:06:28.56Z</time></trkpt><trkpt lat="37.6420683" lon="15.1611783"><ele>206.66666666666666</ele><time>2026-04-24T23:06:29.56Z</time></trkpt><trkpt lat="37.6419" lon="15.1612817"><ele>208.33333333333331</ele><time>2026-04-24T23:06:30.559Z</time></trkpt><trkpt lat="37.6417267" lon="15.1613783"><ele>210.0</ele><time>2026-04-24T23:06:31.559Z</time></trkpt><trkpt lat="37.6415467" lon="15.1614667"><ele>208.0</ele><time>2026-04-24T23:06:32.56Z</time></trkpt><trkpt lat="37.6413633" lon="15.1615367"><ele>206.0</ele><time>2026-04-24T23:06:33.56Z</time></trkpt><trkpt lat="37.64117" lon="15.161595"><ele>204.0</ele><time>2026-04-24T23:06:34.559Z</time></trkpt><trkpt lat="37.640975" lon="15.161645"><ele>204.0</ele><time>2026-04-24T23:06:35.56Z</time></trkpt><trkpt lat="37.6407817" lon="15.1616883"><ele>204.0</ele><time>2026-04-24T23:06:36.559Z</time></trkpt><trkpt lat="37.64059" lon="15.16173"><ele>204.0</ele><time>2026-04-24T23:06:37.56Z</time></trkpt><trkpt lat="37.6404017" lon="15.161765"><ele>205.33333333333331</ele><time>2026-04-24T23:06:38.56Z</time></trkpt><trkpt lat="37.6402233" lon="15.161805"><ele>206.66666666666666</ele><time>2026-04-24T23:06:39.559Z</time></trkpt><trkpt lat="37.640045" lon="15.1618583"><ele>208.0</ele><time>2026-04-24T23:06:40.56Z</time></trkpt><trkpt lat="37.639865" lon="15.161925"><ele>208.0</ele><time>2026-04-24T23:06:41.56Z</time></trkpt><trkpt lat="37.6396933" lon="15.162015"><ele>208.0</ele><time>2026-04-24T23:06:42.56Z</time></trkpt><trkpt lat="37.6395167" lon="15.1621133"><ele>208.0</ele><time>2026-04-24T23:06:43.56Z</time></trkpt><trkpt lat="37.639345" lon="15.1622233"><ele>206.33333333333331</ele><time>2026-04-24T23:06:44.56Z</time></trkpt><trkpt lat="37.639185" lon="15.162355"><ele>204.66666666666669</ele><time>2026-04-24T23:06:45.559Z</time></trkpt><trkpt lat="37.6390283" lon="15.162505"><ele>203.0</ele><time>2026-04-24T23:06:46.56Z</time></trkpt><trkpt lat="37.6388817" lon="15.162675"><ele>203.0</ele><time>2026-04-24T23:06:47.559Z</time></trkpt><trkpt lat="37.638735" lon="15.1628567"><ele>203.0</ele><time>2026-04-24T23:06:48.56Z</time></trkpt><trkpt lat="37.6385883" lon="15.1630467"><ele>203.0</ele><time>2026-04-24T23:06:49.559Z</time></trkpt><trkpt lat="37.6384317" lon="15.1632233"><ele>203.33333333333334</ele><time>2026-04-24T23:06:50.56Z</time></trkpt><trkpt lat="37.6382767" lon="15.1634117"><ele>203.66666666666669</ele><time>2026-04-24T23:06:51.559Z</time></trkpt><trkpt lat="37.6381217" lon="15.1636033"><ele>204.0</ele><time>2026-04-24T23:06:52.56Z</time></trkpt><trkpt lat="37.6379733" lon="15.1637917"><ele>204.0</ele><time>2026-04-24T23:06:53.559Z</time></trkpt><trkpt lat="37.6378317" lon="15.1639717"><ele>204.0</ele><time>2026-04-24T23:06:54.559Z</time></trkpt><trkpt lat="37.6376933" lon="15.1641433"><ele>204.0</ele><time>2026-04-24T23:06:55.559Z</time></trkpt><trkpt lat="37.6375583" lon="15.1643083"><ele>205.0</ele><time>2026-04-24T23:06:56.56Z</time></trkpt><trkpt lat="37.63743" lon="15.1644633"><ele>206.0</ele><time>2026-04-24T23:06:57.559Z</time></trkpt><trkpt lat="37.6373183" lon="15.164605"><ele>207.0</ele><time>2026-04-24T23:06:58.56Z</time></trkpt><trkpt lat="37.63721" lon="15.164735"><ele>207.0</ele><time>2026-04-24T23:06:59.559Z</time></trkpt><trkpt lat="37.6370967" lon="15.1648583"><ele>207.0</ele><time>2026-04-24T23:07:00.56Z</time></trkpt><trkpt lat="37.6369733" lon="15.1649717"><ele>207.0</ele><time>2026-04-24T23:07:01.559Z</time></trkpt><trkpt lat="37.63684" lon="15.1650717"><ele>208.66666666666669</ele><time>2026-04-24T23:07:02.56Z</time></trkpt><trkpt lat="37.6367" lon="15.165175"><ele>210.33333333333334</ele><time>2026-04-24T23:07:03.56Z</time></trkpt><trkpt lat="37.6365567" lon="15.1652783"><ele>212.0</ele><time>2026-04-24T23:07:04.56Z</time></trkpt><trkpt lat="37.6364183" lon="15.165395"><ele>212.0</ele><time>2026-04-24T23:07:05.56Z</time></trkpt><trkpt lat="37.6362867" lon="15.16552"><ele>212.0</ele><time>2026-04-24T23:07:06.56Z</time></trkpt><trkpt lat="37.63616" lon="15.1656483"><ele>212.0</ele><time>2026-04-24T23:07:07.559Z</time></trkpt><trkpt lat="37.636055" lon="15.1657883"><ele>212.75</ele><time>2026-04-24T23:07:08.559Z</time></trkpt><trkpt lat="37.635965" lon="15.1659267"><ele>213.5</ele><time>2026-04-24T23:07:09.56Z</time></trkpt><trkpt lat="37.63588" lon="15.1660683"><ele>214.25</ele><time>2026-04-24T23:07:10.559Z</time></trkpt><trkpt lat="37.6357983" lon="15.1662067"><ele>215.0</ele><time>2026-04-24T23:07:11.56Z</time></trkpt><trkpt lat="37.6357033" lon="15.1663367"><ele>215.0</ele><time>2026-04-24T23:07:12.559Z</time></trkpt><trkpt lat="37.6355933" lon="15.1664433"><ele>215.0</ele><time>2026-04-24T23:07:13.56Z</time></trkpt><trkpt lat="37.6354667" lon="15.1665217"><ele>215.0</ele><time>2026-04-24T23:07:14.559Z</time></trkpt><trkpt lat="37.63532" lon="15.1665867"><ele>215.0</ele><time>2026-04-24T23:07:15.56Z</time></trkpt><trkpt lat="37.63517" lon="15.1666367"><ele>214.33333333333334</ele><time>2026-04-24T23:07:16.56Z</time></trkpt><trkpt lat="37.635005" lon="15.166685"><ele>213.66666666666669</ele><time>2026-04-24T23:07:17.559Z</time></trkpt><trkpt lat="37.6348367" lon="15.1667367"><ele>213.0</ele><time>2026-04-24T23:07:18.56Z</time></trkpt><trkpt lat="37.6346733" lon="15.1667917"><ele>213.0</ele><time>2026-04-24T23:07:19.56Z</time></trkpt><trkpt lat="37.6345183" lon="15.16685"><ele>213.0</ele><time>2026-04-24T23:07:20.56Z</time></trkpt><trkpt lat="37.6343617" lon="15.1668933"><ele>213.0</ele><time>2026-04-24T23:07:21.559Z</time></trkpt><trkpt lat="37.6342017" lon="15.1669283"><ele>212.33333333333331</ele><time>2026-04-24T23:07:22.56Z</time></trkpt><trkpt lat="37.6340483" lon="15.16695"><ele>211.66666666666666</ele><time>2026-04-24T23:07:23.56Z</time></trkpt><trkpt lat="37.633885" lon="15.1669483"><ele>211.0</ele><time>2026-04-24T23:07:24.559Z</time></trkpt><trkpt lat="37.6337133" lon="15.166925"><ele>212.0</ele><time>2026-04-24T23:07:25.56Z</time></trkpt><trkpt lat="37.63354" lon="15.166885"><ele>213.0</ele><time>2026-04-24T23:07:26.559Z</time></trkpt><trkpt lat="37.6333617" lon="15.16685"><ele>214.0</ele><time>2026-04-24T23:07:27.56Z</time></trkpt><trkpt lat="37.633185" lon="15.16683"><ele>214.0</ele><time>2026-04-24T23:07:28.559Z</time></trkpt><trkpt lat="37.6330167" lon="15.1668267"><ele>214.0</ele><time>2026-04-24T23:07:29.56Z</time></trkpt><trkpt lat="37.63285" lon="15.16685"><ele>214.0</ele><time>2026-04-24T23:07:30.559Z</time></trkpt><trkpt lat="37.6326883" lon="15.1669083"><ele>211.33333333333331</ele><time>2026-04-24T23:07:31.559Z</time></trkpt><trkpt lat="37.6325183" lon="15.1669883"><ele>208.66666666666669</ele><time>2026-04-24T23:07:32.56Z</time></trkpt><trkpt lat="37.6323567" lon="15.1670833"><ele>206.0</ele><time>2026-04-24T23:07:33.559Z</time></trkpt><trkpt lat="37.6321967" lon="15.16717"><ele>206.0</ele><time>2026-04-24T23:07:34.56Z</time></trkpt><trkpt lat="37.632045" lon="15.1672567"><ele>206.0</ele><time>2026-04-24T23:07:35.56Z</time></trkpt><trkpt lat="37.6318967" lon="15.1673367"><ele>206.0</ele><time>2026-04-24T23:07:36.559Z</time></trkpt><trkpt lat="37.63175" lon="15.1674"><ele>204.33333333333334</ele><time>2026-04-24T23:07:37.559Z</time></trkpt><trkpt lat="37.6316033" lon="15.16745"><ele>202.66666666666669</ele><time>2026-04-24T23:07:38.559Z</time></trkpt><trkpt lat="37.6314567" lon="15.1674767"><ele>201.0</ele><time>2026-04-24T23:07:39.56Z</time></trkpt><trkpt lat="37.631295" lon="15.167475"><ele>201.33333333333331</ele><time>2026-04-24T23:07:40.56Z</time></trkpt><trkpt lat="37.6311367" lon="15.1674533"><ele>201.66666666666666</ele><time>2026-04-24T23:07:41.56Z</time></trkpt><trkpt lat="37.630975" lon="15.1673883"><ele>202.0</ele><time>2026-04-24T23:07:42.559Z</time></trkpt><trkpt lat="37.6308133" lon="15.1673117"><ele>202.0</ele><time>2026-04-24T23:07:43.559Z</time></trkpt><trkpt lat="37.6306517" lon="15.1672217"><ele>202.0</ele><time>2026-04-24T23:07:44.559Z</time></trkpt><trkpt lat="37.6304883" lon="15.16718"><ele>202.0</ele><time>2026-04-24T23:07:45.56Z</time></trkpt><trkpt lat="37.630335" lon="15.167165"><ele>200.75</ele><time>2026-04-24T23:07:46.56Z</time></trkpt><trkpt lat="37.6301967" lon="15.1671733"><ele>199.5</ele><time>2026-04-24T23:07:47.56Z</time></trkpt><trkpt lat="37.630065" lon="15.16721"><ele>198.25</ele><time>2026-04-24T23:07:48.56Z</time></trkpt><trkpt lat="37.6299383" lon="15.1672817"><ele>197.0</ele><time>2026-04-24T23:07:49.559Z</time></trkpt><trkpt lat="37.629815" lon="15.167385"><ele>194.66666666666669</ele><time>2026-04-24T23:07:50.559Z</time></trkpt><trkpt lat="37.6296917" lon="15.167515"><ele>192.33333333333334</ele><time>2026-04-24T23:07:51.559Z</time></trkpt><trkpt lat="37.6295683" lon="15.1676533"><ele>190.0</ele><time>2026-04-24T23:07:52.56Z</time></trkpt><trkpt lat="37.6294433" lon="15.1677883"><ele>190.0</ele><time>2026-04-24T23:07:53.559Z</time></trkpt><trkpt lat="37.6293133" lon="15.1679167"><ele>190.0</ele><time>2026-04-24T23:07:54.56Z</time></trkpt><trkpt lat="37.629185" lon="15.168045"><ele>190.0</ele><time>2026-04-24T23:07:55.559Z</time></trkpt><trkpt lat="37.62904" lon="15.1681617"><ele>189.66666666666669</ele><time>2026-04-24T23:07:56.559Z</time></trkpt><trkpt lat="37.6288817" lon="15.1682733"><ele>189.33333333333334</ele><time>2026-04-24T23:07:57.559Z</time></trkpt><trkpt lat="37.6287133" lon="15.16837"><ele>189.0</ele><time>2026-04-24T23:07:58.56Z</time></trkpt><trkpt lat="37.628535" lon="15.1684533"><ele>189.0</ele><time>2026-04-24T23:07:59.56Z</time></trkpt><trkpt lat="37.62835" lon="15.16854"><ele>189.0</ele><time>2026-04-24T23:08:00.56Z</time></trkpt><trkpt lat="37.6281733" lon="15.1686267"><ele>189.0</ele><time>2026-04-24T23:08:01.56Z</time></trkpt><trkpt lat="37.62801" lon="15.1687117"><ele>189.0</ele><time>2026-04-24T23:08:02.559Z</time></trkpt><trkpt lat="37.62785" lon="15.16879"><ele>189.0</ele><time>2026-04-24T23:08:03.559Z</time></trkpt><trkpt lat="37.627675" lon="15.1688583"><ele>189.0</ele><time>2026-04-24T23:08:04.559Z</time></trkpt><trkpt lat="37.6274983" lon="15.168905"><ele>190.0</ele><time>2026-04-24T23:08:05.56Z</time></trkpt><trkpt lat="37.6273133" lon="15.16894"><ele>191.0</ele><time>2026-04-24T23:08:06.56Z</time></trkpt><trkpt lat="37.627125" lon="15.1689733"><ele>192.0</ele><time>2026-04-24T23:08:07.56Z</time></trkpt><trkpt lat="37.6269367" lon="15.1690017"><ele>190.0</ele><time>2026-04-24T23:08:08.56Z</time></trkpt><trkpt lat="37.6267433" lon="15.169035"><ele>188.0</ele><time>2026-04-24T23:08:09.559Z</time></trkpt><trkpt lat="37.6265567" lon="15.1690733"><ele>186.0</ele><time>2026-04-24T23:08:10.559Z</time></trkpt><trkpt lat="37.6263667" lon="15.1691067"><ele>186.0</ele><time>2026-04-24T23:08:11.56Z</time></trkpt><trkpt lat="37.6261817" lon="15.1691417"><ele>186.0</ele><time>2026-04-24T23:08:12.56Z</time></trkpt><trkpt lat="37.6259867" lon="15.1691733"><ele>186.0</ele><time>2026-04-24T23:08:13.559Z</time></trkpt><trkpt lat="37.6257983" lon="15.1691983"><ele>186.0</ele><time>2026-04-24T23:08:14.56Z</time></trkpt><trkpt lat="37.6256167" lon="15.16923"><ele>186.0</ele><time>2026-04-24T23:08:15.56Z</time></trkpt><trkpt lat="37.625415" lon="15.169265"><ele>186.0</ele><time>2026-04-24T23:08:16.56Z</time></trkpt><trkpt lat="37.625215" lon="15.169305"><ele>186.0</ele><time>2026-04-24T23:08:17.56Z</time></trkpt><trkpt lat="37.625015" lon="15.16934"><ele>186.0</ele><time>2026-04-24T23:08:18.56Z</time></trkpt><trkpt lat="37.6248133" lon="15.1693783"><ele>186.0</ele><time>2026-04-24T23:08:19.559Z</time></trkpt><trkpt lat="37.62461" lon="15.169405"><ele>186.33333333333334</ele><time>2026-04-24T23:08:20.559Z</time></trkpt><trkpt lat="37.6244133" lon="15.169445"><ele>186.66666666666669</ele><time>2026-04-24T23:08:21.56Z</time></trkpt><trkpt lat="37.6242067" lon="15.1694833"><ele>187.0</ele><time>2026-04-24T23:08:22.56Z</time></trkpt><trkpt lat="37.6240033" lon="15.1695133"><ele>187.0</ele><time>2026-04-24T23:08:23.56Z</time></trkpt><trkpt lat="37.6237967" lon="15.1695433"><ele>187.0</ele><time>2026-04-24T23:08:24.559Z</time></trkpt><trkpt lat="37.623595" lon="15.1695833"><ele>187.0</ele><time>2026-04-24T23:08:25.56Z</time></trkpt><trkpt lat="37.6234" lon="15.16961"><ele>187.33333333333334</ele><time>2026-04-24T23:08:26.56Z</time></trkpt><trkpt lat="37.6232017" lon="15.1696367"><ele>187.66666666666666</ele><time>2026-04-24T23:08:27.56Z</time></trkpt><trkpt lat="37.6230067" lon="15.1696733"><ele>188.0</ele><time>2026-04-24T23:08:28.56Z</time></trkpt><trkpt lat="37.6228183" lon="15.169705"><ele>186.66666666666666</ele><time>2026-04-24T23:08:29.559Z</time></trkpt><trkpt lat="37.6226433" lon="15.16973"><ele>185.33333333333334</ele><time>2026-04-24T23:08:30.56Z</time></trkpt><trkpt lat="37.62246" lon="15.1697417"><ele>184.0</ele><time>2026-04-24T23:08:31.56Z</time></trkpt><trkpt lat="37.6222833" lon="15.1697417"><ele>184.0</ele><time>2026-04-24T23:08:32.56Z</time></trkpt><trkpt lat="37.6221083" lon="15.1697367"><ele>184.0</ele><time>2026-04-24T23:08:33.56Z</time></trkpt><trkpt lat="37.621935" lon="15.1697267"><ele>184.0</ele><time>2026-04-24T23:08:34.559Z</time></trkpt><trkpt lat="37.6217767" lon="15.1697117"><ele>182.33333333333334</ele><time>2026-04-24T23:08:35.56Z</time></trkpt><trkpt lat="37.621615" lon="15.16967"><ele>180.66666666666666</ele><time>2026-04-24T23:08:36.56Z</time></trkpt><trkpt lat="37.6214617" lon="15.1696183"><ele>179.0</ele><time>2026-04-24T23:08:37.559Z</time></trkpt><trkpt lat="37.6213083" lon="15.1695517"><ele>179.0</ele><time>2026-04-24T23:08:38.56Z</time></trkpt><trkpt lat="37.6211583" lon="15.16948"><ele>179.0</ele><time>2026-04-24T23:08:39.559Z</time></trkpt><trkpt lat="37.621" lon="15.1694217"><ele>179.0</ele><time>2026-04-24T23:08:40.559Z</time></trkpt><trkpt lat="37.620835" lon="15.1693817"><ele>175.33333333333331</ele><time>2026-04-24T23:08:41.559Z</time></trkpt><trkpt lat="37.620675" lon="15.1693567"><ele>171.66666666666666</ele><time>2026-04-24T23:08:42.56Z</time></trkpt><trkpt lat="37.6205133" lon="15.1693517"><ele>168.0</ele><time>2026-04-24T23:08:43.56Z</time></trkpt><trkpt lat="37.620355" lon="15.16936"><ele>168.5</ele><time>2026-04-24T23:08:44.559Z</time></trkpt><trkpt lat="37.62021" lon="15.1693783"><ele>169.0</ele><time>2026-04-24T23:08:45.56Z</time></trkpt><trkpt lat="37.6200717" lon="15.1693967"><ele>169.5</ele><time>2026-04-24T23:08:46.56Z</time></trkpt><trkpt lat="37.61994" lon="15.1694233"><ele>170.0</ele><time>2026-04-24T23:08:47.56Z</time></trkpt><trkpt lat="37.6198167" lon="15.1694433"><ele>170.0</ele><time>2026-04-24T23:08:48.56Z</time></trkpt><trkpt lat="37.6197" lon="15.1694683"><ele>170.0</ele><time>2026-04-24T23:08:49.56Z</time></trkpt><trkpt lat="37.61958" lon="15.1694967"><ele>170.0</ele><time>2026-04-24T23:08:50.559Z</time></trkpt><trkpt lat="37.61946" lon="15.169525"><ele>170.0</ele><time>2026-04-24T23:08:51.559Z</time></trkpt><trkpt lat="37.61933" lon="15.1695583"><ele>169.5</ele><time>2026-04-24T23:08:52.56Z</time></trkpt><trkpt lat="37.61919" lon="15.1695933"><ele>169.0</ele><time>2026-04-24T23:08:53.56Z</time></trkpt><trkpt lat="37.6190467" lon="15.1696233"><ele>168.5</ele><time>2026-04-24T23:08:54.56Z</time></trkpt><trkpt lat="37.6189033" lon="15.1696533"><ele>168.0</ele><time>2026-04-24T23:08:55.56Z</time></trkpt><trkpt lat="37.6187583" lon="15.1696817"><ele>166.66666666666666</ele><time>2026-04-24T23:08:56.56Z</time></trkpt><trkpt lat="37.6186117" lon="15.169695"><ele>165.33333333333331</ele><time>2026-04-24T23:08:57.56Z</time></trkpt><trkpt lat="37.6184617" lon="15.1696983"><ele>164.0</ele><time>2026-04-24T23:08:58.56Z</time></trkpt><trkpt lat="37.6183083" lon="15.1696967"><ele>164.0</ele><time>2026-04-24T23:08:59.56Z</time></trkpt><trkpt lat="37.618175" lon="15.16969"><ele>164.0</ele><time>2026-04-24T23:09:00.56Z</time></trkpt><trkpt lat="37.6180317" lon="15.16967"><ele>164.0</ele><time>2026-04-24T23:09:01.56Z</time></trkpt><trkpt lat="37.6178933" lon="15.1696483"><ele>164.0</ele><time>2026-04-24T23:09:02.559Z</time></trkpt><trkpt lat="37.6177467" lon="15.16965"><ele>166.66666666666666</ele><time>2026-04-24T23:09:03.559Z</time></trkpt><trkpt lat="37.6175967" lon="15.169675"><ele>169.33333333333334</ele><time>2026-04-24T23:09:04.559Z</time></trkpt><trkpt lat="37.6174483" lon="15.1697133"><ele>172.0</ele><time>2026-04-24T23:09:05.56Z</time></trkpt><trkpt lat="37.6173067" lon="15.16977"><ele>172.0</ele><time>2026-04-24T23:09:06.559Z</time></trkpt><trkpt lat="37.61717" lon="15.16985"><ele>172.0</ele><time>2026-04-24T23:09:07.559Z</time></trkpt><trkpt lat="37.617035" lon="15.16993"><ele>172.0</ele><time>2026-04-24T23:09:08.559Z</time></trkpt><trkpt lat="37.6169083" lon="15.1700217"><ele>172.0</ele><time>2026-04-24T23:09:09.56Z</time></trkpt><trkpt lat="37.616785" lon="15.1701117"><ele>166.75</ele><time>2026-04-24T23:09:10.56Z</time></trkpt><trkpt lat="37.6166583" lon="15.1702"><ele>161.5</ele><time>2026-04-24T23:09:11.559Z</time></trkpt><trkpt lat="37.61653" lon="15.170275"><ele>156.25</ele><time>2026-04-24T23:09:12.559Z</time></trkpt><trkpt lat="37.61639" lon="15.1703467"><ele>151.0</ele><time>2026-04-24T23:09:13.559Z</time></trkpt><trkpt lat="37.61624" lon="15.1704117"><ele>149.33333333333334</ele><time>2026-04-24T23:09:14.559Z</time></trkpt><trkpt lat="37.616085" lon="15.17046"><ele>147.66666666666666</ele><time>2026-04-24T23:09:15.559Z</time></trkpt><trkpt lat="37.6159283" lon="15.1705017"><ele>146.0</ele><time>2026-04-24T23:09:16.559Z</time></trkpt><trkpt lat="37.6157683" lon="15.1705483"><ele>146.0</ele><time>2026-04-24T23:09:17.56Z</time></trkpt><trkpt lat="37.6156117" lon="15.1706017"><ele>146.0</ele><time>2026-04-24T23:09:18.56Z</time></trkpt><trkpt lat="37.61545" lon="15.1706483"><ele>146.0</ele><time>2026-04-24T23:09:19.56Z</time></trkpt><trkpt lat="37.6153" lon="15.1707017"><ele>142.66666666666666</ele><time>2026-04-24T23:09:20.56Z</time></trkpt><trkpt lat="37.6151517" lon="15.1707517"><ele>139.33333333333334</ele><time>2026-04-24T23:09:21.559Z</time></trkpt><trkpt lat="37.6150017" lon="15.1707917"><ele>136.0</ele><time>2026-04-24T23:09:22.56Z</time></trkpt><trkpt lat="37.6148533" lon="15.1708417"><ele>136.0</ele><time>2026-04-24T23:09:23.56Z</time></trkpt><trkpt lat="37.6146983" lon="15.17089"><ele>136.0</ele><time>2026-04-24T23:09:24.56Z</time></trkpt><trkpt lat="37.6145383" lon="15.1709383"><ele>136.0</ele><time>2026-04-24T23:09:25.559Z</time></trkpt><trkpt lat="37.614375" lon="15.1709883"><ele>136.0</ele><time>2026-04-24T23:09:26.56Z</time></trkpt><trkpt lat="37.614205" lon="15.171035"><ele>136.0</ele><time>2026-04-24T23:09:27.56Z</time></trkpt><trkpt lat="37.6140417" lon="15.1710833"><ele>136.0</ele><time>2026-04-24T23:09:28.56Z</time></trkpt><trkpt lat="37.6138717" lon="15.17112"><ele>136.0</ele><time>2026-04-24T23:09:29.559Z</time></trkpt><trkpt lat="37.6136933" lon="15.1711433"><ele>136.0</ele><time>2026-04-24T23:09:30.56Z</time></trkpt><trkpt lat="37.6135217" lon="15.1711583"><ele>136.0</ele><time>2026-04-24T23:09:31.56Z</time></trkpt><trkpt lat="37.6133467" lon="15.171145"><ele>135.0</ele><time>2026-04-24T23:09:32.56Z</time></trkpt><trkpt lat="37.61317" lon="15.1711217"><ele>134.0</ele><time>2026-04-24T23:09:33.56Z</time></trkpt><trkpt lat="37.613005" lon="15.1710883"><ele>133.0</ele><time>2026-04-24T23:09:34.559Z</time></trkpt><trkpt lat="37.6128417" lon="15.1710367"><ele>131.66666666666669</ele><time>2026-04-24T23:09:35.559Z</time></trkpt><trkpt lat="37.61267" lon="15.1709783"><ele>130.33333333333334</ele><time>2026-04-24T23:09:36.559Z</time></trkpt><trkpt lat="37.6125133" lon="15.1708967"><ele>129.0</ele><time>2026-04-24T23:09:37.559Z</time></trkpt><trkpt lat="37.6123517" lon="15.1708117"><ele>129.0</ele><time>2026-04-24T23:09:38.56Z</time></trkpt><trkpt lat="37.6121917" lon="15.17072"><ele>129.0</ele><time>2026-04-24T23:09:39.559Z</time></trkpt><trkpt lat="37.612035" lon="15.1706317"><ele>129.0</ele><time>2026-04-24T23:09:40.56Z</time></trkpt><trkpt lat="37.611885" lon="15.1705433"><ele>130.33333333333334</ele><time>2026-04-24T23:09:41.559Z</time></trkpt><trkpt lat="37.61173" lon="15.1704617"><ele>131.66666666666669</ele><time>2026-04-24T23:09:42.56Z</time></trkpt><trkpt lat="37.611575" lon="15.170375"><ele>133.0</ele><time>2026-04-24T23:09:43.559Z</time></trkpt><trkpt lat="37.61142" lon="15.17029"><ele>133.0</ele><time>2026-04-24T23:09:44.559Z</time></trkpt><trkpt lat="37.6112767" lon="15.1702083"><ele>133.0</ele><time>2026-04-24T23:09:45.56Z</time></trkpt><trkpt lat="37.6111367" lon="15.1701183"><ele>133.0</ele><time>2026-04-24T23:09:46.56Z</time></trkpt><trkpt lat="37.610995" lon="15.1700333"><ele>134.0</ele><time>2026-04-24T23:09:47.559Z</time></trkpt><trkpt lat="37.6108633" lon="15.16995"><ele>135.0</ele><time>2026-04-24T23:09:48.56Z</time></trkpt><trkpt lat="37.61073" lon="15.1698717"><ele>136.0</ele><time>2026-04-24T23:09:49.56Z</time></trkpt><trkpt lat="37.6105967" lon="15.1698"><ele>137.0</ele><time>2026-04-24T23:09:50.559Z</time></trkpt><trkpt lat="37.6104533" lon="15.1697433"><ele>135.33333333333331</ele><time>2026-04-24T23:09:51.56Z</time></trkpt><trkpt lat="37.6103033" lon="15.1696917"><ele>133.66666666666666</ele><time>2026-04-24T23:09:52.559Z</time></trkpt><trkpt lat="37.6101567" lon="15.1696433"><ele>132.0</ele><time>2026-04-24T23:09:53.559Z</time></trkpt><trkpt lat="37.61001" lon="15.1696067"><ele>132.0</ele><time>2026-04-24T23:09:54.56Z</time></trkpt><trkpt lat="37.6098667" lon="15.16956"><ele>132.0</ele><time>2026-04-24T23:09:55.559Z</time></trkpt><trkpt lat="37.6097233" lon="15.16953"><ele>132.0</ele><time>2026-04-24T23:09:56.56Z</time></trkpt><trkpt lat="37.6095717" lon="15.16949"><ele>132.0</ele><time>2026-04-24T23:09:57.559Z</time></trkpt><trkpt lat="37.6094233" lon="15.169445"><ele>130.33333333333334</ele><time>2026-04-24T23:09:58.56Z</time></trkpt><trkpt lat="37.6092633" lon="15.1694133"><ele>128.66666666666669</ele><time>2026-04-24T23:09:59.56Z</time></trkpt><trkpt lat="37.6091083" lon="15.1693717"><ele>127.0</ele><time>2026-04-24T23:10:00.56Z</time></trkpt><trkpt lat="37.6089367" lon="15.1693167"><ele>127.0</ele><time>2026-04-24T23:10:01.559Z</time></trkpt><trkpt lat="37.6087583" lon="15.1692717"><ele>127.0</ele><time>2026-04-24T23:10:02.559Z</time></trkpt><trkpt lat="37.60857" lon="15.1692267"><ele>127.0</ele><time>2026-04-24T23:10:03.56Z</time></trkpt><trkpt lat="37.6083867" lon="15.1691767"><ele>126.33333333333334</ele><time>2026-04-24T23:10:04.56Z</time></trkpt><trkpt lat="37.6081967" lon="15.16913"><ele>125.66666666666666</ele><time>2026-04-24T23:10:05.56Z</time></trkpt><trkpt lat="37.6079983" lon="15.1690833"><ele>125.0</ele><time>2026-04-24T23:10:06.559Z</time></trkpt><trkpt lat="37.6078033" lon="15.16903"><ele>125.33333333333333</ele><time>2026-04-24T23:10:07.56Z</time></trkpt><trkpt lat="37.607615" lon="15.1689783"><ele>125.66666666666666</ele><time>2026-04-24T23:10:08.559Z</time></trkpt><trkpt lat="37.6074417" lon="15.1689317"><ele>126.0</ele><time>2026-04-24T23:10:09.559Z</time></trkpt><trkpt lat="37.6072617" lon="15.1688933"><ele>126.0</ele><time>2026-04-24T23:10:10.56Z</time></trkpt><trkpt lat="37.6070967" lon="15.1688517"><ele>126.0</ele><time>2026-04-24T23:10:11.56Z</time></trkpt><trkpt lat="37.6069467" lon="15.16881"><ele>126.0</ele><time>2026-04-24T23:10:12.56Z</time></trkpt><trkpt lat="37.6067933" lon="15.168775"><ele>126.0</ele><time>2026-04-24T23:10:13.56Z</time></trkpt><trkpt lat="37.60664" lon="15.1687433"><ele>126.0</ele><time>2026-04-24T23:10:14.56Z</time></trkpt><trkpt lat="37.6064833" lon="15.1687267"><ele>126.0</ele><time>2026-04-24T23:10:15.56Z</time></trkpt><trkpt lat="37.6063167" lon="15.16872"><ele>126.0</ele><time>2026-04-24T23:10:16.56Z</time></trkpt><trkpt lat="37.6061583" lon="15.1687267"><ele>126.0</ele><time>2026-04-24T23:10:17.559Z</time></trkpt><trkpt lat="37.6059833" lon="15.1687467"><ele>126.0</ele><time>2026-04-24T23:10:18.559Z</time></trkpt><trkpt lat="37.6058117" lon="15.1687867"><ele>126.0</ele><time>2026-04-24T23:10:19.56Z</time></trkpt><trkpt lat="37.6056367" lon="15.168845"><ele>126.0</ele><time>2026-04-24T23:10:20.559Z</time></trkpt><trkpt lat="37.6054667" lon="15.16891"><ele>126.0</ele><time>2026-04-24T23:10:21.56Z</time></trkpt><trkpt lat="37.6053" lon="15.1689717"><ele>121.66666666666666</ele><time>2026-04-24T23:10:22.559Z</time></trkpt><trkpt lat="37.60513" lon="15.1690367"><ele>117.33333333333333</ele><time>2026-04-24T23:10:23.56Z</time></trkpt><trkpt lat="37.6049633" lon="15.16909"><ele>113.0</ele><time>2026-04-24T23:10:24.56Z</time></trkpt><trkpt lat="37.604795" lon="15.1691317"><ele>113.0</ele><time>2026-04-24T23:10:25.56Z</time></trkpt><trkpt lat="37.6046217" lon="15.1691567"><ele>113.0</ele><time>2026-04-24T23:10:26.56Z</time></trkpt><trkpt lat="37.604455" lon="15.169175"><ele>113.0</ele><time>2026-04-24T23:10:27.559Z</time></trkpt><trkpt lat="37.6042867" lon="15.1691783"><ele>113.0</ele><time>2026-04-24T23:10:28.56Z</time></trkpt><trkpt lat="37.6041233" lon="15.1691583"><ele>113.0</ele><time>2026-04-24T23:10:29.56Z</time></trkpt><trkpt lat="37.6039667" lon="15.16913"><ele>113.0</ele><time>2026-04-24T23:10:30.56Z</time></trkpt><trkpt lat="37.603805" lon="15.1690817"><ele>115.33333333333333</ele><time>2026-04-24T23:10:31.56Z</time></trkpt><trkpt lat="37.603655" lon="15.16902"><ele>117.66666666666666</ele><time>2026-04-24T23:10:32.559Z</time></trkpt><trkpt lat="37.6034933" lon="15.16896"><ele>120.0</ele><time>2026-04-24T23:10:33.56Z</time></trkpt><trkpt lat="37.6033217" lon="15.168905"><ele>120.0</ele><time>2026-04-24T23:10:34.559Z</time></trkpt><trkpt lat="37.603155" lon="15.1688383"><ele>120.0</ele><time>2026-04-24T23:10:35.56Z</time></trkpt><trkpt lat="37.602985" lon="15.16878"><ele>120.0</ele><time>2026-04-24T23:10:36.56Z</time></trkpt><trkpt lat="37.6028133" lon="15.1687133"><ele>120.0</ele><time>2026-04-24T23:10:37.56Z</time></trkpt><trkpt lat="37.6026567" lon="15.1686483"><ele>120.0</ele><time>2026-04-24T23:10:38.56Z</time></trkpt><trkpt lat="37.6024833" lon="15.168585"><ele>120.0</ele><time>2026-04-24T23:10:39.559Z</time></trkpt><trkpt lat="37.6023133" lon="15.1685217"><ele>120.0</ele><time>2026-04-24T23:10:40.56Z</time></trkpt><trkpt lat="37.6021433" lon="15.1684517"><ele>120.0</ele><time>2026-04-24T23:10:41.56Z</time></trkpt><trkpt lat="37.6019733" lon="15.1683833"><ele>120.0</ele><time>2026-04-24T23:10:42.56Z</time></trkpt><trkpt lat="37.601805" lon="15.168315"><ele>119.0</ele><time>2026-04-24T23:10:43.56Z</time></trkpt><trkpt lat="37.6016333" lon="15.16825"><ele>118.0</ele><time>2026-04-24T23:10:44.559Z</time></trkpt><trkpt lat="37.6014617" lon="15.1681833"><ele>117.0</ele><time>2026-04-24T23:10:45.559Z</time></trkpt><trkpt lat="37.6012883" lon="15.1681133"><ele>115.33333333333334</ele><time>2026-04-24T23:10:46.56Z</time></trkpt><trkpt lat="37.6011133" lon="15.1680417"><ele>113.66666666666667</ele><time>2026-04-24T23:10:47.56Z</time></trkpt><trkpt lat="37.60093" lon="15.16797"><ele>112.0</ele><time>2026-04-24T23:10:48.559Z</time></trkpt><trkpt lat="37.600745" lon="15.1678983"><ele>112.0</ele><time>2026-04-24T23:10:49.559Z</time></trkpt><trkpt lat="37.6005567" lon="15.167825"><ele>112.0</ele><time>2026-04-24T23:10:50.56Z</time></trkpt><trkpt lat="37.6003633" lon="15.1677533"><ele>112.0</ele><time>2026-04-24T23:10:51.559Z</time></trkpt><trkpt lat="37.600175" lon="15.16768"><ele>111.66666666666667</ele><time>2026-04-24T23:10:52.56Z</time></trkpt><trkpt lat="37.599985" lon="15.1676083"><ele>111.33333333333334</ele><time>2026-04-24T23:10:53.559Z</time></trkpt><trkpt lat="37.5998017" lon="15.1675333"><ele>111.0</ele><time>2026-04-24T23:10:54.56Z</time></trkpt><trkpt lat="37.5996133" lon="15.167465"><ele>111.0</ele><time>2026-04-24T23:10:55.56Z</time></trkpt><trkpt lat="37.5994333" lon="15.1673983"><ele>111.0</ele><time>2026-04-24T23:10:56.56Z</time></trkpt><trkpt lat="37.5992633" lon="15.1673383"><ele>111.0</ele><time>2026-04-24T23:10:57.56Z</time></trkpt><trkpt lat="37.5991067" lon="15.167275"><ele>111.0</ele><time>2026-04-24T23:10:58.56Z</time></trkpt><trkpt lat="37.598965" lon="15.1672217"><ele>111.0</ele><time>2026-04-24T23:10:59.56Z</time></trkpt><trkpt lat="37.59881" lon="15.1671767"><ele>111.0</ele><time>2026-04-24T23:11:00.56Z</time></trkpt><trkpt lat="37.598675" lon="15.1671483"><ele>111.0</ele><time>2026-04-24T23:11:01.56Z</time></trkpt><trkpt lat="37.5985333" lon="15.1671367"><ele>111.25</ele><time>2026-04-24T23:11:02.559Z</time></trkpt><trkpt lat="37.5984017" lon="15.16715"><ele>111.5</ele><time>2026-04-24T23:11:03.56Z</time></trkpt><trkpt lat="37.59827" lon="15.1671967"><ele>111.75</ele><time>2026-04-24T23:11:04.559Z</time></trkpt><trkpt lat="37.598135" lon="15.1672633"><ele>112.0</ele><time>2026-04-24T23:11:05.56Z</time></trkpt><trkpt lat="37.5980083" lon="15.1673383"><ele>111.33333333333334</ele><time>2026-04-24T23:11:06.559Z</time></trkpt><trkpt lat="37.5979" lon="15.1674067"><ele>110.66666666666667</ele><time>2026-04-24T23:11:07.559Z</time></trkpt><trkpt lat="37.5978083" lon="15.167455"><ele>110.0</ele><time>2026-04-24T23:11:08.56Z</time></trkpt><trkpt lat="37.5977333" lon="15.1674817"><ele>109.33333333333334</ele><time>2026-04-24T23:11:09.56Z</time></trkpt><trkpt lat="37.5976567" lon="15.1674867"><ele>108.66666666666667</ele><time>2026-04-24T23:11:10.56Z</time></trkpt><trkpt lat="37.5975933" lon="15.1674733"><ele>108.0</ele><time>2026-04-24T23:11:11.559Z</time></trkpt><trkpt lat="37.5975317" lon="15.1674433"><ele>107.80000000000001</ele><time>2026-04-24T23:11:12.559Z</time></trkpt><trkpt lat="37.5974067" lon="15.16745"><ele>107.60000000000001</ele><time>2026-04-24T23:11:14.56Z</time></trkpt><trkpt lat="37.5973417" lon="15.1674917"><ele>107.39999999999999</ele><time>2026-04-24T23:11:15.56Z</time></trkpt><trkpt lat="37.597265" lon="15.16755"><ele>107.19999999999999</ele><time>2026-04-24T23:11:16.559Z</time></trkpt><trkpt lat="37.5971783" lon="15.1676217"><ele>107.0</ele><time>2026-04-24T23:11:17.559Z</time></trkpt><trkpt lat="37.597075" lon="15.16767"><ele>107.0</ele><time>2026-04-24T23:11:18.559Z</time></trkpt><trkpt lat="37.59695" lon="15.1677083"><ele>107.0</ele><time>2026-04-24T23:11:19.56Z</time></trkpt><trkpt lat="37.59682" lon="15.1677533"><ele>107.0</ele><time>2026-04-24T23:11:20.559Z</time></trkpt><trkpt lat="37.596685" lon="15.1678017"><ele>107.0</ele><time>2026-04-24T23:11:21.56Z</time></trkpt><trkpt lat="37.5965433" lon="15.1678617"><ele>107.0</ele><time>2026-04-24T23:11:22.559Z</time></trkpt><trkpt lat="37.5964033" lon="15.1679283"><ele>107.0</ele><time>2026-04-24T23:11:23.56Z</time></trkpt><trkpt lat="37.5962583" lon="15.1679967"><ele>107.0</ele><time>2026-04-24T23:11:24.559Z</time></trkpt><trkpt lat="37.596115" lon="15.1680717"><ele>106.33333333333333</ele><time>2026-04-24T23:11:25.559Z</time></trkpt><trkpt lat="37.5959733" lon="15.1681467"><ele>105.66666666666666</ele><time>2026-04-24T23:11:26.56Z</time></trkpt><trkpt lat="37.5958283" lon="15.1682183"><ele>105.0</ele><time>2026-04-24T23:11:27.56Z</time></trkpt><trkpt lat="37.59568" lon="15.1682917"><ele>103.33333333333334</ele><time>2026-04-24T23:11:28.56Z</time></trkpt><trkpt lat="37.5955267" lon="15.1683617"><ele>101.66666666666667</ele><time>2026-04-24T23:11:29.56Z</time></trkpt><trkpt lat="37.5953667" lon="15.16842"><ele>100.0</ele><time>2026-04-24T23:11:30.559Z</time></trkpt><trkpt lat="37.59521" lon="15.168475"><ele>99.66666666666667</ele><time>2026-04-24T23:11:31.559Z</time></trkpt><trkpt lat="37.5950367" lon="15.1685183"><ele>99.33333333333334</ele><time>2026-04-24T23:11:32.56Z</time></trkpt><trkpt lat="37.5948717" lon="15.1685583"><ele>99.0</ele><time>2026-04-24T23:11:33.559Z</time></trkpt><trkpt lat="37.5946933" lon="15.1685867"><ele>99.0</ele><time>2026-04-24T23:11:34.559Z</time></trkpt><trkpt lat="37.5945217" lon="15.168605"><ele>99.0</ele><time>2026-04-24T23:11:35.56Z</time></trkpt><trkpt lat="37.5943433" lon="15.1686217"><ele>99.0</ele><time>2026-04-24T23:11:36.559Z</time></trkpt><trkpt lat="37.5941717" lon="15.1686417"><ele>99.33333333333334</ele><time>2026-04-24T23:11:37.559Z</time></trkpt><trkpt lat="37.5940033" lon="15.1686583"><ele>99.66666666666667</ele><time>2026-04-24T23:11:38.56Z</time></trkpt><trkpt lat="37.5938333" lon="15.1686683"><ele>100.0</ele><time>2026-04-24T23:11:39.559Z</time></trkpt><trkpt lat="37.593665" lon="15.168675"><ele>100.0</ele><time>2026-04-24T23:11:40.56Z</time></trkpt><trkpt lat="37.5935" lon="15.16869"><ele>100.0</ele><time>2026-04-24T23:11:41.56Z</time></trkpt><trkpt lat="37.59334" lon="15.1687"><ele>100.0</ele><time>2026-04-24T23:11:42.559Z</time></trkpt><trkpt lat="37.5931717" lon="15.16871"><ele>100.0</ele><time>2026-04-24T23:11:43.56Z</time></trkpt><trkpt lat="37.5930033" lon="15.1687217"><ele>100.0</ele><time>2026-04-24T23:11:44.559Z</time></trkpt><trkpt lat="37.5928333" lon="15.1687317"><ele>100.0</ele><time>2026-04-24T23:11:45.56Z</time></trkpt><trkpt lat="37.592655" lon="15.168745"><ele>99.0</ele><time>2026-04-24T23:11:46.56Z</time></trkpt><trkpt lat="37.5924783" lon="15.1687633"><ele>98.0</ele><time>2026-04-24T23:11:47.56Z</time></trkpt><trkpt lat="37.5922967" lon="15.1687817"><ele>97.0</ele><time>2026-04-24T23:11:48.559Z</time></trkpt><trkpt lat="37.5921183" lon="15.168795"><ele>98.66666666666667</ele><time>2026-04-24T23:11:49.559Z</time></trkpt><trkpt lat="37.5919333" lon="15.1688117"><ele>100.33333333333334</ele><time>2026-04-24T23:11:50.559Z</time></trkpt><trkpt lat="37.59175" lon="15.1688283"><ele>102.0</ele><time>2026-04-24T23:11:51.56Z</time></trkpt><trkpt lat="37.59156" lon="15.1688467"><ele>102.0</ele><time>2026-04-24T23:11:52.56Z</time></trkpt><trkpt lat="37.591365" lon="15.1688633"><ele>102.0</ele><time>2026-04-24T23:11:53.559Z</time></trkpt><trkpt lat="37.591175" lon="15.1688867"><ele>102.0</ele><time>2026-04-24T23:11:54.56Z</time></trkpt><trkpt lat="37.5909867" lon="15.1689033"><ele>101.0</ele><time>2026-04-24T23:11:55.56Z</time></trkpt><trkpt lat="37.5907933" lon="15.1689233"><ele>100.0</ele><time>2026-04-24T23:11:56.559Z</time></trkpt><trkpt lat="37.5906067" lon="15.1689433"><ele>99.0</ele><time>2026-04-24T23:11:57.559Z</time></trkpt><trkpt lat="37.59042" lon="15.1689567"><ele>98.33333333333334</ele><time>2026-04-24T23:11:58.559Z</time></trkpt><trkpt lat="37.590235" lon="15.168975"><ele>97.66666666666667</ele><time>2026-04-24T23:11:59.56Z</time></trkpt><trkpt lat="37.5900517" lon="15.1689933"><ele>97.0</ele><time>2026-04-24T23:12:00.56Z</time></trkpt><trkpt lat="37.5898617" lon="15.16901"><ele>97.0</ele><time>2026-04-24T23:12:01.559Z</time></trkpt><trkpt lat="37.5896717" lon="15.169025"><ele>97.0</ele><time>2026-04-24T23:12:02.56Z</time></trkpt><trkpt lat="37.5894833" lon="15.1690467"><ele>97.0</ele><time>2026-04-24T23:12:03.56Z</time></trkpt><trkpt lat="37.589285" lon="15.1690717"><ele>97.33333333333334</ele><time>2026-04-24T23:12:04.56Z</time></trkpt><trkpt lat="37.5890933" lon="15.1690933"><ele>97.66666666666666</ele><time>2026-04-24T23:12:05.559Z</time></trkpt><trkpt lat="37.5888933" lon="15.169115"><ele>98.0</ele><time>2026-04-24T23:12:06.559Z</time></trkpt><trkpt lat="37.58869" lon="15.1691317"><ele>95.33333333333333</ele><time>2026-04-24T23:12:07.56Z</time></trkpt><trkpt lat="37.5884783" lon="15.169155"><ele>92.66666666666666</ele><time>2026-04-24T23:12:08.56Z</time></trkpt><trkpt lat="37.588275" lon="15.169175"><ele>90.0</ele><time>2026-04-24T23:12:09.559Z</time></trkpt><trkpt lat="37.5880717" lon="15.1691967"><ele>90.0</ele><time>2026-04-24T23:12:10.56Z</time></trkpt><trkpt lat="37.5878717" lon="15.169215"><ele>90.0</ele><time>2026-04-24T23:12:11.559Z</time></trkpt><trkpt lat="37.58767" lon="15.1692383"><ele>90.0</ele><time>2026-04-24T23:12:12.559Z</time></trkpt><trkpt lat="37.5874717" lon="15.16926"><ele>89.33333333333333</ele><time>2026-04-24T23:12:13.559Z</time></trkpt><trkpt lat="37.5872733" lon="15.1692817"><ele>88.66666666666666</ele><time>2026-04-24T23:12:14.56Z</time></trkpt><trkpt lat="37.5870733" lon="15.1692983"><ele>88.0</ele><time>2026-04-24T23:12:15.56Z</time></trkpt><trkpt lat="37.5868733" lon="15.1693133"><ele>86.0</ele><time>2026-04-24T23:12:16.56Z</time></trkpt><trkpt lat="37.5866783" lon="15.1693267"><ele>84.0</ele><time>2026-04-24T23:12:17.56Z</time></trkpt><trkpt lat="37.58648" lon="15.169345"><ele>82.0</ele><time>2026-04-24T23:12:18.559Z</time></trkpt><trkpt lat="37.5862817" lon="15.1693667"><ele>79.66666666666666</ele><time>2026-04-24T23:12:19.56Z</time></trkpt><trkpt lat="37.5860917" lon="15.1693883"><ele>77.33333333333333</ele><time>2026-04-24T23:12:20.559Z</time></trkpt><trkpt lat="37.5859" lon="15.1694117"><ele>75.0</ele><time>2026-04-24T23:12:21.56Z</time></trkpt><trkpt lat="37.5857183" lon="15.16943"><ele>75.0</ele><time>2026-04-24T23:12:22.559Z</time></trkpt><trkpt lat="37.5855383" lon="15.16945"><ele>75.0</ele><time>2026-04-24T23:12:23.559Z</time></trkpt><trkpt lat="37.585355" lon="15.1694683"><ele>75.0</ele><time>2026-04-24T23:12:24.559Z</time></trkpt><trkpt lat="37.5851717" lon="15.1694833"><ele>74.33333333333333</ele><time>2026-04-24T23:12:25.559Z</time></trkpt><trkpt lat="37.5849967" lon="15.169505"><ele>73.66666666666666</ele><time>2026-04-24T23:12:26.559Z</time></trkpt><trkpt lat="37.5848167" lon="15.1695267"><ele>73.0</ele><time>2026-04-24T23:12:27.56Z</time></trkpt><trkpt lat="37.584635" lon="15.1695417"><ele>72.0</ele><time>2026-04-24T23:12:28.559Z</time></trkpt><trkpt lat="37.584455" lon="15.1695567"><ele>71.0</ele><time>2026-04-24T23:12:29.56Z</time></trkpt><trkpt lat="37.58428" lon="15.1695683"><ele>70.0</ele><time>2026-04-24T23:12:30.56Z</time></trkpt><trkpt lat="37.58411" lon="15.1695733"><ele>70.0</ele><time>2026-04-24T23:12:31.56Z</time></trkpt><trkpt lat="37.58394" lon="15.16957"><ele>70.0</ele><time>2026-04-24T23:12:32.56Z</time></trkpt><trkpt lat="37.5837783" lon="15.1695567"><ele>70.0</ele><time>2026-04-24T23:12:33.559Z</time></trkpt><trkpt lat="37.583615" lon="15.1695383"><ele>69.0</ele><time>2026-04-24T23:12:34.56Z</time></trkpt><trkpt lat="37.5834533" lon="15.1695133"><ele>68.0</ele><time>2026-04-24T23:12:35.56Z</time></trkpt><trkpt lat="37.5832767" lon="15.16948"><ele>67.0</ele><time>2026-04-24T23:12:36.56Z</time></trkpt><trkpt lat="37.5831067" lon="15.169445"><ele>67.0</ele><time>2026-04-24T23:12:37.559Z</time></trkpt><trkpt lat="37.5829183" lon="15.1693967"><ele>67.0</ele><time>2026-04-24T23:12:38.559Z</time></trkpt><trkpt lat="37.5827333" lon="15.1693417"><ele>67.0</ele><time>2026-04-24T23:12:39.559Z</time></trkpt><trkpt lat="37.5825617" lon="15.16928"><ele>65.0</ele><time>2026-04-24T23:12:40.56Z</time></trkpt><trkpt lat="37.58238" lon="15.1692033"><ele>63.0</ele><time>2026-04-24T23:12:41.56Z</time></trkpt><trkpt lat="37.5822083" lon="15.1691133"><ele>61.0</ele><time>2026-04-24T23:12:42.56Z</time></trkpt><trkpt lat="37.5820283" lon="15.169035"><ele>59.33333333333333</ele><time>2026-04-24T23:12:43.559Z</time></trkpt><trkpt lat="37.58185" lon="15.1689517"><ele>57.66666666666667</ele><time>2026-04-24T23:12:44.56Z</time></trkpt><trkpt lat="37.5816617" lon="15.1688667"><ele>56.0</ele><time>2026-04-24T23:12:45.56Z</time></trkpt><trkpt lat="37.5814817" lon="15.1687817"><ele>56.0</ele><time>2026-04-24T23:12:46.559Z</time></trkpt><trkpt lat="37.58129" lon="15.1687"><ele>56.0</ele><time>2026-04-24T23:12:47.559Z</time></trkpt><trkpt lat="37.5811" lon="15.1686183"><ele>56.0</ele><time>2026-04-24T23:12:48.56Z</time></trkpt><trkpt lat="37.580915" lon="15.168535"><ele>54.333333333333336</ele><time>2026-04-24T23:12:49.559Z</time></trkpt><trkpt lat="37.5807317" lon="15.1684583"><ele>52.66666666666667</ele><time>2026-04-24T23:12:50.56Z</time></trkpt><trkpt lat="37.5805683" lon="15.1683883"><ele>51.0</ele><time>2026-04-24T23:12:51.559Z</time></trkpt><trkpt lat="37.5804283" lon="15.1683267"><ele>49.4</ele><time>2026-04-24T23:12:52.56Z</time></trkpt><trkpt lat="37.5803083" lon="15.1682733"><ele>47.8</ele><time>2026-04-24T23:12:53.56Z</time></trkpt><trkpt lat="37.5802117" lon="15.1682317"><ele>46.199999999999996</ele><time>2026-04-24T23:12:54.56Z</time></trkpt><trkpt lat="37.5801417" lon="15.1681967"><ele>44.599999999999994</ele><time>2026-04-24T23:12:55.559Z</time></trkpt><trkpt lat="37.58007" lon="15.1681517"><ele>43.0</ele><time>2026-04-24T23:12:57.559Z</time></trkpt><trkpt lat="37.579995" lon="15.1680867"><ele>43.0</ele><time>2026-04-24T23:13:00.559Z</time></trkpt><trkpt lat="37.5799217" lon="15.1679967"><ele>43.0</ele><time>2026-04-24T23:13:02.56Z</time></trkpt><trkpt lat="37.579825" lon="15.1678983"><ele>43.0</ele><time>2026-04-24T23:13:04.559Z</time></trkpt><trkpt lat="37.5797583" lon="15.1678767"><ele>43.0</ele><time>2026-04-24T23:13:05.56Z</time></trkpt><trkpt lat="37.5796883" lon="15.167885"><ele>43.0</ele><time>2026-04-24T23:13:06.559Z</time></trkpt><trkpt lat="37.579615" lon="15.1679117"><ele>43.0</ele><time>2026-04-24T23:13:07.56Z</time></trkpt><trkpt lat="37.579535" lon="15.1679267"><ele>42.66666666666667</ele><time>2026-04-24T23:13:08.56Z</time></trkpt><trkpt lat="37.5794483" lon="15.1679217"><ele>42.333333333333336</ele><time>2026-04-24T23:13:09.559Z</time></trkpt><trkpt lat="37.5793567" lon="15.1678983"><ele>42.0</ele><time>2026-04-24T23:13:10.559Z</time></trkpt><trkpt lat="37.5792717" lon="15.16787"><ele>41.666666666666664</ele><time>2026-04-24T23:13:11.56Z</time></trkpt><trkpt lat="37.5791917" lon="15.1678383"><ele>41.33333333333333</ele><time>2026-04-24T23:13:12.559Z</time></trkpt><trkpt lat="37.5791167" lon="15.167815"><ele>41.0</ele><time>2026-04-24T23:13:13.56Z</time></trkpt><trkpt lat="37.5790517" lon="15.1677933"><ele>41.0</ele><time>2026-04-24T23:13:14.559Z</time></trkpt><trkpt lat="37.57895" lon="15.16776"><ele>41.0</ele><time>2026-04-24T23:13:16.56Z</time></trkpt><trkpt lat="37.57882" lon="15.1677633"><ele>41.0</ele><time>2026-04-24T23:14:35.561Z</time></trkpt><trkpt lat="37.5787533" lon="15.167755"><ele>41.0</ele><time>2026-04-24T23:14:37.561Z</time></trkpt><trkpt lat="37.5786483" lon="15.1677367"><ele>41.0</ele><time>2026-04-24T23:14:39.561Z</time></trkpt><trkpt lat="37.578565" lon="15.1677233"><ele>40.599999999999994</ele><time>2026-04-24T23:14:40.56Z</time></trkpt><trkpt lat="37.5784767" lon="15.1677117"><ele>40.199999999999996</ele><time>2026-04-24T23:14:41.56Z</time></trkpt><trkpt lat="37.5783733" lon="15.1677067"><ele>39.8</ele><time>2026-04-24T23:14:42.561Z</time></trkpt><trkpt lat="37.5782583" lon="15.1677067"><ele>39.4</ele><time>2026-04-24T23:14:43.561Z</time></trkpt><trkpt lat="37.5781433" lon="15.1677133"><ele>39.0</ele><time>2026-04-24T23:14:44.561Z</time></trkpt><trkpt lat="37.5780283" lon="15.1677217"><ele>39.0</ele><time>2026-04-24T23:14:45.561Z</time></trkpt><trkpt lat="37.5779133" lon="15.1677233"><ele>39.0</ele><time>2026-04-24T23:14:46.561Z</time></trkpt><trkpt lat="37.5777967" lon="15.167715"><ele>39.0</ele><time>2026-04-24T23:14:47.561Z</time></trkpt><trkpt lat="37.5776633" lon="15.1677033"><ele>39.0</ele><time>2026-04-24T23:14:48.56Z</time></trkpt><trkpt lat="37.577525" lon="15.1676883"><ele>38.5</ele><time>2026-04-24T23:14:49.56Z</time></trkpt><trkpt lat="37.5773783" lon="15.1676667"><ele>38.0</ele><time>2026-04-24T23:14:50.561Z</time></trkpt><trkpt lat="37.577235" lon="15.1676483"><ele>37.5</ele><time>2026-04-24T23:14:51.56Z</time></trkpt><trkpt lat="37.57709" lon="15.1676333"><ele>37.0</ele><time>2026-04-24T23:14:52.56Z</time></trkpt><trkpt lat="37.5769433" lon="15.1676233"><ele>36.0</ele><time>2026-04-24T23:14:53.561Z</time></trkpt><trkpt lat="37.576805" lon="15.16762"><ele>35.0</ele><time>2026-04-24T23:14:54.561Z</time></trkpt><trkpt lat="37.5766633" lon="15.167615"><ele>34.0</ele><time>2026-04-24T23:14:55.561Z</time></trkpt><trkpt lat="37.57651" lon="15.1676083"><ele>33.0</ele><time>2026-04-24T23:14:56.56Z</time></trkpt><trkpt lat="37.57636" lon="15.1675967"><ele>33.0</ele><time>2026-04-24T23:14:57.561Z</time></trkpt><trkpt lat="37.5762" lon="15.1675783"><ele>33.0</ele><time>2026-04-24T23:14:58.561Z</time></trkpt><trkpt lat="37.576045" lon="15.1675583"><ele>33.0</ele><time>2026-04-24T23:14:59.561Z</time></trkpt><trkpt lat="37.575895" lon="15.1675383"><ele>32.0</ele><time>2026-04-24T23:15:00.561Z</time></trkpt><trkpt lat="37.57575" lon="15.1675183"><ele>31.0</ele><time>2026-04-24T23:15:01.56Z</time></trkpt><trkpt lat="37.57561" lon="15.167505"><ele>30.0</ele><time>2026-04-24T23:15:02.561Z</time></trkpt><trkpt lat="37.5754817" lon="15.1674933"><ele>29.0</ele><time>2026-04-24T23:15:03.561Z</time></trkpt><trkpt lat="37.5753533" lon="15.167485"><ele>28.5</ele><time>2026-04-24T23:15:04.561Z</time></trkpt><trkpt lat="37.5752167" lon="15.16747"><ele>28.0</ele><time>2026-04-24T23:15:05.56Z</time></trkpt><trkpt lat="37.5750867" lon="15.16746"><ele>27.5</ele><time>2026-04-24T23:15:06.561Z</time></trkpt><trkpt lat="37.5749583" lon="15.1674467"><ele>27.0</ele><time>2026-04-24T23:15:07.56Z</time></trkpt><trkpt lat="37.574825" lon="15.16743"><ele>27.0</ele><time>2026-04-24T23:15:08.561Z</time></trkpt><trkpt lat="37.574685" lon="15.167415"><ele>27.0</ele><time>2026-04-24T23:15:09.561Z</time></trkpt><trkpt lat="37.5745483" lon="15.167405"><ele>27.0</ele><time>2026-04-24T23:15:10.561Z</time></trkpt><trkpt lat="37.574415" lon="15.16739"><ele>27.0</ele><time>2026-04-24T23:15:11.561Z</time></trkpt><trkpt lat="37.5743033" lon="15.1673783"><ele>27.0</ele><time>2026-04-24T23:15:12.56Z</time></trkpt><trkpt lat="37.5741933" lon="15.16735"><ele>27.0</ele><time>2026-04-24T23:15:13.561Z</time></trkpt><trkpt lat="37.5740917" lon="15.1672833"><ele>27.0</ele><time>2026-04-24T23:15:14.56Z</time></trkpt><trkpt lat="37.5739883" lon="15.167195"><ele>27.0</ele><time>2026-04-24T23:15:15.561Z</time></trkpt><trkpt lat="37.5738683" lon="15.1671017"><ele>27.0</ele><time>2026-04-24T23:15:16.56Z</time></trkpt><trkpt lat="37.5737517" lon="15.1669967"><ele>27.0</ele><time>2026-04-24T23:15:17.56Z</time></trkpt><trkpt lat="37.5736333" lon="15.16689"><ele>27.0</ele><time>2026-04-24T23:15:18.561Z</time></trkpt><trkpt lat="37.5735233" lon="15.166785"><ele>27.0</ele><time>2026-04-24T23:15:19.56Z</time></trkpt><trkpt lat="37.57341" lon="15.1666733"><ele>25.666666666666668</ele><time>2026-04-24T23:15:20.56Z</time></trkpt><trkpt lat="37.5732933" lon="15.1665617"><ele>24.333333333333336</ele><time>2026-04-24T23:15:21.56Z</time></trkpt><trkpt lat="37.5731667" lon="15.1664533"><ele>23.0</ele><time>2026-04-24T23:15:22.56Z</time></trkpt><trkpt lat="37.57303" lon="15.166335"><ele>23.0</ele><time>2026-04-24T23:15:23.561Z</time></trkpt><trkpt lat="37.5728933" lon="15.1662083"><ele>23.0</ele><time>2026-04-24T23:15:24.561Z</time></trkpt><trkpt lat="37.572755" lon="15.16609"><ele>23.0</ele><time>2026-04-24T23:15:25.56Z</time></trkpt><trkpt lat="37.5726183" lon="15.1659767"><ele>23.0</ele><time>2026-04-24T23:15:26.56Z</time></trkpt><trkpt lat="37.57249" lon="15.165855"><ele>23.0</ele><time>2026-04-24T23:15:27.561Z</time></trkpt><trkpt lat="37.5723583" lon="15.165735"><ele>23.0</ele><time>2026-04-24T23:15:28.561Z</time></trkpt><trkpt lat="37.5722267" lon="15.1656167"><ele>23.0</ele><time>2026-04-24T23:15:29.561Z</time></trkpt><trkpt lat="37.5720967" lon="15.1655017"><ele>23.0</ele><time>2026-04-24T23:15:30.561Z</time></trkpt><trkpt lat="37.57196" lon="15.1654017"><ele>23.0</ele><time>2026-04-24T23:15:31.561Z</time></trkpt><trkpt lat="37.57181" lon="15.1653167"><ele>21.666666666666668</ele><time>2026-04-24T23:15:32.56Z</time></trkpt><trkpt lat="37.5716567" lon="15.1652333"><ele>20.333333333333332</ele><time>2026-04-24T23:15:33.561Z</time></trkpt><trkpt lat="37.5715017" lon="15.1651583"><ele>19.0</ele><time>2026-04-24T23:15:34.56Z</time></trkpt><trkpt lat="37.5713333" lon="15.165085"><ele>18.666666666666664</ele><time>2026-04-24T23:15:35.561Z</time></trkpt><trkpt lat="37.5711667" lon="15.165"><ele>18.333333333333332</ele><time>2026-04-24T23:15:36.56Z</time></trkpt><trkpt lat="37.571" lon="15.1649217"><ele>18.0</ele><time>2026-04-24T23:15:37.56Z</time></trkpt><trkpt lat="37.5708283" lon="15.1648383"><ele>19.666666666666668</ele><time>2026-04-24T23:15:38.56Z</time></trkpt><trkpt lat="37.5706517" lon="15.1647567"><ele>21.333333333333336</ele><time>2026-04-24T23:15:39.561Z</time></trkpt><trkpt lat="37.5704783" lon="15.1646767"><ele>23.0</ele><time>2026-04-24T23:15:40.56Z</time></trkpt><trkpt lat="37.5703067" lon="15.1645967"><ele>23.0</ele><time>2026-04-24T23:15:41.56Z</time></trkpt><trkpt lat="37.5701433" lon="15.1645117"><ele>23.0</ele><time>2026-04-24T23:15:42.561Z</time></trkpt><trkpt lat="37.5699867" lon="15.1644333"><ele>23.0</ele><time>2026-04-24T23:15:43.561Z</time></trkpt><trkpt lat="37.56985" lon="15.1643617"><ele>23.0</ele><time>2026-04-24T23:15:44.561Z</time></trkpt><trkpt lat="37.569715" lon="15.1642833"><ele>23.0</ele><time>2026-04-24T23:15:45.56Z</time></trkpt><trkpt lat="37.5695833" lon="15.1642267"><ele>23.0</ele><time>2026-04-24T23:15:46.561Z</time></trkpt><trkpt lat="37.5694533" lon="15.1641817"><ele>23.0</ele><time>2026-04-24T23:15:47.56Z</time></trkpt><trkpt lat="37.5693167" lon="15.1641567"><ele>22.0</ele><time>2026-04-24T23:15:48.561Z</time></trkpt><trkpt lat="37.5691683" lon="15.1641333"><ele>21.0</ele><time>2026-04-24T23:15:49.561Z</time></trkpt><trkpt lat="37.5690267" lon="15.1641217"><ele>20.0</ele><time>2026-04-24T23:15:50.56Z</time></trkpt><trkpt lat="37.5688917" lon="15.1641067"><ele>19.0</ele><time>2026-04-24T23:15:51.561Z</time></trkpt><trkpt lat="37.5687617" lon="15.16409"><ele>19.5</ele><time>2026-04-24T23:15:52.561Z</time></trkpt><trkpt lat="37.5686267" lon="15.164065"><ele>20.0</ele><time>2026-04-24T23:15:53.56Z</time></trkpt><trkpt lat="37.5684933" lon="15.1640267"><ele>20.5</ele><time>2026-04-24T23:15:54.56Z</time></trkpt><trkpt lat="37.5683617" lon="15.163955"><ele>21.0</ele><time>2026-04-24T23:15:55.561Z</time></trkpt><trkpt lat="37.56823" lon="15.16387"><ele>22.666666666666664</ele><time>2026-04-24T23:15:56.56Z</time></trkpt><trkpt lat="37.5680983" lon="15.1637717"><ele>24.333333333333332</ele><time>2026-04-24T23:15:57.561Z</time></trkpt><trkpt lat="37.56796" lon="15.1636767"><ele>26.0</ele><time>2026-04-24T23:15:58.561Z</time></trkpt><trkpt lat="37.5678217" lon="15.16358"><ele>26.0</ele><time>2026-04-24T23:15:59.561Z</time></trkpt><trkpt lat="37.567675" lon="15.1634833"><ele>26.0</ele><time>2026-04-24T23:16:00.561Z</time></trkpt><trkpt lat="37.5675333" lon="15.1633917"><ele>26.0</ele><time>2026-04-24T23:16:01.561Z</time></trkpt><trkpt lat="37.5673967" lon="15.1632917"><ele>26.0</ele><time>2026-04-24T23:16:02.561Z</time></trkpt><trkpt lat="37.5672583" lon="15.1632017"><ele>26.0</ele><time>2026-04-24T23:16:03.56Z</time></trkpt><trkpt lat="37.5671333" lon="15.1631033"><ele>26.0</ele><time>2026-04-24T23:16:04.561Z</time></trkpt><trkpt lat="37.567025" lon="15.1629783"><ele>24.666666666666664</ele><time>2026-04-24T23:16:05.56Z</time></trkpt><trkpt lat="37.5669183" lon="15.1628383"><ele>23.333333333333332</ele><time>2026-04-24T23:16:06.56Z</time></trkpt><trkpt lat="37.5668333" lon="15.1626617"><ele>22.0</ele><time>2026-04-24T23:16:07.56Z</time></trkpt><trkpt lat="37.566755" lon="15.16248"><ele>24.333333333333332</ele><time>2026-04-24T23:16:08.56Z</time></trkpt><trkpt lat="37.5666733" lon="15.162295"><ele>26.666666666666664</ele><time>2026-04-24T23:16:09.561Z</time></trkpt><trkpt lat="37.566595" lon="15.16211"><ele>29.0</ele><time>2026-04-24T23:16:10.561Z</time></trkpt><trkpt lat="37.5665217" lon="15.161915"><ele>29.0</ele><time>2026-04-24T23:16:11.561Z</time></trkpt><trkpt lat="37.5664567" lon="15.161725"><ele>29.0</ele><time>2026-04-24T23:16:12.561Z</time></trkpt><trkpt lat="37.5663917" lon="15.1615517"><ele>29.0</ele><time>2026-04-24T23:16:13.561Z</time></trkpt><trkpt lat="37.5663317" lon="15.1613933"><ele>28.5</ele><time>2026-04-24T23:16:14.561Z</time></trkpt><trkpt lat="37.5662767" lon="15.1612467"><ele>28.0</ele><time>2026-04-24T23:16:15.561Z</time></trkpt><trkpt lat="37.5662167" lon="15.16111"><ele>27.5</ele><time>2026-04-24T23:16:16.56Z</time></trkpt><trkpt lat="37.5661483" lon="15.1609817"><ele>27.0</ele><time>2026-04-24T23:16:17.561Z</time></trkpt><trkpt lat="37.5660767" lon="15.1608733"><ele>27.0</ele><time>2026-04-24T23:16:18.56Z</time></trkpt><trkpt lat="37.566" lon="15.1607883"><ele>27.000000000000004</ele><time>2026-04-24T23:16:19.56Z</time></trkpt><trkpt lat="37.5659233" lon="15.1607133"><ele>27.000000000000004</ele><time>2026-04-24T23:16:20.56Z</time></trkpt><trkpt lat="37.56584" lon="15.1606433"><ele>27.0</ele><time>2026-04-24T23:16:21.561Z</time></trkpt><trkpt lat="37.56575" lon="15.16058"><ele>27.0</ele><time>2026-04-24T23:16:22.56Z</time></trkpt><trkpt lat="37.5656633" lon="15.1605217"><ele>29.0</ele><time>2026-04-24T23:16:23.561Z</time></trkpt><trkpt lat="37.5655767" lon="15.16047"><ele>31.000000000000004</ele><time>2026-04-24T23:16:24.561Z</time></trkpt><trkpt lat="37.5654767" lon="15.16043"><ele>33.0</ele><time>2026-04-24T23:16:25.561Z</time></trkpt><trkpt lat="37.56538" lon="15.1603983"><ele>35.0</ele><time>2026-04-24T23:16:26.56Z</time></trkpt><trkpt lat="37.565275" lon="15.1603883"><ele>37.0</ele><time>2026-04-24T23:16:27.561Z</time></trkpt><trkpt lat="37.5651683" lon="15.160385"><ele>37.0</ele><time>2026-04-24T23:16:28.561Z</time></trkpt><trkpt lat="37.5650717" lon="15.160385"><ele>37.0</ele><time>2026-04-24T23:16:29.561Z</time></trkpt><trkpt lat="37.5649683" lon="15.1603967"><ele>37.0</ele><time>2026-04-24T23:16:30.561Z</time></trkpt><trkpt lat="37.5648667" lon="15.1604033"><ele>37.0</ele><time>2026-04-24T23:16:31.561Z</time></trkpt><trkpt lat="37.564765" lon="15.1604167"><ele>37.0</ele><time>2026-04-24T23:16:32.561Z</time></trkpt><trkpt lat="37.56467" lon="15.1604433"><ele>37.0</ele><time>2026-04-24T23:16:33.561Z</time></trkpt><trkpt lat="37.56457" lon="15.1604633"><ele>37.0</ele><time>2026-04-24T23:16:34.561Z</time></trkpt><trkpt lat="37.5644733" lon="15.160475"><ele>37.0</ele><time>2026-04-24T23:16:35.56Z</time></trkpt><trkpt lat="37.5643817" lon="15.160485"><ele>37.0</ele><time>2026-04-24T23:16:36.56Z</time></trkpt><trkpt lat="37.56427" lon="15.1604867"><ele>37.0</ele><time>2026-04-24T23:16:37.561Z</time></trkpt><trkpt lat="37.5641517" lon="15.160485"><ele>37.75</ele><time>2026-04-24T23:16:38.561Z</time></trkpt><trkpt lat="37.56403" lon="15.16046"><ele>38.5</ele><time>2026-04-24T23:16:39.56Z</time></trkpt><trkpt lat="37.5639067" lon="15.1604267"><ele>39.25</ele><time>2026-04-24T23:16:40.561Z</time></trkpt><trkpt lat="37.5637733" lon="15.1603733"><ele>40.0</ele><time>2026-04-24T23:16:41.561Z</time></trkpt><trkpt lat="37.5636417" lon="15.1603083"><ele>37.75</ele><time>2026-04-24T23:16:42.56Z</time></trkpt><trkpt lat="37.56351" lon="15.160245"><ele>35.5</ele><time>2026-04-24T23:16:43.56Z</time></trkpt><trkpt lat="37.56339" lon="15.1601683"><ele>33.25</ele><time>2026-04-24T23:16:44.561Z</time></trkpt><trkpt lat="37.5632733" lon="15.1600933"><ele>31.0</ele><time>2026-04-24T23:16:45.56Z</time></trkpt><trkpt lat="37.56316" lon="15.1600217"><ele>31.0</ele><time>2026-04-24T23:16:46.561Z</time></trkpt><trkpt lat="37.5630433" lon="15.159945"><ele>31.0</ele><time>2026-04-24T23:16:47.561Z</time></trkpt><trkpt lat="37.56292" lon="15.1598633"><ele>31.0</ele><time>2026-04-24T23:16:48.56Z</time></trkpt><trkpt lat="37.5628" lon="15.15978"><ele>31.0</ele><time>2026-04-24T23:16:49.56Z</time></trkpt><trkpt lat="37.5626717" lon="15.1596983"><ele>32.0</ele><time>2026-04-24T23:16:50.561Z</time></trkpt><trkpt lat="37.562545" lon="15.1596217"><ele>33.0</ele><time>2026-04-24T23:16:51.561Z</time></trkpt><trkpt lat="37.5624217" lon="15.1595383"><ele>34.0</ele><time>2026-04-24T23:16:52.56Z</time></trkpt><trkpt lat="37.56231" lon="15.15943"><ele>35.0</ele><time>2026-04-24T23:16:53.561Z</time></trkpt><trkpt lat="37.5622133" lon="15.1593083"><ele>35.0</ele><time>2026-04-24T23:16:54.561Z</time></trkpt><trkpt lat="37.562125" lon="15.1591733"><ele>35.0</ele><time>2026-04-24T23:16:55.561Z</time></trkpt><trkpt lat="37.56205" lon="15.1590217"><ele>35.0</ele><time>2026-04-24T23:16:56.56Z</time></trkpt><trkpt lat="37.5619983" lon="15.1588517"><ele>35.0</ele><time>2026-04-24T23:16:57.56Z</time></trkpt><trkpt lat="37.5619533" lon="15.158675"><ele>33.25</ele><time>2026-04-24T23:16:58.56Z</time></trkpt><trkpt lat="37.561915" lon="15.1584967"><ele>31.5</ele><time>2026-04-24T23:16:59.561Z</time></trkpt><trkpt lat="37.5618683" lon="15.1583233"><ele>29.75</ele><time>2026-04-24T23:17:00.561Z</time></trkpt><trkpt lat="37.5618183" lon="15.1581517"><ele>28.0</ele><time>2026-04-24T23:17:01.561Z</time></trkpt><trkpt lat="37.5617533" lon="15.157995"><ele>28.0</ele><time>2026-04-24T23:17:02.561Z</time></trkpt><trkpt lat="37.5616817" lon="15.1578483"><ele>28.0</ele><time>2026-04-24T23:17:03.56Z</time></trkpt><trkpt lat="37.561595" lon="15.1577067"><ele>28.0</ele><time>2026-04-24T23:17:04.561Z</time></trkpt><trkpt lat="37.561495" lon="15.1575733"><ele>28.0</ele><time>2026-04-24T23:17:05.561Z</time></trkpt><trkpt lat="37.5613783" lon="15.1574383"><ele>31.0</ele><time>2026-04-24T23:17:06.56Z</time></trkpt><trkpt lat="37.56125" lon="15.1573117"><ele>34.0</ele><time>2026-04-24T23:17:07.56Z</time></trkpt><trkpt lat="37.5611183" lon="15.15717"><ele>37.0</ele><time>2026-04-24T23:17:08.561Z</time></trkpt><trkpt lat="37.5609917" lon="15.1570317"><ele>31.0</ele><time>2026-04-24T23:17:09.561Z</time></trkpt><trkpt lat="37.5608617" lon="15.1568967"><ele>25.0</ele><time>2026-04-24T23:17:10.56Z</time></trkpt><trkpt lat="37.56074" lon="15.15676"><ele>19.0</ele><time>2026-04-24T23:17:11.56Z</time></trkpt><trkpt lat="37.56063" lon="15.1566133"><ele>20.666666666666664</ele><time>2026-04-24T23:17:12.561Z</time></trkpt><trkpt lat="37.5605383" lon="15.1564533"><ele>22.333333333333332</ele><time>2026-04-24T23:17:13.561Z</time></trkpt><trkpt lat="37.5604633" lon="15.1562767"><ele>24.0</ele><time>2026-04-24T23:17:14.561Z</time></trkpt><trkpt lat="37.560395" lon="15.156085"><ele>21.0</ele><time>2026-04-24T23:17:15.56Z</time></trkpt><trkpt lat="37.5603267" lon="15.1558933"><ele>18.0</ele><time>2026-04-24T23:17:16.56Z</time></trkpt><trkpt lat="37.5602567" lon="15.1556983"><ele>15.0</ele><time>2026-04-24T23:17:17.561Z</time></trkpt><trkpt lat="37.56019" lon="15.1555033"><ele>15.0</ele><time>2026-04-24T23:17:18.56Z</time></trkpt><trkpt lat="37.5601233" lon="15.1553017"><ele>15.0</ele><time>2026-04-24T23:17:19.56Z</time></trkpt><trkpt lat="37.5600517" lon="15.1551"><ele>15.0</ele><time>2026-04-24T23:17:20.561Z</time></trkpt><trkpt lat="37.5599783" lon="15.1548933"><ele>17.0</ele><time>2026-04-24T23:17:21.561Z</time></trkpt><trkpt lat="37.559905" lon="15.154685"><ele>19.0</ele><time>2026-04-24T23:17:22.56Z</time></trkpt><trkpt lat="37.559835" lon="15.15448"><ele>21.0</ele><time>2026-04-24T23:17:23.56Z</time></trkpt><trkpt lat="37.5597633" lon="15.1542817"><ele>21.0</ele><time>2026-04-24T23:17:24.561Z</time></trkpt><trkpt lat="37.5596983" lon="15.15409"><ele>21.0</ele><time>2026-04-24T23:17:25.56Z</time></trkpt><trkpt lat="37.5596317" lon="15.1538967"><ele>21.0</ele><time>2026-04-24T23:17:26.56Z</time></trkpt><trkpt lat="37.5595717" lon="15.1537067"><ele>19.333333333333332</ele><time>2026-04-24T23:17:27.561Z</time></trkpt><trkpt lat="37.55951" lon="15.1535133"><ele>17.666666666666664</ele><time>2026-04-24T23:17:28.561Z</time></trkpt><trkpt lat="37.5594433" lon="15.15332"><ele>16.0</ele><time>2026-04-24T23:17:29.561Z</time></trkpt><trkpt lat="37.559375" lon="15.1531233"><ele>16.0</ele><time>2026-04-24T23:17:30.561Z</time></trkpt><trkpt lat="37.5593133" lon="15.1529283"><ele>16.0</ele><time>2026-04-24T23:17:31.561Z</time></trkpt><trkpt lat="37.55925" lon="15.1527467"><ele>16.0</ele><time>2026-04-24T23:17:32.56Z</time></trkpt><trkpt lat="37.5591883" lon="15.15257"><ele>16.0</ele><time>2026-04-24T23:17:33.561Z</time></trkpt><trkpt lat="37.55913" lon="15.152415"><ele>16.0</ele><time>2026-04-24T23:17:34.56Z</time></trkpt><trkpt lat="37.5590717" lon="15.1522667"><ele>16.0</ele><time>2026-04-24T23:17:35.561Z</time></trkpt><trkpt lat="37.5590217" lon="15.1521267"><ele>16.0</ele><time>2026-04-24T23:17:36.56Z</time></trkpt><trkpt lat="37.5589733" lon="15.152005"><ele>17.333333333333332</ele><time>2026-04-24T23:17:37.561Z</time></trkpt><trkpt lat="37.5589383" lon="15.151905"><ele>18.666666666666664</ele><time>2026-04-24T23:17:38.56Z</time></trkpt><trkpt lat="37.5589133" lon="15.15183"><ele>20.0</ele><time>2026-04-24T23:17:39.561Z</time></trkpt><trkpt lat="37.558885" lon="15.151755"><ele>21.333333333333332</ele><time>2026-04-24T23:17:41.56Z</time></trkpt><trkpt lat="37.5588533" lon="15.1516817"><ele>22.666666666666668</ele><time>2026-04-24T23:17:44.561Z</time></trkpt><trkpt lat="37.55882" lon="15.151575"><ele>24.0</ele><time>2026-04-24T23:17:46.561Z</time></trkpt><trkpt lat="37.5587783" lon="15.1514083"><ele>24.833333333333332</ele><time>2026-04-24T23:17:48.56Z</time></trkpt><trkpt lat="37.5587667" lon="15.1513"><ele>25.666666666666664</ele><time>2026-04-24T23:17:49.56Z</time></trkpt><trkpt lat="37.5587633" lon="15.15119"><ele>26.5</ele><time>2026-04-24T23:17:50.56Z</time></trkpt><trkpt lat="37.55876" lon="15.1510883"><ele>27.333333333333332</ele><time>2026-04-24T23:17:51.56Z</time></trkpt><trkpt lat="37.55876" lon="15.1509783"><ele>28.166666666666664</ele><time>2026-04-24T23:17:52.56Z</time></trkpt><trkpt lat="37.55877" lon="15.1508617"><ele>29.0</ele><time>2026-04-24T23:17:53.561Z</time></trkpt><trkpt lat="37.5587883" lon="15.1507333"><ele>29.6</ele><time>2026-04-24T23:17:54.56Z</time></trkpt><trkpt lat="37.5588" lon="15.15059"><ele>30.2</ele><time>2026-04-24T23:17:55.56Z</time></trkpt><trkpt lat="37.5587933" lon="15.1504483"><ele>30.800000000000004</ele><time>2026-04-24T23:17:56.561Z</time></trkpt><trkpt lat="37.5587783" lon="15.15032"><ele>31.400000000000002</ele><time>2026-04-24T23:17:57.56Z</time></trkpt><trkpt lat="37.558745" lon="15.150185"><ele>32.0</ele><time>2026-04-24T23:17:58.561Z</time></trkpt><trkpt lat="37.5587033" lon="15.1500533"><ele>30.8</ele><time>2026-04-24T23:17:59.561Z</time></trkpt><trkpt lat="37.5586583" lon="15.1499183"><ele>29.6</ele><time>2026-04-24T23:18:00.561Z</time></trkpt><trkpt lat="37.5586117" lon="15.149785"><ele>28.400000000000002</ele><time>2026-04-24T23:18:01.561Z</time></trkpt><trkpt lat="37.558565" lon="15.1496617"><ele>27.200000000000003</ele><time>2026-04-24T23:18:02.561Z</time></trkpt><trkpt lat="37.5585167" lon="15.1495617"><ele>26.0</ele><time>2026-04-24T23:18:03.56Z</time></trkpt><trkpt lat="37.5584783" lon="15.1494617"><ele>26.0</ele><time>2026-04-24T23:18:04.56Z</time></trkpt><trkpt lat="37.5584383" lon="15.1493483"><ele>26.0</ele><time>2026-04-24T23:18:05.56Z</time></trkpt><trkpt lat="37.5583933" lon="15.1492267"><ele>26.0</ele><time>2026-04-24T23:18:06.561Z</time></trkpt><trkpt lat="37.558345" lon="15.149095"><ele>26.0</ele><time>2026-04-24T23:18:07.561Z</time></trkpt><trkpt lat="37.5582883" lon="15.148955"><ele>26.0</ele><time>2026-04-24T23:18:08.56Z</time></trkpt><trkpt lat="37.5582283" lon="15.14881"><ele>27.0</ele><time>2026-04-24T23:18:09.561Z</time></trkpt><trkpt lat="37.5581667" lon="15.1486717"><ele>28.0</ele><time>2026-04-24T23:18:10.561Z</time></trkpt><trkpt lat="37.5581017" lon="15.148535"><ele>29.0</ele><time>2026-04-24T23:18:11.56Z</time></trkpt><trkpt lat="37.558025" lon="15.1484133"><ele>30.0</ele><time>2026-04-24T23:18:12.561Z</time></trkpt><trkpt lat="37.557945" lon="15.1483017"><ele>30.25</ele><time>2026-04-24T23:18:13.561Z</time></trkpt><trkpt lat="37.557855" lon="15.1482067"><ele>30.5</ele><time>2026-04-24T23:18:14.561Z</time></trkpt><trkpt lat="37.557765" lon="15.1481017"><ele>30.75</ele><time>2026-04-24T23:18:15.561Z</time></trkpt><trkpt lat="37.5576733" lon="15.1479883"><ele>31.0</ele><time>2026-04-24T23:18:16.561Z</time></trkpt><trkpt lat="37.5575833" lon="15.1478817"><ele>31.0</ele><time>2026-04-24T23:18:17.561Z</time></trkpt><trkpt lat="37.5575" lon="15.1477833"><ele>31.0</ele><time>2026-04-24T23:18:18.56Z</time></trkpt><trkpt lat="37.55742" lon="15.1476833"><ele>31.0</ele><time>2026-04-24T23:18:19.561Z</time></trkpt><trkpt lat="37.557345" lon="15.14757"><ele>31.0</ele><time>2026-04-24T23:18:20.561Z</time></trkpt><trkpt lat="37.557285" lon="15.14744"><ele>31.0</ele><time>2026-04-24T23:18:21.561Z</time></trkpt><trkpt lat="37.557215" lon="15.1473"><ele>31.0</ele><time>2026-04-24T23:18:22.56Z</time></trkpt><trkpt lat="37.5571467" lon="15.1471467"><ele>31.0</ele><time>2026-04-24T23:18:23.56Z</time></trkpt><trkpt lat="37.5570833" lon="15.146985"><ele>31.0</ele><time>2026-04-24T23:18:24.561Z</time></trkpt><trkpt lat="37.557015" lon="15.1468133"><ele>31.0</ele><time>2026-04-24T23:18:25.561Z</time></trkpt><trkpt lat="37.5569383" lon="15.1466367"><ele>31.0</ele><time>2026-04-24T23:18:26.56Z</time></trkpt><trkpt lat="37.556865" lon="15.1464617"><ele>31.0</ele><time>2026-04-24T23:18:27.56Z</time></trkpt><trkpt lat="37.55679" lon="15.1462833"><ele>33.0</ele><time>2026-04-24T23:18:28.561Z</time></trkpt><trkpt lat="37.5567117" lon="15.1460983"><ele>35.0</ele><time>2026-04-24T23:18:29.56Z</time></trkpt><trkpt lat="37.5566383" lon="15.1459083"><ele>37.0</ele><time>2026-04-24T23:18:30.561Z</time></trkpt><trkpt lat="37.5565633" lon="15.1457167"><ele>38.0</ele><time>2026-04-24T23:18:31.56Z</time></trkpt><trkpt lat="37.5564933" lon="15.145535"><ele>39.0</ele><time>2026-04-24T23:18:32.561Z</time></trkpt><trkpt lat="37.55643" lon="15.1453617"><ele>40.0</ele><time>2026-04-24T23:18:33.561Z</time></trkpt><trkpt lat="37.556345" lon="15.1452083"><ele>40.0</ele><time>2026-04-24T23:18:34.561Z</time></trkpt><trkpt lat="37.5562467" lon="15.14506"><ele>40.0</ele><time>2026-04-24T23:18:35.56Z</time></trkpt><trkpt lat="37.5561333" lon="15.1449267"><ele>40.0</ele><time>2026-04-24T23:18:36.561Z</time></trkpt><trkpt lat="37.5560133" lon="15.1448133"><ele>39.0</ele><time>2026-04-24T23:18:37.56Z</time></trkpt><trkpt lat="37.5558833" lon="15.14472"><ele>38.0</ele><time>2026-04-24T23:18:38.56Z</time></trkpt><trkpt lat="37.5557483" lon="15.14466"><ele>37.0</ele><time>2026-04-24T23:18:39.56Z</time></trkpt><trkpt lat="37.5556133" lon="15.14462"><ele>36.0</ele><time>2026-04-24T23:18:40.561Z</time></trkpt><trkpt lat="37.5554733" lon="15.1445933"><ele>35.0</ele><time>2026-04-24T23:18:41.56Z</time></trkpt><trkpt lat="37.5553283" lon="15.1445783"><ele>34.0</ele><time>2026-04-24T23:18:42.561Z</time></trkpt><trkpt lat="37.555165" lon="15.1445867"><ele>33.0</ele><time>2026-04-24T23:18:43.561Z</time></trkpt><trkpt lat="37.5549933" lon="15.144605"><ele>33.0</ele><time>2026-04-24T23:18:44.561Z</time></trkpt><trkpt lat="37.5548217" lon="15.14463"><ele>33.0</ele><time>2026-04-24T23:18:45.561Z</time></trkpt><trkpt lat="37.5546467" lon="15.1446517"><ele>33.0</ele><time>2026-04-24T23:18:46.561Z</time></trkpt><trkpt lat="37.5544633" lon="15.144675"><ele>32.333333333333336</ele><time>2026-04-24T23:18:47.56Z</time></trkpt><trkpt lat="37.5542917" lon="15.1446933"><ele>31.666666666666668</ele><time>2026-04-24T23:18:48.561Z</time></trkpt><trkpt lat="37.5541217" lon="15.1447117"><ele>31.0</ele><time>2026-04-24T23:18:49.561Z</time></trkpt><trkpt lat="37.5539633" lon="15.144735"><ele>31.0</ele><time>2026-04-24T23:18:50.561Z</time></trkpt><trkpt lat="37.553795" lon="15.1447517"><ele>31.0</ele><time>2026-04-24T23:18:51.561Z</time></trkpt><trkpt lat="37.5536333" lon="15.1447633"><ele>31.0</ele><time>2026-04-24T23:18:52.56Z</time></trkpt><trkpt lat="37.5534733" lon="15.1447817"><ele>30.333333333333336</ele><time>2026-04-24T23:18:53.561Z</time></trkpt><trkpt lat="37.553305" lon="15.1448033"><ele>29.666666666666664</ele><time>2026-04-24T23:18:54.56Z</time></trkpt><trkpt lat="37.5531417" lon="15.144815"><ele>29.0</ele><time>2026-04-24T23:18:55.56Z</time></trkpt><trkpt lat="37.55298" lon="15.1448367"><ele>29.333333333333332</ele><time>2026-04-24T23:18:56.561Z</time></trkpt><trkpt lat="37.5528183" lon="15.1448583"><ele>29.666666666666664</ele><time>2026-04-24T23:18:57.561Z</time></trkpt><trkpt lat="37.5526683" lon="15.1448767"><ele>30.0</ele><time>2026-04-24T23:18:58.56Z</time></trkpt><trkpt lat="37.55251" lon="15.1448867"><ele>30.0</ele><time>2026-04-24T23:18:59.561Z</time></trkpt><trkpt lat="37.5523583" lon="15.144885"><ele>30.0</ele><time>2026-04-24T23:19:00.56Z</time></trkpt><trkpt lat="37.5522167" lon="15.1448717"><ele>30.0</ele><time>2026-04-24T23:19:01.561Z</time></trkpt><trkpt lat="37.5520683" lon="15.1448383"><ele>30.0</ele><time>2026-04-24T23:19:02.561Z</time></trkpt><trkpt lat="37.551925" lon="15.1447817"><ele>30.666666666666664</ele><time>2026-04-24T23:19:03.561Z</time></trkpt><trkpt lat="37.5517833" lon="15.1447117"><ele>31.333333333333332</ele><time>2026-04-24T23:19:04.561Z</time></trkpt><trkpt lat="37.5516433" lon="15.1446333"><ele>32.0</ele><time>2026-04-24T23:19:05.561Z</time></trkpt><trkpt lat="37.5514883" lon="15.1445483"><ele>32.0</ele><time>2026-04-24T23:19:06.56Z</time></trkpt><trkpt lat="37.5513317" lon="15.14446"><ele>32.0</ele><time>2026-04-24T23:19:07.561Z</time></trkpt><trkpt lat="37.5511733" lon="15.14437"><ele>32.0</ele><time>2026-04-24T23:19:08.56Z</time></trkpt><trkpt lat="37.5510117" lon="15.1442833"><ele>31.333333333333332</ele><time>2026-04-24T23:19:09.561Z</time></trkpt><trkpt lat="37.5508483" lon="15.1441967"><ele>30.666666666666664</ele><time>2026-04-24T23:19:10.56Z</time></trkpt><trkpt lat="37.5506767" lon="15.144105"><ele>30.0</ele><time>2026-04-24T23:19:11.56Z</time></trkpt><trkpt lat="37.5504983" lon="15.1440083"><ele>30.666666666666664</ele><time>2026-04-24T23:19:12.56Z</time></trkpt><trkpt lat="37.5503217" lon="15.1439133"><ele>31.333333333333332</ele><time>2026-04-24T23:19:13.56Z</time></trkpt><trkpt lat="37.5501433" lon="15.1438217"><ele>32.0</ele><time>2026-04-24T23:19:14.561Z</time></trkpt><trkpt lat="37.549965" lon="15.14373"><ele>32.0</ele><time>2026-04-24T23:19:15.561Z</time></trkpt><trkpt lat="37.5497867" lon="15.1436367"><ele>32.0</ele><time>2026-04-24T23:19:16.56Z</time></trkpt><trkpt lat="37.5496017" lon="15.1435367"><ele>32.0</ele><time>2026-04-24T23:19:17.56Z</time></trkpt><trkpt lat="37.5494267" lon="15.143445"><ele>33.0</ele><time>2026-04-24T23:19:18.56Z</time></trkpt><trkpt lat="37.5492617" lon="15.143355"><ele>34.0</ele><time>2026-04-24T23:19:19.561Z</time></trkpt><trkpt lat="37.5491033" lon="15.1432567"><ele>35.0</ele><time>2026-04-24T23:19:20.56Z</time></trkpt><trkpt lat="37.5489483" lon="15.1431517"><ele>35.0</ele><time>2026-04-24T23:19:21.56Z</time></trkpt><trkpt lat="37.548795" lon="15.1430367"><ele>35.0</ele><time>2026-04-24T23:19:22.56Z</time></trkpt><trkpt lat="37.5486433" lon="15.1429133"><ele>35.0</ele><time>2026-04-24T23:19:23.561Z</time></trkpt><trkpt lat="37.54849" lon="15.1427833"><ele>34.0</ele><time>2026-04-24T23:19:24.561Z</time></trkpt><trkpt lat="37.548335" lon="15.1426467"><ele>33.0</ele><time>2026-04-24T23:19:25.561Z</time></trkpt><trkpt lat="37.548185" lon="15.1425033"><ele>32.0</ele><time>2026-04-24T23:19:26.561Z</time></trkpt><trkpt lat="37.5480383" lon="15.1423567"><ele>32.0</ele><time>2026-04-24T23:19:27.561Z</time></trkpt><trkpt lat="37.5478967" lon="15.1421867"><ele>32.0</ele><time>2026-04-24T23:19:28.561Z</time></trkpt><trkpt lat="37.5477583" lon="15.1420267"><ele>32.0</ele><time>2026-04-24T23:19:29.56Z</time></trkpt><trkpt lat="37.5476183" lon="15.1418683"><ele>31.666666666666664</ele><time>2026-04-24T23:19:30.561Z</time></trkpt><trkpt lat="37.5474867" lon="15.1417183"><ele>31.333333333333336</ele><time>2026-04-24T23:19:31.56Z</time></trkpt><trkpt lat="37.54736" lon="15.1415883"><ele>31.0</ele><time>2026-04-24T23:19:32.561Z</time></trkpt><trkpt lat="37.5472367" lon="15.14145"><ele>31.0</ele><time>2026-04-24T23:19:33.56Z</time></trkpt><trkpt lat="37.547125" lon="15.1413133"><ele>31.0</ele><time>2026-04-24T23:19:34.561Z</time></trkpt><trkpt lat="37.5470217" lon="15.141165"><ele>31.0</ele><time>2026-04-24T23:19:35.56Z</time></trkpt><trkpt lat="37.546945" lon="15.1409983"><ele>30.333333333333336</ele><time>2026-04-24T23:19:36.561Z</time></trkpt><trkpt lat="37.546875" lon="15.1408167"><ele>29.666666666666664</ele><time>2026-04-24T23:19:37.561Z</time></trkpt><trkpt lat="37.5468233" lon="15.1406233"><ele>29.0</ele><time>2026-04-24T23:19:38.561Z</time></trkpt><trkpt lat="37.5467733" lon="15.140425"><ele>31.333333333333332</ele><time>2026-04-24T23:19:39.56Z</time></trkpt><trkpt lat="37.5467267" lon="15.14023"><ele>33.666666666666664</ele><time>2026-04-24T23:19:40.56Z</time></trkpt><trkpt lat="37.5466833" lon="15.140035"><ele>36.0</ele><time>2026-04-24T23:19:41.561Z</time></trkpt><trkpt lat="37.5466383" lon="15.1398317"><ele>36.666666666666664</ele><time>2026-04-24T23:19:42.56Z</time></trkpt><trkpt lat="37.5465933" lon="15.1396267"><ele>37.33333333333333</ele><time>2026-04-24T23:19:43.56Z</time></trkpt><trkpt lat="37.546545" lon="15.13942"><ele>38.0</ele><time>2026-04-24T23:19:44.56Z</time></trkpt><trkpt lat="37.546495" lon="15.1392133"><ele>39.0</ele><time>2026-04-24T23:19:45.561Z</time></trkpt><trkpt lat="37.546445" lon="15.139"><ele>40.0</ele><time>2026-04-24T23:19:46.561Z</time></trkpt><trkpt lat="37.5463917" lon="15.138785"><ele>41.0</ele><time>2026-04-24T23:19:47.561Z</time></trkpt><trkpt lat="37.54634" lon="15.13858"><ele>41.0</ele><time>2026-04-24T23:19:48.56Z</time></trkpt><trkpt lat="37.5462817" lon="15.1383967"><ele>41.0</ele><time>2026-04-24T23:19:49.561Z</time></trkpt><trkpt lat="37.546205" lon="15.1382267"><ele>41.0</ele><time>2026-04-24T23:19:50.56Z</time></trkpt><trkpt lat="37.5461133" lon="15.138065"><ele>41.33333333333333</ele><time>2026-04-24T23:19:51.56Z</time></trkpt><trkpt lat="37.546005" lon="15.1379133"><ele>41.666666666666664</ele><time>2026-04-24T23:19:52.56Z</time></trkpt><trkpt lat="37.5458983" lon="15.1377567"><ele>42.0</ele><time>2026-04-24T23:19:53.561Z</time></trkpt><trkpt lat="37.54581" lon="15.1375917"><ele>42.0</ele><time>2026-04-24T23:19:54.561Z</time></trkpt><trkpt lat="37.5457433" lon="15.13742"><ele>42.0</ele><time>2026-04-24T23:19:55.561Z</time></trkpt><trkpt lat="37.545695" lon="15.137225"><ele>42.0</ele><time>2026-04-24T23:19:56.561Z</time></trkpt><trkpt lat="37.545665" lon="15.1370233"><ele>42.666666666666664</ele><time>2026-04-24T23:19:57.561Z</time></trkpt><trkpt lat="37.54564" lon="15.1368167"><ele>43.33333333333333</ele><time>2026-04-24T23:19:58.561Z</time></trkpt><trkpt lat="37.5456183" lon="15.13661"><ele>44.0</ele><time>2026-04-24T23:19:59.56Z</time></trkpt><trkpt lat="37.5455933" lon="15.1363983"><ele>44.33333333333333</ele><time>2026-04-24T23:20:00.56Z</time></trkpt><trkpt lat="37.5455683" lon="15.1361917"><ele>44.666666666666664</ele><time>2026-04-24T23:20:01.561Z</time></trkpt><trkpt lat="37.5455417" lon="15.1359767"><ele>45.0</ele><time>2026-04-24T23:20:02.561Z</time></trkpt><trkpt lat="37.5455183" lon="15.13577"><ele>45.333333333333336</ele><time>2026-04-24T23:20:03.56Z</time></trkpt><trkpt lat="37.545495" lon="15.135555"><ele>45.66666666666667</ele><time>2026-04-24T23:20:04.561Z</time></trkpt><trkpt lat="37.5454683" lon="15.1353367"><ele>46.0</ele><time>2026-04-24T23:20:05.56Z</time></trkpt><trkpt lat="37.5454367" lon="15.1351117"><ele>45.333333333333336</ele><time>2026-04-24T23:20:06.56Z</time></trkpt><trkpt lat="37.5454017" lon="15.1348817"><ele>44.666666666666664</ele><time>2026-04-24T23:20:07.56Z</time></trkpt><trkpt lat="37.54537" lon="15.13464"><ele>44.0</ele><time>2026-04-24T23:20:08.56Z</time></trkpt><trkpt lat="37.545345" lon="15.1343917"><ele>43.666666666666664</ele><time>2026-04-24T23:20:09.56Z</time></trkpt><trkpt lat="37.5453133" lon="15.1341417"><ele>43.333333333333336</ele><time>2026-04-24T23:20:10.56Z</time></trkpt><trkpt lat="37.54528" lon="15.1338883"><ele>43.0</ele><time>2026-04-24T23:20:11.561Z</time></trkpt><trkpt lat="37.54525" lon="15.1336367"><ele>43.0</ele><time>2026-04-24T23:20:12.561Z</time></trkpt><trkpt lat="37.54522" lon="15.1333933"><ele>43.0</ele><time>2026-04-24T23:20:13.56Z</time></trkpt><trkpt lat="37.5452017" lon="15.1331633"><ele>43.0</ele><time>2026-04-24T23:20:14.561Z</time></trkpt><trkpt lat="37.545185" lon="15.132945"><ele>44.0</ele><time>2026-04-24T23:20:15.56Z</time></trkpt><trkpt lat="37.5451683" lon="15.132745"><ele>45.0</ele><time>2026-04-24T23:20:16.561Z</time></trkpt><trkpt lat="37.54515" lon="15.132555"><ele>46.0</ele><time>2026-04-24T23:20:17.56Z</time></trkpt><trkpt lat="37.54514" lon="15.1323717"><ele>46.75</ele><time>2026-04-24T23:20:18.561Z</time></trkpt><trkpt lat="37.5451317" lon="15.132195"><ele>47.5</ele><time>2026-04-24T23:20:19.56Z</time></trkpt><trkpt lat="37.5451167" lon="15.1320167"><ele>48.25</ele><time>2026-04-24T23:20:20.56Z</time></trkpt><trkpt lat="37.5451017" lon="15.1318483"><ele>49.0</ele><time>2026-04-24T23:20:21.561Z</time></trkpt><trkpt lat="37.545085" lon="15.131695"><ele>49.2</ele><time>2026-04-24T23:20:22.56Z</time></trkpt><trkpt lat="37.5450617" lon="15.1315567"><ele>49.400000000000006</ele><time>2026-04-24T23:20:23.561Z</time></trkpt><trkpt lat="37.5450217" lon="15.1314367"><ele>49.6</ele><time>2026-04-24T23:20:24.56Z</time></trkpt><trkpt lat="37.5449667" lon="15.1313233"><ele>49.8</ele><time>2026-04-24T23:20:25.56Z</time></trkpt><trkpt lat="37.5448883" lon="15.13122"><ele>50.0</ele><time>2026-04-24T23:20:26.56Z</time></trkpt><trkpt lat="37.5447983" lon="15.1311233"><ele>50.0</ele><time>2026-04-24T23:20:27.561Z</time></trkpt><trkpt lat="37.5446817" lon="15.1310583"><ele>50.0</ele><time>2026-04-24T23:20:28.56Z</time></trkpt><trkpt lat="37.544555" lon="15.1310067"><ele>50.0</ele><time>2026-04-24T23:20:29.56Z</time></trkpt><trkpt lat="37.5444183" lon="15.130965"><ele>50.0</ele><time>2026-04-24T23:20:30.561Z</time></trkpt><trkpt lat="37.5442867" lon="15.13093"><ele>49.0</ele><time>2026-04-24T23:20:31.56Z</time></trkpt><trkpt lat="37.5441467" lon="15.1308883"><ele>48.0</ele><time>2026-04-24T23:20:32.56Z</time></trkpt><trkpt lat="37.5440033" lon="15.1308483"><ele>47.0</ele><time>2026-04-24T23:20:33.561Z</time></trkpt><trkpt lat="37.543855" lon="15.13081"><ele>46.0</ele><time>2026-04-24T23:20:34.56Z</time></trkpt><trkpt lat="37.54371" lon="15.1307667"><ele>45.5</ele><time>2026-04-24T23:20:35.56Z</time></trkpt><trkpt lat="37.5435617" lon="15.130725"><ele>45.0</ele><time>2026-04-24T23:20:36.56Z</time></trkpt><trkpt lat="37.54342" lon="15.1306883"><ele>44.5</ele><time>2026-04-24T23:20:37.56Z</time></trkpt><trkpt lat="37.5432817" lon="15.1306517"><ele>44.0</ele><time>2026-04-24T23:20:38.56Z</time></trkpt><trkpt lat="37.543155" lon="15.1306167"><ele>44.5</ele><time>2026-04-24T23:20:39.561Z</time></trkpt><trkpt lat="37.5430283" lon="15.1305767"><ele>45.0</ele><time>2026-04-24T23:20:40.56Z</time></trkpt><trkpt lat="37.5429033" lon="15.1305283"><ele>45.5</ele><time>2026-04-24T23:20:41.56Z</time></trkpt><trkpt lat="37.542775" lon="15.1304717"><ele>46.0</ele><time>2026-04-24T23:20:42.561Z</time></trkpt><trkpt lat="37.5426367" lon="15.1303967"><ele>46.0</ele><time>2026-04-24T23:20:43.56Z</time></trkpt><trkpt lat="37.5424967" lon="15.1303067"><ele>46.0</ele><time>2026-04-24T23:20:44.56Z</time></trkpt><trkpt lat="37.5423517" lon="15.13021"><ele>46.0</ele><time>2026-04-24T23:20:45.56Z</time></trkpt><trkpt lat="37.542195" lon="15.1301133"><ele>46.66666666666667</ele><time>2026-04-24T23:20:46.56Z</time></trkpt><trkpt lat="37.5420383" lon="15.1300017"><ele>47.333333333333336</ele><time>2026-04-24T23:20:47.56Z</time></trkpt><trkpt lat="37.5418817" lon="15.1298817"><ele>48.0</ele><time>2026-04-24T23:20:48.56Z</time></trkpt><trkpt lat="37.5417233" lon="15.1297633"><ele>48.0</ele><time>2026-04-24T23:20:49.561Z</time></trkpt><trkpt lat="37.5415633" lon="15.1296433"><ele>48.0</ele><time>2026-04-24T23:20:50.56Z</time></trkpt><trkpt lat="37.541405" lon="15.12951"><ele>48.0</ele><time>2026-04-24T23:20:51.56Z</time></trkpt><trkpt lat="37.5412533" lon="15.1293683"><ele>47.333333333333336</ele><time>2026-04-24T23:20:52.56Z</time></trkpt><trkpt lat="37.5411067" lon="15.12922"><ele>46.66666666666667</ele><time>2026-04-24T23:20:53.561Z</time></trkpt><trkpt lat="37.5409767" lon="15.1290817"><ele>46.0</ele><time>2026-04-24T23:20:54.56Z</time></trkpt><trkpt lat="37.5408567" lon="15.1289483"><ele>46.0</ele><time>2026-04-24T23:20:55.561Z</time></trkpt><trkpt lat="37.5407433" lon="15.1288067"><ele>46.0</ele><time>2026-04-24T23:20:56.56Z</time></trkpt><trkpt lat="37.5406333" lon="15.12866"><ele>46.0</ele><time>2026-04-24T23:20:57.561Z</time></trkpt><trkpt lat="37.5405233" lon="15.1285"><ele>46.0</ele><time>2026-04-24T23:20:58.56Z</time></trkpt><trkpt lat="37.540415" lon="15.12833"><ele>46.0</ele><time>2026-04-24T23:20:59.56Z</time></trkpt><trkpt lat="37.54031" lon="15.12815"><ele>46.0</ele><time>2026-04-24T23:21:00.561Z</time></trkpt><trkpt lat="37.5402083" lon="15.127965"><ele>44.66666666666667</ele><time>2026-04-24T23:21:01.561Z</time></trkpt><trkpt lat="37.540115" lon="15.1277783"><ele>43.333333333333336</ele><time>2026-04-24T23:21:02.561Z</time></trkpt><trkpt lat="37.5400283" lon="15.1275967"><ele>42.0</ele><time>2026-04-24T23:21:03.56Z</time></trkpt><trkpt lat="37.5399483" lon="15.127405"><ele>42.333333333333336</ele><time>2026-04-24T23:21:04.561Z</time></trkpt><trkpt lat="37.5398717" lon="15.127225"><ele>42.66666666666667</ele><time>2026-04-24T23:21:05.561Z</time></trkpt><trkpt lat="37.5398" lon="15.12705"><ele>43.0</ele><time>2026-04-24T23:21:06.561Z</time></trkpt><trkpt lat="37.539735" lon="15.1268783"><ele>43.0</ele><time>2026-04-24T23:21:07.561Z</time></trkpt><trkpt lat="37.5396767" lon="15.1267067"><ele>43.0</ele><time>2026-04-24T23:21:08.561Z</time></trkpt><trkpt lat="37.5396267" lon="15.1265233"><ele>43.0</ele><time>2026-04-24T23:21:09.561Z</time></trkpt><trkpt lat="37.5395817" lon="15.126335"><ele>40.66666666666667</ele><time>2026-04-24T23:21:10.56Z</time></trkpt><trkpt lat="37.53955" lon="15.1261367"><ele>38.333333333333336</ele><time>2026-04-24T23:21:11.561Z</time></trkpt><trkpt lat="37.5395183" lon="15.1259333"><ele>36.0</ele><time>2026-04-24T23:21:12.561Z</time></trkpt><trkpt lat="37.539495" lon="15.1257433"><ele>36.333333333333336</ele><time>2026-04-24T23:21:13.56Z</time></trkpt><trkpt lat="37.53947" lon="15.1255567"><ele>36.66666666666667</ele><time>2026-04-24T23:21:14.561Z</time></trkpt><trkpt lat="37.539455" lon="15.1253583"><ele>37.0</ele><time>2026-04-24T23:21:15.56Z</time></trkpt><trkpt lat="37.5394467" lon="15.1251567"><ele>37.0</ele><time>2026-04-24T23:21:16.561Z</time></trkpt><trkpt lat="37.5394433" lon="15.1249517"><ele>37.0</ele><time>2026-04-24T23:21:17.56Z</time></trkpt><trkpt lat="37.5394467" lon="15.1247433"><ele>37.0</ele><time>2026-04-24T23:21:18.56Z</time></trkpt><trkpt lat="37.5394517" lon="15.1245183"><ele>36.0</ele><time>2026-04-24T23:21:19.561Z</time></trkpt><trkpt lat="37.5394717" lon="15.1242883"><ele>35.0</ele><time>2026-04-24T23:21:20.562Z</time></trkpt><trkpt lat="37.53949" lon="15.124055"><ele>34.0</ele><time>2026-04-24T23:21:21.561Z</time></trkpt><trkpt lat="37.539495" lon="15.1238117"><ele>32.333333333333336</ele><time>2026-04-24T23:21:22.562Z</time></trkpt><trkpt lat="37.53951" lon="15.12359"><ele>30.666666666666664</ele><time>2026-04-24T23:21:23.561Z</time></trkpt><trkpt lat="37.5395233" lon="15.1233717"><ele>29.0</ele><time>2026-04-24T23:21:24.562Z</time></trkpt><trkpt lat="37.5395317" lon="15.123175"><ele>28.25</ele><time>2026-04-24T23:21:25.562Z</time></trkpt><trkpt lat="37.53954" lon="15.1229917"><ele>27.5</ele><time>2026-04-24T23:21:26.561Z</time></trkpt><trkpt lat="37.5395367" lon="15.1228183"><ele>26.75</ele><time>2026-04-24T23:21:27.562Z</time></trkpt><trkpt lat="37.53954" lon="15.1226617"><ele>26.0</ele><time>2026-04-24T23:21:28.562Z</time></trkpt><trkpt lat="37.539545" lon="15.122515"><ele>27.0</ele><time>2026-04-24T23:21:29.562Z</time></trkpt><trkpt lat="37.53955" lon="15.1223717"><ele>28.0</ele><time>2026-04-24T23:21:30.561Z</time></trkpt><trkpt lat="37.5395667" lon="15.1222317"><ele>29.0</ele><time>2026-04-24T23:21:31.561Z</time></trkpt><trkpt lat="37.5395833" lon="15.122095"><ele>30.0</ele><time>2026-04-24T23:21:32.562Z</time></trkpt><trkpt lat="37.539585" lon="15.121965"><ele>31.0</ele><time>2026-04-24T23:21:33.562Z</time></trkpt><trkpt lat="37.53956" lon="15.1218217"><ele>31.0</ele><time>2026-04-24T23:21:34.561Z</time></trkpt><trkpt lat="37.5395133" lon="15.1216833"><ele>31.0</ele><time>2026-04-24T23:21:35.561Z</time></trkpt><trkpt lat="37.5394567" lon="15.121535"><ele>31.0</ele><time>2026-04-24T23:21:36.562Z</time></trkpt><trkpt lat="37.539405" lon="15.1213667"><ele>31.0</ele><time>2026-04-24T23:21:37.562Z</time></trkpt><trkpt lat="37.5393533" lon="15.121195"><ele>32.0</ele><time>2026-04-24T23:21:38.562Z</time></trkpt><trkpt lat="37.5393" lon="15.121025"><ele>33.0</ele><time>2026-04-24T23:21:39.561Z</time></trkpt><trkpt lat="37.5392517" lon="15.1208567"><ele>34.0</ele><time>2026-04-24T23:21:40.562Z</time></trkpt><trkpt lat="37.5391983" lon="15.12069"><ele>35.0</ele><time>2026-04-24T23:21:41.561Z</time></trkpt><trkpt lat="37.5391433" lon="15.1205267"><ele>35.0</ele><time>2026-04-24T23:21:42.562Z</time></trkpt><trkpt lat="37.5390833" lon="15.120365"><ele>35.0</ele><time>2026-04-24T23:21:43.562Z</time></trkpt><trkpt lat="37.5390217" lon="15.1202167"><ele>35.0</ele><time>2026-04-24T23:21:44.562Z</time></trkpt><trkpt lat="37.5389583" lon="15.1200833"><ele>35.0</ele><time>2026-04-24T23:21:45.562Z</time></trkpt><trkpt lat="37.5388883" lon="15.1199617"><ele>35.25</ele><time>2026-04-24T23:21:46.562Z</time></trkpt><trkpt lat="37.5388067" lon="15.1198533"><ele>35.5</ele><time>2026-04-24T23:21:47.561Z</time></trkpt><trkpt lat="37.5387167" lon="15.1197617"><ele>35.75</ele><time>2026-04-24T23:21:48.562Z</time></trkpt><trkpt lat="37.5386167" lon="15.1196833"><ele>36.0</ele><time>2026-04-24T23:21:49.562Z</time></trkpt><trkpt lat="37.5385083" lon="15.1196183"><ele>36.0</ele><time>2026-04-24T23:21:50.562Z</time></trkpt><trkpt lat="37.5383983" lon="15.1195667"><ele>36.0</ele><time>2026-04-24T23:21:51.561Z</time></trkpt><trkpt lat="37.5382967" lon="15.11952"><ele>36.0</ele><time>2026-04-24T23:21:52.561Z</time></trkpt><trkpt lat="37.5382017" lon="15.1194717"><ele>36.0</ele><time>2026-04-24T23:21:53.562Z</time></trkpt><trkpt lat="37.5381033" lon="15.119415"><ele>36.0</ele><time>2026-04-24T23:21:54.562Z</time></trkpt><trkpt lat="37.5380017" lon="15.1193583"><ele>36.0</ele><time>2026-04-24T23:21:55.562Z</time></trkpt><trkpt lat="37.53789" lon="15.1192933"><ele>36.0</ele><time>2026-04-24T23:21:56.561Z</time></trkpt><trkpt lat="37.53777" lon="15.119225"><ele>36.0</ele><time>2026-04-24T23:21:57.561Z</time></trkpt><trkpt lat="37.5376383" lon="15.1191467"><ele>36.0</ele><time>2026-04-24T23:21:58.562Z</time></trkpt><trkpt lat="37.5375067" lon="15.1190617"><ele>35.75</ele><time>2026-04-24T23:21:59.562Z</time></trkpt><trkpt lat="37.5373783" lon="15.1189783"><ele>35.5</ele><time>2026-04-24T23:22:00.561Z</time></trkpt><trkpt lat="37.5372583" lon="15.1189017"><ele>35.25</ele><time>2026-04-24T23:22:01.562Z</time></trkpt><trkpt lat="37.5371283" lon="15.1188117"><ele>35.0</ele><time>2026-04-24T23:22:02.562Z</time></trkpt><trkpt lat="37.537" lon="15.118725"><ele>33.33333333333333</ele><time>2026-04-24T23:22:03.561Z</time></trkpt><trkpt lat="37.536865" lon="15.1186317"><ele>31.666666666666664</ele><time>2026-04-24T23:22:04.561Z</time></trkpt><trkpt lat="37.5367433" lon="15.1185233"><ele>30.0</ele><time>2026-04-24T23:22:05.561Z</time></trkpt><trkpt lat="37.536625" lon="15.1184"><ele>30.0</ele><time>2026-04-24T23:22:06.562Z</time></trkpt><trkpt lat="37.5365033" lon="15.11827"><ele>30.0</ele><time>2026-04-24T23:22:07.562Z</time></trkpt><trkpt lat="37.5363917" lon="15.1181433"><ele>30.0</ele><time>2026-04-24T23:22:08.562Z</time></trkpt><trkpt lat="37.5362767" lon="15.1180217"><ele>28.333333333333336</ele><time>2026-04-24T23:22:09.561Z</time></trkpt><trkpt lat="37.5361667" lon="15.1178817"><ele>26.666666666666668</ele><time>2026-04-24T23:22:10.562Z</time></trkpt><trkpt lat="37.5360483" lon="15.1177483"><ele>25.0</ele><time>2026-04-24T23:22:11.562Z</time></trkpt><trkpt lat="37.5359317" lon="15.1176167"><ele>25.0</ele><time>2026-04-24T23:22:12.562Z</time></trkpt><trkpt lat="37.535805" lon="15.11748"><ele>25.0</ele><time>2026-04-24T23:22:13.562Z</time></trkpt><trkpt lat="37.5356733" lon="15.1173417"><ele>25.0</ele><time>2026-04-24T23:22:14.562Z</time></trkpt><trkpt lat="37.5355383" lon="15.1172"><ele>25.333333333333336</ele><time>2026-04-24T23:22:15.562Z</time></trkpt><trkpt lat="37.5354133" lon="15.11706"><ele>25.666666666666664</ele><time>2026-04-24T23:22:16.562Z</time></trkpt><trkpt lat="37.535285" lon="15.11692"><ele>26.0</ele><time>2026-04-24T23:22:17.561Z</time></trkpt><trkpt lat="37.5351617" lon="15.11679"><ele>24.25</ele><time>2026-04-24T23:22:18.562Z</time></trkpt><trkpt lat="37.53505" lon="15.1166583"><ele>22.5</ele><time>2026-04-24T23:22:19.562Z</time></trkpt><trkpt lat="37.5349417" lon="15.1165283"><ele>20.75</ele><time>2026-04-24T23:22:20.562Z</time></trkpt><trkpt lat="37.5348333" lon="15.116405"><ele>19.0</ele><time>2026-04-24T23:22:21.562Z</time></trkpt><trkpt lat="37.5347267" lon="15.1162833"><ele>19.0</ele><time>2026-04-24T23:22:22.562Z</time></trkpt><trkpt lat="37.5346117" lon="15.1161617"><ele>19.0</ele><time>2026-04-24T23:22:23.562Z</time></trkpt><trkpt lat="37.5344883" lon="15.1160333"><ele>19.0</ele><time>2026-04-24T23:22:24.562Z</time></trkpt><trkpt lat="37.5343617" lon="15.115895"><ele>18.333333333333332</ele><time>2026-04-24T23:22:25.562Z</time></trkpt><trkpt lat="37.5342283" lon="15.1157467"><ele>17.666666666666668</ele><time>2026-04-24T23:22:26.562Z</time></trkpt><trkpt lat="37.5340933" lon="15.1156"><ele>17.0</ele><time>2026-04-24T23:22:27.562Z</time></trkpt><trkpt lat="37.5339583" lon="15.11546"><ele>17.0</ele><time>2026-04-24T23:22:28.562Z</time></trkpt><trkpt lat="37.5338283" lon="15.1153183"><ele>17.0</ele><time>2026-04-24T23:22:29.562Z</time></trkpt><trkpt lat="37.5337067" lon="15.1151817"><ele>17.0</ele><time>2026-04-24T23:22:30.561Z</time></trkpt><trkpt lat="37.5336017" lon="15.1150583"><ele>16.75</ele><time>2026-04-24T23:22:31.562Z</time></trkpt><trkpt lat="37.5335083" lon="15.1149383"><ele>16.5</ele><time>2026-04-24T23:22:32.561Z</time></trkpt><trkpt lat="37.5334283" lon="15.1147967"><ele>16.25</ele><time>2026-04-24T23:22:33.561Z</time></trkpt><trkpt lat="37.5333617" lon="15.11464"><ele>16.0</ele><time>2026-04-24T23:22:34.562Z</time></trkpt><trkpt lat="37.53329" lon="15.1144717"><ele>15.666666666666666</ele><time>2026-04-24T23:22:35.561Z</time></trkpt><trkpt lat="37.5332117" lon="15.1142967"><ele>15.333333333333332</ele><time>2026-04-24T23:22:36.562Z</time></trkpt><trkpt lat="37.53313" lon="15.1141183"><ele>15.0</ele><time>2026-04-24T23:22:37.562Z</time></trkpt><trkpt lat="37.53305" lon="15.1139317"><ele>15.0</ele><time>2026-04-24T23:22:38.562Z</time></trkpt><trkpt lat="37.5329683" lon="15.113745"><ele>15.0</ele><time>2026-04-24T23:22:39.561Z</time></trkpt><trkpt lat="37.5328767" lon="15.11355"><ele>15.0</ele><time>2026-04-24T23:22:40.561Z</time></trkpt><trkpt lat="37.532785" lon="15.1133483"><ele>15.333333333333332</ele><time>2026-04-24T23:22:41.562Z</time></trkpt><trkpt lat="37.5326967" lon="15.1131417"><ele>15.666666666666666</ele><time>2026-04-24T23:22:42.562Z</time></trkpt><trkpt lat="37.5325983" lon="15.1129333"><ele>16.0</ele><time>2026-04-24T23:22:43.562Z</time></trkpt><trkpt lat="37.5325033" lon="15.1127217"><ele>16.0</ele><time>2026-04-24T23:22:44.562Z</time></trkpt><trkpt lat="37.5324183" lon="15.1125183"><ele>16.0</ele><time>2026-04-24T23:22:45.562Z</time></trkpt><trkpt lat="37.5323317" lon="15.11231"><ele>16.0</ele><time>2026-04-24T23:22:46.562Z</time></trkpt><trkpt lat="37.5322383" lon="15.1121083"><ele>16.333333333333332</ele><time>2026-04-24T23:22:47.561Z</time></trkpt><trkpt lat="37.5321517" lon="15.1119033"><ele>16.666666666666668</ele><time>2026-04-24T23:22:48.561Z</time></trkpt><trkpt lat="37.53207" lon="15.1117117"><ele>17.0</ele><time>2026-04-24T23:22:49.561Z</time></trkpt><trkpt lat="37.5319833" lon="15.1115217"><ele>17.0</ele><time>2026-04-24T23:22:50.562Z</time></trkpt><trkpt lat="37.5319017" lon="15.1113233"><ele>17.0</ele><time>2026-04-24T23:22:51.562Z</time></trkpt><trkpt lat="37.5318217" lon="15.1111217"><ele>17.0</ele><time>2026-04-24T23:22:52.561Z</time></trkpt><trkpt lat="37.5317417" lon="15.11092"><ele>18.666666666666668</ele><time>2026-04-24T23:22:53.562Z</time></trkpt><trkpt lat="37.5316617" lon="15.1107167"><ele>20.333333333333332</ele><time>2026-04-24T23:22:54.562Z</time></trkpt><trkpt lat="37.531595" lon="15.1105083"><ele>22.0</ele><time>2026-04-24T23:22:55.562Z</time></trkpt><trkpt lat="37.5315483" lon="15.1102917"><ele>22.0</ele><time>2026-04-24T23:22:56.561Z</time></trkpt><trkpt lat="37.5315133" lon="15.1100583"><ele>22.0</ele><time>2026-04-24T23:22:57.562Z</time></trkpt><trkpt lat="37.5315" lon="15.109855"><ele>22.0</ele><time>2026-04-24T23:22:58.561Z</time></trkpt><trkpt lat="37.5315067" lon="15.1096617"><ele>22.5</ele><time>2026-04-24T23:22:59.562Z</time></trkpt><trkpt lat="37.5315167" lon="15.109475"><ele>23.0</ele><time>2026-04-24T23:23:00.561Z</time></trkpt><trkpt lat="37.531545" lon="15.1092983"><ele>23.5</ele><time>2026-04-24T23:23:01.562Z</time></trkpt><trkpt lat="37.53158" lon="15.1091267"><ele>24.0</ele><time>2026-04-24T23:23:02.562Z</time></trkpt><trkpt lat="37.5316183" lon="15.1089467"><ele>24.333333333333336</ele><time>2026-04-24T23:23:03.562Z</time></trkpt><trkpt lat="37.5316367" lon="15.1087567"><ele>24.666666666666668</ele><time>2026-04-24T23:23:04.561Z</time></trkpt><trkpt lat="37.5316483" lon="15.108565"><ele>25.0</ele><time>2026-04-24T23:23:05.562Z</time></trkpt><trkpt lat="37.5316517" lon="15.1083683"><ele>25.333333333333336</ele><time>2026-04-24T23:23:06.562Z</time></trkpt><trkpt lat="37.531655" lon="15.1081733"><ele>25.666666666666664</ele><time>2026-04-24T23:23:07.561Z</time></trkpt><trkpt lat="37.5316617" lon="15.1079767"><ele>26.0</ele><time>2026-04-24T23:23:08.562Z</time></trkpt><trkpt lat="37.5316733" lon="15.1077833"><ele>26.0</ele><time>2026-04-24T23:23:09.562Z</time></trkpt><trkpt lat="37.531695" lon="15.1076067"><ele>26.0</ele><time>2026-04-24T23:23:10.561Z</time></trkpt><trkpt lat="37.5317067" lon="15.10744"><ele>26.0</ele><time>2026-04-24T23:23:11.562Z</time></trkpt><trkpt lat="37.53171" lon="15.1072667"><ele>26.0</ele><time>2026-04-24T23:23:12.562Z</time></trkpt><trkpt lat="37.5317233" lon="15.1071033"><ele>27.0</ele><time>2026-04-24T23:23:13.562Z</time></trkpt><trkpt lat="37.5317433" lon="15.1069533"><ele>28.0</ele><time>2026-04-24T23:23:14.561Z</time></trkpt><trkpt lat="37.5317567" lon="15.106815"><ele>29.0</ele><time>2026-04-24T23:23:15.562Z</time></trkpt><trkpt lat="37.53177" lon="15.1066767"><ele>30.0</ele><time>2026-04-24T23:23:16.562Z</time></trkpt><trkpt lat="37.531785" lon="15.1065483"><ele>31.0</ele><time>2026-04-24T23:23:17.561Z</time></trkpt><trkpt lat="37.5317983" lon="15.106425"><ele>31.6</ele><time>2026-04-24T23:23:18.561Z</time></trkpt><trkpt lat="37.531805" lon="15.106305"><ele>32.2</ele><time>2026-04-24T23:23:19.561Z</time></trkpt><trkpt lat="37.53182" lon="15.1061867"><ele>32.8</ele><time>2026-04-24T23:23:20.562Z</time></trkpt><trkpt lat="37.5318333" lon="15.106075"><ele>33.4</ele><time>2026-04-24T23:23:21.562Z</time></trkpt><trkpt lat="37.53185" lon="15.1059617"><ele>34.0</ele><time>2026-04-24T23:23:22.562Z</time></trkpt><trkpt lat="37.5318633" lon="15.1058533"><ele>34.8</ele><time>2026-04-24T23:23:23.561Z</time></trkpt><trkpt lat="37.5318717" lon="15.10573"><ele>35.599999999999994</ele><time>2026-04-24T23:23:24.562Z</time></trkpt><trkpt lat="37.53188" lon="15.1056033"><ele>36.4</ele><time>2026-04-24T23:23:25.561Z</time></trkpt><trkpt lat="37.5318933" lon="15.1054683"><ele>37.199999999999996</ele><time>2026-04-24T23:23:26.562Z</time></trkpt><trkpt lat="37.53191" lon="15.1053317"><ele>38.0</ele><time>2026-04-24T23:23:27.561Z</time></trkpt><trkpt lat="37.5319233" lon="15.105185"><ele>38.0</ele><time>2026-04-24T23:23:28.562Z</time></trkpt><trkpt lat="37.531935" lon="15.1050233"><ele>38.0</ele><time>2026-04-24T23:23:29.562Z</time></trkpt><trkpt lat="37.5319433" lon="15.1048517"><ele>38.0</ele><time>2026-04-24T23:23:30.561Z</time></trkpt><trkpt lat="37.5319583" lon="15.1046733"><ele>38.0</ele><time>2026-04-24T23:23:31.562Z</time></trkpt><trkpt lat="37.5319783" lon="15.1044867"><ele>39.666666666666664</ele><time>2026-04-24T23:23:32.562Z</time></trkpt><trkpt lat="37.5319933" lon="15.1042917"><ele>41.333333333333336</ele><time>2026-04-24T23:23:33.561Z</time></trkpt><trkpt lat="37.5320217" lon="15.1040967"><ele>43.0</ele><time>2026-04-24T23:23:34.562Z</time></trkpt><trkpt lat="37.5320533" lon="15.1039017"><ele>44.66666666666667</ele><time>2026-04-24T23:23:35.561Z</time></trkpt><trkpt lat="37.532075" lon="15.103705"><ele>46.333333333333336</ele><time>2026-04-24T23:23:36.562Z</time></trkpt><trkpt lat="37.53209" lon="15.10351"><ele>48.0</ele><time>2026-04-24T23:23:37.562Z</time></trkpt><trkpt lat="37.5321183" lon="15.1033117"><ele>49.66666666666667</ele><time>2026-04-24T23:23:38.562Z</time></trkpt><trkpt lat="37.5321367" lon="15.1031117"><ele>51.333333333333336</ele><time>2026-04-24T23:23:39.562Z</time></trkpt><trkpt lat="37.5321567" lon="15.1028983"><ele>53.0</ele><time>2026-04-24T23:23:40.562Z</time></trkpt><trkpt lat="37.53216" lon="15.1027"><ele>53.0</ele><time>2026-04-24T23:23:41.561Z</time></trkpt><trkpt lat="37.5321583" lon="15.1025017"><ele>53.0</ele><time>2026-04-24T23:23:42.561Z</time></trkpt><trkpt lat="37.5321483" lon="15.1023"><ele>53.0</ele><time>2026-04-24T23:23:43.562Z</time></trkpt><trkpt lat="37.5321283" lon="15.1021067"><ele>52.66666666666667</ele><time>2026-04-24T23:23:44.561Z</time></trkpt><trkpt lat="37.5320983" lon="15.1019167"><ele>52.33333333333333</ele><time>2026-04-24T23:23:45.562Z</time></trkpt><trkpt lat="37.532065" lon="15.1017283"><ele>52.0</ele><time>2026-04-24T23:23:46.562Z</time></trkpt><trkpt lat="37.5320217" lon="15.1015417"><ele>52.0</ele><time>2026-04-24T23:23:47.562Z</time></trkpt><trkpt lat="37.5319717" lon="15.1013617"><ele>52.0</ele><time>2026-04-24T23:23:48.561Z</time></trkpt><trkpt lat="37.5319117" lon="15.1011733"><ele>52.0</ele><time>2026-04-24T23:23:49.561Z</time></trkpt><trkpt lat="37.5318533" lon="15.1009867"><ele>52.0</ele><time>2026-04-24T23:23:50.562Z</time></trkpt><trkpt lat="37.531785" lon="15.1008033"><ele>52.0</ele><time>2026-04-24T23:23:51.562Z</time></trkpt><trkpt lat="37.53172" lon="15.1006217"><ele>52.0</ele><time>2026-04-24T23:23:52.561Z</time></trkpt><trkpt lat="37.53164" lon="15.1004467"><ele>53.666666666666664</ele><time>2026-04-24T23:23:53.561Z</time></trkpt><trkpt lat="37.53156" lon="15.100275"><ele>55.33333333333333</ele><time>2026-04-24T23:23:54.562Z</time></trkpt><trkpt lat="37.53147" lon="15.1001083"><ele>57.0</ele><time>2026-04-24T23:23:55.561Z</time></trkpt><trkpt lat="37.531375" lon="15.0999483"><ele>58.0</ele><time>2026-04-24T23:23:56.561Z</time></trkpt><trkpt lat="37.531265" lon="15.09979"><ele>59.0</ele><time>2026-04-24T23:23:57.562Z</time></trkpt><trkpt lat="37.53115" lon="15.09964"><ele>60.0</ele><time>2026-04-24T23:23:58.562Z</time></trkpt><trkpt lat="37.5310283" lon="15.0995"><ele>60.0</ele><time>2026-04-24T23:23:59.562Z</time></trkpt><trkpt lat="37.5309083" lon="15.0993667"><ele>60.0</ele><time>2026-04-24T23:24:00.561Z</time></trkpt><trkpt lat="37.530785" lon="15.09924"><ele>60.0</ele><time>2026-04-24T23:24:01.562Z</time></trkpt><trkpt lat="37.5306633" lon="15.099125"><ele>61.0</ele><time>2026-04-24T23:24:02.561Z</time></trkpt><trkpt lat="37.53054" lon="15.0990083"><ele>62.0</ele><time>2026-04-24T23:24:03.562Z</time></trkpt><trkpt lat="37.5304267" lon="15.098895"><ele>63.0</ele><time>2026-04-24T23:24:04.562Z</time></trkpt><trkpt lat="37.530315" lon="15.0987867"><ele>64.0</ele><time>2026-04-24T23:24:05.562Z</time></trkpt><trkpt lat="37.5302033" lon="15.0986733"><ele>64.0</ele><time>2026-04-24T23:24:06.562Z</time></trkpt><trkpt lat="37.530095" lon="15.0985583"><ele>64.0</ele><time>2026-04-24T23:24:07.562Z</time></trkpt><trkpt lat="37.5299767" lon="15.098435"><ele>64.0</ele><time>2026-04-24T23:24:08.562Z</time></trkpt><trkpt lat="37.5298617" lon="15.0983133"><ele>64.0</ele><time>2026-04-24T23:24:09.561Z</time></trkpt><trkpt lat="37.52975" lon="15.09819"><ele>64.0</ele><time>2026-04-24T23:24:10.562Z</time></trkpt><trkpt lat="37.529645" lon="15.0980567"><ele>64.0</ele><time>2026-04-24T23:24:11.561Z</time></trkpt><trkpt lat="37.529545" lon="15.0979267"><ele>64.0</ele><time>2026-04-24T23:24:12.561Z</time></trkpt><trkpt lat="37.529445" lon="15.097795"><ele>64.0</ele><time>2026-04-24T23:24:13.561Z</time></trkpt><trkpt lat="37.5293567" lon="15.0976583"><ele>64.0</ele><time>2026-04-24T23:24:14.561Z</time></trkpt><trkpt lat="37.5292733" lon="15.09751"><ele>64.0</ele><time>2026-04-24T23:24:15.562Z</time></trkpt><trkpt lat="37.5291933" lon="15.09735"><ele>64.0</ele><time>2026-04-24T23:24:16.561Z</time></trkpt><trkpt lat="37.52912" lon="15.097185"><ele>64.0</ele><time>2026-04-24T23:24:17.562Z</time></trkpt><trkpt lat="37.5290517" lon="15.0970183"><ele>65.5</ele><time>2026-04-24T23:24:18.561Z</time></trkpt><trkpt lat="37.5289967" lon="15.0968583"><ele>67.0</ele><time>2026-04-24T23:24:19.561Z</time></trkpt><trkpt lat="37.5289433" lon="15.0966933"><ele>68.5</ele><time>2026-04-24T23:24:20.562Z</time></trkpt><trkpt lat="37.5289033" lon="15.09652"><ele>70.0</ele><time>2026-04-24T23:24:21.561Z</time></trkpt><trkpt lat="37.5288667" lon="15.096345"><ele>70.5</ele><time>2026-04-24T23:24:22.562Z</time></trkpt><trkpt lat="37.5288333" lon="15.0961667"><ele>71.0</ele><time>2026-04-24T23:24:23.561Z</time></trkpt><trkpt lat="37.528785" lon="15.09601"><ele>71.5</ele><time>2026-04-24T23:24:24.561Z</time></trkpt><trkpt lat="37.52875" lon="15.0958567"><ele>72.0</ele><time>2026-04-24T23:24:25.562Z</time></trkpt><trkpt lat="37.5287217" lon="15.0956867"><ele>72.0</ele><time>2026-04-24T23:24:26.562Z</time></trkpt><trkpt lat="37.52869" lon="15.095515"><ele>72.0</ele><time>2026-04-24T23:24:27.562Z</time></trkpt><trkpt lat="37.528655" lon="15.0953433"><ele>72.0</ele><time>2026-04-24T23:24:28.561Z</time></trkpt><trkpt lat="37.528635" lon="15.0951717"><ele>72.0</ele><time>2026-04-24T23:24:29.562Z</time></trkpt><trkpt lat="37.5286067" lon="15.094985"><ele>73.0</ele><time>2026-04-24T23:24:30.561Z</time></trkpt><trkpt lat="37.5285783" lon="15.0948"><ele>74.0</ele><time>2026-04-24T23:24:31.562Z</time></trkpt><trkpt lat="37.5285433" lon="15.0946167"><ele>75.0</ele><time>2026-04-24T23:24:32.562Z</time></trkpt><trkpt lat="37.5285183" lon="15.094415"><ele>75.0</ele><time>2026-04-24T23:24:33.562Z</time></trkpt><trkpt lat="37.5284967" lon="15.0942067"><ele>75.0</ele><time>2026-04-24T23:24:34.561Z</time></trkpt><trkpt lat="37.5284567" lon="15.093995"><ele>75.0</ele><time>2026-04-24T23:24:35.561Z</time></trkpt><trkpt lat="37.5284217" lon="15.0937767"><ele>75.0</ele><time>2026-04-24T23:24:36.562Z</time></trkpt><trkpt lat="37.52839" lon="15.0935533"><ele>75.0</ele><time>2026-04-24T23:24:37.562Z</time></trkpt><trkpt lat="37.5283583" lon="15.093325"><ele>75.0</ele><time>2026-04-24T23:24:38.561Z</time></trkpt><trkpt lat="37.5283183" lon="15.0930967"><ele>75.33333333333333</ele><time>2026-04-24T23:24:39.562Z</time></trkpt><trkpt lat="37.5282783" lon="15.0928633"><ele>75.66666666666666</ele><time>2026-04-24T23:24:40.562Z</time></trkpt><trkpt lat="37.5282433" lon="15.0926283"><ele>76.0</ele><time>2026-04-24T23:24:41.562Z</time></trkpt><trkpt lat="37.528215" lon="15.0923933"><ele>78.0</ele><time>2026-04-24T23:24:42.562Z</time></trkpt><trkpt lat="37.528195" lon="15.0921683"><ele>80.0</ele><time>2026-04-24T23:24:43.562Z</time></trkpt><trkpt lat="37.5281833" lon="15.091945"><ele>82.0</ele><time>2026-04-24T23:24:44.561Z</time></trkpt><trkpt lat="37.52818" lon="15.09172"><ele>82.0</ele><time>2026-04-24T23:24:45.562Z</time></trkpt><trkpt lat="37.5281717" lon="15.0914867"><ele>82.0</ele><time>2026-04-24T23:24:46.561Z</time></trkpt><trkpt lat="37.5281683" lon="15.0912567"><ele>82.0</ele><time>2026-04-24T23:24:47.561Z</time></trkpt><trkpt lat="37.5281633" lon="15.091025"><ele>82.0</ele><time>2026-04-24T23:24:48.562Z</time></trkpt><trkpt lat="37.52816" lon="15.0908"><ele>82.0</ele><time>2026-04-24T23:24:49.562Z</time></trkpt><trkpt lat="37.5281567" lon="15.0905783"><ele>82.0</ele><time>2026-04-24T23:24:50.562Z</time></trkpt><trkpt lat="37.52815" lon="15.0903683"><ele>84.0</ele><time>2026-04-24T23:24:51.562Z</time></trkpt><trkpt lat="37.528145" lon="15.0901533"><ele>86.0</ele><time>2026-04-24T23:24:52.562Z</time></trkpt><trkpt lat="37.52813" lon="15.089945"><ele>88.0</ele><time>2026-04-24T23:24:53.562Z</time></trkpt><trkpt lat="37.5281183" lon="15.08973"><ele>89.33333333333333</ele><time>2026-04-24T23:24:54.562Z</time></trkpt><trkpt lat="37.5281083" lon="15.0895133"><ele>90.66666666666667</ele><time>2026-04-24T23:24:55.562Z</time></trkpt><trkpt lat="37.528105" lon="15.089305"><ele>92.0</ele><time>2026-04-24T23:24:56.561Z</time></trkpt><trkpt lat="37.5281083" lon="15.089105"><ele>92.25</ele><time>2026-04-24T23:24:57.562Z</time></trkpt><trkpt lat="37.5281083" lon="15.08892"><ele>92.5</ele><time>2026-04-24T23:24:58.562Z</time></trkpt><trkpt lat="37.5281017" lon="15.088735"><ele>92.75</ele><time>2026-04-24T23:24:59.561Z</time></trkpt><trkpt lat="37.5280967" lon="15.0885483"><ele>93.0</ele><time>2026-04-24T23:25:00.562Z</time></trkpt><trkpt lat="37.528095" lon="15.0883683"><ele>92.75</ele><time>2026-04-24T23:25:01.561Z</time></trkpt><trkpt lat="37.5280917" lon="15.0881917"><ele>92.5</ele><time>2026-04-24T23:25:02.561Z</time></trkpt><trkpt lat="37.5280867" lon="15.0880283"><ele>92.25</ele><time>2026-04-24T23:25:03.562Z</time></trkpt><trkpt lat="37.52808" lon="15.0878667"><ele>92.0</ele><time>2026-04-24T23:25:04.562Z</time></trkpt><trkpt lat="37.5280717" lon="15.0877067"><ele>92.0</ele><time>2026-04-24T23:25:05.561Z</time></trkpt><trkpt lat="37.5280667" lon="15.08754"><ele>92.0</ele><time>2026-04-24T23:25:06.562Z</time></trkpt><trkpt lat="37.5280633" lon="15.0873633"><ele>92.0</ele><time>2026-04-24T23:25:07.561Z</time></trkpt><trkpt lat="37.5280567" lon="15.0871883"><ele>92.0</ele><time>2026-04-24T23:25:08.561Z</time></trkpt><trkpt lat="37.5280433" lon="15.0870017"><ele>91.75</ele><time>2026-04-24T23:25:09.562Z</time></trkpt><trkpt lat="37.5280533" lon="15.08681"><ele>91.5</ele><time>2026-04-24T23:25:10.562Z</time></trkpt><trkpt lat="37.5280517" lon="15.0866317"><ele>91.25</ele><time>2026-04-24T23:25:11.561Z</time></trkpt><trkpt lat="37.528055" lon="15.0864633"><ele>91.0</ele><time>2026-04-24T23:25:12.562Z</time></trkpt><trkpt lat="37.5280583" lon="15.086295"><ele>91.4</ele><time>2026-04-24T23:25:13.561Z</time></trkpt><trkpt lat="37.528065" lon="15.0861383"><ele>91.8</ele><time>2026-04-24T23:25:14.561Z</time></trkpt><trkpt lat="37.5280717" lon="15.0859983"><ele>92.2</ele><time>2026-04-24T23:25:15.562Z</time></trkpt><trkpt lat="37.5280717" lon="15.08587"><ele>92.60000000000001</ele><time>2026-04-24T23:25:16.562Z</time></trkpt><trkpt lat="37.52806" lon="15.085735"><ele>93.0</ele><time>2026-04-24T23:25:17.562Z</time></trkpt><trkpt lat="37.5280417" lon="15.085585"><ele>93.5</ele><time>2026-04-24T23:25:18.562Z</time></trkpt><trkpt lat="37.52801" lon="15.0854383"><ele>94.0</ele><time>2026-04-24T23:25:19.562Z</time></trkpt><trkpt lat="37.5279767" lon="15.0852767"><ele>94.5</ele><time>2026-04-24T23:25:20.562Z</time></trkpt><trkpt lat="37.5279383" lon="15.0851"><ele>95.0</ele><time>2026-04-24T23:25:21.562Z</time></trkpt><trkpt lat="37.527885" lon="15.08492"><ele>93.66666666666667</ele><time>2026-04-24T23:25:22.562Z</time></trkpt><trkpt lat="37.5278317" lon="15.08474"><ele>92.33333333333333</ele><time>2026-04-24T23:25:23.562Z</time></trkpt><trkpt lat="37.5277767" lon="15.084555"><ele>91.0</ele><time>2026-04-24T23:25:24.561Z</time></trkpt><trkpt lat="37.527715" lon="15.0843783"><ele>91.0</ele><time>2026-04-24T23:25:25.561Z</time></trkpt><trkpt lat="37.5276517" lon="15.084205"><ele>91.0</ele><time>2026-04-24T23:25:26.561Z</time></trkpt><trkpt lat="37.5275917" lon="15.08404"><ele>91.0</ele><time>2026-04-24T23:25:27.562Z</time></trkpt><trkpt lat="37.527525" lon="15.083875"><ele>91.0</ele><time>2026-04-24T23:25:28.562Z</time></trkpt><trkpt lat="37.5274667" lon="15.0837167"><ele>91.4</ele><time>2026-04-24T23:25:29.561Z</time></trkpt><trkpt lat="37.5274117" lon="15.0835667"><ele>91.8</ele><time>2026-04-24T23:25:30.562Z</time></trkpt><trkpt lat="37.5273617" lon="15.083435"><ele>92.2</ele><time>2026-04-24T23:25:31.561Z</time></trkpt><trkpt lat="37.52732" lon="15.083325"><ele>92.60000000000001</ele><time>2026-04-24T23:25:32.562Z</time></trkpt><trkpt lat="37.5272883" lon="15.08325"><ele>93.0</ele><time>2026-04-24T23:25:33.561Z</time></trkpt><trkpt lat="37.527255" lon="15.0831367"><ele>93.0</ele><time>2026-04-24T23:25:35.562Z</time></trkpt><trkpt lat="37.52734" lon="15.0831217"><ele>93.0</ele><time>2026-04-24T23:25:38.562Z</time></trkpt><trkpt lat="37.5273933" lon="15.083165"><ele>93.0</ele><time>2026-04-24T23:25:39.562Z</time></trkpt><trkpt lat="37.527455" lon="15.083225"><ele>93.0</ele><time>2026-04-24T23:25:40.561Z</time></trkpt><trkpt lat="37.5275267" lon="15.0832983"><ele>93.0</ele><time>2026-04-24T23:25:41.561Z</time></trkpt><trkpt lat="37.52761" lon="15.0833917"><ele>93.0</ele><time>2026-04-24T23:25:42.562Z</time></trkpt><trkpt lat="37.5276983" lon="15.0834867"><ele>93.0</ele><time>2026-04-24T23:25:43.562Z</time></trkpt><trkpt lat="37.527795" lon="15.0835817"><ele>93.0</ele><time>2026-04-24T23:25:44.561Z</time></trkpt><trkpt lat="37.52789" lon="15.0836833"><ele>93.0</ele><time>2026-04-24T23:25:45.561Z</time></trkpt><trkpt lat="37.52799" lon="15.083795"><ele>93.0</ele><time>2026-04-24T23:25:46.561Z</time></trkpt><trkpt lat="37.52809" lon="15.0839067"><ele>94.25</ele><time>2026-04-24T23:25:47.562Z</time></trkpt><trkpt lat="37.5281883" lon="15.084025"><ele>95.5</ele><time>2026-04-24T23:25:48.562Z</time></trkpt><trkpt lat="37.5282967" lon="15.084135"><ele>96.75</ele><time>2026-04-24T23:25:49.562Z</time></trkpt><trkpt lat="37.5283983" lon="15.0842417"><ele>98.0</ele><time>2026-04-24T23:25:50.561Z</time></trkpt><trkpt lat="37.5284933" lon="15.08435"><ele>98.0</ele><time>2026-04-24T23:25:51.562Z</time></trkpt><trkpt lat="37.5285833" lon="15.0844533"><ele>98.0</ele><time>2026-04-24T23:25:52.562Z</time></trkpt><trkpt lat="37.5286717" lon="15.08454"><ele>98.0</ele><time>2026-04-24T23:25:53.562Z</time></trkpt><trkpt lat="37.5287617" lon="15.08463"><ele>98.0</ele><time>2026-04-24T23:25:54.561Z</time></trkpt><trkpt lat="37.5288433" lon="15.0847133"><ele>99.80000000000001</ele><time>2026-04-24T23:25:55.561Z</time></trkpt><trkpt lat="37.5289233" lon="15.0848"><ele>101.6</ele><time>2026-04-24T23:25:56.562Z</time></trkpt><trkpt lat="37.5290017" lon="15.0848833"><ele>103.39999999999999</ele><time>2026-04-24T23:25:57.562Z</time></trkpt><trkpt lat="37.52907" lon="15.084945"><ele>105.19999999999999</ele><time>2026-04-24T23:25:58.562Z</time></trkpt><trkpt lat="37.5291383" lon="15.0849817"><ele>107.0</ele><time>2026-04-24T23:25:59.561Z</time></trkpt><trkpt lat="37.5292433" lon="15.0849417"><ele>106.99999999999999</ele><time>2026-04-24T23:26:01.561Z</time></trkpt><trkpt lat="37.5292867" lon="15.0848733"><ele>107.0</ele><time>2026-04-24T23:26:02.562Z</time></trkpt><trkpt lat="37.5293317" lon="15.0847917"><ele>107.0</ele><time>2026-04-24T23:26:03.562Z</time></trkpt><trkpt lat="37.5293867" lon="15.0847033"><ele>107.0</ele><time>2026-04-24T23:26:04.562Z</time></trkpt><trkpt lat="37.5294417" lon="15.0846067"><ele>106.99999999999999</ele><time>2026-04-24T23:26:05.562Z</time></trkpt><trkpt lat="37.5295" lon="15.084505"><ele>107.0</ele><time>2026-04-24T23:26:06.561Z</time></trkpt><trkpt lat="37.5295583" lon="15.0843983"><ele>108.83333333333333</ele><time>2026-04-24T23:26:07.561Z</time></trkpt><trkpt lat="37.5296083" lon="15.084295"><ele>110.66666666666666</ele><time>2026-04-24T23:26:08.562Z</time></trkpt><trkpt lat="37.5296617" lon="15.0842067"><ele>112.5</ele><time>2026-04-24T23:26:09.562Z</time></trkpt><trkpt lat="37.5297167" lon="15.084125"><ele>114.33333333333334</ele><time>2026-04-24T23:26:10.562Z</time></trkpt><trkpt lat="37.529755" lon="15.084055"><ele>116.16666666666667</ele><time>2026-04-24T23:26:11.562Z</time></trkpt><trkpt lat="37.5298183" lon="15.08398"><ele>118.0</ele><time>2026-04-24T23:26:13.562Z</time></trkpt><trkpt lat="37.5299183" lon="15.083975"><ele>118.2</ele><time>2026-04-24T23:26:15.561Z</time></trkpt><trkpt lat="37.5300567" lon="15.0839417"><ele>118.4</ele><time>2026-04-24T23:26:17.562Z</time></trkpt><trkpt lat="37.5301383" lon="15.0838883"><ele>118.60000000000001</ele><time>2026-04-24T23:26:18.562Z</time></trkpt><trkpt lat="37.53022" lon="15.0838217"><ele>118.80000000000001</ele><time>2026-04-24T23:26:19.562Z</time></trkpt><trkpt lat="37.5303033" lon="15.0837483"><ele>119.0</ele><time>2026-04-24T23:26:20.561Z</time></trkpt><trkpt lat="37.5303917" lon="15.08367"><ele>121.75</ele><time>2026-04-24T23:26:21.561Z</time></trkpt><trkpt lat="37.5304883" lon="15.0835967"><ele>124.5</ele><time>2026-04-24T23:26:22.562Z</time></trkpt><trkpt lat="37.5305917" lon="15.0835183"><ele>127.25</ele><time>2026-04-24T23:26:23.561Z</time></trkpt><trkpt lat="37.5306983" lon="15.0834433"><ele>130.0</ele><time>2026-04-24T23:26:24.562Z</time></trkpt><trkpt lat="37.530805" lon="15.083355"><ele>130.0</ele><time>2026-04-24T23:26:25.562Z</time></trkpt><trkpt lat="37.5309067" lon="15.083275"><ele>130.0</ele><time>2026-04-24T23:26:26.561Z</time></trkpt><trkpt lat="37.531015" lon="15.0831917"><ele>130.0</ele><time>2026-04-24T23:26:27.562Z</time></trkpt><trkpt lat="37.5311217" lon="15.08312"><ele>130.0</ele><time>2026-04-24T23:26:28.562Z</time></trkpt><trkpt lat="37.5312333" lon="15.0830517"><ele>134.0</ele><time>2026-04-24T23:26:29.562Z</time></trkpt><trkpt lat="37.5313467" lon="15.0829917"><ele>138.0</ele><time>2026-04-24T23:26:30.562Z</time></trkpt><trkpt lat="37.5314617" lon="15.082955"><ele>142.0</ele><time>2026-04-24T23:26:31.562Z</time></trkpt><trkpt lat="37.5315767" lon="15.0829317"><ele>146.0</ele><time>2026-04-24T23:26:32.562Z</time></trkpt><trkpt lat="37.5317" lon="15.0829083"><ele>146.0</ele><time>2026-04-24T23:26:33.561Z</time></trkpt><trkpt lat="37.531825" lon="15.0828867"><ele>146.0</ele><time>2026-04-24T23:26:34.562Z</time></trkpt><trkpt lat="37.5319483" lon="15.0828733"><ele>146.0</ele><time>2026-04-24T23:26:35.562Z</time></trkpt><trkpt lat="37.5320817" lon="15.08287"><ele>146.0</ele><time>2026-04-24T23:26:36.561Z</time></trkpt><trkpt lat="37.5322117" lon="15.0828933"><ele>147.25</ele><time>2026-04-24T23:26:37.562Z</time></trkpt><trkpt lat="37.53234" lon="15.08294"><ele>148.5</ele><time>2026-04-24T23:26:38.562Z</time></trkpt><trkpt lat="37.5324767" lon="15.0829967"><ele>149.75</ele><time>2026-04-24T23:26:39.561Z</time></trkpt><trkpt lat="37.532615" lon="15.083075"><ele>151.0</ele><time>2026-04-24T23:26:40.562Z</time></trkpt><trkpt lat="37.5327467" lon="15.08315"><ele>151.0</ele><time>2026-04-24T23:26:41.562Z</time></trkpt><trkpt lat="37.5328817" lon="15.0832033"><ele>151.0</ele><time>2026-04-24T23:26:42.562Z</time></trkpt><trkpt lat="37.533025" lon="15.08325"><ele>151.0</ele><time>2026-04-24T23:26:43.561Z</time></trkpt><trkpt lat="37.5331633" lon="15.0832767"><ele>151.0</ele><time>2026-04-24T23:26:44.562Z</time></trkpt><trkpt lat="37.5333017" lon="15.0833067"><ele>150.75</ele><time>2026-04-24T23:26:45.561Z</time></trkpt><trkpt lat="37.5334333" lon="15.0833317"><ele>150.5</ele><time>2026-04-24T23:26:46.562Z</time></trkpt><trkpt lat="37.5335617" lon="15.08336"><ele>150.25</ele><time>2026-04-24T23:26:47.562Z</time></trkpt><trkpt lat="37.5336967" lon="15.083385"><ele>150.0</ele><time>2026-04-24T23:26:48.562Z</time></trkpt><trkpt lat="37.5338367" lon="15.083385"><ele>150.5</ele><time>2026-04-24T23:26:49.562Z</time></trkpt><trkpt lat="37.5339717" lon="15.0833683"><ele>151.0</ele><time>2026-04-24T23:26:50.561Z</time></trkpt><trkpt lat="37.5341067" lon="15.08332"><ele>151.5</ele><time>2026-04-24T23:26:51.561Z</time></trkpt><trkpt lat="37.534245" lon="15.0832483"><ele>152.0</ele><time>2026-04-24T23:26:52.562Z</time></trkpt><trkpt lat="37.5343833" lon="15.08317"><ele>153.25</ele><time>2026-04-24T23:26:53.561Z</time></trkpt><trkpt lat="37.5345217" lon="15.0830883"><ele>154.5</ele><time>2026-04-24T23:26:54.562Z</time></trkpt><trkpt lat="37.5346483" lon="15.0830167"><ele>155.75</ele><time>2026-04-24T23:26:55.562Z</time></trkpt><trkpt lat="37.534765" lon="15.0829633"><ele>157.0</ele><time>2026-04-24T23:26:56.562Z</time></trkpt><trkpt lat="37.53488" lon="15.0829267"><ele>157.0</ele><time>2026-04-24T23:26:57.562Z</time></trkpt><trkpt lat="37.53501" lon="15.0828967"><ele>157.0</ele><time>2026-04-24T23:26:58.561Z</time></trkpt><trkpt lat="37.5351467" lon="15.0828933"><ele>157.0</ele><time>2026-04-24T23:26:59.562Z</time></trkpt><trkpt lat="37.53529" lon="15.0828933"><ele>157.0</ele><time>2026-04-24T23:27:00.562Z</time></trkpt><trkpt lat="37.5354267" lon="15.082895"><ele>157.0</ele><time>2026-04-24T23:27:01.562Z</time></trkpt><trkpt lat="37.53555" lon="15.0828917"><ele>157.0</ele><time>2026-04-24T23:27:02.562Z</time></trkpt><trkpt lat="37.53564" lon="15.082885"><ele>157.0</ele><time>2026-04-24T23:27:03.561Z</time></trkpt><trkpt lat="37.5357033" lon="15.0828767"><ele>157.0</ele><time>2026-04-24T23:27:04.561Z</time></trkpt><trkpt lat="37.53577" lon="15.082865"><ele>157.0</ele><time>2026-04-24T23:27:08.562Z</time></trkpt><trkpt lat="37.5358417" lon="15.0828483"><ele>157.0</ele><time>2026-04-24T23:27:12.562Z</time></trkpt><trkpt lat="37.5359633" lon="15.0828183"><ele>157.0</ele><time>2026-04-24T23:27:14.561Z</time></trkpt><trkpt lat="37.5360517" lon="15.082795"><ele>157.0</ele><time>2026-04-24T23:27:15.562Z</time></trkpt><trkpt lat="37.5361517" lon="15.0827567"><ele>157.0</ele><time>2026-04-24T23:27:16.562Z</time></trkpt><trkpt lat="37.53627" lon="15.08271"><ele>157.0</ele><time>2026-04-24T23:27:17.561Z</time></trkpt><trkpt lat="37.5363883" lon="15.0826567"><ele>157.0</ele><time>2026-04-24T23:27:18.562Z</time></trkpt><trkpt lat="37.5365133" lon="15.0826133"><ele>156.75</ele><time>2026-04-24T23:27:19.562Z</time></trkpt><trkpt lat="37.5366333" lon="15.08256"><ele>156.5</ele><time>2026-04-24T23:27:20.561Z</time></trkpt><trkpt lat="37.5367667" lon="15.0825067"><ele>156.25</ele><time>2026-04-24T23:27:21.561Z</time></trkpt><trkpt lat="37.5369083" lon="15.082455"><ele>156.0</ele><time>2026-04-24T23:27:22.562Z</time></trkpt><trkpt lat="37.5370567" lon="15.08239"><ele>158.5</ele><time>2026-04-24T23:27:23.561Z</time></trkpt><trkpt lat="37.5371983" lon="15.082335"><ele>161.0</ele><time>2026-04-24T23:27:24.561Z</time></trkpt><trkpt lat="37.5373383" lon="15.082275"><ele>163.5</ele><time>2026-04-24T23:27:25.562Z</time></trkpt><trkpt lat="37.5374833" lon="15.0822233"><ele>166.0</ele><time>2026-04-24T23:27:26.562Z</time></trkpt><trkpt lat="37.53763" lon="15.0821817"><ele>166.0</ele><time>2026-04-24T23:27:27.561Z</time></trkpt><trkpt lat="37.53778" lon="15.0821433"><ele>166.0</ele><time>2026-04-24T23:27:28.562Z</time></trkpt><trkpt lat="37.53793" lon="15.0821"><ele>166.0</ele><time>2026-04-24T23:27:29.562Z</time></trkpt><trkpt lat="37.53808" lon="15.0820667"><ele>166.5</ele><time>2026-04-24T23:27:30.562Z</time></trkpt><trkpt lat="37.5382183" lon="15.0820283"><ele>167.0</ele><time>2026-04-24T23:27:31.561Z</time></trkpt><trkpt lat="37.5383533" lon="15.082"><ele>167.5</ele><time>2026-04-24T23:27:32.562Z</time></trkpt><trkpt lat="37.5384817" lon="15.0819683"><ele>168.0</ele><time>2026-04-24T23:27:33.561Z</time></trkpt><trkpt lat="37.5385967" lon="15.081925"><ele>168.0</ele><time>2026-04-24T23:27:34.562Z</time></trkpt><trkpt lat="37.5386933" lon="15.0818917"><ele>168.0</ele><time>2026-04-24T23:27:35.562Z</time></trkpt><trkpt lat="37.5388033" lon="15.081865"><ele>168.0</ele><time>2026-04-24T23:27:36.561Z</time></trkpt><trkpt lat="37.5389217" lon="15.08184"><ele>168.0</ele><time>2026-04-24T23:27:37.562Z</time></trkpt><trkpt lat="37.5390517" lon="15.0818117"><ele>167.5</ele><time>2026-04-24T23:27:38.562Z</time></trkpt><trkpt lat="37.5391917" lon="15.081785"><ele>167.0</ele><time>2026-04-24T23:27:39.562Z</time></trkpt><trkpt lat="37.539325" lon="15.081745"><ele>166.5</ele><time>2026-04-24T23:27:40.561Z</time></trkpt><trkpt lat="37.5394533" lon="15.0817167"><ele>166.0</ele><time>2026-04-24T23:27:41.561Z</time></trkpt><trkpt lat="37.53957" lon="15.0816967"><ele>166.0</ele><time>2026-04-24T23:27:42.562Z</time></trkpt><trkpt lat="37.5396783" lon="15.0816883"><ele>166.0</ele><time>2026-04-24T23:27:43.561Z</time></trkpt><trkpt lat="37.5397717" lon="15.08169"><ele>166.0</ele><time>2026-04-24T23:27:44.561Z</time></trkpt><trkpt lat="37.5398483" lon="15.0817033"><ele>166.0</ele><time>2026-04-24T23:27:45.562Z</time></trkpt><trkpt lat="37.5399567" lon="15.0817433"><ele>166.0</ele><time>2026-04-24T23:27:47.562Z</time></trkpt><trkpt lat="37.5400767" lon="15.08181"><ele>166.0</ele><time>2026-04-24T23:27:49.561Z</time></trkpt><trkpt lat="37.5401383" lon="15.0818517"><ele>166.0</ele><time>2026-04-24T23:27:50.561Z</time></trkpt><trkpt lat="37.5402467" lon="15.0819417"><ele>166.0</ele><time>2026-04-24T23:27:52.561Z</time></trkpt><trkpt lat="37.5403433" lon="15.08201"><ele>166.0</ele><time>2026-04-24T23:27:54.562Z</time></trkpt><trkpt lat="37.540435" lon="15.0820133"><ele>166.0</ele><time>2026-04-24T23:27:56.561Z</time></trkpt><trkpt lat="37.5405033" lon="15.0819383"><ele>166.66666666666669</ele><time>2026-04-24T23:27:58.562Z</time></trkpt><trkpt lat="37.5405117" lon="15.081855"><ele>167.33333333333334</ele><time>2026-04-24T23:27:59.562Z</time></trkpt><trkpt lat="37.540505" lon="15.081755"><ele>168.0</ele><time>2026-04-24T23:28:00.561Z</time></trkpt><trkpt lat="37.5404933" lon="15.081655"><ele>168.66666666666666</ele><time>2026-04-24T23:28:01.561Z</time></trkpt><trkpt lat="37.5404867" lon="15.0815667"><ele>169.33333333333331</ele><time>2026-04-24T23:28:02.561Z</time></trkpt><trkpt lat="37.5404917" lon="15.0814633"><ele>170.0</ele><time>2026-04-24T23:28:03.562Z</time></trkpt><trkpt lat="37.54051" lon="15.0813583"><ele>170.6</ele><time>2026-04-24T23:28:04.561Z</time></trkpt><trkpt lat="37.5405483" lon="15.0812533"><ele>171.2</ele><time>2026-04-24T23:28:05.562Z</time></trkpt><trkpt lat="37.54059" lon="15.0811317"><ele>171.8</ele><time>2026-04-24T23:28:06.562Z</time></trkpt><trkpt lat="37.5406517" lon="15.08101"><ele>172.4</ele><time>2026-04-24T23:28:07.562Z</time></trkpt><trkpt lat="37.5407117" lon="15.080875"><ele>173.0</ele><time>2026-04-24T23:28:08.561Z</time></trkpt><trkpt lat="37.5407767" lon="15.080735"><ele>173.25</ele><time>2026-04-24T23:28:09.562Z</time></trkpt><trkpt lat="37.5408433" lon="15.0806"><ele>173.5</ele><time>2026-04-24T23:28:10.562Z</time></trkpt><trkpt lat="37.5409117" lon="15.0804583"><ele>173.75</ele><time>2026-04-24T23:28:11.561Z</time></trkpt><trkpt lat="37.5409867" lon="15.0803133"><ele>174.0</ele><time>2026-04-24T23:28:12.562Z</time></trkpt><trkpt lat="37.5410583" lon="15.0801617"><ele>174.0</ele><time>2026-04-24T23:28:13.562Z</time></trkpt><trkpt lat="37.5411317" lon="15.080015"><ele>174.0</ele><time>2026-04-24T23:28:14.562Z</time></trkpt><trkpt lat="37.5411983" lon="15.07986"><ele>174.0</ele><time>2026-04-24T23:28:15.562Z</time></trkpt><trkpt lat="37.5412683" lon="15.079705"><ele>174.0</ele><time>2026-04-24T23:28:16.561Z</time></trkpt><trkpt lat="37.5413333" lon="15.0795683"><ele>177.75</ele><time>2026-04-24T23:28:17.561Z</time></trkpt><trkpt lat="37.541405" lon="15.0794467"><ele>181.5</ele><time>2026-04-24T23:28:18.561Z</time></trkpt><trkpt lat="37.5414917" lon="15.07933"><ele>185.25</ele><time>2026-04-24T23:28:19.561Z</time></trkpt><trkpt lat="37.5415867" lon="15.0792233"><ele>189.0</ele><time>2026-04-24T23:28:20.562Z</time></trkpt><trkpt lat="37.5416933" lon="15.0791317"><ele>190.0</ele><time>2026-04-24T23:28:21.561Z</time></trkpt><trkpt lat="37.5417983" lon="15.07903"><ele>191.0</ele><time>2026-04-24T23:28:22.561Z</time></trkpt><trkpt lat="37.5419133" lon="15.07893"><ele>192.0</ele><time>2026-04-24T23:28:23.562Z</time></trkpt><trkpt lat="37.54202" lon="15.0788217"><ele>193.0</ele><time>2026-04-24T23:28:24.562Z</time></trkpt><trkpt lat="37.542115" lon="15.0786967"><ele>193.0</ele><time>2026-04-24T23:28:25.562Z</time></trkpt><trkpt lat="37.5422067" lon="15.0785533"><ele>193.0</ele><time>2026-04-24T23:28:26.561Z</time></trkpt><trkpt lat="37.5422917" lon="15.0783967"><ele>193.0</ele><time>2026-04-24T23:28:27.562Z</time></trkpt><trkpt lat="37.5423817" lon="15.0782333"><ele>191.33333333333331</ele><time>2026-04-24T23:28:28.562Z</time></trkpt><trkpt lat="37.54247" lon="15.078065"><ele>189.66666666666666</ele><time>2026-04-24T23:28:29.561Z</time></trkpt><trkpt lat="37.542545" lon="15.0778883"><ele>188.0</ele><time>2026-04-24T23:28:30.561Z</time></trkpt><trkpt lat="37.5426017" lon="15.0777217"><ele>188.0</ele><time>2026-04-24T23:28:31.562Z</time></trkpt><trkpt lat="37.5426517" lon="15.0775683"><ele>188.0</ele><time>2026-04-24T23:28:32.562Z</time></trkpt><trkpt lat="37.54269" lon="15.0774283"><ele>188.0</ele><time>2026-04-24T23:28:33.561Z</time></trkpt><trkpt lat="37.5427167" lon="15.0773"><ele>188.0</ele><time>2026-04-24T23:28:34.562Z</time></trkpt><trkpt lat="37.5427417" lon="15.077185"><ele>188.0</ele><time>2026-04-24T23:28:35.561Z</time></trkpt><trkpt lat="37.5427683" lon="15.0770867"><ele>189.33333333333331</ele><time>2026-04-24T23:28:36.561Z</time></trkpt><trkpt lat="37.5428033" lon="15.07701"><ele>190.66666666666666</ele><time>2026-04-24T23:28:37.562Z</time></trkpt><trkpt lat="37.5428567" lon="15.0769517"><ele>192.0</ele><time>2026-04-24T23:28:38.562Z</time></trkpt><trkpt lat="37.5429167" lon="15.0769133"><ele>193.33333333333331</ele><time>2026-04-24T23:28:39.561Z</time></trkpt><trkpt lat="37.5429967" lon="15.076905"><ele>194.66666666666666</ele><time>2026-04-24T23:28:40.562Z</time></trkpt><trkpt lat="37.543085" lon="15.0769317"><ele>196.0</ele><time>2026-04-24T23:28:41.562Z</time></trkpt><trkpt lat="37.5431783" lon="15.0769933"><ele>197.25</ele><time>2026-04-24T23:28:42.562Z</time></trkpt><trkpt lat="37.5432567" lon="15.07709"><ele>198.5</ele><time>2026-04-24T23:28:43.561Z</time></trkpt><trkpt lat="37.5433233" lon="15.077205"><ele>199.75</ele><time>2026-04-24T23:28:44.562Z</time></trkpt><trkpt lat="37.5434" lon="15.0773233"><ele>201.0</ele><time>2026-04-24T23:28:45.561Z</time></trkpt><trkpt lat="37.5434717" lon="15.0774467"><ele>201.0</ele><time>2026-04-24T23:28:46.562Z</time></trkpt><trkpt lat="37.5435483" lon="15.0775717"><ele>201.0</ele><time>2026-04-24T23:28:47.562Z</time></trkpt><trkpt lat="37.5436267" lon="15.0777017"><ele>201.0</ele><time>2026-04-24T23:28:48.562Z</time></trkpt><trkpt lat="37.54371" lon="15.07784"><ele>201.0</ele><time>2026-04-24T23:28:49.562Z</time></trkpt><trkpt lat="37.5437883" lon="15.077975"><ele>203.5</ele><time>2026-04-24T23:28:50.562Z</time></trkpt><trkpt lat="37.5438717" lon="15.0781117"><ele>206.0</ele><time>2026-04-24T23:28:51.562Z</time></trkpt><trkpt lat="37.543955" lon="15.078255"><ele>208.5</ele><time>2026-04-24T23:28:52.561Z</time></trkpt><trkpt lat="37.5440417" lon="15.0783983"><ele>211.0</ele><time>2026-04-24T23:28:53.562Z</time></trkpt><trkpt lat="37.54413" lon="15.0785383"><ele>212.5</ele><time>2026-04-24T23:28:54.561Z</time></trkpt><trkpt lat="37.5442167" lon="15.0786883"><ele>214.0</ele><time>2026-04-24T23:28:55.562Z</time></trkpt><trkpt lat="37.5443017" lon="15.0788433"><ele>215.5</ele><time>2026-04-24T23:28:56.562Z</time></trkpt><trkpt lat="37.54439" lon="15.0789933"><ele>217.0</ele><time>2026-04-24T23:28:57.562Z</time></trkpt><trkpt lat="37.544485" lon="15.0791367"><ele>220.5</ele><time>2026-04-24T23:28:58.562Z</time></trkpt><trkpt lat="37.5445767" lon="15.0792817"><ele>224.0</ele><time>2026-04-24T23:28:59.561Z</time></trkpt><trkpt lat="37.5446633" lon="15.07942"><ele>227.5</ele><time>2026-04-24T23:29:00.562Z</time></trkpt><trkpt lat="37.54476" lon="15.0795383"><ele>231.0</ele><time>2026-04-24T23:29:01.561Z</time></trkpt><trkpt lat="37.5448667" lon="15.07963"><ele>231.0</ele><time>2026-04-24T23:29:02.562Z</time></trkpt><trkpt lat="37.5449767" lon="15.0797"><ele>231.0</ele><time>2026-04-24T23:29:03.561Z</time></trkpt><trkpt lat="37.5451" lon="15.0797533"><ele>231.0</ele><time>2026-04-24T23:29:04.562Z</time></trkpt><trkpt lat="37.545235" lon="15.079805"><ele>231.0</ele><time>2026-04-24T23:29:05.562Z</time></trkpt><trkpt lat="37.5453683" lon="15.0798617"><ele>231.75</ele><time>2026-04-24T23:29:06.562Z</time></trkpt><trkpt lat="37.5455033" lon="15.079915"><ele>232.5</ele><time>2026-04-24T23:29:07.562Z</time></trkpt><trkpt lat="37.545635" lon="15.0799667"><ele>233.25</ele><time>2026-04-24T23:29:08.562Z</time></trkpt><trkpt lat="37.5457667" lon="15.08002"><ele>234.0</ele><time>2026-04-24T23:29:09.561Z</time></trkpt><trkpt lat="37.5458983" lon="15.0800783"><ele>234.0</ele><time>2026-04-24T23:29:10.562Z</time></trkpt><trkpt lat="37.5460233" lon="15.0801533"><ele>234.0</ele><time>2026-04-24T23:29:11.561Z</time></trkpt><trkpt lat="37.5461383" lon="15.0802317"><ele>234.0</ele><time>2026-04-24T23:29:12.561Z</time></trkpt><trkpt lat="37.5462233" lon="15.0803267"><ele>234.0</ele><time>2026-04-24T23:29:13.562Z</time></trkpt><trkpt lat="37.54629" lon="15.0804517"><ele>236.0</ele><time>2026-04-24T23:29:14.562Z</time></trkpt><trkpt lat="37.5463433" lon="15.08059"><ele>238.0</ele><time>2026-04-24T23:29:15.562Z</time></trkpt><trkpt lat="37.5463783" lon="15.080745"><ele>240.0</ele><time>2026-04-24T23:29:16.562Z</time></trkpt><trkpt lat="37.5464233" lon="15.0809017"><ele>242.0</ele><time>2026-04-24T23:29:17.561Z</time></trkpt><trkpt lat="37.546465" lon="15.0810617"><ele>242.0</ele><time>2026-04-24T23:29:18.562Z</time></trkpt><trkpt lat="37.5465133" lon="15.0812233"><ele>242.0</ele><time>2026-04-24T23:29:19.562Z</time></trkpt><trkpt lat="37.5465583" lon="15.0813933"><ele>242.0</ele><time>2026-04-24T23:29:20.562Z</time></trkpt><trkpt lat="37.546605" lon="15.081565"><ele>242.0</ele><time>2026-04-24T23:29:21.561Z</time></trkpt><trkpt lat="37.5466583" lon="15.0817367"><ele>243.25</ele><time>2026-04-24T23:29:22.561Z</time></trkpt><trkpt lat="37.5467067" lon="15.0819133"><ele>244.5</ele><time>2026-04-24T23:29:23.561Z</time></trkpt><trkpt lat="37.5467633" lon="15.0820867"><ele>245.75</ele><time>2026-04-24T23:29:24.562Z</time></trkpt><trkpt lat="37.5468217" lon="15.0822533"><ele>247.0</ele><time>2026-04-24T23:29:25.562Z</time></trkpt><trkpt lat="37.5469083" lon="15.08241"><ele>246.5</ele><time>2026-04-24T23:29:26.562Z</time></trkpt><trkpt lat="37.5470167" lon="15.0825433"><ele>246.0</ele><time>2026-04-24T23:29:27.562Z</time></trkpt><trkpt lat="37.5471333" lon="15.08265"><ele>245.5</ele><time>2026-04-24T23:29:28.561Z</time></trkpt><trkpt lat="37.5472383" lon="15.0827433"><ele>245.0</ele><time>2026-04-24T23:29:29.561Z</time></trkpt><trkpt lat="37.5473267" lon="15.0828267"><ele>246.75</ele><time>2026-04-24T23:29:30.561Z</time></trkpt><trkpt lat="37.5474117" lon="15.0829117"><ele>248.5</ele><time>2026-04-24T23:29:31.562Z</time></trkpt><trkpt lat="37.5475033" lon="15.0829917"><ele>250.25</ele><time>2026-04-24T23:29:32.561Z</time></trkpt><trkpt lat="37.5476" lon="15.08307"><ele>252.0</ele><time>2026-04-24T23:29:33.562Z</time></trkpt><trkpt lat="37.5477017" lon="15.0831533"><ele>252.0</ele><time>2026-04-24T23:29:34.561Z</time></trkpt><trkpt lat="37.5478017" lon="15.0832333"><ele>252.0</ele><time>2026-04-24T23:29:35.562Z</time></trkpt><trkpt lat="37.547915" lon="15.083305"><ele>252.0</ele><time>2026-04-24T23:29:36.561Z</time></trkpt><trkpt lat="37.5480183" lon="15.08335"><ele>252.0</ele><time>2026-04-24T23:29:37.562Z</time></trkpt><trkpt lat="37.5481267" lon="15.0833567"><ele>253.25</ele><time>2026-04-24T23:29:38.561Z</time></trkpt><trkpt lat="37.54823" lon="15.08333"><ele>254.5</ele><time>2026-04-24T23:29:39.561Z</time></trkpt><trkpt lat="37.548335" lon="15.0832417"><ele>255.75</ele><time>2026-04-24T23:29:40.562Z</time></trkpt><trkpt lat="37.5484367" lon="15.08315"><ele>257.0</ele><time>2026-04-24T23:29:41.562Z</time></trkpt><trkpt lat="37.5485433" lon="15.0830483"><ele>257.75</ele><time>2026-04-24T23:29:42.562Z</time></trkpt><trkpt lat="37.5486467" lon="15.0829367"><ele>258.5</ele><time>2026-04-24T23:29:43.562Z</time></trkpt><trkpt lat="37.548755" lon="15.0828333"><ele>259.25</ele><time>2026-04-24T23:29:44.562Z</time></trkpt><trkpt lat="37.5488733" lon="15.08272"><ele>260.0</ele><time>2026-04-24T23:29:45.561Z</time></trkpt><trkpt lat="37.5489817" lon="15.0826017"><ele>261.25</ele><time>2026-04-24T23:29:46.562Z</time></trkpt><trkpt lat="37.5490967" lon="15.082485"><ele>262.5</ele><time>2026-04-24T23:29:47.562Z</time></trkpt><trkpt lat="37.5492183" lon="15.0823833"><ele>263.75</ele><time>2026-04-24T23:29:48.561Z</time></trkpt><trkpt lat="37.549335" lon="15.08226"><ele>265.0</ele><time>2026-04-24T23:29:49.562Z</time></trkpt><trkpt lat="37.5494533" lon="15.082135"><ele>266.66666666666663</ele><time>2026-04-24T23:29:50.562Z</time></trkpt><trkpt lat="37.5495783" lon="15.0820267"><ele>268.3333333333333</ele><time>2026-04-24T23:29:51.561Z</time></trkpt><trkpt lat="37.5496983" lon="15.08191"><ele>270.0</ele><time>2026-04-24T23:29:52.562Z</time></trkpt><trkpt lat="37.5498233" lon="15.0817883"><ele>270.0</ele><time>2026-04-24T23:29:53.562Z</time></trkpt><trkpt lat="37.54995" lon="15.0816783"><ele>270.0</ele><time>2026-04-24T23:29:54.562Z</time></trkpt><trkpt lat="37.550075" lon="15.0815617"><ele>270.0</ele><time>2026-04-24T23:29:55.562Z</time></trkpt><trkpt lat="37.5501833" lon="15.08146"><ele>270.0</ele><time>2026-04-24T23:29:56.561Z</time></trkpt><trkpt lat="37.55026" lon="15.08138"><ele>270.8333333333333</ele><time>2026-04-24T23:29:57.561Z</time></trkpt><trkpt lat="37.5503217" lon="15.0813217"><ele>271.6666666666667</ele><time>2026-04-24T23:29:58.561Z</time></trkpt><trkpt lat="37.5503917" lon="15.0812617"><ele>272.5</ele><time>2026-04-24T23:29:59.561Z</time></trkpt><trkpt lat="37.550465" lon="15.0811933"><ele>273.33333333333337</ele><time>2026-04-24T23:30:00.561Z</time></trkpt><trkpt lat="37.5505417" lon="15.0811217"><ele>274.1666666666667</ele><time>2026-04-24T23:30:01.562Z</time></trkpt><trkpt lat="37.5506217" lon="15.081045"><ele>275.0</ele><time>2026-04-24T23:30:02.562Z</time></trkpt><trkpt lat="37.5507033" lon="15.0809717"><ele>275.4</ele><time>2026-04-24T23:30:03.561Z</time></trkpt><trkpt lat="37.550785" lon="15.0808983"><ele>275.8</ele><time>2026-04-24T23:30:04.562Z</time></trkpt><trkpt lat="37.5508667" lon="15.0808217"><ele>276.2</ele><time>2026-04-24T23:30:05.562Z</time></trkpt><trkpt lat="37.55095" lon="15.08074"><ele>276.6</ele><time>2026-04-24T23:30:06.562Z</time></trkpt><trkpt lat="37.5510367" lon="15.08065"><ele>277.0</ele><time>2026-04-24T23:30:07.561Z</time></trkpt><trkpt lat="37.5511267" lon="15.0805617"><ele>279.75</ele><time>2026-04-24T23:30:08.561Z</time></trkpt><trkpt lat="37.5512167" lon="15.0804767"><ele>282.5</ele><time>2026-04-24T23:30:09.561Z</time></trkpt><trkpt lat="37.55131" lon="15.08039"><ele>285.25</ele><time>2026-04-24T23:30:10.561Z</time></trkpt><trkpt lat="37.5513933" lon="15.0803"><ele>288.0</ele><time>2026-04-24T23:30:11.562Z</time></trkpt><trkpt lat="37.5514783" lon="15.0802083"><ele>288.0</ele><time>2026-04-24T23:30:12.562Z</time></trkpt><trkpt lat="37.5515683" lon="15.08014"><ele>288.0</ele><time>2026-04-24T23:30:13.561Z</time></trkpt><trkpt lat="37.5516617" lon="15.080075"><ele>288.0</ele><time>2026-04-24T23:30:14.562Z</time></trkpt><trkpt lat="37.5517667" lon="15.0800367"><ele>288.0</ele><time>2026-04-24T23:30:15.561Z</time></trkpt><trkpt lat="37.5518717" lon="15.0800133"><ele>288.0</ele><time>2026-04-24T23:30:16.562Z</time></trkpt><trkpt lat="37.5519833" lon="15.0799967"><ele>290.0</ele><time>2026-04-24T23:30:17.562Z</time></trkpt><trkpt lat="37.552095" lon="15.0799817"><ele>292.0</ele><time>2026-04-24T23:30:18.562Z</time></trkpt><trkpt lat="37.55221" lon="15.079965"><ele>294.0</ele><time>2026-04-24T23:30:19.561Z</time></trkpt><trkpt lat="37.5523333" lon="15.0799533"><ele>296.0</ele><time>2026-04-24T23:30:20.561Z</time></trkpt><trkpt lat="37.5524533" lon="15.07994"><ele>296.0</ele><time>2026-04-24T23:30:21.562Z</time></trkpt><trkpt lat="37.5525783" lon="15.07994"><ele>296.0</ele><time>2026-04-24T23:30:22.561Z</time></trkpt><trkpt lat="37.5526933" lon="15.079925"><ele>296.0</ele><time>2026-04-24T23:30:23.562Z</time></trkpt><trkpt lat="37.55281" lon="15.0799183"><ele>296.0</ele><time>2026-04-24T23:30:24.561Z</time></trkpt><trkpt lat="37.55292" lon="15.07992"><ele>296.5</ele><time>2026-04-24T23:30:25.562Z</time></trkpt><trkpt lat="37.5530167" lon="15.0799283"><ele>297.0</ele><time>2026-04-24T23:30:26.562Z</time></trkpt><trkpt lat="37.5531067" lon="15.0799567"><ele>297.5</ele><time>2026-04-24T23:30:27.562Z</time></trkpt><trkpt lat="37.553175" lon="15.07998"><ele>298.0</ele><time>2026-04-24T23:30:28.561Z</time></trkpt><trkpt lat="37.5532833" lon="15.0800317"><ele>298.5</ele><time>2026-04-24T23:30:30.562Z</time></trkpt><trkpt lat="37.55335" lon="15.080045"><ele>299.0</ele><time>2026-04-24T23:30:32.562Z</time></trkpt><trkpt lat="37.5534" lon="15.07996"><ele>299.4</ele><time>2026-04-24T23:30:34.562Z</time></trkpt><trkpt lat="37.55341" lon="15.0797967"><ele>299.79999999999995</ele><time>2026-04-24T23:30:36.562Z</time></trkpt><trkpt lat="37.553435" lon="15.0796967"><ele>300.20000000000005</ele><time>2026-04-24T23:30:37.563Z</time></trkpt><trkpt lat="37.55346" lon="15.0795933"><ele>300.6</ele><time>2026-04-24T23:30:38.562Z</time></trkpt><trkpt lat="37.55349" lon="15.0794833"><ele>301.0</ele><time>2026-04-24T23:30:39.562Z</time></trkpt><trkpt lat="37.553525" lon="15.0793717"><ele>301.0</ele><time>2026-04-24T23:30:40.563Z</time></trkpt><trkpt lat="37.5535483" lon="15.0792633"><ele>301.0</ele><time>2026-04-24T23:30:41.562Z</time></trkpt><trkpt lat="37.55358" lon="15.0791667"><ele>301.0</ele><time>2026-04-24T23:30:42.562Z</time></trkpt><trkpt lat="37.5536267" lon="15.0790617"><ele>301.0</ele><time>2026-04-24T23:30:43.563Z</time></trkpt><trkpt lat="37.5536917" lon="15.078965"><ele>301.0</ele><time>2026-04-24T23:30:44.562Z</time></trkpt><trkpt lat="37.5537517" lon="15.0788483"><ele>302.0</ele><time>2026-04-24T23:30:45.562Z</time></trkpt><trkpt lat="37.553815" lon="15.078735"><ele>303.0</ele><time>2026-04-24T23:30:46.563Z</time></trkpt><trkpt lat="37.55388" lon="15.0786183"><ele>304.0</ele><time>2026-04-24T23:30:47.563Z</time></trkpt><trkpt lat="37.5539383" lon="15.0784867"><ele>305.0</ele><time>2026-04-24T23:30:48.563Z</time></trkpt><trkpt lat="37.5539917" lon="15.078345"><ele>304.75</ele><time>2026-04-24T23:30:49.562Z</time></trkpt><trkpt lat="37.5540467" lon="15.0781967"><ele>304.5</ele><time>2026-04-24T23:30:50.563Z</time></trkpt><trkpt lat="37.5540933" lon="15.0780417"><ele>304.25</ele><time>2026-04-24T23:30:51.563Z</time></trkpt><trkpt lat="37.55415" lon="15.0778717"><ele>304.0</ele><time>2026-04-24T23:30:52.563Z</time></trkpt><trkpt lat="37.554205" lon="15.0776967"><ele>304.0</ele><time>2026-04-24T23:30:53.562Z</time></trkpt><trkpt lat="37.5542583" lon="15.0775317"><ele>304.0</ele><time>2026-04-24T23:30:54.563Z</time></trkpt><trkpt lat="37.5543" lon="15.0773583"><ele>304.0</ele><time>2026-04-24T23:30:55.562Z</time></trkpt><trkpt lat="37.5543567" lon="15.0771883"><ele>304.0</ele><time>2026-04-24T23:30:56.563Z</time></trkpt><trkpt lat="37.55441" lon="15.077015"><ele>304.5</ele><time>2026-04-24T23:30:57.563Z</time></trkpt><trkpt lat="37.554465" lon="15.07684"><ele>305.0</ele><time>2026-04-24T23:30:58.562Z</time></trkpt><trkpt lat="37.5545217" lon="15.0766717"><ele>305.5</ele><time>2026-04-24T23:30:59.563Z</time></trkpt><trkpt lat="37.5545717" lon="15.0764967"><ele>306.0</ele><time>2026-04-24T23:31:00.562Z</time></trkpt><trkpt lat="37.5546167" lon="15.0763283"><ele>307.5</ele><time>2026-04-24T23:31:01.563Z</time></trkpt><trkpt lat="37.5546567" lon="15.0761617"><ele>309.0</ele><time>2026-04-24T23:31:02.562Z</time></trkpt><trkpt lat="37.5546917" lon="15.0760017"><ele>310.5</ele><time>2026-04-24T23:31:03.562Z</time></trkpt><trkpt lat="37.5547217" lon="15.0758417"><ele>312.0</ele><time>2026-04-24T23:31:04.562Z</time></trkpt><trkpt lat="37.5547567" lon="15.07568"><ele>312.25</ele><time>2026-04-24T23:31:05.562Z</time></trkpt><trkpt lat="37.5547867" lon="15.0755267"><ele>312.5</ele><time>2026-04-24T23:31:06.563Z</time></trkpt><trkpt lat="37.55479" lon="15.075365"><ele>312.75</ele><time>2026-04-24T23:31:07.563Z</time></trkpt><trkpt lat="37.5547933" lon="15.0752083"><ele>313.0</ele><time>2026-04-24T23:31:08.562Z</time></trkpt><trkpt lat="37.5547933" lon="15.0750583"><ele>313.0</ele><time>2026-04-24T23:31:09.562Z</time></trkpt><trkpt lat="37.554795" lon="15.0749183"><ele>313.0</ele><time>2026-04-24T23:31:10.562Z</time></trkpt><trkpt lat="37.5547933" lon="15.074795"><ele>313.0</ele><time>2026-04-24T23:31:11.563Z</time></trkpt><trkpt lat="37.554795" lon="15.0747"><ele>313.0</ele><time>2026-04-24T23:31:12.563Z</time></trkpt><trkpt lat="37.5547933" lon="15.07462"><ele>313.0</ele><time>2026-04-24T23:31:13.563Z</time></trkpt><trkpt lat="37.5548067" lon="15.074505"><ele>313.0</ele><time>2026-04-24T23:31:15.562Z</time></trkpt><trkpt lat="37.5548433" lon="15.0744333"><ele>313.0</ele><time>2026-04-24T23:31:18.563Z</time></trkpt><trkpt lat="37.55492" lon="15.0743983"><ele>313.0</ele><time>2026-04-24T23:31:20.563Z</time></trkpt><trkpt lat="37.554985" lon="15.07439"><ele>313.0</ele><time>2026-04-24T23:31:21.562Z</time></trkpt><trkpt lat="37.55507" lon="15.0743833"><ele>313.0</ele><time>2026-04-24T23:31:22.562Z</time></trkpt><trkpt lat="37.555165" lon="15.074375"><ele>313.0</ele><time>2026-04-24T23:31:23.563Z</time></trkpt><trkpt lat="37.55527" lon="15.0743717"><ele>313.0</ele><time>2026-04-24T23:31:24.563Z</time></trkpt><trkpt lat="37.5553883" lon="15.0743667"><ele>313.25</ele><time>2026-04-24T23:31:25.563Z</time></trkpt><trkpt lat="37.5555217" lon="15.0743567"><ele>313.5</ele><time>2026-04-24T23:31:26.563Z</time></trkpt><trkpt lat="37.5556533" lon="15.0743517"><ele>313.75</ele><time>2026-04-24T23:31:27.563Z</time></trkpt><trkpt lat="37.5557883" lon="15.0743533"><ele>314.0</ele><time>2026-04-24T23:31:28.563Z</time></trkpt><trkpt lat="37.5559217" lon="15.0743483"><ele>314.0</ele><time>2026-04-24T23:31:29.563Z</time></trkpt><trkpt lat="37.55606" lon="15.074335"><ele>314.0</ele><time>2026-04-24T23:31:30.562Z</time></trkpt><trkpt lat="37.556195" lon="15.0743167"><ele>314.0</ele><time>2026-04-24T23:31:31.563Z</time></trkpt><trkpt lat="37.5563217" lon="15.07427"><ele>314.0</ele><time>2026-04-24T23:31:32.563Z</time></trkpt><trkpt lat="37.556445" lon="15.0741917"><ele>314.5</ele><time>2026-04-24T23:31:33.563Z</time></trkpt><trkpt lat="37.556565" lon="15.074105"><ele>315.0</ele><time>2026-04-24T23:31:34.562Z</time></trkpt><trkpt lat="37.5566833" lon="15.07402"><ele>315.5</ele><time>2026-04-24T23:31:35.562Z</time></trkpt><trkpt lat="37.5568017" lon="15.0739367"><ele>316.0</ele><time>2026-04-24T23:31:36.563Z</time></trkpt><trkpt lat="37.5569133" lon="15.0738517"><ele>316.0</ele><time>2026-04-24T23:31:37.562Z</time></trkpt><trkpt lat="37.55703" lon="15.0737667"><ele>316.0</ele><time>2026-04-24T23:31:38.563Z</time></trkpt><trkpt lat="37.5571483" lon="15.0736783"><ele>316.0</ele><time>2026-04-24T23:31:39.562Z</time></trkpt><trkpt lat="37.5572717" lon="15.07359"><ele>316.0</ele><time>2026-04-24T23:31:40.562Z</time></trkpt><trkpt lat="37.5573833" lon="15.0734967"><ele>317.5</ele><time>2026-04-24T23:31:41.562Z</time></trkpt><trkpt lat="37.557495" lon="15.07341"><ele>319.0</ele><time>2026-04-24T23:31:42.563Z</time></trkpt><trkpt lat="37.5576133" lon="15.0733367"><ele>320.5</ele><time>2026-04-24T23:31:43.563Z</time></trkpt><trkpt lat="37.5577367" lon="15.0732783"><ele>322.0</ele><time>2026-04-24T23:31:44.563Z</time></trkpt><trkpt lat="37.5578683" lon="15.0732483"><ele>322.75</ele><time>2026-04-24T23:31:45.563Z</time></trkpt><trkpt lat="37.5580067" lon="15.0732333"><ele>323.5</ele><time>2026-04-24T23:31:46.562Z</time></trkpt><trkpt lat="37.558145" lon="15.07324"><ele>324.25</ele><time>2026-04-24T23:31:47.563Z</time></trkpt><trkpt lat="37.5582867" lon="15.0732567"><ele>325.0</ele><time>2026-04-24T23:31:48.562Z</time></trkpt><trkpt lat="37.558425" lon="15.07327"><ele>325.75</ele><time>2026-04-24T23:31:49.562Z</time></trkpt><trkpt lat="37.5585617" lon="15.0732783"><ele>326.5</ele><time>2026-04-24T23:31:50.563Z</time></trkpt><trkpt lat="37.5587083" lon="15.0732983"><ele>327.25</ele><time>2026-04-24T23:31:51.563Z</time></trkpt><trkpt lat="37.5588567" lon="15.0733183"><ele>328.0</ele><time>2026-04-24T23:31:52.563Z</time></trkpt><trkpt lat="37.5589933" lon="15.07333"><ele>330.0</ele><time>2026-04-24T23:31:53.563Z</time></trkpt><trkpt lat="37.5591167" lon="15.0733483"><ele>332.0</ele><time>2026-04-24T23:31:54.562Z</time></trkpt><trkpt lat="37.5592417" lon="15.0733567"><ele>334.0</ele><time>2026-04-24T23:31:55.563Z</time></trkpt><trkpt lat="37.55936" lon="15.0733617"><ele>336.0</ele><time>2026-04-24T23:31:56.562Z</time></trkpt><trkpt lat="37.55946" lon="15.0733733"><ele>336.0</ele><time>2026-04-24T23:31:57.563Z</time></trkpt><trkpt lat="37.5595333" lon="15.0733917"><ele>336.0</ele><time>2026-04-24T23:31:58.563Z</time></trkpt><trkpt lat="37.559625" lon="15.073405"><ele>336.0</ele><time>2026-04-24T23:32:00.563Z</time></trkpt><trkpt lat="37.55969" lon="15.07342"><ele>336.0</ele><time>2026-04-24T23:32:02.562Z</time></trkpt><trkpt lat="37.5597583" lon="15.0734083"><ele>336.0</ele><time>2026-04-24T23:32:05.563Z</time></trkpt><trkpt lat="37.5598117" lon="15.0733267"><ele>336.0</ele><time>2026-04-24T23:32:07.563Z</time></trkpt><trkpt lat="37.5598467" lon="15.0731617"><ele>337.20000000000005</ele><time>2026-04-24T23:32:09.563Z</time></trkpt><trkpt lat="37.5598683" lon="15.073055"><ele>338.40000000000003</ele><time>2026-04-24T23:32:10.562Z</time></trkpt><trkpt lat="37.5598833" lon="15.0729333"><ele>339.6</ele><time>2026-04-24T23:32:11.563Z</time></trkpt><trkpt lat="37.5598917" lon="15.072795"><ele>340.8</ele><time>2026-04-24T23:32:12.563Z</time></trkpt><trkpt lat="37.5599067" lon="15.07266"><ele>342.0</ele><time>2026-04-24T23:32:13.562Z</time></trkpt><trkpt lat="37.5599217" lon="15.0725133"><ele>342.5</ele><time>2026-04-24T23:32:14.563Z</time></trkpt><trkpt lat="37.55994" lon="15.0723633"><ele>343.0</ele><time>2026-04-24T23:32:15.563Z</time></trkpt><trkpt lat="37.5599583" lon="15.0722083"><ele>343.5</ele><time>2026-04-24T23:32:16.562Z</time></trkpt><trkpt lat="37.5599783" lon="15.072055"><ele>344.0</ele><time>2026-04-24T23:32:17.563Z</time></trkpt><trkpt lat="37.5600083" lon="15.0718967"><ele>344.0</ele><time>2026-04-24T23:32:18.563Z</time></trkpt><trkpt lat="37.5600433" lon="15.07174"><ele>344.0</ele><time>2026-04-24T23:32:19.562Z</time></trkpt><trkpt lat="37.5600817" lon="15.07158"><ele>344.0</ele><time>2026-04-24T23:32:20.563Z</time></trkpt><trkpt lat="37.5601167" lon="15.0714217"><ele>344.0</ele><time>2026-04-24T23:32:21.562Z</time></trkpt><trkpt lat="37.5601517" lon="15.07127"><ele>344.25</ele><time>2026-04-24T23:32:22.563Z</time></trkpt><trkpt lat="37.5601833" lon="15.0711183"><ele>344.5</ele><time>2026-04-24T23:32:23.563Z</time></trkpt><trkpt lat="37.5602217" lon="15.0709733"><ele>344.75</ele><time>2026-04-24T23:32:24.562Z</time></trkpt><trkpt lat="37.560265" lon="15.0708267"><ele>345.0</ele><time>2026-04-24T23:32:25.562Z</time></trkpt><trkpt lat="37.5603033" lon="15.070685"><ele>346.0</ele><time>2026-04-24T23:32:26.562Z</time></trkpt><trkpt lat="37.5603433" lon="15.07053"><ele>347.0</ele><time>2026-04-24T23:32:27.563Z</time></trkpt><trkpt lat="37.5603783" lon="15.0703717"><ele>348.0</ele><time>2026-04-24T23:32:28.563Z</time></trkpt><trkpt lat="37.5604183" lon="15.0702217"><ele>349.0</ele><time>2026-04-24T23:32:29.562Z</time></trkpt><trkpt lat="37.5604483" lon="15.0700767"><ele>350.25</ele><time>2026-04-24T23:32:30.562Z</time></trkpt><trkpt lat="37.5604867" lon="15.0699283"><ele>351.5</ele><time>2026-04-24T23:32:31.563Z</time></trkpt><trkpt lat="37.560525" lon="15.0697667"><ele>352.75</ele><time>2026-04-24T23:32:32.562Z</time></trkpt><trkpt lat="37.56055" lon="15.0696083"><ele>354.0</ele><time>2026-04-24T23:32:33.563Z</time></trkpt><trkpt lat="37.5605883" lon="15.06946"><ele>354.0</ele><time>2026-04-24T23:32:34.563Z</time></trkpt><trkpt lat="37.5606117" lon="15.0693"><ele>354.0</ele><time>2026-04-24T23:32:35.562Z</time></trkpt><trkpt lat="37.5606567" lon="15.06915"><ele>354.0</ele><time>2026-04-24T23:32:36.563Z</time></trkpt><trkpt lat="37.5606917" lon="15.0689917"><ele>354.0</ele><time>2026-04-24T23:32:37.562Z</time></trkpt><trkpt lat="37.5607333" lon="15.0688583"><ele>354.2</ele><time>2026-04-24T23:32:38.563Z</time></trkpt><trkpt lat="37.5607683" lon="15.0687317"><ele>354.4</ele><time>2026-04-24T23:32:39.563Z</time></trkpt><trkpt lat="37.560795" lon="15.068625"><ele>354.6</ele><time>2026-04-24T23:32:40.563Z</time></trkpt><trkpt lat="37.5608183" lon="15.0685367"><ele>354.8</ele><time>2026-04-24T23:32:41.562Z</time></trkpt><trkpt lat="37.5608717" lon="15.0684017"><ele>355.0</ele><time>2026-04-24T23:32:43.562Z</time></trkpt><trkpt lat="37.560915" lon="15.0683433"><ele>356.0</ele><time>2026-04-24T23:32:44.563Z</time></trkpt><trkpt lat="37.5610467" lon="15.0682733"><ele>357.0</ele><time>2026-04-24T23:32:46.563Z</time></trkpt><trkpt lat="37.5611417" lon="15.0682417"><ele>358.0</ele><time>2026-04-24T23:32:47.562Z</time></trkpt><trkpt lat="37.5612517" lon="15.068205"><ele>359.0</ele><time>2026-04-24T23:32:48.563Z</time></trkpt><trkpt lat="37.5613683" lon="15.068155"><ele>359.25</ele><time>2026-04-24T23:32:49.563Z</time></trkpt><trkpt lat="37.56148" lon="15.068085"><ele>359.5</ele><time>2026-04-24T23:32:50.562Z</time></trkpt><trkpt lat="37.5615917" lon="15.0680033"><ele>359.75</ele><time>2026-04-24T23:32:51.563Z</time></trkpt><trkpt lat="37.561705" lon="15.0679183"><ele>360.0</ele><time>2026-04-24T23:32:52.562Z</time></trkpt><trkpt lat="37.5618217" lon="15.067835"><ele>360.0</ele><time>2026-04-24T23:32:53.562Z</time></trkpt><trkpt lat="37.561945" lon="15.067745"><ele>360.0</ele><time>2026-04-24T23:32:54.563Z</time></trkpt><trkpt lat="37.5620683" lon="15.067655"><ele>360.0</ele><time>2026-04-24T23:32:55.563Z</time></trkpt><trkpt lat="37.5621983" lon="15.067565"><ele>360.0</ele><time>2026-04-24T23:32:56.563Z</time></trkpt><trkpt lat="37.5623367" lon="15.0674833"><ele>361.25</ele><time>2026-04-24T23:32:57.562Z</time></trkpt><trkpt lat="37.56247" lon="15.0673917"><ele>362.5</ele><time>2026-04-24T23:32:58.562Z</time></trkpt><trkpt lat="37.5625883" lon="15.0673"><ele>363.75</ele><time>2026-04-24T23:32:59.563Z</time></trkpt><trkpt lat="37.562705" lon="15.067215"><ele>365.0</ele><time>2026-04-24T23:33:00.563Z</time></trkpt><trkpt lat="37.5628183" lon="15.06713"><ele>366.0</ele><time>2026-04-24T23:33:01.563Z</time></trkpt><trkpt lat="37.5629283" lon="15.0670433"><ele>367.0</ele><time>2026-04-24T23:33:02.563Z</time></trkpt><trkpt lat="37.563045" lon="15.06696"><ele>368.0</ele><time>2026-04-24T23:33:03.562Z</time></trkpt><trkpt lat="37.5631533" lon="15.066865"><ele>369.0</ele><time>2026-04-24T23:33:04.562Z</time></trkpt><trkpt lat="37.5632667" lon="15.066775"><ele>369.0</ele><time>2026-04-24T23:33:05.562Z</time></trkpt><trkpt lat="37.5633733" lon="15.06668"><ele>369.0</ele><time>2026-04-24T23:33:06.563Z</time></trkpt><trkpt lat="37.563485" lon="15.0665967"><ele>369.0</ele><time>2026-04-24T23:33:07.563Z</time></trkpt><trkpt lat="37.5636017" lon="15.0665067"><ele>369.0</ele><time>2026-04-24T23:33:08.563Z</time></trkpt><trkpt lat="37.5637183" lon="15.0664133"><ele>369.75</ele><time>2026-04-24T23:33:09.563Z</time></trkpt><trkpt lat="37.56383" lon="15.0663133"><ele>370.5</ele><time>2026-04-24T23:33:10.563Z</time></trkpt><trkpt lat="37.5639417" lon="15.0662217"><ele>371.25</ele><time>2026-04-24T23:33:11.563Z</time></trkpt><trkpt lat="37.564055" lon="15.0661333"><ele>372.0</ele><time>2026-04-24T23:33:12.563Z</time></trkpt><trkpt lat="37.5641683" lon="15.0660417"><ele>372.0</ele><time>2026-04-24T23:33:13.562Z</time></trkpt><trkpt lat="37.56428" lon="15.0659517"><ele>372.0</ele><time>2026-04-24T23:33:14.562Z</time></trkpt><trkpt lat="37.5643867" lon="15.0658717"><ele>372.0</ele><time>2026-04-24T23:33:15.563Z</time></trkpt><trkpt lat="37.56448" lon="15.0657933"><ele>372.0</ele><time>2026-04-24T23:33:16.563Z</time></trkpt><trkpt lat="37.5645667" lon="15.0657133"><ele>372.5</ele><time>2026-04-24T23:33:17.563Z</time></trkpt><trkpt lat="37.56466" lon="15.0656283"><ele>373.0</ele><time>2026-04-24T23:33:18.562Z</time></trkpt><trkpt lat="37.5647583" lon="15.0655383"><ele>373.5</ele><time>2026-04-24T23:33:19.562Z</time></trkpt><trkpt lat="37.5648633" lon="15.0654367"><ele>374.0</ele><time>2026-04-24T23:33:20.563Z</time></trkpt><trkpt lat="37.56496" lon="15.06531"><ele>374.0</ele><time>2026-04-24T23:33:21.562Z</time></trkpt><trkpt lat="37.565055" lon="15.0651767"><ele>374.0</ele><time>2026-04-24T23:33:22.563Z</time></trkpt><trkpt lat="37.56514" lon="15.065025"><ele>374.0</ele><time>2026-04-24T23:33:23.563Z</time></trkpt><trkpt lat="37.5652133" lon="15.064855"><ele>374.0</ele><time>2026-04-24T23:33:24.563Z</time></trkpt><trkpt lat="37.5652767" lon="15.06467"><ele>373.0</ele><time>2026-04-24T23:33:25.563Z</time></trkpt><trkpt lat="37.56533" lon="15.0644717"><ele>372.0</ele><time>2026-04-24T23:33:26.563Z</time></trkpt><trkpt lat="37.5653733" lon="15.064265"><ele>371.0</ele><time>2026-04-24T23:33:27.563Z</time></trkpt><trkpt lat="37.5654167" lon="15.0640533"><ele>373.33333333333337</ele><time>2026-04-24T23:33:28.563Z</time></trkpt><trkpt lat="37.56545" lon="15.0638383"><ele>375.6666666666667</ele><time>2026-04-24T23:33:29.563Z</time></trkpt><trkpt lat="37.565485" lon="15.0636317"><ele>378.0</ele><time>2026-04-24T23:33:30.563Z</time></trkpt><trkpt lat="37.5655183" lon="15.0634317"><ele>377.75</ele><time>2026-04-24T23:33:31.562Z</time></trkpt><trkpt lat="37.565555" lon="15.06324"><ele>377.5</ele><time>2026-04-24T23:33:32.563Z</time></trkpt><trkpt lat="37.565595" lon="15.0630633"><ele>377.25</ele><time>2026-04-24T23:33:33.562Z</time></trkpt><trkpt lat="37.5656433" lon="15.0629033"><ele>377.0</ele><time>2026-04-24T23:33:34.562Z</time></trkpt><trkpt lat="37.5657067" lon="15.062755"><ele>377.0</ele><time>2026-04-24T23:33:35.563Z</time></trkpt><trkpt lat="37.5657867" lon="15.0626133"><ele>377.0</ele><time>2026-04-24T23:33:36.563Z</time></trkpt><trkpt lat="37.56587" lon="15.062465"><ele>377.0</ele><time>2026-04-24T23:33:37.562Z</time></trkpt><trkpt lat="37.5659567" lon="15.06231"><ele>377.0</ele><time>2026-04-24T23:33:38.563Z</time></trkpt><trkpt lat="37.5660417" lon="15.06215"><ele>377.25</ele><time>2026-04-24T23:33:39.563Z</time></trkpt><trkpt lat="37.5661333" lon="15.0619933"><ele>377.5</ele><time>2026-04-24T23:33:40.563Z</time></trkpt><trkpt lat="37.5662167" lon="15.0618417"><ele>377.75</ele><time>2026-04-24T23:33:41.563Z</time></trkpt><trkpt lat="37.5662933" lon="15.0617033"><ele>378.0</ele><time>2026-04-24T23:33:42.563Z</time></trkpt><trkpt lat="37.5663683" lon="15.06157"><ele>378.79999999999995</ele><time>2026-04-24T23:33:43.563Z</time></trkpt><trkpt lat="37.5664383" lon="15.0614517"><ele>379.6</ele><time>2026-04-24T23:33:44.563Z</time></trkpt><trkpt lat="37.566485" lon="15.0613667"><ele>380.4</ele><time>2026-04-24T23:33:45.563Z</time></trkpt><trkpt lat="37.566555" lon="15.0612817"><ele>381.20000000000005</ele><time>2026-04-24T23:33:47.563Z</time></trkpt><trkpt lat="37.5666433" lon="15.0612083"><ele>382.0</ele><time>2026-04-24T23:33:49.562Z</time></trkpt><trkpt lat="37.5666967" lon="15.0611483"><ele>382.0</ele><time>2026-04-24T23:33:50.563Z</time></trkpt><trkpt lat="37.5667417" lon="15.0610767"><ele>382.0</ele><time>2026-04-24T23:33:51.563Z</time></trkpt><trkpt lat="37.5667683" lon="15.06098"><ele>382.0</ele><time>2026-04-24T23:33:52.562Z</time></trkpt><trkpt lat="37.56679" lon="15.0608667"><ele>382.0</ele><time>2026-04-24T23:33:53.562Z</time></trkpt><trkpt lat="37.56683" lon="15.0607467"><ele>382.0</ele><time>2026-04-24T23:33:54.562Z</time></trkpt><trkpt lat="37.566885" lon="15.0606233"><ele>382.25</ele><time>2026-04-24T23:33:55.562Z</time></trkpt><trkpt lat="37.5669617" lon="15.0605017"><ele>382.5</ele><time>2026-04-24T23:33:56.563Z</time></trkpt><trkpt lat="37.5670333" lon="15.0603667"><ele>382.75</ele><time>2026-04-24T23:33:57.563Z</time></trkpt><trkpt lat="37.5671133" lon="15.0602283"><ele>383.0</ele><time>2026-04-24T23:33:58.562Z</time></trkpt><trkpt lat="37.56719" lon="15.060085"><ele>384.5</ele><time>2026-04-24T23:33:59.562Z</time></trkpt><trkpt lat="37.567275" lon="15.059945"><ele>386.0</ele><time>2026-04-24T23:34:00.563Z</time></trkpt><trkpt lat="37.56736" lon="15.059805"><ele>387.5</ele><time>2026-04-24T23:34:01.562Z</time></trkpt><trkpt lat="37.5674517" lon="15.0596567"><ele>389.0</ele><time>2026-04-24T23:34:02.563Z</time></trkpt><trkpt lat="37.5675467" lon="15.0595183"><ele>389.0</ele><time>2026-04-24T23:34:03.562Z</time></trkpt><trkpt lat="37.56765" lon="15.0593733"><ele>389.0</ele><time>2026-04-24T23:34:04.562Z</time></trkpt><trkpt lat="37.567765" lon="15.05924"><ele>389.0</ele><time>2026-04-24T23:34:05.563Z</time></trkpt><trkpt lat="37.5678917" lon="15.0591267"><ele>390.3333333333333</ele><time>2026-04-24T23:34:06.562Z</time></trkpt><trkpt lat="37.5680233" lon="15.0590233"><ele>391.66666666666663</ele><time>2026-04-24T23:34:07.562Z</time></trkpt><trkpt lat="37.5681667" lon="15.0589183"><ele>393.0</ele><time>2026-04-24T23:34:08.562Z</time></trkpt><trkpt lat="37.568315" lon="15.0588217"><ele>393.0</ele><time>2026-04-24T23:34:09.562Z</time></trkpt><trkpt lat="37.5684633" lon="15.0587483"><ele>393.0</ele><time>2026-04-24T23:34:10.562Z</time></trkpt><trkpt lat="37.5686167" lon="15.05868"><ele>393.0</ele><time>2026-04-24T23:34:11.563Z</time></trkpt><trkpt lat="37.5687717" lon="15.0586283"><ele>395.0</ele><time>2026-04-24T23:34:12.563Z</time></trkpt><trkpt lat="37.5689317" lon="15.0585867"><ele>397.0</ele><time>2026-04-24T23:34:13.563Z</time></trkpt><trkpt lat="37.5690883" lon="15.0585517"><ele>399.0</ele><time>2026-04-24T23:34:14.563Z</time></trkpt><trkpt lat="37.569245" lon="15.0585117"><ele>399.0</ele><time>2026-04-24T23:34:15.563Z</time></trkpt><trkpt lat="37.5693967" lon="15.0584867"><ele>399.0</ele><time>2026-04-24T23:34:16.563Z</time></trkpt><trkpt lat="37.569545" lon="15.0584717"><ele>399.0</ele><time>2026-04-24T23:34:17.563Z</time></trkpt><trkpt lat="37.56968" lon="15.0584567"><ele>399.0</ele><time>2026-04-24T23:34:18.563Z</time></trkpt><trkpt lat="37.569805" lon="15.0584467"><ele>400.0</ele><time>2026-04-24T23:34:19.562Z</time></trkpt><trkpt lat="37.5699283" lon="15.058425"><ele>401.0</ele><time>2026-04-24T23:34:20.563Z</time></trkpt><trkpt lat="37.5700517" lon="15.0584133"><ele>402.0</ele><time>2026-04-24T23:34:21.563Z</time></trkpt><trkpt lat="37.5701833" lon="15.0584067"><ele>403.0</ele><time>2026-04-24T23:34:22.562Z</time></trkpt><trkpt lat="37.5703167" lon="15.0584"><ele>404.0</ele><time>2026-04-24T23:34:23.563Z</time></trkpt><trkpt lat="37.5704483" lon="15.058395"><ele>405.0</ele><time>2026-04-24T23:34:24.563Z</time></trkpt><trkpt lat="37.5705967" lon="15.0583817"><ele>406.0</ele><time>2026-04-24T23:34:25.562Z</time></trkpt><trkpt lat="37.5707417" lon="15.0583683"><ele>407.0</ele><time>2026-04-24T23:34:26.562Z</time></trkpt><trkpt lat="37.5708867" lon="15.0583567"><ele>407.0</ele><time>2026-04-24T23:34:27.563Z</time></trkpt><trkpt lat="37.5710417" lon="15.058335"><ele>407.0</ele><time>2026-04-24T23:34:28.562Z</time></trkpt><trkpt lat="37.571195" lon="15.0583133"><ele>407.0</ele><time>2026-04-24T23:34:29.562Z</time></trkpt><trkpt lat="37.5713517" lon="15.0582917"><ele>407.0</ele><time>2026-04-24T23:34:30.563Z</time></trkpt><trkpt lat="37.57151" lon="15.0582667"><ele>407.0</ele><time>2026-04-24T23:34:31.563Z</time></trkpt><trkpt lat="37.571665" lon="15.058235"><ele>407.0</ele><time>2026-04-24T23:34:32.563Z</time></trkpt><trkpt lat="37.571825" lon="15.0582083"><ele>407.0</ele><time>2026-04-24T23:34:33.563Z</time></trkpt><trkpt lat="37.57197" lon="15.0581783"><ele>407.0</ele><time>2026-04-24T23:34:34.563Z</time></trkpt><trkpt lat="37.5720983" lon="15.0581517"><ele>407.0</ele><time>2026-04-24T23:34:35.562Z</time></trkpt><trkpt lat="37.57221" lon="15.058125"><ele>407.0</ele><time>2026-04-24T23:34:36.562Z</time></trkpt><trkpt lat="37.5723133" lon="15.0580967"><ele>407.8333333333333</ele><time>2026-04-24T23:34:37.563Z</time></trkpt><trkpt lat="37.572405" lon="15.05809"><ele>408.66666666666663</ele><time>2026-04-24T23:34:38.563Z</time></trkpt><trkpt lat="37.5724767" lon="15.0580783"><ele>409.5</ele><time>2026-04-24T23:34:39.563Z</time></trkpt><trkpt lat="37.5725633" lon="15.0581033"><ele>410.33333333333337</ele><time>2026-04-24T23:34:45.563Z</time></trkpt><trkpt lat="37.5726667" lon="15.058135"><ele>411.1666666666667</ele><time>2026-04-24T23:34:47.563Z</time></trkpt><trkpt lat="37.5727467" lon="15.0581217"><ele>412.0</ele><time>2026-04-24T23:34:48.562Z</time></trkpt><trkpt lat="37.572825" lon="15.05808"><ele>413.0</ele><time>2026-04-24T23:34:49.562Z</time></trkpt><trkpt lat="37.57291" lon="15.058035"><ele>414.0</ele><time>2026-04-24T23:34:50.563Z</time></trkpt><trkpt lat="37.5730017" lon="15.058"><ele>415.0</ele><time>2026-04-24T23:34:51.562Z</time></trkpt><trkpt lat="37.573105" lon="15.057975"><ele>416.0</ele><time>2026-04-24T23:34:52.563Z</time></trkpt><trkpt lat="37.573215" lon="15.0579483"><ele>417.0</ele><time>2026-04-24T23:34:53.562Z</time></trkpt><trkpt lat="37.5733333" lon="15.0579167"><ele>417.0</ele><time>2026-04-24T23:34:54.563Z</time></trkpt><trkpt lat="37.5734567" lon="15.0578967"><ele>417.0</ele><time>2026-04-24T23:34:55.563Z</time></trkpt><trkpt lat="37.5735817" lon="15.05788"><ele>417.0</ele><time>2026-04-24T23:34:56.562Z</time></trkpt><trkpt lat="37.5737017" lon="15.0578567"><ele>417.0</ele><time>2026-04-24T23:34:57.563Z</time></trkpt><trkpt lat="37.573825" lon="15.0578283"><ele>418.25</ele><time>2026-04-24T23:34:58.563Z</time></trkpt><trkpt lat="37.5739583" lon="15.0577983"><ele>419.5</ele><time>2026-04-24T23:34:59.563Z</time></trkpt><trkpt lat="37.5740833" lon="15.0577817"><ele>420.75</ele><time>2026-04-24T23:35:00.563Z</time></trkpt><trkpt lat="37.5742" lon="15.0577617"><ele>422.0</ele><time>2026-04-24T23:35:01.562Z</time></trkpt><trkpt lat="37.57431" lon="15.0577467"><ele>422.0</ele><time>2026-04-24T23:35:02.562Z</time></trkpt><trkpt lat="37.5744083" lon="15.0577317"><ele>422.0</ele><time>2026-04-24T23:35:03.562Z</time></trkpt><trkpt lat="37.5745" lon="15.0577233"><ele>422.0</ele><time>2026-04-24T23:35:04.563Z</time></trkpt><trkpt lat="37.5745933" lon="15.0577333"><ele>422.0</ele><time>2026-04-24T23:35:05.563Z</time></trkpt><trkpt lat="37.57469" lon="15.05774"><ele>422.0</ele><time>2026-04-24T23:35:06.563Z</time></trkpt><trkpt lat="37.5747883" lon="15.0577267"><ele>422.0</ele><time>2026-04-24T23:35:07.563Z</time></trkpt><trkpt lat="37.5748883" lon="15.0576817"><ele>422.0</ele><time>2026-04-24T23:35:08.562Z</time></trkpt><trkpt lat="37.5749817" lon="15.057625"><ele>422.0</ele><time>2026-04-24T23:35:09.562Z</time></trkpt><trkpt lat="37.575085" lon="15.0575733"><ele>422.0</ele><time>2026-04-24T23:35:10.563Z</time></trkpt><trkpt lat="37.5751983" lon="15.0575367"><ele>422.0</ele><time>2026-04-24T23:35:11.562Z</time></trkpt><trkpt lat="37.5753183" lon="15.057505"><ele>423.5</ele><time>2026-04-24T23:35:12.562Z</time></trkpt><trkpt lat="37.5754283" lon="15.05747"><ele>425.0</ele><time>2026-04-24T23:35:13.563Z</time></trkpt><trkpt lat="37.57554" lon="15.0574383"><ele>426.5</ele><time>2026-04-24T23:35:14.563Z</time></trkpt><trkpt lat="37.5756517" lon="15.0574"><ele>428.0</ele><time>2026-04-24T23:35:15.562Z</time></trkpt><trkpt lat="37.5757633" lon="15.0573633"><ele>428.0</ele><time>2026-04-24T23:35:16.563Z</time></trkpt><trkpt lat="37.575885" lon="15.0573267"><ele>428.0</ele><time>2026-04-24T23:35:17.562Z</time></trkpt><trkpt lat="37.5760033" lon="15.0572817"><ele>428.0</ele><time>2026-04-24T23:35:18.563Z</time></trkpt><trkpt lat="37.5761233" lon="15.0572283"><ele>428.0</ele><time>2026-04-24T23:35:19.562Z</time></trkpt><trkpt lat="37.5762483" lon="15.0571733"><ele>429.5</ele><time>2026-04-24T23:35:20.563Z</time></trkpt><trkpt lat="37.5763767" lon="15.057115"><ele>431.0</ele><time>2026-04-24T23:35:21.563Z</time></trkpt><trkpt lat="37.5765067" lon="15.057055"><ele>432.5</ele><time>2026-04-24T23:35:22.562Z</time></trkpt><trkpt lat="37.5766383" lon="15.0569967"><ele>434.0</ele><time>2026-04-24T23:35:23.563Z</time></trkpt><trkpt lat="37.5767783" lon="15.05694"><ele>434.0</ele><time>2026-04-24T23:35:24.563Z</time></trkpt><trkpt lat="37.5769183" lon="15.0568783"><ele>434.0</ele><time>2026-04-24T23:35:25.563Z</time></trkpt><trkpt lat="37.577055" lon="15.0568233"><ele>434.0</ele><time>2026-04-24T23:35:26.562Z</time></trkpt><trkpt lat="37.57719" lon="15.0567617"><ele>434.0</ele><time>2026-04-24T23:35:27.563Z</time></trkpt><trkpt lat="37.577325" lon="15.056705"><ele>435.0</ele><time>2026-04-24T23:35:28.563Z</time></trkpt><trkpt lat="37.5774667" lon="15.0566433"><ele>436.0</ele><time>2026-04-24T23:35:29.562Z</time></trkpt><trkpt lat="37.5776033" lon="15.0565867"><ele>437.0</ele><time>2026-04-24T23:35:30.562Z</time></trkpt><trkpt lat="37.577745" lon="15.0565233"><ele>438.0</ele><time>2026-04-24T23:35:31.563Z</time></trkpt><trkpt lat="37.577885" lon="15.0564633"><ele>439.66666666666663</ele><time>2026-04-24T23:35:32.563Z</time></trkpt><trkpt lat="37.5780283" lon="15.0564067"><ele>441.3333333333333</ele><time>2026-04-24T23:35:33.563Z</time></trkpt><trkpt lat="37.5781733" lon="15.05635"><ele>443.0</ele><time>2026-04-24T23:35:34.563Z</time></trkpt><trkpt lat="37.578315" lon="15.0562933"><ele>443.0</ele><time>2026-04-24T23:35:35.562Z</time></trkpt><trkpt lat="37.5784533" lon="15.056225"><ele>443.0</ele><time>2026-04-24T23:35:36.563Z</time></trkpt><trkpt lat="37.578595" lon="15.0561667"><ele>443.0</ele><time>2026-04-24T23:35:37.563Z</time></trkpt><trkpt lat="37.5787333" lon="15.0561083"><ele>443.0</ele><time>2026-04-24T23:35:38.563Z</time></trkpt><trkpt lat="37.5788667" lon="15.05605"><ele>443.5</ele><time>2026-04-24T23:35:39.562Z</time></trkpt><trkpt lat="37.5789983" lon="15.0559983"><ele>444.0</ele><time>2026-04-24T23:35:40.562Z</time></trkpt><trkpt lat="37.5791283" lon="15.055945"><ele>444.5</ele><time>2026-04-24T23:35:41.563Z</time></trkpt><trkpt lat="37.5792467" lon="15.0558883"><ele>445.0</ele><time>2026-04-24T23:35:42.562Z</time></trkpt><trkpt lat="37.57937" lon="15.0558417"><ele>445.0</ele><time>2026-04-24T23:35:43.562Z</time></trkpt><trkpt lat="37.5794883" lon="15.055795"><ele>445.0</ele><time>2026-04-24T23:35:44.563Z</time></trkpt><trkpt lat="37.5796067" lon="15.05575"><ele>445.0</ele><time>2026-04-24T23:35:45.563Z</time></trkpt><trkpt lat="37.5797183" lon="15.055705"><ele>445.0</ele><time>2026-04-24T23:35:46.563Z</time></trkpt><trkpt lat="37.5798367" lon="15.0556583"><ele>446.0</ele><time>2026-04-24T23:35:47.562Z</time></trkpt><trkpt lat="37.5799433" lon="15.0556033"><ele>447.0</ele><time>2026-04-24T23:35:48.562Z</time></trkpt><trkpt lat="37.5800467" lon="15.0555567"><ele>448.0</ele><time>2026-04-24T23:35:49.563Z</time></trkpt><trkpt lat="37.58015" lon="15.0555083"><ele>449.0</ele><time>2026-04-24T23:35:50.563Z</time></trkpt><trkpt lat="37.58025" lon="15.0554483"><ele>450.0</ele><time>2026-04-24T23:35:51.563Z</time></trkpt><trkpt lat="37.58035" lon="15.0553917"><ele>450.8</ele><time>2026-04-24T23:35:52.563Z</time></trkpt><trkpt lat="37.5804383" lon="15.05532"><ele>451.6</ele><time>2026-04-24T23:35:53.563Z</time></trkpt><trkpt lat="37.5805333" lon="15.0552517"><ele>452.4</ele><time>2026-04-24T23:35:54.563Z</time></trkpt><trkpt lat="37.5806183" lon="15.0551683"><ele>453.2</ele><time>2026-04-24T23:35:55.563Z</time></trkpt><trkpt lat="37.580705" lon="15.0550833"><ele>454.0</ele><time>2026-04-24T23:35:56.562Z</time></trkpt><trkpt lat="37.58079" lon="15.0549867"><ele>454.25</ele><time>2026-04-24T23:35:57.563Z</time></trkpt><trkpt lat="37.5808717" lon="15.0548783"><ele>454.5</ele><time>2026-04-24T23:35:58.563Z</time></trkpt><trkpt lat="37.5809533" lon="15.0547767"><ele>454.75</ele><time>2026-04-24T23:35:59.563Z</time></trkpt><trkpt lat="37.58103" lon="15.0546667"><ele>455.0</ele><time>2026-04-24T23:36:00.562Z</time></trkpt><trkpt lat="37.5811083" lon="15.05456"><ele>455.0</ele><time>2026-04-24T23:36:01.563Z</time></trkpt><trkpt lat="37.5811817" lon="15.054455"><ele>455.0</ele><time>2026-04-24T23:36:02.563Z</time></trkpt><trkpt lat="37.5812567" lon="15.0543533"><ele>455.0</ele><time>2026-04-24T23:36:03.563Z</time></trkpt><trkpt lat="37.5813233" lon="15.0542467"><ele>455.0</ele><time>2026-04-24T23:36:04.562Z</time></trkpt><trkpt lat="37.5813933" lon="15.0541417"><ele>455.0</ele><time>2026-04-24T23:36:05.562Z</time></trkpt><trkpt lat="37.581465" lon="15.0540467"><ele>456.4</ele><time>2026-04-24T23:36:06.563Z</time></trkpt><trkpt lat="37.5815367" lon="15.0539433"><ele>457.8</ele><time>2026-04-24T23:36:07.562Z</time></trkpt><trkpt lat="37.5816067" lon="15.0538433"><ele>459.20000000000005</ele><time>2026-04-24T23:36:08.563Z</time></trkpt><trkpt lat="37.5816767" lon="15.053735"><ele>460.6</ele><time>2026-04-24T23:36:09.563Z</time></trkpt><trkpt lat="37.581755" lon="15.053625"><ele>462.0</ele><time>2026-04-24T23:36:10.563Z</time></trkpt><trkpt lat="37.581825" lon="15.0535133"><ele>462.0</ele><time>2026-04-24T23:36:11.563Z</time></trkpt><trkpt lat="37.5819" lon="15.0534117"><ele>462.0</ele><time>2026-04-24T23:36:12.562Z</time></trkpt><trkpt lat="37.5819783" lon="15.053295"><ele>462.0</ele><time>2026-04-24T23:36:13.563Z</time></trkpt><trkpt lat="37.582055" lon="15.0531767"><ele>462.0</ele><time>2026-04-24T23:36:14.563Z</time></trkpt><trkpt lat="37.5821333" lon="15.0530733"><ele>462.8</ele><time>2026-04-24T23:36:15.562Z</time></trkpt><trkpt lat="37.5822017" lon="15.0529617"><ele>463.6</ele><time>2026-04-24T23:36:16.563Z</time></trkpt><trkpt lat="37.5822733" lon="15.0528617"><ele>464.40000000000003</ele><time>2026-04-24T23:36:17.563Z</time></trkpt><trkpt lat="37.5823467" lon="15.0527583"><ele>465.20000000000005</ele><time>2026-04-24T23:36:18.563Z</time></trkpt><trkpt lat="37.58243" lon="15.0526583"><ele>466.0</ele><time>2026-04-24T23:36:19.563Z</time></trkpt><trkpt lat="37.5825" lon="15.0525483"><ele>466.75</ele><time>2026-04-24T23:36:20.562Z</time></trkpt><trkpt lat="37.5825717" lon="15.05244"><ele>467.5</ele><time>2026-04-24T23:36:21.563Z</time></trkpt><trkpt lat="37.5826467" lon="15.05233"><ele>468.25</ele><time>2026-04-24T23:36:22.562Z</time></trkpt><trkpt lat="37.5827183" lon="15.0522183"><ele>469.0</ele><time>2026-04-24T23:36:23.563Z</time></trkpt><trkpt lat="37.5827883" lon="15.0520967"><ele>470.25</ele><time>2026-04-24T23:36:24.563Z</time></trkpt><trkpt lat="37.5828483" lon="15.05196"><ele>471.5</ele><time>2026-04-24T23:36:25.562Z</time></trkpt><trkpt lat="37.5829033" lon="15.05182"><ele>472.75</ele><time>2026-04-24T23:36:26.563Z</time></trkpt><trkpt lat="37.5829567" lon="15.0516867"><ele>474.0</ele><time>2026-04-24T23:36:27.563Z</time></trkpt><trkpt lat="37.5830183" lon="15.051555"><ele>474.0</ele><time>2026-04-24T23:36:28.563Z</time></trkpt><trkpt lat="37.5830883" lon="15.05143"><ele>474.0</ele><time>2026-04-24T23:36:29.562Z</time></trkpt><trkpt lat="37.58317" lon="15.0513183"><ele>474.0</ele><time>2026-04-24T23:36:30.563Z</time></trkpt><trkpt lat="37.583255" lon="15.0512217"><ele>474.0</ele><time>2026-04-24T23:36:31.563Z</time></trkpt><trkpt lat="37.5833367" lon="15.051135"><ele>474.0</ele><time>2026-04-24T23:36:32.562Z</time></trkpt><trkpt lat="37.5834217" lon="15.0510533"><ele>474.0</ele><time>2026-04-24T23:36:33.562Z</time></trkpt><trkpt lat="37.5835017" lon="15.0509783"><ele>474.0</ele><time>2026-04-24T23:36:34.562Z</time></trkpt><trkpt lat="37.5835767" lon="15.0509067"><ele>474.0</ele><time>2026-04-24T23:36:35.563Z</time></trkpt><trkpt lat="37.5836467" lon="15.0508267"><ele>474.0</ele><time>2026-04-24T23:36:36.562Z</time></trkpt><trkpt lat="37.5837" lon="15.0507517"><ele>475.0</ele><time>2026-04-24T23:36:37.563Z</time></trkpt><trkpt lat="37.5837417" lon="15.0506883"><ele>476.0</ele><time>2026-04-24T23:36:38.562Z</time></trkpt><trkpt lat="37.5837783" lon="15.05062"><ele>477.0</ele><time>2026-04-24T23:36:39.563Z</time></trkpt><trkpt lat="37.583815" lon="15.0505517"><ele>478.0</ele><time>2026-04-24T23:36:40.563Z</time></trkpt><trkpt lat="37.5838617" lon="15.0504867"><ele>479.0</ele><time>2026-04-24T23:36:41.562Z</time></trkpt><trkpt lat="37.5839433" lon="15.050365"><ele>480.0</ele><time>2026-04-24T23:36:43.563Z</time></trkpt><trkpt lat="37.583995" lon="15.0503"><ele>480.0</ele><time>2026-04-24T23:36:44.563Z</time></trkpt><trkpt lat="37.5840467" lon="15.0502533"><ele>480.0</ele><time>2026-04-24T23:36:45.562Z</time></trkpt><trkpt lat="37.5841017" lon="15.0502067"><ele>480.0</ele><time>2026-04-24T23:36:46.563Z</time></trkpt><trkpt lat="37.5841533" lon="15.050155"><ele>480.0</ele><time>2026-04-24T23:36:47.563Z</time></trkpt><trkpt lat="37.5842133" lon="15.0501"><ele>480.0</ele><time>2026-04-24T23:36:48.562Z</time></trkpt><trkpt lat="37.58428" lon="15.0500567"><ele>480.0</ele><time>2026-04-24T23:36:49.563Z</time></trkpt><trkpt lat="37.5843583" lon="15.050025"><ele>480.0</ele><time>2026-04-24T23:36:50.562Z</time></trkpt><trkpt lat="37.5844483" lon="15.0500133"><ele>480.8</ele><time>2026-04-24T23:36:51.563Z</time></trkpt><trkpt lat="37.5845483" lon="15.0500133"><ele>481.6</ele><time>2026-04-24T23:36:52.562Z</time></trkpt><trkpt lat="37.58465" lon="15.0500133"><ele>482.4</ele><time>2026-04-24T23:36:53.562Z</time></trkpt><trkpt lat="37.58476" lon="15.05001"><ele>483.2</ele><time>2026-04-24T23:36:54.563Z</time></trkpt><trkpt lat="37.5848783" lon="15.050005"><ele>484.0</ele><time>2026-04-24T23:36:55.563Z</time></trkpt><trkpt lat="37.585" lon="15.0499967"><ele>484.0</ele><time>2026-04-24T23:36:56.563Z</time></trkpt><trkpt lat="37.5851267" lon="15.0499833"><ele>484.0</ele><time>2026-04-24T23:36:57.563Z</time></trkpt><trkpt lat="37.585255" lon="15.0499767"><ele>484.0</ele><time>2026-04-24T23:36:58.562Z</time></trkpt><trkpt lat="37.5853867" lon="15.0499683"><ele>484.0</ele><time>2026-04-24T23:36:59.563Z</time></trkpt><trkpt lat="37.585525" lon="15.0499517"><ele>485.75</ele><time>2026-04-24T23:37:00.563Z</time></trkpt><trkpt lat="37.58565" lon="15.0499467"><ele>487.5</ele><time>2026-04-24T23:37:01.563Z</time></trkpt><trkpt lat="37.5857767" lon="15.04993"><ele>489.25</ele><time>2026-04-24T23:37:02.563Z</time></trkpt><trkpt lat="37.5858983" lon="15.04991"><ele>491.0</ele><time>2026-04-24T23:37:03.563Z</time></trkpt><trkpt lat="37.5860233" lon="15.0498833"><ele>491.0</ele><time>2026-04-24T23:37:04.563Z</time></trkpt><trkpt lat="37.5861433" lon="15.049825"><ele>491.0</ele><time>2026-04-24T23:37:05.563Z</time></trkpt><trkpt lat="37.5862567" lon="15.049745"><ele>491.0</ele><time>2026-04-24T23:37:06.563Z</time></trkpt><trkpt lat="37.5863667" lon="15.0496517"><ele>491.0</ele><time>2026-04-24T23:37:07.563Z</time></trkpt><trkpt lat="37.5864733" lon="15.0495567"><ele>492.25</ele><time>2026-04-24T23:37:08.562Z</time></trkpt><trkpt lat="37.586585" lon="15.049455"><ele>493.5</ele><time>2026-04-24T23:37:09.562Z</time></trkpt><trkpt lat="37.5866983" lon="15.0493467"><ele>494.75</ele><time>2026-04-24T23:37:10.562Z</time></trkpt><trkpt lat="37.586815" lon="15.04924"><ele>496.0</ele><time>2026-04-24T23:37:11.563Z</time></trkpt><trkpt lat="37.5869317" lon="15.0491317"><ele>497.75</ele><time>2026-04-24T23:37:12.563Z</time></trkpt><trkpt lat="37.5870533" lon="15.0490233"><ele>499.5</ele><time>2026-04-24T23:37:13.563Z</time></trkpt><trkpt lat="37.5871733" lon="15.0489167"><ele>501.25</ele><time>2026-04-24T23:37:14.562Z</time></trkpt><trkpt lat="37.587295" lon="15.04881"><ele>503.0</ele><time>2026-04-24T23:37:15.563Z</time></trkpt><trkpt lat="37.5874117" lon="15.0487117"><ele>503.0</ele><time>2026-04-24T23:37:16.563Z</time></trkpt><trkpt lat="37.587525" lon="15.0486117"><ele>503.0</ele><time>2026-04-24T23:37:17.562Z</time></trkpt><trkpt lat="37.5876417" lon="15.04853"><ele>503.0</ele><time>2026-04-24T23:37:18.563Z</time></trkpt><trkpt lat="37.5877567" lon="15.04847"><ele>503.0</ele><time>2026-04-24T23:37:19.563Z</time></trkpt><trkpt lat="37.58788" lon="15.048435"><ele>503.5</ele><time>2026-04-24T23:37:20.563Z</time></trkpt><trkpt lat="37.588005" lon="15.0484183"><ele>504.0</ele><time>2026-04-24T23:37:21.562Z</time></trkpt><trkpt lat="37.58813" lon="15.0483983"><ele>504.5</ele><time>2026-04-24T23:37:22.562Z</time></trkpt><trkpt lat="37.5882517" lon="15.0483883"><ele>505.0</ele><time>2026-04-24T23:37:23.563Z</time></trkpt><trkpt lat="37.5883583" lon="15.0483783"><ele>505.0</ele><time>2026-04-24T23:37:24.562Z</time></trkpt><trkpt lat="37.5884583" lon="15.0483783"><ele>505.0</ele><time>2026-04-24T23:37:25.562Z</time></trkpt><trkpt lat="37.5885483" lon="15.048375"><ele>505.0</ele><time>2026-04-24T23:37:26.562Z</time></trkpt><trkpt lat="37.58872" lon="15.0484317"><ele>505.0</ele><time>2026-04-24T23:37:28.563Z</time></trkpt><trkpt lat="37.5888033" lon="15.0484983"><ele>505.8</ele><time>2026-04-24T23:37:29.562Z</time></trkpt><trkpt lat="37.588875" lon="15.0485833"><ele>506.6</ele><time>2026-04-24T23:37:30.563Z</time></trkpt><trkpt lat="37.588945" lon="15.0486733"><ele>507.4</ele><time>2026-04-24T23:37:31.562Z</time></trkpt><trkpt lat="37.5890217" lon="15.04876"><ele>508.2</ele><time>2026-04-24T23:37:32.563Z</time></trkpt><trkpt lat="37.5891017" lon="15.0488517"><ele>509.0</ele><time>2026-04-24T23:37:33.562Z</time></trkpt><trkpt lat="37.5891783" lon="15.04894"><ele>509.0</ele><time>2026-04-24T23:37:34.563Z</time></trkpt><trkpt lat="37.58925" lon="15.0490333"><ele>509.0</ele><time>2026-04-24T23:37:35.563Z</time></trkpt><trkpt lat="37.589335" lon="15.049125"><ele>509.0</ele><time>2026-04-24T23:37:36.562Z</time></trkpt><trkpt lat="37.58942" lon="15.0492133"><ele>509.0</ele><time>2026-04-24T23:37:37.562Z</time></trkpt><trkpt lat="37.5894967" lon="15.0492967"><ele>509.0</ele><time>2026-04-24T23:37:38.563Z</time></trkpt><trkpt lat="37.5895733" lon="15.0493733"><ele>508.49999999999994</ele><time>2026-04-24T23:37:39.563Z</time></trkpt><trkpt lat="37.5896483" lon="15.0494417"><ele>508.0</ele><time>2026-04-24T23:37:40.563Z</time></trkpt><trkpt lat="37.58972" lon="15.049495"><ele>507.5</ele><time>2026-04-24T23:37:41.563Z</time></trkpt><trkpt lat="37.58978" lon="15.0495367"><ele>507.0</ele><time>2026-04-24T23:37:42.563Z</time></trkpt><trkpt lat="37.5898533" lon="15.0495883"><ele>506.49999999999994</ele><time>2026-04-24T23:37:44.563Z</time></trkpt><trkpt lat="37.589855" lon="15.0497017"><ele>506.0</ele><time>2026-04-24T23:37:47.563Z</time></trkpt><trkpt lat="37.5897883" lon="15.0497883"><ele>505.99999999999994</ele><time>2026-04-24T23:37:49.563Z</time></trkpt><trkpt lat="37.5897517" lon="15.049875"><ele>506.0</ele><time>2026-04-24T23:37:52.562Z</time></trkpt><trkpt lat="37.5897817" lon="15.049955"><ele>506.0</ele><time>2026-04-24T23:37:54.563Z</time></trkpt><trkpt lat="37.5898167" lon="15.0500417"><ele>506.0</ele><time>2026-04-24T23:37:56.563Z</time></trkpt><trkpt lat="37.5898517" lon="15.0501517"><ele>505.99999999999994</ele><time>2026-04-24T23:37:58.563Z</time></trkpt><trkpt lat="37.5898533" lon="15.0502583"><ele>506.0</ele><time>2026-04-24T23:38:00.562Z</time></trkpt><trkpt lat="37.589825" lon="15.0503433"><ele>511.0</ele><time>2026-04-24T23:38:02.563Z</time></trkpt><trkpt lat="37.5897983" lon="15.05042"><ele>511.0</ele><time>2026-04-24T23:38:40.563Z</time></trkpt><trkpt lat="37.589735" lon="15.0504383"><ele>511.0</ele><time>2026-04-24T23:39:24.563Z</time></trkpt><trkpt lat="37.5896683" lon="15.0504017"><ele>511.0</ele><time>2026-04-24T23:39:28.563Z</time></trkpt><trkpt lat="37.58968" lon="15.0502917"><ele>511.0</ele><time>2026-04-24T23:39:51.563Z</time></trkpt><trkpt lat="37.5896283" lon="15.0502033"><ele>511.0</ele><time>2026-04-24T23:39:53.564Z</time></trkpt></trkseg></trk></gpx>